<?xml version="1.0" encoding="UTF-8" standalone="no" ?>
<gpx xmlns="http://www.topografix.com/GPX/1/1" xmlns:xsi="http://www.w3.org/2001/XMLSchema-instance" xsi:schemaLocation="http://www.topografix.com/GPX/1/1 http://www.topografix.com/GPX/1/1/gpx.xsd" version="1.1" creator="VisuGPX - https://www.visugpx.com">
  <metadata>
    <name>Sortie Bonnelles Rochefort</name>
  </metadata>
  <trk>
    <name><![CDATA[Sortie Bonnelles Rochefort_1]]></name>
    <trkseg>
      <trkpt lat="48.61489" lon="2.10794">
        <ele>106.8</ele>
        <time>2020-05-31T07:17:43Z</time>
      </trkpt>
      <trkpt lat="48.6149" lon="2.1079">
        <ele>107</ele>
        <time>2020-05-31T07:17:45Z</time>
      </trkpt>
      <trkpt lat="48.61491" lon="2.10787">
        <ele>107</ele>
        <time>2020-05-31T07:17:47Z</time>
      </trkpt>
      <trkpt lat="48.61491" lon="2.10783">
        <ele>107</ele>
        <time>2020-05-31T07:17:49Z</time>
      </trkpt>
      <trkpt lat="48.61492" lon="2.10779">
        <ele>107</ele>
        <time>2020-05-31T07:17:51Z</time>
      </trkpt>
      <trkpt lat="48.61493" lon="2.10775">
        <ele>107</ele>
        <time>2020-05-31T07:17:53Z</time>
      </trkpt>
      <trkpt lat="48.61494" lon="2.10772">
        <ele>107</ele>
        <time>2020-05-31T07:17:55Z</time>
      </trkpt>
      <trkpt lat="48.61495" lon="2.10769">
        <ele>107</ele>
        <time>2020-05-31T07:17:57Z</time>
      </trkpt>
      <trkpt lat="48.61496" lon="2.10765">
        <ele>107</ele>
        <time>2020-05-31T07:17:59Z</time>
      </trkpt>
      <trkpt lat="48.61497" lon="2.10762">
        <ele>107</ele>
        <time>2020-05-31T07:18:01Z</time>
      </trkpt>
      <trkpt lat="48.61498" lon="2.10758">
        <ele>107</ele>
        <time>2020-05-31T07:18:03Z</time>
      </trkpt>
      <trkpt lat="48.61499" lon="2.10755">
        <ele>106</ele>
        <time>2020-05-31T07:18:05Z</time>
      </trkpt>
      <trkpt lat="48.615" lon="2.10752">
        <ele>106</ele>
        <time>2020-05-31T07:18:07Z</time>
      </trkpt>
      <trkpt lat="48.61501" lon="2.10748">
        <ele>106</ele>
        <time>2020-05-31T07:18:09Z</time>
      </trkpt>
      <trkpt lat="48.61501" lon="2.10745">
        <ele>106</ele>
        <time>2020-05-31T07:18:11Z</time>
      </trkpt>
      <trkpt lat="48.61502" lon="2.10741">
        <ele>106</ele>
        <time>2020-05-31T07:18:13Z</time>
      </trkpt>
      <trkpt lat="48.61503" lon="2.10739">
        <ele>106</ele>
        <time>2020-05-31T07:18:15Z</time>
      </trkpt>
      <trkpt lat="48.61503" lon="2.10736">
        <ele>107</ele>
        <time>2020-05-31T07:18:19Z</time>
      </trkpt>
      <trkpt lat="48.61503" lon="2.10733">
        <ele>107</ele>
        <time>2020-05-31T07:18:23Z</time>
      </trkpt>
      <trkpt lat="48.61504" lon="2.1073">
        <ele>107</ele>
        <time>2020-05-31T07:18:25Z</time>
      </trkpt>
      <trkpt lat="48.61505" lon="2.10727">
        <ele>107</ele>
        <time>2020-05-31T07:18:27Z</time>
      </trkpt>
      <trkpt lat="48.61506" lon="2.10724">
        <ele>107</ele>
        <time>2020-05-31T07:18:29Z</time>
      </trkpt>
      <trkpt lat="48.61508" lon="2.10721">
        <ele>108</ele>
        <time>2020-05-31T07:18:31Z</time>
      </trkpt>
      <trkpt lat="48.61508" lon="2.10718">
        <ele>108</ele>
        <time>2020-05-31T07:18:33Z</time>
      </trkpt>
      <trkpt lat="48.61508" lon="2.10715">
        <ele>108</ele>
        <time>2020-05-31T07:18:35Z</time>
      </trkpt>
      <trkpt lat="48.61509" lon="2.10712">
        <ele>108</ele>
        <time>2020-05-31T07:18:38Z</time>
      </trkpt>
      <trkpt lat="48.61508" lon="2.1071">
        <ele>108</ele>
        <time>2020-05-31T07:18:41Z</time>
      </trkpt>
      <trkpt lat="48.61507" lon="2.10708">
        <ele>108</ele>
        <time>2020-05-31T07:18:43Z</time>
      </trkpt>
      <trkpt lat="48.61505" lon="2.10706">
        <ele>108</ele>
        <time>2020-05-31T07:18:45Z</time>
      </trkpt>
      <trkpt lat="48.61503" lon="2.10705">
        <ele>108</ele>
        <time>2020-05-31T07:18:47Z</time>
      </trkpt>
      <trkpt lat="48.615" lon="2.10704">
        <ele>108</ele>
        <time>2020-05-31T07:18:49Z</time>
      </trkpt>
      <trkpt lat="48.61498" lon="2.10703">
        <ele>108</ele>
        <time>2020-05-31T07:18:51Z</time>
      </trkpt>
      <trkpt lat="48.61496" lon="2.10702">
        <ele>108</ele>
        <time>2020-05-31T07:18:53Z</time>
      </trkpt>
      <trkpt lat="48.61494" lon="2.10701">
        <ele>108</ele>
        <time>2020-05-31T07:18:55Z</time>
      </trkpt>
      <trkpt lat="48.61491" lon="2.107">
        <ele>108</ele>
        <time>2020-05-31T07:18:57Z</time>
      </trkpt>
      <trkpt lat="48.61489" lon="2.10698">
        <ele>108</ele>
        <time>2020-05-31T07:18:59Z</time>
      </trkpt>
      <trkpt lat="48.61487" lon="2.10697">
        <ele>108</ele>
        <time>2020-05-31T07:19:01Z</time>
      </trkpt>
      <trkpt lat="48.61485" lon="2.10695">
        <ele>108</ele>
        <time>2020-05-31T07:19:03Z</time>
      </trkpt>
      <trkpt lat="48.61483" lon="2.10693">
        <ele>108</ele>
        <time>2020-05-31T07:19:05Z</time>
      </trkpt>
      <trkpt lat="48.6148" lon="2.10691">
        <ele>109</ele>
        <time>2020-05-31T07:19:07Z</time>
      </trkpt>
      <trkpt lat="48.61479" lon="2.1069">
        <ele>109</ele>
        <time>2020-05-31T07:19:09Z</time>
      </trkpt>
      <trkpt lat="48.61476" lon="2.10688">
        <ele>109</ele>
        <time>2020-05-31T07:19:11Z</time>
      </trkpt>
      <trkpt lat="48.61475" lon="2.10686">
        <ele>109</ele>
        <time>2020-05-31T07:19:13Z</time>
      </trkpt>
      <trkpt lat="48.61473" lon="2.10684">
        <ele>109</ele>
        <time>2020-05-31T07:19:28Z</time>
      </trkpt>
      <trkpt lat="48.61471" lon="2.10683">
        <ele>109</ele>
        <time>2020-05-31T07:19:30Z</time>
      </trkpt>
      <trkpt lat="48.6147" lon="2.1068">
        <ele>109</ele>
        <time>2020-05-31T07:19:32Z</time>
      </trkpt>
      <trkpt lat="48.61468" lon="2.10678">
        <ele>109</ele>
        <time>2020-05-31T07:19:34Z</time>
      </trkpt>
      <trkpt lat="48.61467" lon="2.10676">
        <ele>109</ele>
        <time>2020-05-31T07:19:37Z</time>
      </trkpt>
      <trkpt lat="48.61466" lon="2.10674">
        <ele>109</ele>
        <time>2020-05-31T07:19:39Z</time>
      </trkpt>
      <trkpt lat="48.61464" lon="2.10672">
        <ele>109</ele>
        <time>2020-05-31T07:19:41Z</time>
      </trkpt>
      <trkpt lat="48.61463" lon="2.10669">
        <ele>109</ele>
        <time>2020-05-31T07:19:43Z</time>
      </trkpt>
      <trkpt lat="48.61461" lon="2.10667">
        <ele>110</ele>
        <time>2020-05-31T07:19:45Z</time>
      </trkpt>
      <trkpt lat="48.6146" lon="2.10665">
        <ele>110</ele>
        <time>2020-05-31T07:19:47Z</time>
      </trkpt>
      <trkpt lat="48.61458" lon="2.10663">
        <ele>110</ele>
        <time>2020-05-31T07:19:49Z</time>
      </trkpt>
      <trkpt lat="48.61456" lon="2.1066">
        <ele>110</ele>
        <time>2020-05-31T07:19:51Z</time>
      </trkpt>
      <trkpt lat="48.61455" lon="2.10658">
        <ele>110</ele>
        <time>2020-05-31T07:19:53Z</time>
      </trkpt>
      <trkpt lat="48.61454" lon="2.10655">
        <ele>110</ele>
        <time>2020-05-31T07:19:55Z</time>
      </trkpt>
      <trkpt lat="48.61452" lon="2.10653">
        <ele>110</ele>
        <time>2020-05-31T07:19:57Z</time>
      </trkpt>
      <trkpt lat="48.6145" lon="2.10651">
        <ele>110</ele>
        <time>2020-05-31T07:19:59Z</time>
      </trkpt>
      <trkpt lat="48.61449" lon="2.10648">
        <ele>110</ele>
        <time>2020-05-31T07:20:01Z</time>
      </trkpt>
      <trkpt lat="48.61447" lon="2.10646">
        <ele>110</ele>
        <time>2020-05-31T07:20:03Z</time>
      </trkpt>
      <trkpt lat="48.61446" lon="2.10643">
        <ele>110</ele>
        <time>2020-05-31T07:20:05Z</time>
      </trkpt>
      <trkpt lat="48.61444" lon="2.10641">
        <ele>110</ele>
        <time>2020-05-31T07:20:07Z</time>
      </trkpt>
      <trkpt lat="48.61442" lon="2.10639">
        <ele>110</ele>
        <time>2020-05-31T07:20:09Z</time>
      </trkpt>
      <trkpt lat="48.61441" lon="2.10637">
        <ele>111</ele>
        <time>2020-05-31T07:20:11Z</time>
      </trkpt>
      <trkpt lat="48.61439" lon="2.10634">
        <ele>111</ele>
        <time>2020-05-31T07:20:13Z</time>
      </trkpt>
      <trkpt lat="48.61437" lon="2.10632">
        <ele>111</ele>
        <time>2020-05-31T07:20:15Z</time>
      </trkpt>
      <trkpt lat="48.61436" lon="2.1063">
        <ele>111</ele>
        <time>2020-05-31T07:20:17Z</time>
      </trkpt>
      <trkpt lat="48.61434" lon="2.10627">
        <ele>111</ele>
        <time>2020-05-31T07:20:19Z</time>
      </trkpt>
      <trkpt lat="48.61432" lon="2.10625">
        <ele>111</ele>
        <time>2020-05-31T07:20:21Z</time>
      </trkpt>
      <trkpt lat="48.6143" lon="2.10623">
        <ele>111</ele>
        <time>2020-05-31T07:20:23Z</time>
      </trkpt>
      <trkpt lat="48.61429" lon="2.1062">
        <ele>111</ele>
        <time>2020-05-31T07:20:25Z</time>
      </trkpt>
      <trkpt lat="48.61427" lon="2.10618">
        <ele>111</ele>
        <time>2020-05-31T07:20:27Z</time>
      </trkpt>
      <trkpt lat="48.61426" lon="2.10615">
        <ele>111</ele>
        <time>2020-05-31T07:20:29Z</time>
      </trkpt>
      <trkpt lat="48.61424" lon="2.10613">
        <ele>112</ele>
        <time>2020-05-31T07:20:31Z</time>
      </trkpt>
      <trkpt lat="48.61422" lon="2.1061">
        <ele>112</ele>
        <time>2020-05-31T07:20:33Z</time>
      </trkpt>
      <trkpt lat="48.61421" lon="2.10608">
        <ele>112</ele>
        <time>2020-05-31T07:20:35Z</time>
      </trkpt>
      <trkpt lat="48.61419" lon="2.10606">
        <ele>112</ele>
        <time>2020-05-31T07:20:37Z</time>
      </trkpt>
      <trkpt lat="48.61417" lon="2.10603">
        <ele>112</ele>
        <time>2020-05-31T07:20:39Z</time>
      </trkpt>
      <trkpt lat="48.61416" lon="2.10601">
        <ele>111</ele>
        <time>2020-05-31T07:20:41Z</time>
      </trkpt>
      <trkpt lat="48.61414" lon="2.10598">
        <ele>111</ele>
        <time>2020-05-31T07:20:43Z</time>
      </trkpt>
      <trkpt lat="48.61413" lon="2.10595">
        <ele>111</ele>
        <time>2020-05-31T07:20:45Z</time>
      </trkpt>
      <trkpt lat="48.61412" lon="2.10591">
        <ele>111</ele>
        <time>2020-05-31T07:20:47Z</time>
      </trkpt>
      <trkpt lat="48.61411" lon="2.10588">
        <ele>111</ele>
        <time>2020-05-31T07:20:49Z</time>
      </trkpt>
      <trkpt lat="48.61411" lon="2.10584">
        <ele>111</ele>
        <time>2020-05-31T07:20:51Z</time>
      </trkpt>
      <trkpt lat="48.61411" lon="2.10581">
        <ele>111</ele>
        <time>2020-05-31T07:20:53Z</time>
      </trkpt>
      <trkpt lat="48.61411" lon="2.10577">
        <ele>111</ele>
        <time>2020-05-31T07:20:55Z</time>
      </trkpt>
      <trkpt lat="48.61411" lon="2.10574">
        <ele>111</ele>
        <time>2020-05-31T07:20:57Z</time>
      </trkpt>
      <trkpt lat="48.61412" lon="2.1057">
        <ele>111</ele>
        <time>2020-05-31T07:20:59Z</time>
      </trkpt>
      <trkpt lat="48.61412" lon="2.10566">
        <ele>111</ele>
        <time>2020-05-31T07:21:01Z</time>
      </trkpt>
      <trkpt lat="48.61412" lon="2.10562">
        <ele>111</ele>
        <time>2020-05-31T07:21:03Z</time>
      </trkpt>
      <trkpt lat="48.61412" lon="2.10558">
        <ele>111</ele>
        <time>2020-05-31T07:21:05Z</time>
      </trkpt>
      <trkpt lat="48.61412" lon="2.10554">
        <ele>111</ele>
        <time>2020-05-31T07:21:07Z</time>
      </trkpt>
      <trkpt lat="48.61413" lon="2.1055">
        <ele>112</ele>
        <time>2020-05-31T07:21:09Z</time>
      </trkpt>
      <trkpt lat="48.61413" lon="2.10546">
        <ele>112</ele>
        <time>2020-05-31T07:21:11Z</time>
      </trkpt>
      <trkpt lat="48.61414" lon="2.10542">
        <ele>112</ele>
        <time>2020-05-31T07:21:13Z</time>
      </trkpt>
      <trkpt lat="48.61414" lon="2.10539">
        <ele>112</ele>
        <time>2020-05-31T07:21:15Z</time>
      </trkpt>
      <trkpt lat="48.61415" lon="2.10535">
        <ele>112</ele>
        <time>2020-05-31T07:21:17Z</time>
      </trkpt>
      <trkpt lat="48.61415" lon="2.10531">
        <ele>112</ele>
        <time>2020-05-31T07:21:19Z</time>
      </trkpt>
      <trkpt lat="48.61416" lon="2.10527">
        <ele>112</ele>
        <time>2020-05-31T07:21:21Z</time>
      </trkpt>
      <trkpt lat="48.61417" lon="2.10523">
        <ele>112</ele>
        <time>2020-05-31T07:21:23Z</time>
      </trkpt>
      <trkpt lat="48.61417" lon="2.10519">
        <ele>112</ele>
        <time>2020-05-31T07:21:25Z</time>
      </trkpt>
      <trkpt lat="48.61418" lon="2.10516">
        <ele>113</ele>
        <time>2020-05-31T07:21:27Z</time>
      </trkpt>
      <trkpt lat="48.61419" lon="2.10512">
        <ele>113</ele>
        <time>2020-05-31T07:21:29Z</time>
      </trkpt>
      <trkpt lat="48.6142" lon="2.10509">
        <ele>113</ele>
        <time>2020-05-31T07:21:31Z</time>
      </trkpt>
      <trkpt lat="48.61421" lon="2.10506">
        <ele>113</ele>
        <time>2020-05-31T07:21:33Z</time>
      </trkpt>
      <trkpt lat="48.61423" lon="2.10503">
        <ele>113</ele>
        <time>2020-05-31T07:21:35Z</time>
      </trkpt>
      <trkpt lat="48.61423" lon="2.105">
        <ele>113</ele>
        <time>2020-05-31T07:21:37Z</time>
      </trkpt>
      <trkpt lat="48.61424" lon="2.10497">
        <ele>113</ele>
        <time>2020-05-31T07:21:39Z</time>
      </trkpt>
      <trkpt lat="48.61426" lon="2.10494">
        <ele>113</ele>
        <time>2020-05-31T07:21:41Z</time>
      </trkpt>
      <trkpt lat="48.61427" lon="2.10491">
        <ele>113</ele>
        <time>2020-05-31T07:21:44Z</time>
      </trkpt>
      <trkpt lat="48.61428" lon="2.10487">
        <ele>114</ele>
        <time>2020-05-31T07:23:09Z</time>
      </trkpt>
      <trkpt lat="48.61429" lon="2.10483">
        <ele>114</ele>
        <time>2020-05-31T07:23:12Z</time>
      </trkpt>
      <trkpt lat="48.61429" lon="2.1048">
        <ele>114</ele>
        <time>2020-05-31T07:23:14Z</time>
      </trkpt>
      <trkpt lat="48.6143" lon="2.10477">
        <ele>114</ele>
        <time>2020-05-31T07:23:16Z</time>
      </trkpt>
      <trkpt lat="48.61432" lon="2.10474">
        <ele>114</ele>
        <time>2020-05-31T07:23:18Z</time>
      </trkpt>
      <trkpt lat="48.61433" lon="2.10471">
        <ele>114</ele>
        <time>2020-05-31T07:23:20Z</time>
      </trkpt>
      <trkpt lat="48.61435" lon="2.10468">
        <ele>114</ele>
        <time>2020-05-31T07:23:22Z</time>
      </trkpt>
      <trkpt lat="48.61436" lon="2.10465">
        <ele>114</ele>
        <time>2020-05-31T07:23:24Z</time>
      </trkpt>
      <trkpt lat="48.61437" lon="2.10462">
        <ele>114</ele>
        <time>2020-05-31T07:23:26Z</time>
      </trkpt>
      <trkpt lat="48.61437" lon="2.10458">
        <ele>115</ele>
        <time>2020-05-31T07:23:28Z</time>
      </trkpt>
      <trkpt lat="48.61439" lon="2.10455">
        <ele>115</ele>
        <time>2020-05-31T07:23:30Z</time>
      </trkpt>
      <trkpt lat="48.6144" lon="2.10453">
        <ele>115</ele>
        <time>2020-05-31T07:23:32Z</time>
      </trkpt>
      <trkpt lat="48.61442" lon="2.10451">
        <ele>114</ele>
        <time>2020-05-31T07:23:34Z</time>
      </trkpt>
      <trkpt lat="48.61443" lon="2.10448">
        <ele>114</ele>
        <time>2020-05-31T07:23:36Z</time>
      </trkpt>
      <trkpt lat="48.61444" lon="2.10445">
        <ele>114</ele>
        <time>2020-05-31T07:23:38Z</time>
      </trkpt>
      <trkpt lat="48.61445" lon="2.10442">
        <ele>114</ele>
        <time>2020-05-31T07:23:40Z</time>
      </trkpt>
      <trkpt lat="48.61446" lon="2.10438">
        <ele>114</ele>
        <time>2020-05-31T07:23:42Z</time>
      </trkpt>
      <trkpt lat="48.61448" lon="2.10436">
        <ele>114</ele>
        <time>2020-05-31T07:23:44Z</time>
      </trkpt>
      <trkpt lat="48.61449" lon="2.10433">
        <ele>114</ele>
        <time>2020-05-31T07:23:46Z</time>
      </trkpt>
      <trkpt lat="48.61451" lon="2.1043">
        <ele>114</ele>
        <time>2020-05-31T07:23:48Z</time>
      </trkpt>
      <trkpt lat="48.61453" lon="2.10428">
        <ele>114</ele>
        <time>2020-05-31T07:23:50Z</time>
      </trkpt>
      <trkpt lat="48.61455" lon="2.10425">
        <ele>114</ele>
        <time>2020-05-31T07:23:52Z</time>
      </trkpt>
      <trkpt lat="48.61457" lon="2.10423">
        <ele>114</ele>
        <time>2020-05-31T07:23:54Z</time>
      </trkpt>
      <trkpt lat="48.61459" lon="2.1042">
        <ele>114</ele>
        <time>2020-05-31T07:23:56Z</time>
      </trkpt>
      <trkpt lat="48.6146" lon="2.10418">
        <ele>114</ele>
        <time>2020-05-31T07:23:58Z</time>
      </trkpt>
      <trkpt lat="48.61462" lon="2.10416">
        <ele>114</ele>
        <time>2020-05-31T07:24:00Z</time>
      </trkpt>
      <trkpt lat="48.61464" lon="2.10413">
        <ele>114</ele>
        <time>2020-05-31T07:24:02Z</time>
      </trkpt>
      <trkpt lat="48.61466" lon="2.10411">
        <ele>114</ele>
        <time>2020-05-31T07:24:04Z</time>
      </trkpt>
      <trkpt lat="48.61468" lon="2.10408">
        <ele>114</ele>
        <time>2020-05-31T07:24:06Z</time>
      </trkpt>
      <trkpt lat="48.61469" lon="2.10406">
        <ele>114</ele>
        <time>2020-05-31T07:24:08Z</time>
      </trkpt>
      <trkpt lat="48.61471" lon="2.10403">
        <ele>114</ele>
        <time>2020-05-31T07:24:10Z</time>
      </trkpt>
      <trkpt lat="48.61473" lon="2.10401">
        <ele>114</ele>
        <time>2020-05-31T07:24:12Z</time>
      </trkpt>
      <trkpt lat="48.61475" lon="2.10398">
        <ele>114</ele>
        <time>2020-05-31T07:24:14Z</time>
      </trkpt>
      <trkpt lat="48.61477" lon="2.10395">
        <ele>114</ele>
        <time>2020-05-31T07:24:16Z</time>
      </trkpt>
      <trkpt lat="48.61479" lon="2.10392">
        <ele>114</ele>
        <time>2020-05-31T07:24:18Z</time>
      </trkpt>
      <trkpt lat="48.6148" lon="2.10389">
        <ele>114</ele>
        <time>2020-05-31T07:24:20Z</time>
      </trkpt>
      <trkpt lat="48.61482" lon="2.10386">
        <ele>114</ele>
        <time>2020-05-31T07:24:22Z</time>
      </trkpt>
      <trkpt lat="48.61484" lon="2.10383">
        <ele>114</ele>
        <time>2020-05-31T07:24:24Z</time>
      </trkpt>
      <trkpt lat="48.61485" lon="2.1038">
        <ele>115</ele>
        <time>2020-05-31T07:24:26Z</time>
      </trkpt>
      <trkpt lat="48.61487" lon="2.10377">
        <ele>115</ele>
        <time>2020-05-31T07:24:28Z</time>
      </trkpt>
      <trkpt lat="48.61489" lon="2.10374">
        <ele>115</ele>
        <time>2020-05-31T07:24:30Z</time>
      </trkpt>
      <trkpt lat="48.61491" lon="2.10371">
        <ele>115</ele>
        <time>2020-05-31T07:24:32Z</time>
      </trkpt>
      <trkpt lat="48.61493" lon="2.10367">
        <ele>115</ele>
        <time>2020-05-31T07:24:34Z</time>
      </trkpt>
      <trkpt lat="48.61495" lon="2.10364">
        <ele>115</ele>
        <time>2020-05-31T07:24:36Z</time>
      </trkpt>
      <trkpt lat="48.61496" lon="2.10361">
        <ele>115</ele>
        <time>2020-05-31T07:24:38Z</time>
      </trkpt>
      <trkpt lat="48.61498" lon="2.10358">
        <ele>115</ele>
        <time>2020-05-31T07:24:40Z</time>
      </trkpt>
      <trkpt lat="48.615" lon="2.10355">
        <ele>115</ele>
        <time>2020-05-31T07:24:42Z</time>
      </trkpt>
      <trkpt lat="48.61501" lon="2.10352">
        <ele>115</ele>
        <time>2020-05-31T07:24:44Z</time>
      </trkpt>
      <trkpt lat="48.61503" lon="2.10348">
        <ele>115</ele>
        <time>2020-05-31T07:24:46Z</time>
      </trkpt>
      <trkpt lat="48.61505" lon="2.10345">
        <ele>115</ele>
        <time>2020-05-31T07:24:48Z</time>
      </trkpt>
      <trkpt lat="48.61506" lon="2.10342">
        <ele>116</ele>
        <time>2020-05-31T07:24:50Z</time>
      </trkpt>
      <trkpt lat="48.61508" lon="2.10337">
        <ele>116</ele>
        <time>2020-05-31T07:24:52Z</time>
      </trkpt>
      <trkpt lat="48.61509" lon="2.10334">
        <ele>116</ele>
        <time>2020-05-31T07:24:53Z</time>
      </trkpt>
      <trkpt lat="48.61511" lon="2.10331">
        <ele>116</ele>
        <time>2020-05-31T07:24:54Z</time>
      </trkpt>
      <trkpt lat="48.61512" lon="2.10327">
        <ele>116</ele>
        <time>2020-05-31T07:24:55Z</time>
      </trkpt>
      <trkpt lat="48.61513" lon="2.10324">
        <ele>116</ele>
        <time>2020-05-31T07:24:56Z</time>
      </trkpt>
      <trkpt lat="48.61514" lon="2.10321">
        <ele>116</ele>
        <time>2020-05-31T07:24:58Z</time>
      </trkpt>
      <trkpt lat="48.61515" lon="2.10317">
        <ele>116</ele>
        <time>2020-05-31T07:25:02Z</time>
      </trkpt>
      <trkpt lat="48.61517" lon="2.10313">
        <ele>116</ele>
        <time>2020-05-31T07:25:03Z</time>
      </trkpt>
      <trkpt lat="48.61518" lon="2.1031">
        <ele>116</ele>
        <time>2020-05-31T07:25:04Z</time>
      </trkpt>
      <trkpt lat="48.61519" lon="2.10306">
        <ele>116</ele>
        <time>2020-05-31T07:25:05Z</time>
      </trkpt>
      <trkpt lat="48.6152" lon="2.10303">
        <ele>116</ele>
        <time>2020-05-31T07:25:06Z</time>
      </trkpt>
      <trkpt lat="48.61521" lon="2.103">
        <ele>116</ele>
        <time>2020-05-31T07:25:07Z</time>
      </trkpt>
      <trkpt lat="48.61522" lon="2.10297">
        <ele>116</ele>
        <time>2020-05-31T07:25:08Z</time>
      </trkpt>
      <trkpt lat="48.61523" lon="2.10294">
        <ele>116</ele>
        <time>2020-05-31T07:25:09Z</time>
      </trkpt>
      <trkpt lat="48.61524" lon="2.10291">
        <ele>116</ele>
        <time>2020-05-31T07:25:10Z</time>
      </trkpt>
      <trkpt lat="48.61525" lon="2.10286">
        <ele>117</ele>
        <time>2020-05-31T07:25:12Z</time>
      </trkpt>
      <trkpt lat="48.61526" lon="2.10282">
        <ele>117</ele>
        <time>2020-05-31T07:25:14Z</time>
      </trkpt>
      <trkpt lat="48.61527" lon="2.10278">
        <ele>117</ele>
        <time>2020-05-31T07:25:16Z</time>
      </trkpt>
      <trkpt lat="48.61528" lon="2.10274">
        <ele>117</ele>
        <time>2020-05-31T07:25:18Z</time>
      </trkpt>
      <trkpt lat="48.61529" lon="2.10271">
        <ele>117</ele>
        <time>2020-05-31T07:25:20Z</time>
      </trkpt>
      <trkpt lat="48.6153" lon="2.10267">
        <ele>117</ele>
        <time>2020-05-31T07:25:22Z</time>
      </trkpt>
      <trkpt lat="48.61531" lon="2.10263">
        <ele>117</ele>
        <time>2020-05-31T07:25:24Z</time>
      </trkpt>
      <trkpt lat="48.61532" lon="2.10259">
        <ele>117</ele>
        <time>2020-05-31T07:25:26Z</time>
      </trkpt>
      <trkpt lat="48.61533" lon="2.10256">
        <ele>117</ele>
        <time>2020-05-31T07:25:28Z</time>
      </trkpt>
      <trkpt lat="48.61535" lon="2.10252">
        <ele>117</ele>
        <time>2020-05-31T07:25:30Z</time>
      </trkpt>
      <trkpt lat="48.61536" lon="2.10248">
        <ele>117</ele>
        <time>2020-05-31T07:25:32Z</time>
      </trkpt>
      <trkpt lat="48.61537" lon="2.10245">
        <ele>117</ele>
        <time>2020-05-31T07:25:34Z</time>
      </trkpt>
      <trkpt lat="48.61538" lon="2.10241">
        <ele>117</ele>
        <time>2020-05-31T07:25:36Z</time>
      </trkpt>
      <trkpt lat="48.61539" lon="2.10237">
        <ele>117</ele>
        <time>2020-05-31T07:25:38Z</time>
      </trkpt>
      <trkpt lat="48.6154" lon="2.10233">
        <ele>117</ele>
        <time>2020-05-31T07:25:40Z</time>
      </trkpt>
      <trkpt lat="48.61541" lon="2.1023">
        <ele>117</ele>
        <time>2020-05-31T07:25:42Z</time>
      </trkpt>
      <trkpt lat="48.61541" lon="2.10226">
        <ele>117</ele>
        <time>2020-05-31T07:25:44Z</time>
      </trkpt>
      <trkpt lat="48.61542" lon="2.10222">
        <ele>117</ele>
        <time>2020-05-31T07:25:46Z</time>
      </trkpt>
      <trkpt lat="48.61543" lon="2.10218">
        <ele>117</ele>
        <time>2020-05-31T07:25:48Z</time>
      </trkpt>
      <trkpt lat="48.61544" lon="2.10214">
        <ele>117</ele>
        <time>2020-05-31T07:25:50Z</time>
      </trkpt>
      <trkpt lat="48.61545" lon="2.10211">
        <ele>117</ele>
        <time>2020-05-31T07:25:52Z</time>
      </trkpt>
      <trkpt lat="48.61547" lon="2.10208">
        <ele>117</ele>
        <time>2020-05-31T07:25:54Z</time>
      </trkpt>
      <trkpt lat="48.61548" lon="2.10204">
        <ele>117</ele>
        <time>2020-05-31T07:25:56Z</time>
      </trkpt>
      <trkpt lat="48.6155" lon="2.10201">
        <ele>118</ele>
        <time>2020-05-31T07:25:58Z</time>
      </trkpt>
      <trkpt lat="48.61551" lon="2.10197">
        <ele>118</ele>
        <time>2020-05-31T07:26:00Z</time>
      </trkpt>
      <trkpt lat="48.61554" lon="2.10195">
        <ele>118</ele>
        <time>2020-05-31T07:26:02Z</time>
      </trkpt>
      <trkpt lat="48.61555" lon="2.10193">
        <ele>118</ele>
        <time>2020-05-31T07:26:04Z</time>
      </trkpt>
      <trkpt lat="48.61556" lon="2.10189">
        <ele>119</ele>
        <time>2020-05-31T07:26:06Z</time>
      </trkpt>
      <trkpt lat="48.61557" lon="2.10186">
        <ele>119</ele>
        <time>2020-05-31T07:26:08Z</time>
      </trkpt>
      <trkpt lat="48.61558" lon="2.10181">
        <ele>119</ele>
        <time>2020-05-31T07:26:10Z</time>
      </trkpt>
      <trkpt lat="48.61559" lon="2.10178">
        <ele>119</ele>
        <time>2020-05-31T07:26:12Z</time>
      </trkpt>
      <trkpt lat="48.61559" lon="2.10174">
        <ele>119</ele>
        <time>2020-05-31T07:26:14Z</time>
      </trkpt>
      <trkpt lat="48.6156" lon="2.1017">
        <ele>119</ele>
        <time>2020-05-31T07:26:16Z</time>
      </trkpt>
      <trkpt lat="48.61561" lon="2.10166">
        <ele>119</ele>
        <time>2020-05-31T07:26:18Z</time>
      </trkpt>
      <trkpt lat="48.61561" lon="2.10162">
        <ele>119</ele>
        <time>2020-05-31T07:26:20Z</time>
      </trkpt>
      <trkpt lat="48.61562" lon="2.10158">
        <ele>119</ele>
        <time>2020-05-31T07:26:22Z</time>
      </trkpt>
      <trkpt lat="48.61562" lon="2.10154">
        <ele>119</ele>
        <time>2020-05-31T07:26:24Z</time>
      </trkpt>
      <trkpt lat="48.61563" lon="2.1015">
        <ele>119</ele>
        <time>2020-05-31T07:26:26Z</time>
      </trkpt>
      <trkpt lat="48.61564" lon="2.10146">
        <ele>119</ele>
        <time>2020-05-31T07:26:28Z</time>
      </trkpt>
      <trkpt lat="48.61564" lon="2.10143">
        <ele>119</ele>
        <time>2020-05-31T07:26:30Z</time>
      </trkpt>
      <trkpt lat="48.61565" lon="2.10139">
        <ele>119</ele>
        <time>2020-05-31T07:26:32Z</time>
      </trkpt>
      <trkpt lat="48.61565" lon="2.10135">
        <ele>119</ele>
        <time>2020-05-31T07:26:34Z</time>
      </trkpt>
      <trkpt lat="48.61566" lon="2.10131">
        <ele>119</ele>
        <time>2020-05-31T07:26:36Z</time>
      </trkpt>
      <trkpt lat="48.61567" lon="2.10127">
        <ele>119</ele>
        <time>2020-05-31T07:26:38Z</time>
      </trkpt>
      <trkpt lat="48.61567" lon="2.10123">
        <ele>119</ele>
        <time>2020-05-31T07:26:40Z</time>
      </trkpt>
      <trkpt lat="48.61568" lon="2.10119">
        <ele>119</ele>
        <time>2020-05-31T07:26:42Z</time>
      </trkpt>
      <trkpt lat="48.61569" lon="2.10115">
        <ele>119</ele>
        <time>2020-05-31T07:26:44Z</time>
      </trkpt>
      <trkpt lat="48.61569" lon="2.10111">
        <ele>119</ele>
        <time>2020-05-31T07:26:46Z</time>
      </trkpt>
      <trkpt lat="48.6157" lon="2.10107">
        <ele>119</ele>
        <time>2020-05-31T07:26:48Z</time>
      </trkpt>
      <trkpt lat="48.6157" lon="2.10103">
        <ele>119</ele>
        <time>2020-05-31T07:26:50Z</time>
      </trkpt>
      <trkpt lat="48.61571" lon="2.10098">
        <ele>119</ele>
        <time>2020-05-31T07:26:52Z</time>
      </trkpt>
      <trkpt lat="48.61571" lon="2.10094">
        <ele>119</ele>
        <time>2020-05-31T07:26:54Z</time>
      </trkpt>
      <trkpt lat="48.61572" lon="2.10091">
        <ele>119</ele>
        <time>2020-05-31T07:26:56Z</time>
      </trkpt>
      <trkpt lat="48.61573" lon="2.10087">
        <ele>119</ele>
        <time>2020-05-31T07:26:58Z</time>
      </trkpt>
      <trkpt lat="48.61573" lon="2.10083">
        <ele>119</ele>
        <time>2020-05-31T07:27:00Z</time>
      </trkpt>
      <trkpt lat="48.61573" lon="2.10079">
        <ele>119</ele>
        <time>2020-05-31T07:27:02Z</time>
      </trkpt>
      <trkpt lat="48.61574" lon="2.10075">
        <ele>119</ele>
        <time>2020-05-31T07:27:04Z</time>
      </trkpt>
      <trkpt lat="48.61574" lon="2.10071">
        <ele>119</ele>
        <time>2020-05-31T07:27:06Z</time>
      </trkpt>
      <trkpt lat="48.61574" lon="2.10067">
        <ele>119</ele>
        <time>2020-05-31T07:27:08Z</time>
      </trkpt>
      <trkpt lat="48.61575" lon="2.10063">
        <ele>119</ele>
        <time>2020-05-31T07:27:10Z</time>
      </trkpt>
      <trkpt lat="48.61575" lon="2.10059">
        <ele>119</ele>
        <time>2020-05-31T07:27:12Z</time>
      </trkpt>
      <trkpt lat="48.61575" lon="2.10055">
        <ele>120</ele>
        <time>2020-05-31T07:27:14Z</time>
      </trkpt>
      <trkpt lat="48.61576" lon="2.10051">
        <ele>120</ele>
        <time>2020-05-31T07:27:16Z</time>
      </trkpt>
      <trkpt lat="48.61577" lon="2.10047">
        <ele>120</ele>
        <time>2020-05-31T07:27:18Z</time>
      </trkpt>
      <trkpt lat="48.61577" lon="2.10043">
        <ele>120</ele>
        <time>2020-05-31T07:27:20Z</time>
      </trkpt>
      <trkpt lat="48.61577" lon="2.10038">
        <ele>120</ele>
        <time>2020-05-31T07:27:22Z</time>
      </trkpt>
      <trkpt lat="48.61577" lon="2.10035">
        <ele>121</ele>
        <time>2020-05-31T07:27:24Z</time>
      </trkpt>
      <trkpt lat="48.61578" lon="2.10031">
        <ele>121</ele>
        <time>2020-05-31T07:27:26Z</time>
      </trkpt>
      <trkpt lat="48.61578" lon="2.10026">
        <ele>121</ele>
        <time>2020-05-31T07:27:28Z</time>
      </trkpt>
      <trkpt lat="48.61578" lon="2.10022">
        <ele>121</ele>
        <time>2020-05-31T07:27:30Z</time>
      </trkpt>
      <trkpt lat="48.61579" lon="2.10018">
        <ele>121</ele>
        <time>2020-05-31T07:27:32Z</time>
      </trkpt>
      <trkpt lat="48.61579" lon="2.10014">
        <ele>121</ele>
        <time>2020-05-31T07:27:34Z</time>
      </trkpt>
      <trkpt lat="48.61579" lon="2.1001">
        <ele>121</ele>
        <time>2020-05-31T07:27:36Z</time>
      </trkpt>
      <trkpt lat="48.6158" lon="2.10005">
        <ele>122</ele>
        <time>2020-05-31T07:27:38Z</time>
      </trkpt>
      <trkpt lat="48.6158" lon="2.10001">
        <ele>122</ele>
        <time>2020-05-31T07:27:40Z</time>
      </trkpt>
      <trkpt lat="48.6158" lon="2.09997">
        <ele>122</ele>
        <time>2020-05-31T07:27:42Z</time>
      </trkpt>
      <trkpt lat="48.6158" lon="2.09993">
        <ele>122</ele>
        <time>2020-05-31T07:27:44Z</time>
      </trkpt>
      <trkpt lat="48.61581" lon="2.09989">
        <ele>122</ele>
        <time>2020-05-31T07:27:46Z</time>
      </trkpt>
      <trkpt lat="48.61581" lon="2.09984">
        <ele>122</ele>
        <time>2020-05-31T07:27:48Z</time>
      </trkpt>
      <trkpt lat="48.61581" lon="2.09981">
        <ele>123</ele>
        <time>2020-05-31T07:27:50Z</time>
      </trkpt>
      <trkpt lat="48.61581" lon="2.09977">
        <ele>123</ele>
        <time>2020-05-31T07:27:52Z</time>
      </trkpt>
      <trkpt lat="48.61581" lon="2.09972">
        <ele>123</ele>
        <time>2020-05-31T07:27:54Z</time>
      </trkpt>
      <trkpt lat="48.61582" lon="2.09968">
        <ele>123</ele>
        <time>2020-05-31T07:27:56Z</time>
      </trkpt>
      <trkpt lat="48.61582" lon="2.09964">
        <ele>123</ele>
        <time>2020-05-31T07:27:58Z</time>
      </trkpt>
      <trkpt lat="48.61582" lon="2.0996">
        <ele>123</ele>
        <time>2020-05-31T07:28:00Z</time>
      </trkpt>
      <trkpt lat="48.61582" lon="2.09956">
        <ele>123</ele>
        <time>2020-05-31T07:28:02Z</time>
      </trkpt>
      <trkpt lat="48.61583" lon="2.09952">
        <ele>123</ele>
        <time>2020-05-31T07:28:04Z</time>
      </trkpt>
      <trkpt lat="48.61583" lon="2.09948">
        <ele>123</ele>
        <time>2020-05-31T07:28:06Z</time>
      </trkpt>
      <trkpt lat="48.61583" lon="2.09943">
        <ele>123</ele>
        <time>2020-05-31T07:28:08Z</time>
      </trkpt>
      <trkpt lat="48.61583" lon="2.09939">
        <ele>123</ele>
        <time>2020-05-31T07:28:10Z</time>
      </trkpt>
      <trkpt lat="48.61583" lon="2.09935">
        <ele>124</ele>
        <time>2020-05-31T07:28:12Z</time>
      </trkpt>
      <trkpt lat="48.61583" lon="2.09931">
        <ele>124</ele>
        <time>2020-05-31T07:28:14Z</time>
      </trkpt>
      <trkpt lat="48.61583" lon="2.09926">
        <ele>123</ele>
        <time>2020-05-31T07:28:16Z</time>
      </trkpt>
      <trkpt lat="48.61583" lon="2.09922">
        <ele>123</ele>
        <time>2020-05-31T07:28:18Z</time>
      </trkpt>
      <trkpt lat="48.61583" lon="2.09918">
        <ele>123</ele>
        <time>2020-05-31T07:28:20Z</time>
      </trkpt>
      <trkpt lat="48.61583" lon="2.09914">
        <ele>123</ele>
        <time>2020-05-31T07:28:22Z</time>
      </trkpt>
      <trkpt lat="48.61583" lon="2.09911">
        <ele>124</ele>
        <time>2020-05-31T07:28:25Z</time>
      </trkpt>
      <trkpt lat="48.61581" lon="2.09907">
        <ele>124</ele>
        <time>2020-05-31T07:28:28Z</time>
      </trkpt>
      <trkpt lat="48.61581" lon="2.09904">
        <ele>124</ele>
        <time>2020-05-31T07:28:30Z</time>
      </trkpt>
      <trkpt lat="48.61581" lon="2.099">
        <ele>124</ele>
        <time>2020-05-31T07:28:32Z</time>
      </trkpt>
      <trkpt lat="48.6158" lon="2.09897">
        <ele>124</ele>
        <time>2020-05-31T07:28:34Z</time>
      </trkpt>
      <trkpt lat="48.6158" lon="2.09893">
        <ele>124</ele>
        <time>2020-05-31T07:28:36Z</time>
      </trkpt>
      <trkpt lat="48.6158" lon="2.0989">
        <ele>124</ele>
        <time>2020-05-31T07:28:38Z</time>
      </trkpt>
      <trkpt lat="48.61581" lon="2.09887">
        <ele>124</ele>
        <time>2020-05-31T07:28:40Z</time>
      </trkpt>
      <trkpt lat="48.61581" lon="2.09883">
        <ele>124</ele>
        <time>2020-05-31T07:28:42Z</time>
      </trkpt>
      <trkpt lat="48.61581" lon="2.0988">
        <ele>124</ele>
        <time>2020-05-31T07:28:44Z</time>
      </trkpt>
      <trkpt lat="48.61581" lon="2.09876">
        <ele>124</ele>
        <time>2020-05-31T07:28:46Z</time>
      </trkpt>
      <trkpt lat="48.61582" lon="2.09873">
        <ele>124</ele>
        <time>2020-05-31T07:28:48Z</time>
      </trkpt>
      <trkpt lat="48.61582" lon="2.0987">
        <ele>124</ele>
        <time>2020-05-31T07:28:50Z</time>
      </trkpt>
      <trkpt lat="48.61582" lon="2.09866">
        <ele>124</ele>
        <time>2020-05-31T07:28:52Z</time>
      </trkpt>
      <trkpt lat="48.61582" lon="2.09862">
        <ele>125</ele>
        <time>2020-05-31T07:28:54Z</time>
      </trkpt>
      <trkpt lat="48.61582" lon="2.09858">
        <ele>125</ele>
        <time>2020-05-31T07:28:56Z</time>
      </trkpt>
      <trkpt lat="48.61582" lon="2.09854">
        <ele>125</ele>
        <time>2020-05-31T07:28:58Z</time>
      </trkpt>
      <trkpt lat="48.61582" lon="2.09851">
        <ele>125</ele>
        <time>2020-05-31T07:29:00Z</time>
      </trkpt>
      <trkpt lat="48.61581" lon="2.09847">
        <ele>125</ele>
        <time>2020-05-31T07:29:02Z</time>
      </trkpt>
      <trkpt lat="48.61581" lon="2.09843">
        <ele>124</ele>
        <time>2020-05-31T07:29:04Z</time>
      </trkpt>
      <trkpt lat="48.6158" lon="2.09839">
        <ele>124</ele>
        <time>2020-05-31T07:29:06Z</time>
      </trkpt>
      <trkpt lat="48.61579" lon="2.09835">
        <ele>125</ele>
        <time>2020-05-31T07:29:08Z</time>
      </trkpt>
      <trkpt lat="48.61579" lon="2.0983">
        <ele>125</ele>
        <time>2020-05-31T07:29:10Z</time>
      </trkpt>
      <trkpt lat="48.61579" lon="2.09825">
        <ele>125</ele>
        <time>2020-05-31T07:29:12Z</time>
      </trkpt>
      <trkpt lat="48.61578" lon="2.09821">
        <ele>125</ele>
        <time>2020-05-31T07:29:14Z</time>
      </trkpt>
      <trkpt lat="48.61578" lon="2.09817">
        <ele>125</ele>
        <time>2020-05-31T07:29:16Z</time>
      </trkpt>
      <trkpt lat="48.61578" lon="2.09813">
        <ele>125</ele>
        <time>2020-05-31T07:29:18Z</time>
      </trkpt>
      <trkpt lat="48.61579" lon="2.0981">
        <ele>125</ele>
        <time>2020-05-31T07:29:21Z</time>
      </trkpt>
      <trkpt lat="48.6158" lon="2.09807">
        <ele>125</ele>
        <time>2020-05-31T07:29:23Z</time>
      </trkpt>
      <trkpt lat="48.6158" lon="2.09803">
        <ele>125</ele>
        <time>2020-05-31T07:29:25Z</time>
      </trkpt>
      <trkpt lat="48.6158" lon="2.098">
        <ele>126</ele>
        <time>2020-05-31T07:29:27Z</time>
      </trkpt>
      <trkpt lat="48.6158" lon="2.09796">
        <ele>126</ele>
        <time>2020-05-31T07:29:29Z</time>
      </trkpt>
      <trkpt lat="48.6158" lon="2.09792">
        <ele>126</ele>
        <time>2020-05-31T07:29:31Z</time>
      </trkpt>
      <trkpt lat="48.61579" lon="2.09789">
        <ele>126</ele>
        <time>2020-05-31T07:29:33Z</time>
      </trkpt>
      <trkpt lat="48.61579" lon="2.09785">
        <ele>126</ele>
        <time>2020-05-31T07:29:35Z</time>
      </trkpt>
      <trkpt lat="48.61579" lon="2.09781">
        <ele>126</ele>
        <time>2020-05-31T07:29:37Z</time>
      </trkpt>
      <trkpt lat="48.61579" lon="2.09777">
        <ele>126</ele>
        <time>2020-05-31T07:29:39Z</time>
      </trkpt>
      <trkpt lat="48.61578" lon="2.09773">
        <ele>126</ele>
        <time>2020-05-31T07:29:41Z</time>
      </trkpt>
      <trkpt lat="48.61578" lon="2.09769">
        <ele>126</ele>
        <time>2020-05-31T07:29:43Z</time>
      </trkpt>
      <trkpt lat="48.61577" lon="2.09765">
        <ele>126</ele>
        <time>2020-05-31T07:29:45Z</time>
      </trkpt>
      <trkpt lat="48.61577" lon="2.09761">
        <ele>126</ele>
        <time>2020-05-31T07:29:47Z</time>
      </trkpt>
      <trkpt lat="48.61577" lon="2.09758">
        <ele>126</ele>
        <time>2020-05-31T07:29:49Z</time>
      </trkpt>
      <trkpt lat="48.61576" lon="2.09754">
        <ele>126</ele>
        <time>2020-05-31T07:29:51Z</time>
      </trkpt>
      <trkpt lat="48.61576" lon="2.0975">
        <ele>126</ele>
        <time>2020-05-31T07:29:53Z</time>
      </trkpt>
      <trkpt lat="48.61575" lon="2.09746">
        <ele>126</ele>
        <time>2020-05-31T07:29:55Z</time>
      </trkpt>
      <trkpt lat="48.61575" lon="2.09742">
        <ele>126</ele>
        <time>2020-05-31T07:29:57Z</time>
      </trkpt>
      <trkpt lat="48.61575" lon="2.09738">
        <ele>126</ele>
        <time>2020-05-31T07:29:59Z</time>
      </trkpt>
      <trkpt lat="48.61574" lon="2.09734">
        <ele>126</ele>
        <time>2020-05-31T07:30:01Z</time>
      </trkpt>
      <trkpt lat="48.61574" lon="2.09731">
        <ele>126</ele>
        <time>2020-05-31T07:30:03Z</time>
      </trkpt>
      <trkpt lat="48.61573" lon="2.09726">
        <ele>126</ele>
        <time>2020-05-31T07:30:05Z</time>
      </trkpt>
      <trkpt lat="48.61572" lon="2.09723">
        <ele>126</ele>
        <time>2020-05-31T07:30:07Z</time>
      </trkpt>
      <trkpt lat="48.61572" lon="2.09719">
        <ele>126</ele>
        <time>2020-05-31T07:30:09Z</time>
      </trkpt>
      <trkpt lat="48.61571" lon="2.09715">
        <ele>126</ele>
        <time>2020-05-31T07:30:11Z</time>
      </trkpt>
      <trkpt lat="48.61571" lon="2.09711">
        <ele>126</ele>
        <time>2020-05-31T07:30:13Z</time>
      </trkpt>
      <trkpt lat="48.6157" lon="2.09707">
        <ele>126</ele>
        <time>2020-05-31T07:30:15Z</time>
      </trkpt>
      <trkpt lat="48.61569" lon="2.09704">
        <ele>126</ele>
        <time>2020-05-31T07:30:17Z</time>
      </trkpt>
      <trkpt lat="48.61568" lon="2.097">
        <ele>126</ele>
        <time>2020-05-31T07:30:19Z</time>
      </trkpt>
      <trkpt lat="48.61567" lon="2.09696">
        <ele>126</ele>
        <time>2020-05-31T07:30:21Z</time>
      </trkpt>
      <trkpt lat="48.61567" lon="2.09692">
        <ele>127</ele>
        <time>2020-05-31T07:30:23Z</time>
      </trkpt>
      <trkpt lat="48.61566" lon="2.09688">
        <ele>127</ele>
        <time>2020-05-31T07:30:25Z</time>
      </trkpt>
      <trkpt lat="48.61565" lon="2.09684">
        <ele>127</ele>
        <time>2020-05-31T07:30:27Z</time>
      </trkpt>
      <trkpt lat="48.61563" lon="2.09681">
        <ele>127</ele>
        <time>2020-05-31T07:30:29Z</time>
      </trkpt>
      <trkpt lat="48.61562" lon="2.09677">
        <ele>127</ele>
        <time>2020-05-31T07:30:31Z</time>
      </trkpt>
      <trkpt lat="48.61561" lon="2.09673">
        <ele>127</ele>
        <time>2020-05-31T07:30:33Z</time>
      </trkpt>
      <trkpt lat="48.6156" lon="2.09669">
        <ele>127</ele>
        <time>2020-05-31T07:30:35Z</time>
      </trkpt>
      <trkpt lat="48.61559" lon="2.09665">
        <ele>127</ele>
        <time>2020-05-31T07:30:37Z</time>
      </trkpt>
      <trkpt lat="48.61558" lon="2.09661">
        <ele>127</ele>
        <time>2020-05-31T07:30:39Z</time>
      </trkpt>
      <trkpt lat="48.61558" lon="2.09657">
        <ele>127</ele>
        <time>2020-05-31T07:30:41Z</time>
      </trkpt>
      <trkpt lat="48.61557" lon="2.09653">
        <ele>128</ele>
        <time>2020-05-31T07:30:43Z</time>
      </trkpt>
      <trkpt lat="48.61556" lon="2.09649">
        <ele>128</ele>
        <time>2020-05-31T07:30:45Z</time>
      </trkpt>
      <trkpt lat="48.61555" lon="2.09645">
        <ele>128</ele>
        <time>2020-05-31T07:30:47Z</time>
      </trkpt>
      <trkpt lat="48.61554" lon="2.09641">
        <ele>128</ele>
        <time>2020-05-31T07:30:49Z</time>
      </trkpt>
      <trkpt lat="48.61553" lon="2.09636">
        <ele>128</ele>
        <time>2020-05-31T07:30:51Z</time>
      </trkpt>
      <trkpt lat="48.61552" lon="2.09632">
        <ele>128</ele>
        <time>2020-05-31T07:30:53Z</time>
      </trkpt>
      <trkpt lat="48.61552" lon="2.09628">
        <ele>128</ele>
        <time>2020-05-31T07:30:55Z</time>
      </trkpt>
      <trkpt lat="48.61551" lon="2.09624">
        <ele>128</ele>
        <time>2020-05-31T07:30:57Z</time>
      </trkpt>
      <trkpt lat="48.6155" lon="2.0962">
        <ele>128</ele>
        <time>2020-05-31T07:30:59Z</time>
      </trkpt>
      <trkpt lat="48.61549" lon="2.09617">
        <ele>129</ele>
        <time>2020-05-31T07:31:01Z</time>
      </trkpt>
      <trkpt lat="48.61548" lon="2.09613">
        <ele>128</ele>
        <time>2020-05-31T07:31:03Z</time>
      </trkpt>
      <trkpt lat="48.61547" lon="2.09609">
        <ele>128</ele>
        <time>2020-05-31T07:31:05Z</time>
      </trkpt>
      <trkpt lat="48.61546" lon="2.09606">
        <ele>128</ele>
        <time>2020-05-31T07:31:07Z</time>
      </trkpt>
      <trkpt lat="48.61545" lon="2.09602">
        <ele>129</ele>
        <time>2020-05-31T07:31:09Z</time>
      </trkpt>
      <trkpt lat="48.61545" lon="2.09598">
        <ele>129</ele>
        <time>2020-05-31T07:31:11Z</time>
      </trkpt>
      <trkpt lat="48.61544" lon="2.09594">
        <ele>129</ele>
        <time>2020-05-31T07:31:13Z</time>
      </trkpt>
      <trkpt lat="48.61543" lon="2.0959">
        <ele>129</ele>
        <time>2020-05-31T07:31:15Z</time>
      </trkpt>
      <trkpt lat="48.61542" lon="2.09586">
        <ele>129</ele>
        <time>2020-05-31T07:31:17Z</time>
      </trkpt>
      <trkpt lat="48.61541" lon="2.09583">
        <ele>129</ele>
        <time>2020-05-31T07:31:19Z</time>
      </trkpt>
      <trkpt lat="48.6154" lon="2.09579">
        <ele>129</ele>
        <time>2020-05-31T07:31:21Z</time>
      </trkpt>
      <trkpt lat="48.6154" lon="2.09575">
        <ele>129</ele>
        <time>2020-05-31T07:31:23Z</time>
      </trkpt>
      <trkpt lat="48.61539" lon="2.09571">
        <ele>129</ele>
        <time>2020-05-31T07:31:25Z</time>
      </trkpt>
      <trkpt lat="48.61538" lon="2.09568">
        <ele>129</ele>
        <time>2020-05-31T07:31:27Z</time>
      </trkpt>
      <trkpt lat="48.61537" lon="2.09564">
        <ele>129</ele>
        <time>2020-05-31T07:31:29Z</time>
      </trkpt>
      <trkpt lat="48.61536" lon="2.0956">
        <ele>129</ele>
        <time>2020-05-31T07:31:31Z</time>
      </trkpt>
      <trkpt lat="48.61536" lon="2.09556">
        <ele>129</ele>
        <time>2020-05-31T07:31:33Z</time>
      </trkpt>
      <trkpt lat="48.61535" lon="2.09552">
        <ele>129</ele>
        <time>2020-05-31T07:31:35Z</time>
      </trkpt>
      <trkpt lat="48.61534" lon="2.09549">
        <ele>129</ele>
        <time>2020-05-31T07:31:37Z</time>
      </trkpt>
      <trkpt lat="48.61533" lon="2.09545">
        <ele>129</ele>
        <time>2020-05-31T07:31:39Z</time>
      </trkpt>
      <trkpt lat="48.61532" lon="2.09541">
        <ele>129</ele>
        <time>2020-05-31T07:31:41Z</time>
      </trkpt>
      <trkpt lat="48.61531" lon="2.09538">
        <ele>129</ele>
        <time>2020-05-31T07:31:43Z</time>
      </trkpt>
      <trkpt lat="48.6153" lon="2.09534">
        <ele>129</ele>
        <time>2020-05-31T07:31:45Z</time>
      </trkpt>
      <trkpt lat="48.61529" lon="2.0953">
        <ele>129</ele>
        <time>2020-05-31T07:31:47Z</time>
      </trkpt>
      <trkpt lat="48.61528" lon="2.09526">
        <ele>129</ele>
        <time>2020-05-31T07:31:49Z</time>
      </trkpt>
      <trkpt lat="48.61528" lon="2.09522">
        <ele>130</ele>
        <time>2020-05-31T07:31:51Z</time>
      </trkpt>
      <trkpt lat="48.61527" lon="2.09518">
        <ele>130</ele>
        <time>2020-05-31T07:31:53Z</time>
      </trkpt>
      <trkpt lat="48.61525" lon="2.09515">
        <ele>130</ele>
        <time>2020-05-31T07:31:55Z</time>
      </trkpt>
      <trkpt lat="48.61525" lon="2.09511">
        <ele>130</ele>
        <time>2020-05-31T07:31:57Z</time>
      </trkpt>
      <trkpt lat="48.61524" lon="2.09508">
        <ele>130</ele>
        <time>2020-05-31T07:31:59Z</time>
      </trkpt>
      <trkpt lat="48.61523" lon="2.09504">
        <ele>130</ele>
        <time>2020-05-31T07:32:01Z</time>
      </trkpt>
      <trkpt lat="48.61522" lon="2.095">
        <ele>130</ele>
        <time>2020-05-31T07:32:03Z</time>
      </trkpt>
      <trkpt lat="48.61521" lon="2.09496">
        <ele>130</ele>
        <time>2020-05-31T07:32:05Z</time>
      </trkpt>
      <trkpt lat="48.6152" lon="2.09492">
        <ele>130</ele>
        <time>2020-05-31T07:32:07Z</time>
      </trkpt>
      <trkpt lat="48.61519" lon="2.09488">
        <ele>130</ele>
        <time>2020-05-31T07:32:09Z</time>
      </trkpt>
      <trkpt lat="48.61518" lon="2.09484">
        <ele>130</ele>
        <time>2020-05-31T07:32:11Z</time>
      </trkpt>
      <trkpt lat="48.61517" lon="2.0948">
        <ele>130</ele>
        <time>2020-05-31T07:32:13Z</time>
      </trkpt>
      <trkpt lat="48.61516" lon="2.09476">
        <ele>130</ele>
        <time>2020-05-31T07:32:15Z</time>
      </trkpt>
      <trkpt lat="48.61515" lon="2.09472">
        <ele>130</ele>
        <time>2020-05-31T07:32:17Z</time>
      </trkpt>
      <trkpt lat="48.61514" lon="2.09468">
        <ele>131</ele>
        <time>2020-05-31T07:32:19Z</time>
      </trkpt>
      <trkpt lat="48.61513" lon="2.09464">
        <ele>131</ele>
        <time>2020-05-31T07:32:21Z</time>
      </trkpt>
      <trkpt lat="48.61512" lon="2.0946">
        <ele>131</ele>
        <time>2020-05-31T07:32:23Z</time>
      </trkpt>
      <trkpt lat="48.61511" lon="2.09456">
        <ele>131</ele>
        <time>2020-05-31T07:32:25Z</time>
      </trkpt>
      <trkpt lat="48.6151" lon="2.09452">
        <ele>131</ele>
        <time>2020-05-31T07:32:27Z</time>
      </trkpt>
      <trkpt lat="48.61509" lon="2.09448">
        <ele>131</ele>
        <time>2020-05-31T07:32:29Z</time>
      </trkpt>
      <trkpt lat="48.61508" lon="2.09444">
        <ele>131</ele>
        <time>2020-05-31T07:32:31Z</time>
      </trkpt>
      <trkpt lat="48.61508" lon="2.0944">
        <ele>132</ele>
        <time>2020-05-31T07:32:33Z</time>
      </trkpt>
      <trkpt lat="48.61507" lon="2.09437">
        <ele>132</ele>
        <time>2020-05-31T07:32:35Z</time>
      </trkpt>
      <trkpt lat="48.61506" lon="2.09434">
        <ele>132</ele>
        <time>2020-05-31T07:32:41Z</time>
      </trkpt>
      <trkpt lat="48.61505" lon="2.09431">
        <ele>132</ele>
        <time>2020-05-31T07:32:43Z</time>
      </trkpt>
      <trkpt lat="48.61505" lon="2.09427">
        <ele>132</ele>
        <time>2020-05-31T07:32:45Z</time>
      </trkpt>
      <trkpt lat="48.61504" lon="2.09424">
        <ele>132</ele>
        <time>2020-05-31T07:32:47Z</time>
      </trkpt>
      <trkpt lat="48.61504" lon="2.0942">
        <ele>132</ele>
        <time>2020-05-31T07:32:49Z</time>
      </trkpt>
      <trkpt lat="48.61503" lon="2.09418">
        <ele>132</ele>
        <time>2020-05-31T07:32:51Z</time>
      </trkpt>
      <trkpt lat="48.61502" lon="2.09414">
        <ele>132</ele>
        <time>2020-05-31T07:32:53Z</time>
      </trkpt>
      <trkpt lat="48.61502" lon="2.09411">
        <ele>132</ele>
        <time>2020-05-31T07:32:55Z</time>
      </trkpt>
      <trkpt lat="48.61501" lon="2.09407">
        <ele>132</ele>
        <time>2020-05-31T07:32:57Z</time>
      </trkpt>
      <trkpt lat="48.615" lon="2.09404">
        <ele>132</ele>
        <time>2020-05-31T07:32:59Z</time>
      </trkpt>
      <trkpt lat="48.61499" lon="2.094">
        <ele>132</ele>
        <time>2020-05-31T07:33:01Z</time>
      </trkpt>
      <trkpt lat="48.61499" lon="2.09396">
        <ele>132</ele>
        <time>2020-05-31T07:33:03Z</time>
      </trkpt>
      <trkpt lat="48.61498" lon="2.09393">
        <ele>132</ele>
        <time>2020-05-31T07:33:05Z</time>
      </trkpt>
      <trkpt lat="48.61497" lon="2.09389">
        <ele>132</ele>
        <time>2020-05-31T07:33:07Z</time>
      </trkpt>
      <trkpt lat="48.61496" lon="2.09385">
        <ele>132</ele>
        <time>2020-05-31T07:33:09Z</time>
      </trkpt>
      <trkpt lat="48.61495" lon="2.09381">
        <ele>132</ele>
        <time>2020-05-31T07:33:11Z</time>
      </trkpt>
      <trkpt lat="48.61495" lon="2.09377">
        <ele>132</ele>
        <time>2020-05-31T07:33:13Z</time>
      </trkpt>
      <trkpt lat="48.61494" lon="2.09373">
        <ele>133</ele>
        <time>2020-05-31T07:33:15Z</time>
      </trkpt>
      <trkpt lat="48.61493" lon="2.0937">
        <ele>133</ele>
        <time>2020-05-31T07:33:17Z</time>
      </trkpt>
      <trkpt lat="48.61492" lon="2.09367">
        <ele>133</ele>
        <time>2020-05-31T07:33:29Z</time>
      </trkpt>
      <trkpt lat="48.61491" lon="2.09363">
        <ele>133</ele>
        <time>2020-05-31T07:33:43Z</time>
      </trkpt>
      <trkpt lat="48.6149" lon="2.0936">
        <ele>133</ele>
        <time>2020-05-31T07:33:45Z</time>
      </trkpt>
      <trkpt lat="48.6149" lon="2.09356">
        <ele>133</ele>
        <time>2020-05-31T07:33:47Z</time>
      </trkpt>
      <trkpt lat="48.61489" lon="2.09352">
        <ele>133</ele>
        <time>2020-05-31T07:33:49Z</time>
      </trkpt>
      <trkpt lat="48.61488" lon="2.09348">
        <ele>133</ele>
        <time>2020-05-31T07:33:51Z</time>
      </trkpt>
      <trkpt lat="48.61487" lon="2.09344">
        <ele>133</ele>
        <time>2020-05-31T07:33:53Z</time>
      </trkpt>
      <trkpt lat="48.61486" lon="2.09339">
        <ele>133</ele>
        <time>2020-05-31T07:33:55Z</time>
      </trkpt>
      <trkpt lat="48.61486" lon="2.09335">
        <ele>134</ele>
        <time>2020-05-31T07:33:57Z</time>
      </trkpt>
      <trkpt lat="48.61485" lon="2.09331">
        <ele>134</ele>
        <time>2020-05-31T07:33:59Z</time>
      </trkpt>
      <trkpt lat="48.61484" lon="2.09328">
        <ele>134</ele>
        <time>2020-05-31T07:34:01Z</time>
      </trkpt>
      <trkpt lat="48.61483" lon="2.09324">
        <ele>134</ele>
        <time>2020-05-31T07:34:03Z</time>
      </trkpt>
      <trkpt lat="48.61482" lon="2.0932">
        <ele>134</ele>
        <time>2020-05-31T07:34:05Z</time>
      </trkpt>
      <trkpt lat="48.61481" lon="2.09316">
        <ele>134</ele>
        <time>2020-05-31T07:34:07Z</time>
      </trkpt>
      <trkpt lat="48.6148" lon="2.09312">
        <ele>134</ele>
        <time>2020-05-31T07:34:09Z</time>
      </trkpt>
      <trkpt lat="48.6148" lon="2.09308">
        <ele>134</ele>
        <time>2020-05-31T07:34:11Z</time>
      </trkpt>
      <trkpt lat="48.61479" lon="2.09304">
        <ele>134</ele>
        <time>2020-05-31T07:34:13Z</time>
      </trkpt>
      <trkpt lat="48.61478" lon="2.093">
        <ele>134</ele>
        <time>2020-05-31T07:34:15Z</time>
      </trkpt>
      <trkpt lat="48.61478" lon="2.09296">
        <ele>134</ele>
        <time>2020-05-31T07:34:17Z</time>
      </trkpt>
      <trkpt lat="48.61477" lon="2.09292">
        <ele>134</ele>
        <time>2020-05-31T07:34:19Z</time>
      </trkpt>
      <trkpt lat="48.61476" lon="2.09289">
        <ele>134</ele>
        <time>2020-05-31T07:34:21Z</time>
      </trkpt>
      <trkpt lat="48.61476" lon="2.09284">
        <ele>134</ele>
        <time>2020-05-31T07:34:23Z</time>
      </trkpt>
      <trkpt lat="48.61475" lon="2.09281">
        <ele>135</ele>
        <time>2020-05-31T07:34:25Z</time>
      </trkpt>
      <trkpt lat="48.61474" lon="2.09277">
        <ele>135</ele>
        <time>2020-05-31T07:34:27Z</time>
      </trkpt>
      <trkpt lat="48.61473" lon="2.09273">
        <ele>135</ele>
        <time>2020-05-31T07:34:29Z</time>
      </trkpt>
      <trkpt lat="48.61472" lon="2.09269">
        <ele>135</ele>
        <time>2020-05-31T07:34:31Z</time>
      </trkpt>
      <trkpt lat="48.61471" lon="2.09265">
        <ele>135</ele>
        <time>2020-05-31T07:34:33Z</time>
      </trkpt>
      <trkpt lat="48.6147" lon="2.09261">
        <ele>136</ele>
        <time>2020-05-31T07:34:35Z</time>
      </trkpt>
      <trkpt lat="48.6147" lon="2.09257">
        <ele>136</ele>
        <time>2020-05-31T07:34:37Z</time>
      </trkpt>
      <trkpt lat="48.61469" lon="2.09253">
        <ele>136</ele>
        <time>2020-05-31T07:34:39Z</time>
      </trkpt>
      <trkpt lat="48.61468" lon="2.09249">
        <ele>136</ele>
        <time>2020-05-31T07:34:41Z</time>
      </trkpt>
      <trkpt lat="48.61467" lon="2.09245">
        <ele>136</ele>
        <time>2020-05-31T07:34:43Z</time>
      </trkpt>
      <trkpt lat="48.61467" lon="2.09242">
        <ele>136</ele>
        <time>2020-05-31T07:34:45Z</time>
      </trkpt>
      <trkpt lat="48.61466" lon="2.09237">
        <ele>136</ele>
        <time>2020-05-31T07:34:47Z</time>
      </trkpt>
      <trkpt lat="48.61466" lon="2.09233">
        <ele>135</ele>
        <time>2020-05-31T07:34:49Z</time>
      </trkpt>
      <trkpt lat="48.61465" lon="2.0923">
        <ele>135</ele>
        <time>2020-05-31T07:34:51Z</time>
      </trkpt>
      <trkpt lat="48.61464" lon="2.09225">
        <ele>135</ele>
        <time>2020-05-31T07:34:53Z</time>
      </trkpt>
      <trkpt lat="48.61464" lon="2.09221">
        <ele>135</ele>
        <time>2020-05-31T07:34:55Z</time>
      </trkpt>
      <trkpt lat="48.61463" lon="2.09217">
        <ele>135</ele>
        <time>2020-05-31T07:34:57Z</time>
      </trkpt>
      <trkpt lat="48.61463" lon="2.09214">
        <ele>135</ele>
        <time>2020-05-31T07:34:59Z</time>
      </trkpt>
      <trkpt lat="48.61463" lon="2.0921">
        <ele>135</ele>
        <time>2020-05-31T07:35:01Z</time>
      </trkpt>
      <trkpt lat="48.61462" lon="2.09207">
        <ele>135</ele>
        <time>2020-05-31T07:35:03Z</time>
      </trkpt>
      <trkpt lat="48.61462" lon="2.09203">
        <ele>135</ele>
        <time>2020-05-31T07:35:05Z</time>
      </trkpt>
      <trkpt lat="48.61461" lon="2.092">
        <ele>135</ele>
        <time>2020-05-31T07:35:07Z</time>
      </trkpt>
      <trkpt lat="48.61459" lon="2.09197">
        <ele>135</ele>
        <time>2020-05-31T07:35:09Z</time>
      </trkpt>
      <trkpt lat="48.61456" lon="2.09195">
        <ele>136</ele>
        <time>2020-05-31T07:35:11Z</time>
      </trkpt>
      <trkpt lat="48.61454" lon="2.09194">
        <ele>136</ele>
        <time>2020-05-31T07:35:13Z</time>
      </trkpt>
      <trkpt lat="48.61451" lon="2.09193">
        <ele>136</ele>
        <time>2020-05-31T07:35:15Z</time>
      </trkpt>
      <trkpt lat="48.61448" lon="2.09193">
        <ele>136</ele>
        <time>2020-05-31T07:35:17Z</time>
      </trkpt>
      <trkpt lat="48.61446" lon="2.09193">
        <ele>136</ele>
        <time>2020-05-31T07:35:19Z</time>
      </trkpt>
      <trkpt lat="48.61443" lon="2.09193">
        <ele>136</ele>
        <time>2020-05-31T07:35:21Z</time>
      </trkpt>
      <trkpt lat="48.6144" lon="2.09193">
        <ele>136</ele>
        <time>2020-05-31T07:35:23Z</time>
      </trkpt>
      <trkpt lat="48.61437" lon="2.09194">
        <ele>136</ele>
        <time>2020-05-31T07:35:25Z</time>
      </trkpt>
      <trkpt lat="48.61434" lon="2.09194">
        <ele>136</ele>
        <time>2020-05-31T07:35:27Z</time>
      </trkpt>
      <trkpt lat="48.61431" lon="2.09194">
        <ele>136</ele>
        <time>2020-05-31T07:35:29Z</time>
      </trkpt>
      <trkpt lat="48.61428" lon="2.09195">
        <ele>136</ele>
        <time>2020-05-31T07:35:31Z</time>
      </trkpt>
      <trkpt lat="48.61425" lon="2.09195">
        <ele>136</ele>
        <time>2020-05-31T07:35:33Z</time>
      </trkpt>
      <trkpt lat="48.61423" lon="2.09196">
        <ele>136</ele>
        <time>2020-05-31T07:35:35Z</time>
      </trkpt>
      <trkpt lat="48.6142" lon="2.09196">
        <ele>136</ele>
        <time>2020-05-31T07:35:37Z</time>
      </trkpt>
      <trkpt lat="48.61417" lon="2.09197">
        <ele>136</ele>
        <time>2020-05-31T07:35:39Z</time>
      </trkpt>
      <trkpt lat="48.61415" lon="2.09198">
        <ele>136</ele>
        <time>2020-05-31T07:35:41Z</time>
      </trkpt>
      <trkpt lat="48.61412" lon="2.09199">
        <ele>136</ele>
        <time>2020-05-31T07:35:43Z</time>
      </trkpt>
      <trkpt lat="48.61409" lon="2.092">
        <ele>136</ele>
        <time>2020-05-31T07:35:45Z</time>
      </trkpt>
      <trkpt lat="48.61407" lon="2.09202">
        <ele>136</ele>
        <time>2020-05-31T07:35:47Z</time>
      </trkpt>
      <trkpt lat="48.61404" lon="2.09203">
        <ele>136</ele>
        <time>2020-05-31T07:35:49Z</time>
      </trkpt>
      <trkpt lat="48.61401" lon="2.09204">
        <ele>136</ele>
        <time>2020-05-31T07:35:51Z</time>
      </trkpt>
      <trkpt lat="48.61399" lon="2.09205">
        <ele>136</ele>
        <time>2020-05-31T07:35:53Z</time>
      </trkpt>
      <trkpt lat="48.61396" lon="2.09206">
        <ele>136</ele>
        <time>2020-05-31T07:35:55Z</time>
      </trkpt>
      <trkpt lat="48.61394" lon="2.09208">
        <ele>136</ele>
        <time>2020-05-31T07:35:57Z</time>
      </trkpt>
      <trkpt lat="48.61391" lon="2.0921">
        <ele>136</ele>
        <time>2020-05-31T07:35:59Z</time>
      </trkpt>
      <trkpt lat="48.61389" lon="2.09212">
        <ele>136</ele>
        <time>2020-05-31T07:36:01Z</time>
      </trkpt>
      <trkpt lat="48.61386" lon="2.09213">
        <ele>136</ele>
        <time>2020-05-31T07:36:03Z</time>
      </trkpt>
      <trkpt lat="48.61383" lon="2.09214">
        <ele>136</ele>
        <time>2020-05-31T07:36:05Z</time>
      </trkpt>
      <trkpt lat="48.6138" lon="2.09213">
        <ele>136</ele>
        <time>2020-05-31T07:36:07Z</time>
      </trkpt>
      <trkpt lat="48.61378" lon="2.09212">
        <ele>136</ele>
        <time>2020-05-31T07:36:08Z</time>
      </trkpt>
      <trkpt lat="48.61376" lon="2.09211">
        <ele>136</ele>
        <time>2020-05-31T07:36:09Z</time>
      </trkpt>
      <trkpt lat="48.61374" lon="2.09209">
        <ele>136</ele>
        <time>2020-05-31T07:36:10Z</time>
      </trkpt>
      <trkpt lat="48.61372" lon="2.09205">
        <ele>135</ele>
        <time>2020-05-31T07:36:12Z</time>
      </trkpt>
      <trkpt lat="48.61371" lon="2.09201">
        <ele>135</ele>
        <time>2020-05-31T07:36:14Z</time>
      </trkpt>
      <trkpt lat="48.6137" lon="2.09197">
        <ele>135</ele>
        <time>2020-05-31T07:36:16Z</time>
      </trkpt>
      <trkpt lat="48.61369" lon="2.09192">
        <ele>135</ele>
        <time>2020-05-31T07:36:18Z</time>
      </trkpt>
      <trkpt lat="48.61368" lon="2.09188">
        <ele>134</ele>
        <time>2020-05-31T07:36:20Z</time>
      </trkpt>
      <trkpt lat="48.61367" lon="2.09184">
        <ele>134</ele>
        <time>2020-05-31T07:36:22Z</time>
      </trkpt>
      <trkpt lat="48.61366" lon="2.0918">
        <ele>134</ele>
        <time>2020-05-31T07:36:24Z</time>
      </trkpt>
      <trkpt lat="48.61366" lon="2.09176">
        <ele>135</ele>
        <time>2020-05-31T07:36:26Z</time>
      </trkpt>
      <trkpt lat="48.61365" lon="2.09172">
        <ele>135</ele>
        <time>2020-05-31T07:36:28Z</time>
      </trkpt>
      <trkpt lat="48.61364" lon="2.09168">
        <ele>135</ele>
        <time>2020-05-31T07:36:30Z</time>
      </trkpt>
      <trkpt lat="48.61364" lon="2.09165">
        <ele>135</ele>
        <time>2020-05-31T07:36:32Z</time>
      </trkpt>
      <trkpt lat="48.61363" lon="2.09161">
        <ele>135</ele>
        <time>2020-05-31T07:36:34Z</time>
      </trkpt>
      <trkpt lat="48.61363" lon="2.09157">
        <ele>135</ele>
        <time>2020-05-31T07:36:36Z</time>
      </trkpt>
      <trkpt lat="48.61363" lon="2.09152">
        <ele>135</ele>
        <time>2020-05-31T07:36:38Z</time>
      </trkpt>
      <trkpt lat="48.61363" lon="2.09148">
        <ele>135</ele>
        <time>2020-05-31T07:36:40Z</time>
      </trkpt>
      <trkpt lat="48.61362" lon="2.09144">
        <ele>135</ele>
        <time>2020-05-31T07:36:42Z</time>
      </trkpt>
      <trkpt lat="48.61361" lon="2.0914">
        <ele>135</ele>
        <time>2020-05-31T07:36:44Z</time>
      </trkpt>
      <trkpt lat="48.61361" lon="2.09135">
        <ele>135</ele>
        <time>2020-05-31T07:36:46Z</time>
      </trkpt>
      <trkpt lat="48.61361" lon="2.09131">
        <ele>136</ele>
        <time>2020-05-31T07:36:48Z</time>
      </trkpt>
      <trkpt lat="48.61361" lon="2.09127">
        <ele>136</ele>
        <time>2020-05-31T07:36:50Z</time>
      </trkpt>
      <trkpt lat="48.6136" lon="2.09123">
        <ele>136</ele>
        <time>2020-05-31T07:36:52Z</time>
      </trkpt>
      <trkpt lat="48.61359" lon="2.09119">
        <ele>136</ele>
        <time>2020-05-31T07:36:54Z</time>
      </trkpt>
      <trkpt lat="48.61358" lon="2.09115">
        <ele>137</ele>
        <time>2020-05-31T07:36:56Z</time>
      </trkpt>
      <trkpt lat="48.61357" lon="2.09111">
        <ele>137</ele>
        <time>2020-05-31T07:36:58Z</time>
      </trkpt>
      <trkpt lat="48.61357" lon="2.09107">
        <ele>137</ele>
        <time>2020-05-31T07:37:00Z</time>
      </trkpt>
      <trkpt lat="48.61356" lon="2.09103">
        <ele>137</ele>
        <time>2020-05-31T07:37:02Z</time>
      </trkpt>
      <trkpt lat="48.61356" lon="2.09099">
        <ele>137</ele>
        <time>2020-05-31T07:37:04Z</time>
      </trkpt>
      <trkpt lat="48.61356" lon="2.09095">
        <ele>137</ele>
        <time>2020-05-31T07:37:06Z</time>
      </trkpt>
      <trkpt lat="48.61356" lon="2.09091">
        <ele>137</ele>
        <time>2020-05-31T07:37:08Z</time>
      </trkpt>
      <trkpt lat="48.61355" lon="2.09087">
        <ele>137</ele>
        <time>2020-05-31T07:37:10Z</time>
      </trkpt>
      <trkpt lat="48.61355" lon="2.09083">
        <ele>137</ele>
        <time>2020-05-31T07:37:12Z</time>
      </trkpt>
      <trkpt lat="48.61354" lon="2.09079">
        <ele>137</ele>
        <time>2020-05-31T07:37:14Z</time>
      </trkpt>
      <trkpt lat="48.61354" lon="2.09074">
        <ele>137</ele>
        <time>2020-05-31T07:37:16Z</time>
      </trkpt>
      <trkpt lat="48.61353" lon="2.0907">
        <ele>137</ele>
        <time>2020-05-31T07:37:18Z</time>
      </trkpt>
      <trkpt lat="48.61352" lon="2.09066">
        <ele>137</ele>
        <time>2020-05-31T07:37:20Z</time>
      </trkpt>
      <trkpt lat="48.61351" lon="2.09062">
        <ele>138</ele>
        <time>2020-05-31T07:37:22Z</time>
      </trkpt>
      <trkpt lat="48.61351" lon="2.09058">
        <ele>138</ele>
        <time>2020-05-31T07:37:24Z</time>
      </trkpt>
      <trkpt lat="48.6135" lon="2.09053">
        <ele>138</ele>
        <time>2020-05-31T07:37:26Z</time>
      </trkpt>
      <trkpt lat="48.6135" lon="2.09049">
        <ele>138</ele>
        <time>2020-05-31T07:37:28Z</time>
      </trkpt>
      <trkpt lat="48.6135" lon="2.09045">
        <ele>138</ele>
        <time>2020-05-31T07:37:30Z</time>
      </trkpt>
      <trkpt lat="48.61349" lon="2.09041">
        <ele>138</ele>
        <time>2020-05-31T07:37:32Z</time>
      </trkpt>
      <trkpt lat="48.61349" lon="2.09036">
        <ele>138</ele>
        <time>2020-05-31T07:37:34Z</time>
      </trkpt>
      <trkpt lat="48.61349" lon="2.09032">
        <ele>138</ele>
        <time>2020-05-31T07:37:36Z</time>
      </trkpt>
      <trkpt lat="48.61349" lon="2.09028">
        <ele>138</ele>
        <time>2020-05-31T07:37:38Z</time>
      </trkpt>
      <trkpt lat="48.61349" lon="2.09023">
        <ele>138</ele>
        <time>2020-05-31T07:37:40Z</time>
      </trkpt>
      <trkpt lat="48.61349" lon="2.09019">
        <ele>138</ele>
        <time>2020-05-31T07:37:42Z</time>
      </trkpt>
      <trkpt lat="48.61349" lon="2.09015">
        <ele>138</ele>
        <time>2020-05-31T07:37:44Z</time>
      </trkpt>
      <trkpt lat="48.6135" lon="2.09011">
        <ele>138</ele>
        <time>2020-05-31T07:37:46Z</time>
      </trkpt>
      <trkpt lat="48.6135" lon="2.09007">
        <ele>138</ele>
        <time>2020-05-31T07:37:48Z</time>
      </trkpt>
      <trkpt lat="48.6135" lon="2.09003">
        <ele>138</ele>
        <time>2020-05-31T07:37:50Z</time>
      </trkpt>
      <trkpt lat="48.61351" lon="2.08999">
        <ele>138</ele>
        <time>2020-05-31T07:37:52Z</time>
      </trkpt>
      <trkpt lat="48.61352" lon="2.08995">
        <ele>138</ele>
        <time>2020-05-31T07:37:54Z</time>
      </trkpt>
      <trkpt lat="48.61353" lon="2.0899">
        <ele>138</ele>
        <time>2020-05-31T07:37:56Z</time>
      </trkpt>
      <trkpt lat="48.61354" lon="2.08986">
        <ele>138</ele>
        <time>2020-05-31T07:37:58Z</time>
      </trkpt>
      <trkpt lat="48.61355" lon="2.08982">
        <ele>138</ele>
        <time>2020-05-31T07:38:00Z</time>
      </trkpt>
      <trkpt lat="48.61357" lon="2.08978">
        <ele>138</ele>
        <time>2020-05-31T07:38:02Z</time>
      </trkpt>
      <trkpt lat="48.61359" lon="2.08975">
        <ele>138</ele>
        <time>2020-05-31T07:38:04Z</time>
      </trkpt>
      <trkpt lat="48.61361" lon="2.08971">
        <ele>138</ele>
        <time>2020-05-31T07:38:06Z</time>
      </trkpt>
      <trkpt lat="48.61363" lon="2.08968">
        <ele>139</ele>
        <time>2020-05-31T07:38:08Z</time>
      </trkpt>
      <trkpt lat="48.61364" lon="2.08965">
        <ele>139</ele>
        <time>2020-05-31T07:38:10Z</time>
      </trkpt>
      <trkpt lat="48.61366" lon="2.08961">
        <ele>139</ele>
        <time>2020-05-31T07:38:12Z</time>
      </trkpt>
      <trkpt lat="48.61367" lon="2.08958">
        <ele>139</ele>
        <time>2020-05-31T07:38:14Z</time>
      </trkpt>
      <trkpt lat="48.61368" lon="2.08954">
        <ele>139</ele>
        <time>2020-05-31T07:38:16Z</time>
      </trkpt>
      <trkpt lat="48.6137" lon="2.0895">
        <ele>139</ele>
        <time>2020-05-31T07:38:18Z</time>
      </trkpt>
      <trkpt lat="48.61371" lon="2.08946">
        <ele>139</ele>
        <time>2020-05-31T07:38:20Z</time>
      </trkpt>
      <trkpt lat="48.61371" lon="2.08942">
        <ele>139</ele>
        <time>2020-05-31T07:38:22Z</time>
      </trkpt>
      <trkpt lat="48.61371" lon="2.08937">
        <ele>139</ele>
        <time>2020-05-31T07:38:24Z</time>
      </trkpt>
      <trkpt lat="48.61372" lon="2.08933">
        <ele>139</ele>
        <time>2020-05-31T07:38:26Z</time>
      </trkpt>
      <trkpt lat="48.61372" lon="2.08929">
        <ele>139</ele>
        <time>2020-05-31T07:38:28Z</time>
      </trkpt>
      <trkpt lat="48.61371" lon="2.08925">
        <ele>139</ele>
        <time>2020-05-31T07:38:30Z</time>
      </trkpt>
      <trkpt lat="48.61371" lon="2.08921">
        <ele>139</ele>
        <time>2020-05-31T07:38:32Z</time>
      </trkpt>
      <trkpt lat="48.6137" lon="2.08916">
        <ele>139</ele>
        <time>2020-05-31T07:38:34Z</time>
      </trkpt>
      <trkpt lat="48.6137" lon="2.08913">
        <ele>139</ele>
        <time>2020-05-31T07:38:36Z</time>
      </trkpt>
      <trkpt lat="48.61369" lon="2.08909">
        <ele>139</ele>
        <time>2020-05-31T07:38:38Z</time>
      </trkpt>
      <trkpt lat="48.61368" lon="2.08905">
        <ele>139</ele>
        <time>2020-05-31T07:38:40Z</time>
      </trkpt>
      <trkpt lat="48.61368" lon="2.089">
        <ele>139</ele>
        <time>2020-05-31T07:38:42Z</time>
      </trkpt>
      <trkpt lat="48.61367" lon="2.08896">
        <ele>139</ele>
        <time>2020-05-31T07:38:44Z</time>
      </trkpt>
      <trkpt lat="48.61367" lon="2.08892">
        <ele>140</ele>
        <time>2020-05-31T07:38:46Z</time>
      </trkpt>
      <trkpt lat="48.61367" lon="2.08888">
        <ele>140</ele>
        <time>2020-05-31T07:38:48Z</time>
      </trkpt>
      <trkpt lat="48.61366" lon="2.08885">
        <ele>140</ele>
        <time>2020-05-31T07:38:50Z</time>
      </trkpt>
      <trkpt lat="48.61365" lon="2.0888">
        <ele>140</ele>
        <time>2020-05-31T07:38:52Z</time>
      </trkpt>
      <trkpt lat="48.61365" lon="2.08877">
        <ele>140</ele>
        <time>2020-05-31T07:38:54Z</time>
      </trkpt>
      <trkpt lat="48.61364" lon="2.08873">
        <ele>140</ele>
        <time>2020-05-31T07:38:56Z</time>
      </trkpt>
      <trkpt lat="48.61364" lon="2.08869">
        <ele>140</ele>
        <time>2020-05-31T07:38:58Z</time>
      </trkpt>
      <trkpt lat="48.61363" lon="2.08864">
        <ele>140</ele>
        <time>2020-05-31T07:39:00Z</time>
      </trkpt>
      <trkpt lat="48.61363" lon="2.08861">
        <ele>140</ele>
        <time>2020-05-31T07:39:02Z</time>
      </trkpt>
      <trkpt lat="48.61363" lon="2.08857">
        <ele>140</ele>
        <time>2020-05-31T07:39:04Z</time>
      </trkpt>
      <trkpt lat="48.61362" lon="2.08853">
        <ele>140</ele>
        <time>2020-05-31T07:39:06Z</time>
      </trkpt>
      <trkpt lat="48.61362" lon="2.08849">
        <ele>140</ele>
        <time>2020-05-31T07:39:08Z</time>
      </trkpt>
      <trkpt lat="48.61361" lon="2.08844">
        <ele>141</ele>
        <time>2020-05-31T07:39:10Z</time>
      </trkpt>
      <trkpt lat="48.61361" lon="2.0884">
        <ele>141</ele>
        <time>2020-05-31T07:39:12Z</time>
      </trkpt>
      <trkpt lat="48.6136" lon="2.08837">
        <ele>141</ele>
        <time>2020-05-31T07:39:14Z</time>
      </trkpt>
      <trkpt lat="48.61359" lon="2.08833">
        <ele>141</ele>
        <time>2020-05-31T07:39:16Z</time>
      </trkpt>
      <trkpt lat="48.61359" lon="2.08828">
        <ele>141</ele>
        <time>2020-05-31T07:39:18Z</time>
      </trkpt>
      <trkpt lat="48.61358" lon="2.08824">
        <ele>141</ele>
        <time>2020-05-31T07:39:20Z</time>
      </trkpt>
      <trkpt lat="48.61358" lon="2.0882">
        <ele>141</ele>
        <time>2020-05-31T07:39:22Z</time>
      </trkpt>
      <trkpt lat="48.61358" lon="2.08816">
        <ele>141</ele>
        <time>2020-05-31T07:39:24Z</time>
      </trkpt>
      <trkpt lat="48.61358" lon="2.08812">
        <ele>141</ele>
        <time>2020-05-31T07:39:26Z</time>
      </trkpt>
      <trkpt lat="48.61357" lon="2.08808">
        <ele>142</ele>
        <time>2020-05-31T07:39:28Z</time>
      </trkpt>
      <trkpt lat="48.61357" lon="2.08804">
        <ele>142</ele>
        <time>2020-05-31T07:39:30Z</time>
      </trkpt>
      <trkpt lat="48.61358" lon="2.08801">
        <ele>142</ele>
        <time>2020-05-31T07:39:32Z</time>
      </trkpt>
      <trkpt lat="48.61359" lon="2.08797">
        <ele>142</ele>
        <time>2020-05-31T07:39:34Z</time>
      </trkpt>
      <trkpt lat="48.6136" lon="2.08793">
        <ele>142</ele>
        <time>2020-05-31T07:39:36Z</time>
      </trkpt>
      <trkpt lat="48.61361" lon="2.0879">
        <ele>142</ele>
        <time>2020-05-31T07:39:38Z</time>
      </trkpt>
      <trkpt lat="48.61361" lon="2.08785">
        <ele>142</ele>
        <time>2020-05-31T07:39:40Z</time>
      </trkpt>
      <trkpt lat="48.61362" lon="2.08781">
        <ele>143</ele>
        <time>2020-05-31T07:39:42Z</time>
      </trkpt>
      <trkpt lat="48.61363" lon="2.08778">
        <ele>143</ele>
        <time>2020-05-31T07:39:44Z</time>
      </trkpt>
      <trkpt lat="48.61364" lon="2.08774">
        <ele>143</ele>
        <time>2020-05-31T07:39:46Z</time>
      </trkpt>
      <trkpt lat="48.61365" lon="2.08771">
        <ele>143</ele>
        <time>2020-05-31T07:39:48Z</time>
      </trkpt>
      <trkpt lat="48.61366" lon="2.08767">
        <ele>143</ele>
        <time>2020-05-31T07:39:50Z</time>
      </trkpt>
      <trkpt lat="48.61367" lon="2.08763">
        <ele>143</ele>
        <time>2020-05-31T07:39:52Z</time>
      </trkpt>
      <trkpt lat="48.61368" lon="2.0876">
        <ele>144</ele>
        <time>2020-05-31T07:39:54Z</time>
      </trkpt>
      <trkpt lat="48.61369" lon="2.08756">
        <ele>144</ele>
        <time>2020-05-31T07:39:56Z</time>
      </trkpt>
      <trkpt lat="48.6137" lon="2.08753">
        <ele>144</ele>
        <time>2020-05-31T07:39:58Z</time>
      </trkpt>
      <trkpt lat="48.61371" lon="2.08749">
        <ele>144</ele>
        <time>2020-05-31T07:40:00Z</time>
      </trkpt>
      <trkpt lat="48.61373" lon="2.08746">
        <ele>144</ele>
        <time>2020-05-31T07:40:02Z</time>
      </trkpt>
      <trkpt lat="48.61374" lon="2.08742">
        <ele>144</ele>
        <time>2020-05-31T07:40:04Z</time>
      </trkpt>
      <trkpt lat="48.61375" lon="2.08738">
        <ele>144</ele>
        <time>2020-05-31T07:40:06Z</time>
      </trkpt>
      <trkpt lat="48.61376" lon="2.08734">
        <ele>145</ele>
        <time>2020-05-31T07:40:08Z</time>
      </trkpt>
      <trkpt lat="48.61377" lon="2.08731">
        <ele>145</ele>
        <time>2020-05-31T07:40:10Z</time>
      </trkpt>
      <trkpt lat="48.61378" lon="2.08727">
        <ele>145</ele>
        <time>2020-05-31T07:40:12Z</time>
      </trkpt>
      <trkpt lat="48.6138" lon="2.08723">
        <ele>145</ele>
        <time>2020-05-31T07:40:14Z</time>
      </trkpt>
      <trkpt lat="48.61381" lon="2.08719">
        <ele>145</ele>
        <time>2020-05-31T07:40:16Z</time>
      </trkpt>
      <trkpt lat="48.61382" lon="2.08716">
        <ele>145</ele>
        <time>2020-05-31T07:40:18Z</time>
      </trkpt>
      <trkpt lat="48.61383" lon="2.08712">
        <ele>145</ele>
        <time>2020-05-31T07:40:20Z</time>
      </trkpt>
      <trkpt lat="48.61385" lon="2.08709">
        <ele>145</ele>
        <time>2020-05-31T07:40:22Z</time>
      </trkpt>
      <trkpt lat="48.61386" lon="2.08705">
        <ele>145</ele>
        <time>2020-05-31T07:40:24Z</time>
      </trkpt>
      <trkpt lat="48.61388" lon="2.08702">
        <ele>145</ele>
        <time>2020-05-31T07:40:26Z</time>
      </trkpt>
      <trkpt lat="48.61389" lon="2.08698">
        <ele>146</ele>
        <time>2020-05-31T07:40:28Z</time>
      </trkpt>
      <trkpt lat="48.6139" lon="2.08694">
        <ele>146</ele>
        <time>2020-05-31T07:40:30Z</time>
      </trkpt>
      <trkpt lat="48.61392" lon="2.08691">
        <ele>146</ele>
        <time>2020-05-31T07:40:32Z</time>
      </trkpt>
      <trkpt lat="48.61393" lon="2.08687">
        <ele>146</ele>
        <time>2020-05-31T07:40:34Z</time>
      </trkpt>
      <trkpt lat="48.61395" lon="2.08684">
        <ele>147</ele>
        <time>2020-05-31T07:40:36Z</time>
      </trkpt>
      <trkpt lat="48.61396" lon="2.0868">
        <ele>147</ele>
        <time>2020-05-31T07:40:38Z</time>
      </trkpt>
      <trkpt lat="48.61398" lon="2.08676">
        <ele>147</ele>
        <time>2020-05-31T07:40:40Z</time>
      </trkpt>
      <trkpt lat="48.61399" lon="2.08672">
        <ele>147</ele>
        <time>2020-05-31T07:40:42Z</time>
      </trkpt>
      <trkpt lat="48.614" lon="2.08668">
        <ele>147</ele>
        <time>2020-05-31T07:40:44Z</time>
      </trkpt>
      <trkpt lat="48.61401" lon="2.08664">
        <ele>147</ele>
        <time>2020-05-31T07:40:46Z</time>
      </trkpt>
      <trkpt lat="48.61403" lon="2.08661">
        <ele>148</ele>
        <time>2020-05-31T07:40:48Z</time>
      </trkpt>
      <trkpt lat="48.61404" lon="2.08657">
        <ele>148</ele>
        <time>2020-05-31T07:40:50Z</time>
      </trkpt>
      <trkpt lat="48.61405" lon="2.08654">
        <ele>148</ele>
        <time>2020-05-31T07:40:52Z</time>
      </trkpt>
      <trkpt lat="48.61406" lon="2.0865">
        <ele>148</ele>
        <time>2020-05-31T07:40:54Z</time>
      </trkpt>
      <trkpt lat="48.61406" lon="2.08646">
        <ele>148</ele>
        <time>2020-05-31T07:40:56Z</time>
      </trkpt>
      <trkpt lat="48.61407" lon="2.08643">
        <ele>148</ele>
        <time>2020-05-31T07:40:58Z</time>
      </trkpt>
      <trkpt lat="48.61408" lon="2.0864">
        <ele>148</ele>
        <time>2020-05-31T07:41:01Z</time>
      </trkpt>
      <trkpt lat="48.61408" lon="2.08637">
        <ele>148</ele>
        <time>2020-05-31T07:41:03Z</time>
      </trkpt>
      <trkpt lat="48.61409" lon="2.08634">
        <ele>148</ele>
        <time>2020-05-31T07:41:05Z</time>
      </trkpt>
      <trkpt lat="48.61411" lon="2.08631">
        <ele>148</ele>
        <time>2020-05-31T07:41:07Z</time>
      </trkpt>
      <trkpt lat="48.61413" lon="2.08627">
        <ele>148</ele>
        <time>2020-05-31T07:41:09Z</time>
      </trkpt>
      <trkpt lat="48.61414" lon="2.08624">
        <ele>148</ele>
        <time>2020-05-31T07:41:11Z</time>
      </trkpt>
      <trkpt lat="48.61417" lon="2.08622">
        <ele>149</ele>
        <time>2020-05-31T07:41:13Z</time>
      </trkpt>
      <trkpt lat="48.61419" lon="2.08619">
        <ele>149</ele>
        <time>2020-05-31T07:41:15Z</time>
      </trkpt>
      <trkpt lat="48.61421" lon="2.08615">
        <ele>149</ele>
        <time>2020-05-31T07:41:17Z</time>
      </trkpt>
      <trkpt lat="48.61423" lon="2.08612">
        <ele>149</ele>
        <time>2020-05-31T07:41:19Z</time>
      </trkpt>
      <trkpt lat="48.61426" lon="2.08609">
        <ele>149</ele>
        <time>2020-05-31T07:41:21Z</time>
      </trkpt>
      <trkpt lat="48.61428" lon="2.08607">
        <ele>149</ele>
        <time>2020-05-31T07:41:23Z</time>
      </trkpt>
      <trkpt lat="48.6143" lon="2.08605">
        <ele>149</ele>
        <time>2020-05-31T07:41:25Z</time>
      </trkpt>
      <trkpt lat="48.61432" lon="2.08603">
        <ele>149</ele>
        <time>2020-05-31T07:41:27Z</time>
      </trkpt>
      <trkpt lat="48.61434" lon="2.086">
        <ele>149</ele>
        <time>2020-05-31T07:41:29Z</time>
      </trkpt>
      <trkpt lat="48.61436" lon="2.08597">
        <ele>150</ele>
        <time>2020-05-31T07:41:31Z</time>
      </trkpt>
      <trkpt lat="48.61438" lon="2.08595">
        <ele>150</ele>
        <time>2020-05-31T07:41:33Z</time>
      </trkpt>
      <trkpt lat="48.61441" lon="2.08593">
        <ele>150</ele>
        <time>2020-05-31T07:41:35Z</time>
      </trkpt>
      <trkpt lat="48.61443" lon="2.0859">
        <ele>150</ele>
        <time>2020-05-31T07:41:37Z</time>
      </trkpt>
      <trkpt lat="48.61444" lon="2.08586">
        <ele>150</ele>
        <time>2020-05-31T07:41:39Z</time>
      </trkpt>
      <trkpt lat="48.61446" lon="2.08583">
        <ele>150</ele>
        <time>2020-05-31T07:41:41Z</time>
      </trkpt>
      <trkpt lat="48.61449" lon="2.0858">
        <ele>150</ele>
        <time>2020-05-31T07:41:43Z</time>
      </trkpt>
      <trkpt lat="48.6145" lon="2.08577">
        <ele>150</ele>
        <time>2020-05-31T07:41:45Z</time>
      </trkpt>
      <trkpt lat="48.61451" lon="2.08575">
        <ele>150</ele>
        <time>2020-05-31T07:41:47Z</time>
      </trkpt>
      <trkpt lat="48.61453" lon="2.08573">
        <ele>150</ele>
        <time>2020-05-31T07:41:49Z</time>
      </trkpt>
      <trkpt lat="48.61457" lon="2.0857">
        <ele>150</ele>
        <time>2020-05-31T07:41:52Z</time>
      </trkpt>
      <trkpt lat="48.61459" lon="2.08568">
        <ele>150</ele>
        <time>2020-05-31T07:41:54Z</time>
      </trkpt>
      <trkpt lat="48.61461" lon="2.08567">
        <ele>150</ele>
        <time>2020-05-31T07:41:55Z</time>
      </trkpt>
      <trkpt lat="48.61463" lon="2.08564">
        <ele>150</ele>
        <time>2020-05-31T07:41:57Z</time>
      </trkpt>
      <trkpt lat="48.61466" lon="2.08563">
        <ele>150</ele>
        <time>2020-05-31T07:41:59Z</time>
      </trkpt>
      <trkpt lat="48.61468" lon="2.08562">
        <ele>150</ele>
        <time>2020-05-31T07:42:00Z</time>
      </trkpt>
      <trkpt lat="48.61471" lon="2.08562">
        <ele>150</ele>
        <time>2020-05-31T07:42:02Z</time>
      </trkpt>
      <trkpt lat="48.61474" lon="2.08561">
        <ele>151</ele>
        <time>2020-05-31T07:42:04Z</time>
      </trkpt>
      <trkpt lat="48.61478" lon="2.0856">
        <ele>151</ele>
        <time>2020-05-31T07:42:06Z</time>
      </trkpt>
      <trkpt lat="48.61481" lon="2.08558">
        <ele>151</ele>
        <time>2020-05-31T07:42:08Z</time>
      </trkpt>
      <trkpt lat="48.61483" lon="2.08557">
        <ele>151</ele>
        <time>2020-05-31T07:42:10Z</time>
      </trkpt>
      <trkpt lat="48.61485" lon="2.08557">
        <ele>151</ele>
        <time>2020-05-31T07:42:11Z</time>
      </trkpt>
      <trkpt lat="48.61488" lon="2.08555">
        <ele>151</ele>
        <time>2020-05-31T07:42:13Z</time>
      </trkpt>
      <trkpt lat="48.61491" lon="2.08554">
        <ele>150</ele>
        <time>2020-05-31T07:42:15Z</time>
      </trkpt>
      <trkpt lat="48.61493" lon="2.08552">
        <ele>150</ele>
        <time>2020-05-31T07:42:17Z</time>
      </trkpt>
      <trkpt lat="48.61495" lon="2.08551">
        <ele>150</ele>
        <time>2020-05-31T07:42:19Z</time>
      </trkpt>
      <trkpt lat="48.61497" lon="2.0855">
        <ele>150</ele>
        <time>2020-05-31T07:42:21Z</time>
      </trkpt>
      <trkpt lat="48.61499" lon="2.08547">
        <ele>150</ele>
        <time>2020-05-31T07:42:23Z</time>
      </trkpt>
      <trkpt lat="48.61501" lon="2.08545">
        <ele>150</ele>
        <time>2020-05-31T07:42:25Z</time>
      </trkpt>
      <trkpt lat="48.61503" lon="2.08542">
        <ele>150</ele>
        <time>2020-05-31T07:42:27Z</time>
      </trkpt>
      <trkpt lat="48.61505" lon="2.08539">
        <ele>150</ele>
        <time>2020-05-31T07:42:29Z</time>
      </trkpt>
      <trkpt lat="48.61507" lon="2.08537">
        <ele>150</ele>
        <time>2020-05-31T07:42:31Z</time>
      </trkpt>
      <trkpt lat="48.61508" lon="2.08535">
        <ele>150</ele>
        <time>2020-05-31T07:42:33Z</time>
      </trkpt>
      <trkpt lat="48.6151" lon="2.08533">
        <ele>150</ele>
        <time>2020-05-31T07:42:35Z</time>
      </trkpt>
      <trkpt lat="48.61511" lon="2.0853">
        <ele>150</ele>
        <time>2020-05-31T07:42:37Z</time>
      </trkpt>
      <trkpt lat="48.61513" lon="2.08526">
        <ele>150</ele>
        <time>2020-05-31T07:42:39Z</time>
      </trkpt>
      <trkpt lat="48.61515" lon="2.08524">
        <ele>150</ele>
        <time>2020-05-31T07:42:41Z</time>
      </trkpt>
      <trkpt lat="48.61516" lon="2.08521">
        <ele>150</ele>
        <time>2020-05-31T07:42:43Z</time>
      </trkpt>
      <trkpt lat="48.61518" lon="2.08518">
        <ele>150</ele>
        <time>2020-05-31T07:42:45Z</time>
      </trkpt>
      <trkpt lat="48.61519" lon="2.08514">
        <ele>150</ele>
        <time>2020-05-31T07:42:47Z</time>
      </trkpt>
      <trkpt lat="48.6152" lon="2.08511">
        <ele>150</ele>
        <time>2020-05-31T07:42:49Z</time>
      </trkpt>
      <trkpt lat="48.61521" lon="2.08507">
        <ele>150</ele>
        <time>2020-05-31T07:42:51Z</time>
      </trkpt>
      <trkpt lat="48.61522" lon="2.08503">
        <ele>150</ele>
        <time>2020-05-31T07:42:53Z</time>
      </trkpt>
      <trkpt lat="48.61523" lon="2.08499">
        <ele>150</ele>
        <time>2020-05-31T07:42:55Z</time>
      </trkpt>
      <trkpt lat="48.61525" lon="2.08494">
        <ele>150</ele>
        <time>2020-05-31T07:42:57Z</time>
      </trkpt>
      <trkpt lat="48.61526" lon="2.0849">
        <ele>150</ele>
        <time>2020-05-31T07:42:59Z</time>
      </trkpt>
      <trkpt lat="48.61527" lon="2.08487">
        <ele>150</ele>
        <time>2020-05-31T07:43:01Z</time>
      </trkpt>
      <trkpt lat="48.61528" lon="2.08484">
        <ele>151</ele>
        <time>2020-05-31T07:43:03Z</time>
      </trkpt>
      <trkpt lat="48.61529" lon="2.0848">
        <ele>151</ele>
        <time>2020-05-31T07:43:05Z</time>
      </trkpt>
      <trkpt lat="48.6153" lon="2.08476">
        <ele>151</ele>
        <time>2020-05-31T07:43:07Z</time>
      </trkpt>
      <trkpt lat="48.61531" lon="2.08472">
        <ele>151</ele>
        <time>2020-05-31T07:43:09Z</time>
      </trkpt>
      <trkpt lat="48.61532" lon="2.08467">
        <ele>151</ele>
        <time>2020-05-31T07:43:11Z</time>
      </trkpt>
      <trkpt lat="48.61534" lon="2.08464">
        <ele>151</ele>
        <time>2020-05-31T07:43:13Z</time>
      </trkpt>
      <trkpt lat="48.61535" lon="2.0846">
        <ele>151</ele>
        <time>2020-05-31T07:43:15Z</time>
      </trkpt>
      <trkpt lat="48.61537" lon="2.08456">
        <ele>152</ele>
        <time>2020-05-31T07:43:17Z</time>
      </trkpt>
      <trkpt lat="48.61538" lon="2.08453">
        <ele>152</ele>
        <time>2020-05-31T07:43:18Z</time>
      </trkpt>
      <trkpt lat="48.61539" lon="2.08449">
        <ele>153</ele>
        <time>2020-05-31T07:43:20Z</time>
      </trkpt>
      <trkpt lat="48.6154" lon="2.08445">
        <ele>153</ele>
        <time>2020-05-31T07:43:22Z</time>
      </trkpt>
      <trkpt lat="48.61541" lon="2.08442">
        <ele>153</ele>
        <time>2020-05-31T07:43:24Z</time>
      </trkpt>
      <trkpt lat="48.61542" lon="2.08439">
        <ele>153</ele>
        <time>2020-05-31T07:43:26Z</time>
      </trkpt>
      <trkpt lat="48.61544" lon="2.08434">
        <ele>152</ele>
        <time>2020-05-31T07:43:28Z</time>
      </trkpt>
      <trkpt lat="48.61545" lon="2.08431">
        <ele>152</ele>
        <time>2020-05-31T07:43:30Z</time>
      </trkpt>
      <trkpt lat="48.61546" lon="2.08427">
        <ele>152</ele>
        <time>2020-05-31T07:43:32Z</time>
      </trkpt>
      <trkpt lat="48.61547" lon="2.08423">
        <ele>152</ele>
        <time>2020-05-31T07:43:34Z</time>
      </trkpt>
      <trkpt lat="48.61548" lon="2.08419">
        <ele>153</ele>
        <time>2020-05-31T07:43:36Z</time>
      </trkpt>
      <trkpt lat="48.6155" lon="2.08416">
        <ele>153</ele>
        <time>2020-05-31T07:43:38Z</time>
      </trkpt>
      <trkpt lat="48.61551" lon="2.08413">
        <ele>153</ele>
        <time>2020-05-31T07:43:40Z</time>
      </trkpt>
      <trkpt lat="48.61552" lon="2.0841">
        <ele>154</ele>
        <time>2020-05-31T07:43:42Z</time>
      </trkpt>
      <trkpt lat="48.61555" lon="2.08406">
        <ele>154</ele>
        <time>2020-05-31T07:43:44Z</time>
      </trkpt>
      <trkpt lat="48.61557" lon="2.08403">
        <ele>154</ele>
        <time>2020-05-31T07:43:46Z</time>
      </trkpt>
      <trkpt lat="48.61559" lon="2.084">
        <ele>155</ele>
        <time>2020-05-31T07:43:48Z</time>
      </trkpt>
      <trkpt lat="48.6156" lon="2.08396">
        <ele>155</ele>
        <time>2020-05-31T07:43:50Z</time>
      </trkpt>
      <trkpt lat="48.61562" lon="2.08393">
        <ele>155</ele>
        <time>2020-05-31T07:43:52Z</time>
      </trkpt>
      <trkpt lat="48.61564" lon="2.08389">
        <ele>155</ele>
        <time>2020-05-31T07:43:54Z</time>
      </trkpt>
      <trkpt lat="48.61565" lon="2.08386">
        <ele>155</ele>
        <time>2020-05-31T07:43:56Z</time>
      </trkpt>
      <trkpt lat="48.61566" lon="2.08382">
        <ele>155</ele>
        <time>2020-05-31T07:43:58Z</time>
      </trkpt>
      <trkpt lat="48.61568" lon="2.08378">
        <ele>155</ele>
        <time>2020-05-31T07:44:00Z</time>
      </trkpt>
      <trkpt lat="48.6157" lon="2.08376">
        <ele>155</ele>
        <time>2020-05-31T07:44:02Z</time>
      </trkpt>
      <trkpt lat="48.61571" lon="2.08373">
        <ele>155</ele>
        <time>2020-05-31T07:44:04Z</time>
      </trkpt>
      <trkpt lat="48.61573" lon="2.08368">
        <ele>154</ele>
        <time>2020-05-31T07:44:06Z</time>
      </trkpt>
      <trkpt lat="48.61574" lon="2.08365">
        <ele>155</ele>
        <time>2020-05-31T07:44:08Z</time>
      </trkpt>
      <trkpt lat="48.61576" lon="2.08363">
        <ele>155</ele>
        <time>2020-05-31T07:44:10Z</time>
      </trkpt>
      <trkpt lat="48.61578" lon="2.08359">
        <ele>155</ele>
        <time>2020-05-31T07:44:12Z</time>
      </trkpt>
      <trkpt lat="48.6158" lon="2.08356">
        <ele>155</ele>
        <time>2020-05-31T07:44:14Z</time>
      </trkpt>
      <trkpt lat="48.61581" lon="2.08353">
        <ele>155</ele>
        <time>2020-05-31T07:44:16Z</time>
      </trkpt>
      <trkpt lat="48.61583" lon="2.0835">
        <ele>156</ele>
        <time>2020-05-31T07:44:18Z</time>
      </trkpt>
      <trkpt lat="48.61585" lon="2.08348">
        <ele>156</ele>
        <time>2020-05-31T07:44:20Z</time>
      </trkpt>
      <trkpt lat="48.61587" lon="2.08345">
        <ele>156</ele>
        <time>2020-05-31T07:44:22Z</time>
      </trkpt>
      <trkpt lat="48.61588" lon="2.08341">
        <ele>156</ele>
        <time>2020-05-31T07:44:24Z</time>
      </trkpt>
      <trkpt lat="48.6159" lon="2.08339">
        <ele>156</ele>
        <time>2020-05-31T07:44:26Z</time>
      </trkpt>
      <trkpt lat="48.61592" lon="2.08336">
        <ele>156</ele>
        <time>2020-05-31T07:44:28Z</time>
      </trkpt>
      <trkpt lat="48.61594" lon="2.08334">
        <ele>156</ele>
        <time>2020-05-31T07:44:30Z</time>
      </trkpt>
      <trkpt lat="48.61595" lon="2.08331">
        <ele>157</ele>
        <time>2020-05-31T07:44:32Z</time>
      </trkpt>
      <trkpt lat="48.61597" lon="2.08329">
        <ele>157</ele>
        <time>2020-05-31T07:44:34Z</time>
      </trkpt>
      <trkpt lat="48.61599" lon="2.08326">
        <ele>157</ele>
        <time>2020-05-31T07:44:36Z</time>
      </trkpt>
      <trkpt lat="48.61602" lon="2.08323">
        <ele>157</ele>
        <time>2020-05-31T07:44:38Z</time>
      </trkpt>
      <trkpt lat="48.61604" lon="2.08321">
        <ele>157</ele>
        <time>2020-05-31T07:44:40Z</time>
      </trkpt>
      <trkpt lat="48.61606" lon="2.08318">
        <ele>157</ele>
        <time>2020-05-31T07:44:42Z</time>
      </trkpt>
      <trkpt lat="48.61608" lon="2.08315">
        <ele>157</ele>
        <time>2020-05-31T07:44:44Z</time>
      </trkpt>
      <trkpt lat="48.6161" lon="2.08313">
        <ele>157</ele>
        <time>2020-05-31T07:44:46Z</time>
      </trkpt>
      <trkpt lat="48.61612" lon="2.0831">
        <ele>157</ele>
        <time>2020-05-31T07:44:48Z</time>
      </trkpt>
      <trkpt lat="48.61614" lon="2.08308">
        <ele>158</ele>
        <time>2020-05-31T07:44:50Z</time>
      </trkpt>
      <trkpt lat="48.61617" lon="2.08306">
        <ele>158</ele>
        <time>2020-05-31T07:44:52Z</time>
      </trkpt>
      <trkpt lat="48.61619" lon="2.08304">
        <ele>158</ele>
        <time>2020-05-31T07:44:54Z</time>
      </trkpt>
      <trkpt lat="48.61621" lon="2.08301">
        <ele>158</ele>
        <time>2020-05-31T07:44:56Z</time>
      </trkpt>
      <trkpt lat="48.61623" lon="2.08298">
        <ele>158</ele>
        <time>2020-05-31T07:44:58Z</time>
      </trkpt>
      <trkpt lat="48.61626" lon="2.08296">
        <ele>158</ele>
        <time>2020-05-31T07:45:00Z</time>
      </trkpt>
      <trkpt lat="48.61628" lon="2.08293">
        <ele>158</ele>
        <time>2020-05-31T07:45:02Z</time>
      </trkpt>
      <trkpt lat="48.61631" lon="2.08291">
        <ele>159</ele>
        <time>2020-05-31T07:45:04Z</time>
      </trkpt>
      <trkpt lat="48.61633" lon="2.08289">
        <ele>159</ele>
        <time>2020-05-31T07:45:06Z</time>
      </trkpt>
      <trkpt lat="48.61636" lon="2.08286">
        <ele>160</ele>
        <time>2020-05-31T07:45:08Z</time>
      </trkpt>
      <trkpt lat="48.61639" lon="2.08285">
        <ele>160</ele>
        <time>2020-05-31T07:45:10Z</time>
      </trkpt>
      <trkpt lat="48.61642" lon="2.08284">
        <ele>160</ele>
        <time>2020-05-31T07:45:12Z</time>
      </trkpt>
      <trkpt lat="48.61644" lon="2.08282">
        <ele>160</ele>
        <time>2020-05-31T07:45:14Z</time>
      </trkpt>
      <trkpt lat="48.61646" lon="2.0828">
        <ele>161</ele>
        <time>2020-05-31T07:45:16Z</time>
      </trkpt>
      <trkpt lat="48.61648" lon="2.08278">
        <ele>161</ele>
        <time>2020-05-31T07:45:18Z</time>
      </trkpt>
      <trkpt lat="48.6165" lon="2.08276">
        <ele>161</ele>
        <time>2020-05-31T07:45:20Z</time>
      </trkpt>
      <trkpt lat="48.61652" lon="2.08274">
        <ele>162</ele>
        <time>2020-05-31T07:45:22Z</time>
      </trkpt>
      <trkpt lat="48.61654" lon="2.08271">
        <ele>162</ele>
        <time>2020-05-31T07:45:24Z</time>
      </trkpt>
      <trkpt lat="48.61656" lon="2.08269">
        <ele>162</ele>
        <time>2020-05-31T07:45:26Z</time>
      </trkpt>
      <trkpt lat="48.61658" lon="2.08267">
        <ele>162</ele>
        <time>2020-05-31T07:45:28Z</time>
      </trkpt>
      <trkpt lat="48.6166" lon="2.08265">
        <ele>162</ele>
        <time>2020-05-31T07:45:30Z</time>
      </trkpt>
      <trkpt lat="48.61662" lon="2.08263">
        <ele>162</ele>
        <time>2020-05-31T07:45:32Z</time>
      </trkpt>
      <trkpt lat="48.61663" lon="2.08262">
        <ele>163</ele>
        <time>2020-05-31T07:45:34Z</time>
      </trkpt>
      <trkpt lat="48.61665" lon="2.08259">
        <ele>163</ele>
        <time>2020-05-31T07:45:36Z</time>
      </trkpt>
      <trkpt lat="48.61666" lon="2.08256">
        <ele>163</ele>
        <time>2020-05-31T07:45:38Z</time>
      </trkpt>
      <trkpt lat="48.61668" lon="2.08254">
        <ele>163</ele>
        <time>2020-05-31T07:45:40Z</time>
      </trkpt>
      <trkpt lat="48.6167" lon="2.0825">
        <ele>163</ele>
        <time>2020-05-31T07:45:42Z</time>
      </trkpt>
      <trkpt lat="48.61672" lon="2.08247">
        <ele>163</ele>
        <time>2020-05-31T07:45:44Z</time>
      </trkpt>
      <trkpt lat="48.61674" lon="2.08244">
        <ele>163</ele>
        <time>2020-05-31T07:45:46Z</time>
      </trkpt>
      <trkpt lat="48.61676" lon="2.0824">
        <ele>163</ele>
        <time>2020-05-31T07:45:48Z</time>
      </trkpt>
      <trkpt lat="48.61677" lon="2.08237">
        <ele>163</ele>
        <time>2020-05-31T07:45:50Z</time>
      </trkpt>
      <trkpt lat="48.61679" lon="2.08234">
        <ele>164</ele>
        <time>2020-05-31T07:45:52Z</time>
      </trkpt>
      <trkpt lat="48.61682" lon="2.08232">
        <ele>164</ele>
        <time>2020-05-31T07:45:54Z</time>
      </trkpt>
      <trkpt lat="48.61684" lon="2.08229">
        <ele>164</ele>
        <time>2020-05-31T07:45:56Z</time>
      </trkpt>
      <trkpt lat="48.61686" lon="2.08225">
        <ele>164</ele>
        <time>2020-05-31T07:45:58Z</time>
      </trkpt>
      <trkpt lat="48.61688" lon="2.08223">
        <ele>163</ele>
        <time>2020-05-31T07:46:00Z</time>
      </trkpt>
      <trkpt lat="48.6169" lon="2.08221">
        <ele>163</ele>
        <time>2020-05-31T07:46:02Z</time>
      </trkpt>
      <trkpt lat="48.61693" lon="2.08219">
        <ele>164</ele>
        <time>2020-05-31T07:46:04Z</time>
      </trkpt>
      <trkpt lat="48.61696" lon="2.08216">
        <ele>164</ele>
        <time>2020-05-31T07:46:06Z</time>
      </trkpt>
      <trkpt lat="48.61699" lon="2.08214">
        <ele>164</ele>
        <time>2020-05-31T07:46:08Z</time>
      </trkpt>
      <trkpt lat="48.61701" lon="2.08212">
        <ele>164</ele>
        <time>2020-05-31T07:46:10Z</time>
      </trkpt>
      <trkpt lat="48.61703" lon="2.08209">
        <ele>164</ele>
        <time>2020-05-31T07:46:12Z</time>
      </trkpt>
      <trkpt lat="48.61705" lon="2.08205">
        <ele>165</ele>
        <time>2020-05-31T07:46:14Z</time>
      </trkpt>
      <trkpt lat="48.61707" lon="2.08203">
        <ele>165</ele>
        <time>2020-05-31T07:46:16Z</time>
      </trkpt>
      <trkpt lat="48.61709" lon="2.082">
        <ele>165</ele>
        <time>2020-05-31T07:46:18Z</time>
      </trkpt>
      <trkpt lat="48.61711" lon="2.08197">
        <ele>165</ele>
        <time>2020-05-31T07:46:20Z</time>
      </trkpt>
      <trkpt lat="48.61711" lon="2.08193">
        <ele>166</ele>
        <time>2020-05-31T07:46:22Z</time>
      </trkpt>
      <trkpt lat="48.6171" lon="2.08189">
        <ele>165</ele>
        <time>2020-05-31T07:46:24Z</time>
      </trkpt>
      <trkpt lat="48.61711" lon="2.08186">
        <ele>165</ele>
        <time>2020-05-31T07:46:26Z</time>
      </trkpt>
      <trkpt lat="48.61711" lon="2.08183">
        <ele>165</ele>
        <time>2020-05-31T07:46:28Z</time>
      </trkpt>
      <trkpt lat="48.61711" lon="2.08179">
        <ele>165</ele>
        <time>2020-05-31T07:46:30Z</time>
      </trkpt>
      <trkpt lat="48.61712" lon="2.08176">
        <ele>165</ele>
        <time>2020-05-31T07:46:32Z</time>
      </trkpt>
      <trkpt lat="48.61712" lon="2.08172">
        <ele>165</ele>
        <time>2020-05-31T07:46:34Z</time>
      </trkpt>
      <trkpt lat="48.61712" lon="2.08168">
        <ele>165</ele>
        <time>2020-05-31T07:46:36Z</time>
      </trkpt>
      <trkpt lat="48.61712" lon="2.08164">
        <ele>165</ele>
        <time>2020-05-31T07:46:38Z</time>
      </trkpt>
      <trkpt lat="48.61713" lon="2.08161">
        <ele>165</ele>
        <time>2020-05-31T07:46:40Z</time>
      </trkpt>
      <trkpt lat="48.61713" lon="2.08156">
        <ele>165</ele>
        <time>2020-05-31T07:46:42Z</time>
      </trkpt>
      <trkpt lat="48.61714" lon="2.08152">
        <ele>165</ele>
        <time>2020-05-31T07:46:44Z</time>
      </trkpt>
      <trkpt lat="48.61715" lon="2.08148">
        <ele>166</ele>
        <time>2020-05-31T07:46:46Z</time>
      </trkpt>
      <trkpt lat="48.61715" lon="2.08144">
        <ele>166</ele>
        <time>2020-05-31T07:46:48Z</time>
      </trkpt>
      <trkpt lat="48.61715" lon="2.0814">
        <ele>166</ele>
        <time>2020-05-31T07:46:50Z</time>
      </trkpt>
      <trkpt lat="48.61715" lon="2.08137">
        <ele>166</ele>
        <time>2020-05-31T07:46:52Z</time>
      </trkpt>
      <trkpt lat="48.61715" lon="2.08132">
        <ele>166</ele>
        <time>2020-05-31T07:46:54Z</time>
      </trkpt>
      <trkpt lat="48.61716" lon="2.08127">
        <ele>166</ele>
        <time>2020-05-31T07:46:56Z</time>
      </trkpt>
      <trkpt lat="48.61716" lon="2.08123">
        <ele>166</ele>
        <time>2020-05-31T07:46:58Z</time>
      </trkpt>
      <trkpt lat="48.61716" lon="2.0812">
        <ele>167</ele>
        <time>2020-05-31T07:47:00Z</time>
      </trkpt>
      <trkpt lat="48.61717" lon="2.08116">
        <ele>167</ele>
        <time>2020-05-31T07:47:02Z</time>
      </trkpt>
      <trkpt lat="48.61717" lon="2.08112">
        <ele>167</ele>
        <time>2020-05-31T07:47:04Z</time>
      </trkpt>
      <trkpt lat="48.61718" lon="2.08107">
        <ele>167</ele>
        <time>2020-05-31T07:47:06Z</time>
      </trkpt>
      <trkpt lat="48.61718" lon="2.08104">
        <ele>167</ele>
        <time>2020-05-31T07:47:07Z</time>
      </trkpt>
      <trkpt lat="48.61718" lon="2.08099">
        <ele>167</ele>
        <time>2020-05-31T07:47:09Z</time>
      </trkpt>
      <trkpt lat="48.61719" lon="2.08095">
        <ele>167</ele>
        <time>2020-05-31T07:47:11Z</time>
      </trkpt>
      <trkpt lat="48.6172" lon="2.0809">
        <ele>167</ele>
        <time>2020-05-31T07:47:13Z</time>
      </trkpt>
      <trkpt lat="48.61721" lon="2.08086">
        <ele>167</ele>
        <time>2020-05-31T07:47:15Z</time>
      </trkpt>
      <trkpt lat="48.61721" lon="2.08082">
        <ele>167</ele>
        <time>2020-05-31T07:47:17Z</time>
      </trkpt>
      <trkpt lat="48.61722" lon="2.08077">
        <ele>167</ele>
        <time>2020-05-31T07:47:19Z</time>
      </trkpt>
      <trkpt lat="48.61722" lon="2.08072">
        <ele>167</ele>
        <time>2020-05-31T07:47:21Z</time>
      </trkpt>
      <trkpt lat="48.61723" lon="2.08068">
        <ele>167</ele>
        <time>2020-05-31T07:47:23Z</time>
      </trkpt>
      <trkpt lat="48.61723" lon="2.08064">
        <ele>167</ele>
        <time>2020-05-31T07:47:25Z</time>
      </trkpt>
      <trkpt lat="48.61724" lon="2.0806">
        <ele>168</ele>
        <time>2020-05-31T07:47:27Z</time>
      </trkpt>
      <trkpt lat="48.61724" lon="2.08056">
        <ele>168</ele>
        <time>2020-05-31T07:47:29Z</time>
      </trkpt>
      <trkpt lat="48.61724" lon="2.08052">
        <ele>168</ele>
        <time>2020-05-31T07:47:31Z</time>
      </trkpt>
      <trkpt lat="48.61725" lon="2.08048">
        <ele>168</ele>
        <time>2020-05-31T07:47:33Z</time>
      </trkpt>
      <trkpt lat="48.61726" lon="2.08045">
        <ele>168</ele>
        <time>2020-05-31T07:47:35Z</time>
      </trkpt>
      <trkpt lat="48.61726" lon="2.08043">
        <ele>168</ele>
        <time>2020-05-31T07:47:37Z</time>
      </trkpt>
      <trkpt lat="48.61727" lon="2.0804">
        <ele>169</ele>
        <time>2020-05-31T07:47:39Z</time>
      </trkpt>
      <trkpt lat="48.61728" lon="2.08036">
        <ele>169</ele>
        <time>2020-05-31T07:47:41Z</time>
      </trkpt>
      <trkpt lat="48.61729" lon="2.08033">
        <ele>169</ele>
        <time>2020-05-31T07:47:43Z</time>
      </trkpt>
      <trkpt lat="48.61729" lon="2.08028">
        <ele>169</ele>
        <time>2020-05-31T07:47:45Z</time>
      </trkpt>
      <trkpt lat="48.6173" lon="2.08025">
        <ele>169</ele>
        <time>2020-05-31T07:47:47Z</time>
      </trkpt>
      <trkpt lat="48.6173" lon="2.08021">
        <ele>170</ele>
        <time>2020-05-31T07:47:49Z</time>
      </trkpt>
      <trkpt lat="48.6173" lon="2.08018">
        <ele>170</ele>
        <time>2020-05-31T07:47:51Z</time>
      </trkpt>
      <trkpt lat="48.6173" lon="2.08013">
        <ele>170</ele>
        <time>2020-05-31T07:47:53Z</time>
      </trkpt>
      <trkpt lat="48.61731" lon="2.0801">
        <ele>170</ele>
        <time>2020-05-31T07:47:55Z</time>
      </trkpt>
      <trkpt lat="48.61731" lon="2.08006">
        <ele>170</ele>
        <time>2020-05-31T07:47:57Z</time>
      </trkpt>
      <trkpt lat="48.61731" lon="2.08003">
        <ele>170</ele>
        <time>2020-05-31T07:47:59Z</time>
      </trkpt>
      <trkpt lat="48.61732" lon="2.08">
        <ele>170</ele>
        <time>2020-05-31T07:48:00Z</time>
      </trkpt>
      <trkpt lat="48.61733" lon="2.07996">
        <ele>170</ele>
        <time>2020-05-31T07:48:02Z</time>
      </trkpt>
      <trkpt lat="48.61734" lon="2.07994">
        <ele>170</ele>
        <time>2020-05-31T07:48:03Z</time>
      </trkpt>
      <trkpt lat="48.61736" lon="2.0799">
        <ele>170</ele>
        <time>2020-05-31T07:48:05Z</time>
      </trkpt>
      <trkpt lat="48.61737" lon="2.07987">
        <ele>170</ele>
        <time>2020-05-31T07:48:07Z</time>
      </trkpt>
      <trkpt lat="48.61739" lon="2.07983">
        <ele>169</ele>
        <time>2020-05-31T07:48:09Z</time>
      </trkpt>
      <trkpt lat="48.61741" lon="2.07978">
        <ele>169</ele>
        <time>2020-05-31T07:48:11Z</time>
      </trkpt>
      <trkpt lat="48.61742" lon="2.07974">
        <ele>169</ele>
        <time>2020-05-31T07:48:13Z</time>
      </trkpt>
      <trkpt lat="48.61744" lon="2.0797">
        <ele>169</ele>
        <time>2020-05-31T07:48:15Z</time>
      </trkpt>
      <trkpt lat="48.61746" lon="2.07967">
        <ele>169</ele>
        <time>2020-05-31T07:48:17Z</time>
      </trkpt>
      <trkpt lat="48.61748" lon="2.07964">
        <ele>168</ele>
        <time>2020-05-31T07:48:19Z</time>
      </trkpt>
      <trkpt lat="48.6175" lon="2.0796">
        <ele>168</ele>
        <time>2020-05-31T07:48:21Z</time>
      </trkpt>
      <trkpt lat="48.61751" lon="2.07957">
        <ele>169</ele>
        <time>2020-05-31T07:48:23Z</time>
      </trkpt>
      <trkpt lat="48.61752" lon="2.07953">
        <ele>169</ele>
        <time>2020-05-31T07:48:25Z</time>
      </trkpt>
      <trkpt lat="48.61754" lon="2.0795">
        <ele>169</ele>
        <time>2020-05-31T07:48:27Z</time>
      </trkpt>
      <trkpt lat="48.61755" lon="2.07948">
        <ele>169</ele>
        <time>2020-05-31T07:48:29Z</time>
      </trkpt>
      <trkpt lat="48.61757" lon="2.07944">
        <ele>169</ele>
        <time>2020-05-31T07:48:31Z</time>
      </trkpt>
      <trkpt lat="48.61759" lon="2.07941">
        <ele>169</ele>
        <time>2020-05-31T07:48:33Z</time>
      </trkpt>
      <trkpt lat="48.61761" lon="2.07937">
        <ele>169</ele>
        <time>2020-05-31T07:48:35Z</time>
      </trkpt>
      <trkpt lat="48.61762" lon="2.07933">
        <ele>168</ele>
        <time>2020-05-31T07:48:37Z</time>
      </trkpt>
      <trkpt lat="48.61763" lon="2.0793">
        <ele>168</ele>
        <time>2020-05-31T07:48:39Z</time>
      </trkpt>
      <trkpt lat="48.61764" lon="2.07928">
        <ele>168</ele>
        <time>2020-05-31T07:48:41Z</time>
      </trkpt>
      <trkpt lat="48.61766" lon="2.07925">
        <ele>168</ele>
        <time>2020-05-31T07:48:43Z</time>
      </trkpt>
      <trkpt lat="48.61767" lon="2.07922">
        <ele>168</ele>
        <time>2020-05-31T07:48:45Z</time>
      </trkpt>
      <trkpt lat="48.61769" lon="2.0792">
        <ele>168</ele>
        <time>2020-05-31T07:48:47Z</time>
      </trkpt>
      <trkpt lat="48.6177" lon="2.07916">
        <ele>169</ele>
        <time>2020-05-31T07:48:49Z</time>
      </trkpt>
      <trkpt lat="48.61771" lon="2.07913">
        <ele>169</ele>
        <time>2020-05-31T07:48:51Z</time>
      </trkpt>
      <trkpt lat="48.61772" lon="2.07909">
        <ele>169</ele>
        <time>2020-05-31T07:48:53Z</time>
      </trkpt>
      <trkpt lat="48.61773" lon="2.07906">
        <ele>169</ele>
        <time>2020-05-31T07:48:55Z</time>
      </trkpt>
      <trkpt lat="48.61775" lon="2.07903">
        <ele>169</ele>
        <time>2020-05-31T07:48:57Z</time>
      </trkpt>
      <trkpt lat="48.61777" lon="2.079">
        <ele>169</ele>
        <time>2020-05-31T07:48:59Z</time>
      </trkpt>
      <trkpt lat="48.61779" lon="2.07896">
        <ele>169</ele>
        <time>2020-05-31T07:49:01Z</time>
      </trkpt>
      <trkpt lat="48.6178" lon="2.07893">
        <ele>169</ele>
        <time>2020-05-31T07:49:03Z</time>
      </trkpt>
      <trkpt lat="48.61782" lon="2.07889">
        <ele>169</ele>
        <time>2020-05-31T07:49:05Z</time>
      </trkpt>
      <trkpt lat="48.61783" lon="2.07885">
        <ele>169</ele>
        <time>2020-05-31T07:49:07Z</time>
      </trkpt>
      <trkpt lat="48.61785" lon="2.07882">
        <ele>169</ele>
        <time>2020-05-31T07:49:09Z</time>
      </trkpt>
      <trkpt lat="48.61787" lon="2.0788">
        <ele>169</ele>
        <time>2020-05-31T07:49:11Z</time>
      </trkpt>
      <trkpt lat="48.6179" lon="2.07877">
        <ele>169</ele>
        <time>2020-05-31T07:49:13Z</time>
      </trkpt>
      <trkpt lat="48.61791" lon="2.07873">
        <ele>169</ele>
        <time>2020-05-31T07:49:15Z</time>
      </trkpt>
      <trkpt lat="48.61793" lon="2.0787">
        <ele>169</ele>
        <time>2020-05-31T07:49:17Z</time>
      </trkpt>
      <trkpt lat="48.61794" lon="2.07866">
        <ele>169</ele>
        <time>2020-05-31T07:49:19Z</time>
      </trkpt>
      <trkpt lat="48.61795" lon="2.07864">
        <ele>169</ele>
        <time>2020-05-31T07:49:21Z</time>
      </trkpt>
      <trkpt lat="48.61797" lon="2.07862">
        <ele>169</ele>
        <time>2020-05-31T07:49:23Z</time>
      </trkpt>
      <trkpt lat="48.61799" lon="2.0786">
        <ele>169</ele>
        <time>2020-05-31T07:49:25Z</time>
      </trkpt>
      <trkpt lat="48.618" lon="2.07857">
        <ele>169</ele>
        <time>2020-05-31T07:49:27Z</time>
      </trkpt>
      <trkpt lat="48.61802" lon="2.07854">
        <ele>170</ele>
        <time>2020-05-31T07:49:29Z</time>
      </trkpt>
      <trkpt lat="48.61804" lon="2.07851">
        <ele>170</ele>
        <time>2020-05-31T07:49:31Z</time>
      </trkpt>
      <trkpt lat="48.61806" lon="2.07849">
        <ele>170</ele>
        <time>2020-05-31T07:49:33Z</time>
      </trkpt>
      <trkpt lat="48.61807" lon="2.07847">
        <ele>170</ele>
        <time>2020-05-31T07:49:35Z</time>
      </trkpt>
      <trkpt lat="48.61808" lon="2.07844">
        <ele>170</ele>
        <time>2020-05-31T07:49:37Z</time>
      </trkpt>
      <trkpt lat="48.6181" lon="2.07841">
        <ele>170</ele>
        <time>2020-05-31T07:49:39Z</time>
      </trkpt>
      <trkpt lat="48.61811" lon="2.07837">
        <ele>169</ele>
        <time>2020-05-31T07:49:41Z</time>
      </trkpt>
      <trkpt lat="48.61812" lon="2.07833">
        <ele>169</ele>
        <time>2020-05-31T07:49:43Z</time>
      </trkpt>
      <trkpt lat="48.61813" lon="2.07829">
        <ele>169</ele>
        <time>2020-05-31T07:49:45Z</time>
      </trkpt>
      <trkpt lat="48.61815" lon="2.07826">
        <ele>169</ele>
        <time>2020-05-31T07:49:47Z</time>
      </trkpt>
      <trkpt lat="48.61816" lon="2.07823">
        <ele>170</ele>
        <time>2020-05-31T07:49:49Z</time>
      </trkpt>
      <trkpt lat="48.61817" lon="2.0782">
        <ele>170</ele>
        <time>2020-05-31T07:49:51Z</time>
      </trkpt>
      <trkpt lat="48.61818" lon="2.07817">
        <ele>170</ele>
        <time>2020-05-31T07:49:53Z</time>
      </trkpt>
      <trkpt lat="48.6182" lon="2.07815">
        <ele>170</ele>
        <time>2020-05-31T07:49:55Z</time>
      </trkpt>
      <trkpt lat="48.61822" lon="2.07811">
        <ele>171</ele>
        <time>2020-05-31T07:49:57Z</time>
      </trkpt>
      <trkpt lat="48.61824" lon="2.07807">
        <ele>171</ele>
        <time>2020-05-31T07:49:59Z</time>
      </trkpt>
      <trkpt lat="48.61825" lon="2.07803">
        <ele>171</ele>
        <time>2020-05-31T07:50:01Z</time>
      </trkpt>
      <trkpt lat="48.61827" lon="2.078">
        <ele>172</ele>
        <time>2020-05-31T07:50:03Z</time>
      </trkpt>
      <trkpt lat="48.61828" lon="2.07796">
        <ele>172</ele>
        <time>2020-05-31T07:50:05Z</time>
      </trkpt>
      <trkpt lat="48.6183" lon="2.07793">
        <ele>172</ele>
        <time>2020-05-31T07:50:07Z</time>
      </trkpt>
      <trkpt lat="48.61831" lon="2.07791">
        <ele>172</ele>
        <time>2020-05-31T07:50:09Z</time>
      </trkpt>
      <trkpt lat="48.61832" lon="2.07788">
        <ele>172</ele>
        <time>2020-05-31T07:50:11Z</time>
      </trkpt>
      <trkpt lat="48.61833" lon="2.07785">
        <ele>172</ele>
        <time>2020-05-31T07:50:13Z</time>
      </trkpt>
      <trkpt lat="48.61834" lon="2.07782">
        <ele>173</ele>
        <time>2020-05-31T07:50:15Z</time>
      </trkpt>
      <trkpt lat="48.61835" lon="2.07779">
        <ele>173</ele>
        <time>2020-05-31T07:50:17Z</time>
      </trkpt>
      <trkpt lat="48.61837" lon="2.07776">
        <ele>173</ele>
        <time>2020-05-31T07:50:19Z</time>
      </trkpt>
      <trkpt lat="48.61839" lon="2.07772">
        <ele>173</ele>
        <time>2020-05-31T07:50:21Z</time>
      </trkpt>
      <trkpt lat="48.61841" lon="2.07769">
        <ele>173</ele>
        <time>2020-05-31T07:50:23Z</time>
      </trkpt>
      <trkpt lat="48.61842" lon="2.07764">
        <ele>173</ele>
        <time>2020-05-31T07:50:25Z</time>
      </trkpt>
      <trkpt lat="48.61843" lon="2.0776">
        <ele>173</ele>
        <time>2020-05-31T07:50:27Z</time>
      </trkpt>
      <trkpt lat="48.61844" lon="2.07758">
        <ele>173</ele>
        <time>2020-05-31T07:50:28Z</time>
      </trkpt>
      <trkpt lat="48.61846" lon="2.07753">
        <ele>173</ele>
        <time>2020-05-31T07:50:30Z</time>
      </trkpt>
      <trkpt lat="48.61848" lon="2.0775">
        <ele>173</ele>
        <time>2020-05-31T07:50:32Z</time>
      </trkpt>
      <trkpt lat="48.61849" lon="2.07747">
        <ele>173</ele>
        <time>2020-05-31T07:50:34Z</time>
      </trkpt>
      <trkpt lat="48.6185" lon="2.07744">
        <ele>174</ele>
        <time>2020-05-31T07:50:37Z</time>
      </trkpt>
      <trkpt lat="48.6185" lon="2.07741">
        <ele>174</ele>
        <time>2020-05-31T07:50:39Z</time>
      </trkpt>
      <trkpt lat="48.61852" lon="2.07738">
        <ele>174</ele>
        <time>2020-05-31T07:50:41Z</time>
      </trkpt>
      <trkpt lat="48.61853" lon="2.07735">
        <ele>174</ele>
        <time>2020-05-31T07:50:43Z</time>
      </trkpt>
      <trkpt lat="48.61854" lon="2.07732">
        <ele>174</ele>
        <time>2020-05-31T07:50:45Z</time>
      </trkpt>
      <trkpt lat="48.61855" lon="2.07729">
        <ele>174</ele>
        <time>2020-05-31T07:50:47Z</time>
      </trkpt>
      <trkpt lat="48.61856" lon="2.07727">
        <ele>174</ele>
        <time>2020-05-31T07:50:49Z</time>
      </trkpt>
      <trkpt lat="48.61858" lon="2.07725">
        <ele>175</ele>
        <time>2020-05-31T07:50:51Z</time>
      </trkpt>
      <trkpt lat="48.61859" lon="2.07722">
        <ele>174</ele>
        <time>2020-05-31T07:50:53Z</time>
      </trkpt>
      <trkpt lat="48.61861" lon="2.07717">
        <ele>173</ele>
        <time>2020-05-31T07:50:55Z</time>
      </trkpt>
      <trkpt lat="48.61863" lon="2.07714">
        <ele>173</ele>
        <time>2020-05-31T07:50:57Z</time>
      </trkpt>
      <trkpt lat="48.61864" lon="2.07712">
        <ele>173</ele>
        <time>2020-05-31T07:50:59Z</time>
      </trkpt>
      <trkpt lat="48.61865" lon="2.07709">
        <ele>173</ele>
        <time>2020-05-31T07:51:01Z</time>
      </trkpt>
      <trkpt lat="48.61866" lon="2.07706">
        <ele>173</ele>
        <time>2020-05-31T07:51:03Z</time>
      </trkpt>
      <trkpt lat="48.61867" lon="2.07703">
        <ele>173</ele>
        <time>2020-05-31T07:51:05Z</time>
      </trkpt>
      <trkpt lat="48.6187" lon="2.07697">
        <ele>173</ele>
        <time>2020-05-31T07:51:08Z</time>
      </trkpt>
      <trkpt lat="48.6187" lon="2.07694">
        <ele>174</ele>
        <time>2020-05-31T07:51:11Z</time>
      </trkpt>
      <trkpt lat="48.61871" lon="2.07691">
        <ele>174</ele>
        <time>2020-05-31T07:51:13Z</time>
      </trkpt>
      <trkpt lat="48.61871" lon="2.07688">
        <ele>174</ele>
        <time>2020-05-31T07:51:15Z</time>
      </trkpt>
      <trkpt lat="48.61872" lon="2.07684">
        <ele>174</ele>
        <time>2020-05-31T07:51:17Z</time>
      </trkpt>
      <trkpt lat="48.61873" lon="2.0768">
        <ele>174</ele>
        <time>2020-05-31T07:51:19Z</time>
      </trkpt>
      <trkpt lat="48.61874" lon="2.07676">
        <ele>174</ele>
        <time>2020-05-31T07:51:21Z</time>
      </trkpt>
      <trkpt lat="48.61875" lon="2.07672">
        <ele>175</ele>
        <time>2020-05-31T07:51:23Z</time>
      </trkpt>
      <trkpt lat="48.61876" lon="2.07669">
        <ele>175</ele>
        <time>2020-05-31T07:51:25Z</time>
      </trkpt>
      <trkpt lat="48.61877" lon="2.07666">
        <ele>175</ele>
        <time>2020-05-31T07:51:27Z</time>
      </trkpt>
      <trkpt lat="48.61879" lon="2.07663">
        <ele>175</ele>
        <time>2020-05-31T07:51:29Z</time>
      </trkpt>
      <trkpt lat="48.6188" lon="2.07659">
        <ele>175</ele>
        <time>2020-05-31T07:51:31Z</time>
      </trkpt>
      <trkpt lat="48.61881" lon="2.07655">
        <ele>174</ele>
        <time>2020-05-31T07:51:33Z</time>
      </trkpt>
      <trkpt lat="48.61883" lon="2.07651">
        <ele>174</ele>
        <time>2020-05-31T07:51:35Z</time>
      </trkpt>
      <trkpt lat="48.61883" lon="2.07648">
        <ele>174</ele>
        <time>2020-05-31T07:51:37Z</time>
      </trkpt>
      <trkpt lat="48.61884" lon="2.07645">
        <ele>174</ele>
        <time>2020-05-31T07:51:39Z</time>
      </trkpt>
      <trkpt lat="48.61885" lon="2.07642">
        <ele>175</ele>
        <time>2020-05-31T07:51:41Z</time>
      </trkpt>
      <trkpt lat="48.61887" lon="2.07639">
        <ele>175</ele>
        <time>2020-05-31T07:51:43Z</time>
      </trkpt>
      <trkpt lat="48.61889" lon="2.07636">
        <ele>175</ele>
        <time>2020-05-31T07:51:45Z</time>
      </trkpt>
      <trkpt lat="48.6189" lon="2.07632">
        <ele>175</ele>
        <time>2020-05-31T07:51:47Z</time>
      </trkpt>
      <trkpt lat="48.61891" lon="2.07628">
        <ele>175</ele>
        <time>2020-05-31T07:51:49Z</time>
      </trkpt>
      <trkpt lat="48.61892" lon="2.07624">
        <ele>175</ele>
        <time>2020-05-31T07:51:51Z</time>
      </trkpt>
      <trkpt lat="48.61893" lon="2.0762">
        <ele>175</ele>
        <time>2020-05-31T07:51:53Z</time>
      </trkpt>
      <trkpt lat="48.61895" lon="2.07616">
        <ele>175</ele>
        <time>2020-05-31T07:51:55Z</time>
      </trkpt>
      <trkpt lat="48.61896" lon="2.07614">
        <ele>174</ele>
        <time>2020-05-31T07:51:57Z</time>
      </trkpt>
      <trkpt lat="48.61897" lon="2.0761">
        <ele>174</ele>
        <time>2020-05-31T07:51:59Z</time>
      </trkpt>
      <trkpt lat="48.61898" lon="2.07607">
        <ele>174</ele>
        <time>2020-05-31T07:52:01Z</time>
      </trkpt>
      <trkpt lat="48.619" lon="2.07603">
        <ele>174</ele>
        <time>2020-05-31T07:52:03Z</time>
      </trkpt>
      <trkpt lat="48.61902" lon="2.076">
        <ele>174</ele>
        <time>2020-05-31T07:52:05Z</time>
      </trkpt>
      <trkpt lat="48.61903" lon="2.07597">
        <ele>174</ele>
        <time>2020-05-31T07:52:07Z</time>
      </trkpt>
      <trkpt lat="48.61904" lon="2.07595">
        <ele>175</ele>
        <time>2020-05-31T07:52:09Z</time>
      </trkpt>
      <trkpt lat="48.61905" lon="2.07591">
        <ele>175</ele>
        <time>2020-05-31T07:52:12Z</time>
      </trkpt>
      <trkpt lat="48.61906" lon="2.07587">
        <ele>175</ele>
        <time>2020-05-31T07:52:14Z</time>
      </trkpt>
      <trkpt lat="48.61907" lon="2.07584">
        <ele>175</ele>
        <time>2020-05-31T07:52:16Z</time>
      </trkpt>
      <trkpt lat="48.61908" lon="2.0758">
        <ele>175</ele>
        <time>2020-05-31T07:52:18Z</time>
      </trkpt>
      <trkpt lat="48.61909" lon="2.07575">
        <ele>175</ele>
        <time>2020-05-31T07:52:20Z</time>
      </trkpt>
      <trkpt lat="48.6191" lon="2.07571">
        <ele>174</ele>
        <time>2020-05-31T07:52:22Z</time>
      </trkpt>
      <trkpt lat="48.61911" lon="2.07566">
        <ele>174</ele>
        <time>2020-05-31T07:52:24Z</time>
      </trkpt>
      <trkpt lat="48.61912" lon="2.07563">
        <ele>174</ele>
        <time>2020-05-31T07:52:25Z</time>
      </trkpt>
      <trkpt lat="48.61912" lon="2.07559">
        <ele>174</ele>
        <time>2020-05-31T07:52:27Z</time>
      </trkpt>
      <trkpt lat="48.61913" lon="2.07555">
        <ele>174</ele>
        <time>2020-05-31T07:52:29Z</time>
      </trkpt>
      <trkpt lat="48.61914" lon="2.07552">
        <ele>174</ele>
        <time>2020-05-31T07:52:31Z</time>
      </trkpt>
      <trkpt lat="48.61915" lon="2.07548">
        <ele>174</ele>
        <time>2020-05-31T07:52:33Z</time>
      </trkpt>
      <trkpt lat="48.61916" lon="2.07543">
        <ele>174</ele>
        <time>2020-05-31T07:52:35Z</time>
      </trkpt>
      <trkpt lat="48.61918" lon="2.07539">
        <ele>175</ele>
        <time>2020-05-31T07:52:37Z</time>
      </trkpt>
      <trkpt lat="48.6192" lon="2.07535">
        <ele>175</ele>
        <time>2020-05-31T07:52:39Z</time>
      </trkpt>
      <trkpt lat="48.61921" lon="2.07532">
        <ele>175</ele>
        <time>2020-05-31T07:52:41Z</time>
      </trkpt>
      <trkpt lat="48.61923" lon="2.07528">
        <ele>174</ele>
        <time>2020-05-31T07:52:43Z</time>
      </trkpt>
      <trkpt lat="48.61925" lon="2.07526">
        <ele>174</ele>
        <time>2020-05-31T07:52:44Z</time>
      </trkpt>
      <trkpt lat="48.61927" lon="2.07522">
        <ele>174</ele>
        <time>2020-05-31T07:52:46Z</time>
      </trkpt>
      <trkpt lat="48.61929" lon="2.07519">
        <ele>174</ele>
        <time>2020-05-31T07:52:48Z</time>
      </trkpt>
      <trkpt lat="48.61931" lon="2.07516">
        <ele>173</ele>
        <time>2020-05-31T07:52:50Z</time>
      </trkpt>
      <trkpt lat="48.61933" lon="2.07513">
        <ele>173</ele>
        <time>2020-05-31T07:52:52Z</time>
      </trkpt>
      <trkpt lat="48.61935" lon="2.07509">
        <ele>173</ele>
        <time>2020-05-31T07:52:54Z</time>
      </trkpt>
      <trkpt lat="48.61936" lon="2.07506">
        <ele>173</ele>
        <time>2020-05-31T07:52:56Z</time>
      </trkpt>
      <trkpt lat="48.61938" lon="2.07503">
        <ele>173</ele>
        <time>2020-05-31T07:52:58Z</time>
      </trkpt>
      <trkpt lat="48.61939" lon="2.075">
        <ele>173</ele>
        <time>2020-05-31T07:53:00Z</time>
      </trkpt>
      <trkpt lat="48.61941" lon="2.07498">
        <ele>173</ele>
        <time>2020-05-31T07:53:02Z</time>
      </trkpt>
      <trkpt lat="48.61942" lon="2.07494">
        <ele>173</ele>
        <time>2020-05-31T07:53:04Z</time>
      </trkpt>
      <trkpt lat="48.61942" lon="2.07491">
        <ele>173</ele>
        <time>2020-05-31T07:53:06Z</time>
      </trkpt>
      <trkpt lat="48.61944" lon="2.07488">
        <ele>173</ele>
        <time>2020-05-31T07:53:08Z</time>
      </trkpt>
      <trkpt lat="48.61944" lon="2.07485">
        <ele>173</ele>
        <time>2020-05-31T07:53:10Z</time>
      </trkpt>
      <trkpt lat="48.61945" lon="2.07482">
        <ele>173</ele>
        <time>2020-05-31T07:53:12Z</time>
      </trkpt>
      <trkpt lat="48.61946" lon="2.07478">
        <ele>173</ele>
        <time>2020-05-31T07:53:14Z</time>
      </trkpt>
      <trkpt lat="48.61947" lon="2.07475">
        <ele>173</ele>
        <time>2020-05-31T07:53:16Z</time>
      </trkpt>
      <trkpt lat="48.61947" lon="2.07471">
        <ele>173</ele>
        <time>2020-05-31T07:53:18Z</time>
      </trkpt>
      <trkpt lat="48.61948" lon="2.07468">
        <ele>173</ele>
        <time>2020-05-31T07:53:20Z</time>
      </trkpt>
      <trkpt lat="48.61949" lon="2.07464">
        <ele>173</ele>
        <time>2020-05-31T07:53:22Z</time>
      </trkpt>
      <trkpt lat="48.61951" lon="2.07461">
        <ele>173</ele>
        <time>2020-05-31T07:53:24Z</time>
      </trkpt>
      <trkpt lat="48.61952" lon="2.07457">
        <ele>173</ele>
        <time>2020-05-31T07:53:26Z</time>
      </trkpt>
      <trkpt lat="48.61953" lon="2.07455">
        <ele>173</ele>
        <time>2020-05-31T07:53:28Z</time>
      </trkpt>
      <trkpt lat="48.61955" lon="2.07451">
        <ele>172</ele>
        <time>2020-05-31T07:53:30Z</time>
      </trkpt>
      <trkpt lat="48.61956" lon="2.07449">
        <ele>172</ele>
        <time>2020-05-31T07:53:32Z</time>
      </trkpt>
      <trkpt lat="48.61957" lon="2.07445">
        <ele>172</ele>
        <time>2020-05-31T07:53:34Z</time>
      </trkpt>
      <trkpt lat="48.61958" lon="2.07442">
        <ele>172</ele>
        <time>2020-05-31T07:53:36Z</time>
      </trkpt>
      <trkpt lat="48.61959" lon="2.07438">
        <ele>172</ele>
        <time>2020-05-31T07:53:38Z</time>
      </trkpt>
      <trkpt lat="48.6196" lon="2.07435">
        <ele>172</ele>
        <time>2020-05-31T07:53:40Z</time>
      </trkpt>
      <trkpt lat="48.61961" lon="2.0743">
        <ele>171</ele>
        <time>2020-05-31T07:53:42Z</time>
      </trkpt>
      <trkpt lat="48.61962" lon="2.07426">
        <ele>171</ele>
        <time>2020-05-31T07:53:44Z</time>
      </trkpt>
      <trkpt lat="48.61963" lon="2.07424">
        <ele>171</ele>
        <time>2020-05-31T07:53:46Z</time>
      </trkpt>
      <trkpt lat="48.61965" lon="2.0742">
        <ele>171</ele>
        <time>2020-05-31T07:53:48Z</time>
      </trkpt>
      <trkpt lat="48.61966" lon="2.07415">
        <ele>171</ele>
        <time>2020-05-31T07:53:50Z</time>
      </trkpt>
      <trkpt lat="48.61967" lon="2.07411">
        <ele>171</ele>
        <time>2020-05-31T07:53:52Z</time>
      </trkpt>
      <trkpt lat="48.61968" lon="2.07407">
        <ele>171</ele>
        <time>2020-05-31T07:53:54Z</time>
      </trkpt>
      <trkpt lat="48.61971" lon="2.07403">
        <ele>170</ele>
        <time>2020-05-31T07:53:56Z</time>
      </trkpt>
      <trkpt lat="48.61972" lon="2.07399">
        <ele>170</ele>
        <time>2020-05-31T07:53:58Z</time>
      </trkpt>
      <trkpt lat="48.61973" lon="2.07395">
        <ele>170</ele>
        <time>2020-05-31T07:54:00Z</time>
      </trkpt>
      <trkpt lat="48.61973" lon="2.07392">
        <ele>170</ele>
        <time>2020-05-31T07:54:01Z</time>
      </trkpt>
      <trkpt lat="48.61974" lon="2.07388">
        <ele>170</ele>
        <time>2020-05-31T07:54:03Z</time>
      </trkpt>
      <trkpt lat="48.61977" lon="2.07384">
        <ele>170</ele>
        <time>2020-05-31T07:54:05Z</time>
      </trkpt>
      <trkpt lat="48.61979" lon="2.07381">
        <ele>170</ele>
        <time>2020-05-31T07:54:07Z</time>
      </trkpt>
      <trkpt lat="48.61982" lon="2.07378">
        <ele>169</ele>
        <time>2020-05-31T07:54:09Z</time>
      </trkpt>
      <trkpt lat="48.61984" lon="2.07377">
        <ele>169</ele>
        <time>2020-05-31T07:54:10Z</time>
      </trkpt>
      <trkpt lat="48.61986" lon="2.07374">
        <ele>169</ele>
        <time>2020-05-31T07:54:12Z</time>
      </trkpt>
      <trkpt lat="48.61989" lon="2.07372">
        <ele>169</ele>
        <time>2020-05-31T07:54:14Z</time>
      </trkpt>
      <trkpt lat="48.61992" lon="2.07371">
        <ele>169</ele>
        <time>2020-05-31T07:54:16Z</time>
      </trkpt>
      <trkpt lat="48.61995" lon="2.07369">
        <ele>168</ele>
        <time>2020-05-31T07:54:18Z</time>
      </trkpt>
      <trkpt lat="48.61998" lon="2.07367">
        <ele>168</ele>
        <time>2020-05-31T07:54:20Z</time>
      </trkpt>
      <trkpt lat="48.62001" lon="2.07365">
        <ele>168</ele>
        <time>2020-05-31T07:54:22Z</time>
      </trkpt>
      <trkpt lat="48.62004" lon="2.07364">
        <ele>168</ele>
        <time>2020-05-31T07:54:24Z</time>
      </trkpt>
      <trkpt lat="48.62007" lon="2.07362">
        <ele>169</ele>
        <time>2020-05-31T07:54:26Z</time>
      </trkpt>
      <trkpt lat="48.62009" lon="2.0736">
        <ele>169</ele>
        <time>2020-05-31T07:54:28Z</time>
      </trkpt>
      <trkpt lat="48.62012" lon="2.07359">
        <ele>169</ele>
        <time>2020-05-31T07:54:30Z</time>
      </trkpt>
      <trkpt lat="48.62014" lon="2.07357">
        <ele>169</ele>
        <time>2020-05-31T07:54:32Z</time>
      </trkpt>
      <trkpt lat="48.62017" lon="2.07357">
        <ele>169</ele>
        <time>2020-05-31T07:54:34Z</time>
      </trkpt>
      <trkpt lat="48.6202" lon="2.07357">
        <ele>169</ele>
        <time>2020-05-31T07:54:36Z</time>
      </trkpt>
      <trkpt lat="48.62023" lon="2.07355">
        <ele>169</ele>
        <time>2020-05-31T07:54:38Z</time>
      </trkpt>
      <trkpt lat="48.62025" lon="2.07354">
        <ele>170</ele>
        <time>2020-05-31T07:54:40Z</time>
      </trkpt>
      <trkpt lat="48.62028" lon="2.07353">
        <ele>170</ele>
        <time>2020-05-31T07:54:42Z</time>
      </trkpt>
      <trkpt lat="48.62031" lon="2.07352">
        <ele>170</ele>
        <time>2020-05-31T07:54:44Z</time>
      </trkpt>
      <trkpt lat="48.62034" lon="2.07351">
        <ele>170</ele>
        <time>2020-05-31T07:54:46Z</time>
      </trkpt>
      <trkpt lat="48.62037" lon="2.0735">
        <ele>170</ele>
        <time>2020-05-31T07:54:48Z</time>
      </trkpt>
      <trkpt lat="48.62039" lon="2.07348">
        <ele>170</ele>
        <time>2020-05-31T07:54:50Z</time>
      </trkpt>
      <trkpt lat="48.62042" lon="2.07347">
        <ele>171</ele>
        <time>2020-05-31T07:54:52Z</time>
      </trkpt>
      <trkpt lat="48.62045" lon="2.07346">
        <ele>171</ele>
        <time>2020-05-31T07:54:54Z</time>
      </trkpt>
      <trkpt lat="48.62048" lon="2.07346">
        <ele>171</ele>
        <time>2020-05-31T07:54:56Z</time>
      </trkpt>
      <trkpt lat="48.62052" lon="2.07345">
        <ele>171</ele>
        <time>2020-05-31T07:54:58Z</time>
      </trkpt>
      <trkpt lat="48.62054" lon="2.07343">
        <ele>171</ele>
        <time>2020-05-31T07:55:00Z</time>
      </trkpt>
      <trkpt lat="48.62057" lon="2.07341">
        <ele>171</ele>
        <time>2020-05-31T07:55:02Z</time>
      </trkpt>
      <trkpt lat="48.62061" lon="2.0734">
        <ele>171</ele>
        <time>2020-05-31T07:55:04Z</time>
      </trkpt>
      <trkpt lat="48.62064" lon="2.07339">
        <ele>171</ele>
        <time>2020-05-31T07:55:06Z</time>
      </trkpt>
      <trkpt lat="48.62066" lon="2.07338">
        <ele>171</ele>
        <time>2020-05-31T07:55:08Z</time>
      </trkpt>
      <trkpt lat="48.62069" lon="2.07337">
        <ele>171</ele>
        <time>2020-05-31T07:55:10Z</time>
      </trkpt>
      <trkpt lat="48.62072" lon="2.07336">
        <ele>171</ele>
        <time>2020-05-31T07:55:12Z</time>
      </trkpt>
      <trkpt lat="48.62074" lon="2.07335">
        <ele>171</ele>
        <time>2020-05-31T07:55:14Z</time>
      </trkpt>
      <trkpt lat="48.62077" lon="2.07333">
        <ele>172</ele>
        <time>2020-05-31T07:55:16Z</time>
      </trkpt>
      <trkpt lat="48.6208" lon="2.07332">
        <ele>172</ele>
        <time>2020-05-31T07:55:18Z</time>
      </trkpt>
      <trkpt lat="48.62084" lon="2.07332">
        <ele>172</ele>
        <time>2020-05-31T07:55:20Z</time>
      </trkpt>
      <trkpt lat="48.62087" lon="2.07331">
        <ele>172</ele>
        <time>2020-05-31T07:55:22Z</time>
      </trkpt>
      <trkpt lat="48.62089" lon="2.07331">
        <ele>172</ele>
        <time>2020-05-31T07:55:23Z</time>
      </trkpt>
      <trkpt lat="48.62093" lon="2.0733">
        <ele>172</ele>
        <time>2020-05-31T07:55:25Z</time>
      </trkpt>
      <trkpt lat="48.62096" lon="2.07328">
        <ele>173</ele>
        <time>2020-05-31T07:55:27Z</time>
      </trkpt>
      <trkpt lat="48.62097" lon="2.07327">
        <ele>173</ele>
        <time>2020-05-31T07:55:28Z</time>
      </trkpt>
      <trkpt lat="48.621" lon="2.07326">
        <ele>173</ele>
        <time>2020-05-31T07:55:30Z</time>
      </trkpt>
      <trkpt lat="48.62103" lon="2.07323">
        <ele>173</ele>
        <time>2020-05-31T07:55:32Z</time>
      </trkpt>
      <trkpt lat="48.62104" lon="2.07322">
        <ele>173</ele>
        <time>2020-05-31T07:55:34Z</time>
      </trkpt>
      <trkpt lat="48.62107" lon="2.0732">
        <ele>173</ele>
        <time>2020-05-31T07:55:36Z</time>
      </trkpt>
      <trkpt lat="48.62109" lon="2.07321">
        <ele>174</ele>
        <time>2020-05-31T07:55:38Z</time>
      </trkpt>
      <trkpt lat="48.62112" lon="2.07321">
        <ele>175</ele>
        <time>2020-05-31T07:55:40Z</time>
      </trkpt>
      <trkpt lat="48.62115" lon="2.0732">
        <ele>175</ele>
        <time>2020-05-31T07:55:42Z</time>
      </trkpt>
      <trkpt lat="48.62118" lon="2.07321">
        <ele>175</ele>
        <time>2020-05-31T07:55:44Z</time>
      </trkpt>
      <trkpt lat="48.62121" lon="2.07322">
        <ele>175</ele>
        <time>2020-05-31T07:55:46Z</time>
      </trkpt>
      <trkpt lat="48.62124" lon="2.07322">
        <ele>175</ele>
        <time>2020-05-31T07:55:48Z</time>
      </trkpt>
      <trkpt lat="48.62126" lon="2.07322">
        <ele>175</ele>
        <time>2020-05-31T07:55:49Z</time>
      </trkpt>
      <trkpt lat="48.6213" lon="2.07322">
        <ele>175</ele>
        <time>2020-05-31T07:55:51Z</time>
      </trkpt>
      <trkpt lat="48.62133" lon="2.07323">
        <ele>174</ele>
        <time>2020-05-31T07:55:53Z</time>
      </trkpt>
      <trkpt lat="48.62135" lon="2.07323">
        <ele>174</ele>
        <time>2020-05-31T07:55:54Z</time>
      </trkpt>
      <trkpt lat="48.62137" lon="2.07324">
        <ele>175</ele>
        <time>2020-05-31T07:55:55Z</time>
      </trkpt>
      <trkpt lat="48.62141" lon="2.07325">
        <ele>175</ele>
        <time>2020-05-31T07:55:57Z</time>
      </trkpt>
      <trkpt lat="48.62142" lon="2.07325">
        <ele>175</ele>
        <time>2020-05-31T07:55:58Z</time>
      </trkpt>
      <trkpt lat="48.62146" lon="2.07325">
        <ele>175</ele>
        <time>2020-05-31T07:56:00Z</time>
      </trkpt>
      <trkpt lat="48.62148" lon="2.07325">
        <ele>175</ele>
        <time>2020-05-31T07:56:01Z</time>
      </trkpt>
      <trkpt lat="48.62151" lon="2.07327">
        <ele>175</ele>
        <time>2020-05-31T07:56:03Z</time>
      </trkpt>
      <trkpt lat="48.62154" lon="2.07328">
        <ele>175</ele>
        <time>2020-05-31T07:56:05Z</time>
      </trkpt>
      <trkpt lat="48.62157" lon="2.07329">
        <ele>175</ele>
        <time>2020-05-31T07:56:07Z</time>
      </trkpt>
      <trkpt lat="48.62159" lon="2.0733">
        <ele>175</ele>
        <time>2020-05-31T07:56:08Z</time>
      </trkpt>
      <trkpt lat="48.62161" lon="2.07331">
        <ele>175</ele>
        <time>2020-05-31T07:56:09Z</time>
      </trkpt>
      <trkpt lat="48.62163" lon="2.07332">
        <ele>175</ele>
        <time>2020-05-31T07:56:10Z</time>
      </trkpt>
      <trkpt lat="48.62166" lon="2.07333">
        <ele>175</ele>
        <time>2020-05-31T07:56:12Z</time>
      </trkpt>
      <trkpt lat="48.62168" lon="2.07335">
        <ele>175</ele>
        <time>2020-05-31T07:56:13Z</time>
      </trkpt>
      <trkpt lat="48.6217" lon="2.07336">
        <ele>174</ele>
        <time>2020-05-31T07:56:14Z</time>
      </trkpt>
      <trkpt lat="48.62172" lon="2.07337">
        <ele>174</ele>
        <time>2020-05-31T07:56:15Z</time>
      </trkpt>
      <trkpt lat="48.62174" lon="2.07339">
        <ele>174</ele>
        <time>2020-05-31T07:56:16Z</time>
      </trkpt>
      <trkpt lat="48.62176" lon="2.0734">
        <ele>174</ele>
        <time>2020-05-31T07:56:17Z</time>
      </trkpt>
      <trkpt lat="48.62179" lon="2.07342">
        <ele>174</ele>
        <time>2020-05-31T07:56:19Z</time>
      </trkpt>
      <trkpt lat="48.62181" lon="2.07344">
        <ele>174</ele>
        <time>2020-05-31T07:56:21Z</time>
      </trkpt>
      <trkpt lat="48.62185" lon="2.07346">
        <ele>174</ele>
        <time>2020-05-31T07:56:23Z</time>
      </trkpt>
      <trkpt lat="48.62188" lon="2.07349">
        <ele>173</ele>
        <time>2020-05-31T07:56:25Z</time>
      </trkpt>
      <trkpt lat="48.62191" lon="2.07351">
        <ele>173</ele>
        <time>2020-05-31T07:56:27Z</time>
      </trkpt>
      <trkpt lat="48.62194" lon="2.07353">
        <ele>173</ele>
        <time>2020-05-31T07:56:29Z</time>
      </trkpt>
      <trkpt lat="48.62196" lon="2.07355">
        <ele>173</ele>
        <time>2020-05-31T07:56:31Z</time>
      </trkpt>
      <trkpt lat="48.62198" lon="2.07357">
        <ele>173</ele>
        <time>2020-05-31T07:56:33Z</time>
      </trkpt>
      <trkpt lat="48.62201" lon="2.07359">
        <ele>172</ele>
        <time>2020-05-31T07:56:35Z</time>
      </trkpt>
      <trkpt lat="48.62203" lon="2.07362">
        <ele>172</ele>
        <time>2020-05-31T07:56:37Z</time>
      </trkpt>
      <trkpt lat="48.62205" lon="2.07364">
        <ele>172</ele>
        <time>2020-05-31T07:56:39Z</time>
      </trkpt>
      <trkpt lat="48.62207" lon="2.07365">
        <ele>172</ele>
        <time>2020-05-31T07:56:41Z</time>
      </trkpt>
      <trkpt lat="48.6221" lon="2.07367">
        <ele>171</ele>
        <time>2020-05-31T07:56:43Z</time>
      </trkpt>
      <trkpt lat="48.62212" lon="2.0737">
        <ele>171</ele>
        <time>2020-05-31T07:56:45Z</time>
      </trkpt>
      <trkpt lat="48.62216" lon="2.07371">
        <ele>171</ele>
        <time>2020-05-31T07:56:47Z</time>
      </trkpt>
      <trkpt lat="48.62219" lon="2.07373">
        <ele>171</ele>
        <time>2020-05-31T07:56:49Z</time>
      </trkpt>
      <trkpt lat="48.62222" lon="2.07375">
        <ele>171</ele>
        <time>2020-05-31T07:56:51Z</time>
      </trkpt>
      <trkpt lat="48.62225" lon="2.07377">
        <ele>170</ele>
        <time>2020-05-31T07:56:53Z</time>
      </trkpt>
      <trkpt lat="48.62226" lon="2.07379">
        <ele>169</ele>
        <time>2020-05-31T07:56:54Z</time>
      </trkpt>
      <trkpt lat="48.62228" lon="2.07381">
        <ele>169</ele>
        <time>2020-05-31T07:56:55Z</time>
      </trkpt>
      <trkpt lat="48.6223" lon="2.07381">
        <ele>169</ele>
        <time>2020-05-31T07:56:56Z</time>
      </trkpt>
      <trkpt lat="48.62232" lon="2.07382">
        <ele>168</ele>
        <time>2020-05-31T07:56:57Z</time>
      </trkpt>
      <trkpt lat="48.62234" lon="2.07382">
        <ele>167</ele>
        <time>2020-05-31T07:56:58Z</time>
      </trkpt>
      <trkpt lat="48.62236" lon="2.07383">
        <ele>167</ele>
        <time>2020-05-31T07:56:59Z</time>
      </trkpt>
      <trkpt lat="48.62239" lon="2.07385">
        <ele>166</ele>
        <time>2020-05-31T07:57:01Z</time>
      </trkpt>
      <trkpt lat="48.62242" lon="2.07386">
        <ele>165</ele>
        <time>2020-05-31T07:57:03Z</time>
      </trkpt>
      <trkpt lat="48.62245" lon="2.07386">
        <ele>165</ele>
        <time>2020-05-31T07:57:05Z</time>
      </trkpt>
      <trkpt lat="48.62248" lon="2.07386">
        <ele>164</ele>
        <time>2020-05-31T07:57:07Z</time>
      </trkpt>
      <trkpt lat="48.62248" lon="2.0739">
        <ele>163</ele>
        <time>2020-05-31T07:57:10Z</time>
      </trkpt>
      <trkpt lat="48.62246" lon="2.07392">
        <ele>161</ele>
        <time>2020-05-31T07:57:17Z</time>
      </trkpt>
      <trkpt lat="48.62248" lon="2.07391">
        <ele>161</ele>
        <time>2020-05-31T07:57:21Z</time>
      </trkpt>
      <trkpt lat="48.6225" lon="2.0739">
        <ele>161</ele>
        <time>2020-05-31T07:57:23Z</time>
      </trkpt>
      <trkpt lat="48.62252" lon="2.07389">
        <ele>160</ele>
        <time>2020-05-31T07:57:25Z</time>
      </trkpt>
      <trkpt lat="48.62255" lon="2.07388">
        <ele>160</ele>
        <time>2020-05-31T07:57:27Z</time>
      </trkpt>
      <trkpt lat="48.62258" lon="2.07387">
        <ele>160</ele>
        <time>2020-05-31T07:57:29Z</time>
      </trkpt>
      <trkpt lat="48.62261" lon="2.07385">
        <ele>160</ele>
        <time>2020-05-31T07:57:31Z</time>
      </trkpt>
      <trkpt lat="48.62263" lon="2.07385">
        <ele>159</ele>
        <time>2020-05-31T07:57:32Z</time>
      </trkpt>
      <trkpt lat="48.62265" lon="2.07384">
        <ele>159</ele>
        <time>2020-05-31T07:57:33Z</time>
      </trkpt>
      <trkpt lat="48.62268" lon="2.07383">
        <ele>159</ele>
        <time>2020-05-31T07:57:35Z</time>
      </trkpt>
      <trkpt lat="48.62271" lon="2.07381">
        <ele>159</ele>
        <time>2020-05-31T07:57:37Z</time>
      </trkpt>
      <trkpt lat="48.62273" lon="2.0738">
        <ele>159</ele>
        <time>2020-05-31T07:57:39Z</time>
      </trkpt>
      <trkpt lat="48.62277" lon="2.07378">
        <ele>158</ele>
        <time>2020-05-31T07:57:41Z</time>
      </trkpt>
      <trkpt lat="48.62279" lon="2.07376">
        <ele>158</ele>
        <time>2020-05-31T07:57:43Z</time>
      </trkpt>
      <trkpt lat="48.62282" lon="2.07374">
        <ele>158</ele>
        <time>2020-05-31T07:57:45Z</time>
      </trkpt>
      <trkpt lat="48.62285" lon="2.07373">
        <ele>158</ele>
        <time>2020-05-31T07:57:47Z</time>
      </trkpt>
      <trkpt lat="48.62288" lon="2.07372">
        <ele>158</ele>
        <time>2020-05-31T07:57:49Z</time>
      </trkpt>
      <trkpt lat="48.62291" lon="2.07373">
        <ele>157</ele>
        <time>2020-05-31T07:57:51Z</time>
      </trkpt>
      <trkpt lat="48.62293" lon="2.07374">
        <ele>157</ele>
        <time>2020-05-31T07:57:52Z</time>
      </trkpt>
      <trkpt lat="48.62295" lon="2.07374">
        <ele>157</ele>
        <time>2020-05-31T07:57:53Z</time>
      </trkpt>
      <trkpt lat="48.62297" lon="2.07376">
        <ele>156</ele>
        <time>2020-05-31T07:57:54Z</time>
      </trkpt>
      <trkpt lat="48.62299" lon="2.07377">
        <ele>156</ele>
        <time>2020-05-31T07:57:55Z</time>
      </trkpt>
      <trkpt lat="48.62302" lon="2.07379">
        <ele>156</ele>
        <time>2020-05-31T07:57:57Z</time>
      </trkpt>
      <trkpt lat="48.62303" lon="2.07381">
        <ele>156</ele>
        <time>2020-05-31T07:57:58Z</time>
      </trkpt>
      <trkpt lat="48.62305" lon="2.07382">
        <ele>156</ele>
        <time>2020-05-31T07:57:59Z</time>
      </trkpt>
      <trkpt lat="48.62306" lon="2.07383">
        <ele>156</ele>
        <time>2020-05-31T07:58:00Z</time>
      </trkpt>
      <trkpt lat="48.6231" lon="2.07386">
        <ele>155</ele>
        <time>2020-05-31T07:58:02Z</time>
      </trkpt>
      <trkpt lat="48.62312" lon="2.07389">
        <ele>155</ele>
        <time>2020-05-31T07:58:04Z</time>
      </trkpt>
      <trkpt lat="48.62315" lon="2.07392">
        <ele>155</ele>
        <time>2020-05-31T07:58:06Z</time>
      </trkpt>
      <trkpt lat="48.62318" lon="2.07394">
        <ele>155</ele>
        <time>2020-05-31T07:58:08Z</time>
      </trkpt>
      <trkpt lat="48.62321" lon="2.07397">
        <ele>155</ele>
        <time>2020-05-31T07:58:10Z</time>
      </trkpt>
      <trkpt lat="48.62323" lon="2.074">
        <ele>155</ele>
        <time>2020-05-31T07:58:12Z</time>
      </trkpt>
      <trkpt lat="48.62326" lon="2.07403">
        <ele>155</ele>
        <time>2020-05-31T07:58:14Z</time>
      </trkpt>
      <trkpt lat="48.62329" lon="2.07405">
        <ele>155</ele>
        <time>2020-05-31T07:58:16Z</time>
      </trkpt>
      <trkpt lat="48.62331" lon="2.07408">
        <ele>155</ele>
        <time>2020-05-31T07:58:18Z</time>
      </trkpt>
      <trkpt lat="48.62333" lon="2.07411">
        <ele>155</ele>
        <time>2020-05-31T07:58:20Z</time>
      </trkpt>
      <trkpt lat="48.62336" lon="2.07415">
        <ele>155</ele>
        <time>2020-05-31T07:58:22Z</time>
      </trkpt>
      <trkpt lat="48.62338" lon="2.07418">
        <ele>155</ele>
        <time>2020-05-31T07:58:24Z</time>
      </trkpt>
      <trkpt lat="48.6234" lon="2.07421">
        <ele>155</ele>
        <time>2020-05-31T07:58:26Z</time>
      </trkpt>
      <trkpt lat="48.62343" lon="2.07424">
        <ele>156</ele>
        <time>2020-05-31T07:58:28Z</time>
      </trkpt>
      <trkpt lat="48.62346" lon="2.07427">
        <ele>156</ele>
        <time>2020-05-31T07:58:30Z</time>
      </trkpt>
      <trkpt lat="48.62348" lon="2.0743">
        <ele>156</ele>
        <time>2020-05-31T07:58:32Z</time>
      </trkpt>
      <trkpt lat="48.6235" lon="2.07433">
        <ele>156</ele>
        <time>2020-05-31T07:58:34Z</time>
      </trkpt>
      <trkpt lat="48.62353" lon="2.07435">
        <ele>156</ele>
        <time>2020-05-31T07:58:36Z</time>
      </trkpt>
      <trkpt lat="48.62355" lon="2.07437">
        <ele>156</ele>
        <time>2020-05-31T07:58:38Z</time>
      </trkpt>
      <trkpt lat="48.62358" lon="2.07439">
        <ele>156</ele>
        <time>2020-05-31T07:58:40Z</time>
      </trkpt>
      <trkpt lat="48.62361" lon="2.07441">
        <ele>157</ele>
        <time>2020-05-31T07:58:42Z</time>
      </trkpt>
      <trkpt lat="48.62363" lon="2.07444">
        <ele>157</ele>
        <time>2020-05-31T07:58:44Z</time>
      </trkpt>
      <trkpt lat="48.62366" lon="2.07445">
        <ele>157</ele>
        <time>2020-05-31T07:58:46Z</time>
      </trkpt>
      <trkpt lat="48.62368" lon="2.07448">
        <ele>157</ele>
        <time>2020-05-31T07:58:48Z</time>
      </trkpt>
      <trkpt lat="48.62371" lon="2.0745">
        <ele>157</ele>
        <time>2020-05-31T07:58:50Z</time>
      </trkpt>
      <trkpt lat="48.62373" lon="2.07453">
        <ele>157</ele>
        <time>2020-05-31T07:58:52Z</time>
      </trkpt>
      <trkpt lat="48.62376" lon="2.07455">
        <ele>158</ele>
        <time>2020-05-31T07:58:54Z</time>
      </trkpt>
      <trkpt lat="48.62379" lon="2.07458">
        <ele>158</ele>
        <time>2020-05-31T07:58:56Z</time>
      </trkpt>
      <trkpt lat="48.62381" lon="2.07461">
        <ele>158</ele>
        <time>2020-05-31T07:58:58Z</time>
      </trkpt>
      <trkpt lat="48.62384" lon="2.07463">
        <ele>158</ele>
        <time>2020-05-31T07:59:00Z</time>
      </trkpt>
      <trkpt lat="48.62388" lon="2.07465">
        <ele>158</ele>
        <time>2020-05-31T07:59:02Z</time>
      </trkpt>
      <trkpt lat="48.6239" lon="2.07466">
        <ele>159</ele>
        <time>2020-05-31T07:59:04Z</time>
      </trkpt>
      <trkpt lat="48.62394" lon="2.07467">
        <ele>159</ele>
        <time>2020-05-31T07:59:06Z</time>
      </trkpt>
      <trkpt lat="48.62397" lon="2.07467">
        <ele>159</ele>
        <time>2020-05-31T07:59:08Z</time>
      </trkpt>
      <trkpt lat="48.62399" lon="2.07467">
        <ele>159</ele>
        <time>2020-05-31T07:59:10Z</time>
      </trkpt>
      <trkpt lat="48.62402" lon="2.07467">
        <ele>159</ele>
        <time>2020-05-31T07:59:12Z</time>
      </trkpt>
      <trkpt lat="48.62405" lon="2.07467">
        <ele>159</ele>
        <time>2020-05-31T07:59:14Z</time>
      </trkpt>
      <trkpt lat="48.62407" lon="2.07467">
        <ele>160</ele>
        <time>2020-05-31T07:59:16Z</time>
      </trkpt>
      <trkpt lat="48.6241" lon="2.07466">
        <ele>160</ele>
        <time>2020-05-31T07:59:18Z</time>
      </trkpt>
      <trkpt lat="48.62412" lon="2.07466">
        <ele>160</ele>
        <time>2020-05-31T07:59:20Z</time>
      </trkpt>
      <trkpt lat="48.62414" lon="2.07467">
        <ele>160</ele>
        <time>2020-05-31T07:59:22Z</time>
      </trkpt>
      <trkpt lat="48.62417" lon="2.07469">
        <ele>160</ele>
        <time>2020-05-31T07:59:24Z</time>
      </trkpt>
      <trkpt lat="48.62419" lon="2.07471">
        <ele>160</ele>
        <time>2020-05-31T07:59:26Z</time>
      </trkpt>
      <trkpt lat="48.62421" lon="2.07472">
        <ele>160</ele>
        <time>2020-05-31T07:59:28Z</time>
      </trkpt>
      <trkpt lat="48.62423" lon="2.07474">
        <ele>160</ele>
        <time>2020-05-31T07:59:30Z</time>
      </trkpt>
      <trkpt lat="48.62426" lon="2.07475">
        <ele>160</ele>
        <time>2020-05-31T07:59:32Z</time>
      </trkpt>
      <trkpt lat="48.62429" lon="2.07476">
        <ele>160</ele>
        <time>2020-05-31T07:59:34Z</time>
      </trkpt>
      <trkpt lat="48.62432" lon="2.07477">
        <ele>160</ele>
        <time>2020-05-31T07:59:36Z</time>
      </trkpt>
      <trkpt lat="48.62434" lon="2.07478">
        <ele>160</ele>
        <time>2020-05-31T07:59:38Z</time>
      </trkpt>
      <trkpt lat="48.62437" lon="2.0748">
        <ele>160</ele>
        <time>2020-05-31T07:59:40Z</time>
      </trkpt>
      <trkpt lat="48.62439" lon="2.07481">
        <ele>160</ele>
        <time>2020-05-31T07:59:42Z</time>
      </trkpt>
      <trkpt lat="48.62441" lon="2.07481">
        <ele>160</ele>
        <time>2020-05-31T07:59:44Z</time>
      </trkpt>
      <trkpt lat="48.62444" lon="2.07482">
        <ele>161</ele>
        <time>2020-05-31T07:59:46Z</time>
      </trkpt>
      <trkpt lat="48.62446" lon="2.07483">
        <ele>161</ele>
        <time>2020-05-31T07:59:48Z</time>
      </trkpt>
      <trkpt lat="48.62449" lon="2.07484">
        <ele>161</ele>
        <time>2020-05-31T07:59:50Z</time>
      </trkpt>
      <trkpt lat="48.62451" lon="2.07486">
        <ele>161</ele>
        <time>2020-05-31T07:59:52Z</time>
      </trkpt>
      <trkpt lat="48.62454" lon="2.07487">
        <ele>161</ele>
        <time>2020-05-31T07:59:54Z</time>
      </trkpt>
      <trkpt lat="48.62457" lon="2.07488">
        <ele>161</ele>
        <time>2020-05-31T07:59:56Z</time>
      </trkpt>
      <trkpt lat="48.62459" lon="2.07489">
        <ele>161</ele>
        <time>2020-05-31T07:59:58Z</time>
      </trkpt>
      <trkpt lat="48.62462" lon="2.07489">
        <ele>161</ele>
        <time>2020-05-31T08:00:00Z</time>
      </trkpt>
      <trkpt lat="48.62465" lon="2.0749">
        <ele>161</ele>
        <time>2020-05-31T08:00:02Z</time>
      </trkpt>
      <trkpt lat="48.62467" lon="2.0749">
        <ele>162</ele>
        <time>2020-05-31T08:00:04Z</time>
      </trkpt>
      <trkpt lat="48.6247" lon="2.0749">
        <ele>162</ele>
        <time>2020-05-31T08:00:06Z</time>
      </trkpt>
      <trkpt lat="48.62472" lon="2.0749">
        <ele>162</ele>
        <time>2020-05-31T08:00:08Z</time>
      </trkpt>
      <trkpt lat="48.62475" lon="2.0749">
        <ele>162</ele>
        <time>2020-05-31T08:00:10Z</time>
      </trkpt>
      <trkpt lat="48.62477" lon="2.0749">
        <ele>162</ele>
        <time>2020-05-31T08:00:12Z</time>
      </trkpt>
      <trkpt lat="48.62479" lon="2.07489">
        <ele>162</ele>
        <time>2020-05-31T08:00:14Z</time>
      </trkpt>
      <trkpt lat="48.62482" lon="2.07489">
        <ele>162</ele>
        <time>2020-05-31T08:00:16Z</time>
      </trkpt>
      <trkpt lat="48.62484" lon="2.07489">
        <ele>162</ele>
        <time>2020-05-31T08:00:18Z</time>
      </trkpt>
      <trkpt lat="48.62487" lon="2.07489">
        <ele>161</ele>
        <time>2020-05-31T08:00:20Z</time>
      </trkpt>
      <trkpt lat="48.62489" lon="2.07488">
        <ele>161</ele>
        <time>2020-05-31T08:00:22Z</time>
      </trkpt>
      <trkpt lat="48.62493" lon="2.07489">
        <ele>161</ele>
        <time>2020-05-31T08:00:24Z</time>
      </trkpt>
      <trkpt lat="48.62496" lon="2.0749">
        <ele>161</ele>
        <time>2020-05-31T08:00:26Z</time>
      </trkpt>
      <trkpt lat="48.62498" lon="2.0749">
        <ele>160</ele>
        <time>2020-05-31T08:00:28Z</time>
      </trkpt>
      <trkpt lat="48.62501" lon="2.0749">
        <ele>160</ele>
        <time>2020-05-31T08:00:30Z</time>
      </trkpt>
      <trkpt lat="48.62503" lon="2.07491">
        <ele>160</ele>
        <time>2020-05-31T08:00:32Z</time>
      </trkpt>
      <trkpt lat="48.62506" lon="2.07492">
        <ele>160</ele>
        <time>2020-05-31T08:00:34Z</time>
      </trkpt>
      <trkpt lat="48.62508" lon="2.07493">
        <ele>160</ele>
        <time>2020-05-31T08:00:36Z</time>
      </trkpt>
      <trkpt lat="48.6251" lon="2.07493">
        <ele>160</ele>
        <time>2020-05-31T08:00:38Z</time>
      </trkpt>
      <trkpt lat="48.62513" lon="2.07494">
        <ele>160</ele>
        <time>2020-05-31T08:00:40Z</time>
      </trkpt>
      <trkpt lat="48.62515" lon="2.07495">
        <ele>160</ele>
        <time>2020-05-31T08:00:42Z</time>
      </trkpt>
      <trkpt lat="48.62518" lon="2.07496">
        <ele>160</ele>
        <time>2020-05-31T08:00:44Z</time>
      </trkpt>
      <trkpt lat="48.6252" lon="2.07497">
        <ele>160</ele>
        <time>2020-05-31T08:00:46Z</time>
      </trkpt>
      <trkpt lat="48.62523" lon="2.07497">
        <ele>161</ele>
        <time>2020-05-31T08:00:48Z</time>
      </trkpt>
      <trkpt lat="48.62525" lon="2.07497">
        <ele>161</ele>
        <time>2020-05-31T08:00:50Z</time>
      </trkpt>
      <trkpt lat="48.62528" lon="2.07498">
        <ele>161</ele>
        <time>2020-05-31T08:00:52Z</time>
      </trkpt>
      <trkpt lat="48.62531" lon="2.07498">
        <ele>160</ele>
        <time>2020-05-31T08:00:54Z</time>
      </trkpt>
      <trkpt lat="48.62533" lon="2.07497">
        <ele>160</ele>
        <time>2020-05-31T08:00:56Z</time>
      </trkpt>
      <trkpt lat="48.62535" lon="2.07496">
        <ele>160</ele>
        <time>2020-05-31T08:00:58Z</time>
      </trkpt>
      <trkpt lat="48.62538" lon="2.07495">
        <ele>160</ele>
        <time>2020-05-31T08:01:00Z</time>
      </trkpt>
      <trkpt lat="48.6254" lon="2.07494">
        <ele>160</ele>
        <time>2020-05-31T08:01:02Z</time>
      </trkpt>
      <trkpt lat="48.62542" lon="2.07493">
        <ele>160</ele>
        <time>2020-05-31T08:01:04Z</time>
      </trkpt>
      <trkpt lat="48.62544" lon="2.07491">
        <ele>160</ele>
        <time>2020-05-31T08:01:06Z</time>
      </trkpt>
      <trkpt lat="48.62547" lon="2.0749">
        <ele>160</ele>
        <time>2020-05-31T08:01:08Z</time>
      </trkpt>
      <trkpt lat="48.62549" lon="2.07488">
        <ele>160</ele>
        <time>2020-05-31T08:01:10Z</time>
      </trkpt>
      <trkpt lat="48.62551" lon="2.07486">
        <ele>160</ele>
        <time>2020-05-31T08:01:12Z</time>
      </trkpt>
      <trkpt lat="48.62553" lon="2.07484">
        <ele>160</ele>
        <time>2020-05-31T08:01:14Z</time>
      </trkpt>
      <trkpt lat="48.62555" lon="2.07481">
        <ele>160</ele>
        <time>2020-05-31T08:01:16Z</time>
      </trkpt>
      <trkpt lat="48.62557" lon="2.07478">
        <ele>160</ele>
        <time>2020-05-31T08:01:18Z</time>
      </trkpt>
      <trkpt lat="48.62559" lon="2.07476">
        <ele>160</ele>
        <time>2020-05-31T08:01:20Z</time>
      </trkpt>
      <trkpt lat="48.6256" lon="2.07473">
        <ele>160</ele>
        <time>2020-05-31T08:01:22Z</time>
      </trkpt>
      <trkpt lat="48.62562" lon="2.0747">
        <ele>160</ele>
        <time>2020-05-31T08:01:24Z</time>
      </trkpt>
      <trkpt lat="48.62563" lon="2.07467">
        <ele>160</ele>
        <time>2020-05-31T08:01:26Z</time>
      </trkpt>
      <trkpt lat="48.62564" lon="2.07463">
        <ele>159</ele>
        <time>2020-05-31T08:01:28Z</time>
      </trkpt>
      <trkpt lat="48.62565" lon="2.0746">
        <ele>159</ele>
        <time>2020-05-31T08:01:30Z</time>
      </trkpt>
      <trkpt lat="48.62566" lon="2.07457">
        <ele>160</ele>
        <time>2020-05-31T08:01:32Z</time>
      </trkpt>
      <trkpt lat="48.62567" lon="2.07453">
        <ele>160</ele>
        <time>2020-05-31T08:01:34Z</time>
      </trkpt>
      <trkpt lat="48.62568" lon="2.0745">
        <ele>160</ele>
        <time>2020-05-31T08:01:36Z</time>
      </trkpt>
      <trkpt lat="48.62569" lon="2.07446">
        <ele>159</ele>
        <time>2020-05-31T08:01:38Z</time>
      </trkpt>
      <trkpt lat="48.6257" lon="2.07443">
        <ele>159</ele>
        <time>2020-05-31T08:01:40Z</time>
      </trkpt>
      <trkpt lat="48.62571" lon="2.07439">
        <ele>159</ele>
        <time>2020-05-31T08:01:42Z</time>
      </trkpt>
      <trkpt lat="48.62572" lon="2.07435">
        <ele>159</ele>
        <time>2020-05-31T08:01:44Z</time>
      </trkpt>
      <trkpt lat="48.62572" lon="2.07432">
        <ele>159</ele>
        <time>2020-05-31T08:01:46Z</time>
      </trkpt>
      <trkpt lat="48.62573" lon="2.07428">
        <ele>159</ele>
        <time>2020-05-31T08:01:48Z</time>
      </trkpt>
      <trkpt lat="48.62574" lon="2.07424">
        <ele>159</ele>
        <time>2020-05-31T08:01:50Z</time>
      </trkpt>
      <trkpt lat="48.62574" lon="2.07421">
        <ele>160</ele>
        <time>2020-05-31T08:01:52Z</time>
      </trkpt>
      <trkpt lat="48.62575" lon="2.07417">
        <ele>160</ele>
        <time>2020-05-31T08:01:54Z</time>
      </trkpt>
      <trkpt lat="48.62575" lon="2.07414">
        <ele>160</ele>
        <time>2020-05-31T08:01:56Z</time>
      </trkpt>
      <trkpt lat="48.62576" lon="2.0741">
        <ele>160</ele>
        <time>2020-05-31T08:01:58Z</time>
      </trkpt>
      <trkpt lat="48.62577" lon="2.07407">
        <ele>160</ele>
        <time>2020-05-31T08:02:00Z</time>
      </trkpt>
      <trkpt lat="48.62578" lon="2.07403">
        <ele>160</ele>
        <time>2020-05-31T08:02:02Z</time>
      </trkpt>
      <trkpt lat="48.62579" lon="2.07399">
        <ele>160</ele>
        <time>2020-05-31T08:02:04Z</time>
      </trkpt>
      <trkpt lat="48.6258" lon="2.07396">
        <ele>160</ele>
        <time>2020-05-31T08:02:06Z</time>
      </trkpt>
      <trkpt lat="48.62581" lon="2.07392">
        <ele>160</ele>
        <time>2020-05-31T08:02:08Z</time>
      </trkpt>
      <trkpt lat="48.62582" lon="2.07389">
        <ele>160</ele>
        <time>2020-05-31T08:02:10Z</time>
      </trkpt>
      <trkpt lat="48.62583" lon="2.07386">
        <ele>159</ele>
        <time>2020-05-31T08:02:12Z</time>
      </trkpt>
      <trkpt lat="48.62584" lon="2.07383">
        <ele>159</ele>
        <time>2020-05-31T08:02:14Z</time>
      </trkpt>
      <trkpt lat="48.62586" lon="2.0738">
        <ele>159</ele>
        <time>2020-05-31T08:02:16Z</time>
      </trkpt>
      <trkpt lat="48.62587" lon="2.07377">
        <ele>159</ele>
        <time>2020-05-31T08:02:18Z</time>
      </trkpt>
      <trkpt lat="48.62588" lon="2.07374">
        <ele>159</ele>
        <time>2020-05-31T08:02:20Z</time>
      </trkpt>
      <trkpt lat="48.62589" lon="2.07371">
        <ele>159</ele>
        <time>2020-05-31T08:02:22Z</time>
      </trkpt>
      <trkpt lat="48.62591" lon="2.07367">
        <ele>159</ele>
        <time>2020-05-31T08:02:24Z</time>
      </trkpt>
      <trkpt lat="48.62592" lon="2.07364">
        <ele>159</ele>
        <time>2020-05-31T08:02:26Z</time>
      </trkpt>
      <trkpt lat="48.62593" lon="2.07361">
        <ele>159</ele>
        <time>2020-05-31T08:02:28Z</time>
      </trkpt>
      <trkpt lat="48.62594" lon="2.07357">
        <ele>159</ele>
        <time>2020-05-31T08:02:30Z</time>
      </trkpt>
      <trkpt lat="48.62595" lon="2.07354">
        <ele>159</ele>
        <time>2020-05-31T08:02:32Z</time>
      </trkpt>
      <trkpt lat="48.62596" lon="2.07351">
        <ele>160</ele>
        <time>2020-05-31T08:02:34Z</time>
      </trkpt>
      <trkpt lat="48.62597" lon="2.07348">
        <ele>160</ele>
        <time>2020-05-31T08:02:36Z</time>
      </trkpt>
      <trkpt lat="48.62597" lon="2.07345">
        <ele>160</ele>
        <time>2020-05-31T08:02:38Z</time>
      </trkpt>
      <trkpt lat="48.62596" lon="2.07341">
        <ele>160</ele>
        <time>2020-05-31T08:02:40Z</time>
      </trkpt>
      <trkpt lat="48.62595" lon="2.07338">
        <ele>160</ele>
        <time>2020-05-31T08:02:42Z</time>
      </trkpt>
      <trkpt lat="48.62594" lon="2.07335">
        <ele>160</ele>
        <time>2020-05-31T08:02:44Z</time>
      </trkpt>
      <trkpt lat="48.62592" lon="2.07331">
        <ele>160</ele>
        <time>2020-05-31T08:02:46Z</time>
      </trkpt>
      <trkpt lat="48.62591" lon="2.07328">
        <ele>161</ele>
        <time>2020-05-31T08:02:48Z</time>
      </trkpt>
      <trkpt lat="48.62589" lon="2.07325">
        <ele>161</ele>
        <time>2020-05-31T08:02:50Z</time>
      </trkpt>
      <trkpt lat="48.62587" lon="2.07322">
        <ele>161</ele>
        <time>2020-05-31T08:02:52Z</time>
      </trkpt>
      <trkpt lat="48.62585" lon="2.07319">
        <ele>161</ele>
        <time>2020-05-31T08:02:54Z</time>
      </trkpt>
      <trkpt lat="48.62583" lon="2.07316">
        <ele>162</ele>
        <time>2020-05-31T08:02:56Z</time>
      </trkpt>
      <trkpt lat="48.62582" lon="2.07313">
        <ele>162</ele>
        <time>2020-05-31T08:02:58Z</time>
      </trkpt>
      <trkpt lat="48.6258" lon="2.0731">
        <ele>162</ele>
        <time>2020-05-31T08:03:00Z</time>
      </trkpt>
      <trkpt lat="48.62579" lon="2.07306">
        <ele>162</ele>
        <time>2020-05-31T08:03:02Z</time>
      </trkpt>
      <trkpt lat="48.6258" lon="2.07303">
        <ele>162</ele>
        <time>2020-05-31T08:03:04Z</time>
      </trkpt>
      <trkpt lat="48.62581" lon="2.07299">
        <ele>162</ele>
        <time>2020-05-31T08:03:06Z</time>
      </trkpt>
      <trkpt lat="48.62583" lon="2.07295">
        <ele>162</ele>
        <time>2020-05-31T08:03:08Z</time>
      </trkpt>
      <trkpt lat="48.62585" lon="2.07292">
        <ele>162</ele>
        <time>2020-05-31T08:03:10Z</time>
      </trkpt>
      <trkpt lat="48.62586" lon="2.07288">
        <ele>162</ele>
        <time>2020-05-31T08:03:12Z</time>
      </trkpt>
      <trkpt lat="48.62588" lon="2.07285">
        <ele>161</ele>
        <time>2020-05-31T08:03:14Z</time>
      </trkpt>
      <trkpt lat="48.62589" lon="2.07281">
        <ele>161</ele>
        <time>2020-05-31T08:03:16Z</time>
      </trkpt>
      <trkpt lat="48.62591" lon="2.07278">
        <ele>161</ele>
        <time>2020-05-31T08:03:18Z</time>
      </trkpt>
      <trkpt lat="48.62593" lon="2.07275">
        <ele>161</ele>
        <time>2020-05-31T08:03:20Z</time>
      </trkpt>
      <trkpt lat="48.62595" lon="2.07271">
        <ele>161</ele>
        <time>2020-05-31T08:03:22Z</time>
      </trkpt>
      <trkpt lat="48.62596" lon="2.07268">
        <ele>161</ele>
        <time>2020-05-31T08:03:24Z</time>
      </trkpt>
      <trkpt lat="48.62598" lon="2.07265">
        <ele>161</ele>
        <time>2020-05-31T08:03:26Z</time>
      </trkpt>
      <trkpt lat="48.626" lon="2.07263">
        <ele>161</ele>
        <time>2020-05-31T08:03:28Z</time>
      </trkpt>
      <trkpt lat="48.62602" lon="2.0726">
        <ele>161</ele>
        <time>2020-05-31T08:03:30Z</time>
      </trkpt>
      <trkpt lat="48.62604" lon="2.07257">
        <ele>161</ele>
        <time>2020-05-31T08:03:32Z</time>
      </trkpt>
      <trkpt lat="48.62606" lon="2.07254">
        <ele>161</ele>
        <time>2020-05-31T08:03:34Z</time>
      </trkpt>
      <trkpt lat="48.62608" lon="2.07251">
        <ele>161</ele>
        <time>2020-05-31T08:03:36Z</time>
      </trkpt>
      <trkpt lat="48.6261" lon="2.07248">
        <ele>161</ele>
        <time>2020-05-31T08:03:38Z</time>
      </trkpt>
      <trkpt lat="48.62612" lon="2.07245">
        <ele>161</ele>
        <time>2020-05-31T08:03:40Z</time>
      </trkpt>
      <trkpt lat="48.62613" lon="2.07241">
        <ele>161</ele>
        <time>2020-05-31T08:03:42Z</time>
      </trkpt>
      <trkpt lat="48.62614" lon="2.07237">
        <ele>161</ele>
        <time>2020-05-31T08:03:44Z</time>
      </trkpt>
      <trkpt lat="48.62615" lon="2.07233">
        <ele>161</ele>
        <time>2020-05-31T08:03:46Z</time>
      </trkpt>
      <trkpt lat="48.62617" lon="2.07229">
        <ele>161</ele>
        <time>2020-05-31T08:03:48Z</time>
      </trkpt>
      <trkpt lat="48.62618" lon="2.07225">
        <ele>161</ele>
        <time>2020-05-31T08:03:50Z</time>
      </trkpt>
      <trkpt lat="48.62619" lon="2.07222">
        <ele>161</ele>
        <time>2020-05-31T08:03:52Z</time>
      </trkpt>
      <trkpt lat="48.62619" lon="2.07219">
        <ele>161</ele>
        <time>2020-05-31T08:04:00Z</time>
      </trkpt>
      <trkpt lat="48.6262" lon="2.07216">
        <ele>161</ele>
        <time>2020-05-31T08:04:02Z</time>
      </trkpt>
      <trkpt lat="48.62621" lon="2.07212">
        <ele>161</ele>
        <time>2020-05-31T08:04:04Z</time>
      </trkpt>
      <trkpt lat="48.62623" lon="2.07208">
        <ele>161</ele>
        <time>2020-05-31T08:04:06Z</time>
      </trkpt>
      <trkpt lat="48.62624" lon="2.07205">
        <ele>160</ele>
        <time>2020-05-31T08:04:08Z</time>
      </trkpt>
      <trkpt lat="48.62625" lon="2.07201">
        <ele>160</ele>
        <time>2020-05-31T08:04:10Z</time>
      </trkpt>
      <trkpt lat="48.62627" lon="2.07197">
        <ele>160</ele>
        <time>2020-05-31T08:04:12Z</time>
      </trkpt>
      <trkpt lat="48.62628" lon="2.07194">
        <ele>160</ele>
        <time>2020-05-31T08:04:14Z</time>
      </trkpt>
      <trkpt lat="48.6263" lon="2.07191">
        <ele>160</ele>
        <time>2020-05-31T08:04:16Z</time>
      </trkpt>
      <trkpt lat="48.62633" lon="2.07188">
        <ele>160</ele>
        <time>2020-05-31T08:04:18Z</time>
      </trkpt>
      <trkpt lat="48.62635" lon="2.07186">
        <ele>160</ele>
        <time>2020-05-31T08:04:20Z</time>
      </trkpt>
      <trkpt lat="48.62637" lon="2.07183">
        <ele>160</ele>
        <time>2020-05-31T08:04:22Z</time>
      </trkpt>
      <trkpt lat="48.6264" lon="2.07182">
        <ele>160</ele>
        <time>2020-05-31T08:04:24Z</time>
      </trkpt>
      <trkpt lat="48.62642" lon="2.0718">
        <ele>160</ele>
        <time>2020-05-31T08:04:26Z</time>
      </trkpt>
      <trkpt lat="48.62645" lon="2.07178">
        <ele>160</ele>
        <time>2020-05-31T08:04:28Z</time>
      </trkpt>
      <trkpt lat="48.62647" lon="2.07175">
        <ele>160</ele>
        <time>2020-05-31T08:04:30Z</time>
      </trkpt>
      <trkpt lat="48.62649" lon="2.07173">
        <ele>159</ele>
        <time>2020-05-31T08:04:32Z</time>
      </trkpt>
      <trkpt lat="48.62651" lon="2.0717">
        <ele>159</ele>
        <time>2020-05-31T08:04:34Z</time>
      </trkpt>
      <trkpt lat="48.62653" lon="2.07167">
        <ele>159</ele>
        <time>2020-05-31T08:04:36Z</time>
      </trkpt>
      <trkpt lat="48.62655" lon="2.07164">
        <ele>158</ele>
        <time>2020-05-31T08:04:38Z</time>
      </trkpt>
      <trkpt lat="48.62656" lon="2.0716">
        <ele>158</ele>
        <time>2020-05-31T08:04:40Z</time>
      </trkpt>
      <trkpt lat="48.62657" lon="2.07156">
        <ele>158</ele>
        <time>2020-05-31T08:04:42Z</time>
      </trkpt>
      <trkpt lat="48.62658" lon="2.07152">
        <ele>158</ele>
        <time>2020-05-31T08:04:44Z</time>
      </trkpt>
      <trkpt lat="48.62658" lon="2.07148">
        <ele>158</ele>
        <time>2020-05-31T08:04:46Z</time>
      </trkpt>
      <trkpt lat="48.62659" lon="2.07144">
        <ele>158</ele>
        <time>2020-05-31T08:04:48Z</time>
      </trkpt>
      <trkpt lat="48.62659" lon="2.0714">
        <ele>158</ele>
        <time>2020-05-31T08:04:50Z</time>
      </trkpt>
      <trkpt lat="48.6266" lon="2.07136">
        <ele>158</ele>
        <time>2020-05-31T08:04:52Z</time>
      </trkpt>
      <trkpt lat="48.62661" lon="2.07133">
        <ele>158</ele>
        <time>2020-05-31T08:04:54Z</time>
      </trkpt>
      <trkpt lat="48.62661" lon="2.0713">
        <ele>158</ele>
        <time>2020-05-31T08:04:56Z</time>
      </trkpt>
      <trkpt lat="48.62662" lon="2.07127">
        <ele>157</ele>
        <time>2020-05-31T08:04:58Z</time>
      </trkpt>
      <trkpt lat="48.62663" lon="2.07124">
        <ele>157</ele>
        <time>2020-05-31T08:05:00Z</time>
      </trkpt>
      <trkpt lat="48.62664" lon="2.07121">
        <ele>157</ele>
        <time>2020-05-31T08:05:02Z</time>
      </trkpt>
      <trkpt lat="48.62667" lon="2.07118">
        <ele>157</ele>
        <time>2020-05-31T08:05:04Z</time>
      </trkpt>
      <trkpt lat="48.62669" lon="2.07116">
        <ele>157</ele>
        <time>2020-05-31T08:05:06Z</time>
      </trkpt>
      <trkpt lat="48.62671" lon="2.07114">
        <ele>157</ele>
        <time>2020-05-31T08:05:08Z</time>
      </trkpt>
      <trkpt lat="48.62674" lon="2.07112">
        <ele>157</ele>
        <time>2020-05-31T08:05:10Z</time>
      </trkpt>
      <trkpt lat="48.62675" lon="2.07111">
        <ele>157</ele>
        <time>2020-05-31T08:05:12Z</time>
      </trkpt>
      <trkpt lat="48.62677" lon="2.07109">
        <ele>156</ele>
        <time>2020-05-31T08:05:20Z</time>
      </trkpt>
      <trkpt lat="48.6268" lon="2.07107">
        <ele>156</ele>
        <time>2020-05-31T08:05:22Z</time>
      </trkpt>
      <trkpt lat="48.62682" lon="2.07106">
        <ele>156</ele>
        <time>2020-05-31T08:05:24Z</time>
      </trkpt>
      <trkpt lat="48.62685" lon="2.07105">
        <ele>156</ele>
        <time>2020-05-31T08:05:26Z</time>
      </trkpt>
      <trkpt lat="48.62688" lon="2.07104">
        <ele>156</ele>
        <time>2020-05-31T08:05:28Z</time>
      </trkpt>
      <trkpt lat="48.6269" lon="2.07101">
        <ele>156</ele>
        <time>2020-05-31T08:05:30Z</time>
      </trkpt>
      <trkpt lat="48.62691" lon="2.07098">
        <ele>156</ele>
        <time>2020-05-31T08:05:32Z</time>
      </trkpt>
      <trkpt lat="48.62692" lon="2.07095">
        <ele>156</ele>
        <time>2020-05-31T08:05:34Z</time>
      </trkpt>
      <trkpt lat="48.62693" lon="2.07091">
        <ele>156</ele>
        <time>2020-05-31T08:05:36Z</time>
      </trkpt>
      <trkpt lat="48.62693" lon="2.07088">
        <ele>156</ele>
        <time>2020-05-31T08:05:38Z</time>
      </trkpt>
      <trkpt lat="48.62693" lon="2.07084">
        <ele>156</ele>
        <time>2020-05-31T08:05:40Z</time>
      </trkpt>
      <trkpt lat="48.62693" lon="2.07081">
        <ele>156</ele>
        <time>2020-05-31T08:05:42Z</time>
      </trkpt>
      <trkpt lat="48.62694" lon="2.07077">
        <ele>156</ele>
        <time>2020-05-31T08:05:44Z</time>
      </trkpt>
      <trkpt lat="48.62694" lon="2.07073">
        <ele>156</ele>
        <time>2020-05-31T08:05:46Z</time>
      </trkpt>
      <trkpt lat="48.62694" lon="2.07069">
        <ele>156</ele>
        <time>2020-05-31T08:05:48Z</time>
      </trkpt>
      <trkpt lat="48.62694" lon="2.07065">
        <ele>156</ele>
        <time>2020-05-31T08:05:50Z</time>
      </trkpt>
      <trkpt lat="48.62694" lon="2.07062">
        <ele>155</ele>
        <time>2020-05-31T08:05:54Z</time>
      </trkpt>
      <trkpt lat="48.62695" lon="2.07059">
        <ele>155</ele>
        <time>2020-05-31T08:05:56Z</time>
      </trkpt>
      <trkpt lat="48.62695" lon="2.07055">
        <ele>155</ele>
        <time>2020-05-31T08:05:58Z</time>
      </trkpt>
      <trkpt lat="48.62697" lon="2.07051">
        <ele>155</ele>
        <time>2020-05-31T08:06:00Z</time>
      </trkpt>
      <trkpt lat="48.62698" lon="2.07048">
        <ele>155</ele>
        <time>2020-05-31T08:06:02Z</time>
      </trkpt>
      <trkpt lat="48.62701" lon="2.07045">
        <ele>155</ele>
        <time>2020-05-31T08:06:04Z</time>
      </trkpt>
      <trkpt lat="48.62703" lon="2.07044">
        <ele>154</ele>
        <time>2020-05-31T08:06:06Z</time>
      </trkpt>
      <trkpt lat="48.62706" lon="2.07043">
        <ele>154</ele>
        <time>2020-05-31T08:06:08Z</time>
      </trkpt>
      <trkpt lat="48.62708" lon="2.07041">
        <ele>154</ele>
        <time>2020-05-31T08:06:10Z</time>
      </trkpt>
      <trkpt lat="48.62711" lon="2.07041">
        <ele>154</ele>
        <time>2020-05-31T08:06:12Z</time>
      </trkpt>
      <trkpt lat="48.62713" lon="2.0704">
        <ele>154</ele>
        <time>2020-05-31T08:06:14Z</time>
      </trkpt>
      <trkpt lat="48.62716" lon="2.07039">
        <ele>154</ele>
        <time>2020-05-31T08:06:16Z</time>
      </trkpt>
      <trkpt lat="48.62718" lon="2.07038">
        <ele>154</ele>
        <time>2020-05-31T08:06:18Z</time>
      </trkpt>
      <trkpt lat="48.62721" lon="2.07036">
        <ele>154</ele>
        <time>2020-05-31T08:06:20Z</time>
      </trkpt>
      <trkpt lat="48.62723" lon="2.07035">
        <ele>154</ele>
        <time>2020-05-31T08:06:22Z</time>
      </trkpt>
      <trkpt lat="48.62725" lon="2.07033">
        <ele>154</ele>
        <time>2020-05-31T08:06:24Z</time>
      </trkpt>
      <trkpt lat="48.62727" lon="2.07031">
        <ele>154</ele>
        <time>2020-05-31T08:06:26Z</time>
      </trkpt>
      <trkpt lat="48.6273" lon="2.07029">
        <ele>154</ele>
        <time>2020-05-31T08:06:28Z</time>
      </trkpt>
      <trkpt lat="48.62731" lon="2.07028">
        <ele>153</ele>
        <time>2020-05-31T08:06:30Z</time>
      </trkpt>
      <trkpt lat="48.62733" lon="2.07025">
        <ele>153</ele>
        <time>2020-05-31T08:06:32Z</time>
      </trkpt>
      <trkpt lat="48.62735" lon="2.07023">
        <ele>153</ele>
        <time>2020-05-31T08:06:34Z</time>
      </trkpt>
      <trkpt lat="48.62736" lon="2.07021">
        <ele>153</ele>
        <time>2020-05-31T08:06:36Z</time>
      </trkpt>
      <trkpt lat="48.62738" lon="2.07019">
        <ele>153</ele>
        <time>2020-05-31T08:06:38Z</time>
      </trkpt>
      <trkpt lat="48.6274" lon="2.07016">
        <ele>152</ele>
        <time>2020-05-31T08:06:40Z</time>
      </trkpt>
      <trkpt lat="48.62742" lon="2.07014">
        <ele>152</ele>
        <time>2020-05-31T08:06:42Z</time>
      </trkpt>
      <trkpt lat="48.62744" lon="2.07012">
        <ele>152</ele>
        <time>2020-05-31T08:06:44Z</time>
      </trkpt>
      <trkpt lat="48.62746" lon="2.0701">
        <ele>152</ele>
        <time>2020-05-31T08:06:46Z</time>
      </trkpt>
      <trkpt lat="48.62748" lon="2.07008">
        <ele>152</ele>
        <time>2020-05-31T08:06:48Z</time>
      </trkpt>
      <trkpt lat="48.6275" lon="2.07005">
        <ele>152</ele>
        <time>2020-05-31T08:06:50Z</time>
      </trkpt>
      <trkpt lat="48.62752" lon="2.07002">
        <ele>152</ele>
        <time>2020-05-31T08:06:52Z</time>
      </trkpt>
      <trkpt lat="48.62754" lon="2.07">
        <ele>152</ele>
        <time>2020-05-31T08:06:54Z</time>
      </trkpt>
      <trkpt lat="48.62756" lon="2.06998">
        <ele>152</ele>
        <time>2020-05-31T08:06:56Z</time>
      </trkpt>
      <trkpt lat="48.62758" lon="2.06995">
        <ele>152</ele>
        <time>2020-05-31T08:06:59Z</time>
      </trkpt>
      <trkpt lat="48.62759" lon="2.06993">
        <ele>151</ele>
        <time>2020-05-31T08:07:01Z</time>
      </trkpt>
      <trkpt lat="48.62762" lon="2.06991">
        <ele>151</ele>
        <time>2020-05-31T08:07:03Z</time>
      </trkpt>
      <trkpt lat="48.62764" lon="2.06988">
        <ele>151</ele>
        <time>2020-05-31T08:07:05Z</time>
      </trkpt>
      <trkpt lat="48.62766" lon="2.06984">
        <ele>150</ele>
        <time>2020-05-31T08:07:07Z</time>
      </trkpt>
      <trkpt lat="48.62767" lon="2.06981">
        <ele>150</ele>
        <time>2020-05-31T08:07:09Z</time>
      </trkpt>
      <trkpt lat="48.62769" lon="2.06978">
        <ele>150</ele>
        <time>2020-05-31T08:07:11Z</time>
      </trkpt>
      <trkpt lat="48.62771" lon="2.06975">
        <ele>150</ele>
        <time>2020-05-31T08:07:13Z</time>
      </trkpt>
      <trkpt lat="48.62773" lon="2.06972">
        <ele>150</ele>
        <time>2020-05-31T08:07:15Z</time>
      </trkpt>
      <trkpt lat="48.62774" lon="2.06968">
        <ele>150</ele>
        <time>2020-05-31T08:07:17Z</time>
      </trkpt>
      <trkpt lat="48.62776" lon="2.06964">
        <ele>150</ele>
        <time>2020-05-31T08:07:19Z</time>
      </trkpt>
      <trkpt lat="48.62776" lon="2.0696">
        <ele>150</ele>
        <time>2020-05-31T08:07:21Z</time>
      </trkpt>
      <trkpt lat="48.62777" lon="2.06955">
        <ele>150</ele>
        <time>2020-05-31T08:07:23Z</time>
      </trkpt>
      <trkpt lat="48.62777" lon="2.06951">
        <ele>150</ele>
        <time>2020-05-31T08:07:25Z</time>
      </trkpt>
      <trkpt lat="48.62777" lon="2.06947">
        <ele>150</ele>
        <time>2020-05-31T08:07:27Z</time>
      </trkpt>
      <trkpt lat="48.62777" lon="2.06944">
        <ele>150</ele>
        <time>2020-05-31T08:07:29Z</time>
      </trkpt>
      <trkpt lat="48.62777" lon="2.06939">
        <ele>149</ele>
        <time>2020-05-31T08:07:31Z</time>
      </trkpt>
      <trkpt lat="48.62778" lon="2.06935">
        <ele>149</ele>
        <time>2020-05-31T08:07:33Z</time>
      </trkpt>
      <trkpt lat="48.62778" lon="2.06931">
        <ele>149</ele>
        <time>2020-05-31T08:07:35Z</time>
      </trkpt>
      <trkpt lat="48.62778" lon="2.06927">
        <ele>149</ele>
        <time>2020-05-31T08:07:37Z</time>
      </trkpt>
      <trkpt lat="48.62778" lon="2.06923">
        <ele>149</ele>
        <time>2020-05-31T08:07:39Z</time>
      </trkpt>
      <trkpt lat="48.62778" lon="2.06919">
        <ele>149</ele>
        <time>2020-05-31T08:07:41Z</time>
      </trkpt>
      <trkpt lat="48.62778" lon="2.06914">
        <ele>149</ele>
        <time>2020-05-31T08:07:43Z</time>
      </trkpt>
      <trkpt lat="48.62778" lon="2.0691">
        <ele>149</ele>
        <time>2020-05-31T08:07:45Z</time>
      </trkpt>
      <trkpt lat="48.62778" lon="2.06906">
        <ele>149</ele>
        <time>2020-05-31T08:07:47Z</time>
      </trkpt>
      <trkpt lat="48.62778" lon="2.06901">
        <ele>149</ele>
        <time>2020-05-31T08:07:49Z</time>
      </trkpt>
      <trkpt lat="48.62778" lon="2.06896">
        <ele>148</ele>
        <time>2020-05-31T08:07:51Z</time>
      </trkpt>
      <trkpt lat="48.62778" lon="2.06892">
        <ele>148</ele>
        <time>2020-05-31T08:07:53Z</time>
      </trkpt>
      <trkpt lat="48.62778" lon="2.06888">
        <ele>148</ele>
        <time>2020-05-31T08:07:55Z</time>
      </trkpt>
      <trkpt lat="48.62778" lon="2.06884">
        <ele>148</ele>
        <time>2020-05-31T08:07:57Z</time>
      </trkpt>
      <trkpt lat="48.62779" lon="2.0688">
        <ele>148</ele>
        <time>2020-05-31T08:07:59Z</time>
      </trkpt>
      <trkpt lat="48.62779" lon="2.06875">
        <ele>148</ele>
        <time>2020-05-31T08:08:01Z</time>
      </trkpt>
      <trkpt lat="48.62779" lon="2.06871">
        <ele>148</ele>
        <time>2020-05-31T08:08:03Z</time>
      </trkpt>
      <trkpt lat="48.62779" lon="2.06866">
        <ele>148</ele>
        <time>2020-05-31T08:08:05Z</time>
      </trkpt>
      <trkpt lat="48.6278" lon="2.06862">
        <ele>148</ele>
        <time>2020-05-31T08:08:07Z</time>
      </trkpt>
      <trkpt lat="48.62781" lon="2.06858">
        <ele>148</ele>
        <time>2020-05-31T08:08:09Z</time>
      </trkpt>
      <trkpt lat="48.62782" lon="2.06854">
        <ele>147</ele>
        <time>2020-05-31T08:08:11Z</time>
      </trkpt>
      <trkpt lat="48.62784" lon="2.0685">
        <ele>147</ele>
        <time>2020-05-31T08:08:13Z</time>
      </trkpt>
      <trkpt lat="48.62785" lon="2.06846">
        <ele>147</ele>
        <time>2020-05-31T08:08:15Z</time>
      </trkpt>
      <trkpt lat="48.62787" lon="2.06842">
        <ele>147</ele>
        <time>2020-05-31T08:08:17Z</time>
      </trkpt>
      <trkpt lat="48.62788" lon="2.06839">
        <ele>147</ele>
        <time>2020-05-31T08:08:19Z</time>
      </trkpt>
      <trkpt lat="48.6279" lon="2.06835">
        <ele>147</ele>
        <time>2020-05-31T08:08:21Z</time>
      </trkpt>
      <trkpt lat="48.62791" lon="2.06831">
        <ele>147</ele>
        <time>2020-05-31T08:08:23Z</time>
      </trkpt>
      <trkpt lat="48.62793" lon="2.06828">
        <ele>147</ele>
        <time>2020-05-31T08:08:25Z</time>
      </trkpt>
      <trkpt lat="48.62795" lon="2.06825">
        <ele>147</ele>
        <time>2020-05-31T08:08:27Z</time>
      </trkpt>
      <trkpt lat="48.62796" lon="2.06821">
        <ele>147</ele>
        <time>2020-05-31T08:08:29Z</time>
      </trkpt>
      <trkpt lat="48.62798" lon="2.06817">
        <ele>147</ele>
        <time>2020-05-31T08:08:31Z</time>
      </trkpt>
      <trkpt lat="48.628" lon="2.06814">
        <ele>147</ele>
        <time>2020-05-31T08:08:33Z</time>
      </trkpt>
      <trkpt lat="48.62802" lon="2.0681">
        <ele>147</ele>
        <time>2020-05-31T08:08:35Z</time>
      </trkpt>
      <trkpt lat="48.62803" lon="2.06807">
        <ele>147</ele>
        <time>2020-05-31T08:08:37Z</time>
      </trkpt>
      <trkpt lat="48.62805" lon="2.06803">
        <ele>147</ele>
        <time>2020-05-31T08:08:39Z</time>
      </trkpt>
      <trkpt lat="48.62806" lon="2.068">
        <ele>147</ele>
        <time>2020-05-31T08:08:41Z</time>
      </trkpt>
      <trkpt lat="48.62808" lon="2.06796">
        <ele>147</ele>
        <time>2020-05-31T08:08:43Z</time>
      </trkpt>
      <trkpt lat="48.62809" lon="2.06792">
        <ele>147</ele>
        <time>2020-05-31T08:08:45Z</time>
      </trkpt>
      <trkpt lat="48.6281" lon="2.06789">
        <ele>147</ele>
        <time>2020-05-31T08:08:47Z</time>
      </trkpt>
      <trkpt lat="48.62811" lon="2.06785">
        <ele>148</ele>
        <time>2020-05-31T08:08:49Z</time>
      </trkpt>
      <trkpt lat="48.62811" lon="2.06782">
        <ele>148</ele>
        <time>2020-05-31T08:08:51Z</time>
      </trkpt>
      <trkpt lat="48.6281" lon="2.06778">
        <ele>148</ele>
        <time>2020-05-31T08:08:54Z</time>
      </trkpt>
      <trkpt lat="48.6281" lon="2.06774">
        <ele>148</ele>
        <time>2020-05-31T08:08:56Z</time>
      </trkpt>
      <trkpt lat="48.6281" lon="2.0677">
        <ele>148</ele>
        <time>2020-05-31T08:08:58Z</time>
      </trkpt>
      <trkpt lat="48.6281" lon="2.06765">
        <ele>148</ele>
        <time>2020-05-31T08:09:00Z</time>
      </trkpt>
      <trkpt lat="48.6281" lon="2.06761">
        <ele>148</ele>
        <time>2020-05-31T08:09:02Z</time>
      </trkpt>
      <trkpt lat="48.62811" lon="2.06757">
        <ele>148</ele>
        <time>2020-05-31T08:09:04Z</time>
      </trkpt>
      <trkpt lat="48.62811" lon="2.06753">
        <ele>148</ele>
        <time>2020-05-31T08:09:06Z</time>
      </trkpt>
      <trkpt lat="48.62811" lon="2.0675">
        <ele>148</ele>
        <time>2020-05-31T08:09:08Z</time>
      </trkpt>
      <trkpt lat="48.62811" lon="2.06745">
        <ele>148</ele>
        <time>2020-05-31T08:09:10Z</time>
      </trkpt>
      <trkpt lat="48.6281" lon="2.0674">
        <ele>148</ele>
        <time>2020-05-31T08:09:12Z</time>
      </trkpt>
      <trkpt lat="48.6281" lon="2.06736">
        <ele>148</ele>
        <time>2020-05-31T08:09:14Z</time>
      </trkpt>
      <trkpt lat="48.62809" lon="2.06731">
        <ele>148</ele>
        <time>2020-05-31T08:09:16Z</time>
      </trkpt>
      <trkpt lat="48.62809" lon="2.06726">
        <ele>148</ele>
        <time>2020-05-31T08:09:18Z</time>
      </trkpt>
      <trkpt lat="48.62809" lon="2.06721">
        <ele>148</ele>
        <time>2020-05-31T08:09:20Z</time>
      </trkpt>
      <trkpt lat="48.62808" lon="2.06717">
        <ele>148</ele>
        <time>2020-05-31T08:09:22Z</time>
      </trkpt>
      <trkpt lat="48.62808" lon="2.06712">
        <ele>148</ele>
        <time>2020-05-31T08:09:24Z</time>
      </trkpt>
      <trkpt lat="48.62808" lon="2.06707">
        <ele>149</ele>
        <time>2020-05-31T08:09:26Z</time>
      </trkpt>
      <trkpt lat="48.62807" lon="2.06702">
        <ele>149</ele>
        <time>2020-05-31T08:09:28Z</time>
      </trkpt>
      <trkpt lat="48.62807" lon="2.06697">
        <ele>149</ele>
        <time>2020-05-31T08:09:30Z</time>
      </trkpt>
      <trkpt lat="48.62807" lon="2.06692">
        <ele>149</ele>
        <time>2020-05-31T08:09:32Z</time>
      </trkpt>
      <trkpt lat="48.62806" lon="2.06687">
        <ele>149</ele>
        <time>2020-05-31T08:09:34Z</time>
      </trkpt>
      <trkpt lat="48.62806" lon="2.06682">
        <ele>149</ele>
        <time>2020-05-31T08:09:36Z</time>
      </trkpt>
      <trkpt lat="48.62806" lon="2.06677">
        <ele>149</ele>
        <time>2020-05-31T08:09:38Z</time>
      </trkpt>
      <trkpt lat="48.62806" lon="2.06673">
        <ele>149</ele>
        <time>2020-05-31T08:09:40Z</time>
      </trkpt>
      <trkpt lat="48.62806" lon="2.06668">
        <ele>149</ele>
        <time>2020-05-31T08:09:42Z</time>
      </trkpt>
      <trkpt lat="48.62805" lon="2.06664">
        <ele>149</ele>
        <time>2020-05-31T08:09:44Z</time>
      </trkpt>
      <trkpt lat="48.62805" lon="2.06659">
        <ele>149</ele>
        <time>2020-05-31T08:09:46Z</time>
      </trkpt>
      <trkpt lat="48.62805" lon="2.06654">
        <ele>149</ele>
        <time>2020-05-31T08:09:48Z</time>
      </trkpt>
      <trkpt lat="48.62805" lon="2.0665">
        <ele>149</ele>
        <time>2020-05-31T08:09:50Z</time>
      </trkpt>
      <trkpt lat="48.62805" lon="2.06646">
        <ele>149</ele>
        <time>2020-05-31T08:09:52Z</time>
      </trkpt>
      <trkpt lat="48.62805" lon="2.06642">
        <ele>149</ele>
        <time>2020-05-31T08:09:54Z</time>
      </trkpt>
      <trkpt lat="48.62805" lon="2.06638">
        <ele>149</ele>
        <time>2020-05-31T08:09:56Z</time>
      </trkpt>
      <trkpt lat="48.62805" lon="2.06634">
        <ele>149</ele>
        <time>2020-05-31T08:09:58Z</time>
      </trkpt>
      <trkpt lat="48.62805" lon="2.06629">
        <ele>149</ele>
        <time>2020-05-31T08:10:00Z</time>
      </trkpt>
      <trkpt lat="48.62805" lon="2.06625">
        <ele>149</ele>
        <time>2020-05-31T08:10:02Z</time>
      </trkpt>
      <trkpt lat="48.62805" lon="2.0662">
        <ele>149</ele>
        <time>2020-05-31T08:10:04Z</time>
      </trkpt>
      <trkpt lat="48.62805" lon="2.06616">
        <ele>149</ele>
        <time>2020-05-31T08:10:06Z</time>
      </trkpt>
      <trkpt lat="48.62804" lon="2.06612">
        <ele>149</ele>
        <time>2020-05-31T08:10:08Z</time>
      </trkpt>
      <trkpt lat="48.62804" lon="2.06608">
        <ele>149</ele>
        <time>2020-05-31T08:10:10Z</time>
      </trkpt>
      <trkpt lat="48.62804" lon="2.06603">
        <ele>149</ele>
        <time>2020-05-31T08:10:12Z</time>
      </trkpt>
      <trkpt lat="48.62804" lon="2.06599">
        <ele>149</ele>
        <time>2020-05-31T08:10:14Z</time>
      </trkpt>
      <trkpt lat="48.62804" lon="2.06594">
        <ele>149</ele>
        <time>2020-05-31T08:10:16Z</time>
      </trkpt>
      <trkpt lat="48.62804" lon="2.0659">
        <ele>149</ele>
        <time>2020-05-31T08:10:18Z</time>
      </trkpt>
      <trkpt lat="48.62803" lon="2.06585">
        <ele>149</ele>
        <time>2020-05-31T08:10:20Z</time>
      </trkpt>
      <trkpt lat="48.62803" lon="2.06581">
        <ele>149</ele>
        <time>2020-05-31T08:10:22Z</time>
      </trkpt>
      <trkpt lat="48.62803" lon="2.06577">
        <ele>150</ele>
        <time>2020-05-31T08:10:24Z</time>
      </trkpt>
      <trkpt lat="48.62803" lon="2.06572">
        <ele>150</ele>
        <time>2020-05-31T08:10:26Z</time>
      </trkpt>
      <trkpt lat="48.62803" lon="2.06568">
        <ele>150</ele>
        <time>2020-05-31T08:10:28Z</time>
      </trkpt>
      <trkpt lat="48.62802" lon="2.06564">
        <ele>150</ele>
        <time>2020-05-31T08:10:30Z</time>
      </trkpt>
      <trkpt lat="48.62802" lon="2.06559">
        <ele>150</ele>
        <time>2020-05-31T08:10:32Z</time>
      </trkpt>
      <trkpt lat="48.62802" lon="2.06555">
        <ele>150</ele>
        <time>2020-05-31T08:10:34Z</time>
      </trkpt>
      <trkpt lat="48.62802" lon="2.0655">
        <ele>150</ele>
        <time>2020-05-31T08:10:36Z</time>
      </trkpt>
      <trkpt lat="48.62802" lon="2.06545">
        <ele>150</ele>
        <time>2020-05-31T08:10:38Z</time>
      </trkpt>
      <trkpt lat="48.62802" lon="2.06542">
        <ele>151</ele>
        <time>2020-05-31T08:10:40Z</time>
      </trkpt>
      <trkpt lat="48.62802" lon="2.06538">
        <ele>151</ele>
        <time>2020-05-31T08:10:42Z</time>
      </trkpt>
      <trkpt lat="48.62802" lon="2.06534">
        <ele>151</ele>
        <time>2020-05-31T08:10:44Z</time>
      </trkpt>
      <trkpt lat="48.62802" lon="2.06529">
        <ele>151</ele>
        <time>2020-05-31T08:10:46Z</time>
      </trkpt>
      <trkpt lat="48.62801" lon="2.06525">
        <ele>151</ele>
        <time>2020-05-31T08:10:48Z</time>
      </trkpt>
      <trkpt lat="48.62801" lon="2.0652">
        <ele>151</ele>
        <time>2020-05-31T08:10:50Z</time>
      </trkpt>
      <trkpt lat="48.62801" lon="2.06516">
        <ele>152</ele>
        <time>2020-05-31T08:10:52Z</time>
      </trkpt>
      <trkpt lat="48.62801" lon="2.06511">
        <ele>152</ele>
        <time>2020-05-31T08:10:54Z</time>
      </trkpt>
      <trkpt lat="48.62801" lon="2.06507">
        <ele>152</ele>
        <time>2020-05-31T08:10:56Z</time>
      </trkpt>
      <trkpt lat="48.62801" lon="2.06503">
        <ele>152</ele>
        <time>2020-05-31T08:10:58Z</time>
      </trkpt>
      <trkpt lat="48.628" lon="2.065">
        <ele>152</ele>
        <time>2020-05-31T08:11:00Z</time>
      </trkpt>
      <trkpt lat="48.628" lon="2.06495">
        <ele>152</ele>
        <time>2020-05-31T08:11:02Z</time>
      </trkpt>
      <trkpt lat="48.628" lon="2.06492">
        <ele>152</ele>
        <time>2020-05-31T08:11:04Z</time>
      </trkpt>
      <trkpt lat="48.628" lon="2.06489">
        <ele>152</ele>
        <time>2020-05-31T08:11:06Z</time>
      </trkpt>
      <trkpt lat="48.62801" lon="2.06486">
        <ele>152</ele>
        <time>2020-05-31T08:11:08Z</time>
      </trkpt>
      <trkpt lat="48.62801" lon="2.06483">
        <ele>153</ele>
        <time>2020-05-31T08:11:10Z</time>
      </trkpt>
      <trkpt lat="48.628" lon="2.06479">
        <ele>153</ele>
        <time>2020-05-31T08:11:12Z</time>
      </trkpt>
      <trkpt lat="48.628" lon="2.06475">
        <ele>153</ele>
        <time>2020-05-31T08:11:14Z</time>
      </trkpt>
      <trkpt lat="48.62799" lon="2.06471">
        <ele>153</ele>
        <time>2020-05-31T08:11:16Z</time>
      </trkpt>
      <trkpt lat="48.62798" lon="2.06466">
        <ele>153</ele>
        <time>2020-05-31T08:11:18Z</time>
      </trkpt>
      <trkpt lat="48.62798" lon="2.06462">
        <ele>153</ele>
        <time>2020-05-31T08:11:20Z</time>
      </trkpt>
      <trkpt lat="48.62798" lon="2.06457">
        <ele>153</ele>
        <time>2020-05-31T08:11:22Z</time>
      </trkpt>
      <trkpt lat="48.62798" lon="2.06452">
        <ele>153</ele>
        <time>2020-05-31T08:11:24Z</time>
      </trkpt>
      <trkpt lat="48.62798" lon="2.06448">
        <ele>153</ele>
        <time>2020-05-31T08:11:26Z</time>
      </trkpt>
      <trkpt lat="48.62798" lon="2.06443">
        <ele>153</ele>
        <time>2020-05-31T08:11:28Z</time>
      </trkpt>
      <trkpt lat="48.62798" lon="2.06438">
        <ele>154</ele>
        <time>2020-05-31T08:11:30Z</time>
      </trkpt>
      <trkpt lat="48.62798" lon="2.06433">
        <ele>154</ele>
        <time>2020-05-31T08:11:32Z</time>
      </trkpt>
      <trkpt lat="48.62797" lon="2.06428">
        <ele>154</ele>
        <time>2020-05-31T08:11:34Z</time>
      </trkpt>
      <trkpt lat="48.62797" lon="2.06424">
        <ele>154</ele>
        <time>2020-05-31T08:11:36Z</time>
      </trkpt>
      <trkpt lat="48.62797" lon="2.06419">
        <ele>154</ele>
        <time>2020-05-31T08:11:38Z</time>
      </trkpt>
      <trkpt lat="48.62797" lon="2.06415">
        <ele>154</ele>
        <time>2020-05-31T08:11:40Z</time>
      </trkpt>
      <trkpt lat="48.62797" lon="2.0641">
        <ele>154</ele>
        <time>2020-05-31T08:11:42Z</time>
      </trkpt>
      <trkpt lat="48.62796" lon="2.06405">
        <ele>154</ele>
        <time>2020-05-31T08:11:44Z</time>
      </trkpt>
      <trkpt lat="48.62796" lon="2.064">
        <ele>154</ele>
        <time>2020-05-31T08:11:46Z</time>
      </trkpt>
      <trkpt lat="48.62796" lon="2.06395">
        <ele>154</ele>
        <time>2020-05-31T08:11:48Z</time>
      </trkpt>
      <trkpt lat="48.62796" lon="2.06391">
        <ele>154</ele>
        <time>2020-05-31T08:11:50Z</time>
      </trkpt>
      <trkpt lat="48.62795" lon="2.06387">
        <ele>154</ele>
        <time>2020-05-31T08:11:52Z</time>
      </trkpt>
      <trkpt lat="48.62795" lon="2.06383">
        <ele>154</ele>
        <time>2020-05-31T08:11:54Z</time>
      </trkpt>
      <trkpt lat="48.62795" lon="2.06379">
        <ele>154</ele>
        <time>2020-05-31T08:11:56Z</time>
      </trkpt>
      <trkpt lat="48.62795" lon="2.06375">
        <ele>154</ele>
        <time>2020-05-31T08:11:58Z</time>
      </trkpt>
      <trkpt lat="48.62795" lon="2.0637">
        <ele>154</ele>
        <time>2020-05-31T08:12:00Z</time>
      </trkpt>
      <trkpt lat="48.62795" lon="2.06365">
        <ele>154</ele>
        <time>2020-05-31T08:12:02Z</time>
      </trkpt>
      <trkpt lat="48.62795" lon="2.06361">
        <ele>154</ele>
        <time>2020-05-31T08:12:04Z</time>
      </trkpt>
      <trkpt lat="48.62794" lon="2.06356">
        <ele>154</ele>
        <time>2020-05-31T08:12:06Z</time>
      </trkpt>
      <trkpt lat="48.62794" lon="2.06352">
        <ele>153</ele>
        <time>2020-05-31T08:12:08Z</time>
      </trkpt>
      <trkpt lat="48.62794" lon="2.06347">
        <ele>153</ele>
        <time>2020-05-31T08:12:10Z</time>
      </trkpt>
      <trkpt lat="48.62794" lon="2.06343">
        <ele>153</ele>
        <time>2020-05-31T08:12:12Z</time>
      </trkpt>
      <trkpt lat="48.62794" lon="2.06339">
        <ele>153</ele>
        <time>2020-05-31T08:12:14Z</time>
      </trkpt>
      <trkpt lat="48.62794" lon="2.06335">
        <ele>154</ele>
        <time>2020-05-31T08:12:16Z</time>
      </trkpt>
      <trkpt lat="48.62793" lon="2.06331">
        <ele>154</ele>
        <time>2020-05-31T08:12:18Z</time>
      </trkpt>
      <trkpt lat="48.62793" lon="2.06327">
        <ele>154</ele>
        <time>2020-05-31T08:12:20Z</time>
      </trkpt>
      <trkpt lat="48.62793" lon="2.06323">
        <ele>154</ele>
        <time>2020-05-31T08:12:22Z</time>
      </trkpt>
      <trkpt lat="48.62793" lon="2.06318">
        <ele>154</ele>
        <time>2020-05-31T08:12:24Z</time>
      </trkpt>
      <trkpt lat="48.62793" lon="2.06314">
        <ele>154</ele>
        <time>2020-05-31T08:12:26Z</time>
      </trkpt>
      <trkpt lat="48.62793" lon="2.06309">
        <ele>154</ele>
        <time>2020-05-31T08:12:28Z</time>
      </trkpt>
      <trkpt lat="48.62793" lon="2.06305">
        <ele>154</ele>
        <time>2020-05-31T08:12:30Z</time>
      </trkpt>
      <trkpt lat="48.62793" lon="2.063">
        <ele>154</ele>
        <time>2020-05-31T08:12:32Z</time>
      </trkpt>
      <trkpt lat="48.62792" lon="2.06297">
        <ele>154</ele>
        <time>2020-05-31T08:12:34Z</time>
      </trkpt>
      <trkpt lat="48.62792" lon="2.06293">
        <ele>154</ele>
        <time>2020-05-31T08:12:36Z</time>
      </trkpt>
      <trkpt lat="48.62792" lon="2.06288">
        <ele>154</ele>
        <time>2020-05-31T08:12:38Z</time>
      </trkpt>
      <trkpt lat="48.62792" lon="2.06284">
        <ele>155</ele>
        <time>2020-05-31T08:12:40Z</time>
      </trkpt>
      <trkpt lat="48.62791" lon="2.0628">
        <ele>155</ele>
        <time>2020-05-31T08:12:42Z</time>
      </trkpt>
      <trkpt lat="48.62791" lon="2.06275">
        <ele>155</ele>
        <time>2020-05-31T08:12:44Z</time>
      </trkpt>
      <trkpt lat="48.62791" lon="2.06271">
        <ele>155</ele>
        <time>2020-05-31T08:12:46Z</time>
      </trkpt>
      <trkpt lat="48.62791" lon="2.06267">
        <ele>155</ele>
        <time>2020-05-31T08:12:48Z</time>
      </trkpt>
      <trkpt lat="48.62791" lon="2.06263">
        <ele>155</ele>
        <time>2020-05-31T08:12:50Z</time>
      </trkpt>
      <trkpt lat="48.62791" lon="2.06258">
        <ele>155</ele>
        <time>2020-05-31T08:12:52Z</time>
      </trkpt>
      <trkpt lat="48.6279" lon="2.06254">
        <ele>155</ele>
        <time>2020-05-31T08:12:54Z</time>
      </trkpt>
      <trkpt lat="48.6279" lon="2.06249">
        <ele>155</ele>
        <time>2020-05-31T08:12:56Z</time>
      </trkpt>
      <trkpt lat="48.6279" lon="2.06245">
        <ele>155</ele>
        <time>2020-05-31T08:12:58Z</time>
      </trkpt>
      <trkpt lat="48.62789" lon="2.0624">
        <ele>155</ele>
        <time>2020-05-31T08:13:00Z</time>
      </trkpt>
      <trkpt lat="48.62789" lon="2.06235">
        <ele>155</ele>
        <time>2020-05-31T08:13:02Z</time>
      </trkpt>
      <trkpt lat="48.62789" lon="2.06231">
        <ele>155</ele>
        <time>2020-05-31T08:13:04Z</time>
      </trkpt>
      <trkpt lat="48.62788" lon="2.06226">
        <ele>155</ele>
        <time>2020-05-31T08:13:06Z</time>
      </trkpt>
      <trkpt lat="48.62788" lon="2.06222">
        <ele>155</ele>
        <time>2020-05-31T08:13:08Z</time>
      </trkpt>
      <trkpt lat="48.62788" lon="2.06217">
        <ele>155</ele>
        <time>2020-05-31T08:13:10Z</time>
      </trkpt>
      <trkpt lat="48.62788" lon="2.06213">
        <ele>155</ele>
        <time>2020-05-31T08:13:12Z</time>
      </trkpt>
      <trkpt lat="48.62787" lon="2.06209">
        <ele>155</ele>
        <time>2020-05-31T08:13:14Z</time>
      </trkpt>
      <trkpt lat="48.62787" lon="2.06204">
        <ele>155</ele>
        <time>2020-05-31T08:13:16Z</time>
      </trkpt>
      <trkpt lat="48.62787" lon="2.062">
        <ele>156</ele>
        <time>2020-05-31T08:13:18Z</time>
      </trkpt>
      <trkpt lat="48.62787" lon="2.06196">
        <ele>156</ele>
        <time>2020-05-31T08:13:20Z</time>
      </trkpt>
      <trkpt lat="48.62786" lon="2.06191">
        <ele>155</ele>
        <time>2020-05-31T08:13:22Z</time>
      </trkpt>
      <trkpt lat="48.62786" lon="2.06187">
        <ele>156</ele>
        <time>2020-05-31T08:13:24Z</time>
      </trkpt>
      <trkpt lat="48.62785" lon="2.06182">
        <ele>156</ele>
        <time>2020-05-31T08:13:26Z</time>
      </trkpt>
      <trkpt lat="48.62785" lon="2.06178">
        <ele>156</ele>
        <time>2020-05-31T08:13:28Z</time>
      </trkpt>
      <trkpt lat="48.62785" lon="2.06173">
        <ele>156</ele>
        <time>2020-05-31T08:13:30Z</time>
      </trkpt>
      <trkpt lat="48.62785" lon="2.06168">
        <ele>156</ele>
        <time>2020-05-31T08:13:32Z</time>
      </trkpt>
      <trkpt lat="48.62785" lon="2.06164">
        <ele>156</ele>
        <time>2020-05-31T08:13:34Z</time>
      </trkpt>
      <trkpt lat="48.62784" lon="2.0616">
        <ele>156</ele>
        <time>2020-05-31T08:13:36Z</time>
      </trkpt>
      <trkpt lat="48.62784" lon="2.06156">
        <ele>156</ele>
        <time>2020-05-31T08:13:38Z</time>
      </trkpt>
      <trkpt lat="48.62784" lon="2.06151">
        <ele>157</ele>
        <time>2020-05-31T08:13:40Z</time>
      </trkpt>
      <trkpt lat="48.62784" lon="2.06148">
        <ele>157</ele>
        <time>2020-05-31T08:13:42Z</time>
      </trkpt>
      <trkpt lat="48.62783" lon="2.06143">
        <ele>157</ele>
        <time>2020-05-31T08:13:44Z</time>
      </trkpt>
      <trkpt lat="48.62783" lon="2.06139">
        <ele>157</ele>
        <time>2020-05-31T08:13:46Z</time>
      </trkpt>
      <trkpt lat="48.62783" lon="2.06135">
        <ele>157</ele>
        <time>2020-05-31T08:13:48Z</time>
      </trkpt>
      <trkpt lat="48.62783" lon="2.0613">
        <ele>157</ele>
        <time>2020-05-31T08:13:50Z</time>
      </trkpt>
      <trkpt lat="48.62783" lon="2.06126">
        <ele>157</ele>
        <time>2020-05-31T08:13:52Z</time>
      </trkpt>
      <trkpt lat="48.62783" lon="2.06121">
        <ele>157</ele>
        <time>2020-05-31T08:13:54Z</time>
      </trkpt>
      <trkpt lat="48.62783" lon="2.06119">
        <ele>157</ele>
        <time>2020-05-31T08:13:55Z</time>
      </trkpt>
      <trkpt lat="48.62783" lon="2.06115">
        <ele>157</ele>
        <time>2020-05-31T08:13:56Z</time>
      </trkpt>
      <trkpt lat="48.62783" lon="2.06112">
        <ele>157</ele>
        <time>2020-05-31T08:13:57Z</time>
      </trkpt>
      <trkpt lat="48.62783" lon="2.06108">
        <ele>157</ele>
        <time>2020-05-31T08:13:59Z</time>
      </trkpt>
      <trkpt lat="48.62782" lon="2.06103">
        <ele>157</ele>
        <time>2020-05-31T08:14:01Z</time>
      </trkpt>
      <trkpt lat="48.62782" lon="2.06098">
        <ele>157</ele>
        <time>2020-05-31T08:14:03Z</time>
      </trkpt>
      <trkpt lat="48.62782" lon="2.06094">
        <ele>157</ele>
        <time>2020-05-31T08:14:05Z</time>
      </trkpt>
      <trkpt lat="48.62782" lon="2.06089">
        <ele>157</ele>
        <time>2020-05-31T08:14:07Z</time>
      </trkpt>
      <trkpt lat="48.62782" lon="2.06085">
        <ele>157</ele>
        <time>2020-05-31T08:14:09Z</time>
      </trkpt>
      <trkpt lat="48.62781" lon="2.06081">
        <ele>157</ele>
        <time>2020-05-31T08:14:11Z</time>
      </trkpt>
      <trkpt lat="48.62781" lon="2.06076">
        <ele>157</ele>
        <time>2020-05-31T08:14:13Z</time>
      </trkpt>
      <trkpt lat="48.62781" lon="2.06072">
        <ele>157</ele>
        <time>2020-05-31T08:14:15Z</time>
      </trkpt>
      <trkpt lat="48.62781" lon="2.06068">
        <ele>157</ele>
        <time>2020-05-31T08:14:17Z</time>
      </trkpt>
      <trkpt lat="48.6278" lon="2.06063">
        <ele>157</ele>
        <time>2020-05-31T08:14:19Z</time>
      </trkpt>
      <trkpt lat="48.6278" lon="2.06059">
        <ele>157</ele>
        <time>2020-05-31T08:14:21Z</time>
      </trkpt>
      <trkpt lat="48.6278" lon="2.06055">
        <ele>157</ele>
        <time>2020-05-31T08:14:23Z</time>
      </trkpt>
      <trkpt lat="48.6278" lon="2.06051">
        <ele>157</ele>
        <time>2020-05-31T08:14:25Z</time>
      </trkpt>
      <trkpt lat="48.6278" lon="2.06048">
        <ele>157</ele>
        <time>2020-05-31T08:14:27Z</time>
      </trkpt>
      <trkpt lat="48.62781" lon="2.06044">
        <ele>157</ele>
        <time>2020-05-31T08:14:29Z</time>
      </trkpt>
      <trkpt lat="48.62781" lon="2.0604">
        <ele>157</ele>
        <time>2020-05-31T08:14:31Z</time>
      </trkpt>
      <trkpt lat="48.62781" lon="2.06036">
        <ele>157</ele>
        <time>2020-05-31T08:14:33Z</time>
      </trkpt>
      <trkpt lat="48.62781" lon="2.06031">
        <ele>158</ele>
        <time>2020-05-31T08:14:35Z</time>
      </trkpt>
      <trkpt lat="48.6278" lon="2.06028">
        <ele>158</ele>
        <time>2020-05-31T08:14:37Z</time>
      </trkpt>
      <trkpt lat="48.6278" lon="2.06025">
        <ele>158</ele>
        <time>2020-05-31T08:14:39Z</time>
      </trkpt>
      <trkpt lat="48.62779" lon="2.06022">
        <ele>158</ele>
        <time>2020-05-31T08:15:24Z</time>
      </trkpt>
      <trkpt lat="48.62779" lon="2.06018">
        <ele>158</ele>
        <time>2020-05-31T08:15:26Z</time>
      </trkpt>
      <trkpt lat="48.62779" lon="2.06014">
        <ele>158</ele>
        <time>2020-05-31T08:15:28Z</time>
      </trkpt>
      <trkpt lat="48.62779" lon="2.0601">
        <ele>159</ele>
        <time>2020-05-31T08:15:30Z</time>
      </trkpt>
      <trkpt lat="48.62779" lon="2.06005">
        <ele>159</ele>
        <time>2020-05-31T08:15:32Z</time>
      </trkpt>
      <trkpt lat="48.62778" lon="2.06001">
        <ele>159</ele>
        <time>2020-05-31T08:15:34Z</time>
      </trkpt>
      <trkpt lat="48.62778" lon="2.05997">
        <ele>159</ele>
        <time>2020-05-31T08:15:36Z</time>
      </trkpt>
      <trkpt lat="48.62778" lon="2.05993">
        <ele>159</ele>
        <time>2020-05-31T08:15:38Z</time>
      </trkpt>
      <trkpt lat="48.62778" lon="2.05989">
        <ele>159</ele>
        <time>2020-05-31T08:15:40Z</time>
      </trkpt>
      <trkpt lat="48.62778" lon="2.05985">
        <ele>159</ele>
        <time>2020-05-31T08:15:42Z</time>
      </trkpt>
      <trkpt lat="48.62778" lon="2.05981">
        <ele>159</ele>
        <time>2020-05-31T08:15:44Z</time>
      </trkpt>
      <trkpt lat="48.62777" lon="2.05977">
        <ele>159</ele>
        <time>2020-05-31T08:15:46Z</time>
      </trkpt>
      <trkpt lat="48.62777" lon="2.05972">
        <ele>159</ele>
        <time>2020-05-31T08:15:48Z</time>
      </trkpt>
      <trkpt lat="48.62777" lon="2.05968">
        <ele>159</ele>
        <time>2020-05-31T08:15:50Z</time>
      </trkpt>
      <trkpt lat="48.62777" lon="2.05964">
        <ele>159</ele>
        <time>2020-05-31T08:15:52Z</time>
      </trkpt>
      <trkpt lat="48.62777" lon="2.0596">
        <ele>159</ele>
        <time>2020-05-31T08:15:54Z</time>
      </trkpt>
      <trkpt lat="48.62777" lon="2.05956">
        <ele>159</ele>
        <time>2020-05-31T08:15:56Z</time>
      </trkpt>
      <trkpt lat="48.62777" lon="2.05952">
        <ele>159</ele>
        <time>2020-05-31T08:15:58Z</time>
      </trkpt>
      <trkpt lat="48.62776" lon="2.05948">
        <ele>159</ele>
        <time>2020-05-31T08:16:00Z</time>
      </trkpt>
      <trkpt lat="48.62776" lon="2.05945">
        <ele>159</ele>
        <time>2020-05-31T08:16:02Z</time>
      </trkpt>
      <trkpt lat="48.62776" lon="2.0594">
        <ele>159</ele>
        <time>2020-05-31T08:16:04Z</time>
      </trkpt>
      <trkpt lat="48.62776" lon="2.05936">
        <ele>159</ele>
        <time>2020-05-31T08:16:06Z</time>
      </trkpt>
      <trkpt lat="48.62776" lon="2.05932">
        <ele>159</ele>
        <time>2020-05-31T08:16:08Z</time>
      </trkpt>
      <trkpt lat="48.62776" lon="2.05928">
        <ele>159</ele>
        <time>2020-05-31T08:16:10Z</time>
      </trkpt>
      <trkpt lat="48.62776" lon="2.05923">
        <ele>159</ele>
        <time>2020-05-31T08:16:12Z</time>
      </trkpt>
      <trkpt lat="48.62775" lon="2.05919">
        <ele>159</ele>
        <time>2020-05-31T08:16:14Z</time>
      </trkpt>
      <trkpt lat="48.62775" lon="2.05915">
        <ele>159</ele>
        <time>2020-05-31T08:16:16Z</time>
      </trkpt>
      <trkpt lat="48.62775" lon="2.05911">
        <ele>160</ele>
        <time>2020-05-31T08:16:18Z</time>
      </trkpt>
      <trkpt lat="48.62775" lon="2.05907">
        <ele>160</ele>
        <time>2020-05-31T08:16:20Z</time>
      </trkpt>
      <trkpt lat="48.62775" lon="2.05903">
        <ele>160</ele>
        <time>2020-05-31T08:16:22Z</time>
      </trkpt>
      <trkpt lat="48.62775" lon="2.05899">
        <ele>160</ele>
        <time>2020-05-31T08:16:24Z</time>
      </trkpt>
      <trkpt lat="48.62774" lon="2.05895">
        <ele>160</ele>
        <time>2020-05-31T08:16:26Z</time>
      </trkpt>
      <trkpt lat="48.62773" lon="2.05891">
        <ele>160</ele>
        <time>2020-05-31T08:16:28Z</time>
      </trkpt>
      <trkpt lat="48.62773" lon="2.05887">
        <ele>160</ele>
        <time>2020-05-31T08:16:30Z</time>
      </trkpt>
      <trkpt lat="48.62773" lon="2.05883">
        <ele>160</ele>
        <time>2020-05-31T08:16:32Z</time>
      </trkpt>
      <trkpt lat="48.62773" lon="2.05879">
        <ele>161</ele>
        <time>2020-05-31T08:16:34Z</time>
      </trkpt>
      <trkpt lat="48.62773" lon="2.05875">
        <ele>161</ele>
        <time>2020-05-31T08:16:36Z</time>
      </trkpt>
      <trkpt lat="48.62773" lon="2.0587">
        <ele>161</ele>
        <time>2020-05-31T08:16:38Z</time>
      </trkpt>
      <trkpt lat="48.62773" lon="2.05866">
        <ele>161</ele>
        <time>2020-05-31T08:16:40Z</time>
      </trkpt>
      <trkpt lat="48.62772" lon="2.05862">
        <ele>161</ele>
        <time>2020-05-31T08:16:42Z</time>
      </trkpt>
      <trkpt lat="48.62771" lon="2.05858">
        <ele>161</ele>
        <time>2020-05-31T08:16:44Z</time>
      </trkpt>
      <trkpt lat="48.62769" lon="2.05855">
        <ele>161</ele>
        <time>2020-05-31T08:16:46Z</time>
      </trkpt>
      <trkpt lat="48.62768" lon="2.05851">
        <ele>161</ele>
        <time>2020-05-31T08:16:48Z</time>
      </trkpt>
      <trkpt lat="48.62767" lon="2.05847">
        <ele>161</ele>
        <time>2020-05-31T08:16:50Z</time>
      </trkpt>
      <trkpt lat="48.62766" lon="2.05844">
        <ele>161</ele>
        <time>2020-05-31T08:16:52Z</time>
      </trkpt>
      <trkpt lat="48.62765" lon="2.0584">
        <ele>161</ele>
        <time>2020-05-31T08:16:54Z</time>
      </trkpt>
      <trkpt lat="48.62764" lon="2.05836">
        <ele>161</ele>
        <time>2020-05-31T08:16:56Z</time>
      </trkpt>
      <trkpt lat="48.62763" lon="2.05832">
        <ele>161</ele>
        <time>2020-05-31T08:16:58Z</time>
      </trkpt>
      <trkpt lat="48.62762" lon="2.05829">
        <ele>161</ele>
        <time>2020-05-31T08:17:00Z</time>
      </trkpt>
      <trkpt lat="48.62761" lon="2.05825">
        <ele>161</ele>
        <time>2020-05-31T08:17:02Z</time>
      </trkpt>
      <trkpt lat="48.6276" lon="2.05821">
        <ele>161</ele>
        <time>2020-05-31T08:17:04Z</time>
      </trkpt>
      <trkpt lat="48.62759" lon="2.05817">
        <ele>161</ele>
        <time>2020-05-31T08:17:06Z</time>
      </trkpt>
      <trkpt lat="48.62758" lon="2.05813">
        <ele>161</ele>
        <time>2020-05-31T08:17:08Z</time>
      </trkpt>
      <trkpt lat="48.62758" lon="2.05809">
        <ele>161</ele>
        <time>2020-05-31T08:17:10Z</time>
      </trkpt>
      <trkpt lat="48.62756" lon="2.05805">
        <ele>161</ele>
        <time>2020-05-31T08:17:12Z</time>
      </trkpt>
      <trkpt lat="48.62755" lon="2.05801">
        <ele>161</ele>
        <time>2020-05-31T08:17:14Z</time>
      </trkpt>
      <trkpt lat="48.62754" lon="2.05797">
        <ele>161</ele>
        <time>2020-05-31T08:17:16Z</time>
      </trkpt>
      <trkpt lat="48.62753" lon="2.05793">
        <ele>161</ele>
        <time>2020-05-31T08:17:18Z</time>
      </trkpt>
      <trkpt lat="48.62752" lon="2.0579">
        <ele>161</ele>
        <time>2020-05-31T08:17:20Z</time>
      </trkpt>
      <trkpt lat="48.62751" lon="2.05786">
        <ele>161</ele>
        <time>2020-05-31T08:17:22Z</time>
      </trkpt>
      <trkpt lat="48.6275" lon="2.05782">
        <ele>160</ele>
        <time>2020-05-31T08:17:24Z</time>
      </trkpt>
      <trkpt lat="48.62749" lon="2.05779">
        <ele>160</ele>
        <time>2020-05-31T08:17:26Z</time>
      </trkpt>
      <trkpt lat="48.62747" lon="2.05775">
        <ele>161</ele>
        <time>2020-05-31T08:17:28Z</time>
      </trkpt>
      <trkpt lat="48.62746" lon="2.05771">
        <ele>161</ele>
        <time>2020-05-31T08:17:30Z</time>
      </trkpt>
      <trkpt lat="48.62745" lon="2.05767">
        <ele>161</ele>
        <time>2020-05-31T08:17:32Z</time>
      </trkpt>
      <trkpt lat="48.62744" lon="2.05764">
        <ele>160</ele>
        <time>2020-05-31T08:17:34Z</time>
      </trkpt>
      <trkpt lat="48.62743" lon="2.0576">
        <ele>160</ele>
        <time>2020-05-31T08:17:36Z</time>
      </trkpt>
      <trkpt lat="48.62742" lon="2.05756">
        <ele>160</ele>
        <time>2020-05-31T08:17:38Z</time>
      </trkpt>
      <trkpt lat="48.6274" lon="2.05753">
        <ele>160</ele>
        <time>2020-05-31T08:17:40Z</time>
      </trkpt>
      <trkpt lat="48.62739" lon="2.05749">
        <ele>160</ele>
        <time>2020-05-31T08:17:42Z</time>
      </trkpt>
      <trkpt lat="48.62738" lon="2.05746">
        <ele>160</ele>
        <time>2020-05-31T08:17:44Z</time>
      </trkpt>
      <trkpt lat="48.62736" lon="2.05744">
        <ele>160</ele>
        <time>2020-05-31T08:17:46Z</time>
      </trkpt>
      <trkpt lat="48.62733" lon="2.05744">
        <ele>160</ele>
        <time>2020-05-31T08:17:48Z</time>
      </trkpt>
      <trkpt lat="48.6273" lon="2.05747">
        <ele>160</ele>
        <time>2020-05-31T08:17:50Z</time>
      </trkpt>
      <trkpt lat="48.62727" lon="2.0575">
        <ele>160</ele>
        <time>2020-05-31T08:17:52Z</time>
      </trkpt>
      <trkpt lat="48.62724" lon="2.05753">
        <ele>160</ele>
        <time>2020-05-31T08:17:54Z</time>
      </trkpt>
      <trkpt lat="48.62722" lon="2.05756">
        <ele>160</ele>
        <time>2020-05-31T08:17:56Z</time>
      </trkpt>
      <trkpt lat="48.6272" lon="2.0576">
        <ele>160</ele>
        <time>2020-05-31T08:17:58Z</time>
      </trkpt>
      <trkpt lat="48.62717" lon="2.05764">
        <ele>160</ele>
        <time>2020-05-31T08:18:00Z</time>
      </trkpt>
      <trkpt lat="48.62716" lon="2.05766">
        <ele>160</ele>
        <time>2020-05-31T08:18:01Z</time>
      </trkpt>
      <trkpt lat="48.62714" lon="2.05768">
        <ele>160</ele>
        <time>2020-05-31T08:18:02Z</time>
      </trkpt>
      <trkpt lat="48.62712" lon="2.05771">
        <ele>160</ele>
        <time>2020-05-31T08:18:03Z</time>
      </trkpt>
      <trkpt lat="48.6271" lon="2.05774">
        <ele>160</ele>
        <time>2020-05-31T08:18:04Z</time>
      </trkpt>
      <trkpt lat="48.62708" lon="2.05777">
        <ele>160</ele>
        <time>2020-05-31T08:18:05Z</time>
      </trkpt>
      <trkpt lat="48.62706" lon="2.0578">
        <ele>160</ele>
        <time>2020-05-31T08:18:06Z</time>
      </trkpt>
      <trkpt lat="48.62704" lon="2.05783">
        <ele>161</ele>
        <time>2020-05-31T08:18:07Z</time>
      </trkpt>
      <trkpt lat="48.62702" lon="2.05786">
        <ele>160</ele>
        <time>2020-05-31T08:18:08Z</time>
      </trkpt>
      <trkpt lat="48.62699" lon="2.0579">
        <ele>160</ele>
        <time>2020-05-31T08:18:09Z</time>
      </trkpt>
      <trkpt lat="48.62697" lon="2.05793">
        <ele>160</ele>
        <time>2020-05-31T08:18:10Z</time>
      </trkpt>
      <trkpt lat="48.62694" lon="2.05797">
        <ele>160</ele>
        <time>2020-05-31T08:18:11Z</time>
      </trkpt>
      <trkpt lat="48.62691" lon="2.058">
        <ele>160</ele>
        <time>2020-05-31T08:18:12Z</time>
      </trkpt>
      <trkpt lat="48.62689" lon="2.05803">
        <ele>160</ele>
        <time>2020-05-31T08:18:13Z</time>
      </trkpt>
      <trkpt lat="48.62687" lon="2.05806">
        <ele>160</ele>
        <time>2020-05-31T08:18:14Z</time>
      </trkpt>
      <trkpt lat="48.62684" lon="2.05809">
        <ele>160</ele>
        <time>2020-05-31T08:18:15Z</time>
      </trkpt>
      <trkpt lat="48.62681" lon="2.05812">
        <ele>160</ele>
        <time>2020-05-31T08:18:16Z</time>
      </trkpt>
      <trkpt lat="48.62679" lon="2.05815">
        <ele>160</ele>
        <time>2020-05-31T08:18:17Z</time>
      </trkpt>
      <trkpt lat="48.62676" lon="2.05818">
        <ele>160</ele>
        <time>2020-05-31T08:18:18Z</time>
      </trkpt>
      <trkpt lat="48.62673" lon="2.05821">
        <ele>160</ele>
        <time>2020-05-31T08:18:19Z</time>
      </trkpt>
      <trkpt lat="48.6267" lon="2.05824">
        <ele>160</ele>
        <time>2020-05-31T08:18:20Z</time>
      </trkpt>
      <trkpt lat="48.62667" lon="2.05826">
        <ele>160</ele>
        <time>2020-05-31T08:18:21Z</time>
      </trkpt>
      <trkpt lat="48.62664" lon="2.05829">
        <ele>160</ele>
        <time>2020-05-31T08:18:22Z</time>
      </trkpt>
      <trkpt lat="48.62661" lon="2.05832">
        <ele>160</ele>
        <time>2020-05-31T08:18:23Z</time>
      </trkpt>
      <trkpt lat="48.62659" lon="2.05834">
        <ele>160</ele>
        <time>2020-05-31T08:18:24Z</time>
      </trkpt>
      <trkpt lat="48.62656" lon="2.05837">
        <ele>160</ele>
        <time>2020-05-31T08:18:25Z</time>
      </trkpt>
      <trkpt lat="48.62653" lon="2.0584">
        <ele>160</ele>
        <time>2020-05-31T08:18:26Z</time>
      </trkpt>
      <trkpt lat="48.6265" lon="2.05843">
        <ele>160</ele>
        <time>2020-05-31T08:18:27Z</time>
      </trkpt>
      <trkpt lat="48.62647" lon="2.05845">
        <ele>160</ele>
        <time>2020-05-31T08:18:28Z</time>
      </trkpt>
      <trkpt lat="48.62644" lon="2.05847">
        <ele>160</ele>
        <time>2020-05-31T08:18:29Z</time>
      </trkpt>
      <trkpt lat="48.62641" lon="2.0585">
        <ele>160</ele>
        <time>2020-05-31T08:18:30Z</time>
      </trkpt>
      <trkpt lat="48.62638" lon="2.05852">
        <ele>160</ele>
        <time>2020-05-31T08:18:31Z</time>
      </trkpt>
      <trkpt lat="48.62634" lon="2.05854">
        <ele>160</ele>
        <time>2020-05-31T08:18:32Z</time>
      </trkpt>
      <trkpt lat="48.62631" lon="2.05857">
        <ele>160</ele>
        <time>2020-05-31T08:18:33Z</time>
      </trkpt>
      <trkpt lat="48.62628" lon="2.05859">
        <ele>160</ele>
        <time>2020-05-31T08:18:34Z</time>
      </trkpt>
      <trkpt lat="48.62625" lon="2.05862">
        <ele>160</ele>
        <time>2020-05-31T08:18:35Z</time>
      </trkpt>
      <trkpt lat="48.62622" lon="2.05864">
        <ele>159</ele>
        <time>2020-05-31T08:18:36Z</time>
      </trkpt>
      <trkpt lat="48.62619" lon="2.05866">
        <ele>159</ele>
        <time>2020-05-31T08:18:37Z</time>
      </trkpt>
      <trkpt lat="48.62616" lon="2.05869">
        <ele>159</ele>
        <time>2020-05-31T08:18:38Z</time>
      </trkpt>
      <trkpt lat="48.62613" lon="2.05871">
        <ele>159</ele>
        <time>2020-05-31T08:18:39Z</time>
      </trkpt>
      <trkpt lat="48.62609" lon="2.05874">
        <ele>159</ele>
        <time>2020-05-31T08:18:40Z</time>
      </trkpt>
      <trkpt lat="48.62606" lon="2.05877">
        <ele>159</ele>
        <time>2020-05-31T08:18:41Z</time>
      </trkpt>
      <trkpt lat="48.62602" lon="2.05879">
        <ele>159</ele>
        <time>2020-05-31T08:18:42Z</time>
      </trkpt>
      <trkpt lat="48.62599" lon="2.05882">
        <ele>159</ele>
        <time>2020-05-31T08:18:43Z</time>
      </trkpt>
      <trkpt lat="48.62595" lon="2.05884">
        <ele>159</ele>
        <time>2020-05-31T08:18:44Z</time>
      </trkpt>
      <trkpt lat="48.62592" lon="2.05886">
        <ele>159</ele>
        <time>2020-05-31T08:18:45Z</time>
      </trkpt>
      <trkpt lat="48.62588" lon="2.05889">
        <ele>159</ele>
        <time>2020-05-31T08:18:46Z</time>
      </trkpt>
      <trkpt lat="48.62585" lon="2.05891">
        <ele>159</ele>
        <time>2020-05-31T08:18:47Z</time>
      </trkpt>
      <trkpt lat="48.62581" lon="2.05894">
        <ele>159</ele>
        <time>2020-05-31T08:18:48Z</time>
      </trkpt>
      <trkpt lat="48.62577" lon="2.05896">
        <ele>159</ele>
        <time>2020-05-31T08:18:49Z</time>
      </trkpt>
      <trkpt lat="48.62574" lon="2.05899">
        <ele>159</ele>
        <time>2020-05-31T08:18:50Z</time>
      </trkpt>
      <trkpt lat="48.6257" lon="2.05901">
        <ele>159</ele>
        <time>2020-05-31T08:18:51Z</time>
      </trkpt>
      <trkpt lat="48.62567" lon="2.05903">
        <ele>159</ele>
        <time>2020-05-31T08:18:52Z</time>
      </trkpt>
      <trkpt lat="48.62563" lon="2.05906">
        <ele>159</ele>
        <time>2020-05-31T08:18:53Z</time>
      </trkpt>
      <trkpt lat="48.6256" lon="2.05908">
        <ele>159</ele>
        <time>2020-05-31T08:18:54Z</time>
      </trkpt>
      <trkpt lat="48.62556" lon="2.05911">
        <ele>159</ele>
        <time>2020-05-31T08:18:55Z</time>
      </trkpt>
      <trkpt lat="48.62553" lon="2.05913">
        <ele>159</ele>
        <time>2020-05-31T08:18:56Z</time>
      </trkpt>
      <trkpt lat="48.62549" lon="2.05915">
        <ele>159</ele>
        <time>2020-05-31T08:18:57Z</time>
      </trkpt>
      <trkpt lat="48.62545" lon="2.05918">
        <ele>159</ele>
        <time>2020-05-31T08:18:58Z</time>
      </trkpt>
      <trkpt lat="48.62542" lon="2.05921">
        <ele>159</ele>
        <time>2020-05-31T08:18:59Z</time>
      </trkpt>
      <trkpt lat="48.62538" lon="2.05924">
        <ele>159</ele>
        <time>2020-05-31T08:19:00Z</time>
      </trkpt>
      <trkpt lat="48.62534" lon="2.05926">
        <ele>159</ele>
        <time>2020-05-31T08:19:01Z</time>
      </trkpt>
      <trkpt lat="48.6253" lon="2.05929">
        <ele>159</ele>
        <time>2020-05-31T08:19:02Z</time>
      </trkpt>
      <trkpt lat="48.62527" lon="2.05932">
        <ele>159</ele>
        <time>2020-05-31T08:19:03Z</time>
      </trkpt>
      <trkpt lat="48.62523" lon="2.05934">
        <ele>159</ele>
        <time>2020-05-31T08:19:04Z</time>
      </trkpt>
      <trkpt lat="48.6252" lon="2.05937">
        <ele>159</ele>
        <time>2020-05-31T08:19:05Z</time>
      </trkpt>
      <trkpt lat="48.62516" lon="2.0594">
        <ele>159</ele>
        <time>2020-05-31T08:19:06Z</time>
      </trkpt>
      <trkpt lat="48.62513" lon="2.05943">
        <ele>159</ele>
        <time>2020-05-31T08:19:07Z</time>
      </trkpt>
      <trkpt lat="48.62509" lon="2.05946">
        <ele>159</ele>
        <time>2020-05-31T08:19:08Z</time>
      </trkpt>
      <trkpt lat="48.62506" lon="2.0595">
        <ele>159</ele>
        <time>2020-05-31T08:19:09Z</time>
      </trkpt>
      <trkpt lat="48.62503" lon="2.05953">
        <ele>159</ele>
        <time>2020-05-31T08:19:10Z</time>
      </trkpt>
      <trkpt lat="48.62499" lon="2.05957">
        <ele>159</ele>
        <time>2020-05-31T08:19:11Z</time>
      </trkpt>
      <trkpt lat="48.62496" lon="2.05961">
        <ele>159</ele>
        <time>2020-05-31T08:19:12Z</time>
      </trkpt>
      <trkpt lat="48.62492" lon="2.05964">
        <ele>159</ele>
        <time>2020-05-31T08:19:13Z</time>
      </trkpt>
      <trkpt lat="48.62489" lon="2.05968">
        <ele>159</ele>
        <time>2020-05-31T08:19:14Z</time>
      </trkpt>
      <trkpt lat="48.62485" lon="2.05971">
        <ele>159</ele>
        <time>2020-05-31T08:19:15Z</time>
      </trkpt>
      <trkpt lat="48.62482" lon="2.05975">
        <ele>159</ele>
        <time>2020-05-31T08:19:16Z</time>
      </trkpt>
      <trkpt lat="48.62479" lon="2.05979">
        <ele>159</ele>
        <time>2020-05-31T08:19:17Z</time>
      </trkpt>
      <trkpt lat="48.62475" lon="2.05983">
        <ele>159</ele>
        <time>2020-05-31T08:19:18Z</time>
      </trkpt>
      <trkpt lat="48.62472" lon="2.05987">
        <ele>158</ele>
        <time>2020-05-31T08:19:19Z</time>
      </trkpt>
      <trkpt lat="48.62469" lon="2.0599">
        <ele>158</ele>
        <time>2020-05-31T08:19:20Z</time>
      </trkpt>
      <trkpt lat="48.62466" lon="2.05994">
        <ele>158</ele>
        <time>2020-05-31T08:19:21Z</time>
      </trkpt>
      <trkpt lat="48.62463" lon="2.05998">
        <ele>158</ele>
        <time>2020-05-31T08:19:22Z</time>
      </trkpt>
      <trkpt lat="48.6246" lon="2.06001">
        <ele>158</ele>
        <time>2020-05-31T08:19:23Z</time>
      </trkpt>
      <trkpt lat="48.62457" lon="2.06005">
        <ele>158</ele>
        <time>2020-05-31T08:19:24Z</time>
      </trkpt>
      <trkpt lat="48.62453" lon="2.06009">
        <ele>158</ele>
        <time>2020-05-31T08:19:25Z</time>
      </trkpt>
      <trkpt lat="48.6245" lon="2.06013">
        <ele>158</ele>
        <time>2020-05-31T08:19:26Z</time>
      </trkpt>
      <trkpt lat="48.62447" lon="2.06016">
        <ele>158</ele>
        <time>2020-05-31T08:19:27Z</time>
      </trkpt>
      <trkpt lat="48.62444" lon="2.0602">
        <ele>158</ele>
        <time>2020-05-31T08:19:28Z</time>
      </trkpt>
      <trkpt lat="48.62441" lon="2.06024">
        <ele>158</ele>
        <time>2020-05-31T08:19:29Z</time>
      </trkpt>
      <trkpt lat="48.62438" lon="2.06028">
        <ele>158</ele>
        <time>2020-05-31T08:19:30Z</time>
      </trkpt>
      <trkpt lat="48.62434" lon="2.06031">
        <ele>158</ele>
        <time>2020-05-31T08:19:31Z</time>
      </trkpt>
      <trkpt lat="48.62431" lon="2.06035">
        <ele>158</ele>
        <time>2020-05-31T08:19:32Z</time>
      </trkpt>
      <trkpt lat="48.62428" lon="2.06038">
        <ele>158</ele>
        <time>2020-05-31T08:19:33Z</time>
      </trkpt>
      <trkpt lat="48.62424" lon="2.06041">
        <ele>158</ele>
        <time>2020-05-31T08:19:34Z</time>
      </trkpt>
      <trkpt lat="48.62421" lon="2.06045">
        <ele>158</ele>
        <time>2020-05-31T08:19:35Z</time>
      </trkpt>
      <trkpt lat="48.62417" lon="2.06048">
        <ele>158</ele>
        <time>2020-05-31T08:19:36Z</time>
      </trkpt>
      <trkpt lat="48.62414" lon="2.06052">
        <ele>158</ele>
        <time>2020-05-31T08:19:37Z</time>
      </trkpt>
      <trkpt lat="48.6241" lon="2.06055">
        <ele>158</ele>
        <time>2020-05-31T08:19:38Z</time>
      </trkpt>
      <trkpt lat="48.62406" lon="2.06058">
        <ele>158</ele>
        <time>2020-05-31T08:19:39Z</time>
      </trkpt>
      <trkpt lat="48.62403" lon="2.06061">
        <ele>158</ele>
        <time>2020-05-31T08:19:40Z</time>
      </trkpt>
      <trkpt lat="48.62399" lon="2.06064">
        <ele>158</ele>
        <time>2020-05-31T08:19:41Z</time>
      </trkpt>
      <trkpt lat="48.62396" lon="2.06067">
        <ele>158</ele>
        <time>2020-05-31T08:19:42Z</time>
      </trkpt>
      <trkpt lat="48.62392" lon="2.0607">
        <ele>158</ele>
        <time>2020-05-31T08:19:43Z</time>
      </trkpt>
      <trkpt lat="48.62388" lon="2.06073">
        <ele>158</ele>
        <time>2020-05-31T08:19:44Z</time>
      </trkpt>
      <trkpt lat="48.62385" lon="2.06075">
        <ele>158</ele>
        <time>2020-05-31T08:19:45Z</time>
      </trkpt>
      <trkpt lat="48.62381" lon="2.06078">
        <ele>158</ele>
        <time>2020-05-31T08:19:46Z</time>
      </trkpt>
      <trkpt lat="48.62377" lon="2.06081">
        <ele>158</ele>
        <time>2020-05-31T08:19:47Z</time>
      </trkpt>
      <trkpt lat="48.62373" lon="2.06084">
        <ele>158</ele>
        <time>2020-05-31T08:19:48Z</time>
      </trkpt>
      <trkpt lat="48.62369" lon="2.06087">
        <ele>158</ele>
        <time>2020-05-31T08:19:49Z</time>
      </trkpt>
      <trkpt lat="48.62366" lon="2.06089">
        <ele>158</ele>
        <time>2020-05-31T08:19:50Z</time>
      </trkpt>
      <trkpt lat="48.62362" lon="2.06093">
        <ele>158</ele>
        <time>2020-05-31T08:19:51Z</time>
      </trkpt>
      <trkpt lat="48.62358" lon="2.06095">
        <ele>158</ele>
        <time>2020-05-31T08:19:52Z</time>
      </trkpt>
      <trkpt lat="48.62354" lon="2.06098">
        <ele>158</ele>
        <time>2020-05-31T08:19:53Z</time>
      </trkpt>
      <trkpt lat="48.62351" lon="2.06101">
        <ele>158</ele>
        <time>2020-05-31T08:19:54Z</time>
      </trkpt>
      <trkpt lat="48.62348" lon="2.06103">
        <ele>158</ele>
        <time>2020-05-31T08:19:55Z</time>
      </trkpt>
      <trkpt lat="48.62345" lon="2.06105">
        <ele>158</ele>
        <time>2020-05-31T08:19:56Z</time>
      </trkpt>
      <trkpt lat="48.62342" lon="2.06107">
        <ele>158</ele>
        <time>2020-05-31T08:19:57Z</time>
      </trkpt>
      <trkpt lat="48.62339" lon="2.06108">
        <ele>158</ele>
        <time>2020-05-31T08:19:58Z</time>
      </trkpt>
      <trkpt lat="48.62337" lon="2.06106">
        <ele>158</ele>
        <time>2020-05-31T08:19:59Z</time>
      </trkpt>
      <trkpt lat="48.62335" lon="2.06105">
        <ele>159</ele>
        <time>2020-05-31T08:20:12Z</time>
      </trkpt>
      <trkpt lat="48.62337" lon="2.06107">
        <ele>159</ele>
        <time>2020-05-31T08:20:34Z</time>
      </trkpt>
      <trkpt lat="48.62336" lon="2.06109">
        <ele>160</ele>
        <time>2020-05-31T08:20:38Z</time>
      </trkpt>
      <trkpt lat="48.62334" lon="2.06111">
        <ele>160</ele>
        <time>2020-05-31T08:20:41Z</time>
      </trkpt>
      <trkpt lat="48.62332" lon="2.0611">
        <ele>160</ele>
        <time>2020-05-31T08:23:08Z</time>
      </trkpt>
      <trkpt lat="48.62331" lon="2.06108">
        <ele>160</ele>
        <time>2020-05-31T08:23:32Z</time>
      </trkpt>
      <trkpt lat="48.62331" lon="2.06111">
        <ele>159</ele>
        <time>2020-05-31T08:23:39Z</time>
      </trkpt>
      <trkpt lat="48.62332" lon="2.06114">
        <ele>159</ele>
        <time>2020-05-31T08:23:46Z</time>
      </trkpt>
      <trkpt lat="48.62333" lon="2.06112">
        <ele>160</ele>
        <time>2020-05-31T08:23:52Z</time>
      </trkpt>
      <trkpt lat="48.62334" lon="2.06115">
        <ele>161</ele>
        <time>2020-05-31T08:24:11Z</time>
      </trkpt>
      <trkpt lat="48.62335" lon="2.06112">
        <ele>162</ele>
        <time>2020-05-31T08:24:31Z</time>
      </trkpt>
      <trkpt lat="48.62336" lon="2.06109">
        <ele>162</ele>
        <time>2020-05-31T08:24:33Z</time>
      </trkpt>
      <trkpt lat="48.62337" lon="2.06105">
        <ele>162</ele>
        <time>2020-05-31T08:24:36Z</time>
      </trkpt>
      <trkpt lat="48.62337" lon="2.06101">
        <ele>162</ele>
        <time>2020-05-31T08:24:38Z</time>
      </trkpt>
      <trkpt lat="48.62337" lon="2.06096">
        <ele>162</ele>
        <time>2020-05-31T08:24:40Z</time>
      </trkpt>
      <trkpt lat="48.62336" lon="2.06092">
        <ele>162</ele>
        <time>2020-05-31T08:24:42Z</time>
      </trkpt>
      <trkpt lat="48.62335" lon="2.06087">
        <ele>161</ele>
        <time>2020-05-31T08:24:44Z</time>
      </trkpt>
      <trkpt lat="48.62334" lon="2.06083">
        <ele>161</ele>
        <time>2020-05-31T08:24:46Z</time>
      </trkpt>
      <trkpt lat="48.62332" lon="2.06078">
        <ele>161</ele>
        <time>2020-05-31T08:24:48Z</time>
      </trkpt>
      <trkpt lat="48.62332" lon="2.06076">
        <ele>161</ele>
        <time>2020-05-31T08:24:49Z</time>
      </trkpt>
      <trkpt lat="48.62331" lon="2.06073">
        <ele>161</ele>
        <time>2020-05-31T08:24:50Z</time>
      </trkpt>
      <trkpt lat="48.6233" lon="2.06069">
        <ele>161</ele>
        <time>2020-05-31T08:24:51Z</time>
      </trkpt>
      <trkpt lat="48.62328" lon="2.06066">
        <ele>161</ele>
        <time>2020-05-31T08:24:52Z</time>
      </trkpt>
      <trkpt lat="48.62327" lon="2.06063">
        <ele>161</ele>
        <time>2020-05-31T08:24:53Z</time>
      </trkpt>
      <trkpt lat="48.62326" lon="2.06059">
        <ele>161</ele>
        <time>2020-05-31T08:24:54Z</time>
      </trkpt>
      <trkpt lat="48.62325" lon="2.06055">
        <ele>161</ele>
        <time>2020-05-31T08:24:55Z</time>
      </trkpt>
      <trkpt lat="48.62323" lon="2.06051">
        <ele>161</ele>
        <time>2020-05-31T08:24:56Z</time>
      </trkpt>
      <trkpt lat="48.62322" lon="2.06047">
        <ele>161</ele>
        <time>2020-05-31T08:24:57Z</time>
      </trkpt>
      <trkpt lat="48.62321" lon="2.06043">
        <ele>161</ele>
        <time>2020-05-31T08:24:58Z</time>
      </trkpt>
      <trkpt lat="48.6232" lon="2.06039">
        <ele>161</ele>
        <time>2020-05-31T08:24:59Z</time>
      </trkpt>
      <trkpt lat="48.62318" lon="2.06035">
        <ele>161</ele>
        <time>2020-05-31T08:25:00Z</time>
      </trkpt>
      <trkpt lat="48.62317" lon="2.06031">
        <ele>161</ele>
        <time>2020-05-31T08:25:01Z</time>
      </trkpt>
      <trkpt lat="48.62316" lon="2.06027">
        <ele>161</ele>
        <time>2020-05-31T08:25:02Z</time>
      </trkpt>
      <trkpt lat="48.62314" lon="2.06023">
        <ele>161</ele>
        <time>2020-05-31T08:25:03Z</time>
      </trkpt>
      <trkpt lat="48.62313" lon="2.06018">
        <ele>161</ele>
        <time>2020-05-31T08:25:04Z</time>
      </trkpt>
      <trkpt lat="48.62311" lon="2.06014">
        <ele>161</ele>
        <time>2020-05-31T08:25:05Z</time>
      </trkpt>
      <trkpt lat="48.6231" lon="2.0601">
        <ele>161</ele>
        <time>2020-05-31T08:25:06Z</time>
      </trkpt>
      <trkpt lat="48.62308" lon="2.06007">
        <ele>161</ele>
        <time>2020-05-31T08:25:07Z</time>
      </trkpt>
      <trkpt lat="48.62307" lon="2.06003">
        <ele>161</ele>
        <time>2020-05-31T08:25:08Z</time>
      </trkpt>
      <trkpt lat="48.62305" lon="2.05999">
        <ele>161</ele>
        <time>2020-05-31T08:25:09Z</time>
      </trkpt>
      <trkpt lat="48.62304" lon="2.05996">
        <ele>161</ele>
        <time>2020-05-31T08:25:10Z</time>
      </trkpt>
      <trkpt lat="48.62302" lon="2.05992">
        <ele>161</ele>
        <time>2020-05-31T08:25:11Z</time>
      </trkpt>
      <trkpt lat="48.62301" lon="2.05988">
        <ele>161</ele>
        <time>2020-05-31T08:25:12Z</time>
      </trkpt>
      <trkpt lat="48.623" lon="2.05984">
        <ele>161</ele>
        <time>2020-05-31T08:25:13Z</time>
      </trkpt>
      <trkpt lat="48.62298" lon="2.0598">
        <ele>161</ele>
        <time>2020-05-31T08:25:14Z</time>
      </trkpt>
      <trkpt lat="48.62297" lon="2.05975">
        <ele>161</ele>
        <time>2020-05-31T08:25:15Z</time>
      </trkpt>
      <trkpt lat="48.62296" lon="2.05971">
        <ele>161</ele>
        <time>2020-05-31T08:25:16Z</time>
      </trkpt>
      <trkpt lat="48.62294" lon="2.05967">
        <ele>161</ele>
        <time>2020-05-31T08:25:17Z</time>
      </trkpt>
      <trkpt lat="48.62293" lon="2.05962">
        <ele>161</ele>
        <time>2020-05-31T08:25:18Z</time>
      </trkpt>
      <trkpt lat="48.62291" lon="2.05958">
        <ele>161</ele>
        <time>2020-05-31T08:25:19Z</time>
      </trkpt>
      <trkpt lat="48.6229" lon="2.05953">
        <ele>161</ele>
        <time>2020-05-31T08:25:20Z</time>
      </trkpt>
      <trkpt lat="48.62289" lon="2.05948">
        <ele>161</ele>
        <time>2020-05-31T08:25:21Z</time>
      </trkpt>
      <trkpt lat="48.62288" lon="2.05943">
        <ele>161</ele>
        <time>2020-05-31T08:25:22Z</time>
      </trkpt>
      <trkpt lat="48.62287" lon="2.05939">
        <ele>161</ele>
        <time>2020-05-31T08:25:23Z</time>
      </trkpt>
      <trkpt lat="48.62286" lon="2.05934">
        <ele>160</ele>
        <time>2020-05-31T08:25:24Z</time>
      </trkpt>
      <trkpt lat="48.62284" lon="2.05929">
        <ele>160</ele>
        <time>2020-05-31T08:25:25Z</time>
      </trkpt>
      <trkpt lat="48.62283" lon="2.05924">
        <ele>160</ele>
        <time>2020-05-31T08:25:26Z</time>
      </trkpt>
      <trkpt lat="48.62282" lon="2.05919">
        <ele>160</ele>
        <time>2020-05-31T08:25:27Z</time>
      </trkpt>
      <trkpt lat="48.6228" lon="2.05914">
        <ele>161</ele>
        <time>2020-05-31T08:25:28Z</time>
      </trkpt>
      <trkpt lat="48.62279" lon="2.05909">
        <ele>161</ele>
        <time>2020-05-31T08:25:29Z</time>
      </trkpt>
      <trkpt lat="48.62277" lon="2.05904">
        <ele>161</ele>
        <time>2020-05-31T08:25:30Z</time>
      </trkpt>
      <trkpt lat="48.62275" lon="2.05899">
        <ele>161</ele>
        <time>2020-05-31T08:25:31Z</time>
      </trkpt>
      <trkpt lat="48.62273" lon="2.05894">
        <ele>161</ele>
        <time>2020-05-31T08:25:32Z</time>
      </trkpt>
      <trkpt lat="48.62271" lon="2.05889">
        <ele>161</ele>
        <time>2020-05-31T08:25:33Z</time>
      </trkpt>
      <trkpt lat="48.6227" lon="2.05885">
        <ele>161</ele>
        <time>2020-05-31T08:25:34Z</time>
      </trkpt>
      <trkpt lat="48.62268" lon="2.0588">
        <ele>161</ele>
        <time>2020-05-31T08:25:35Z</time>
      </trkpt>
      <trkpt lat="48.62265" lon="2.05875">
        <ele>161</ele>
        <time>2020-05-31T08:25:36Z</time>
      </trkpt>
      <trkpt lat="48.62263" lon="2.0587">
        <ele>160</ele>
        <time>2020-05-31T08:25:37Z</time>
      </trkpt>
      <trkpt lat="48.62261" lon="2.05866">
        <ele>160</ele>
        <time>2020-05-31T08:25:38Z</time>
      </trkpt>
      <trkpt lat="48.62259" lon="2.05861">
        <ele>161</ele>
        <time>2020-05-31T08:25:39Z</time>
      </trkpt>
      <trkpt lat="48.62257" lon="2.05856">
        <ele>160</ele>
        <time>2020-05-31T08:25:40Z</time>
      </trkpt>
      <trkpt lat="48.62255" lon="2.05852">
        <ele>160</ele>
        <time>2020-05-31T08:25:41Z</time>
      </trkpt>
      <trkpt lat="48.62253" lon="2.05847">
        <ele>160</ele>
        <time>2020-05-31T08:25:42Z</time>
      </trkpt>
      <trkpt lat="48.62251" lon="2.05843">
        <ele>160</ele>
        <time>2020-05-31T08:25:43Z</time>
      </trkpt>
      <trkpt lat="48.62249" lon="2.05838">
        <ele>160</ele>
        <time>2020-05-31T08:25:44Z</time>
      </trkpt>
      <trkpt lat="48.62247" lon="2.05833">
        <ele>160</ele>
        <time>2020-05-31T08:25:45Z</time>
      </trkpt>
      <trkpt lat="48.62245" lon="2.05829">
        <ele>160</ele>
        <time>2020-05-31T08:25:46Z</time>
      </trkpt>
      <trkpt lat="48.62243" lon="2.05825">
        <ele>160</ele>
        <time>2020-05-31T08:25:47Z</time>
      </trkpt>
      <trkpt lat="48.62241" lon="2.05821">
        <ele>160</ele>
        <time>2020-05-31T08:25:48Z</time>
      </trkpt>
      <trkpt lat="48.62239" lon="2.05817">
        <ele>160</ele>
        <time>2020-05-31T08:25:49Z</time>
      </trkpt>
      <trkpt lat="48.62237" lon="2.05812">
        <ele>160</ele>
        <time>2020-05-31T08:25:50Z</time>
      </trkpt>
      <trkpt lat="48.62235" lon="2.05808">
        <ele>160</ele>
        <time>2020-05-31T08:25:51Z</time>
      </trkpt>
      <trkpt lat="48.62233" lon="2.05804">
        <ele>160</ele>
        <time>2020-05-31T08:25:52Z</time>
      </trkpt>
      <trkpt lat="48.62231" lon="2.05799">
        <ele>160</ele>
        <time>2020-05-31T08:25:53Z</time>
      </trkpt>
      <trkpt lat="48.62229" lon="2.05795">
        <ele>160</ele>
        <time>2020-05-31T08:25:54Z</time>
      </trkpt>
      <trkpt lat="48.62227" lon="2.05791">
        <ele>160</ele>
        <time>2020-05-31T08:25:55Z</time>
      </trkpt>
      <trkpt lat="48.62225" lon="2.05787">
        <ele>160</ele>
        <time>2020-05-31T08:25:56Z</time>
      </trkpt>
      <trkpt lat="48.62223" lon="2.05783">
        <ele>160</ele>
        <time>2020-05-31T08:25:57Z</time>
      </trkpt>
      <trkpt lat="48.62221" lon="2.05778">
        <ele>161</ele>
        <time>2020-05-31T08:25:58Z</time>
      </trkpt>
      <trkpt lat="48.6222" lon="2.05774">
        <ele>161</ele>
        <time>2020-05-31T08:25:59Z</time>
      </trkpt>
      <trkpt lat="48.62218" lon="2.0577">
        <ele>161</ele>
        <time>2020-05-31T08:26:00Z</time>
      </trkpt>
      <trkpt lat="48.62217" lon="2.05767">
        <ele>161</ele>
        <time>2020-05-31T08:26:01Z</time>
      </trkpt>
      <trkpt lat="48.62216" lon="2.05764">
        <ele>161</ele>
        <time>2020-05-31T08:26:02Z</time>
      </trkpt>
      <trkpt lat="48.62215" lon="2.05762">
        <ele>161</ele>
        <time>2020-05-31T08:26:03Z</time>
      </trkpt>
      <trkpt lat="48.62214" lon="2.05759">
        <ele>161</ele>
        <time>2020-05-31T08:26:05Z</time>
      </trkpt>
      <trkpt lat="48.62213" lon="2.05755">
        <ele>161</ele>
        <time>2020-05-31T08:26:07Z</time>
      </trkpt>
      <trkpt lat="48.62212" lon="2.05752">
        <ele>161</ele>
        <time>2020-05-31T08:26:09Z</time>
      </trkpt>
      <trkpt lat="48.62211" lon="2.05747">
        <ele>161</ele>
        <time>2020-05-31T08:26:11Z</time>
      </trkpt>
      <trkpt lat="48.62211" lon="2.05742">
        <ele>161</ele>
        <time>2020-05-31T08:26:13Z</time>
      </trkpt>
      <trkpt lat="48.62211" lon="2.05739">
        <ele>161</ele>
        <time>2020-05-31T08:26:14Z</time>
      </trkpt>
      <trkpt lat="48.62212" lon="2.05736">
        <ele>161</ele>
        <time>2020-05-31T08:26:15Z</time>
      </trkpt>
      <trkpt lat="48.62213" lon="2.05732">
        <ele>161</ele>
        <time>2020-05-31T08:26:16Z</time>
      </trkpt>
      <trkpt lat="48.62213" lon="2.05728">
        <ele>162</ele>
        <time>2020-05-31T08:26:17Z</time>
      </trkpt>
      <trkpt lat="48.62214" lon="2.05724">
        <ele>162</ele>
        <time>2020-05-31T08:26:18Z</time>
      </trkpt>
      <trkpt lat="48.62214" lon="2.05721">
        <ele>162</ele>
        <time>2020-05-31T08:26:19Z</time>
      </trkpt>
      <trkpt lat="48.62215" lon="2.05718">
        <ele>162</ele>
        <time>2020-05-31T08:26:20Z</time>
      </trkpt>
      <trkpt lat="48.62215" lon="2.05715">
        <ele>162</ele>
        <time>2020-05-31T08:26:21Z</time>
      </trkpt>
      <trkpt lat="48.62217" lon="2.05711">
        <ele>162</ele>
        <time>2020-05-31T08:26:23Z</time>
      </trkpt>
      <trkpt lat="48.62217" lon="2.05706">
        <ele>162</ele>
        <time>2020-05-31T08:26:25Z</time>
      </trkpt>
      <trkpt lat="48.62218" lon="2.05701">
        <ele>162</ele>
        <time>2020-05-31T08:26:27Z</time>
      </trkpt>
      <trkpt lat="48.62219" lon="2.05696">
        <ele>162</ele>
        <time>2020-05-31T08:26:29Z</time>
      </trkpt>
      <trkpt lat="48.62219" lon="2.05691">
        <ele>162</ele>
        <time>2020-05-31T08:26:31Z</time>
      </trkpt>
      <trkpt lat="48.62219" lon="2.05686">
        <ele>162</ele>
        <time>2020-05-31T08:26:33Z</time>
      </trkpt>
      <trkpt lat="48.62219" lon="2.05682">
        <ele>162</ele>
        <time>2020-05-31T08:26:35Z</time>
      </trkpt>
      <trkpt lat="48.62219" lon="2.05677">
        <ele>163</ele>
        <time>2020-05-31T08:26:37Z</time>
      </trkpt>
      <trkpt lat="48.6222" lon="2.05673">
        <ele>163</ele>
        <time>2020-05-31T08:26:39Z</time>
      </trkpt>
      <trkpt lat="48.6222" lon="2.05668">
        <ele>162</ele>
        <time>2020-05-31T08:26:41Z</time>
      </trkpt>
      <trkpt lat="48.62221" lon="2.05665">
        <ele>162</ele>
        <time>2020-05-31T08:26:42Z</time>
      </trkpt>
      <trkpt lat="48.62221" lon="2.05661">
        <ele>162</ele>
        <time>2020-05-31T08:26:44Z</time>
      </trkpt>
      <trkpt lat="48.62221" lon="2.05657">
        <ele>162</ele>
        <time>2020-05-31T08:26:46Z</time>
      </trkpt>
      <trkpt lat="48.62222" lon="2.05654">
        <ele>162</ele>
        <time>2020-05-31T08:26:48Z</time>
      </trkpt>
      <trkpt lat="48.62222" lon="2.05651">
        <ele>162</ele>
        <time>2020-05-31T08:26:50Z</time>
      </trkpt>
      <trkpt lat="48.62222" lon="2.05646">
        <ele>162</ele>
        <time>2020-05-31T08:26:52Z</time>
      </trkpt>
      <trkpt lat="48.62222" lon="2.05643">
        <ele>162</ele>
        <time>2020-05-31T08:26:53Z</time>
      </trkpt>
      <trkpt lat="48.62222" lon="2.0564">
        <ele>162</ele>
        <time>2020-05-31T08:26:54Z</time>
      </trkpt>
      <trkpt lat="48.62223" lon="2.05638">
        <ele>162</ele>
        <time>2020-05-31T08:26:55Z</time>
      </trkpt>
      <trkpt lat="48.62224" lon="2.05634">
        <ele>162</ele>
        <time>2020-05-31T08:26:57Z</time>
      </trkpt>
      <trkpt lat="48.62225" lon="2.0563">
        <ele>162</ele>
        <time>2020-05-31T08:26:59Z</time>
      </trkpt>
      <trkpt lat="48.62225" lon="2.05627">
        <ele>162</ele>
        <time>2020-05-31T08:27:00Z</time>
      </trkpt>
      <trkpt lat="48.62225" lon="2.05624">
        <ele>162</ele>
        <time>2020-05-31T08:27:01Z</time>
      </trkpt>
      <trkpt lat="48.62225" lon="2.05622">
        <ele>162</ele>
        <time>2020-05-31T08:27:02Z</time>
      </trkpt>
      <trkpt lat="48.62225" lon="2.05616">
        <ele>162</ele>
        <time>2020-05-31T08:27:04Z</time>
      </trkpt>
      <trkpt lat="48.62225" lon="2.05612">
        <ele>162</ele>
        <time>2020-05-31T08:27:06Z</time>
      </trkpt>
      <trkpt lat="48.62225" lon="2.05608">
        <ele>162</ele>
        <time>2020-05-31T08:27:08Z</time>
      </trkpt>
      <trkpt lat="48.62225" lon="2.05604">
        <ele>162</ele>
        <time>2020-05-31T08:27:10Z</time>
      </trkpt>
      <trkpt lat="48.62226" lon="2.056">
        <ele>163</ele>
        <time>2020-05-31T08:27:12Z</time>
      </trkpt>
      <trkpt lat="48.62226" lon="2.05597">
        <ele>163</ele>
        <time>2020-05-31T08:27:14Z</time>
      </trkpt>
      <trkpt lat="48.62226" lon="2.05593">
        <ele>163</ele>
        <time>2020-05-31T08:27:16Z</time>
      </trkpt>
      <trkpt lat="48.62226" lon="2.05587">
        <ele>163</ele>
        <time>2020-05-31T08:27:18Z</time>
      </trkpt>
      <trkpt lat="48.62227" lon="2.05584">
        <ele>163</ele>
        <time>2020-05-31T08:27:20Z</time>
      </trkpt>
      <trkpt lat="48.62228" lon="2.05581">
        <ele>163</ele>
        <time>2020-05-31T08:27:24Z</time>
      </trkpt>
      <trkpt lat="48.62228" lon="2.05577">
        <ele>163</ele>
        <time>2020-05-31T08:27:26Z</time>
      </trkpt>
      <trkpt lat="48.62229" lon="2.05572">
        <ele>164</ele>
        <time>2020-05-31T08:27:28Z</time>
      </trkpt>
      <trkpt lat="48.62229" lon="2.05569">
        <ele>164</ele>
        <time>2020-05-31T08:27:29Z</time>
      </trkpt>
      <trkpt lat="48.62229" lon="2.05564">
        <ele>164</ele>
        <time>2020-05-31T08:27:31Z</time>
      </trkpt>
      <trkpt lat="48.6223" lon="2.0556">
        <ele>165</ele>
        <time>2020-05-31T08:27:33Z</time>
      </trkpt>
      <trkpt lat="48.6223" lon="2.05555">
        <ele>165</ele>
        <time>2020-05-31T08:27:35Z</time>
      </trkpt>
      <trkpt lat="48.62231" lon="2.05552">
        <ele>165</ele>
        <time>2020-05-31T08:27:36Z</time>
      </trkpt>
      <trkpt lat="48.62231" lon="2.05547">
        <ele>165</ele>
        <time>2020-05-31T08:27:38Z</time>
      </trkpt>
      <trkpt lat="48.62231" lon="2.05544">
        <ele>165</ele>
        <time>2020-05-31T08:27:39Z</time>
      </trkpt>
      <trkpt lat="48.62231" lon="2.05541">
        <ele>165</ele>
        <time>2020-05-31T08:27:40Z</time>
      </trkpt>
      <trkpt lat="48.62231" lon="2.05538">
        <ele>165</ele>
        <time>2020-05-31T08:27:41Z</time>
      </trkpt>
      <trkpt lat="48.62231" lon="2.05535">
        <ele>165</ele>
        <time>2020-05-31T08:27:42Z</time>
      </trkpt>
      <trkpt lat="48.62232" lon="2.05531">
        <ele>165</ele>
        <time>2020-05-31T08:27:44Z</time>
      </trkpt>
      <trkpt lat="48.62232" lon="2.05527">
        <ele>165</ele>
        <time>2020-05-31T08:27:46Z</time>
      </trkpt>
      <trkpt lat="48.62232" lon="2.05523">
        <ele>165</ele>
        <time>2020-05-31T08:27:48Z</time>
      </trkpt>
      <trkpt lat="48.62233" lon="2.0552">
        <ele>165</ele>
        <time>2020-05-31T08:27:50Z</time>
      </trkpt>
      <trkpt lat="48.62234" lon="2.05515">
        <ele>165</ele>
        <time>2020-05-31T08:27:52Z</time>
      </trkpt>
      <trkpt lat="48.62235" lon="2.05511">
        <ele>165</ele>
        <time>2020-05-31T08:27:54Z</time>
      </trkpt>
      <trkpt lat="48.62236" lon="2.05507">
        <ele>165</ele>
        <time>2020-05-31T08:27:56Z</time>
      </trkpt>
      <trkpt lat="48.62237" lon="2.05504">
        <ele>165</ele>
        <time>2020-05-31T08:27:58Z</time>
      </trkpt>
      <trkpt lat="48.62237" lon="2.05501">
        <ele>165</ele>
        <time>2020-05-31T08:28:00Z</time>
      </trkpt>
      <trkpt lat="48.62238" lon="2.05497">
        <ele>164</ele>
        <time>2020-05-31T08:28:02Z</time>
      </trkpt>
      <trkpt lat="48.62238" lon="2.05493">
        <ele>164</ele>
        <time>2020-05-31T08:28:04Z</time>
      </trkpt>
      <trkpt lat="48.62238" lon="2.05488">
        <ele>164</ele>
        <time>2020-05-31T08:28:06Z</time>
      </trkpt>
      <trkpt lat="48.62238" lon="2.05483">
        <ele>163</ele>
        <time>2020-05-31T08:28:08Z</time>
      </trkpt>
      <trkpt lat="48.62239" lon="2.05479">
        <ele>163</ele>
        <time>2020-05-31T08:28:10Z</time>
      </trkpt>
      <trkpt lat="48.6224" lon="2.05475">
        <ele>162</ele>
        <time>2020-05-31T08:28:12Z</time>
      </trkpt>
      <trkpt lat="48.62241" lon="2.0547">
        <ele>162</ele>
        <time>2020-05-31T08:28:14Z</time>
      </trkpt>
      <trkpt lat="48.62242" lon="2.05466">
        <ele>162</ele>
        <time>2020-05-31T08:28:16Z</time>
      </trkpt>
      <trkpt lat="48.62243" lon="2.05462">
        <ele>163</ele>
        <time>2020-05-31T08:28:18Z</time>
      </trkpt>
      <trkpt lat="48.62243" lon="2.05458">
        <ele>163</ele>
        <time>2020-05-31T08:28:20Z</time>
      </trkpt>
      <trkpt lat="48.62244" lon="2.05453">
        <ele>163</ele>
        <time>2020-05-31T08:28:22Z</time>
      </trkpt>
      <trkpt lat="48.62244" lon="2.0545">
        <ele>163</ele>
        <time>2020-05-31T08:28:24Z</time>
      </trkpt>
      <trkpt lat="48.62244" lon="2.05444">
        <ele>163</ele>
        <time>2020-05-31T08:28:26Z</time>
      </trkpt>
      <trkpt lat="48.62244" lon="2.05439">
        <ele>163</ele>
        <time>2020-05-31T08:28:28Z</time>
      </trkpt>
      <trkpt lat="48.62244" lon="2.05435">
        <ele>163</ele>
        <time>2020-05-31T08:28:30Z</time>
      </trkpt>
      <trkpt lat="48.62245" lon="2.05431">
        <ele>163</ele>
        <time>2020-05-31T08:28:32Z</time>
      </trkpt>
      <trkpt lat="48.62245" lon="2.05429">
        <ele>163</ele>
        <time>2020-05-31T08:28:33Z</time>
      </trkpt>
      <trkpt lat="48.62246" lon="2.05423">
        <ele>164</ele>
        <time>2020-05-31T08:28:35Z</time>
      </trkpt>
      <trkpt lat="48.62246" lon="2.05421">
        <ele>164</ele>
        <time>2020-05-31T08:28:36Z</time>
      </trkpt>
      <trkpt lat="48.62247" lon="2.05416">
        <ele>164</ele>
        <time>2020-05-31T08:28:38Z</time>
      </trkpt>
      <trkpt lat="48.62247" lon="2.05412">
        <ele>164</ele>
        <time>2020-05-31T08:28:40Z</time>
      </trkpt>
      <trkpt lat="48.62247" lon="2.05408">
        <ele>164</ele>
        <time>2020-05-31T08:28:43Z</time>
      </trkpt>
      <trkpt lat="48.62247" lon="2.05404">
        <ele>164</ele>
        <time>2020-05-31T08:28:45Z</time>
      </trkpt>
      <trkpt lat="48.62247" lon="2.05402">
        <ele>164</ele>
        <time>2020-05-31T08:28:46Z</time>
      </trkpt>
      <trkpt lat="48.62248" lon="2.05399">
        <ele>164</ele>
        <time>2020-05-31T08:28:47Z</time>
      </trkpt>
      <trkpt lat="48.62248" lon="2.05395">
        <ele>163</ele>
        <time>2020-05-31T08:28:48Z</time>
      </trkpt>
      <trkpt lat="48.62249" lon="2.0539">
        <ele>163</ele>
        <time>2020-05-31T08:28:50Z</time>
      </trkpt>
      <trkpt lat="48.62249" lon="2.05387">
        <ele>163</ele>
        <time>2020-05-31T08:28:51Z</time>
      </trkpt>
      <trkpt lat="48.6225" lon="2.05384">
        <ele>163</ele>
        <time>2020-05-31T08:28:52Z</time>
      </trkpt>
      <trkpt lat="48.6225" lon="2.05381">
        <ele>163</ele>
        <time>2020-05-31T08:28:53Z</time>
      </trkpt>
      <trkpt lat="48.6225" lon="2.05378">
        <ele>163</ele>
        <time>2020-05-31T08:28:54Z</time>
      </trkpt>
      <trkpt lat="48.6225" lon="2.05375">
        <ele>163</ele>
        <time>2020-05-31T08:28:55Z</time>
      </trkpt>
      <trkpt lat="48.6225" lon="2.05372">
        <ele>163</ele>
        <time>2020-05-31T08:28:56Z</time>
      </trkpt>
      <trkpt lat="48.62251" lon="2.05367">
        <ele>163</ele>
        <time>2020-05-31T08:28:58Z</time>
      </trkpt>
      <trkpt lat="48.62251" lon="2.05363">
        <ele>163</ele>
        <time>2020-05-31T08:29:00Z</time>
      </trkpt>
      <trkpt lat="48.62252" lon="2.05358">
        <ele>163</ele>
        <time>2020-05-31T08:29:02Z</time>
      </trkpt>
      <trkpt lat="48.62252" lon="2.05354">
        <ele>162</ele>
        <time>2020-05-31T08:29:04Z</time>
      </trkpt>
      <trkpt lat="48.62253" lon="2.05349">
        <ele>162</ele>
        <time>2020-05-31T08:29:06Z</time>
      </trkpt>
      <trkpt lat="48.62253" lon="2.05345">
        <ele>162</ele>
        <time>2020-05-31T08:29:08Z</time>
      </trkpt>
      <trkpt lat="48.62254" lon="2.05341">
        <ele>162</ele>
        <time>2020-05-31T08:29:10Z</time>
      </trkpt>
      <trkpt lat="48.62253" lon="2.05337">
        <ele>162</ele>
        <time>2020-05-31T08:29:13Z</time>
      </trkpt>
      <trkpt lat="48.62253" lon="2.05335">
        <ele>161</ele>
        <time>2020-05-31T08:29:19Z</time>
      </trkpt>
      <trkpt lat="48.62253" lon="2.05332">
        <ele>160</ele>
        <time>2020-05-31T08:29:26Z</time>
      </trkpt>
      <trkpt lat="48.62253" lon="2.05329">
        <ele>160</ele>
        <time>2020-05-31T08:29:28Z</time>
      </trkpt>
      <trkpt lat="48.62254" lon="2.05325">
        <ele>160</ele>
        <time>2020-05-31T08:29:30Z</time>
      </trkpt>
      <trkpt lat="48.62254" lon="2.05322">
        <ele>159</ele>
        <time>2020-05-31T08:29:32Z</time>
      </trkpt>
      <trkpt lat="48.62255" lon="2.05319">
        <ele>159</ele>
        <time>2020-05-31T08:29:34Z</time>
      </trkpt>
      <trkpt lat="48.62255" lon="2.05315">
        <ele>159</ele>
        <time>2020-05-31T08:29:36Z</time>
      </trkpt>
      <trkpt lat="48.62255" lon="2.05311">
        <ele>159</ele>
        <time>2020-05-31T08:29:38Z</time>
      </trkpt>
      <trkpt lat="48.62256" lon="2.05307">
        <ele>159</ele>
        <time>2020-05-31T08:29:40Z</time>
      </trkpt>
      <trkpt lat="48.62256" lon="2.05303">
        <ele>159</ele>
        <time>2020-05-31T08:29:42Z</time>
      </trkpt>
      <trkpt lat="48.62257" lon="2.05299">
        <ele>159</ele>
        <time>2020-05-31T08:29:44Z</time>
      </trkpt>
      <trkpt lat="48.62257" lon="2.05294">
        <ele>159</ele>
        <time>2020-05-31T08:29:46Z</time>
      </trkpt>
      <trkpt lat="48.62259" lon="2.05289">
        <ele>159</ele>
        <time>2020-05-31T08:29:48Z</time>
      </trkpt>
      <trkpt lat="48.6226" lon="2.05285">
        <ele>159</ele>
        <time>2020-05-31T08:29:50Z</time>
      </trkpt>
      <trkpt lat="48.62261" lon="2.0528">
        <ele>159</ele>
        <time>2020-05-31T08:29:52Z</time>
      </trkpt>
      <trkpt lat="48.62261" lon="2.05275">
        <ele>159</ele>
        <time>2020-05-31T08:29:54Z</time>
      </trkpt>
      <trkpt lat="48.62262" lon="2.05271">
        <ele>158</ele>
        <time>2020-05-31T08:29:56Z</time>
      </trkpt>
      <trkpt lat="48.62263" lon="2.05266">
        <ele>158</ele>
        <time>2020-05-31T08:29:58Z</time>
      </trkpt>
      <trkpt lat="48.62263" lon="2.05262">
        <ele>158</ele>
        <time>2020-05-31T08:30:00Z</time>
      </trkpt>
      <trkpt lat="48.62264" lon="2.05259">
        <ele>158</ele>
        <time>2020-05-31T08:30:02Z</time>
      </trkpt>
      <trkpt lat="48.62265" lon="2.05255">
        <ele>158</ele>
        <time>2020-05-31T08:30:04Z</time>
      </trkpt>
      <trkpt lat="48.62266" lon="2.05252">
        <ele>158</ele>
        <time>2020-05-31T08:30:06Z</time>
      </trkpt>
      <trkpt lat="48.62267" lon="2.05248">
        <ele>158</ele>
        <time>2020-05-31T08:30:08Z</time>
      </trkpt>
      <trkpt lat="48.62267" lon="2.05245">
        <ele>158</ele>
        <time>2020-05-31T08:30:10Z</time>
      </trkpt>
      <trkpt lat="48.62267" lon="2.05241">
        <ele>158</ele>
        <time>2020-05-31T08:30:12Z</time>
      </trkpt>
      <trkpt lat="48.62268" lon="2.05238">
        <ele>158</ele>
        <time>2020-05-31T08:30:14Z</time>
      </trkpt>
      <trkpt lat="48.62269" lon="2.05234">
        <ele>158</ele>
        <time>2020-05-31T08:30:16Z</time>
      </trkpt>
      <trkpt lat="48.6227" lon="2.0523">
        <ele>158</ele>
        <time>2020-05-31T08:30:18Z</time>
      </trkpt>
      <trkpt lat="48.6227" lon="2.05227">
        <ele>158</ele>
        <time>2020-05-31T08:30:20Z</time>
      </trkpt>
      <trkpt lat="48.62271" lon="2.05222">
        <ele>158</ele>
        <time>2020-05-31T08:30:24Z</time>
      </trkpt>
      <trkpt lat="48.62272" lon="2.05218">
        <ele>159</ele>
        <time>2020-05-31T08:30:26Z</time>
      </trkpt>
      <trkpt lat="48.62273" lon="2.05213">
        <ele>159</ele>
        <time>2020-05-31T08:30:28Z</time>
      </trkpt>
      <trkpt lat="48.62274" lon="2.05208">
        <ele>158</ele>
        <time>2020-05-31T08:30:30Z</time>
      </trkpt>
      <trkpt lat="48.62274" lon="2.05205">
        <ele>158</ele>
        <time>2020-05-31T08:30:31Z</time>
      </trkpt>
      <trkpt lat="48.62275" lon="2.05203">
        <ele>158</ele>
        <time>2020-05-31T08:30:32Z</time>
      </trkpt>
      <trkpt lat="48.62276" lon="2.05198">
        <ele>159</ele>
        <time>2020-05-31T08:30:34Z</time>
      </trkpt>
      <trkpt lat="48.62276" lon="2.05194">
        <ele>158</ele>
        <time>2020-05-31T08:30:36Z</time>
      </trkpt>
      <trkpt lat="48.62277" lon="2.0519">
        <ele>158</ele>
        <time>2020-05-31T08:30:38Z</time>
      </trkpt>
      <trkpt lat="48.62277" lon="2.05186">
        <ele>159</ele>
        <time>2020-05-31T08:30:40Z</time>
      </trkpt>
      <trkpt lat="48.62277" lon="2.05183">
        <ele>158</ele>
        <time>2020-05-31T08:30:42Z</time>
      </trkpt>
      <trkpt lat="48.62278" lon="2.05178">
        <ele>159</ele>
        <time>2020-05-31T08:30:44Z</time>
      </trkpt>
      <trkpt lat="48.62278" lon="2.05174">
        <ele>159</ele>
        <time>2020-05-31T08:30:46Z</time>
      </trkpt>
      <trkpt lat="48.62278" lon="2.0517">
        <ele>159</ele>
        <time>2020-05-31T08:30:48Z</time>
      </trkpt>
      <trkpt lat="48.62278" lon="2.05166">
        <ele>158</ele>
        <time>2020-05-31T08:30:50Z</time>
      </trkpt>
      <trkpt lat="48.62278" lon="2.05162">
        <ele>158</ele>
        <time>2020-05-31T08:30:52Z</time>
      </trkpt>
      <trkpt lat="48.62278" lon="2.05159">
        <ele>158</ele>
        <time>2020-05-31T08:30:54Z</time>
      </trkpt>
      <trkpt lat="48.62278" lon="2.05155">
        <ele>158</ele>
        <time>2020-05-31T08:30:56Z</time>
      </trkpt>
      <trkpt lat="48.62278" lon="2.05151">
        <ele>158</ele>
        <time>2020-05-31T08:30:58Z</time>
      </trkpt>
      <trkpt lat="48.62278" lon="2.05147">
        <ele>158</ele>
        <time>2020-05-31T08:31:00Z</time>
      </trkpt>
      <trkpt lat="48.62278" lon="2.05143">
        <ele>158</ele>
        <time>2020-05-31T08:31:02Z</time>
      </trkpt>
      <trkpt lat="48.62278" lon="2.0514">
        <ele>157</ele>
        <time>2020-05-31T08:31:04Z</time>
      </trkpt>
      <trkpt lat="48.62278" lon="2.05136">
        <ele>157</ele>
        <time>2020-05-31T08:31:06Z</time>
      </trkpt>
      <trkpt lat="48.62278" lon="2.05132">
        <ele>157</ele>
        <time>2020-05-31T08:31:08Z</time>
      </trkpt>
      <trkpt lat="48.62278" lon="2.05129">
        <ele>157</ele>
        <time>2020-05-31T08:31:10Z</time>
      </trkpt>
      <trkpt lat="48.62279" lon="2.05125">
        <ele>156</ele>
        <time>2020-05-31T08:31:13Z</time>
      </trkpt>
      <trkpt lat="48.62279" lon="2.05121">
        <ele>156</ele>
        <time>2020-05-31T08:31:15Z</time>
      </trkpt>
      <trkpt lat="48.6228" lon="2.05116">
        <ele>156</ele>
        <time>2020-05-31T08:31:17Z</time>
      </trkpt>
      <trkpt lat="48.62281" lon="2.05112">
        <ele>156</ele>
        <time>2020-05-31T08:31:19Z</time>
      </trkpt>
      <trkpt lat="48.62281" lon="2.05108">
        <ele>156</ele>
        <time>2020-05-31T08:31:21Z</time>
      </trkpt>
      <trkpt lat="48.62281" lon="2.05104">
        <ele>156</ele>
        <time>2020-05-31T08:31:23Z</time>
      </trkpt>
      <trkpt lat="48.62281" lon="2.05101">
        <ele>155</ele>
        <time>2020-05-31T08:31:25Z</time>
      </trkpt>
      <trkpt lat="48.6228" lon="2.05099">
        <ele>155</ele>
        <time>2020-05-31T08:31:27Z</time>
      </trkpt>
      <trkpt lat="48.6228" lon="2.05095">
        <ele>155</ele>
        <time>2020-05-31T08:31:29Z</time>
      </trkpt>
      <trkpt lat="48.6228" lon="2.05092">
        <ele>155</ele>
        <time>2020-05-31T08:31:31Z</time>
      </trkpt>
      <trkpt lat="48.6228" lon="2.05089">
        <ele>154</ele>
        <time>2020-05-31T08:31:33Z</time>
      </trkpt>
      <trkpt lat="48.6228" lon="2.05086">
        <ele>154</ele>
        <time>2020-05-31T08:31:35Z</time>
      </trkpt>
      <trkpt lat="48.6228" lon="2.05083">
        <ele>154</ele>
        <time>2020-05-31T08:31:37Z</time>
      </trkpt>
      <trkpt lat="48.6228" lon="2.0508">
        <ele>153</ele>
        <time>2020-05-31T08:31:45Z</time>
      </trkpt>
      <trkpt lat="48.62281" lon="2.05078">
        <ele>153</ele>
        <time>2020-05-31T08:31:49Z</time>
      </trkpt>
      <trkpt lat="48.62281" lon="2.05075">
        <ele>152</ele>
        <time>2020-05-31T08:32:13Z</time>
      </trkpt>
      <trkpt lat="48.62279" lon="2.05073">
        <ele>152</ele>
        <time>2020-05-31T08:32:20Z</time>
      </trkpt>
      <trkpt lat="48.62278" lon="2.05071">
        <ele>152</ele>
        <time>2020-05-31T08:32:34Z</time>
      </trkpt>
      <trkpt lat="48.6228" lon="2.05068">
        <ele>151</ele>
        <time>2020-05-31T08:32:45Z</time>
      </trkpt>
      <trkpt lat="48.6228" lon="2.05065">
        <ele>151</ele>
        <time>2020-05-31T08:32:51Z</time>
      </trkpt>
      <trkpt lat="48.62281" lon="2.05063">
        <ele>150</ele>
        <time>2020-05-31T08:32:58Z</time>
      </trkpt>
      <trkpt lat="48.62281" lon="2.0506">
        <ele>150</ele>
        <time>2020-05-31T08:33:08Z</time>
      </trkpt>
      <trkpt lat="48.62281" lon="2.05055">
        <ele>150</ele>
        <time>2020-05-31T08:33:11Z</time>
      </trkpt>
      <trkpt lat="48.62281" lon="2.05052">
        <ele>150</ele>
        <time>2020-05-31T08:33:13Z</time>
      </trkpt>
      <trkpt lat="48.62281" lon="2.05049">
        <ele>150</ele>
        <time>2020-05-31T08:33:15Z</time>
      </trkpt>
      <trkpt lat="48.62282" lon="2.05045">
        <ele>150</ele>
        <time>2020-05-31T08:33:17Z</time>
      </trkpt>
      <trkpt lat="48.62284" lon="2.05042">
        <ele>150</ele>
        <time>2020-05-31T08:33:19Z</time>
      </trkpt>
      <trkpt lat="48.62285" lon="2.05039">
        <ele>149</ele>
        <time>2020-05-31T08:33:21Z</time>
      </trkpt>
      <trkpt lat="48.62288" lon="2.05037">
        <ele>149</ele>
        <time>2020-05-31T08:33:23Z</time>
      </trkpt>
      <trkpt lat="48.62291" lon="2.05034">
        <ele>149</ele>
        <time>2020-05-31T08:33:26Z</time>
      </trkpt>
      <trkpt lat="48.62293" lon="2.05033">
        <ele>149</ele>
        <time>2020-05-31T08:33:28Z</time>
      </trkpt>
      <trkpt lat="48.62295" lon="2.05032">
        <ele>148</ele>
        <time>2020-05-31T08:33:30Z</time>
      </trkpt>
      <trkpt lat="48.62297" lon="2.05031">
        <ele>148</ele>
        <time>2020-05-31T08:33:31Z</time>
      </trkpt>
      <trkpt lat="48.623" lon="2.05028">
        <ele>148</ele>
        <time>2020-05-31T08:33:33Z</time>
      </trkpt>
      <trkpt lat="48.62302" lon="2.05025">
        <ele>148</ele>
        <time>2020-05-31T08:33:35Z</time>
      </trkpt>
      <trkpt lat="48.62304" lon="2.05022">
        <ele>148</ele>
        <time>2020-05-31T08:33:37Z</time>
      </trkpt>
      <trkpt lat="48.62306" lon="2.05021">
        <ele>148</ele>
        <time>2020-05-31T08:33:39Z</time>
      </trkpt>
      <trkpt lat="48.62309" lon="2.05018">
        <ele>148</ele>
        <time>2020-05-31T08:33:41Z</time>
      </trkpt>
      <trkpt lat="48.62311" lon="2.05017">
        <ele>148</ele>
        <time>2020-05-31T08:33:43Z</time>
      </trkpt>
      <trkpt lat="48.62315" lon="2.05016">
        <ele>147</ele>
        <time>2020-05-31T08:33:45Z</time>
      </trkpt>
      <trkpt lat="48.62318" lon="2.05015">
        <ele>147</ele>
        <time>2020-05-31T08:33:47Z</time>
      </trkpt>
      <trkpt lat="48.62321" lon="2.05015">
        <ele>147</ele>
        <time>2020-05-31T08:33:49Z</time>
      </trkpt>
      <trkpt lat="48.62324" lon="2.05014">
        <ele>147</ele>
        <time>2020-05-31T08:33:51Z</time>
      </trkpt>
      <trkpt lat="48.62328" lon="2.05013">
        <ele>147</ele>
        <time>2020-05-31T08:33:53Z</time>
      </trkpt>
      <trkpt lat="48.6233" lon="2.05012">
        <ele>146</ele>
        <time>2020-05-31T08:33:54Z</time>
      </trkpt>
      <trkpt lat="48.62332" lon="2.05012">
        <ele>146</ele>
        <time>2020-05-31T08:33:55Z</time>
      </trkpt>
      <trkpt lat="48.62335" lon="2.05011">
        <ele>145</ele>
        <time>2020-05-31T08:33:56Z</time>
      </trkpt>
      <trkpt lat="48.62336" lon="2.0501">
        <ele>145</ele>
        <time>2020-05-31T08:33:57Z</time>
      </trkpt>
      <trkpt lat="48.62338" lon="2.0501">
        <ele>145</ele>
        <time>2020-05-31T08:33:58Z</time>
      </trkpt>
      <trkpt lat="48.62342" lon="2.05009">
        <ele>144</ele>
        <time>2020-05-31T08:34:00Z</time>
      </trkpt>
      <trkpt lat="48.62345" lon="2.05008">
        <ele>143</ele>
        <time>2020-05-31T08:34:02Z</time>
      </trkpt>
      <trkpt lat="48.62349" lon="2.05007">
        <ele>143</ele>
        <time>2020-05-31T08:34:04Z</time>
      </trkpt>
      <trkpt lat="48.62352" lon="2.05006">
        <ele>142</ele>
        <time>2020-05-31T08:34:06Z</time>
      </trkpt>
      <trkpt lat="48.62355" lon="2.05003">
        <ele>142</ele>
        <time>2020-05-31T08:34:08Z</time>
      </trkpt>
      <trkpt lat="48.62357" lon="2.05001">
        <ele>141</ele>
        <time>2020-05-31T08:34:10Z</time>
      </trkpt>
      <trkpt lat="48.6236" lon="2.04999">
        <ele>140</ele>
        <time>2020-05-31T08:34:12Z</time>
      </trkpt>
      <trkpt lat="48.62363" lon="2.04996">
        <ele>140</ele>
        <time>2020-05-31T08:34:14Z</time>
      </trkpt>
      <trkpt lat="48.62365" lon="2.04993">
        <ele>139</ele>
        <time>2020-05-31T08:34:16Z</time>
      </trkpt>
      <trkpt lat="48.62368" lon="2.0499">
        <ele>139</ele>
        <time>2020-05-31T08:34:18Z</time>
      </trkpt>
      <trkpt lat="48.6237" lon="2.04988">
        <ele>139</ele>
        <time>2020-05-31T08:34:20Z</time>
      </trkpt>
      <trkpt lat="48.62372" lon="2.04985">
        <ele>139</ele>
        <time>2020-05-31T08:34:22Z</time>
      </trkpt>
      <trkpt lat="48.62375" lon="2.04982">
        <ele>138</ele>
        <time>2020-05-31T08:34:24Z</time>
      </trkpt>
      <trkpt lat="48.62378" lon="2.0498">
        <ele>138</ele>
        <time>2020-05-31T08:34:26Z</time>
      </trkpt>
      <trkpt lat="48.6238" lon="2.04979">
        <ele>138</ele>
        <time>2020-05-31T08:34:28Z</time>
      </trkpt>
      <trkpt lat="48.62382" lon="2.04978">
        <ele>138</ele>
        <time>2020-05-31T08:34:30Z</time>
      </trkpt>
      <trkpt lat="48.62384" lon="2.04978">
        <ele>138</ele>
        <time>2020-05-31T08:34:32Z</time>
      </trkpt>
      <trkpt lat="48.62387" lon="2.04977">
        <ele>138</ele>
        <time>2020-05-31T08:34:35Z</time>
      </trkpt>
      <trkpt lat="48.6239" lon="2.04978">
        <ele>138</ele>
        <time>2020-05-31T08:34:37Z</time>
      </trkpt>
      <trkpt lat="48.62392" lon="2.04978">
        <ele>138</ele>
        <time>2020-05-31T08:34:38Z</time>
      </trkpt>
      <trkpt lat="48.62394" lon="2.04978">
        <ele>138</ele>
        <time>2020-05-31T08:34:39Z</time>
      </trkpt>
      <trkpt lat="48.62396" lon="2.04979">
        <ele>138</ele>
        <time>2020-05-31T08:34:40Z</time>
      </trkpt>
      <trkpt lat="48.62399" lon="2.0498">
        <ele>137</ele>
        <time>2020-05-31T08:34:42Z</time>
      </trkpt>
      <trkpt lat="48.62403" lon="2.0498">
        <ele>137</ele>
        <time>2020-05-31T08:34:44Z</time>
      </trkpt>
      <trkpt lat="48.62405" lon="2.0498">
        <ele>137</ele>
        <time>2020-05-31T08:34:46Z</time>
      </trkpt>
      <trkpt lat="48.62408" lon="2.0498">
        <ele>137</ele>
        <time>2020-05-31T08:34:48Z</time>
      </trkpt>
      <trkpt lat="48.6241" lon="2.0498">
        <ele>137</ele>
        <time>2020-05-31T08:34:50Z</time>
      </trkpt>
      <trkpt lat="48.62412" lon="2.0498">
        <ele>137</ele>
        <time>2020-05-31T08:34:51Z</time>
      </trkpt>
      <trkpt lat="48.62415" lon="2.04979">
        <ele>137</ele>
        <time>2020-05-31T08:34:53Z</time>
      </trkpt>
      <trkpt lat="48.62417" lon="2.0498">
        <ele>137</ele>
        <time>2020-05-31T08:34:55Z</time>
      </trkpt>
      <trkpt lat="48.6242" lon="2.04979">
        <ele>137</ele>
        <time>2020-05-31T08:34:57Z</time>
      </trkpt>
      <trkpt lat="48.62423" lon="2.0498">
        <ele>137</ele>
        <time>2020-05-31T08:34:59Z</time>
      </trkpt>
      <trkpt lat="48.62426" lon="2.04982">
        <ele>137</ele>
        <time>2020-05-31T08:35:01Z</time>
      </trkpt>
      <trkpt lat="48.62428" lon="2.04985">
        <ele>137</ele>
        <time>2020-05-31T08:35:03Z</time>
      </trkpt>
      <trkpt lat="48.62431" lon="2.04986">
        <ele>137</ele>
        <time>2020-05-31T08:35:05Z</time>
      </trkpt>
      <trkpt lat="48.62433" lon="2.04988">
        <ele>137</ele>
        <time>2020-05-31T08:35:07Z</time>
      </trkpt>
      <trkpt lat="48.62436" lon="2.04991">
        <ele>137</ele>
        <time>2020-05-31T08:35:09Z</time>
      </trkpt>
      <trkpt lat="48.62438" lon="2.04993">
        <ele>137</ele>
        <time>2020-05-31T08:35:11Z</time>
      </trkpt>
      <trkpt lat="48.62441" lon="2.04995">
        <ele>137</ele>
        <time>2020-05-31T08:35:13Z</time>
      </trkpt>
      <trkpt lat="48.62445" lon="2.04997">
        <ele>136</ele>
        <time>2020-05-31T08:35:15Z</time>
      </trkpt>
      <trkpt lat="48.62447" lon="2.04999">
        <ele>136</ele>
        <time>2020-05-31T08:35:16Z</time>
      </trkpt>
      <trkpt lat="48.62448" lon="2.05">
        <ele>136</ele>
        <time>2020-05-31T08:35:17Z</time>
      </trkpt>
      <trkpt lat="48.62451" lon="2.05002">
        <ele>136</ele>
        <time>2020-05-31T08:35:19Z</time>
      </trkpt>
      <trkpt lat="48.62454" lon="2.05004">
        <ele>135</ele>
        <time>2020-05-31T08:35:21Z</time>
      </trkpt>
      <trkpt lat="48.62457" lon="2.05006">
        <ele>135</ele>
        <time>2020-05-31T08:35:23Z</time>
      </trkpt>
      <trkpt lat="48.6246" lon="2.05008">
        <ele>134</ele>
        <time>2020-05-31T08:35:25Z</time>
      </trkpt>
      <trkpt lat="48.62464" lon="2.0501">
        <ele>134</ele>
        <time>2020-05-31T08:35:27Z</time>
      </trkpt>
      <trkpt lat="48.62467" lon="2.05012">
        <ele>134</ele>
        <time>2020-05-31T08:35:29Z</time>
      </trkpt>
      <trkpt lat="48.6247" lon="2.05013">
        <ele>134</ele>
        <time>2020-05-31T08:35:31Z</time>
      </trkpt>
      <trkpt lat="48.62473" lon="2.05014">
        <ele>133</ele>
        <time>2020-05-31T08:35:33Z</time>
      </trkpt>
      <trkpt lat="48.62476" lon="2.05015">
        <ele>133</ele>
        <time>2020-05-31T08:35:35Z</time>
      </trkpt>
      <trkpt lat="48.62479" lon="2.05017">
        <ele>133</ele>
        <time>2020-05-31T08:35:37Z</time>
      </trkpt>
      <trkpt lat="48.62481" lon="2.05018">
        <ele>133</ele>
        <time>2020-05-31T08:35:39Z</time>
      </trkpt>
      <trkpt lat="48.62485" lon="2.05019">
        <ele>132</ele>
        <time>2020-05-31T08:35:41Z</time>
      </trkpt>
      <trkpt lat="48.62488" lon="2.0502">
        <ele>132</ele>
        <time>2020-05-31T08:35:43Z</time>
      </trkpt>
      <trkpt lat="48.62491" lon="2.05022">
        <ele>132</ele>
        <time>2020-05-31T08:35:45Z</time>
      </trkpt>
      <trkpt lat="48.62494" lon="2.05023">
        <ele>132</ele>
        <time>2020-05-31T08:35:47Z</time>
      </trkpt>
      <trkpt lat="48.62497" lon="2.05025">
        <ele>132</ele>
        <time>2020-05-31T08:35:49Z</time>
      </trkpt>
      <trkpt lat="48.625" lon="2.05026">
        <ele>132</ele>
        <time>2020-05-31T08:35:51Z</time>
      </trkpt>
      <trkpt lat="48.62503" lon="2.05028">
        <ele>131</ele>
        <time>2020-05-31T08:35:53Z</time>
      </trkpt>
      <trkpt lat="48.62506" lon="2.0503">
        <ele>131</ele>
        <time>2020-05-31T08:35:55Z</time>
      </trkpt>
      <trkpt lat="48.62509" lon="2.05031">
        <ele>131</ele>
        <time>2020-05-31T08:35:57Z</time>
      </trkpt>
      <trkpt lat="48.62512" lon="2.05033">
        <ele>131</ele>
        <time>2020-05-31T08:35:59Z</time>
      </trkpt>
      <trkpt lat="48.62515" lon="2.05035">
        <ele>131</ele>
        <time>2020-05-31T08:36:01Z</time>
      </trkpt>
      <trkpt lat="48.62518" lon="2.05037">
        <ele>131</ele>
        <time>2020-05-31T08:36:03Z</time>
      </trkpt>
      <trkpt lat="48.62521" lon="2.05039">
        <ele>130</ele>
        <time>2020-05-31T08:36:05Z</time>
      </trkpt>
      <trkpt lat="48.62524" lon="2.0504">
        <ele>130</ele>
        <time>2020-05-31T08:36:07Z</time>
      </trkpt>
      <trkpt lat="48.62527" lon="2.05042">
        <ele>130</ele>
        <time>2020-05-31T08:36:09Z</time>
      </trkpt>
      <trkpt lat="48.62529" lon="2.05044">
        <ele>130</ele>
        <time>2020-05-31T08:36:11Z</time>
      </trkpt>
      <trkpt lat="48.62532" lon="2.05046">
        <ele>130</ele>
        <time>2020-05-31T08:36:13Z</time>
      </trkpt>
      <trkpt lat="48.62535" lon="2.05048">
        <ele>130</ele>
        <time>2020-05-31T08:36:15Z</time>
      </trkpt>
      <trkpt lat="48.62538" lon="2.05049">
        <ele>129</ele>
        <time>2020-05-31T08:36:17Z</time>
      </trkpt>
      <trkpt lat="48.62541" lon="2.05052">
        <ele>129</ele>
        <time>2020-05-31T08:36:19Z</time>
      </trkpt>
      <trkpt lat="48.62543" lon="2.05053">
        <ele>129</ele>
        <time>2020-05-31T08:36:21Z</time>
      </trkpt>
      <trkpt lat="48.62546" lon="2.05055">
        <ele>129</ele>
        <time>2020-05-31T08:36:23Z</time>
      </trkpt>
      <trkpt lat="48.62549" lon="2.05057">
        <ele>129</ele>
        <time>2020-05-31T08:36:25Z</time>
      </trkpt>
      <trkpt lat="48.62552" lon="2.05059">
        <ele>129</ele>
        <time>2020-05-31T08:36:27Z</time>
      </trkpt>
      <trkpt lat="48.62555" lon="2.0506">
        <ele>129</ele>
        <time>2020-05-31T08:36:29Z</time>
      </trkpt>
      <trkpt lat="48.62558" lon="2.05061">
        <ele>129</ele>
        <time>2020-05-31T08:36:31Z</time>
      </trkpt>
      <trkpt lat="48.6256" lon="2.05062">
        <ele>129</ele>
        <time>2020-05-31T08:36:33Z</time>
      </trkpt>
      <trkpt lat="48.62563" lon="2.05064">
        <ele>129</ele>
        <time>2020-05-31T08:36:35Z</time>
      </trkpt>
      <trkpt lat="48.62566" lon="2.05065">
        <ele>130</ele>
        <time>2020-05-31T08:36:37Z</time>
      </trkpt>
      <trkpt lat="48.62569" lon="2.05066">
        <ele>129</ele>
        <time>2020-05-31T08:36:39Z</time>
      </trkpt>
      <trkpt lat="48.62572" lon="2.05067">
        <ele>129</ele>
        <time>2020-05-31T08:36:41Z</time>
      </trkpt>
      <trkpt lat="48.62575" lon="2.05068">
        <ele>129</ele>
        <time>2020-05-31T08:36:43Z</time>
      </trkpt>
      <trkpt lat="48.62578" lon="2.05069">
        <ele>129</ele>
        <time>2020-05-31T08:36:45Z</time>
      </trkpt>
      <trkpt lat="48.62581" lon="2.0507">
        <ele>129</ele>
        <time>2020-05-31T08:36:47Z</time>
      </trkpt>
      <trkpt lat="48.62584" lon="2.05071">
        <ele>129</ele>
        <time>2020-05-31T08:36:49Z</time>
      </trkpt>
      <trkpt lat="48.62586" lon="2.05071">
        <ele>129</ele>
        <time>2020-05-31T08:36:51Z</time>
      </trkpt>
      <trkpt lat="48.62589" lon="2.05071">
        <ele>129</ele>
        <time>2020-05-31T08:36:53Z</time>
      </trkpt>
      <trkpt lat="48.62592" lon="2.05072">
        <ele>129</ele>
        <time>2020-05-31T08:36:55Z</time>
      </trkpt>
      <trkpt lat="48.62595" lon="2.05072">
        <ele>129</ele>
        <time>2020-05-31T08:36:57Z</time>
      </trkpt>
      <trkpt lat="48.62598" lon="2.05073">
        <ele>129</ele>
        <time>2020-05-31T08:36:59Z</time>
      </trkpt>
      <trkpt lat="48.626" lon="2.05072">
        <ele>129</ele>
        <time>2020-05-31T08:37:01Z</time>
      </trkpt>
      <trkpt lat="48.62603" lon="2.05072">
        <ele>129</ele>
        <time>2020-05-31T08:37:03Z</time>
      </trkpt>
      <trkpt lat="48.62606" lon="2.05073">
        <ele>129</ele>
        <time>2020-05-31T08:37:05Z</time>
      </trkpt>
      <trkpt lat="48.62609" lon="2.05073">
        <ele>129</ele>
        <time>2020-05-31T08:37:07Z</time>
      </trkpt>
      <trkpt lat="48.62612" lon="2.05073">
        <ele>129</ele>
        <time>2020-05-31T08:37:09Z</time>
      </trkpt>
      <trkpt lat="48.62615" lon="2.05074">
        <ele>130</ele>
        <time>2020-05-31T08:37:11Z</time>
      </trkpt>
      <trkpt lat="48.62618" lon="2.05075">
        <ele>130</ele>
        <time>2020-05-31T08:37:13Z</time>
      </trkpt>
      <trkpt lat="48.62621" lon="2.05075">
        <ele>130</ele>
        <time>2020-05-31T08:37:15Z</time>
      </trkpt>
      <trkpt lat="48.62624" lon="2.05075">
        <ele>130</ele>
        <time>2020-05-31T08:37:17Z</time>
      </trkpt>
      <trkpt lat="48.62627" lon="2.05076">
        <ele>130</ele>
        <time>2020-05-31T08:37:19Z</time>
      </trkpt>
      <trkpt lat="48.6263" lon="2.05076">
        <ele>130</ele>
        <time>2020-05-31T08:37:21Z</time>
      </trkpt>
      <trkpt lat="48.62633" lon="2.05076">
        <ele>130</ele>
        <time>2020-05-31T08:37:23Z</time>
      </trkpt>
      <trkpt lat="48.62635" lon="2.05076">
        <ele>130</ele>
        <time>2020-05-31T08:37:25Z</time>
      </trkpt>
      <trkpt lat="48.62638" lon="2.05075">
        <ele>130</ele>
        <time>2020-05-31T08:37:27Z</time>
      </trkpt>
      <trkpt lat="48.62641" lon="2.05075">
        <ele>130</ele>
        <time>2020-05-31T08:37:29Z</time>
      </trkpt>
      <trkpt lat="48.62643" lon="2.05075">
        <ele>130</ele>
        <time>2020-05-31T08:37:31Z</time>
      </trkpt>
      <trkpt lat="48.62646" lon="2.05075">
        <ele>130</ele>
        <time>2020-05-31T08:37:33Z</time>
      </trkpt>
      <trkpt lat="48.62649" lon="2.05076">
        <ele>131</ele>
        <time>2020-05-31T08:37:35Z</time>
      </trkpt>
      <trkpt lat="48.62652" lon="2.05077">
        <ele>131</ele>
        <time>2020-05-31T08:37:37Z</time>
      </trkpt>
      <trkpt lat="48.62655" lon="2.05078">
        <ele>131</ele>
        <time>2020-05-31T08:37:39Z</time>
      </trkpt>
      <trkpt lat="48.62658" lon="2.05079">
        <ele>131</ele>
        <time>2020-05-31T08:37:41Z</time>
      </trkpt>
      <trkpt lat="48.6266" lon="2.05079">
        <ele>131</ele>
        <time>2020-05-31T08:37:43Z</time>
      </trkpt>
      <trkpt lat="48.62663" lon="2.05081">
        <ele>131</ele>
        <time>2020-05-31T08:37:45Z</time>
      </trkpt>
      <trkpt lat="48.62666" lon="2.05082">
        <ele>131</ele>
        <time>2020-05-31T08:37:47Z</time>
      </trkpt>
      <trkpt lat="48.62669" lon="2.05083">
        <ele>131</ele>
        <time>2020-05-31T08:37:49Z</time>
      </trkpt>
      <trkpt lat="48.62671" lon="2.05085">
        <ele>131</ele>
        <time>2020-05-31T08:37:51Z</time>
      </trkpt>
      <trkpt lat="48.62674" lon="2.05086">
        <ele>131</ele>
        <time>2020-05-31T08:37:53Z</time>
      </trkpt>
      <trkpt lat="48.62677" lon="2.05087">
        <ele>131</ele>
        <time>2020-05-31T08:37:55Z</time>
      </trkpt>
      <trkpt lat="48.6268" lon="2.05089">
        <ele>131</ele>
        <time>2020-05-31T08:37:57Z</time>
      </trkpt>
      <trkpt lat="48.62683" lon="2.05091">
        <ele>131</ele>
        <time>2020-05-31T08:37:59Z</time>
      </trkpt>
      <trkpt lat="48.62686" lon="2.05092">
        <ele>131</ele>
        <time>2020-05-31T08:38:01Z</time>
      </trkpt>
      <trkpt lat="48.62689" lon="2.05094">
        <ele>131</ele>
        <time>2020-05-31T08:38:03Z</time>
      </trkpt>
      <trkpt lat="48.62691" lon="2.05095">
        <ele>131</ele>
        <time>2020-05-31T08:38:05Z</time>
      </trkpt>
      <trkpt lat="48.62694" lon="2.05096">
        <ele>131</ele>
        <time>2020-05-31T08:38:07Z</time>
      </trkpt>
      <trkpt lat="48.62697" lon="2.05098">
        <ele>131</ele>
        <time>2020-05-31T08:38:09Z</time>
      </trkpt>
      <trkpt lat="48.627" lon="2.05099">
        <ele>131</ele>
        <time>2020-05-31T08:38:11Z</time>
      </trkpt>
      <trkpt lat="48.62703" lon="2.05101">
        <ele>132</ele>
        <time>2020-05-31T08:38:13Z</time>
      </trkpt>
      <trkpt lat="48.62706" lon="2.05102">
        <ele>132</ele>
        <time>2020-05-31T08:38:15Z</time>
      </trkpt>
      <trkpt lat="48.62709" lon="2.05104">
        <ele>132</ele>
        <time>2020-05-31T08:38:17Z</time>
      </trkpt>
      <trkpt lat="48.62711" lon="2.05106">
        <ele>132</ele>
        <time>2020-05-31T08:38:19Z</time>
      </trkpt>
      <trkpt lat="48.62714" lon="2.05107">
        <ele>132</ele>
        <time>2020-05-31T08:38:21Z</time>
      </trkpt>
      <trkpt lat="48.62716" lon="2.05108">
        <ele>132</ele>
        <time>2020-05-31T08:38:23Z</time>
      </trkpt>
      <trkpt lat="48.62719" lon="2.05109">
        <ele>133</ele>
        <time>2020-05-31T08:38:25Z</time>
      </trkpt>
      <trkpt lat="48.62722" lon="2.0511">
        <ele>133</ele>
        <time>2020-05-31T08:38:27Z</time>
      </trkpt>
      <trkpt lat="48.62725" lon="2.0511">
        <ele>133</ele>
        <time>2020-05-31T08:38:29Z</time>
      </trkpt>
      <trkpt lat="48.62728" lon="2.05111">
        <ele>133</ele>
        <time>2020-05-31T08:38:31Z</time>
      </trkpt>
      <trkpt lat="48.62731" lon="2.05111">
        <ele>134</ele>
        <time>2020-05-31T08:38:33Z</time>
      </trkpt>
      <trkpt lat="48.62734" lon="2.05111">
        <ele>134</ele>
        <time>2020-05-31T08:38:35Z</time>
      </trkpt>
      <trkpt lat="48.62737" lon="2.05111">
        <ele>134</ele>
        <time>2020-05-31T08:38:37Z</time>
      </trkpt>
      <trkpt lat="48.62739" lon="2.0511">
        <ele>135</ele>
        <time>2020-05-31T08:38:39Z</time>
      </trkpt>
      <trkpt lat="48.62742" lon="2.0511">
        <ele>135</ele>
        <time>2020-05-31T08:38:41Z</time>
      </trkpt>
      <trkpt lat="48.62745" lon="2.05109">
        <ele>135</ele>
        <time>2020-05-31T08:38:43Z</time>
      </trkpt>
      <trkpt lat="48.62747" lon="2.05109">
        <ele>135</ele>
        <time>2020-05-31T08:38:45Z</time>
      </trkpt>
      <trkpt lat="48.6275" lon="2.05109">
        <ele>135</ele>
        <time>2020-05-31T08:38:47Z</time>
      </trkpt>
      <trkpt lat="48.62752" lon="2.05109">
        <ele>135</ele>
        <time>2020-05-31T08:38:50Z</time>
      </trkpt>
      <trkpt lat="48.62755" lon="2.05109">
        <ele>135</ele>
        <time>2020-05-31T08:38:52Z</time>
      </trkpt>
      <trkpt lat="48.62757" lon="2.0511">
        <ele>135</ele>
        <time>2020-05-31T08:38:54Z</time>
      </trkpt>
      <trkpt lat="48.62759" lon="2.0511">
        <ele>135</ele>
        <time>2020-05-31T08:38:56Z</time>
      </trkpt>
      <trkpt lat="48.62762" lon="2.0511">
        <ele>135</ele>
        <time>2020-05-31T08:38:58Z</time>
      </trkpt>
      <trkpt lat="48.62764" lon="2.05108">
        <ele>135</ele>
        <time>2020-05-31T08:39:00Z</time>
      </trkpt>
      <trkpt lat="48.62767" lon="2.05107">
        <ele>135</ele>
        <time>2020-05-31T08:39:02Z</time>
      </trkpt>
      <trkpt lat="48.62769" lon="2.05106">
        <ele>135</ele>
        <time>2020-05-31T08:39:04Z</time>
      </trkpt>
      <trkpt lat="48.62771" lon="2.05104">
        <ele>135</ele>
        <time>2020-05-31T08:39:06Z</time>
      </trkpt>
      <trkpt lat="48.62774" lon="2.05103">
        <ele>135</ele>
        <time>2020-05-31T08:39:08Z</time>
      </trkpt>
      <trkpt lat="48.62777" lon="2.05102">
        <ele>135</ele>
        <time>2020-05-31T08:39:10Z</time>
      </trkpt>
      <trkpt lat="48.62779" lon="2.051">
        <ele>134</ele>
        <time>2020-05-31T08:39:12Z</time>
      </trkpt>
      <trkpt lat="48.62781" lon="2.05098">
        <ele>134</ele>
        <time>2020-05-31T08:39:14Z</time>
      </trkpt>
      <trkpt lat="48.62783" lon="2.05095">
        <ele>134</ele>
        <time>2020-05-31T08:39:16Z</time>
      </trkpt>
      <trkpt lat="48.62785" lon="2.05092">
        <ele>134</ele>
        <time>2020-05-31T08:39:18Z</time>
      </trkpt>
      <trkpt lat="48.62787" lon="2.05089">
        <ele>133</ele>
        <time>2020-05-31T08:39:20Z</time>
      </trkpt>
      <trkpt lat="48.62789" lon="2.05086">
        <ele>133</ele>
        <time>2020-05-31T08:39:22Z</time>
      </trkpt>
      <trkpt lat="48.62791" lon="2.05083">
        <ele>133</ele>
        <time>2020-05-31T08:39:24Z</time>
      </trkpt>
      <trkpt lat="48.62793" lon="2.05079">
        <ele>133</ele>
        <time>2020-05-31T08:39:26Z</time>
      </trkpt>
      <trkpt lat="48.62794" lon="2.05075">
        <ele>133</ele>
        <time>2020-05-31T08:39:28Z</time>
      </trkpt>
      <trkpt lat="48.62796" lon="2.05071">
        <ele>133</ele>
        <time>2020-05-31T08:39:30Z</time>
      </trkpt>
      <trkpt lat="48.62797" lon="2.05068">
        <ele>132</ele>
        <time>2020-05-31T08:39:32Z</time>
      </trkpt>
      <trkpt lat="48.62798" lon="2.05064">
        <ele>132</ele>
        <time>2020-05-31T08:39:34Z</time>
      </trkpt>
      <trkpt lat="48.628" lon="2.0506">
        <ele>132</ele>
        <time>2020-05-31T08:39:36Z</time>
      </trkpt>
      <trkpt lat="48.62801" lon="2.05056">
        <ele>132</ele>
        <time>2020-05-31T08:39:38Z</time>
      </trkpt>
      <trkpt lat="48.62802" lon="2.05052">
        <ele>132</ele>
        <time>2020-05-31T08:39:40Z</time>
      </trkpt>
      <trkpt lat="48.62802" lon="2.05048">
        <ele>132</ele>
        <time>2020-05-31T08:39:42Z</time>
      </trkpt>
      <trkpt lat="48.62803" lon="2.05044">
        <ele>131</ele>
        <time>2020-05-31T08:39:44Z</time>
      </trkpt>
      <trkpt lat="48.62804" lon="2.0504">
        <ele>131</ele>
        <time>2020-05-31T08:39:46Z</time>
      </trkpt>
      <trkpt lat="48.62804" lon="2.05036">
        <ele>131</ele>
        <time>2020-05-31T08:39:48Z</time>
      </trkpt>
      <trkpt lat="48.62805" lon="2.05031">
        <ele>131</ele>
        <time>2020-05-31T08:39:50Z</time>
      </trkpt>
      <trkpt lat="48.62806" lon="2.05027">
        <ele>131</ele>
        <time>2020-05-31T08:39:52Z</time>
      </trkpt>
      <trkpt lat="48.62807" lon="2.05024">
        <ele>131</ele>
        <time>2020-05-31T08:39:54Z</time>
      </trkpt>
      <trkpt lat="48.62808" lon="2.0502">
        <ele>131</ele>
        <time>2020-05-31T08:39:56Z</time>
      </trkpt>
      <trkpt lat="48.62808" lon="2.05016">
        <ele>131</ele>
        <time>2020-05-31T08:39:58Z</time>
      </trkpt>
      <trkpt lat="48.62809" lon="2.05011">
        <ele>131</ele>
        <time>2020-05-31T08:40:00Z</time>
      </trkpt>
      <trkpt lat="48.62809" lon="2.05008">
        <ele>131</ele>
        <time>2020-05-31T08:40:02Z</time>
      </trkpt>
      <trkpt lat="48.6281" lon="2.05004">
        <ele>130</ele>
        <time>2020-05-31T08:40:04Z</time>
      </trkpt>
      <trkpt lat="48.62811" lon="2.05">
        <ele>130</ele>
        <time>2020-05-31T08:40:06Z</time>
      </trkpt>
      <trkpt lat="48.62811" lon="2.04996">
        <ele>130</ele>
        <time>2020-05-31T08:40:08Z</time>
      </trkpt>
      <trkpt lat="48.62812" lon="2.04993">
        <ele>130</ele>
        <time>2020-05-31T08:40:10Z</time>
      </trkpt>
      <trkpt lat="48.62812" lon="2.04989">
        <ele>130</ele>
        <time>2020-05-31T08:40:12Z</time>
      </trkpt>
      <trkpt lat="48.62813" lon="2.04985">
        <ele>130</ele>
        <time>2020-05-31T08:40:14Z</time>
      </trkpt>
      <trkpt lat="48.62814" lon="2.04981">
        <ele>130</ele>
        <time>2020-05-31T08:40:16Z</time>
      </trkpt>
      <trkpt lat="48.62815" lon="2.04977">
        <ele>130</ele>
        <time>2020-05-31T08:40:18Z</time>
      </trkpt>
      <trkpt lat="48.62815" lon="2.04973">
        <ele>130</ele>
        <time>2020-05-31T08:40:20Z</time>
      </trkpt>
      <trkpt lat="48.62817" lon="2.0497">
        <ele>130</ele>
        <time>2020-05-31T08:40:22Z</time>
      </trkpt>
      <trkpt lat="48.62818" lon="2.04966">
        <ele>130</ele>
        <time>2020-05-31T08:40:24Z</time>
      </trkpt>
      <trkpt lat="48.62819" lon="2.04963">
        <ele>130</ele>
        <time>2020-05-31T08:40:26Z</time>
      </trkpt>
      <trkpt lat="48.62821" lon="2.04959">
        <ele>130</ele>
        <time>2020-05-31T08:40:28Z</time>
      </trkpt>
      <trkpt lat="48.62822" lon="2.04955">
        <ele>130</ele>
        <time>2020-05-31T08:40:30Z</time>
      </trkpt>
      <trkpt lat="48.62823" lon="2.04952">
        <ele>130</ele>
        <time>2020-05-31T08:40:32Z</time>
      </trkpt>
      <trkpt lat="48.62825" lon="2.04948">
        <ele>130</ele>
        <time>2020-05-31T08:40:34Z</time>
      </trkpt>
      <trkpt lat="48.62826" lon="2.04944">
        <ele>130</ele>
        <time>2020-05-31T08:40:36Z</time>
      </trkpt>
      <trkpt lat="48.62827" lon="2.0494">
        <ele>130</ele>
        <time>2020-05-31T08:40:38Z</time>
      </trkpt>
      <trkpt lat="48.62828" lon="2.04937">
        <ele>130</ele>
        <time>2020-05-31T08:40:40Z</time>
      </trkpt>
      <trkpt lat="48.62829" lon="2.04933">
        <ele>130</ele>
        <time>2020-05-31T08:40:42Z</time>
      </trkpt>
      <trkpt lat="48.62831" lon="2.04929">
        <ele>130</ele>
        <time>2020-05-31T08:40:44Z</time>
      </trkpt>
      <trkpt lat="48.62832" lon="2.04926">
        <ele>130</ele>
        <time>2020-05-31T08:40:46Z</time>
      </trkpt>
      <trkpt lat="48.62834" lon="2.04922">
        <ele>130</ele>
        <time>2020-05-31T08:40:48Z</time>
      </trkpt>
      <trkpt lat="48.62835" lon="2.04918">
        <ele>130</ele>
        <time>2020-05-31T08:40:50Z</time>
      </trkpt>
      <trkpt lat="48.62837" lon="2.04915">
        <ele>130</ele>
        <time>2020-05-31T08:40:52Z</time>
      </trkpt>
      <trkpt lat="48.62838" lon="2.04911">
        <ele>130</ele>
        <time>2020-05-31T08:40:54Z</time>
      </trkpt>
      <trkpt lat="48.6284" lon="2.04908">
        <ele>130</ele>
        <time>2020-05-31T08:40:56Z</time>
      </trkpt>
      <trkpt lat="48.62841" lon="2.04905">
        <ele>130</ele>
        <time>2020-05-31T08:40:58Z</time>
      </trkpt>
      <trkpt lat="48.62842" lon="2.04902">
        <ele>130</ele>
        <time>2020-05-31T08:41:00Z</time>
      </trkpt>
      <trkpt lat="48.62844" lon="2.049">
        <ele>130</ele>
        <time>2020-05-31T08:41:02Z</time>
      </trkpt>
      <trkpt lat="48.62845" lon="2.04896">
        <ele>130</ele>
        <time>2020-05-31T08:41:04Z</time>
      </trkpt>
      <trkpt lat="48.62847" lon="2.04893">
        <ele>130</ele>
        <time>2020-05-31T08:41:06Z</time>
      </trkpt>
      <trkpt lat="48.62848" lon="2.0489">
        <ele>129</ele>
        <time>2020-05-31T08:41:08Z</time>
      </trkpt>
      <trkpt lat="48.6285" lon="2.04888">
        <ele>129</ele>
        <time>2020-05-31T08:41:10Z</time>
      </trkpt>
      <trkpt lat="48.62852" lon="2.04885">
        <ele>129</ele>
        <time>2020-05-31T08:41:12Z</time>
      </trkpt>
      <trkpt lat="48.62854" lon="2.04883">
        <ele>129</ele>
        <time>2020-05-31T08:41:14Z</time>
      </trkpt>
      <trkpt lat="48.62855" lon="2.0488">
        <ele>129</ele>
        <time>2020-05-31T08:41:16Z</time>
      </trkpt>
      <trkpt lat="48.62857" lon="2.04878">
        <ele>129</ele>
        <time>2020-05-31T08:41:18Z</time>
      </trkpt>
      <trkpt lat="48.62859" lon="2.04876">
        <ele>129</ele>
        <time>2020-05-31T08:41:20Z</time>
      </trkpt>
      <trkpt lat="48.62861" lon="2.04874">
        <ele>129</ele>
        <time>2020-05-31T08:41:22Z</time>
      </trkpt>
      <trkpt lat="48.62864" lon="2.04872">
        <ele>128</ele>
        <time>2020-05-31T08:41:24Z</time>
      </trkpt>
      <trkpt lat="48.62866" lon="2.0487">
        <ele>128</ele>
        <time>2020-05-31T08:41:26Z</time>
      </trkpt>
      <trkpt lat="48.62868" lon="2.04869">
        <ele>128</ele>
        <time>2020-05-31T08:41:28Z</time>
      </trkpt>
      <trkpt lat="48.6287" lon="2.04867">
        <ele>128</ele>
        <time>2020-05-31T08:41:30Z</time>
      </trkpt>
      <trkpt lat="48.62873" lon="2.04866">
        <ele>128</ele>
        <time>2020-05-31T08:41:32Z</time>
      </trkpt>
      <trkpt lat="48.62875" lon="2.04864">
        <ele>128</ele>
        <time>2020-05-31T08:41:34Z</time>
      </trkpt>
      <trkpt lat="48.62877" lon="2.04862">
        <ele>128</ele>
        <time>2020-05-31T08:41:36Z</time>
      </trkpt>
      <trkpt lat="48.6288" lon="2.04862">
        <ele>128</ele>
        <time>2020-05-31T08:41:38Z</time>
      </trkpt>
      <trkpt lat="48.62883" lon="2.0486">
        <ele>128</ele>
        <time>2020-05-31T08:41:40Z</time>
      </trkpt>
      <trkpt lat="48.62886" lon="2.04859">
        <ele>128</ele>
        <time>2020-05-31T08:41:42Z</time>
      </trkpt>
      <trkpt lat="48.62889" lon="2.04858">
        <ele>128</ele>
        <time>2020-05-31T08:41:44Z</time>
      </trkpt>
      <trkpt lat="48.62892" lon="2.04857">
        <ele>128</ele>
        <time>2020-05-31T08:41:46Z</time>
      </trkpt>
      <trkpt lat="48.62895" lon="2.04856">
        <ele>128</ele>
        <time>2020-05-31T08:41:48Z</time>
      </trkpt>
      <trkpt lat="48.62898" lon="2.04855">
        <ele>128</ele>
        <time>2020-05-31T08:41:50Z</time>
      </trkpt>
      <trkpt lat="48.62901" lon="2.04854">
        <ele>128</ele>
        <time>2020-05-31T08:41:52Z</time>
      </trkpt>
      <trkpt lat="48.62903" lon="2.04853">
        <ele>128</ele>
        <time>2020-05-31T08:41:54Z</time>
      </trkpt>
      <trkpt lat="48.62906" lon="2.04852">
        <ele>128</ele>
        <time>2020-05-31T08:41:56Z</time>
      </trkpt>
      <trkpt lat="48.62909" lon="2.04851">
        <ele>128</ele>
        <time>2020-05-31T08:41:58Z</time>
      </trkpt>
      <trkpt lat="48.62912" lon="2.0485">
        <ele>128</ele>
        <time>2020-05-31T08:42:00Z</time>
      </trkpt>
      <trkpt lat="48.62914" lon="2.04849">
        <ele>128</ele>
        <time>2020-05-31T08:42:02Z</time>
      </trkpt>
      <trkpt lat="48.62917" lon="2.04849">
        <ele>128</ele>
        <time>2020-05-31T08:42:04Z</time>
      </trkpt>
      <trkpt lat="48.6292" lon="2.04848">
        <ele>128</ele>
        <time>2020-05-31T08:42:06Z</time>
      </trkpt>
      <trkpt lat="48.62923" lon="2.04847">
        <ele>128</ele>
        <time>2020-05-31T08:42:08Z</time>
      </trkpt>
      <trkpt lat="48.62925" lon="2.04847">
        <ele>128</ele>
        <time>2020-05-31T08:42:10Z</time>
      </trkpt>
      <trkpt lat="48.62928" lon="2.04846">
        <ele>128</ele>
        <time>2020-05-31T08:42:12Z</time>
      </trkpt>
      <trkpt lat="48.6293" lon="2.04845">
        <ele>128</ele>
        <time>2020-05-31T08:42:14Z</time>
      </trkpt>
      <trkpt lat="48.62933" lon="2.04845">
        <ele>128</ele>
        <time>2020-05-31T08:42:16Z</time>
      </trkpt>
      <trkpt lat="48.62936" lon="2.04844">
        <ele>128</ele>
        <time>2020-05-31T08:42:18Z</time>
      </trkpt>
      <trkpt lat="48.62938" lon="2.04842">
        <ele>127</ele>
        <time>2020-05-31T08:42:20Z</time>
      </trkpt>
      <trkpt lat="48.62941" lon="2.04841">
        <ele>127</ele>
        <time>2020-05-31T08:42:22Z</time>
      </trkpt>
      <trkpt lat="48.62944" lon="2.0484">
        <ele>127</ele>
        <time>2020-05-31T08:42:24Z</time>
      </trkpt>
      <trkpt lat="48.62946" lon="2.0484">
        <ele>127</ele>
        <time>2020-05-31T08:42:26Z</time>
      </trkpt>
      <trkpt lat="48.62949" lon="2.04839">
        <ele>127</ele>
        <time>2020-05-31T08:42:28Z</time>
      </trkpt>
      <trkpt lat="48.62952" lon="2.04838">
        <ele>127</ele>
        <time>2020-05-31T08:42:30Z</time>
      </trkpt>
      <trkpt lat="48.62954" lon="2.04836">
        <ele>127</ele>
        <time>2020-05-31T08:42:32Z</time>
      </trkpt>
      <trkpt lat="48.62956" lon="2.04833">
        <ele>127</ele>
        <time>2020-05-31T08:42:34Z</time>
      </trkpt>
      <trkpt lat="48.62958" lon="2.0483">
        <ele>127</ele>
        <time>2020-05-31T08:42:36Z</time>
      </trkpt>
      <trkpt lat="48.62959" lon="2.04827">
        <ele>127</ele>
        <time>2020-05-31T08:42:38Z</time>
      </trkpt>
      <trkpt lat="48.6296" lon="2.04823">
        <ele>126</ele>
        <time>2020-05-31T08:42:40Z</time>
      </trkpt>
      <trkpt lat="48.62961" lon="2.04819">
        <ele>126</ele>
        <time>2020-05-31T08:42:42Z</time>
      </trkpt>
      <trkpt lat="48.62961" lon="2.04814">
        <ele>126</ele>
        <time>2020-05-31T08:42:44Z</time>
      </trkpt>
      <trkpt lat="48.62961" lon="2.0481">
        <ele>126</ele>
        <time>2020-05-31T08:42:46Z</time>
      </trkpt>
      <trkpt lat="48.62962" lon="2.04805">
        <ele>125</ele>
        <time>2020-05-31T08:42:48Z</time>
      </trkpt>
      <trkpt lat="48.62961" lon="2.04801">
        <ele>125</ele>
        <time>2020-05-31T08:42:50Z</time>
      </trkpt>
      <trkpt lat="48.62961" lon="2.04797">
        <ele>125</ele>
        <time>2020-05-31T08:42:52Z</time>
      </trkpt>
      <trkpt lat="48.62961" lon="2.04793">
        <ele>125</ele>
        <time>2020-05-31T08:42:54Z</time>
      </trkpt>
      <trkpt lat="48.62961" lon="2.04788">
        <ele>125</ele>
        <time>2020-05-31T08:42:56Z</time>
      </trkpt>
      <trkpt lat="48.62961" lon="2.04784">
        <ele>125</ele>
        <time>2020-05-31T08:42:58Z</time>
      </trkpt>
      <trkpt lat="48.62961" lon="2.0478">
        <ele>125</ele>
        <time>2020-05-31T08:43:00Z</time>
      </trkpt>
      <trkpt lat="48.6296" lon="2.04775">
        <ele>125</ele>
        <time>2020-05-31T08:43:02Z</time>
      </trkpt>
      <trkpt lat="48.6296" lon="2.04771">
        <ele>125</ele>
        <time>2020-05-31T08:43:04Z</time>
      </trkpt>
      <trkpt lat="48.6296" lon="2.04766">
        <ele>125</ele>
        <time>2020-05-31T08:43:06Z</time>
      </trkpt>
      <trkpt lat="48.6296" lon="2.04762">
        <ele>125</ele>
        <time>2020-05-31T08:43:08Z</time>
      </trkpt>
      <trkpt lat="48.6296" lon="2.04757">
        <ele>125</ele>
        <time>2020-05-31T08:43:10Z</time>
      </trkpt>
      <trkpt lat="48.62959" lon="2.04753">
        <ele>125</ele>
        <time>2020-05-31T08:43:12Z</time>
      </trkpt>
      <trkpt lat="48.62959" lon="2.04749">
        <ele>125</ele>
        <time>2020-05-31T08:43:14Z</time>
      </trkpt>
      <trkpt lat="48.62958" lon="2.04745">
        <ele>125</ele>
        <time>2020-05-31T08:43:16Z</time>
      </trkpt>
      <trkpt lat="48.62958" lon="2.04741">
        <ele>125</ele>
        <time>2020-05-31T08:43:18Z</time>
      </trkpt>
      <trkpt lat="48.62958" lon="2.04736">
        <ele>124</ele>
        <time>2020-05-31T08:43:20Z</time>
      </trkpt>
      <trkpt lat="48.62958" lon="2.04731">
        <ele>124</ele>
        <time>2020-05-31T08:43:22Z</time>
      </trkpt>
      <trkpt lat="48.62958" lon="2.04727">
        <ele>124</ele>
        <time>2020-05-31T08:43:24Z</time>
      </trkpt>
      <trkpt lat="48.62958" lon="2.04723">
        <ele>124</ele>
        <time>2020-05-31T08:43:26Z</time>
      </trkpt>
      <trkpt lat="48.62959" lon="2.04719">
        <ele>124</ele>
        <time>2020-05-31T08:43:28Z</time>
      </trkpt>
      <trkpt lat="48.62959" lon="2.04716">
        <ele>124</ele>
        <time>2020-05-31T08:43:31Z</time>
      </trkpt>
      <trkpt lat="48.6296" lon="2.04712">
        <ele>124</ele>
        <time>2020-05-31T08:43:41Z</time>
      </trkpt>
      <trkpt lat="48.6296" lon="2.04708">
        <ele>124</ele>
        <time>2020-05-31T08:43:43Z</time>
      </trkpt>
      <trkpt lat="48.62959" lon="2.04704">
        <ele>124</ele>
        <time>2020-05-31T08:43:45Z</time>
      </trkpt>
      <trkpt lat="48.62957" lon="2.047">
        <ele>124</ele>
        <time>2020-05-31T08:43:47Z</time>
      </trkpt>
      <trkpt lat="48.62955" lon="2.04696">
        <ele>125</ele>
        <time>2020-05-31T08:43:49Z</time>
      </trkpt>
      <trkpt lat="48.62953" lon="2.04693">
        <ele>125</ele>
        <time>2020-05-31T08:43:51Z</time>
      </trkpt>
      <trkpt lat="48.62951" lon="2.0469">
        <ele>125</ele>
        <time>2020-05-31T08:43:53Z</time>
      </trkpt>
      <trkpt lat="48.62949" lon="2.04687">
        <ele>125</ele>
        <time>2020-05-31T08:43:55Z</time>
      </trkpt>
      <trkpt lat="48.62947" lon="2.04684">
        <ele>125</ele>
        <time>2020-05-31T08:43:57Z</time>
      </trkpt>
      <trkpt lat="48.62944" lon="2.04681">
        <ele>125</ele>
        <time>2020-05-31T08:43:59Z</time>
      </trkpt>
      <trkpt lat="48.62942" lon="2.04679">
        <ele>125</ele>
        <time>2020-05-31T08:44:01Z</time>
      </trkpt>
      <trkpt lat="48.62939" lon="2.04676">
        <ele>125</ele>
        <time>2020-05-31T08:44:03Z</time>
      </trkpt>
      <trkpt lat="48.62936" lon="2.04674">
        <ele>126</ele>
        <time>2020-05-31T08:44:05Z</time>
      </trkpt>
      <trkpt lat="48.62934" lon="2.04671">
        <ele>126</ele>
        <time>2020-05-31T08:44:07Z</time>
      </trkpt>
      <trkpt lat="48.62932" lon="2.04667">
        <ele>126</ele>
        <time>2020-05-31T08:44:09Z</time>
      </trkpt>
      <trkpt lat="48.6293" lon="2.04664">
        <ele>126</ele>
        <time>2020-05-31T08:44:11Z</time>
      </trkpt>
      <trkpt lat="48.62928" lon="2.04661">
        <ele>126</ele>
        <time>2020-05-31T08:44:13Z</time>
      </trkpt>
      <trkpt lat="48.62926" lon="2.04658">
        <ele>126</ele>
        <time>2020-05-31T08:44:15Z</time>
      </trkpt>
      <trkpt lat="48.62924" lon="2.04655">
        <ele>126</ele>
        <time>2020-05-31T08:44:17Z</time>
      </trkpt>
      <trkpt lat="48.62921" lon="2.04652">
        <ele>126</ele>
        <time>2020-05-31T08:44:19Z</time>
      </trkpt>
      <trkpt lat="48.6292" lon="2.0465">
        <ele>126</ele>
        <time>2020-05-31T08:44:20Z</time>
      </trkpt>
      <trkpt lat="48.62919" lon="2.04648">
        <ele>126</ele>
        <time>2020-05-31T08:44:21Z</time>
      </trkpt>
      <trkpt lat="48.62917" lon="2.04646">
        <ele>126</ele>
        <time>2020-05-31T08:44:22Z</time>
      </trkpt>
      <trkpt lat="48.62916" lon="2.04644">
        <ele>126</ele>
        <time>2020-05-31T08:44:23Z</time>
      </trkpt>
      <trkpt lat="48.62914" lon="2.04642">
        <ele>125</ele>
        <time>2020-05-31T08:44:24Z</time>
      </trkpt>
      <trkpt lat="48.62913" lon="2.0464">
        <ele>125</ele>
        <time>2020-05-31T08:44:25Z</time>
      </trkpt>
      <trkpt lat="48.62911" lon="2.04638">
        <ele>125</ele>
        <time>2020-05-31T08:44:26Z</time>
      </trkpt>
      <trkpt lat="48.6291" lon="2.04635">
        <ele>125</ele>
        <time>2020-05-31T08:44:27Z</time>
      </trkpt>
      <trkpt lat="48.6291" lon="2.04632">
        <ele>125</ele>
        <time>2020-05-31T08:44:28Z</time>
      </trkpt>
      <trkpt lat="48.62909" lon="2.04628">
        <ele>125</ele>
        <time>2020-05-31T08:44:30Z</time>
      </trkpt>
      <trkpt lat="48.6291" lon="2.04623">
        <ele>125</ele>
        <time>2020-05-31T08:44:32Z</time>
      </trkpt>
      <trkpt lat="48.62911" lon="2.04619">
        <ele>125</ele>
        <time>2020-05-31T08:44:34Z</time>
      </trkpt>
      <trkpt lat="48.62912" lon="2.04614">
        <ele>125</ele>
        <time>2020-05-31T08:44:36Z</time>
      </trkpt>
      <trkpt lat="48.62914" lon="2.04611">
        <ele>125</ele>
        <time>2020-05-31T08:44:38Z</time>
      </trkpt>
      <trkpt lat="48.62915" lon="2.04607">
        <ele>125</ele>
        <time>2020-05-31T08:44:40Z</time>
      </trkpt>
      <trkpt lat="48.62916" lon="2.04603">
        <ele>125</ele>
        <time>2020-05-31T08:44:42Z</time>
      </trkpt>
      <trkpt lat="48.62918" lon="2.04599">
        <ele>125</ele>
        <time>2020-05-31T08:44:44Z</time>
      </trkpt>
      <trkpt lat="48.62919" lon="2.04594">
        <ele>125</ele>
        <time>2020-05-31T08:44:46Z</time>
      </trkpt>
      <trkpt lat="48.6292" lon="2.0459">
        <ele>125</ele>
        <time>2020-05-31T08:44:48Z</time>
      </trkpt>
      <trkpt lat="48.62922" lon="2.04587">
        <ele>125</ele>
        <time>2020-05-31T08:44:50Z</time>
      </trkpt>
      <trkpt lat="48.62923" lon="2.04583">
        <ele>125</ele>
        <time>2020-05-31T08:44:52Z</time>
      </trkpt>
      <trkpt lat="48.62925" lon="2.04579">
        <ele>125</ele>
        <time>2020-05-31T08:44:54Z</time>
      </trkpt>
      <trkpt lat="48.62926" lon="2.04575">
        <ele>125</ele>
        <time>2020-05-31T08:44:56Z</time>
      </trkpt>
      <trkpt lat="48.62928" lon="2.04571">
        <ele>126</ele>
        <time>2020-05-31T08:44:58Z</time>
      </trkpt>
      <trkpt lat="48.6293" lon="2.04567">
        <ele>126</ele>
        <time>2020-05-31T08:45:00Z</time>
      </trkpt>
      <trkpt lat="48.62931" lon="2.04563">
        <ele>126</ele>
        <time>2020-05-31T08:45:02Z</time>
      </trkpt>
      <trkpt lat="48.62932" lon="2.04559">
        <ele>126</ele>
        <time>2020-05-31T08:45:04Z</time>
      </trkpt>
      <trkpt lat="48.62933" lon="2.04555">
        <ele>126</ele>
        <time>2020-05-31T08:45:06Z</time>
      </trkpt>
      <trkpt lat="48.62935" lon="2.04552">
        <ele>126</ele>
        <time>2020-05-31T08:45:08Z</time>
      </trkpt>
      <trkpt lat="48.62936" lon="2.04549">
        <ele>126</ele>
        <time>2020-05-31T08:45:10Z</time>
      </trkpt>
      <trkpt lat="48.62937" lon="2.04545">
        <ele>127</ele>
        <time>2020-05-31T08:45:12Z</time>
      </trkpt>
      <trkpt lat="48.62939" lon="2.04542">
        <ele>127</ele>
        <time>2020-05-31T08:45:14Z</time>
      </trkpt>
      <trkpt lat="48.6294" lon="2.04539">
        <ele>127</ele>
        <time>2020-05-31T08:45:16Z</time>
      </trkpt>
      <trkpt lat="48.62941" lon="2.04535">
        <ele>127</ele>
        <time>2020-05-31T08:45:18Z</time>
      </trkpt>
      <trkpt lat="48.62943" lon="2.04532">
        <ele>127</ele>
        <time>2020-05-31T08:45:20Z</time>
      </trkpt>
      <trkpt lat="48.62944" lon="2.04529">
        <ele>127</ele>
        <time>2020-05-31T08:45:22Z</time>
      </trkpt>
      <trkpt lat="48.62945" lon="2.04526">
        <ele>128</ele>
        <time>2020-05-31T08:45:24Z</time>
      </trkpt>
      <trkpt lat="48.62946" lon="2.04522">
        <ele>128</ele>
        <time>2020-05-31T08:45:26Z</time>
      </trkpt>
      <trkpt lat="48.62948" lon="2.04519">
        <ele>128</ele>
        <time>2020-05-31T08:45:28Z</time>
      </trkpt>
      <trkpt lat="48.62949" lon="2.04515">
        <ele>128</ele>
        <time>2020-05-31T08:45:30Z</time>
      </trkpt>
      <trkpt lat="48.6295" lon="2.04511">
        <ele>129</ele>
        <time>2020-05-31T08:45:32Z</time>
      </trkpt>
      <trkpt lat="48.62952" lon="2.04508">
        <ele>129</ele>
        <time>2020-05-31T08:45:34Z</time>
      </trkpt>
      <trkpt lat="48.62953" lon="2.04504">
        <ele>129</ele>
        <time>2020-05-31T08:45:36Z</time>
      </trkpt>
      <trkpt lat="48.62954" lon="2.04501">
        <ele>129</ele>
        <time>2020-05-31T08:45:38Z</time>
      </trkpt>
      <trkpt lat="48.62955" lon="2.04497">
        <ele>129</ele>
        <time>2020-05-31T08:45:40Z</time>
      </trkpt>
      <trkpt lat="48.62956" lon="2.04494">
        <ele>130</ele>
        <time>2020-05-31T08:45:42Z</time>
      </trkpt>
      <trkpt lat="48.62958" lon="2.04491">
        <ele>130</ele>
        <time>2020-05-31T08:45:44Z</time>
      </trkpt>
      <trkpt lat="48.62959" lon="2.04488">
        <ele>130</ele>
        <time>2020-05-31T08:45:46Z</time>
      </trkpt>
      <trkpt lat="48.62961" lon="2.04486">
        <ele>130</ele>
        <time>2020-05-31T08:45:48Z</time>
      </trkpt>
      <trkpt lat="48.62963" lon="2.04483">
        <ele>131</ele>
        <time>2020-05-31T08:45:50Z</time>
      </trkpt>
      <trkpt lat="48.62963" lon="2.0448">
        <ele>131</ele>
        <time>2020-05-31T08:45:52Z</time>
      </trkpt>
      <trkpt lat="48.62965" lon="2.04476">
        <ele>131</ele>
        <time>2020-05-31T08:45:54Z</time>
      </trkpt>
      <trkpt lat="48.62966" lon="2.04473">
        <ele>132</ele>
        <time>2020-05-31T08:45:56Z</time>
      </trkpt>
      <trkpt lat="48.62968" lon="2.04469">
        <ele>132</ele>
        <time>2020-05-31T08:45:58Z</time>
      </trkpt>
      <trkpt lat="48.62969" lon="2.04466">
        <ele>132</ele>
        <time>2020-05-31T08:46:00Z</time>
      </trkpt>
      <trkpt lat="48.62971" lon="2.04462">
        <ele>132</ele>
        <time>2020-05-31T08:46:02Z</time>
      </trkpt>
      <trkpt lat="48.62972" lon="2.04459">
        <ele>133</ele>
        <time>2020-05-31T08:46:04Z</time>
      </trkpt>
      <trkpt lat="48.62973" lon="2.04455">
        <ele>133</ele>
        <time>2020-05-31T08:46:06Z</time>
      </trkpt>
      <trkpt lat="48.62975" lon="2.04452">
        <ele>133</ele>
        <time>2020-05-31T08:46:08Z</time>
      </trkpt>
      <trkpt lat="48.62976" lon="2.04448">
        <ele>133</ele>
        <time>2020-05-31T08:46:10Z</time>
      </trkpt>
      <trkpt lat="48.62978" lon="2.04444">
        <ele>134</ele>
        <time>2020-05-31T08:46:12Z</time>
      </trkpt>
      <trkpt lat="48.62979" lon="2.04441">
        <ele>134</ele>
        <time>2020-05-31T08:46:14Z</time>
      </trkpt>
      <trkpt lat="48.62981" lon="2.04438">
        <ele>134</ele>
        <time>2020-05-31T08:46:16Z</time>
      </trkpt>
      <trkpt lat="48.62982" lon="2.04434">
        <ele>134</ele>
        <time>2020-05-31T08:46:18Z</time>
      </trkpt>
      <trkpt lat="48.62983" lon="2.0443">
        <ele>134</ele>
        <time>2020-05-31T08:46:20Z</time>
      </trkpt>
      <trkpt lat="48.62985" lon="2.04426">
        <ele>135</ele>
        <time>2020-05-31T08:46:22Z</time>
      </trkpt>
      <trkpt lat="48.62986" lon="2.04422">
        <ele>135</ele>
        <time>2020-05-31T08:46:24Z</time>
      </trkpt>
      <trkpt lat="48.62988" lon="2.04419">
        <ele>135</ele>
        <time>2020-05-31T08:46:26Z</time>
      </trkpt>
      <trkpt lat="48.62989" lon="2.04415">
        <ele>135</ele>
        <time>2020-05-31T08:46:28Z</time>
      </trkpt>
      <trkpt lat="48.62991" lon="2.04412">
        <ele>135</ele>
        <time>2020-05-31T08:46:30Z</time>
      </trkpt>
      <trkpt lat="48.62992" lon="2.04408">
        <ele>136</ele>
        <time>2020-05-31T08:46:32Z</time>
      </trkpt>
      <trkpt lat="48.62994" lon="2.04404">
        <ele>136</ele>
        <time>2020-05-31T08:46:34Z</time>
      </trkpt>
      <trkpt lat="48.62996" lon="2.04401">
        <ele>136</ele>
        <time>2020-05-31T08:46:36Z</time>
      </trkpt>
      <trkpt lat="48.62997" lon="2.04397">
        <ele>137</ele>
        <time>2020-05-31T08:46:38Z</time>
      </trkpt>
      <trkpt lat="48.62999" lon="2.04394">
        <ele>137</ele>
        <time>2020-05-31T08:46:40Z</time>
      </trkpt>
      <trkpt lat="48.63001" lon="2.0439">
        <ele>137</ele>
        <time>2020-05-31T08:46:42Z</time>
      </trkpt>
      <trkpt lat="48.63002" lon="2.04387">
        <ele>138</ele>
        <time>2020-05-31T08:46:44Z</time>
      </trkpt>
      <trkpt lat="48.63004" lon="2.04384">
        <ele>138</ele>
        <time>2020-05-31T08:46:46Z</time>
      </trkpt>
      <trkpt lat="48.63006" lon="2.0438">
        <ele>138</ele>
        <time>2020-05-31T08:46:48Z</time>
      </trkpt>
      <trkpt lat="48.63008" lon="2.04377">
        <ele>138</ele>
        <time>2020-05-31T08:46:50Z</time>
      </trkpt>
      <trkpt lat="48.63009" lon="2.04373">
        <ele>139</ele>
        <time>2020-05-31T08:46:52Z</time>
      </trkpt>
      <trkpt lat="48.63011" lon="2.04369">
        <ele>139</ele>
        <time>2020-05-31T08:46:54Z</time>
      </trkpt>
      <trkpt lat="48.63012" lon="2.04364">
        <ele>139</ele>
        <time>2020-05-31T08:46:56Z</time>
      </trkpt>
      <trkpt lat="48.63013" lon="2.04361">
        <ele>139</ele>
        <time>2020-05-31T08:46:58Z</time>
      </trkpt>
      <trkpt lat="48.63015" lon="2.04357">
        <ele>139</ele>
        <time>2020-05-31T08:47:00Z</time>
      </trkpt>
      <trkpt lat="48.63016" lon="2.04353">
        <ele>140</ele>
        <time>2020-05-31T08:47:02Z</time>
      </trkpt>
      <trkpt lat="48.63017" lon="2.04349">
        <ele>140</ele>
        <time>2020-05-31T08:47:04Z</time>
      </trkpt>
      <trkpt lat="48.63019" lon="2.04346">
        <ele>140</ele>
        <time>2020-05-31T08:47:06Z</time>
      </trkpt>
      <trkpt lat="48.63021" lon="2.04342">
        <ele>140</ele>
        <time>2020-05-31T08:47:08Z</time>
      </trkpt>
      <trkpt lat="48.63022" lon="2.04339">
        <ele>140</ele>
        <time>2020-05-31T08:47:10Z</time>
      </trkpt>
      <trkpt lat="48.63023" lon="2.04335">
        <ele>140</ele>
        <time>2020-05-31T08:47:12Z</time>
      </trkpt>
      <trkpt lat="48.63025" lon="2.0433">
        <ele>141</ele>
        <time>2020-05-31T08:47:14Z</time>
      </trkpt>
      <trkpt lat="48.63026" lon="2.04327">
        <ele>141</ele>
        <time>2020-05-31T08:47:16Z</time>
      </trkpt>
      <trkpt lat="48.63027" lon="2.04323">
        <ele>141</ele>
        <time>2020-05-31T08:47:18Z</time>
      </trkpt>
      <trkpt lat="48.63029" lon="2.0432">
        <ele>142</ele>
        <time>2020-05-31T08:47:20Z</time>
      </trkpt>
      <trkpt lat="48.6303" lon="2.04316">
        <ele>142</ele>
        <time>2020-05-31T08:47:22Z</time>
      </trkpt>
      <trkpt lat="48.63032" lon="2.04312">
        <ele>142</ele>
        <time>2020-05-31T08:47:24Z</time>
      </trkpt>
      <trkpt lat="48.63033" lon="2.04308">
        <ele>142</ele>
        <time>2020-05-31T08:47:26Z</time>
      </trkpt>
      <trkpt lat="48.63034" lon="2.04304">
        <ele>143</ele>
        <time>2020-05-31T08:47:28Z</time>
      </trkpt>
      <trkpt lat="48.63036" lon="2.04301">
        <ele>143</ele>
        <time>2020-05-31T08:47:30Z</time>
      </trkpt>
      <trkpt lat="48.63037" lon="2.04297">
        <ele>143</ele>
        <time>2020-05-31T08:47:32Z</time>
      </trkpt>
      <trkpt lat="48.63038" lon="2.04294">
        <ele>143</ele>
        <time>2020-05-31T08:47:34Z</time>
      </trkpt>
      <trkpt lat="48.6304" lon="2.0429">
        <ele>144</ele>
        <time>2020-05-31T08:47:36Z</time>
      </trkpt>
      <trkpt lat="48.63041" lon="2.04287">
        <ele>144</ele>
        <time>2020-05-31T08:47:38Z</time>
      </trkpt>
      <trkpt lat="48.63043" lon="2.04283">
        <ele>144</ele>
        <time>2020-05-31T08:47:40Z</time>
      </trkpt>
      <trkpt lat="48.63044" lon="2.0428">
        <ele>144</ele>
        <time>2020-05-31T08:47:42Z</time>
      </trkpt>
      <trkpt lat="48.63046" lon="2.04277">
        <ele>144</ele>
        <time>2020-05-31T08:47:44Z</time>
      </trkpt>
      <trkpt lat="48.63048" lon="2.04273">
        <ele>144</ele>
        <time>2020-05-31T08:47:46Z</time>
      </trkpt>
      <trkpt lat="48.6305" lon="2.0427">
        <ele>144</ele>
        <time>2020-05-31T08:47:48Z</time>
      </trkpt>
      <trkpt lat="48.63051" lon="2.04267">
        <ele>145</ele>
        <time>2020-05-31T08:47:50Z</time>
      </trkpt>
      <trkpt lat="48.63052" lon="2.04263">
        <ele>145</ele>
        <time>2020-05-31T08:47:52Z</time>
      </trkpt>
      <trkpt lat="48.63054" lon="2.04259">
        <ele>146</ele>
        <time>2020-05-31T08:47:54Z</time>
      </trkpt>
      <trkpt lat="48.63056" lon="2.04256">
        <ele>146</ele>
        <time>2020-05-31T08:47:56Z</time>
      </trkpt>
      <trkpt lat="48.63057" lon="2.04252">
        <ele>146</ele>
        <time>2020-05-31T08:47:58Z</time>
      </trkpt>
      <trkpt lat="48.63059" lon="2.04249">
        <ele>146</ele>
        <time>2020-05-31T08:48:00Z</time>
      </trkpt>
      <trkpt lat="48.63061" lon="2.04245">
        <ele>147</ele>
        <time>2020-05-31T08:48:02Z</time>
      </trkpt>
      <trkpt lat="48.63063" lon="2.04242">
        <ele>147</ele>
        <time>2020-05-31T08:48:04Z</time>
      </trkpt>
      <trkpt lat="48.63065" lon="2.04239">
        <ele>147</ele>
        <time>2020-05-31T08:48:06Z</time>
      </trkpt>
      <trkpt lat="48.63066" lon="2.04235">
        <ele>147</ele>
        <time>2020-05-31T08:48:08Z</time>
      </trkpt>
      <trkpt lat="48.63068" lon="2.04232">
        <ele>147</ele>
        <time>2020-05-31T08:48:10Z</time>
      </trkpt>
      <trkpt lat="48.63069" lon="2.04229">
        <ele>148</ele>
        <time>2020-05-31T08:48:12Z</time>
      </trkpt>
      <trkpt lat="48.6307" lon="2.04226">
        <ele>148</ele>
        <time>2020-05-31T08:48:14Z</time>
      </trkpt>
      <trkpt lat="48.63072" lon="2.04222">
        <ele>148</ele>
        <time>2020-05-31T08:48:16Z</time>
      </trkpt>
      <trkpt lat="48.63074" lon="2.04219">
        <ele>148</ele>
        <time>2020-05-31T08:48:18Z</time>
      </trkpt>
      <trkpt lat="48.63075" lon="2.04215">
        <ele>148</ele>
        <time>2020-05-31T08:48:20Z</time>
      </trkpt>
      <trkpt lat="48.63077" lon="2.04212">
        <ele>148</ele>
        <time>2020-05-31T08:48:22Z</time>
      </trkpt>
      <trkpt lat="48.63078" lon="2.04209">
        <ele>149</ele>
        <time>2020-05-31T08:48:24Z</time>
      </trkpt>
      <trkpt lat="48.6308" lon="2.04205">
        <ele>149</ele>
        <time>2020-05-31T08:48:26Z</time>
      </trkpt>
      <trkpt lat="48.63081" lon="2.04202">
        <ele>149</ele>
        <time>2020-05-31T08:48:28Z</time>
      </trkpt>
      <trkpt lat="48.63083" lon="2.042">
        <ele>148</ele>
        <time>2020-05-31T08:48:30Z</time>
      </trkpt>
      <trkpt lat="48.63085" lon="2.04197">
        <ele>148</ele>
        <time>2020-05-31T08:48:32Z</time>
      </trkpt>
      <trkpt lat="48.63086" lon="2.04194">
        <ele>149</ele>
        <time>2020-05-31T08:48:34Z</time>
      </trkpt>
      <trkpt lat="48.63087" lon="2.04191">
        <ele>149</ele>
        <time>2020-05-31T08:48:36Z</time>
      </trkpt>
      <trkpt lat="48.63089" lon="2.04188">
        <ele>149</ele>
        <time>2020-05-31T08:48:38Z</time>
      </trkpt>
      <trkpt lat="48.63091" lon="2.04185">
        <ele>149</ele>
        <time>2020-05-31T08:48:40Z</time>
      </trkpt>
      <trkpt lat="48.63093" lon="2.04183">
        <ele>149</ele>
        <time>2020-05-31T08:48:42Z</time>
      </trkpt>
      <trkpt lat="48.63095" lon="2.04181">
        <ele>149</ele>
        <time>2020-05-31T08:48:44Z</time>
      </trkpt>
      <trkpt lat="48.63097" lon="2.04179">
        <ele>149</ele>
        <time>2020-05-31T08:48:46Z</time>
      </trkpt>
      <trkpt lat="48.63099" lon="2.04177">
        <ele>149</ele>
        <time>2020-05-31T08:48:48Z</time>
      </trkpt>
      <trkpt lat="48.63102" lon="2.04176">
        <ele>149</ele>
        <time>2020-05-31T08:48:50Z</time>
      </trkpt>
      <trkpt lat="48.63104" lon="2.04176">
        <ele>149</ele>
        <time>2020-05-31T08:48:52Z</time>
      </trkpt>
      <trkpt lat="48.63106" lon="2.04175">
        <ele>149</ele>
        <time>2020-05-31T08:48:54Z</time>
      </trkpt>
      <trkpt lat="48.63109" lon="2.04174">
        <ele>149</ele>
        <time>2020-05-31T08:48:56Z</time>
      </trkpt>
      <trkpt lat="48.63111" lon="2.04174">
        <ele>149</ele>
        <time>2020-05-31T08:49:00Z</time>
      </trkpt>
      <trkpt lat="48.63114" lon="2.04173">
        <ele>149</ele>
        <time>2020-05-31T08:49:02Z</time>
      </trkpt>
      <trkpt lat="48.63117" lon="2.04173">
        <ele>149</ele>
        <time>2020-05-31T08:49:04Z</time>
      </trkpt>
      <trkpt lat="48.6312" lon="2.04172">
        <ele>149</ele>
        <time>2020-05-31T08:49:06Z</time>
      </trkpt>
      <trkpt lat="48.63122" lon="2.04172">
        <ele>149</ele>
        <time>2020-05-31T08:49:08Z</time>
      </trkpt>
      <trkpt lat="48.63124" lon="2.04172">
        <ele>149</ele>
        <time>2020-05-31T08:49:10Z</time>
      </trkpt>
      <trkpt lat="48.63127" lon="2.04173">
        <ele>149</ele>
        <time>2020-05-31T08:49:12Z</time>
      </trkpt>
      <trkpt lat="48.63129" lon="2.04173">
        <ele>149</ele>
        <time>2020-05-31T08:49:14Z</time>
      </trkpt>
      <trkpt lat="48.63132" lon="2.04173">
        <ele>149</ele>
        <time>2020-05-31T08:49:16Z</time>
      </trkpt>
      <trkpt lat="48.63135" lon="2.04172">
        <ele>149</ele>
        <time>2020-05-31T08:49:18Z</time>
      </trkpt>
      <trkpt lat="48.63137" lon="2.04172">
        <ele>149</ele>
        <time>2020-05-31T08:49:19Z</time>
      </trkpt>
      <trkpt lat="48.63139" lon="2.04172">
        <ele>149</ele>
        <time>2020-05-31T08:49:20Z</time>
      </trkpt>
      <trkpt lat="48.63142" lon="2.04172">
        <ele>148</ele>
        <time>2020-05-31T08:49:22Z</time>
      </trkpt>
      <trkpt lat="48.63145" lon="2.04171">
        <ele>148</ele>
        <time>2020-05-31T08:49:24Z</time>
      </trkpt>
      <trkpt lat="48.63148" lon="2.0417">
        <ele>148</ele>
        <time>2020-05-31T08:49:26Z</time>
      </trkpt>
      <trkpt lat="48.6315" lon="2.04169">
        <ele>148</ele>
        <time>2020-05-31T08:49:28Z</time>
      </trkpt>
      <trkpt lat="48.63153" lon="2.04168">
        <ele>149</ele>
        <time>2020-05-31T08:49:30Z</time>
      </trkpt>
      <trkpt lat="48.63156" lon="2.04166">
        <ele>149</ele>
        <time>2020-05-31T08:49:32Z</time>
      </trkpt>
      <trkpt lat="48.63159" lon="2.04165">
        <ele>149</ele>
        <time>2020-05-31T08:49:34Z</time>
      </trkpt>
      <trkpt lat="48.63162" lon="2.04164">
        <ele>149</ele>
        <time>2020-05-31T08:49:36Z</time>
      </trkpt>
      <trkpt lat="48.63164" lon="2.04162">
        <ele>149</ele>
        <time>2020-05-31T08:49:38Z</time>
      </trkpt>
      <trkpt lat="48.63167" lon="2.0416">
        <ele>149</ele>
        <time>2020-05-31T08:49:40Z</time>
      </trkpt>
      <trkpt lat="48.63169" lon="2.04157">
        <ele>149</ele>
        <time>2020-05-31T08:49:42Z</time>
      </trkpt>
      <trkpt lat="48.63171" lon="2.04153">
        <ele>149</ele>
        <time>2020-05-31T08:49:44Z</time>
      </trkpt>
      <trkpt lat="48.63173" lon="2.0415">
        <ele>149</ele>
        <time>2020-05-31T08:49:46Z</time>
      </trkpt>
      <trkpt lat="48.63174" lon="2.04146">
        <ele>149</ele>
        <time>2020-05-31T08:49:48Z</time>
      </trkpt>
      <trkpt lat="48.63176" lon="2.04143">
        <ele>149</ele>
        <time>2020-05-31T08:49:50Z</time>
      </trkpt>
      <trkpt lat="48.63177" lon="2.04139">
        <ele>149</ele>
        <time>2020-05-31T08:49:52Z</time>
      </trkpt>
      <trkpt lat="48.63178" lon="2.04135">
        <ele>149</ele>
        <time>2020-05-31T08:49:54Z</time>
      </trkpt>
      <trkpt lat="48.6318" lon="2.04131">
        <ele>149</ele>
        <time>2020-05-31T08:49:56Z</time>
      </trkpt>
      <trkpt lat="48.63181" lon="2.04128">
        <ele>149</ele>
        <time>2020-05-31T08:49:58Z</time>
      </trkpt>
      <trkpt lat="48.63181" lon="2.04124">
        <ele>149</ele>
        <time>2020-05-31T08:50:00Z</time>
      </trkpt>
      <trkpt lat="48.63182" lon="2.04119">
        <ele>149</ele>
        <time>2020-05-31T08:50:02Z</time>
      </trkpt>
      <trkpt lat="48.63182" lon="2.04115">
        <ele>149</ele>
        <time>2020-05-31T08:50:04Z</time>
      </trkpt>
      <trkpt lat="48.63182" lon="2.04111">
        <ele>149</ele>
        <time>2020-05-31T08:50:06Z</time>
      </trkpt>
      <trkpt lat="48.63182" lon="2.04107">
        <ele>149</ele>
        <time>2020-05-31T08:50:08Z</time>
      </trkpt>
      <trkpt lat="48.63183" lon="2.04103">
        <ele>149</ele>
        <time>2020-05-31T08:50:10Z</time>
      </trkpt>
      <trkpt lat="48.63182" lon="2.04099">
        <ele>149</ele>
        <time>2020-05-31T08:50:12Z</time>
      </trkpt>
      <trkpt lat="48.63182" lon="2.04095">
        <ele>149</ele>
        <time>2020-05-31T08:50:14Z</time>
      </trkpt>
      <trkpt lat="48.63182" lon="2.0409">
        <ele>149</ele>
        <time>2020-05-31T08:50:16Z</time>
      </trkpt>
      <trkpt lat="48.63182" lon="2.04086">
        <ele>150</ele>
        <time>2020-05-31T08:50:18Z</time>
      </trkpt>
      <trkpt lat="48.63182" lon="2.04082">
        <ele>150</ele>
        <time>2020-05-31T08:50:20Z</time>
      </trkpt>
      <trkpt lat="48.63182" lon="2.04077">
        <ele>150</ele>
        <time>2020-05-31T08:50:22Z</time>
      </trkpt>
      <trkpt lat="48.63181" lon="2.04073">
        <ele>150</ele>
        <time>2020-05-31T08:50:24Z</time>
      </trkpt>
      <trkpt lat="48.63181" lon="2.04068">
        <ele>150</ele>
        <time>2020-05-31T08:50:26Z</time>
      </trkpt>
      <trkpt lat="48.63181" lon="2.04065">
        <ele>150</ele>
        <time>2020-05-31T08:50:28Z</time>
      </trkpt>
      <trkpt lat="48.63181" lon="2.04061">
        <ele>151</ele>
        <time>2020-05-31T08:50:30Z</time>
      </trkpt>
      <trkpt lat="48.6318" lon="2.04057">
        <ele>151</ele>
        <time>2020-05-31T08:50:32Z</time>
      </trkpt>
      <trkpt lat="48.6318" lon="2.04054">
        <ele>151</ele>
        <time>2020-05-31T08:50:34Z</time>
      </trkpt>
      <trkpt lat="48.6318" lon="2.0405">
        <ele>151</ele>
        <time>2020-05-31T08:50:36Z</time>
      </trkpt>
      <trkpt lat="48.63181" lon="2.04045">
        <ele>152</ele>
        <time>2020-05-31T08:50:38Z</time>
      </trkpt>
      <trkpt lat="48.63181" lon="2.04043">
        <ele>152</ele>
        <time>2020-05-31T08:50:39Z</time>
      </trkpt>
      <trkpt lat="48.63182" lon="2.0404">
        <ele>152</ele>
        <time>2020-05-31T08:50:40Z</time>
      </trkpt>
      <trkpt lat="48.63182" lon="2.04035">
        <ele>152</ele>
        <time>2020-05-31T08:50:42Z</time>
      </trkpt>
      <trkpt lat="48.63183" lon="2.0403">
        <ele>152</ele>
        <time>2020-05-31T08:50:44Z</time>
      </trkpt>
      <trkpt lat="48.63183" lon="2.04025">
        <ele>152</ele>
        <time>2020-05-31T08:50:46Z</time>
      </trkpt>
      <trkpt lat="48.63184" lon="2.04021">
        <ele>153</ele>
        <time>2020-05-31T08:50:48Z</time>
      </trkpt>
      <trkpt lat="48.63184" lon="2.04017">
        <ele>153</ele>
        <time>2020-05-31T08:50:50Z</time>
      </trkpt>
      <trkpt lat="48.63185" lon="2.04014">
        <ele>153</ele>
        <time>2020-05-31T08:50:52Z</time>
      </trkpt>
      <trkpt lat="48.63186" lon="2.0401">
        <ele>153</ele>
        <time>2020-05-31T08:50:54Z</time>
      </trkpt>
      <trkpt lat="48.63186" lon="2.04006">
        <ele>153</ele>
        <time>2020-05-31T08:50:56Z</time>
      </trkpt>
      <trkpt lat="48.63187" lon="2.04002">
        <ele>154</ele>
        <time>2020-05-31T08:50:58Z</time>
      </trkpt>
      <trkpt lat="48.63188" lon="2.03997">
        <ele>154</ele>
        <time>2020-05-31T08:51:00Z</time>
      </trkpt>
      <trkpt lat="48.63188" lon="2.03993">
        <ele>154</ele>
        <time>2020-05-31T08:51:02Z</time>
      </trkpt>
      <trkpt lat="48.63189" lon="2.03989">
        <ele>155</ele>
        <time>2020-05-31T08:51:04Z</time>
      </trkpt>
      <trkpt lat="48.6319" lon="2.03985">
        <ele>155</ele>
        <time>2020-05-31T08:51:06Z</time>
      </trkpt>
      <trkpt lat="48.63191" lon="2.03982">
        <ele>155</ele>
        <time>2020-05-31T08:51:08Z</time>
      </trkpt>
      <trkpt lat="48.63192" lon="2.03978">
        <ele>156</ele>
        <time>2020-05-31T08:51:10Z</time>
      </trkpt>
      <trkpt lat="48.63192" lon="2.03974">
        <ele>156</ele>
        <time>2020-05-31T08:51:12Z</time>
      </trkpt>
      <trkpt lat="48.63193" lon="2.0397">
        <ele>156</ele>
        <time>2020-05-31T08:51:14Z</time>
      </trkpt>
      <trkpt lat="48.63194" lon="2.03966">
        <ele>157</ele>
        <time>2020-05-31T08:51:16Z</time>
      </trkpt>
      <trkpt lat="48.63195" lon="2.03962">
        <ele>157</ele>
        <time>2020-05-31T08:51:18Z</time>
      </trkpt>
      <trkpt lat="48.63196" lon="2.03958">
        <ele>157</ele>
        <time>2020-05-31T08:51:20Z</time>
      </trkpt>
      <trkpt lat="48.63198" lon="2.03954">
        <ele>157</ele>
        <time>2020-05-31T08:51:22Z</time>
      </trkpt>
      <trkpt lat="48.63199" lon="2.0395">
        <ele>158</ele>
        <time>2020-05-31T08:51:24Z</time>
      </trkpt>
      <trkpt lat="48.63199" lon="2.03946">
        <ele>158</ele>
        <time>2020-05-31T08:51:26Z</time>
      </trkpt>
      <trkpt lat="48.632" lon="2.03942">
        <ele>158</ele>
        <time>2020-05-31T08:51:28Z</time>
      </trkpt>
      <trkpt lat="48.63201" lon="2.03939">
        <ele>159</ele>
        <time>2020-05-31T08:51:30Z</time>
      </trkpt>
      <trkpt lat="48.63202" lon="2.03935">
        <ele>159</ele>
        <time>2020-05-31T08:51:32Z</time>
      </trkpt>
      <trkpt lat="48.63203" lon="2.03931">
        <ele>159</ele>
        <time>2020-05-31T08:51:34Z</time>
      </trkpt>
      <trkpt lat="48.63204" lon="2.03928">
        <ele>160</ele>
        <time>2020-05-31T08:51:36Z</time>
      </trkpt>
      <trkpt lat="48.63205" lon="2.03924">
        <ele>160</ele>
        <time>2020-05-31T08:51:38Z</time>
      </trkpt>
      <trkpt lat="48.63207" lon="2.0392">
        <ele>160</ele>
        <time>2020-05-31T08:51:40Z</time>
      </trkpt>
      <trkpt lat="48.63208" lon="2.03917">
        <ele>161</ele>
        <time>2020-05-31T08:51:42Z</time>
      </trkpt>
      <trkpt lat="48.63209" lon="2.03914">
        <ele>161</ele>
        <time>2020-05-31T08:51:44Z</time>
      </trkpt>
      <trkpt lat="48.63211" lon="2.03911">
        <ele>161</ele>
        <time>2020-05-31T08:51:46Z</time>
      </trkpt>
      <trkpt lat="48.63214" lon="2.03908">
        <ele>161</ele>
        <time>2020-05-31T08:51:48Z</time>
      </trkpt>
      <trkpt lat="48.63216" lon="2.03906">
        <ele>161</ele>
        <time>2020-05-31T08:51:50Z</time>
      </trkpt>
      <trkpt lat="48.63218" lon="2.03903">
        <ele>162</ele>
        <time>2020-05-31T08:51:52Z</time>
      </trkpt>
      <trkpt lat="48.6322" lon="2.039">
        <ele>162</ele>
        <time>2020-05-31T08:51:54Z</time>
      </trkpt>
      <trkpt lat="48.63222" lon="2.03897">
        <ele>162</ele>
        <time>2020-05-31T08:51:56Z</time>
      </trkpt>
      <trkpt lat="48.63224" lon="2.03895">
        <ele>162</ele>
        <time>2020-05-31T08:51:58Z</time>
      </trkpt>
      <trkpt lat="48.63226" lon="2.03892">
        <ele>162</ele>
        <time>2020-05-31T08:52:00Z</time>
      </trkpt>
      <trkpt lat="48.63228" lon="2.0389">
        <ele>162</ele>
        <time>2020-05-31T08:52:02Z</time>
      </trkpt>
      <trkpt lat="48.6323" lon="2.03887">
        <ele>162</ele>
        <time>2020-05-31T08:52:04Z</time>
      </trkpt>
      <trkpt lat="48.63231" lon="2.03885">
        <ele>162</ele>
        <time>2020-05-31T08:52:06Z</time>
      </trkpt>
      <trkpt lat="48.63232" lon="2.03883">
        <ele>163</ele>
        <time>2020-05-31T08:52:09Z</time>
      </trkpt>
      <trkpt lat="48.63234" lon="2.0388">
        <ele>164</ele>
        <time>2020-05-31T08:52:16Z</time>
      </trkpt>
      <trkpt lat="48.63236" lon="2.03878">
        <ele>164</ele>
        <time>2020-05-31T08:52:18Z</time>
      </trkpt>
      <trkpt lat="48.63238" lon="2.03876">
        <ele>164</ele>
        <time>2020-05-31T08:52:20Z</time>
      </trkpt>
      <trkpt lat="48.63239" lon="2.03874">
        <ele>165</ele>
        <time>2020-05-31T08:52:22Z</time>
      </trkpt>
      <trkpt lat="48.63241" lon="2.03871">
        <ele>165</ele>
        <time>2020-05-31T08:52:24Z</time>
      </trkpt>
      <trkpt lat="48.63243" lon="2.03869">
        <ele>165</ele>
        <time>2020-05-31T08:52:26Z</time>
      </trkpt>
      <trkpt lat="48.63244" lon="2.03867">
        <ele>165</ele>
        <time>2020-05-31T08:52:28Z</time>
      </trkpt>
      <trkpt lat="48.63246" lon="2.03864">
        <ele>165</ele>
        <time>2020-05-31T08:52:30Z</time>
      </trkpt>
      <trkpt lat="48.63248" lon="2.03862">
        <ele>165</ele>
        <time>2020-05-31T08:52:32Z</time>
      </trkpt>
      <trkpt lat="48.6325" lon="2.0386">
        <ele>165</ele>
        <time>2020-05-31T08:52:34Z</time>
      </trkpt>
      <trkpt lat="48.63252" lon="2.03857">
        <ele>165</ele>
        <time>2020-05-31T08:52:36Z</time>
      </trkpt>
      <trkpt lat="48.63254" lon="2.03855">
        <ele>165</ele>
        <time>2020-05-31T08:52:38Z</time>
      </trkpt>
      <trkpt lat="48.63256" lon="2.03852">
        <ele>165</ele>
        <time>2020-05-31T08:52:40Z</time>
      </trkpt>
      <trkpt lat="48.63257" lon="2.03849">
        <ele>165</ele>
        <time>2020-05-31T08:52:42Z</time>
      </trkpt>
      <trkpt lat="48.63258" lon="2.03846">
        <ele>165</ele>
        <time>2020-05-31T08:52:44Z</time>
      </trkpt>
      <trkpt lat="48.6326" lon="2.03843">
        <ele>165</ele>
        <time>2020-05-31T08:52:46Z</time>
      </trkpt>
      <trkpt lat="48.63261" lon="2.03839">
        <ele>165</ele>
        <time>2020-05-31T08:52:48Z</time>
      </trkpt>
      <trkpt lat="48.63261" lon="2.03835">
        <ele>165</ele>
        <time>2020-05-31T08:52:50Z</time>
      </trkpt>
      <trkpt lat="48.63262" lon="2.03832">
        <ele>165</ele>
        <time>2020-05-31T08:52:52Z</time>
      </trkpt>
      <trkpt lat="48.63262" lon="2.03829">
        <ele>166</ele>
        <time>2020-05-31T08:52:54Z</time>
      </trkpt>
      <trkpt lat="48.63262" lon="2.03825">
        <ele>166</ele>
        <time>2020-05-31T08:52:56Z</time>
      </trkpt>
      <trkpt lat="48.63262" lon="2.03821">
        <ele>166</ele>
        <time>2020-05-31T08:52:58Z</time>
      </trkpt>
      <trkpt lat="48.63262" lon="2.03817">
        <ele>166</ele>
        <time>2020-05-31T08:53:00Z</time>
      </trkpt>
      <trkpt lat="48.63262" lon="2.03813">
        <ele>166</ele>
        <time>2020-05-31T08:53:02Z</time>
      </trkpt>
      <trkpt lat="48.63262" lon="2.03809">
        <ele>166</ele>
        <time>2020-05-31T08:53:04Z</time>
      </trkpt>
      <trkpt lat="48.63262" lon="2.03805">
        <ele>166</ele>
        <time>2020-05-31T08:53:06Z</time>
      </trkpt>
      <trkpt lat="48.63262" lon="2.03801">
        <ele>166</ele>
        <time>2020-05-31T08:53:08Z</time>
      </trkpt>
      <trkpt lat="48.63262" lon="2.03797">
        <ele>166</ele>
        <time>2020-05-31T08:53:10Z</time>
      </trkpt>
      <trkpt lat="48.63262" lon="2.03793">
        <ele>166</ele>
        <time>2020-05-31T08:53:12Z</time>
      </trkpt>
      <trkpt lat="48.63263" lon="2.03789">
        <ele>166</ele>
        <time>2020-05-31T08:53:14Z</time>
      </trkpt>
      <trkpt lat="48.63263" lon="2.03786">
        <ele>166</ele>
        <time>2020-05-31T08:53:16Z</time>
      </trkpt>
      <trkpt lat="48.63263" lon="2.03782">
        <ele>166</ele>
        <time>2020-05-31T08:53:18Z</time>
      </trkpt>
      <trkpt lat="48.63264" lon="2.03779">
        <ele>166</ele>
        <time>2020-05-31T08:53:20Z</time>
      </trkpt>
      <trkpt lat="48.63264" lon="2.03775">
        <ele>167</ele>
        <time>2020-05-31T08:53:22Z</time>
      </trkpt>
      <trkpt lat="48.63265" lon="2.03772">
        <ele>167</ele>
        <time>2020-05-31T08:53:24Z</time>
      </trkpt>
      <trkpt lat="48.63266" lon="2.03769">
        <ele>167</ele>
        <time>2020-05-31T08:53:26Z</time>
      </trkpt>
      <trkpt lat="48.63267" lon="2.03766">
        <ele>167</ele>
        <time>2020-05-31T08:53:28Z</time>
      </trkpt>
      <trkpt lat="48.63269" lon="2.03763">
        <ele>168</ele>
        <time>2020-05-31T08:53:30Z</time>
      </trkpt>
      <trkpt lat="48.63271" lon="2.03759">
        <ele>168</ele>
        <time>2020-05-31T08:53:32Z</time>
      </trkpt>
      <trkpt lat="48.63272" lon="2.03756">
        <ele>168</ele>
        <time>2020-05-31T08:53:33Z</time>
      </trkpt>
      <trkpt lat="48.63274" lon="2.03754">
        <ele>168</ele>
        <time>2020-05-31T08:53:34Z</time>
      </trkpt>
      <trkpt lat="48.63275" lon="2.03751">
        <ele>168</ele>
        <time>2020-05-31T08:53:35Z</time>
      </trkpt>
      <trkpt lat="48.63276" lon="2.03749">
        <ele>168</ele>
        <time>2020-05-31T08:53:36Z</time>
      </trkpt>
      <trkpt lat="48.63278" lon="2.03745">
        <ele>168</ele>
        <time>2020-05-31T08:53:38Z</time>
      </trkpt>
      <trkpt lat="48.6328" lon="2.03742">
        <ele>168</ele>
        <time>2020-05-31T08:53:40Z</time>
      </trkpt>
      <trkpt lat="48.63282" lon="2.0374">
        <ele>168</ele>
        <time>2020-05-31T08:53:42Z</time>
      </trkpt>
      <trkpt lat="48.63284" lon="2.03738">
        <ele>168</ele>
        <time>2020-05-31T08:53:44Z</time>
      </trkpt>
      <trkpt lat="48.63286" lon="2.03736">
        <ele>168</ele>
        <time>2020-05-31T08:53:46Z</time>
      </trkpt>
      <trkpt lat="48.63288" lon="2.03734">
        <ele>169</ele>
        <time>2020-05-31T08:53:48Z</time>
      </trkpt>
      <trkpt lat="48.63285" lon="2.03735">
        <ele>167</ele>
        <time>2020-05-31T08:54:25Z</time>
      </trkpt>
      <trkpt lat="48.63284" lon="2.03738">
        <ele>167</ele>
        <time>2020-05-31T08:54:27Z</time>
      </trkpt>
      <trkpt lat="48.63282" lon="2.03741">
        <ele>167</ele>
        <time>2020-05-31T08:54:29Z</time>
      </trkpt>
      <trkpt lat="48.63281" lon="2.03744">
        <ele>167</ele>
        <time>2020-05-31T08:54:31Z</time>
      </trkpt>
      <trkpt lat="48.63279" lon="2.03747">
        <ele>167</ele>
        <time>2020-05-31T08:54:33Z</time>
      </trkpt>
      <trkpt lat="48.63277" lon="2.03751">
        <ele>167</ele>
        <time>2020-05-31T08:54:35Z</time>
      </trkpt>
      <trkpt lat="48.63275" lon="2.03754">
        <ele>167</ele>
        <time>2020-05-31T08:54:37Z</time>
      </trkpt>
      <trkpt lat="48.63273" lon="2.03756">
        <ele>167</ele>
        <time>2020-05-31T08:54:39Z</time>
      </trkpt>
      <trkpt lat="48.63271" lon="2.03759">
        <ele>167</ele>
        <time>2020-05-31T08:54:41Z</time>
      </trkpt>
      <trkpt lat="48.6327" lon="2.03762">
        <ele>167</ele>
        <time>2020-05-31T08:54:43Z</time>
      </trkpt>
      <trkpt lat="48.63268" lon="2.03764">
        <ele>167</ele>
        <time>2020-05-31T08:54:45Z</time>
      </trkpt>
      <trkpt lat="48.63266" lon="2.03766">
        <ele>167</ele>
        <time>2020-05-31T08:54:47Z</time>
      </trkpt>
      <trkpt lat="48.63264" lon="2.03765">
        <ele>166</ele>
        <time>2020-05-31T08:54:49Z</time>
      </trkpt>
      <trkpt lat="48.63262" lon="2.03763">
        <ele>166</ele>
        <time>2020-05-31T08:54:51Z</time>
      </trkpt>
      <trkpt lat="48.63261" lon="2.03758">
        <ele>166</ele>
        <time>2020-05-31T08:54:53Z</time>
      </trkpt>
      <trkpt lat="48.63261" lon="2.03754">
        <ele>166</ele>
        <time>2020-05-31T08:54:55Z</time>
      </trkpt>
      <trkpt lat="48.63261" lon="2.0375">
        <ele>166</ele>
        <time>2020-05-31T08:54:57Z</time>
      </trkpt>
      <trkpt lat="48.6326" lon="2.03746">
        <ele>166</ele>
        <time>2020-05-31T08:54:59Z</time>
      </trkpt>
      <trkpt lat="48.6326" lon="2.03742">
        <ele>166</ele>
        <time>2020-05-31T08:55:01Z</time>
      </trkpt>
      <trkpt lat="48.63259" lon="2.03738">
        <ele>166</ele>
        <time>2020-05-31T08:55:03Z</time>
      </trkpt>
      <trkpt lat="48.63259" lon="2.03734">
        <ele>166</ele>
        <time>2020-05-31T08:55:05Z</time>
      </trkpt>
      <trkpt lat="48.63258" lon="2.03731">
        <ele>166</ele>
        <time>2020-05-31T08:55:07Z</time>
      </trkpt>
      <trkpt lat="48.63258" lon="2.03728">
        <ele>166</ele>
        <time>2020-05-31T08:55:09Z</time>
      </trkpt>
      <trkpt lat="48.63258" lon="2.03724">
        <ele>166</ele>
        <time>2020-05-31T08:55:11Z</time>
      </trkpt>
      <trkpt lat="48.63258" lon="2.03721">
        <ele>166</ele>
        <time>2020-05-31T08:55:13Z</time>
      </trkpt>
      <trkpt lat="48.63257" lon="2.03717">
        <ele>166</ele>
        <time>2020-05-31T08:55:15Z</time>
      </trkpt>
      <trkpt lat="48.63257" lon="2.03713">
        <ele>166</ele>
        <time>2020-05-31T08:55:17Z</time>
      </trkpt>
      <trkpt lat="48.63256" lon="2.0371">
        <ele>166</ele>
        <time>2020-05-31T08:55:19Z</time>
      </trkpt>
      <trkpt lat="48.63255" lon="2.03706">
        <ele>166</ele>
        <time>2020-05-31T08:55:21Z</time>
      </trkpt>
      <trkpt lat="48.63255" lon="2.03702">
        <ele>166</ele>
        <time>2020-05-31T08:55:23Z</time>
      </trkpt>
      <trkpt lat="48.63255" lon="2.03698">
        <ele>166</ele>
        <time>2020-05-31T08:55:25Z</time>
      </trkpt>
      <trkpt lat="48.63254" lon="2.03694">
        <ele>166</ele>
        <time>2020-05-31T08:55:27Z</time>
      </trkpt>
      <trkpt lat="48.63254" lon="2.0369">
        <ele>166</ele>
        <time>2020-05-31T08:55:29Z</time>
      </trkpt>
      <trkpt lat="48.63253" lon="2.03686">
        <ele>166</ele>
        <time>2020-05-31T08:55:31Z</time>
      </trkpt>
      <trkpt lat="48.63252" lon="2.03682">
        <ele>167</ele>
        <time>2020-05-31T08:55:33Z</time>
      </trkpt>
      <trkpt lat="48.63251" lon="2.03678">
        <ele>167</ele>
        <time>2020-05-31T08:55:35Z</time>
      </trkpt>
      <trkpt lat="48.63251" lon="2.03674">
        <ele>167</ele>
        <time>2020-05-31T08:55:37Z</time>
      </trkpt>
      <trkpt lat="48.63251" lon="2.0367">
        <ele>167</ele>
        <time>2020-05-31T08:55:39Z</time>
      </trkpt>
      <trkpt lat="48.6325" lon="2.03666">
        <ele>167</ele>
        <time>2020-05-31T08:55:41Z</time>
      </trkpt>
      <trkpt lat="48.6325" lon="2.03664">
        <ele>167</ele>
        <time>2020-05-31T08:55:43Z</time>
      </trkpt>
      <trkpt lat="48.6325" lon="2.0366">
        <ele>167</ele>
        <time>2020-05-31T08:55:45Z</time>
      </trkpt>
      <trkpt lat="48.63251" lon="2.03657">
        <ele>167</ele>
        <time>2020-05-31T08:55:47Z</time>
      </trkpt>
      <trkpt lat="48.63252" lon="2.03653">
        <ele>168</ele>
        <time>2020-05-31T08:55:49Z</time>
      </trkpt>
      <trkpt lat="48.63253" lon="2.03649">
        <ele>168</ele>
        <time>2020-05-31T08:55:51Z</time>
      </trkpt>
      <trkpt lat="48.63253" lon="2.03646">
        <ele>168</ele>
        <time>2020-05-31T08:55:53Z</time>
      </trkpt>
      <trkpt lat="48.63253" lon="2.03642">
        <ele>168</ele>
        <time>2020-05-31T08:55:55Z</time>
      </trkpt>
      <trkpt lat="48.63251" lon="2.03639">
        <ele>168</ele>
        <time>2020-05-31T08:55:57Z</time>
      </trkpt>
      <trkpt lat="48.6325" lon="2.03635">
        <ele>168</ele>
        <time>2020-05-31T08:55:59Z</time>
      </trkpt>
      <trkpt lat="48.63248" lon="2.03631">
        <ele>168</ele>
        <time>2020-05-31T08:56:01Z</time>
      </trkpt>
      <trkpt lat="48.63247" lon="2.03629">
        <ele>168</ele>
        <time>2020-05-31T08:56:03Z</time>
      </trkpt>
      <trkpt lat="48.63245" lon="2.03626">
        <ele>168</ele>
        <time>2020-05-31T08:56:05Z</time>
      </trkpt>
      <trkpt lat="48.63244" lon="2.03623">
        <ele>168</ele>
        <time>2020-05-31T08:56:07Z</time>
      </trkpt>
      <trkpt lat="48.63242" lon="2.03619">
        <ele>168</ele>
        <time>2020-05-31T08:56:09Z</time>
      </trkpt>
      <trkpt lat="48.63241" lon="2.03615">
        <ele>168</ele>
        <time>2020-05-31T08:56:11Z</time>
      </trkpt>
      <trkpt lat="48.63239" lon="2.03611">
        <ele>168</ele>
        <time>2020-05-31T08:56:13Z</time>
      </trkpt>
      <trkpt lat="48.63238" lon="2.03608">
        <ele>168</ele>
        <time>2020-05-31T08:56:15Z</time>
      </trkpt>
      <trkpt lat="48.63236" lon="2.03604">
        <ele>168</ele>
        <time>2020-05-31T08:56:17Z</time>
      </trkpt>
      <trkpt lat="48.63235" lon="2.036">
        <ele>168</ele>
        <time>2020-05-31T08:56:19Z</time>
      </trkpt>
      <trkpt lat="48.63233" lon="2.03596">
        <ele>168</ele>
        <time>2020-05-31T08:56:21Z</time>
      </trkpt>
      <trkpt lat="48.63231" lon="2.03592">
        <ele>167</ele>
        <time>2020-05-31T08:56:23Z</time>
      </trkpt>
      <trkpt lat="48.6323" lon="2.03588">
        <ele>167</ele>
        <time>2020-05-31T08:56:25Z</time>
      </trkpt>
      <trkpt lat="48.63228" lon="2.03584">
        <ele>167</ele>
        <time>2020-05-31T08:56:27Z</time>
      </trkpt>
      <trkpt lat="48.63226" lon="2.03581">
        <ele>167</ele>
        <time>2020-05-31T08:56:29Z</time>
      </trkpt>
      <trkpt lat="48.63225" lon="2.03578">
        <ele>167</ele>
        <time>2020-05-31T08:56:31Z</time>
      </trkpt>
      <trkpt lat="48.63223" lon="2.03574">
        <ele>167</ele>
        <time>2020-05-31T08:56:33Z</time>
      </trkpt>
      <trkpt lat="48.63222" lon="2.0357">
        <ele>167</ele>
        <time>2020-05-31T08:56:35Z</time>
      </trkpt>
      <trkpt lat="48.6322" lon="2.03567">
        <ele>167</ele>
        <time>2020-05-31T08:56:37Z</time>
      </trkpt>
      <trkpt lat="48.63218" lon="2.03563">
        <ele>167</ele>
        <time>2020-05-31T08:56:39Z</time>
      </trkpt>
      <trkpt lat="48.63217" lon="2.0356">
        <ele>167</ele>
        <time>2020-05-31T08:56:41Z</time>
      </trkpt>
      <trkpt lat="48.63215" lon="2.03556">
        <ele>167</ele>
        <time>2020-05-31T08:56:43Z</time>
      </trkpt>
      <trkpt lat="48.63214" lon="2.03553">
        <ele>167</ele>
        <time>2020-05-31T08:56:45Z</time>
      </trkpt>
      <trkpt lat="48.63213" lon="2.03549">
        <ele>167</ele>
        <time>2020-05-31T08:56:47Z</time>
      </trkpt>
      <trkpt lat="48.63213" lon="2.03546">
        <ele>167</ele>
        <time>2020-05-31T08:56:49Z</time>
      </trkpt>
      <trkpt lat="48.63212" lon="2.03543">
        <ele>167</ele>
        <time>2020-05-31T08:56:52Z</time>
      </trkpt>
      <trkpt lat="48.6321" lon="2.03542">
        <ele>167</ele>
        <time>2020-05-31T08:56:54Z</time>
      </trkpt>
      <trkpt lat="48.63207" lon="2.03539">
        <ele>167</ele>
        <time>2020-05-31T08:56:56Z</time>
      </trkpt>
      <trkpt lat="48.63205" lon="2.03537">
        <ele>167</ele>
        <time>2020-05-31T08:56:58Z</time>
      </trkpt>
      <trkpt lat="48.63204" lon="2.03534">
        <ele>167</ele>
        <time>2020-05-31T08:57:00Z</time>
      </trkpt>
      <trkpt lat="48.63202" lon="2.0353">
        <ele>167</ele>
        <time>2020-05-31T08:57:02Z</time>
      </trkpt>
      <trkpt lat="48.632" lon="2.03527">
        <ele>167</ele>
        <time>2020-05-31T08:57:04Z</time>
      </trkpt>
      <trkpt lat="48.63199" lon="2.03523">
        <ele>167</ele>
        <time>2020-05-31T08:57:06Z</time>
      </trkpt>
      <trkpt lat="48.63198" lon="2.0352">
        <ele>167</ele>
        <time>2020-05-31T08:57:08Z</time>
      </trkpt>
      <trkpt lat="48.63196" lon="2.03516">
        <ele>167</ele>
        <time>2020-05-31T08:57:10Z</time>
      </trkpt>
      <trkpt lat="48.63195" lon="2.03513">
        <ele>167</ele>
        <time>2020-05-31T08:57:12Z</time>
      </trkpt>
      <trkpt lat="48.63193" lon="2.0351">
        <ele>167</ele>
        <time>2020-05-31T08:57:14Z</time>
      </trkpt>
      <trkpt lat="48.63192" lon="2.03507">
        <ele>167</ele>
        <time>2020-05-31T08:57:16Z</time>
      </trkpt>
      <trkpt lat="48.6319" lon="2.03505">
        <ele>166</ele>
        <time>2020-05-31T08:57:18Z</time>
      </trkpt>
      <trkpt lat="48.63189" lon="2.03503">
        <ele>166</ele>
        <time>2020-05-31T08:57:20Z</time>
      </trkpt>
      <trkpt lat="48.63187" lon="2.035">
        <ele>166</ele>
        <time>2020-05-31T08:57:22Z</time>
      </trkpt>
      <trkpt lat="48.63186" lon="2.03497">
        <ele>166</ele>
        <time>2020-05-31T08:57:24Z</time>
      </trkpt>
      <trkpt lat="48.63184" lon="2.03494">
        <ele>166</ele>
        <time>2020-05-31T08:57:26Z</time>
      </trkpt>
      <trkpt lat="48.63183" lon="2.03491">
        <ele>166</ele>
        <time>2020-05-31T08:57:28Z</time>
      </trkpt>
      <trkpt lat="48.63181" lon="2.03488">
        <ele>166</ele>
        <time>2020-05-31T08:57:30Z</time>
      </trkpt>
      <trkpt lat="48.6318" lon="2.03485">
        <ele>166</ele>
        <time>2020-05-31T08:57:32Z</time>
      </trkpt>
      <trkpt lat="48.63178" lon="2.03482">
        <ele>166</ele>
        <time>2020-05-31T08:57:34Z</time>
      </trkpt>
      <trkpt lat="48.63177" lon="2.03479">
        <ele>166</ele>
        <time>2020-05-31T08:57:36Z</time>
      </trkpt>
      <trkpt lat="48.63175" lon="2.03476">
        <ele>166</ele>
        <time>2020-05-31T08:57:38Z</time>
      </trkpt>
      <trkpt lat="48.63174" lon="2.03473">
        <ele>166</ele>
        <time>2020-05-31T08:57:40Z</time>
      </trkpt>
      <trkpt lat="48.63172" lon="2.0347">
        <ele>166</ele>
        <time>2020-05-31T08:57:42Z</time>
      </trkpt>
      <trkpt lat="48.63171" lon="2.03467">
        <ele>166</ele>
        <time>2020-05-31T08:57:44Z</time>
      </trkpt>
      <trkpt lat="48.63169" lon="2.03464">
        <ele>166</ele>
        <time>2020-05-31T08:57:46Z</time>
      </trkpt>
      <trkpt lat="48.63167" lon="2.03461">
        <ele>166</ele>
        <time>2020-05-31T08:57:48Z</time>
      </trkpt>
      <trkpt lat="48.63165" lon="2.03458">
        <ele>166</ele>
        <time>2020-05-31T08:57:50Z</time>
      </trkpt>
      <trkpt lat="48.63163" lon="2.03456">
        <ele>166</ele>
        <time>2020-05-31T08:57:52Z</time>
      </trkpt>
      <trkpt lat="48.63161" lon="2.03454">
        <ele>166</ele>
        <time>2020-05-31T08:57:54Z</time>
      </trkpt>
      <trkpt lat="48.63159" lon="2.03452">
        <ele>166</ele>
        <time>2020-05-31T08:57:56Z</time>
      </trkpt>
      <trkpt lat="48.63157" lon="2.0345">
        <ele>165</ele>
        <time>2020-05-31T08:57:58Z</time>
      </trkpt>
      <trkpt lat="48.63155" lon="2.03448">
        <ele>166</ele>
        <time>2020-05-31T08:58:00Z</time>
      </trkpt>
      <trkpt lat="48.63153" lon="2.03445">
        <ele>166</ele>
        <time>2020-05-31T08:58:02Z</time>
      </trkpt>
      <trkpt lat="48.63151" lon="2.03442">
        <ele>166</ele>
        <time>2020-05-31T08:58:04Z</time>
      </trkpt>
      <trkpt lat="48.6315" lon="2.03439">
        <ele>166</ele>
        <time>2020-05-31T08:58:06Z</time>
      </trkpt>
      <trkpt lat="48.63149" lon="2.03436">
        <ele>166</ele>
        <time>2020-05-31T08:58:08Z</time>
      </trkpt>
      <trkpt lat="48.63147" lon="2.03434">
        <ele>166</ele>
        <time>2020-05-31T08:58:10Z</time>
      </trkpt>
      <trkpt lat="48.63145" lon="2.03431">
        <ele>166</ele>
        <time>2020-05-31T08:58:12Z</time>
      </trkpt>
      <trkpt lat="48.63143" lon="2.03429">
        <ele>166</ele>
        <time>2020-05-31T08:58:14Z</time>
      </trkpt>
      <trkpt lat="48.63141" lon="2.03427">
        <ele>166</ele>
        <time>2020-05-31T08:58:16Z</time>
      </trkpt>
      <trkpt lat="48.63139" lon="2.03425">
        <ele>166</ele>
        <time>2020-05-31T08:58:18Z</time>
      </trkpt>
      <trkpt lat="48.63136" lon="2.03423">
        <ele>166</ele>
        <time>2020-05-31T08:58:20Z</time>
      </trkpt>
      <trkpt lat="48.63134" lon="2.0342">
        <ele>165</ele>
        <time>2020-05-31T08:58:22Z</time>
      </trkpt>
      <trkpt lat="48.63132" lon="2.03418">
        <ele>165</ele>
        <time>2020-05-31T08:58:24Z</time>
      </trkpt>
      <trkpt lat="48.6313" lon="2.03417">
        <ele>165</ele>
        <time>2020-05-31T08:58:26Z</time>
      </trkpt>
      <trkpt lat="48.63128" lon="2.03414">
        <ele>165</ele>
        <time>2020-05-31T08:58:28Z</time>
      </trkpt>
      <trkpt lat="48.63126" lon="2.03412">
        <ele>165</ele>
        <time>2020-05-31T08:58:30Z</time>
      </trkpt>
      <trkpt lat="48.63124" lon="2.03409">
        <ele>165</ele>
        <time>2020-05-31T08:58:32Z</time>
      </trkpt>
      <trkpt lat="48.63122" lon="2.03407">
        <ele>165</ele>
        <time>2020-05-31T08:58:34Z</time>
      </trkpt>
      <trkpt lat="48.6312" lon="2.03404">
        <ele>165</ele>
        <time>2020-05-31T08:58:36Z</time>
      </trkpt>
      <trkpt lat="48.63118" lon="2.03402">
        <ele>165</ele>
        <time>2020-05-31T08:58:38Z</time>
      </trkpt>
      <trkpt lat="48.63116" lon="2.03399">
        <ele>165</ele>
        <time>2020-05-31T08:58:40Z</time>
      </trkpt>
      <trkpt lat="48.63114" lon="2.03396">
        <ele>165</ele>
        <time>2020-05-31T08:58:42Z</time>
      </trkpt>
      <trkpt lat="48.63111" lon="2.03394">
        <ele>165</ele>
        <time>2020-05-31T08:58:44Z</time>
      </trkpt>
      <trkpt lat="48.6311" lon="2.03391">
        <ele>165</ele>
        <time>2020-05-31T08:58:46Z</time>
      </trkpt>
      <trkpt lat="48.63107" lon="2.03388">
        <ele>165</ele>
        <time>2020-05-31T08:58:48Z</time>
      </trkpt>
      <trkpt lat="48.63106" lon="2.03385">
        <ele>165</ele>
        <time>2020-05-31T08:58:50Z</time>
      </trkpt>
      <trkpt lat="48.63104" lon="2.03382">
        <ele>165</ele>
        <time>2020-05-31T08:58:52Z</time>
      </trkpt>
      <trkpt lat="48.63102" lon="2.03379">
        <ele>165</ele>
        <time>2020-05-31T08:58:54Z</time>
      </trkpt>
      <trkpt lat="48.631" lon="2.03376">
        <ele>165</ele>
        <time>2020-05-31T08:58:56Z</time>
      </trkpt>
      <trkpt lat="48.63098" lon="2.03373">
        <ele>165</ele>
        <time>2020-05-31T08:58:58Z</time>
      </trkpt>
      <trkpt lat="48.63096" lon="2.03371">
        <ele>165</ele>
        <time>2020-05-31T08:59:00Z</time>
      </trkpt>
      <trkpt lat="48.63094" lon="2.03368">
        <ele>165</ele>
        <time>2020-05-31T08:59:02Z</time>
      </trkpt>
      <trkpt lat="48.63092" lon="2.03365">
        <ele>165</ele>
        <time>2020-05-31T08:59:04Z</time>
      </trkpt>
      <trkpt lat="48.6309" lon="2.03362">
        <ele>164</ele>
        <time>2020-05-31T08:59:06Z</time>
      </trkpt>
      <trkpt lat="48.63088" lon="2.03359">
        <ele>164</ele>
        <time>2020-05-31T08:59:08Z</time>
      </trkpt>
      <trkpt lat="48.63086" lon="2.03357">
        <ele>164</ele>
        <time>2020-05-31T08:59:10Z</time>
      </trkpt>
      <trkpt lat="48.63084" lon="2.03353">
        <ele>165</ele>
        <time>2020-05-31T08:59:12Z</time>
      </trkpt>
      <trkpt lat="48.63082" lon="2.0335">
        <ele>165</ele>
        <time>2020-05-31T08:59:14Z</time>
      </trkpt>
      <trkpt lat="48.63081" lon="2.03346">
        <ele>165</ele>
        <time>2020-05-31T08:59:16Z</time>
      </trkpt>
      <trkpt lat="48.63079" lon="2.03342">
        <ele>165</ele>
        <time>2020-05-31T08:59:18Z</time>
      </trkpt>
      <trkpt lat="48.63079" lon="2.03339">
        <ele>165</ele>
        <time>2020-05-31T08:59:19Z</time>
      </trkpt>
      <trkpt lat="48.63079" lon="2.03336">
        <ele>165</ele>
        <time>2020-05-31T08:59:20Z</time>
      </trkpt>
      <trkpt lat="48.63079" lon="2.03333">
        <ele>165</ele>
        <time>2020-05-31T08:59:21Z</time>
      </trkpt>
      <trkpt lat="48.63079" lon="2.03329">
        <ele>165</ele>
        <time>2020-05-31T08:59:23Z</time>
      </trkpt>
      <trkpt lat="48.6308" lon="2.03324">
        <ele>165</ele>
        <time>2020-05-31T08:59:25Z</time>
      </trkpt>
      <trkpt lat="48.6308" lon="2.0332">
        <ele>165</ele>
        <time>2020-05-31T08:59:27Z</time>
      </trkpt>
      <trkpt lat="48.6308" lon="2.03316">
        <ele>166</ele>
        <time>2020-05-31T08:59:29Z</time>
      </trkpt>
      <trkpt lat="48.63081" lon="2.03312">
        <ele>166</ele>
        <time>2020-05-31T08:59:31Z</time>
      </trkpt>
      <trkpt lat="48.63081" lon="2.03308">
        <ele>166</ele>
        <time>2020-05-31T08:59:33Z</time>
      </trkpt>
      <trkpt lat="48.63081" lon="2.03304">
        <ele>166</ele>
        <time>2020-05-31T08:59:35Z</time>
      </trkpt>
      <trkpt lat="48.63082" lon="2.03298">
        <ele>165</ele>
        <time>2020-05-31T08:59:37Z</time>
      </trkpt>
      <trkpt lat="48.63083" lon="2.03294">
        <ele>165</ele>
        <time>2020-05-31T08:59:38Z</time>
      </trkpt>
      <trkpt lat="48.63083" lon="2.0329">
        <ele>165</ele>
        <time>2020-05-31T08:59:39Z</time>
      </trkpt>
      <trkpt lat="48.63084" lon="2.03286">
        <ele>165</ele>
        <time>2020-05-31T08:59:40Z</time>
      </trkpt>
      <trkpt lat="48.63084" lon="2.03281">
        <ele>165</ele>
        <time>2020-05-31T08:59:41Z</time>
      </trkpt>
      <trkpt lat="48.63085" lon="2.03276">
        <ele>165</ele>
        <time>2020-05-31T08:59:42Z</time>
      </trkpt>
      <trkpt lat="48.63085" lon="2.03271">
        <ele>165</ele>
        <time>2020-05-31T08:59:43Z</time>
      </trkpt>
      <trkpt lat="48.63086" lon="2.03266">
        <ele>165</ele>
        <time>2020-05-31T08:59:44Z</time>
      </trkpt>
      <trkpt lat="48.63086" lon="2.0326">
        <ele>165</ele>
        <time>2020-05-31T08:59:45Z</time>
      </trkpt>
      <trkpt lat="48.63087" lon="2.03255">
        <ele>165</ele>
        <time>2020-05-31T08:59:46Z</time>
      </trkpt>
      <trkpt lat="48.63087" lon="2.03249">
        <ele>165</ele>
        <time>2020-05-31T08:59:47Z</time>
      </trkpt>
      <trkpt lat="48.63087" lon="2.03243">
        <ele>165</ele>
        <time>2020-05-31T08:59:48Z</time>
      </trkpt>
      <trkpt lat="48.63088" lon="2.03237">
        <ele>165</ele>
        <time>2020-05-31T08:59:49Z</time>
      </trkpt>
      <trkpt lat="48.63088" lon="2.03232">
        <ele>165</ele>
        <time>2020-05-31T08:59:50Z</time>
      </trkpt>
      <trkpt lat="48.63089" lon="2.03226">
        <ele>165</ele>
        <time>2020-05-31T08:59:51Z</time>
      </trkpt>
      <trkpt lat="48.63089" lon="2.03221">
        <ele>165</ele>
        <time>2020-05-31T08:59:52Z</time>
      </trkpt>
      <trkpt lat="48.6309" lon="2.03215">
        <ele>165</ele>
        <time>2020-05-31T08:59:53Z</time>
      </trkpt>
      <trkpt lat="48.63091" lon="2.0321">
        <ele>165</ele>
        <time>2020-05-31T08:59:54Z</time>
      </trkpt>
      <trkpt lat="48.63092" lon="2.03205">
        <ele>165</ele>
        <time>2020-05-31T08:59:55Z</time>
      </trkpt>
      <trkpt lat="48.63092" lon="2.032">
        <ele>165</ele>
        <time>2020-05-31T08:59:56Z</time>
      </trkpt>
      <trkpt lat="48.63093" lon="2.03194">
        <ele>165</ele>
        <time>2020-05-31T08:59:57Z</time>
      </trkpt>
      <trkpt lat="48.63095" lon="2.03182">
        <ele>165</ele>
        <time>2020-05-31T08:59:59Z</time>
      </trkpt>
      <trkpt lat="48.63098" lon="2.03169">
        <ele>165</ele>
        <time>2020-05-31T09:00:01Z</time>
      </trkpt>
      <trkpt lat="48.631" lon="2.03164">
        <ele>165</ele>
        <time>2020-05-31T09:00:02Z</time>
      </trkpt>
      <trkpt lat="48.63101" lon="2.03159">
        <ele>165</ele>
        <time>2020-05-31T09:00:03Z</time>
      </trkpt>
      <trkpt lat="48.63103" lon="2.03154">
        <ele>165</ele>
        <time>2020-05-31T09:00:04Z</time>
      </trkpt>
      <trkpt lat="48.63104" lon="2.03148">
        <ele>165</ele>
        <time>2020-05-31T09:00:05Z</time>
      </trkpt>
      <trkpt lat="48.63105" lon="2.03143">
        <ele>165</ele>
        <time>2020-05-31T09:00:06Z</time>
      </trkpt>
      <trkpt lat="48.63106" lon="2.03137">
        <ele>165</ele>
        <time>2020-05-31T09:00:07Z</time>
      </trkpt>
      <trkpt lat="48.63107" lon="2.03132">
        <ele>166</ele>
        <time>2020-05-31T09:00:08Z</time>
      </trkpt>
      <trkpt lat="48.63109" lon="2.03126">
        <ele>166</ele>
        <time>2020-05-31T09:00:09Z</time>
      </trkpt>
      <trkpt lat="48.63111" lon="2.0312">
        <ele>166</ele>
        <time>2020-05-31T09:00:10Z</time>
      </trkpt>
      <trkpt lat="48.63115" lon="2.03107">
        <ele>166</ele>
        <time>2020-05-31T09:00:12Z</time>
      </trkpt>
      <trkpt lat="48.6312" lon="2.03095">
        <ele>166</ele>
        <time>2020-05-31T09:00:14Z</time>
      </trkpt>
      <trkpt lat="48.63126" lon="2.03079">
        <ele>166</ele>
        <time>2020-05-31T09:00:17Z</time>
      </trkpt>
      <trkpt lat="48.63129" lon="2.03063">
        <ele>166</ele>
        <time>2020-05-31T09:00:20Z</time>
      </trkpt>
      <trkpt lat="48.63132" lon="2.03044">
        <ele>166</ele>
        <time>2020-05-31T09:00:23Z</time>
      </trkpt>
      <trkpt lat="48.63134" lon="2.03033">
        <ele>167</ele>
        <time>2020-05-31T09:00:25Z</time>
      </trkpt>
      <trkpt lat="48.63135" lon="2.03026">
        <ele>167</ele>
        <time>2020-05-31T09:00:26Z</time>
      </trkpt>
      <trkpt lat="48.63136" lon="2.0302">
        <ele>167</ele>
        <time>2020-05-31T09:00:27Z</time>
      </trkpt>
      <trkpt lat="48.63138" lon="2.03004">
        <ele>167</ele>
        <time>2020-05-31T09:00:30Z</time>
      </trkpt>
      <trkpt lat="48.63141" lon="2.0299">
        <ele>168</ele>
        <time>2020-05-31T09:00:33Z</time>
      </trkpt>
      <trkpt lat="48.63141" lon="2.02986">
        <ele>168</ele>
        <time>2020-05-31T09:00:34Z</time>
      </trkpt>
      <trkpt lat="48.63142" lon="2.02982">
        <ele>168</ele>
        <time>2020-05-31T09:00:35Z</time>
      </trkpt>
      <trkpt lat="48.63145" lon="2.02968">
        <ele>169</ele>
        <time>2020-05-31T09:00:38Z</time>
      </trkpt>
      <trkpt lat="48.63146" lon="2.02955">
        <ele>169</ele>
        <time>2020-05-31T09:00:41Z</time>
      </trkpt>
      <trkpt lat="48.63147" lon="2.02951">
        <ele>169</ele>
        <time>2020-05-31T09:00:42Z</time>
      </trkpt>
      <trkpt lat="48.63148" lon="2.02948">
        <ele>169</ele>
        <time>2020-05-31T09:00:43Z</time>
      </trkpt>
      <trkpt lat="48.6315" lon="2.02941">
        <ele>170</ele>
        <time>2020-05-31T09:00:45Z</time>
      </trkpt>
      <trkpt lat="48.63151" lon="2.02938">
        <ele>170</ele>
        <time>2020-05-31T09:00:46Z</time>
      </trkpt>
      <trkpt lat="48.63153" lon="2.02934">
        <ele>170</ele>
        <time>2020-05-31T09:00:47Z</time>
      </trkpt>
      <trkpt lat="48.63154" lon="2.02931">
        <ele>170</ele>
        <time>2020-05-31T09:00:48Z</time>
      </trkpt>
      <trkpt lat="48.63156" lon="2.02927">
        <ele>170</ele>
        <time>2020-05-31T09:00:49Z</time>
      </trkpt>
      <trkpt lat="48.63157" lon="2.02922">
        <ele>170</ele>
        <time>2020-05-31T09:00:50Z</time>
      </trkpt>
      <trkpt lat="48.63158" lon="2.02917">
        <ele>170</ele>
        <time>2020-05-31T09:00:51Z</time>
      </trkpt>
      <trkpt lat="48.63159" lon="2.02911">
        <ele>170</ele>
        <time>2020-05-31T09:00:52Z</time>
      </trkpt>
      <trkpt lat="48.6316" lon="2.02906">
        <ele>170</ele>
        <time>2020-05-31T09:00:53Z</time>
      </trkpt>
      <trkpt lat="48.63161" lon="2.02902">
        <ele>170</ele>
        <time>2020-05-31T09:00:54Z</time>
      </trkpt>
      <trkpt lat="48.63162" lon="2.02897">
        <ele>170</ele>
        <time>2020-05-31T09:00:55Z</time>
      </trkpt>
      <trkpt lat="48.63163" lon="2.02893">
        <ele>171</ele>
        <time>2020-05-31T09:00:56Z</time>
      </trkpt>
      <trkpt lat="48.63164" lon="2.02889">
        <ele>171</ele>
        <time>2020-05-31T09:00:57Z</time>
      </trkpt>
      <trkpt lat="48.63165" lon="2.02885">
        <ele>171</ele>
        <time>2020-05-31T09:00:58Z</time>
      </trkpt>
      <trkpt lat="48.63167" lon="2.0288">
        <ele>171</ele>
        <time>2020-05-31T09:00:59Z</time>
      </trkpt>
      <trkpt lat="48.63168" lon="2.02876">
        <ele>171</ele>
        <time>2020-05-31T09:01:00Z</time>
      </trkpt>
      <trkpt lat="48.6317" lon="2.0287">
        <ele>171</ele>
        <time>2020-05-31T09:01:01Z</time>
      </trkpt>
      <trkpt lat="48.6317" lon="2.02865">
        <ele>171</ele>
        <time>2020-05-31T09:01:02Z</time>
      </trkpt>
      <trkpt lat="48.63171" lon="2.02861">
        <ele>172</ele>
        <time>2020-05-31T09:01:03Z</time>
      </trkpt>
      <trkpt lat="48.63172" lon="2.02856">
        <ele>172</ele>
        <time>2020-05-31T09:01:04Z</time>
      </trkpt>
      <trkpt lat="48.63173" lon="2.02852">
        <ele>172</ele>
        <time>2020-05-31T09:01:05Z</time>
      </trkpt>
      <trkpt lat="48.63174" lon="2.02848">
        <ele>172</ele>
        <time>2020-05-31T09:01:06Z</time>
      </trkpt>
      <trkpt lat="48.63175" lon="2.02844">
        <ele>172</ele>
        <time>2020-05-31T09:01:07Z</time>
      </trkpt>
      <trkpt lat="48.63176" lon="2.0284">
        <ele>172</ele>
        <time>2020-05-31T09:01:08Z</time>
      </trkpt>
      <trkpt lat="48.63177" lon="2.02836">
        <ele>172</ele>
        <time>2020-05-31T09:01:09Z</time>
      </trkpt>
      <trkpt lat="48.63179" lon="2.02833">
        <ele>173</ele>
        <time>2020-05-31T09:01:10Z</time>
      </trkpt>
      <trkpt lat="48.6318" lon="2.0283">
        <ele>173</ele>
        <time>2020-05-31T09:01:11Z</time>
      </trkpt>
      <trkpt lat="48.6318" lon="2.02826">
        <ele>173</ele>
        <time>2020-05-31T09:01:13Z</time>
      </trkpt>
      <trkpt lat="48.63181" lon="2.02822">
        <ele>173</ele>
        <time>2020-05-31T09:01:15Z</time>
      </trkpt>
      <trkpt lat="48.63182" lon="2.02819">
        <ele>173</ele>
        <time>2020-05-31T09:01:17Z</time>
      </trkpt>
      <trkpt lat="48.63183" lon="2.02815">
        <ele>174</ele>
        <time>2020-05-31T09:01:19Z</time>
      </trkpt>
      <trkpt lat="48.63183" lon="2.02811">
        <ele>174</ele>
        <time>2020-05-31T09:01:21Z</time>
      </trkpt>
      <trkpt lat="48.63184" lon="2.02808">
        <ele>174</ele>
        <time>2020-05-31T09:01:23Z</time>
      </trkpt>
      <trkpt lat="48.63185" lon="2.02805">
        <ele>174</ele>
        <time>2020-05-31T09:01:25Z</time>
      </trkpt>
      <trkpt lat="48.63185" lon="2.02801">
        <ele>173</ele>
        <time>2020-05-31T09:01:27Z</time>
      </trkpt>
      <trkpt lat="48.63186" lon="2.02797">
        <ele>173</ele>
        <time>2020-05-31T09:01:29Z</time>
      </trkpt>
      <trkpt lat="48.63187" lon="2.02794">
        <ele>173</ele>
        <time>2020-05-31T09:01:31Z</time>
      </trkpt>
      <trkpt lat="48.63188" lon="2.02791">
        <ele>174</ele>
        <time>2020-05-31T09:01:33Z</time>
      </trkpt>
      <trkpt lat="48.63189" lon="2.02787">
        <ele>174</ele>
        <time>2020-05-31T09:01:35Z</time>
      </trkpt>
      <trkpt lat="48.6319" lon="2.02782">
        <ele>174</ele>
        <time>2020-05-31T09:01:37Z</time>
      </trkpt>
      <trkpt lat="48.63191" lon="2.02778">
        <ele>174</ele>
        <time>2020-05-31T09:01:39Z</time>
      </trkpt>
      <trkpt lat="48.63191" lon="2.02774">
        <ele>174</ele>
        <time>2020-05-31T09:01:41Z</time>
      </trkpt>
      <trkpt lat="48.63192" lon="2.0277">
        <ele>174</ele>
        <time>2020-05-31T09:01:43Z</time>
      </trkpt>
      <trkpt lat="48.63192" lon="2.02767">
        <ele>174</ele>
        <time>2020-05-31T09:01:45Z</time>
      </trkpt>
      <trkpt lat="48.63193" lon="2.02763">
        <ele>174</ele>
        <time>2020-05-31T09:01:47Z</time>
      </trkpt>
      <trkpt lat="48.63194" lon="2.02759">
        <ele>174</ele>
        <time>2020-05-31T09:01:49Z</time>
      </trkpt>
      <trkpt lat="48.63195" lon="2.02756">
        <ele>174</ele>
        <time>2020-05-31T09:01:51Z</time>
      </trkpt>
      <trkpt lat="48.63196" lon="2.02752">
        <ele>174</ele>
        <time>2020-05-31T09:01:53Z</time>
      </trkpt>
      <trkpt lat="48.63197" lon="2.02749">
        <ele>174</ele>
        <time>2020-05-31T09:01:55Z</time>
      </trkpt>
      <trkpt lat="48.63197" lon="2.02746">
        <ele>174</ele>
        <time>2020-05-31T09:01:57Z</time>
      </trkpt>
      <trkpt lat="48.63198" lon="2.02742">
        <ele>174</ele>
        <time>2020-05-31T09:01:59Z</time>
      </trkpt>
      <trkpt lat="48.63198" lon="2.02738">
        <ele>174</ele>
        <time>2020-05-31T09:02:01Z</time>
      </trkpt>
      <trkpt lat="48.63198" lon="2.02735">
        <ele>174</ele>
        <time>2020-05-31T09:02:04Z</time>
      </trkpt>
      <trkpt lat="48.63199" lon="2.0273">
        <ele>174</ele>
        <time>2020-05-31T09:02:07Z</time>
      </trkpt>
      <trkpt lat="48.63199" lon="2.02726">
        <ele>174</ele>
        <time>2020-05-31T09:02:09Z</time>
      </trkpt>
      <trkpt lat="48.632" lon="2.02724">
        <ele>174</ele>
        <time>2020-05-31T09:02:10Z</time>
      </trkpt>
      <trkpt lat="48.63201" lon="2.02719">
        <ele>174</ele>
        <time>2020-05-31T09:02:12Z</time>
      </trkpt>
      <trkpt lat="48.63202" lon="2.02715">
        <ele>174</ele>
        <time>2020-05-31T09:02:14Z</time>
      </trkpt>
      <trkpt lat="48.63203" lon="2.02711">
        <ele>174</ele>
        <time>2020-05-31T09:02:16Z</time>
      </trkpt>
      <trkpt lat="48.63205" lon="2.02707">
        <ele>174</ele>
        <time>2020-05-31T09:02:18Z</time>
      </trkpt>
      <trkpt lat="48.63206" lon="2.02702">
        <ele>175</ele>
        <time>2020-05-31T09:02:20Z</time>
      </trkpt>
      <trkpt lat="48.63208" lon="2.02699">
        <ele>175</ele>
        <time>2020-05-31T09:02:21Z</time>
      </trkpt>
      <trkpt lat="48.63209" lon="2.02696">
        <ele>174</ele>
        <time>2020-05-31T09:02:22Z</time>
      </trkpt>
      <trkpt lat="48.6321" lon="2.02691">
        <ele>174</ele>
        <time>2020-05-31T09:02:24Z</time>
      </trkpt>
      <trkpt lat="48.63211" lon="2.02688">
        <ele>175</ele>
        <time>2020-05-31T09:02:26Z</time>
      </trkpt>
      <trkpt lat="48.63212" lon="2.02683">
        <ele>175</ele>
        <time>2020-05-31T09:02:28Z</time>
      </trkpt>
      <trkpt lat="48.63213" lon="2.02681">
        <ele>175</ele>
        <time>2020-05-31T09:02:29Z</time>
      </trkpt>
      <trkpt lat="48.63213" lon="2.02678">
        <ele>175</ele>
        <time>2020-05-31T09:02:30Z</time>
      </trkpt>
      <trkpt lat="48.63213" lon="2.02673">
        <ele>175</ele>
        <time>2020-05-31T09:02:32Z</time>
      </trkpt>
      <trkpt lat="48.63214" lon="2.02669">
        <ele>175</ele>
        <time>2020-05-31T09:02:35Z</time>
      </trkpt>
      <trkpt lat="48.63215" lon="2.02666">
        <ele>175</ele>
        <time>2020-05-31T09:02:37Z</time>
      </trkpt>
      <trkpt lat="48.63215" lon="2.02662">
        <ele>175</ele>
        <time>2020-05-31T09:02:39Z</time>
      </trkpt>
      <trkpt lat="48.63216" lon="2.02656">
        <ele>176</ele>
        <time>2020-05-31T09:02:41Z</time>
      </trkpt>
      <trkpt lat="48.63217" lon="2.02652">
        <ele>176</ele>
        <time>2020-05-31T09:02:43Z</time>
      </trkpt>
      <trkpt lat="48.63217" lon="2.02649">
        <ele>175</ele>
        <time>2020-05-31T09:02:45Z</time>
      </trkpt>
      <trkpt lat="48.63217" lon="2.02644">
        <ele>175</ele>
        <time>2020-05-31T09:02:47Z</time>
      </trkpt>
      <trkpt lat="48.63217" lon="2.02641">
        <ele>175</ele>
        <time>2020-05-31T09:02:49Z</time>
      </trkpt>
      <trkpt lat="48.63218" lon="2.02637">
        <ele>176</ele>
        <time>2020-05-31T09:02:53Z</time>
      </trkpt>
      <trkpt lat="48.63219" lon="2.02635">
        <ele>176</ele>
        <time>2020-05-31T09:02:54Z</time>
      </trkpt>
      <trkpt lat="48.6322" lon="2.0263">
        <ele>176</ele>
        <time>2020-05-31T09:02:56Z</time>
      </trkpt>
      <trkpt lat="48.6322" lon="2.02627">
        <ele>176</ele>
        <time>2020-05-31T09:02:57Z</time>
      </trkpt>
      <trkpt lat="48.63221" lon="2.02624">
        <ele>176</ele>
        <time>2020-05-31T09:02:58Z</time>
      </trkpt>
      <trkpt lat="48.63222" lon="2.0262">
        <ele>176</ele>
        <time>2020-05-31T09:02:59Z</time>
      </trkpt>
      <trkpt lat="48.63223" lon="2.02617">
        <ele>176</ele>
        <time>2020-05-31T09:03:00Z</time>
      </trkpt>
      <trkpt lat="48.63223" lon="2.02612">
        <ele>176</ele>
        <time>2020-05-31T09:03:02Z</time>
      </trkpt>
      <trkpt lat="48.63224" lon="2.02608">
        <ele>176</ele>
        <time>2020-05-31T09:03:05Z</time>
      </trkpt>
      <trkpt lat="48.63225" lon="2.02605">
        <ele>176</ele>
        <time>2020-05-31T09:03:06Z</time>
      </trkpt>
      <trkpt lat="48.63227" lon="2.026">
        <ele>176</ele>
        <time>2020-05-31T09:03:08Z</time>
      </trkpt>
      <trkpt lat="48.63228" lon="2.02598">
        <ele>176</ele>
        <time>2020-05-31T09:03:09Z</time>
      </trkpt>
      <trkpt lat="48.63229" lon="2.02593">
        <ele>176</ele>
        <time>2020-05-31T09:03:11Z</time>
      </trkpt>
      <trkpt lat="48.6323" lon="2.02588">
        <ele>176</ele>
        <time>2020-05-31T09:03:13Z</time>
      </trkpt>
      <trkpt lat="48.63231" lon="2.02583">
        <ele>176</ele>
        <time>2020-05-31T09:03:15Z</time>
      </trkpt>
      <trkpt lat="48.63231" lon="2.02579">
        <ele>176</ele>
        <time>2020-05-31T09:03:17Z</time>
      </trkpt>
      <trkpt lat="48.63232" lon="2.02575">
        <ele>176</ele>
        <time>2020-05-31T09:03:19Z</time>
      </trkpt>
      <trkpt lat="48.63232" lon="2.02573">
        <ele>176</ele>
        <time>2020-05-31T09:03:21Z</time>
      </trkpt>
      <trkpt lat="48.63233" lon="2.0257">
        <ele>176</ele>
        <time>2020-05-31T09:03:23Z</time>
      </trkpt>
      <trkpt lat="48.63234" lon="2.02567">
        <ele>176</ele>
        <time>2020-05-31T09:03:26Z</time>
      </trkpt>
      <trkpt lat="48.63235" lon="2.02563">
        <ele>177</ele>
        <time>2020-05-31T09:03:28Z</time>
      </trkpt>
      <trkpt lat="48.63234" lon="2.0256">
        <ele>176</ele>
        <time>2020-05-31T09:03:29Z</time>
      </trkpt>
      <trkpt lat="48.63236" lon="2.02557">
        <ele>176</ele>
        <time>2020-05-31T09:03:31Z</time>
      </trkpt>
      <trkpt lat="48.63237" lon="2.02553">
        <ele>175</ele>
        <time>2020-05-31T09:03:33Z</time>
      </trkpt>
      <trkpt lat="48.63238" lon="2.0255">
        <ele>175</ele>
        <time>2020-05-31T09:03:35Z</time>
      </trkpt>
      <trkpt lat="48.63238" lon="2.02546">
        <ele>175</ele>
        <time>2020-05-31T09:03:37Z</time>
      </trkpt>
      <trkpt lat="48.63238" lon="2.02542">
        <ele>176</ele>
        <time>2020-05-31T09:03:39Z</time>
      </trkpt>
      <trkpt lat="48.63237" lon="2.02539">
        <ele>176</ele>
        <time>2020-05-31T09:03:41Z</time>
      </trkpt>
      <trkpt lat="48.63238" lon="2.02535">
        <ele>176</ele>
        <time>2020-05-31T09:03:43Z</time>
      </trkpt>
      <trkpt lat="48.63238" lon="2.02532">
        <ele>176</ele>
        <time>2020-05-31T09:03:45Z</time>
      </trkpt>
      <trkpt lat="48.63238" lon="2.02529">
        <ele>176</ele>
        <time>2020-05-31T09:03:47Z</time>
      </trkpt>
      <trkpt lat="48.63239" lon="2.02525">
        <ele>176</ele>
        <time>2020-05-31T09:03:49Z</time>
      </trkpt>
      <trkpt lat="48.6324" lon="2.02521">
        <ele>177</ele>
        <time>2020-05-31T09:03:51Z</time>
      </trkpt>
      <trkpt lat="48.63241" lon="2.02516">
        <ele>176</ele>
        <time>2020-05-31T09:03:53Z</time>
      </trkpt>
      <trkpt lat="48.63242" lon="2.02511">
        <ele>176</ele>
        <time>2020-05-31T09:03:55Z</time>
      </trkpt>
      <trkpt lat="48.63243" lon="2.02509">
        <ele>176</ele>
        <time>2020-05-31T09:03:56Z</time>
      </trkpt>
      <trkpt lat="48.63244" lon="2.02506">
        <ele>176</ele>
        <time>2020-05-31T09:03:57Z</time>
      </trkpt>
      <trkpt lat="48.63244" lon="2.02503">
        <ele>176</ele>
        <time>2020-05-31T09:03:58Z</time>
      </trkpt>
      <trkpt lat="48.63245" lon="2.025">
        <ele>176</ele>
        <time>2020-05-31T09:03:59Z</time>
      </trkpt>
      <trkpt lat="48.63246" lon="2.02495">
        <ele>176</ele>
        <time>2020-05-31T09:04:01Z</time>
      </trkpt>
      <trkpt lat="48.63246" lon="2.02491">
        <ele>176</ele>
        <time>2020-05-31T09:04:03Z</time>
      </trkpt>
      <trkpt lat="48.63247" lon="2.02487">
        <ele>176</ele>
        <time>2020-05-31T09:04:05Z</time>
      </trkpt>
      <trkpt lat="48.63247" lon="2.02483">
        <ele>176</ele>
        <time>2020-05-31T09:04:07Z</time>
      </trkpt>
      <trkpt lat="48.63247" lon="2.02479">
        <ele>176</ele>
        <time>2020-05-31T09:04:09Z</time>
      </trkpt>
      <trkpt lat="48.63248" lon="2.02475">
        <ele>176</ele>
        <time>2020-05-31T09:04:11Z</time>
      </trkpt>
      <trkpt lat="48.6325" lon="2.02471">
        <ele>176</ele>
        <time>2020-05-31T09:04:13Z</time>
      </trkpt>
      <trkpt lat="48.63251" lon="2.02468">
        <ele>176</ele>
        <time>2020-05-31T09:04:15Z</time>
      </trkpt>
      <trkpt lat="48.63251" lon="2.02463">
        <ele>176</ele>
        <time>2020-05-31T09:04:18Z</time>
      </trkpt>
      <trkpt lat="48.63251" lon="2.02459">
        <ele>176</ele>
        <time>2020-05-31T09:04:20Z</time>
      </trkpt>
      <trkpt lat="48.63252" lon="2.02456">
        <ele>176</ele>
        <time>2020-05-31T09:04:22Z</time>
      </trkpt>
      <trkpt lat="48.63253" lon="2.02453">
        <ele>176</ele>
        <time>2020-05-31T09:04:23Z</time>
      </trkpt>
      <trkpt lat="48.63254" lon="2.02449">
        <ele>176</ele>
        <time>2020-05-31T09:04:25Z</time>
      </trkpt>
      <trkpt lat="48.63254" lon="2.02444">
        <ele>176</ele>
        <time>2020-05-31T09:04:27Z</time>
      </trkpt>
      <trkpt lat="48.63255" lon="2.0244">
        <ele>176</ele>
        <time>2020-05-31T09:04:29Z</time>
      </trkpt>
      <trkpt lat="48.63256" lon="2.02436">
        <ele>176</ele>
        <time>2020-05-31T09:04:31Z</time>
      </trkpt>
      <trkpt lat="48.63257" lon="2.02431">
        <ele>176</ele>
        <time>2020-05-31T09:04:33Z</time>
      </trkpt>
      <trkpt lat="48.63258" lon="2.02426">
        <ele>176</ele>
        <time>2020-05-31T09:04:35Z</time>
      </trkpt>
      <trkpt lat="48.63259" lon="2.02422">
        <ele>176</ele>
        <time>2020-05-31T09:04:37Z</time>
      </trkpt>
      <trkpt lat="48.6326" lon="2.02417">
        <ele>176</ele>
        <time>2020-05-31T09:04:39Z</time>
      </trkpt>
      <trkpt lat="48.63261" lon="2.02413">
        <ele>176</ele>
        <time>2020-05-31T09:04:41Z</time>
      </trkpt>
      <trkpt lat="48.63262" lon="2.02409">
        <ele>176</ele>
        <time>2020-05-31T09:04:43Z</time>
      </trkpt>
      <trkpt lat="48.63262" lon="2.02404">
        <ele>176</ele>
        <time>2020-05-31T09:04:45Z</time>
      </trkpt>
      <trkpt lat="48.63264" lon="2.024">
        <ele>176</ele>
        <time>2020-05-31T09:04:47Z</time>
      </trkpt>
      <trkpt lat="48.63264" lon="2.02398">
        <ele>176</ele>
        <time>2020-05-31T09:04:48Z</time>
      </trkpt>
      <trkpt lat="48.63265" lon="2.02394">
        <ele>176</ele>
        <time>2020-05-31T09:04:50Z</time>
      </trkpt>
      <trkpt lat="48.63265" lon="2.02389">
        <ele>176</ele>
        <time>2020-05-31T09:04:53Z</time>
      </trkpt>
      <trkpt lat="48.63266" lon="2.02385">
        <ele>176</ele>
        <time>2020-05-31T09:04:54Z</time>
      </trkpt>
      <trkpt lat="48.63267" lon="2.02381">
        <ele>175</ele>
        <time>2020-05-31T09:04:56Z</time>
      </trkpt>
      <trkpt lat="48.63268" lon="2.02377">
        <ele>175</ele>
        <time>2020-05-31T09:04:58Z</time>
      </trkpt>
      <trkpt lat="48.63269" lon="2.02374">
        <ele>175</ele>
        <time>2020-05-31T09:05:00Z</time>
      </trkpt>
      <trkpt lat="48.6327" lon="2.0237">
        <ele>175</ele>
        <time>2020-05-31T09:05:02Z</time>
      </trkpt>
      <trkpt lat="48.63271" lon="2.02367">
        <ele>175</ele>
        <time>2020-05-31T09:05:05Z</time>
      </trkpt>
      <trkpt lat="48.63272" lon="2.02364">
        <ele>175</ele>
        <time>2020-05-31T09:05:13Z</time>
      </trkpt>
      <trkpt lat="48.63272" lon="2.02361">
        <ele>175</ele>
        <time>2020-05-31T09:05:15Z</time>
      </trkpt>
      <trkpt lat="48.63272" lon="2.02357">
        <ele>175</ele>
        <time>2020-05-31T09:05:17Z</time>
      </trkpt>
      <trkpt lat="48.63273" lon="2.02353">
        <ele>175</ele>
        <time>2020-05-31T09:05:19Z</time>
      </trkpt>
      <trkpt lat="48.63274" lon="2.0235">
        <ele>174</ele>
        <time>2020-05-31T09:05:21Z</time>
      </trkpt>
      <trkpt lat="48.63277" lon="2.02348">
        <ele>173</ele>
        <time>2020-05-31T09:05:23Z</time>
      </trkpt>
      <trkpt lat="48.6328" lon="2.02347">
        <ele>172</ele>
        <time>2020-05-31T09:05:25Z</time>
      </trkpt>
      <trkpt lat="48.63282" lon="2.02346">
        <ele>172</ele>
        <time>2020-05-31T09:05:27Z</time>
      </trkpt>
      <trkpt lat="48.63284" lon="2.02344">
        <ele>171</ele>
        <time>2020-05-31T09:05:29Z</time>
      </trkpt>
      <trkpt lat="48.63285" lon="2.0234">
        <ele>171</ele>
        <time>2020-05-31T09:05:31Z</time>
      </trkpt>
      <trkpt lat="48.63283" lon="2.02336">
        <ele>170</ele>
        <time>2020-05-31T09:05:33Z</time>
      </trkpt>
      <trkpt lat="48.63281" lon="2.02334">
        <ele>170</ele>
        <time>2020-05-31T09:05:36Z</time>
      </trkpt>
      <trkpt lat="48.63279" lon="2.02333">
        <ele>169</ele>
        <time>2020-05-31T09:05:38Z</time>
      </trkpt>
      <trkpt lat="48.63277" lon="2.02331">
        <ele>168</ele>
        <time>2020-05-31T09:05:40Z</time>
      </trkpt>
      <trkpt lat="48.63276" lon="2.02329">
        <ele>168</ele>
        <time>2020-05-31T09:05:44Z</time>
      </trkpt>
      <trkpt lat="48.63274" lon="2.02325">
        <ele>168</ele>
        <time>2020-05-31T09:05:47Z</time>
      </trkpt>
      <trkpt lat="48.63271" lon="2.02322">
        <ele>167</ele>
        <time>2020-05-31T09:05:49Z</time>
      </trkpt>
      <trkpt lat="48.63269" lon="2.02319">
        <ele>167</ele>
        <time>2020-05-31T09:05:51Z</time>
      </trkpt>
      <trkpt lat="48.63267" lon="2.02316">
        <ele>167</ele>
        <time>2020-05-31T09:05:53Z</time>
      </trkpt>
      <trkpt lat="48.63264" lon="2.02313">
        <ele>167</ele>
        <time>2020-05-31T09:05:55Z</time>
      </trkpt>
      <trkpt lat="48.63263" lon="2.02311">
        <ele>167</ele>
        <time>2020-05-31T09:05:56Z</time>
      </trkpt>
      <trkpt lat="48.6326" lon="2.02307">
        <ele>167</ele>
        <time>2020-05-31T09:05:58Z</time>
      </trkpt>
      <trkpt lat="48.63258" lon="2.02304">
        <ele>166</ele>
        <time>2020-05-31T09:06:00Z</time>
      </trkpt>
      <trkpt lat="48.63256" lon="2.02301">
        <ele>166</ele>
        <time>2020-05-31T09:06:02Z</time>
      </trkpt>
      <trkpt lat="48.63255" lon="2.02298">
        <ele>166</ele>
        <time>2020-05-31T09:06:04Z</time>
      </trkpt>
      <trkpt lat="48.63253" lon="2.02295">
        <ele>166</ele>
        <time>2020-05-31T09:06:06Z</time>
      </trkpt>
      <trkpt lat="48.6325" lon="2.02291">
        <ele>165</ele>
        <time>2020-05-31T09:06:08Z</time>
      </trkpt>
      <trkpt lat="48.63248" lon="2.02288">
        <ele>165</ele>
        <time>2020-05-31T09:06:10Z</time>
      </trkpt>
      <trkpt lat="48.63246" lon="2.02286">
        <ele>165</ele>
        <time>2020-05-31T09:06:12Z</time>
      </trkpt>
      <trkpt lat="48.63244" lon="2.02283">
        <ele>165</ele>
        <time>2020-05-31T09:06:14Z</time>
      </trkpt>
      <trkpt lat="48.63242" lon="2.02281">
        <ele>165</ele>
        <time>2020-05-31T09:06:16Z</time>
      </trkpt>
      <trkpt lat="48.6324" lon="2.02279">
        <ele>165</ele>
        <time>2020-05-31T09:06:18Z</time>
      </trkpt>
      <trkpt lat="48.63238" lon="2.02277">
        <ele>165</ele>
        <time>2020-05-31T09:06:20Z</time>
      </trkpt>
      <trkpt lat="48.63236" lon="2.02274">
        <ele>165</ele>
        <time>2020-05-31T09:06:22Z</time>
      </trkpt>
      <trkpt lat="48.63235" lon="2.02272">
        <ele>165</ele>
        <time>2020-05-31T09:06:24Z</time>
      </trkpt>
      <trkpt lat="48.63233" lon="2.02269">
        <ele>165</ele>
        <time>2020-05-31T09:06:26Z</time>
      </trkpt>
      <trkpt lat="48.63232" lon="2.02266">
        <ele>165</ele>
        <time>2020-05-31T09:06:28Z</time>
      </trkpt>
      <trkpt lat="48.63231" lon="2.02263">
        <ele>164</ele>
        <time>2020-05-31T09:06:30Z</time>
      </trkpt>
      <trkpt lat="48.63229" lon="2.0226">
        <ele>164</ele>
        <time>2020-05-31T09:06:32Z</time>
      </trkpt>
      <trkpt lat="48.63227" lon="2.02258">
        <ele>164</ele>
        <time>2020-05-31T09:06:34Z</time>
      </trkpt>
      <trkpt lat="48.63225" lon="2.02256">
        <ele>164</ele>
        <time>2020-05-31T09:06:36Z</time>
      </trkpt>
      <trkpt lat="48.63223" lon="2.02254">
        <ele>164</ele>
        <time>2020-05-31T09:06:38Z</time>
      </trkpt>
      <trkpt lat="48.63221" lon="2.02252">
        <ele>164</ele>
        <time>2020-05-31T09:06:40Z</time>
      </trkpt>
      <trkpt lat="48.63219" lon="2.0225">
        <ele>164</ele>
        <time>2020-05-31T09:06:42Z</time>
      </trkpt>
      <trkpt lat="48.63217" lon="2.02248">
        <ele>164</ele>
        <time>2020-05-31T09:06:44Z</time>
      </trkpt>
      <trkpt lat="48.63214" lon="2.02245">
        <ele>164</ele>
        <time>2020-05-31T09:06:46Z</time>
      </trkpt>
      <trkpt lat="48.63212" lon="2.02243">
        <ele>164</ele>
        <time>2020-05-31T09:06:48Z</time>
      </trkpt>
      <trkpt lat="48.6321" lon="2.02242">
        <ele>163</ele>
        <time>2020-05-31T09:06:50Z</time>
      </trkpt>
      <trkpt lat="48.63208" lon="2.0224">
        <ele>163</ele>
        <time>2020-05-31T09:06:52Z</time>
      </trkpt>
      <trkpt lat="48.63205" lon="2.02238">
        <ele>163</ele>
        <time>2020-05-31T09:06:54Z</time>
      </trkpt>
      <trkpt lat="48.63203" lon="2.02236">
        <ele>163</ele>
        <time>2020-05-31T09:06:56Z</time>
      </trkpt>
      <trkpt lat="48.632" lon="2.02234">
        <ele>163</ele>
        <time>2020-05-31T09:06:58Z</time>
      </trkpt>
      <trkpt lat="48.63198" lon="2.02232">
        <ele>163</ele>
        <time>2020-05-31T09:07:00Z</time>
      </trkpt>
      <trkpt lat="48.63195" lon="2.0223">
        <ele>163</ele>
        <time>2020-05-31T09:07:02Z</time>
      </trkpt>
      <trkpt lat="48.63193" lon="2.02228">
        <ele>163</ele>
        <time>2020-05-31T09:07:04Z</time>
      </trkpt>
      <trkpt lat="48.63191" lon="2.02226">
        <ele>163</ele>
        <time>2020-05-31T09:07:06Z</time>
      </trkpt>
      <trkpt lat="48.63188" lon="2.02224">
        <ele>163</ele>
        <time>2020-05-31T09:07:08Z</time>
      </trkpt>
      <trkpt lat="48.63186" lon="2.02222">
        <ele>163</ele>
        <time>2020-05-31T09:07:10Z</time>
      </trkpt>
      <trkpt lat="48.63183" lon="2.0222">
        <ele>162</ele>
        <time>2020-05-31T09:07:12Z</time>
      </trkpt>
      <trkpt lat="48.63181" lon="2.02218">
        <ele>162</ele>
        <time>2020-05-31T09:07:14Z</time>
      </trkpt>
      <trkpt lat="48.63178" lon="2.02216">
        <ele>162</ele>
        <time>2020-05-31T09:07:16Z</time>
      </trkpt>
      <trkpt lat="48.63176" lon="2.02215">
        <ele>162</ele>
        <time>2020-05-31T09:07:18Z</time>
      </trkpt>
      <trkpt lat="48.63173" lon="2.02213">
        <ele>162</ele>
        <time>2020-05-31T09:07:20Z</time>
      </trkpt>
      <trkpt lat="48.6317" lon="2.02211">
        <ele>163</ele>
        <time>2020-05-31T09:07:22Z</time>
      </trkpt>
      <trkpt lat="48.63168" lon="2.02209">
        <ele>162</ele>
        <time>2020-05-31T09:07:24Z</time>
      </trkpt>
      <trkpt lat="48.63166" lon="2.02207">
        <ele>162</ele>
        <time>2020-05-31T09:07:26Z</time>
      </trkpt>
      <trkpt lat="48.63163" lon="2.02205">
        <ele>163</ele>
        <time>2020-05-31T09:07:28Z</time>
      </trkpt>
      <trkpt lat="48.63161" lon="2.02202">
        <ele>162</ele>
        <time>2020-05-31T09:07:30Z</time>
      </trkpt>
      <trkpt lat="48.63159" lon="2.02201">
        <ele>162</ele>
        <time>2020-05-31T09:07:32Z</time>
      </trkpt>
      <trkpt lat="48.63156" lon="2.02199">
        <ele>162</ele>
        <time>2020-05-31T09:07:34Z</time>
      </trkpt>
      <trkpt lat="48.63153" lon="2.02198">
        <ele>162</ele>
        <time>2020-05-31T09:07:36Z</time>
      </trkpt>
      <trkpt lat="48.63151" lon="2.02197">
        <ele>162</ele>
        <time>2020-05-31T09:07:38Z</time>
      </trkpt>
      <trkpt lat="48.63149" lon="2.02195">
        <ele>162</ele>
        <time>2020-05-31T09:07:40Z</time>
      </trkpt>
      <trkpt lat="48.63146" lon="2.02193">
        <ele>162</ele>
        <time>2020-05-31T09:07:42Z</time>
      </trkpt>
      <trkpt lat="48.63144" lon="2.02192">
        <ele>162</ele>
        <time>2020-05-31T09:07:44Z</time>
      </trkpt>
      <trkpt lat="48.63142" lon="2.0219">
        <ele>162</ele>
        <time>2020-05-31T09:07:46Z</time>
      </trkpt>
      <trkpt lat="48.63139" lon="2.02188">
        <ele>162</ele>
        <time>2020-05-31T09:07:48Z</time>
      </trkpt>
      <trkpt lat="48.63136" lon="2.02186">
        <ele>162</ele>
        <time>2020-05-31T09:07:50Z</time>
      </trkpt>
      <trkpt lat="48.63134" lon="2.02185">
        <ele>162</ele>
        <time>2020-05-31T09:07:52Z</time>
      </trkpt>
      <trkpt lat="48.63132" lon="2.02183">
        <ele>162</ele>
        <time>2020-05-31T09:07:54Z</time>
      </trkpt>
      <trkpt lat="48.6313" lon="2.02182">
        <ele>162</ele>
        <time>2020-05-31T09:07:56Z</time>
      </trkpt>
      <trkpt lat="48.63127" lon="2.02181">
        <ele>162</ele>
        <time>2020-05-31T09:07:58Z</time>
      </trkpt>
      <trkpt lat="48.63124" lon="2.0218">
        <ele>162</ele>
        <time>2020-05-31T09:08:00Z</time>
      </trkpt>
      <trkpt lat="48.63122" lon="2.02179">
        <ele>162</ele>
        <time>2020-05-31T09:08:02Z</time>
      </trkpt>
      <trkpt lat="48.6312" lon="2.02177">
        <ele>162</ele>
        <time>2020-05-31T09:08:04Z</time>
      </trkpt>
      <trkpt lat="48.63117" lon="2.02176">
        <ele>162</ele>
        <time>2020-05-31T09:08:06Z</time>
      </trkpt>
      <trkpt lat="48.63115" lon="2.02174">
        <ele>163</ele>
        <time>2020-05-31T09:08:08Z</time>
      </trkpt>
      <trkpt lat="48.63113" lon="2.02173">
        <ele>163</ele>
        <time>2020-05-31T09:08:10Z</time>
      </trkpt>
      <trkpt lat="48.6311" lon="2.02172">
        <ele>163</ele>
        <time>2020-05-31T09:08:12Z</time>
      </trkpt>
      <trkpt lat="48.63108" lon="2.0217">
        <ele>163</ele>
        <time>2020-05-31T09:08:14Z</time>
      </trkpt>
      <trkpt lat="48.63105" lon="2.02168">
        <ele>163</ele>
        <time>2020-05-31T09:08:16Z</time>
      </trkpt>
      <trkpt lat="48.63103" lon="2.02167">
        <ele>163</ele>
        <time>2020-05-31T09:08:17Z</time>
      </trkpt>
      <trkpt lat="48.63101" lon="2.02166">
        <ele>163</ele>
        <time>2020-05-31T09:08:18Z</time>
      </trkpt>
      <trkpt lat="48.63098" lon="2.02163">
        <ele>163</ele>
        <time>2020-05-31T09:08:20Z</time>
      </trkpt>
      <trkpt lat="48.63096" lon="2.02161">
        <ele>163</ele>
        <time>2020-05-31T09:08:22Z</time>
      </trkpt>
      <trkpt lat="48.63094" lon="2.02158">
        <ele>163</ele>
        <time>2020-05-31T09:08:24Z</time>
      </trkpt>
      <trkpt lat="48.63092" lon="2.02156">
        <ele>163</ele>
        <time>2020-05-31T09:08:26Z</time>
      </trkpt>
      <trkpt lat="48.6309" lon="2.02155">
        <ele>163</ele>
        <time>2020-05-31T09:08:28Z</time>
      </trkpt>
      <trkpt lat="48.63087" lon="2.02155">
        <ele>164</ele>
        <time>2020-05-31T09:08:30Z</time>
      </trkpt>
      <trkpt lat="48.63085" lon="2.02154">
        <ele>164</ele>
        <time>2020-05-31T09:08:32Z</time>
      </trkpt>
      <trkpt lat="48.63083" lon="2.02154">
        <ele>164</ele>
        <time>2020-05-31T09:08:34Z</time>
      </trkpt>
      <trkpt lat="48.6308" lon="2.02154">
        <ele>164</ele>
        <time>2020-05-31T09:08:36Z</time>
      </trkpt>
      <trkpt lat="48.63077" lon="2.02155">
        <ele>164</ele>
        <time>2020-05-31T09:08:38Z</time>
      </trkpt>
      <trkpt lat="48.63075" lon="2.02157">
        <ele>164</ele>
        <time>2020-05-31T09:08:40Z</time>
      </trkpt>
      <trkpt lat="48.63073" lon="2.02157">
        <ele>164</ele>
        <time>2020-05-31T09:08:42Z</time>
      </trkpt>
      <trkpt lat="48.6307" lon="2.02158">
        <ele>164</ele>
        <time>2020-05-31T09:08:44Z</time>
      </trkpt>
      <trkpt lat="48.63067" lon="2.02159">
        <ele>164</ele>
        <time>2020-05-31T09:08:46Z</time>
      </trkpt>
      <trkpt lat="48.63064" lon="2.02159">
        <ele>164</ele>
        <time>2020-05-31T09:08:48Z</time>
      </trkpt>
      <trkpt lat="48.63061" lon="2.02158">
        <ele>164</ele>
        <time>2020-05-31T09:08:50Z</time>
      </trkpt>
      <trkpt lat="48.63059" lon="2.02157">
        <ele>164</ele>
        <time>2020-05-31T09:08:52Z</time>
      </trkpt>
      <trkpt lat="48.63056" lon="2.02157">
        <ele>164</ele>
        <time>2020-05-31T09:08:54Z</time>
      </trkpt>
      <trkpt lat="48.63053" lon="2.02156">
        <ele>164</ele>
        <time>2020-05-31T09:08:56Z</time>
      </trkpt>
      <trkpt lat="48.6305" lon="2.02156">
        <ele>165</ele>
        <time>2020-05-31T09:08:58Z</time>
      </trkpt>
      <trkpt lat="48.63048" lon="2.02155">
        <ele>165</ele>
        <time>2020-05-31T09:09:00Z</time>
      </trkpt>
      <trkpt lat="48.63045" lon="2.02154">
        <ele>165</ele>
        <time>2020-05-31T09:09:02Z</time>
      </trkpt>
      <trkpt lat="48.63043" lon="2.02153">
        <ele>165</ele>
        <time>2020-05-31T09:09:04Z</time>
      </trkpt>
      <trkpt lat="48.6304" lon="2.02152">
        <ele>165</ele>
        <time>2020-05-31T09:09:06Z</time>
      </trkpt>
      <trkpt lat="48.63038" lon="2.02151">
        <ele>165</ele>
        <time>2020-05-31T09:09:08Z</time>
      </trkpt>
      <trkpt lat="48.63036" lon="2.02151">
        <ele>165</ele>
        <time>2020-05-31T09:09:10Z</time>
      </trkpt>
      <trkpt lat="48.63034" lon="2.02151">
        <ele>164</ele>
        <time>2020-05-31T09:09:12Z</time>
      </trkpt>
      <trkpt lat="48.63031" lon="2.02154">
        <ele>165</ele>
        <time>2020-05-31T09:09:14Z</time>
      </trkpt>
      <trkpt lat="48.63029" lon="2.02156">
        <ele>165</ele>
        <time>2020-05-31T09:09:16Z</time>
      </trkpt>
      <trkpt lat="48.63027" lon="2.02157">
        <ele>164</ele>
        <time>2020-05-31T09:09:18Z</time>
      </trkpt>
      <trkpt lat="48.63025" lon="2.02156">
        <ele>164</ele>
        <time>2020-05-31T09:09:20Z</time>
      </trkpt>
      <trkpt lat="48.63023" lon="2.02153">
        <ele>164</ele>
        <time>2020-05-31T09:09:22Z</time>
      </trkpt>
      <trkpt lat="48.63021" lon="2.0215">
        <ele>164</ele>
        <time>2020-05-31T09:09:24Z</time>
      </trkpt>
      <trkpt lat="48.63018" lon="2.02148">
        <ele>164</ele>
        <time>2020-05-31T09:09:26Z</time>
      </trkpt>
      <trkpt lat="48.63016" lon="2.02145">
        <ele>164</ele>
        <time>2020-05-31T09:09:28Z</time>
      </trkpt>
      <trkpt lat="48.63014" lon="2.02142">
        <ele>164</ele>
        <time>2020-05-31T09:09:30Z</time>
      </trkpt>
      <trkpt lat="48.63012" lon="2.02139">
        <ele>164</ele>
        <time>2020-05-31T09:09:32Z</time>
      </trkpt>
      <trkpt lat="48.6301" lon="2.02135">
        <ele>164</ele>
        <time>2020-05-31T09:09:34Z</time>
      </trkpt>
      <trkpt lat="48.63008" lon="2.02133">
        <ele>164</ele>
        <time>2020-05-31T09:09:36Z</time>
      </trkpt>
      <trkpt lat="48.63007" lon="2.0213">
        <ele>164</ele>
        <time>2020-05-31T09:09:38Z</time>
      </trkpt>
      <trkpt lat="48.63005" lon="2.02127">
        <ele>164</ele>
        <time>2020-05-31T09:09:40Z</time>
      </trkpt>
      <trkpt lat="48.63003" lon="2.02124">
        <ele>164</ele>
        <time>2020-05-31T09:09:42Z</time>
      </trkpt>
      <trkpt lat="48.63001" lon="2.0212">
        <ele>165</ele>
        <time>2020-05-31T09:09:44Z</time>
      </trkpt>
      <trkpt lat="48.63" lon="2.02117">
        <ele>165</ele>
        <time>2020-05-31T09:09:46Z</time>
      </trkpt>
      <trkpt lat="48.62998" lon="2.02115">
        <ele>165</ele>
        <time>2020-05-31T09:09:48Z</time>
      </trkpt>
      <trkpt lat="48.62996" lon="2.02112">
        <ele>165</ele>
        <time>2020-05-31T09:09:50Z</time>
      </trkpt>
      <trkpt lat="48.62995" lon="2.0211">
        <ele>165</ele>
        <time>2020-05-31T09:09:51Z</time>
      </trkpt>
      <trkpt lat="48.62994" lon="2.02108">
        <ele>165</ele>
        <time>2020-05-31T09:09:52Z</time>
      </trkpt>
      <trkpt lat="48.62992" lon="2.02104">
        <ele>165</ele>
        <time>2020-05-31T09:09:54Z</time>
      </trkpt>
      <trkpt lat="48.62991" lon="2.02101">
        <ele>165</ele>
        <time>2020-05-31T09:09:56Z</time>
      </trkpt>
      <trkpt lat="48.62989" lon="2.02098">
        <ele>165</ele>
        <time>2020-05-31T09:09:58Z</time>
      </trkpt>
      <trkpt lat="48.62988" lon="2.02094">
        <ele>165</ele>
        <time>2020-05-31T09:10:00Z</time>
      </trkpt>
      <trkpt lat="48.62987" lon="2.02091">
        <ele>165</ele>
        <time>2020-05-31T09:10:02Z</time>
      </trkpt>
      <trkpt lat="48.62985" lon="2.02088">
        <ele>165</ele>
        <time>2020-05-31T09:10:04Z</time>
      </trkpt>
      <trkpt lat="48.62984" lon="2.02085">
        <ele>165</ele>
        <time>2020-05-31T09:10:06Z</time>
      </trkpt>
      <trkpt lat="48.62982" lon="2.02082">
        <ele>165</ele>
        <time>2020-05-31T09:10:08Z</time>
      </trkpt>
      <trkpt lat="48.6298" lon="2.02079">
        <ele>165</ele>
        <time>2020-05-31T09:10:10Z</time>
      </trkpt>
      <trkpt lat="48.62978" lon="2.02077">
        <ele>165</ele>
        <time>2020-05-31T09:10:12Z</time>
      </trkpt>
      <trkpt lat="48.62976" lon="2.02075">
        <ele>165</ele>
        <time>2020-05-31T09:10:14Z</time>
      </trkpt>
      <trkpt lat="48.62974" lon="2.02073">
        <ele>165</ele>
        <time>2020-05-31T09:10:16Z</time>
      </trkpt>
      <trkpt lat="48.62972" lon="2.02071">
        <ele>165</ele>
        <time>2020-05-31T09:10:18Z</time>
      </trkpt>
      <trkpt lat="48.62969" lon="2.0207">
        <ele>165</ele>
        <time>2020-05-31T09:10:20Z</time>
      </trkpt>
      <trkpt lat="48.62967" lon="2.02068">
        <ele>165</ele>
        <time>2020-05-31T09:10:22Z</time>
      </trkpt>
      <trkpt lat="48.62965" lon="2.02066">
        <ele>165</ele>
        <time>2020-05-31T09:10:24Z</time>
      </trkpt>
      <trkpt lat="48.62964" lon="2.02064">
        <ele>166</ele>
        <time>2020-05-31T09:10:30Z</time>
      </trkpt>
      <trkpt lat="48.62963" lon="2.02061">
        <ele>166</ele>
        <time>2020-05-31T09:10:32Z</time>
      </trkpt>
      <trkpt lat="48.62961" lon="2.02058">
        <ele>166</ele>
        <time>2020-05-31T09:10:34Z</time>
      </trkpt>
      <trkpt lat="48.62959" lon="2.02056">
        <ele>166</ele>
        <time>2020-05-31T09:10:36Z</time>
      </trkpt>
      <trkpt lat="48.62956" lon="2.02053">
        <ele>166</ele>
        <time>2020-05-31T09:10:38Z</time>
      </trkpt>
      <trkpt lat="48.62953" lon="2.0205">
        <ele>166</ele>
        <time>2020-05-31T09:10:40Z</time>
      </trkpt>
      <trkpt lat="48.62951" lon="2.02048">
        <ele>166</ele>
        <time>2020-05-31T09:10:42Z</time>
      </trkpt>
      <trkpt lat="48.62948" lon="2.02045">
        <ele>166</ele>
        <time>2020-05-31T09:10:44Z</time>
      </trkpt>
      <trkpt lat="48.62946" lon="2.02043">
        <ele>166</ele>
        <time>2020-05-31T09:10:46Z</time>
      </trkpt>
      <trkpt lat="48.62943" lon="2.02042">
        <ele>166</ele>
        <time>2020-05-31T09:10:48Z</time>
      </trkpt>
      <trkpt lat="48.6294" lon="2.02042">
        <ele>166</ele>
        <time>2020-05-31T09:10:50Z</time>
      </trkpt>
      <trkpt lat="48.62938" lon="2.02041">
        <ele>166</ele>
        <time>2020-05-31T09:10:52Z</time>
      </trkpt>
      <trkpt lat="48.62935" lon="2.0204">
        <ele>166</ele>
        <time>2020-05-31T09:10:54Z</time>
      </trkpt>
      <trkpt lat="48.62932" lon="2.02039">
        <ele>166</ele>
        <time>2020-05-31T09:10:56Z</time>
      </trkpt>
      <trkpt lat="48.62929" lon="2.02038">
        <ele>166</ele>
        <time>2020-05-31T09:10:58Z</time>
      </trkpt>
      <trkpt lat="48.62927" lon="2.02036">
        <ele>166</ele>
        <time>2020-05-31T09:11:00Z</time>
      </trkpt>
      <trkpt lat="48.62924" lon="2.02034">
        <ele>166</ele>
        <time>2020-05-31T09:11:02Z</time>
      </trkpt>
      <trkpt lat="48.62922" lon="2.02031">
        <ele>166</ele>
        <time>2020-05-31T09:11:04Z</time>
      </trkpt>
      <trkpt lat="48.62919" lon="2.02029">
        <ele>166</ele>
        <time>2020-05-31T09:11:06Z</time>
      </trkpt>
      <trkpt lat="48.62917" lon="2.02027">
        <ele>167</ele>
        <time>2020-05-31T09:11:08Z</time>
      </trkpt>
      <trkpt lat="48.62915" lon="2.02026">
        <ele>167</ele>
        <time>2020-05-31T09:11:10Z</time>
      </trkpt>
      <trkpt lat="48.62913" lon="2.02024">
        <ele>167</ele>
        <time>2020-05-31T09:11:12Z</time>
      </trkpt>
      <trkpt lat="48.62911" lon="2.02022">
        <ele>166</ele>
        <time>2020-05-31T09:11:14Z</time>
      </trkpt>
      <trkpt lat="48.62909" lon="2.0202">
        <ele>166</ele>
        <time>2020-05-31T09:11:16Z</time>
      </trkpt>
      <trkpt lat="48.62907" lon="2.02017">
        <ele>166</ele>
        <time>2020-05-31T09:11:18Z</time>
      </trkpt>
      <trkpt lat="48.62904" lon="2.02016">
        <ele>167</ele>
        <time>2020-05-31T09:11:20Z</time>
      </trkpt>
      <trkpt lat="48.62902" lon="2.02013">
        <ele>167</ele>
        <time>2020-05-31T09:11:22Z</time>
      </trkpt>
      <trkpt lat="48.629" lon="2.02011">
        <ele>166</ele>
        <time>2020-05-31T09:11:24Z</time>
      </trkpt>
      <trkpt lat="48.62897" lon="2.02009">
        <ele>166</ele>
        <time>2020-05-31T09:11:26Z</time>
      </trkpt>
      <trkpt lat="48.62894" lon="2.02006">
        <ele>166</ele>
        <time>2020-05-31T09:11:28Z</time>
      </trkpt>
      <trkpt lat="48.62892" lon="2.02004">
        <ele>167</ele>
        <time>2020-05-31T09:11:30Z</time>
      </trkpt>
      <trkpt lat="48.6289" lon="2.02002">
        <ele>167</ele>
        <time>2020-05-31T09:11:32Z</time>
      </trkpt>
      <trkpt lat="48.62888" lon="2.01999">
        <ele>167</ele>
        <time>2020-05-31T09:11:34Z</time>
      </trkpt>
      <trkpt lat="48.62886" lon="2.01998">
        <ele>166</ele>
        <time>2020-05-31T09:11:39Z</time>
      </trkpt>
      <trkpt lat="48.62883" lon="2.01996">
        <ele>167</ele>
        <time>2020-05-31T09:11:41Z</time>
      </trkpt>
      <trkpt lat="48.62881" lon="2.01993">
        <ele>167</ele>
        <time>2020-05-31T09:11:43Z</time>
      </trkpt>
      <trkpt lat="48.62878" lon="2.01989">
        <ele>166</ele>
        <time>2020-05-31T09:11:45Z</time>
      </trkpt>
      <trkpt lat="48.62876" lon="2.01987">
        <ele>166</ele>
        <time>2020-05-31T09:11:47Z</time>
      </trkpt>
      <trkpt lat="48.62874" lon="2.01984">
        <ele>166</ele>
        <time>2020-05-31T09:11:49Z</time>
      </trkpt>
      <trkpt lat="48.62872" lon="2.0198">
        <ele>166</ele>
        <time>2020-05-31T09:11:51Z</time>
      </trkpt>
      <trkpt lat="48.6287" lon="2.01977">
        <ele>166</ele>
        <time>2020-05-31T09:11:53Z</time>
      </trkpt>
      <trkpt lat="48.62868" lon="2.01975">
        <ele>166</ele>
        <time>2020-05-31T09:11:55Z</time>
      </trkpt>
      <trkpt lat="48.62866" lon="2.01972">
        <ele>166</ele>
        <time>2020-05-31T09:11:57Z</time>
      </trkpt>
      <trkpt lat="48.62864" lon="2.01969">
        <ele>166</ele>
        <time>2020-05-31T09:11:59Z</time>
      </trkpt>
      <trkpt lat="48.62861" lon="2.01967">
        <ele>166</ele>
        <time>2020-05-31T09:12:01Z</time>
      </trkpt>
      <trkpt lat="48.62859" lon="2.01966">
        <ele>166</ele>
        <time>2020-05-31T09:12:03Z</time>
      </trkpt>
      <trkpt lat="48.62856" lon="2.01964">
        <ele>166</ele>
        <time>2020-05-31T09:12:05Z</time>
      </trkpt>
      <trkpt lat="48.62854" lon="2.01961">
        <ele>166</ele>
        <time>2020-05-31T09:12:07Z</time>
      </trkpt>
      <trkpt lat="48.62852" lon="2.01958">
        <ele>166</ele>
        <time>2020-05-31T09:12:09Z</time>
      </trkpt>
      <trkpt lat="48.6285" lon="2.01955">
        <ele>166</ele>
        <time>2020-05-31T09:12:11Z</time>
      </trkpt>
      <trkpt lat="48.62848" lon="2.0195">
        <ele>166</ele>
        <time>2020-05-31T09:12:13Z</time>
      </trkpt>
      <trkpt lat="48.62846" lon="2.01947">
        <ele>165</ele>
        <time>2020-05-31T09:12:15Z</time>
      </trkpt>
      <trkpt lat="48.62844" lon="2.01943">
        <ele>165</ele>
        <time>2020-05-31T09:12:17Z</time>
      </trkpt>
      <trkpt lat="48.62842" lon="2.0194">
        <ele>166</ele>
        <time>2020-05-31T09:12:19Z</time>
      </trkpt>
      <trkpt lat="48.6284" lon="2.01939">
        <ele>166</ele>
        <time>2020-05-31T09:12:21Z</time>
      </trkpt>
      <trkpt lat="48.62837" lon="2.01937">
        <ele>166</ele>
        <time>2020-05-31T09:12:23Z</time>
      </trkpt>
      <trkpt lat="48.62835" lon="2.01936">
        <ele>166</ele>
        <time>2020-05-31T09:12:25Z</time>
      </trkpt>
      <trkpt lat="48.62832" lon="2.01934">
        <ele>166</ele>
        <time>2020-05-31T09:12:27Z</time>
      </trkpt>
      <trkpt lat="48.6283" lon="2.01932">
        <ele>166</ele>
        <time>2020-05-31T09:12:29Z</time>
      </trkpt>
      <trkpt lat="48.62827" lon="2.0193">
        <ele>166</ele>
        <time>2020-05-31T09:12:31Z</time>
      </trkpt>
      <trkpt lat="48.62825" lon="2.01928">
        <ele>166</ele>
        <time>2020-05-31T09:12:33Z</time>
      </trkpt>
      <trkpt lat="48.62822" lon="2.01926">
        <ele>166</ele>
        <time>2020-05-31T09:12:35Z</time>
      </trkpt>
      <trkpt lat="48.62819" lon="2.01925">
        <ele>166</ele>
        <time>2020-05-31T09:12:37Z</time>
      </trkpt>
      <trkpt lat="48.62817" lon="2.01923">
        <ele>167</ele>
        <time>2020-05-31T09:12:39Z</time>
      </trkpt>
      <trkpt lat="48.62815" lon="2.0192">
        <ele>167</ele>
        <time>2020-05-31T09:12:41Z</time>
      </trkpt>
      <trkpt lat="48.62812" lon="2.01918">
        <ele>167</ele>
        <time>2020-05-31T09:12:43Z</time>
      </trkpt>
      <trkpt lat="48.6281" lon="2.01916">
        <ele>167</ele>
        <time>2020-05-31T09:12:45Z</time>
      </trkpt>
      <trkpt lat="48.62807" lon="2.01913">
        <ele>166</ele>
        <time>2020-05-31T09:12:47Z</time>
      </trkpt>
      <trkpt lat="48.62805" lon="2.0191">
        <ele>166</ele>
        <time>2020-05-31T09:12:49Z</time>
      </trkpt>
      <trkpt lat="48.62803" lon="2.01908">
        <ele>166</ele>
        <time>2020-05-31T09:12:51Z</time>
      </trkpt>
      <trkpt lat="48.628" lon="2.01906">
        <ele>165</ele>
        <time>2020-05-31T09:12:53Z</time>
      </trkpt>
      <trkpt lat="48.62797" lon="2.01904">
        <ele>165</ele>
        <time>2020-05-31T09:12:55Z</time>
      </trkpt>
      <trkpt lat="48.62794" lon="2.01902">
        <ele>166</ele>
        <time>2020-05-31T09:12:57Z</time>
      </trkpt>
      <trkpt lat="48.62792" lon="2.019">
        <ele>166</ele>
        <time>2020-05-31T09:12:59Z</time>
      </trkpt>
      <trkpt lat="48.62789" lon="2.01899">
        <ele>166</ele>
        <time>2020-05-31T09:13:01Z</time>
      </trkpt>
      <trkpt lat="48.62786" lon="2.01897">
        <ele>166</ele>
        <time>2020-05-31T09:13:03Z</time>
      </trkpt>
      <trkpt lat="48.62785" lon="2.01895">
        <ele>166</ele>
        <time>2020-05-31T09:13:04Z</time>
      </trkpt>
      <trkpt lat="48.62782" lon="2.01893">
        <ele>166</ele>
        <time>2020-05-31T09:13:06Z</time>
      </trkpt>
      <trkpt lat="48.6278" lon="2.0189">
        <ele>165</ele>
        <time>2020-05-31T09:13:08Z</time>
      </trkpt>
      <trkpt lat="48.62779" lon="2.01886">
        <ele>166</ele>
        <time>2020-05-31T09:13:10Z</time>
      </trkpt>
      <trkpt lat="48.62777" lon="2.01884">
        <ele>166</ele>
        <time>2020-05-31T09:13:12Z</time>
      </trkpt>
      <trkpt lat="48.62775" lon="2.01882">
        <ele>166</ele>
        <time>2020-05-31T09:13:13Z</time>
      </trkpt>
      <trkpt lat="48.62774" lon="2.01878">
        <ele>166</ele>
        <time>2020-05-31T09:13:15Z</time>
      </trkpt>
      <trkpt lat="48.62772" lon="2.01873">
        <ele>166</ele>
        <time>2020-05-31T09:13:17Z</time>
      </trkpt>
      <trkpt lat="48.6277" lon="2.01872">
        <ele>166</ele>
        <time>2020-05-31T09:13:18Z</time>
      </trkpt>
      <trkpt lat="48.62768" lon="2.01868">
        <ele>166</ele>
        <time>2020-05-31T09:13:20Z</time>
      </trkpt>
      <trkpt lat="48.62766" lon="2.01866">
        <ele>166</ele>
        <time>2020-05-31T09:13:21Z</time>
      </trkpt>
      <trkpt lat="48.62765" lon="2.01863">
        <ele>166</ele>
        <time>2020-05-31T09:13:23Z</time>
      </trkpt>
      <trkpt lat="48.62764" lon="2.0186">
        <ele>166</ele>
        <time>2020-05-31T09:13:25Z</time>
      </trkpt>
      <trkpt lat="48.62761" lon="2.01855">
        <ele>165</ele>
        <time>2020-05-31T09:13:27Z</time>
      </trkpt>
      <trkpt lat="48.6276" lon="2.01853">
        <ele>165</ele>
        <time>2020-05-31T09:13:28Z</time>
      </trkpt>
      <trkpt lat="48.62759" lon="2.0185">
        <ele>165</ele>
        <time>2020-05-31T09:13:29Z</time>
      </trkpt>
      <trkpt lat="48.62758" lon="2.01848">
        <ele>164</ele>
        <time>2020-05-31T09:13:30Z</time>
      </trkpt>
      <trkpt lat="48.62756" lon="2.01844">
        <ele>164</ele>
        <time>2020-05-31T09:13:32Z</time>
      </trkpt>
      <trkpt lat="48.62754" lon="2.0184">
        <ele>164</ele>
        <time>2020-05-31T09:13:34Z</time>
      </trkpt>
      <trkpt lat="48.62752" lon="2.01836">
        <ele>164</ele>
        <time>2020-05-31T09:13:36Z</time>
      </trkpt>
      <trkpt lat="48.62751" lon="2.01833">
        <ele>164</ele>
        <time>2020-05-31T09:13:38Z</time>
      </trkpt>
      <trkpt lat="48.62749" lon="2.01831">
        <ele>164</ele>
        <time>2020-05-31T09:13:40Z</time>
      </trkpt>
      <trkpt lat="48.62747" lon="2.01827">
        <ele>164</ele>
        <time>2020-05-31T09:13:42Z</time>
      </trkpt>
      <trkpt lat="48.62745" lon="2.01826">
        <ele>164</ele>
        <time>2020-05-31T09:13:44Z</time>
      </trkpt>
      <trkpt lat="48.62743" lon="2.01824">
        <ele>164</ele>
        <time>2020-05-31T09:13:46Z</time>
      </trkpt>
      <trkpt lat="48.62741" lon="2.01822">
        <ele>164</ele>
        <time>2020-05-31T09:13:48Z</time>
      </trkpt>
      <trkpt lat="48.62731" lon="2.01816">
        <ele>164</ele>
        <time>2020-05-31T09:13:53Z</time>
      </trkpt>
      <trkpt lat="48.62727" lon="2.0181">
        <ele>164</ele>
        <time>2020-05-31T09:13:57Z</time>
      </trkpt>
      <trkpt lat="48.62724" lon="2.01809">
        <ele>164</ele>
        <time>2020-05-31T09:13:59Z</time>
      </trkpt>
      <trkpt lat="48.62721" lon="2.01807">
        <ele>164</ele>
        <time>2020-05-31T09:14:01Z</time>
      </trkpt>
      <trkpt lat="48.6272" lon="2.01806">
        <ele>164</ele>
        <time>2020-05-31T09:14:02Z</time>
      </trkpt>
      <trkpt lat="48.62717" lon="2.01803">
        <ele>164</ele>
        <time>2020-05-31T09:14:04Z</time>
      </trkpt>
      <trkpt lat="48.62715" lon="2.01803">
        <ele>164</ele>
        <time>2020-05-31T09:14:05Z</time>
      </trkpt>
      <trkpt lat="48.62711" lon="2.018">
        <ele>164</ele>
        <time>2020-05-31T09:14:07Z</time>
      </trkpt>
      <trkpt lat="48.6271" lon="2.01799">
        <ele>164</ele>
        <time>2020-05-31T09:14:08Z</time>
      </trkpt>
      <trkpt lat="48.62707" lon="2.01796">
        <ele>164</ele>
        <time>2020-05-31T09:14:10Z</time>
      </trkpt>
      <trkpt lat="48.62704" lon="2.01793">
        <ele>163</ele>
        <time>2020-05-31T09:14:12Z</time>
      </trkpt>
      <trkpt lat="48.62702" lon="2.0179">
        <ele>163</ele>
        <time>2020-05-31T09:14:14Z</time>
      </trkpt>
      <trkpt lat="48.627" lon="2.01786">
        <ele>163</ele>
        <time>2020-05-31T09:14:16Z</time>
      </trkpt>
      <trkpt lat="48.62698" lon="2.01783">
        <ele>162</ele>
        <time>2020-05-31T09:14:18Z</time>
      </trkpt>
      <trkpt lat="48.62696" lon="2.01781">
        <ele>162</ele>
        <time>2020-05-31T09:14:20Z</time>
      </trkpt>
      <trkpt lat="48.62694" lon="2.01778">
        <ele>161</ele>
        <time>2020-05-31T09:14:22Z</time>
      </trkpt>
      <trkpt lat="48.62693" lon="2.01775">
        <ele>160</ele>
        <time>2020-05-31T09:14:24Z</time>
      </trkpt>
      <trkpt lat="48.62691" lon="2.01772">
        <ele>160</ele>
        <time>2020-05-31T09:14:26Z</time>
      </trkpt>
      <trkpt lat="48.62689" lon="2.0177">
        <ele>159</ele>
        <time>2020-05-31T09:14:27Z</time>
      </trkpt>
      <trkpt lat="48.62687" lon="2.01767">
        <ele>159</ele>
        <time>2020-05-31T09:14:29Z</time>
      </trkpt>
      <trkpt lat="48.62685" lon="2.01763">
        <ele>158</ele>
        <time>2020-05-31T09:14:31Z</time>
      </trkpt>
      <trkpt lat="48.62684" lon="2.01761">
        <ele>157</ele>
        <time>2020-05-31T09:14:32Z</time>
      </trkpt>
      <trkpt lat="48.62681" lon="2.01759">
        <ele>157</ele>
        <time>2020-05-31T09:14:34Z</time>
      </trkpt>
      <trkpt lat="48.62678" lon="2.01757">
        <ele>156</ele>
        <time>2020-05-31T09:14:36Z</time>
      </trkpt>
      <trkpt lat="48.62676" lon="2.01756">
        <ele>156</ele>
        <time>2020-05-31T09:14:37Z</time>
      </trkpt>
      <trkpt lat="48.62675" lon="2.01754">
        <ele>155</ele>
        <time>2020-05-31T09:14:38Z</time>
      </trkpt>
      <trkpt lat="48.62673" lon="2.01752">
        <ele>154</ele>
        <time>2020-05-31T09:14:39Z</time>
      </trkpt>
      <trkpt lat="48.62672" lon="2.0175">
        <ele>154</ele>
        <time>2020-05-31T09:14:40Z</time>
      </trkpt>
      <trkpt lat="48.62669" lon="2.01746">
        <ele>154</ele>
        <time>2020-05-31T09:14:42Z</time>
      </trkpt>
      <trkpt lat="48.62668" lon="2.01743">
        <ele>154</ele>
        <time>2020-05-31T09:14:44Z</time>
      </trkpt>
      <trkpt lat="48.62667" lon="2.01738">
        <ele>153</ele>
        <time>2020-05-31T09:14:46Z</time>
      </trkpt>
      <trkpt lat="48.62667" lon="2.01733">
        <ele>152</ele>
        <time>2020-05-31T09:14:48Z</time>
      </trkpt>
      <trkpt lat="48.62666" lon="2.0173">
        <ele>152</ele>
        <time>2020-05-31T09:14:49Z</time>
      </trkpt>
      <trkpt lat="48.62666" lon="2.01725">
        <ele>152</ele>
        <time>2020-05-31T09:14:51Z</time>
      </trkpt>
      <trkpt lat="48.62664" lon="2.01721">
        <ele>152</ele>
        <time>2020-05-31T09:14:53Z</time>
      </trkpt>
      <trkpt lat="48.62663" lon="2.01717">
        <ele>151</ele>
        <time>2020-05-31T09:14:55Z</time>
      </trkpt>
      <trkpt lat="48.62662" lon="2.01714">
        <ele>151</ele>
        <time>2020-05-31T09:14:57Z</time>
      </trkpt>
      <trkpt lat="48.62661" lon="2.0171">
        <ele>151</ele>
        <time>2020-05-31T09:14:59Z</time>
      </trkpt>
      <trkpt lat="48.6266" lon="2.01706">
        <ele>150</ele>
        <time>2020-05-31T09:15:01Z</time>
      </trkpt>
      <trkpt lat="48.62658" lon="2.01702">
        <ele>151</ele>
        <time>2020-05-31T09:15:03Z</time>
      </trkpt>
      <trkpt lat="48.62657" lon="2.01699">
        <ele>151</ele>
        <time>2020-05-31T09:15:05Z</time>
      </trkpt>
      <trkpt lat="48.62656" lon="2.01696">
        <ele>150</ele>
        <time>2020-05-31T09:15:07Z</time>
      </trkpt>
      <trkpt lat="48.62655" lon="2.01693">
        <ele>151</ele>
        <time>2020-05-31T09:15:09Z</time>
      </trkpt>
      <trkpt lat="48.62654" lon="2.01689">
        <ele>151</ele>
        <time>2020-05-31T09:15:11Z</time>
      </trkpt>
      <trkpt lat="48.62652" lon="2.01685">
        <ele>150</ele>
        <time>2020-05-31T09:15:13Z</time>
      </trkpt>
      <trkpt lat="48.62651" lon="2.01681">
        <ele>150</ele>
        <time>2020-05-31T09:15:15Z</time>
      </trkpt>
      <trkpt lat="48.62649" lon="2.01677">
        <ele>150</ele>
        <time>2020-05-31T09:15:17Z</time>
      </trkpt>
      <trkpt lat="48.62648" lon="2.01674">
        <ele>150</ele>
        <time>2020-05-31T09:15:18Z</time>
      </trkpt>
      <trkpt lat="48.62647" lon="2.0167">
        <ele>150</ele>
        <time>2020-05-31T09:15:20Z</time>
      </trkpt>
      <trkpt lat="48.62646" lon="2.01666">
        <ele>149</ele>
        <time>2020-05-31T09:15:22Z</time>
      </trkpt>
      <trkpt lat="48.62645" lon="2.01661">
        <ele>148</ele>
        <time>2020-05-31T09:15:24Z</time>
      </trkpt>
      <trkpt lat="48.62644" lon="2.01658">
        <ele>148</ele>
        <time>2020-05-31T09:15:25Z</time>
      </trkpt>
      <trkpt lat="48.62643" lon="2.01654">
        <ele>147</ele>
        <time>2020-05-31T09:15:27Z</time>
      </trkpt>
      <trkpt lat="48.62642" lon="2.01649">
        <ele>147</ele>
        <time>2020-05-31T09:15:29Z</time>
      </trkpt>
      <trkpt lat="48.62642" lon="2.01644">
        <ele>146</ele>
        <time>2020-05-31T09:15:31Z</time>
      </trkpt>
      <trkpt lat="48.62641" lon="2.0164">
        <ele>146</ele>
        <time>2020-05-31T09:15:33Z</time>
      </trkpt>
      <trkpt lat="48.6264" lon="2.01635">
        <ele>146</ele>
        <time>2020-05-31T09:15:35Z</time>
      </trkpt>
      <trkpt lat="48.6264" lon="2.01632">
        <ele>146</ele>
        <time>2020-05-31T09:15:36Z</time>
      </trkpt>
      <trkpt lat="48.62639" lon="2.01629">
        <ele>145</ele>
        <time>2020-05-31T09:15:37Z</time>
      </trkpt>
      <trkpt lat="48.62639" lon="2.01626">
        <ele>145</ele>
        <time>2020-05-31T09:15:38Z</time>
      </trkpt>
      <trkpt lat="48.62639" lon="2.01624">
        <ele>145</ele>
        <time>2020-05-31T09:15:39Z</time>
      </trkpt>
      <trkpt lat="48.62638" lon="2.01619">
        <ele>145</ele>
        <time>2020-05-31T09:15:41Z</time>
      </trkpt>
      <trkpt lat="48.62637" lon="2.01617">
        <ele>145</ele>
        <time>2020-05-31T09:15:42Z</time>
      </trkpt>
      <trkpt lat="48.62635" lon="2.01614">
        <ele>145</ele>
        <time>2020-05-31T09:15:44Z</time>
      </trkpt>
      <trkpt lat="48.62633" lon="2.0161">
        <ele>145</ele>
        <time>2020-05-31T09:15:46Z</time>
      </trkpt>
      <trkpt lat="48.62632" lon="2.01606">
        <ele>146</ele>
        <time>2020-05-31T09:15:48Z</time>
      </trkpt>
      <trkpt lat="48.62631" lon="2.01602">
        <ele>146</ele>
        <time>2020-05-31T09:15:50Z</time>
      </trkpt>
      <trkpt lat="48.62629" lon="2.01598">
        <ele>146</ele>
        <time>2020-05-31T09:15:52Z</time>
      </trkpt>
      <trkpt lat="48.62629" lon="2.01594">
        <ele>146</ele>
        <time>2020-05-31T09:15:54Z</time>
      </trkpt>
      <trkpt lat="48.62628" lon="2.01591">
        <ele>146</ele>
        <time>2020-05-31T09:15:56Z</time>
      </trkpt>
      <trkpt lat="48.62627" lon="2.01588">
        <ele>146</ele>
        <time>2020-05-31T09:15:58Z</time>
      </trkpt>
      <trkpt lat="48.62626" lon="2.01583">
        <ele>146</ele>
        <time>2020-05-31T09:16:00Z</time>
      </trkpt>
      <trkpt lat="48.62626" lon="2.0158">
        <ele>146</ele>
        <time>2020-05-31T09:16:01Z</time>
      </trkpt>
      <trkpt lat="48.62625" lon="2.01576">
        <ele>146</ele>
        <time>2020-05-31T09:16:03Z</time>
      </trkpt>
      <trkpt lat="48.62625" lon="2.01572">
        <ele>146</ele>
        <time>2020-05-31T09:16:05Z</time>
      </trkpt>
      <trkpt lat="48.62623" lon="2.01568">
        <ele>146</ele>
        <time>2020-05-31T09:16:07Z</time>
      </trkpt>
      <trkpt lat="48.62622" lon="2.01564">
        <ele>146</ele>
        <time>2020-05-31T09:16:09Z</time>
      </trkpt>
      <trkpt lat="48.62622" lon="2.0156">
        <ele>146</ele>
        <time>2020-05-31T09:16:11Z</time>
      </trkpt>
      <trkpt lat="48.62621" lon="2.01556">
        <ele>146</ele>
        <time>2020-05-31T09:16:13Z</time>
      </trkpt>
      <trkpt lat="48.6262" lon="2.01553">
        <ele>146</ele>
        <time>2020-05-31T09:16:15Z</time>
      </trkpt>
      <trkpt lat="48.62619" lon="2.0155">
        <ele>146</ele>
        <time>2020-05-31T09:16:17Z</time>
      </trkpt>
      <trkpt lat="48.62618" lon="2.01546">
        <ele>146</ele>
        <time>2020-05-31T09:16:19Z</time>
      </trkpt>
      <trkpt lat="48.62616" lon="2.0154">
        <ele>146</ele>
        <time>2020-05-31T09:16:21Z</time>
      </trkpt>
      <trkpt lat="48.62614" lon="2.01537">
        <ele>146</ele>
        <time>2020-05-31T09:16:23Z</time>
      </trkpt>
      <trkpt lat="48.62613" lon="2.01534">
        <ele>146</ele>
        <time>2020-05-31T09:16:25Z</time>
      </trkpt>
      <trkpt lat="48.62612" lon="2.0153">
        <ele>146</ele>
        <time>2020-05-31T09:16:27Z</time>
      </trkpt>
      <trkpt lat="48.6261" lon="2.01526">
        <ele>146</ele>
        <time>2020-05-31T09:16:29Z</time>
      </trkpt>
      <trkpt lat="48.62609" lon="2.01523">
        <ele>146</ele>
        <time>2020-05-31T09:16:31Z</time>
      </trkpt>
      <trkpt lat="48.62608" lon="2.01519">
        <ele>147</ele>
        <time>2020-05-31T09:16:33Z</time>
      </trkpt>
      <trkpt lat="48.62607" lon="2.01514">
        <ele>147</ele>
        <time>2020-05-31T09:16:35Z</time>
      </trkpt>
      <trkpt lat="48.62606" lon="2.01509">
        <ele>147</ele>
        <time>2020-05-31T09:16:37Z</time>
      </trkpt>
      <trkpt lat="48.62605" lon="2.01506">
        <ele>147</ele>
        <time>2020-05-31T09:16:39Z</time>
      </trkpt>
      <trkpt lat="48.62605" lon="2.01502">
        <ele>148</ele>
        <time>2020-05-31T09:16:41Z</time>
      </trkpt>
      <trkpt lat="48.62604" lon="2.01498">
        <ele>148</ele>
        <time>2020-05-31T09:16:43Z</time>
      </trkpt>
      <trkpt lat="48.62603" lon="2.01493">
        <ele>148</ele>
        <time>2020-05-31T09:16:45Z</time>
      </trkpt>
      <trkpt lat="48.62602" lon="2.01491">
        <ele>148</ele>
        <time>2020-05-31T09:16:46Z</time>
      </trkpt>
      <trkpt lat="48.62602" lon="2.01486">
        <ele>148</ele>
        <time>2020-05-31T09:16:48Z</time>
      </trkpt>
      <trkpt lat="48.62601" lon="2.01483">
        <ele>148</ele>
        <time>2020-05-31T09:16:49Z</time>
      </trkpt>
      <trkpt lat="48.62601" lon="2.0148">
        <ele>148</ele>
        <time>2020-05-31T09:16:50Z</time>
      </trkpt>
      <trkpt lat="48.626" lon="2.01477">
        <ele>147</ele>
        <time>2020-05-31T09:16:51Z</time>
      </trkpt>
      <trkpt lat="48.62599" lon="2.01475">
        <ele>147</ele>
        <time>2020-05-31T09:16:52Z</time>
      </trkpt>
      <trkpt lat="48.62597" lon="2.01471">
        <ele>147</ele>
        <time>2020-05-31T09:16:54Z</time>
      </trkpt>
      <trkpt lat="48.62596" lon="2.01467">
        <ele>147</ele>
        <time>2020-05-31T09:16:56Z</time>
      </trkpt>
      <trkpt lat="48.62596" lon="2.01462">
        <ele>147</ele>
        <time>2020-05-31T09:16:58Z</time>
      </trkpt>
      <trkpt lat="48.62595" lon="2.01458">
        <ele>146</ele>
        <time>2020-05-31T09:17:00Z</time>
      </trkpt>
      <trkpt lat="48.62593" lon="2.01454">
        <ele>146</ele>
        <time>2020-05-31T09:17:02Z</time>
      </trkpt>
      <trkpt lat="48.62592" lon="2.01451">
        <ele>146</ele>
        <time>2020-05-31T09:17:04Z</time>
      </trkpt>
      <trkpt lat="48.62591" lon="2.01447">
        <ele>146</ele>
        <time>2020-05-31T09:17:06Z</time>
      </trkpt>
      <trkpt lat="48.62591" lon="2.01443">
        <ele>146</ele>
        <time>2020-05-31T09:17:08Z</time>
      </trkpt>
      <trkpt lat="48.62591" lon="2.01438">
        <ele>147</ele>
        <time>2020-05-31T09:17:10Z</time>
      </trkpt>
      <trkpt lat="48.62591" lon="2.01433">
        <ele>146</ele>
        <time>2020-05-31T09:17:12Z</time>
      </trkpt>
      <trkpt lat="48.6259" lon="2.0143">
        <ele>147</ele>
        <time>2020-05-31T09:17:14Z</time>
      </trkpt>
      <trkpt lat="48.62588" lon="2.01427">
        <ele>147</ele>
        <time>2020-05-31T09:17:16Z</time>
      </trkpt>
      <trkpt lat="48.62588" lon="2.01422">
        <ele>147</ele>
        <time>2020-05-31T09:17:18Z</time>
      </trkpt>
      <trkpt lat="48.62587" lon="2.01418">
        <ele>147</ele>
        <time>2020-05-31T09:17:20Z</time>
      </trkpt>
      <trkpt lat="48.62586" lon="2.01414">
        <ele>147</ele>
        <time>2020-05-31T09:17:22Z</time>
      </trkpt>
      <trkpt lat="48.62586" lon="2.0141">
        <ele>147</ele>
        <time>2020-05-31T09:17:24Z</time>
      </trkpt>
      <trkpt lat="48.62585" lon="2.01406">
        <ele>147</ele>
        <time>2020-05-31T09:17:26Z</time>
      </trkpt>
      <trkpt lat="48.62584" lon="2.01403">
        <ele>147</ele>
        <time>2020-05-31T09:17:27Z</time>
      </trkpt>
      <trkpt lat="48.62583" lon="2.01399">
        <ele>147</ele>
        <time>2020-05-31T09:17:29Z</time>
      </trkpt>
      <trkpt lat="48.62582" lon="2.01395">
        <ele>147</ele>
        <time>2020-05-31T09:17:31Z</time>
      </trkpt>
      <trkpt lat="48.62581" lon="2.01392">
        <ele>147</ele>
        <time>2020-05-31T09:17:33Z</time>
      </trkpt>
      <trkpt lat="48.6258" lon="2.01388">
        <ele>147</ele>
        <time>2020-05-31T09:17:35Z</time>
      </trkpt>
      <trkpt lat="48.62578" lon="2.01383">
        <ele>147</ele>
        <time>2020-05-31T09:17:37Z</time>
      </trkpt>
      <trkpt lat="48.62578" lon="2.0138">
        <ele>147</ele>
        <time>2020-05-31T09:17:38Z</time>
      </trkpt>
      <trkpt lat="48.62576" lon="2.01376">
        <ele>147</ele>
        <time>2020-05-31T09:17:40Z</time>
      </trkpt>
      <trkpt lat="48.62575" lon="2.01372">
        <ele>147</ele>
        <time>2020-05-31T09:17:42Z</time>
      </trkpt>
      <trkpt lat="48.62574" lon="2.01368">
        <ele>147</ele>
        <time>2020-05-31T09:17:44Z</time>
      </trkpt>
      <trkpt lat="48.62574" lon="2.01363">
        <ele>146</ele>
        <time>2020-05-31T09:17:46Z</time>
      </trkpt>
      <trkpt lat="48.62573" lon="2.0136">
        <ele>146</ele>
        <time>2020-05-31T09:17:48Z</time>
      </trkpt>
      <trkpt lat="48.62572" lon="2.01356">
        <ele>147</ele>
        <time>2020-05-31T09:17:50Z</time>
      </trkpt>
      <trkpt lat="48.62572" lon="2.01351">
        <ele>147</ele>
        <time>2020-05-31T09:17:52Z</time>
      </trkpt>
      <trkpt lat="48.62571" lon="2.01346">
        <ele>146</ele>
        <time>2020-05-31T09:17:54Z</time>
      </trkpt>
      <trkpt lat="48.6257" lon="2.01341">
        <ele>146</ele>
        <time>2020-05-31T09:17:56Z</time>
      </trkpt>
      <trkpt lat="48.62569" lon="2.01337">
        <ele>146</ele>
        <time>2020-05-31T09:17:58Z</time>
      </trkpt>
      <trkpt lat="48.62567" lon="2.01333">
        <ele>145</ele>
        <time>2020-05-31T09:18:00Z</time>
      </trkpt>
      <trkpt lat="48.62566" lon="2.01329">
        <ele>146</ele>
        <time>2020-05-31T09:18:02Z</time>
      </trkpt>
      <trkpt lat="48.62565" lon="2.01324">
        <ele>145</ele>
        <time>2020-05-31T09:18:04Z</time>
      </trkpt>
      <trkpt lat="48.62563" lon="2.01319">
        <ele>145</ele>
        <time>2020-05-31T09:18:06Z</time>
      </trkpt>
      <trkpt lat="48.62562" lon="2.01315">
        <ele>145</ele>
        <time>2020-05-31T09:18:08Z</time>
      </trkpt>
      <trkpt lat="48.6256" lon="2.0131">
        <ele>145</ele>
        <time>2020-05-31T09:18:10Z</time>
      </trkpt>
      <trkpt lat="48.62558" lon="2.01307">
        <ele>144</ele>
        <time>2020-05-31T09:18:12Z</time>
      </trkpt>
      <trkpt lat="48.62557" lon="2.01303">
        <ele>144</ele>
        <time>2020-05-31T09:18:14Z</time>
      </trkpt>
      <trkpt lat="48.62556" lon="2.01298">
        <ele>144</ele>
        <time>2020-05-31T09:18:16Z</time>
      </trkpt>
      <trkpt lat="48.62555" lon="2.01294">
        <ele>143</ele>
        <time>2020-05-31T09:18:18Z</time>
      </trkpt>
      <trkpt lat="48.62554" lon="2.01289">
        <ele>143</ele>
        <time>2020-05-31T09:18:20Z</time>
      </trkpt>
      <trkpt lat="48.62553" lon="2.01284">
        <ele>144</ele>
        <time>2020-05-31T09:18:22Z</time>
      </trkpt>
      <trkpt lat="48.62553" lon="2.0128">
        <ele>144</ele>
        <time>2020-05-31T09:18:25Z</time>
      </trkpt>
      <trkpt lat="48.62555" lon="2.01275">
        <ele>143</ele>
        <time>2020-05-31T09:18:27Z</time>
      </trkpt>
      <trkpt lat="48.62557" lon="2.01272">
        <ele>143</ele>
        <time>2020-05-31T09:18:28Z</time>
      </trkpt>
      <trkpt lat="48.62558" lon="2.0127">
        <ele>143</ele>
        <time>2020-05-31T09:18:29Z</time>
      </trkpt>
      <trkpt lat="48.62559" lon="2.01267">
        <ele>143</ele>
        <time>2020-05-31T09:18:30Z</time>
      </trkpt>
      <trkpt lat="48.6256" lon="2.01265">
        <ele>143</ele>
        <time>2020-05-31T09:18:31Z</time>
      </trkpt>
      <trkpt lat="48.62561" lon="2.01261">
        <ele>143</ele>
        <time>2020-05-31T09:18:33Z</time>
      </trkpt>
      <trkpt lat="48.62562" lon="2.01256">
        <ele>143</ele>
        <time>2020-05-31T09:18:35Z</time>
      </trkpt>
      <trkpt lat="48.62564" lon="2.01251">
        <ele>143</ele>
        <time>2020-05-31T09:18:37Z</time>
      </trkpt>
      <trkpt lat="48.62565" lon="2.01248">
        <ele>143</ele>
        <time>2020-05-31T09:18:39Z</time>
      </trkpt>
      <trkpt lat="48.62567" lon="2.01244">
        <ele>143</ele>
        <time>2020-05-31T09:18:41Z</time>
      </trkpt>
      <trkpt lat="48.62569" lon="2.0124">
        <ele>143</ele>
        <time>2020-05-31T09:18:43Z</time>
      </trkpt>
      <trkpt lat="48.62571" lon="2.01235">
        <ele>144</ele>
        <time>2020-05-31T09:18:45Z</time>
      </trkpt>
      <trkpt lat="48.62572" lon="2.01233">
        <ele>144</ele>
        <time>2020-05-31T09:18:46Z</time>
      </trkpt>
      <trkpt lat="48.62574" lon="2.01228">
        <ele>144</ele>
        <time>2020-05-31T09:18:48Z</time>
      </trkpt>
      <trkpt lat="48.62575" lon="2.01226">
        <ele>144</ele>
        <time>2020-05-31T09:18:49Z</time>
      </trkpt>
      <trkpt lat="48.62576" lon="2.01224">
        <ele>144</ele>
        <time>2020-05-31T09:18:50Z</time>
      </trkpt>
      <trkpt lat="48.62578" lon="2.01222">
        <ele>144</ele>
        <time>2020-05-31T09:18:51Z</time>
      </trkpt>
      <trkpt lat="48.6258" lon="2.01218">
        <ele>144</ele>
        <time>2020-05-31T09:18:53Z</time>
      </trkpt>
      <trkpt lat="48.62582" lon="2.01215">
        <ele>144</ele>
        <time>2020-05-31T09:18:55Z</time>
      </trkpt>
      <trkpt lat="48.62584" lon="2.0121">
        <ele>144</ele>
        <time>2020-05-31T09:18:57Z</time>
      </trkpt>
      <trkpt lat="48.62585" lon="2.01206">
        <ele>144</ele>
        <time>2020-05-31T09:18:59Z</time>
      </trkpt>
      <trkpt lat="48.62587" lon="2.01202">
        <ele>144</ele>
        <time>2020-05-31T09:19:01Z</time>
      </trkpt>
      <trkpt lat="48.62588" lon="2.01201">
        <ele>144</ele>
        <time>2020-05-31T09:19:02Z</time>
      </trkpt>
      <trkpt lat="48.6259" lon="2.01199">
        <ele>145</ele>
        <time>2020-05-31T09:19:03Z</time>
      </trkpt>
      <trkpt lat="48.62592" lon="2.01195">
        <ele>144</ele>
        <time>2020-05-31T09:19:05Z</time>
      </trkpt>
      <trkpt lat="48.62594" lon="2.01192">
        <ele>144</ele>
        <time>2020-05-31T09:19:08Z</time>
      </trkpt>
      <trkpt lat="48.62595" lon="2.01189">
        <ele>144</ele>
        <time>2020-05-31T09:19:10Z</time>
      </trkpt>
      <trkpt lat="48.62597" lon="2.01185">
        <ele>145</ele>
        <time>2020-05-31T09:19:12Z</time>
      </trkpt>
      <trkpt lat="48.62599" lon="2.01181">
        <ele>145</ele>
        <time>2020-05-31T09:19:14Z</time>
      </trkpt>
      <trkpt lat="48.62601" lon="2.01177">
        <ele>145</ele>
        <time>2020-05-31T09:19:16Z</time>
      </trkpt>
      <trkpt lat="48.62602" lon="2.01175">
        <ele>145</ele>
        <time>2020-05-31T09:19:17Z</time>
      </trkpt>
      <trkpt lat="48.62604" lon="2.01171">
        <ele>145</ele>
        <time>2020-05-31T09:19:19Z</time>
      </trkpt>
      <trkpt lat="48.62606" lon="2.01166">
        <ele>145</ele>
        <time>2020-05-31T09:19:21Z</time>
      </trkpt>
      <trkpt lat="48.62607" lon="2.01162">
        <ele>145</ele>
        <time>2020-05-31T09:19:23Z</time>
      </trkpt>
      <trkpt lat="48.62609" lon="2.01158">
        <ele>146</ele>
        <time>2020-05-31T09:19:25Z</time>
      </trkpt>
      <trkpt lat="48.62611" lon="2.01154">
        <ele>146</ele>
        <time>2020-05-31T09:19:27Z</time>
      </trkpt>
      <trkpt lat="48.62612" lon="2.01151">
        <ele>146</ele>
        <time>2020-05-31T09:19:29Z</time>
      </trkpt>
      <trkpt lat="48.62613" lon="2.01147">
        <ele>146</ele>
        <time>2020-05-31T09:19:31Z</time>
      </trkpt>
      <trkpt lat="48.62615" lon="2.01144">
        <ele>146</ele>
        <time>2020-05-31T09:19:33Z</time>
      </trkpt>
      <trkpt lat="48.62616" lon="2.0114">
        <ele>145</ele>
        <time>2020-05-31T09:19:35Z</time>
      </trkpt>
      <trkpt lat="48.62618" lon="2.01138">
        <ele>145</ele>
        <time>2020-05-31T09:19:37Z</time>
      </trkpt>
      <trkpt lat="48.62619" lon="2.01135">
        <ele>145</ele>
        <time>2020-05-31T09:19:39Z</time>
      </trkpt>
      <trkpt lat="48.6262" lon="2.01132">
        <ele>145</ele>
        <time>2020-05-31T09:19:41Z</time>
      </trkpt>
      <trkpt lat="48.62621" lon="2.01128">
        <ele>145</ele>
        <time>2020-05-31T09:19:43Z</time>
      </trkpt>
      <trkpt lat="48.62622" lon="2.01124">
        <ele>144</ele>
        <time>2020-05-31T09:19:45Z</time>
      </trkpt>
      <trkpt lat="48.62625" lon="2.0112">
        <ele>144</ele>
        <time>2020-05-31T09:19:47Z</time>
      </trkpt>
      <trkpt lat="48.62627" lon="2.01116">
        <ele>144</ele>
        <time>2020-05-31T09:19:49Z</time>
      </trkpt>
      <trkpt lat="48.62629" lon="2.01113">
        <ele>144</ele>
        <time>2020-05-31T09:19:51Z</time>
      </trkpt>
      <trkpt lat="48.62631" lon="2.01109">
        <ele>144</ele>
        <time>2020-05-31T09:19:53Z</time>
      </trkpt>
      <trkpt lat="48.62632" lon="2.01104">
        <ele>144</ele>
        <time>2020-05-31T09:19:55Z</time>
      </trkpt>
      <trkpt lat="48.62634" lon="2.01101">
        <ele>144</ele>
        <time>2020-05-31T09:19:57Z</time>
      </trkpt>
      <trkpt lat="48.62635" lon="2.01098">
        <ele>143</ele>
        <time>2020-05-31T09:19:59Z</time>
      </trkpt>
      <trkpt lat="48.62638" lon="2.01094">
        <ele>143</ele>
        <time>2020-05-31T09:20:01Z</time>
      </trkpt>
      <trkpt lat="48.62639" lon="2.01091">
        <ele>143</ele>
        <time>2020-05-31T09:20:03Z</time>
      </trkpt>
      <trkpt lat="48.62641" lon="2.01087">
        <ele>143</ele>
        <time>2020-05-31T09:20:05Z</time>
      </trkpt>
      <trkpt lat="48.62644" lon="2.01083">
        <ele>143</ele>
        <time>2020-05-31T09:20:07Z</time>
      </trkpt>
      <trkpt lat="48.62646" lon="2.0108">
        <ele>143</ele>
        <time>2020-05-31T09:20:09Z</time>
      </trkpt>
      <trkpt lat="48.62648" lon="2.01076">
        <ele>143</ele>
        <time>2020-05-31T09:20:11Z</time>
      </trkpt>
      <trkpt lat="48.6265" lon="2.01072">
        <ele>143</ele>
        <time>2020-05-31T09:20:13Z</time>
      </trkpt>
      <trkpt lat="48.62651" lon="2.01069">
        <ele>142</ele>
        <time>2020-05-31T09:20:15Z</time>
      </trkpt>
      <trkpt lat="48.62653" lon="2.01066">
        <ele>142</ele>
        <time>2020-05-31T09:20:17Z</time>
      </trkpt>
      <trkpt lat="48.62655" lon="2.01062">
        <ele>142</ele>
        <time>2020-05-31T09:20:19Z</time>
      </trkpt>
      <trkpt lat="48.62657" lon="2.01058">
        <ele>141</ele>
        <time>2020-05-31T09:20:21Z</time>
      </trkpt>
      <trkpt lat="48.6266" lon="2.01055">
        <ele>141</ele>
        <time>2020-05-31T09:20:23Z</time>
      </trkpt>
      <trkpt lat="48.62662" lon="2.01051">
        <ele>141</ele>
        <time>2020-05-31T09:20:25Z</time>
      </trkpt>
      <trkpt lat="48.62664" lon="2.01047">
        <ele>141</ele>
        <time>2020-05-31T09:20:27Z</time>
      </trkpt>
      <trkpt lat="48.62665" lon="2.01044">
        <ele>141</ele>
        <time>2020-05-31T09:20:29Z</time>
      </trkpt>
      <trkpt lat="48.62667" lon="2.01041">
        <ele>140</ele>
        <time>2020-05-31T09:20:31Z</time>
      </trkpt>
      <trkpt lat="48.62669" lon="2.01038">
        <ele>140</ele>
        <time>2020-05-31T09:20:33Z</time>
      </trkpt>
      <trkpt lat="48.62671" lon="2.01034">
        <ele>140</ele>
        <time>2020-05-31T09:20:35Z</time>
      </trkpt>
      <trkpt lat="48.62673" lon="2.0103">
        <ele>139</ele>
        <time>2020-05-31T09:20:37Z</time>
      </trkpt>
      <trkpt lat="48.62674" lon="2.01026">
        <ele>139</ele>
        <time>2020-05-31T09:20:39Z</time>
      </trkpt>
      <trkpt lat="48.62676" lon="2.01022">
        <ele>139</ele>
        <time>2020-05-31T09:20:41Z</time>
      </trkpt>
      <trkpt lat="48.62678" lon="2.01018">
        <ele>139</ele>
        <time>2020-05-31T09:20:43Z</time>
      </trkpt>
      <trkpt lat="48.62679" lon="2.01015">
        <ele>139</ele>
        <time>2020-05-31T09:20:44Z</time>
      </trkpt>
      <trkpt lat="48.6268" lon="2.01014">
        <ele>140</ele>
        <time>2020-05-31T09:20:45Z</time>
      </trkpt>
      <trkpt lat="48.62683" lon="2.01011">
        <ele>140</ele>
        <time>2020-05-31T09:20:47Z</time>
      </trkpt>
      <trkpt lat="48.62686" lon="2.01008">
        <ele>140</ele>
        <time>2020-05-31T09:20:49Z</time>
      </trkpt>
      <trkpt lat="48.62689" lon="2.01005">
        <ele>139</ele>
        <time>2020-05-31T09:20:51Z</time>
      </trkpt>
      <trkpt lat="48.62691" lon="2.01003">
        <ele>139</ele>
        <time>2020-05-31T09:20:53Z</time>
      </trkpt>
      <trkpt lat="48.62695" lon="2.01">
        <ele>139</ele>
        <time>2020-05-31T09:20:55Z</time>
      </trkpt>
      <trkpt lat="48.62698" lon="2.00998">
        <ele>139</ele>
        <time>2020-05-31T09:20:57Z</time>
      </trkpt>
      <trkpt lat="48.62701" lon="2.00996">
        <ele>139</ele>
        <time>2020-05-31T09:20:59Z</time>
      </trkpt>
      <trkpt lat="48.62703" lon="2.00995">
        <ele>139</ele>
        <time>2020-05-31T09:21:00Z</time>
      </trkpt>
      <trkpt lat="48.62704" lon="2.00994">
        <ele>139</ele>
        <time>2020-05-31T09:21:01Z</time>
      </trkpt>
      <trkpt lat="48.62706" lon="2.00993">
        <ele>139</ele>
        <time>2020-05-31T09:21:02Z</time>
      </trkpt>
      <trkpt lat="48.62709" lon="2.00993">
        <ele>139</ele>
        <time>2020-05-31T09:21:04Z</time>
      </trkpt>
      <trkpt lat="48.62712" lon="2.00993">
        <ele>138</ele>
        <time>2020-05-31T09:21:06Z</time>
      </trkpt>
      <trkpt lat="48.62714" lon="2.00992">
        <ele>138</ele>
        <time>2020-05-31T09:21:08Z</time>
      </trkpt>
      <trkpt lat="48.62717" lon="2.0099">
        <ele>137</ele>
        <time>2020-05-31T09:21:10Z</time>
      </trkpt>
      <trkpt lat="48.6272" lon="2.00988">
        <ele>137</ele>
        <time>2020-05-31T09:21:12Z</time>
      </trkpt>
      <trkpt lat="48.62723" lon="2.00985">
        <ele>137</ele>
        <time>2020-05-31T09:21:14Z</time>
      </trkpt>
      <trkpt lat="48.62725" lon="2.00983">
        <ele>137</ele>
        <time>2020-05-31T09:21:16Z</time>
      </trkpt>
      <trkpt lat="48.62728" lon="2.0098">
        <ele>137</ele>
        <time>2020-05-31T09:21:18Z</time>
      </trkpt>
      <trkpt lat="48.6273" lon="2.00978">
        <ele>138</ele>
        <time>2020-05-31T09:21:20Z</time>
      </trkpt>
      <trkpt lat="48.62732" lon="2.00975">
        <ele>138</ele>
        <time>2020-05-31T09:21:22Z</time>
      </trkpt>
      <trkpt lat="48.62734" lon="2.00971">
        <ele>137</ele>
        <time>2020-05-31T09:21:24Z</time>
      </trkpt>
      <trkpt lat="48.62735" lon="2.00967">
        <ele>137</ele>
        <time>2020-05-31T09:21:26Z</time>
      </trkpt>
      <trkpt lat="48.62736" lon="2.00963">
        <ele>137</ele>
        <time>2020-05-31T09:21:28Z</time>
      </trkpt>
      <trkpt lat="48.62738" lon="2.00959">
        <ele>137</ele>
        <time>2020-05-31T09:21:30Z</time>
      </trkpt>
      <trkpt lat="48.6274" lon="2.00955">
        <ele>137</ele>
        <time>2020-05-31T09:21:32Z</time>
      </trkpt>
      <trkpt lat="48.6274" lon="2.00951">
        <ele>137</ele>
        <time>2020-05-31T09:21:34Z</time>
      </trkpt>
      <trkpt lat="48.62741" lon="2.00946">
        <ele>137</ele>
        <time>2020-05-31T09:21:36Z</time>
      </trkpt>
      <trkpt lat="48.62741" lon="2.00942">
        <ele>137</ele>
        <time>2020-05-31T09:21:38Z</time>
      </trkpt>
      <trkpt lat="48.62742" lon="2.00937">
        <ele>136</ele>
        <time>2020-05-31T09:21:40Z</time>
      </trkpt>
      <trkpt lat="48.62741" lon="2.00933">
        <ele>136</ele>
        <time>2020-05-31T09:21:42Z</time>
      </trkpt>
      <trkpt lat="48.62741" lon="2.00929">
        <ele>136</ele>
        <time>2020-05-31T09:21:44Z</time>
      </trkpt>
      <trkpt lat="48.62741" lon="2.00924">
        <ele>136</ele>
        <time>2020-05-31T09:21:46Z</time>
      </trkpt>
      <trkpt lat="48.62741" lon="2.00919">
        <ele>135</ele>
        <time>2020-05-31T09:21:48Z</time>
      </trkpt>
      <trkpt lat="48.62741" lon="2.00913">
        <ele>135</ele>
        <time>2020-05-31T09:21:50Z</time>
      </trkpt>
      <trkpt lat="48.62742" lon="2.00911">
        <ele>135</ele>
        <time>2020-05-31T09:21:51Z</time>
      </trkpt>
      <trkpt lat="48.62742" lon="2.00908">
        <ele>135</ele>
        <time>2020-05-31T09:21:52Z</time>
      </trkpt>
      <trkpt lat="48.62743" lon="2.00903">
        <ele>135</ele>
        <time>2020-05-31T09:21:54Z</time>
      </trkpt>
      <trkpt lat="48.62744" lon="2.00898">
        <ele>135</ele>
        <time>2020-05-31T09:21:56Z</time>
      </trkpt>
      <trkpt lat="48.62745" lon="2.00894">
        <ele>136</ele>
        <time>2020-05-31T09:21:58Z</time>
      </trkpt>
      <trkpt lat="48.62746" lon="2.0089">
        <ele>135</ele>
        <time>2020-05-31T09:22:00Z</time>
      </trkpt>
      <trkpt lat="48.62748" lon="2.00886">
        <ele>135</ele>
        <time>2020-05-31T09:22:02Z</time>
      </trkpt>
      <trkpt lat="48.6275" lon="2.00882">
        <ele>136</ele>
        <time>2020-05-31T09:22:04Z</time>
      </trkpt>
      <trkpt lat="48.6275" lon="2.00878">
        <ele>136</ele>
        <time>2020-05-31T09:22:06Z</time>
      </trkpt>
      <trkpt lat="48.62751" lon="2.00875">
        <ele>136</ele>
        <time>2020-05-31T09:22:08Z</time>
      </trkpt>
      <trkpt lat="48.62753" lon="2.0087">
        <ele>136</ele>
        <time>2020-05-31T09:22:10Z</time>
      </trkpt>
      <trkpt lat="48.62753" lon="2.00866">
        <ele>136</ele>
        <time>2020-05-31T09:22:12Z</time>
      </trkpt>
      <trkpt lat="48.62754" lon="2.0086">
        <ele>136</ele>
        <time>2020-05-31T09:22:14Z</time>
      </trkpt>
      <trkpt lat="48.62755" lon="2.00858">
        <ele>136</ele>
        <time>2020-05-31T09:22:15Z</time>
      </trkpt>
      <trkpt lat="48.62756" lon="2.00855">
        <ele>135</ele>
        <time>2020-05-31T09:22:16Z</time>
      </trkpt>
      <trkpt lat="48.62757" lon="2.00852">
        <ele>135</ele>
        <time>2020-05-31T09:22:17Z</time>
      </trkpt>
      <trkpt lat="48.62757" lon="2.00848">
        <ele>135</ele>
        <time>2020-05-31T09:22:19Z</time>
      </trkpt>
      <trkpt lat="48.62757" lon="2.00845">
        <ele>135</ele>
        <time>2020-05-31T09:22:20Z</time>
      </trkpt>
      <trkpt lat="48.62758" lon="2.00842">
        <ele>135</ele>
        <time>2020-05-31T09:22:21Z</time>
      </trkpt>
      <trkpt lat="48.62758" lon="2.00839">
        <ele>135</ele>
        <time>2020-05-31T09:22:22Z</time>
      </trkpt>
      <trkpt lat="48.62758" lon="2.00836">
        <ele>135</ele>
        <time>2020-05-31T09:22:23Z</time>
      </trkpt>
      <trkpt lat="48.62759" lon="2.00833">
        <ele>135</ele>
        <time>2020-05-31T09:22:24Z</time>
      </trkpt>
      <trkpt lat="48.6276" lon="2.0083">
        <ele>135</ele>
        <time>2020-05-31T09:22:25Z</time>
      </trkpt>
      <trkpt lat="48.62761" lon="2.00826">
        <ele>135</ele>
        <time>2020-05-31T09:22:26Z</time>
      </trkpt>
      <trkpt lat="48.62762" lon="2.00823">
        <ele>135</ele>
        <time>2020-05-31T09:22:27Z</time>
      </trkpt>
      <trkpt lat="48.62763" lon="2.00819">
        <ele>135</ele>
        <time>2020-05-31T09:22:28Z</time>
      </trkpt>
      <trkpt lat="48.62765" lon="2.00815">
        <ele>135</ele>
        <time>2020-05-31T09:22:29Z</time>
      </trkpt>
      <trkpt lat="48.62766" lon="2.0081">
        <ele>135</ele>
        <time>2020-05-31T09:22:30Z</time>
      </trkpt>
      <trkpt lat="48.62767" lon="2.00804">
        <ele>135</ele>
        <time>2020-05-31T09:22:31Z</time>
      </trkpt>
      <trkpt lat="48.62768" lon="2.00799">
        <ele>135</ele>
        <time>2020-05-31T09:22:32Z</time>
      </trkpt>
      <trkpt lat="48.62769" lon="2.00794">
        <ele>135</ele>
        <time>2020-05-31T09:22:33Z</time>
      </trkpt>
      <trkpt lat="48.6277" lon="2.00788">
        <ele>135</ele>
        <time>2020-05-31T09:22:34Z</time>
      </trkpt>
      <trkpt lat="48.62772" lon="2.00782">
        <ele>135</ele>
        <time>2020-05-31T09:22:35Z</time>
      </trkpt>
      <trkpt lat="48.62773" lon="2.00777">
        <ele>135</ele>
        <time>2020-05-31T09:22:36Z</time>
      </trkpt>
      <trkpt lat="48.62778" lon="2.0076">
        <ele>135</ele>
        <time>2020-05-31T09:22:39Z</time>
      </trkpt>
      <trkpt lat="48.62783" lon="2.00744">
        <ele>135</ele>
        <time>2020-05-31T09:22:42Z</time>
      </trkpt>
      <trkpt lat="48.62786" lon="2.00734">
        <ele>135</ele>
        <time>2020-05-31T09:22:44Z</time>
      </trkpt>
      <trkpt lat="48.6279" lon="2.00717">
        <ele>135</ele>
        <time>2020-05-31T09:22:47Z</time>
      </trkpt>
      <trkpt lat="48.62794" lon="2.00704">
        <ele>135</ele>
        <time>2020-05-31T09:22:49Z</time>
      </trkpt>
      <trkpt lat="48.62796" lon="2.00698">
        <ele>136</ele>
        <time>2020-05-31T09:22:50Z</time>
      </trkpt>
      <trkpt lat="48.62798" lon="2.00693">
        <ele>136</ele>
        <time>2020-05-31T09:22:51Z</time>
      </trkpt>
      <trkpt lat="48.62799" lon="2.00689">
        <ele>136</ele>
        <time>2020-05-31T09:22:52Z</time>
      </trkpt>
      <trkpt lat="48.62801" lon="2.00685">
        <ele>136</ele>
        <time>2020-05-31T09:22:53Z</time>
      </trkpt>
      <trkpt lat="48.62802" lon="2.00681">
        <ele>135</ele>
        <time>2020-05-31T09:22:54Z</time>
      </trkpt>
      <trkpt lat="48.62804" lon="2.00678">
        <ele>135</ele>
        <time>2020-05-31T09:22:55Z</time>
      </trkpt>
      <trkpt lat="48.62805" lon="2.00674">
        <ele>135</ele>
        <time>2020-05-31T09:22:56Z</time>
      </trkpt>
      <trkpt lat="48.62806" lon="2.00671">
        <ele>135</ele>
        <time>2020-05-31T09:22:57Z</time>
      </trkpt>
      <trkpt lat="48.62807" lon="2.00668">
        <ele>135</ele>
        <time>2020-05-31T09:22:58Z</time>
      </trkpt>
      <trkpt lat="48.62809" lon="2.00664">
        <ele>135</ele>
        <time>2020-05-31T09:22:59Z</time>
      </trkpt>
      <trkpt lat="48.6281" lon="2.0066">
        <ele>135</ele>
        <time>2020-05-31T09:23:00Z</time>
      </trkpt>
      <trkpt lat="48.62812" lon="2.00656">
        <ele>135</ele>
        <time>2020-05-31T09:23:01Z</time>
      </trkpt>
      <trkpt lat="48.62813" lon="2.00652">
        <ele>135</ele>
        <time>2020-05-31T09:23:02Z</time>
      </trkpt>
      <trkpt lat="48.62814" lon="2.00648">
        <ele>135</ele>
        <time>2020-05-31T09:23:03Z</time>
      </trkpt>
      <trkpt lat="48.62815" lon="2.00645">
        <ele>135</ele>
        <time>2020-05-31T09:23:04Z</time>
      </trkpt>
      <trkpt lat="48.62816" lon="2.00641">
        <ele>135</ele>
        <time>2020-05-31T09:23:05Z</time>
      </trkpt>
      <trkpt lat="48.62817" lon="2.00638">
        <ele>135</ele>
        <time>2020-05-31T09:23:06Z</time>
      </trkpt>
      <trkpt lat="48.62819" lon="2.00635">
        <ele>135</ele>
        <time>2020-05-31T09:23:07Z</time>
      </trkpt>
      <trkpt lat="48.62821" lon="2.00631">
        <ele>135</ele>
        <time>2020-05-31T09:23:08Z</time>
      </trkpt>
      <trkpt lat="48.62822" lon="2.00628">
        <ele>135</ele>
        <time>2020-05-31T09:23:09Z</time>
      </trkpt>
      <trkpt lat="48.62823" lon="2.00624">
        <ele>135</ele>
        <time>2020-05-31T09:23:10Z</time>
      </trkpt>
      <trkpt lat="48.62825" lon="2.0062">
        <ele>135</ele>
        <time>2020-05-31T09:23:11Z</time>
      </trkpt>
      <trkpt lat="48.62827" lon="2.00616">
        <ele>135</ele>
        <time>2020-05-31T09:23:12Z</time>
      </trkpt>
      <trkpt lat="48.62828" lon="2.00612">
        <ele>136</ele>
        <time>2020-05-31T09:23:13Z</time>
      </trkpt>
      <trkpt lat="48.6283" lon="2.00607">
        <ele>135</ele>
        <time>2020-05-31T09:23:14Z</time>
      </trkpt>
      <trkpt lat="48.62833" lon="2.00598">
        <ele>136</ele>
        <time>2020-05-31T09:23:16Z</time>
      </trkpt>
      <trkpt lat="48.62833" lon="2.00593">
        <ele>136</ele>
        <time>2020-05-31T09:23:17Z</time>
      </trkpt>
      <trkpt lat="48.62835" lon="2.00584">
        <ele>136</ele>
        <time>2020-05-31T09:23:19Z</time>
      </trkpt>
      <trkpt lat="48.62836" lon="2.0058">
        <ele>136</ele>
        <time>2020-05-31T09:23:20Z</time>
      </trkpt>
      <trkpt lat="48.62838" lon="2.00572">
        <ele>136</ele>
        <time>2020-05-31T09:23:22Z</time>
      </trkpt>
      <trkpt lat="48.62842" lon="2.00558">
        <ele>135</ele>
        <time>2020-05-31T09:23:25Z</time>
      </trkpt>
      <trkpt lat="48.62844" lon="2.00553">
        <ele>135</ele>
        <time>2020-05-31T09:23:26Z</time>
      </trkpt>
      <trkpt lat="48.62847" lon="2.00542">
        <ele>135</ele>
        <time>2020-05-31T09:23:28Z</time>
      </trkpt>
      <trkpt lat="48.62848" lon="2.00537">
        <ele>135</ele>
        <time>2020-05-31T09:23:29Z</time>
      </trkpt>
      <trkpt lat="48.62849" lon="2.00532">
        <ele>135</ele>
        <time>2020-05-31T09:23:30Z</time>
      </trkpt>
      <trkpt lat="48.62851" lon="2.00528">
        <ele>135</ele>
        <time>2020-05-31T09:23:31Z</time>
      </trkpt>
      <trkpt lat="48.62853" lon="2.00523">
        <ele>135</ele>
        <time>2020-05-31T09:23:32Z</time>
      </trkpt>
      <trkpt lat="48.62854" lon="2.0052">
        <ele>135</ele>
        <time>2020-05-31T09:23:33Z</time>
      </trkpt>
      <trkpt lat="48.62855" lon="2.00516">
        <ele>135</ele>
        <time>2020-05-31T09:23:34Z</time>
      </trkpt>
      <trkpt lat="48.62857" lon="2.00513">
        <ele>135</ele>
        <time>2020-05-31T09:23:35Z</time>
      </trkpt>
      <trkpt lat="48.62858" lon="2.00509">
        <ele>135</ele>
        <time>2020-05-31T09:23:36Z</time>
      </trkpt>
      <trkpt lat="48.6286" lon="2.00505">
        <ele>135</ele>
        <time>2020-05-31T09:23:37Z</time>
      </trkpt>
      <trkpt lat="48.62862" lon="2.00501">
        <ele>134</ele>
        <time>2020-05-31T09:23:38Z</time>
      </trkpt>
      <trkpt lat="48.62864" lon="2.00497">
        <ele>134</ele>
        <time>2020-05-31T09:23:39Z</time>
      </trkpt>
      <trkpt lat="48.62866" lon="2.00493">
        <ele>134</ele>
        <time>2020-05-31T09:23:40Z</time>
      </trkpt>
      <trkpt lat="48.62868" lon="2.00489">
        <ele>134</ele>
        <time>2020-05-31T09:23:41Z</time>
      </trkpt>
      <trkpt lat="48.6287" lon="2.00486">
        <ele>134</ele>
        <time>2020-05-31T09:23:42Z</time>
      </trkpt>
      <trkpt lat="48.62878" lon="2.00473">
        <ele>134</ele>
        <time>2020-05-31T09:23:45Z</time>
      </trkpt>
      <trkpt lat="48.6288" lon="2.00469">
        <ele>134</ele>
        <time>2020-05-31T09:23:46Z</time>
      </trkpt>
      <trkpt lat="48.62883" lon="2.00464">
        <ele>134</ele>
        <time>2020-05-31T09:23:47Z</time>
      </trkpt>
      <trkpt lat="48.62885" lon="2.0046">
        <ele>134</ele>
        <time>2020-05-31T09:23:48Z</time>
      </trkpt>
      <trkpt lat="48.62888" lon="2.00456">
        <ele>134</ele>
        <time>2020-05-31T09:23:49Z</time>
      </trkpt>
      <trkpt lat="48.62889" lon="2.00452">
        <ele>134</ele>
        <time>2020-05-31T09:23:50Z</time>
      </trkpt>
      <trkpt lat="48.62894" lon="2.00439">
        <ele>135</ele>
        <time>2020-05-31T09:23:53Z</time>
      </trkpt>
      <trkpt lat="48.62896" lon="2.00435">
        <ele>135</ele>
        <time>2020-05-31T09:23:54Z</time>
      </trkpt>
      <trkpt lat="48.62899" lon="2.00431">
        <ele>135</ele>
        <time>2020-05-31T09:23:55Z</time>
      </trkpt>
      <trkpt lat="48.629" lon="2.00427">
        <ele>135</ele>
        <time>2020-05-31T09:23:56Z</time>
      </trkpt>
      <trkpt lat="48.62902" lon="2.00424">
        <ele>135</ele>
        <time>2020-05-31T09:23:57Z</time>
      </trkpt>
      <trkpt lat="48.62904" lon="2.00421">
        <ele>135</ele>
        <time>2020-05-31T09:23:58Z</time>
      </trkpt>
      <trkpt lat="48.62906" lon="2.00418">
        <ele>135</ele>
        <time>2020-05-31T09:23:59Z</time>
      </trkpt>
      <trkpt lat="48.62907" lon="2.00415">
        <ele>135</ele>
        <time>2020-05-31T09:24:00Z</time>
      </trkpt>
      <trkpt lat="48.62913" lon="2.00408">
        <ele>136</ele>
        <time>2020-05-31T09:24:03Z</time>
      </trkpt>
      <trkpt lat="48.62915" lon="2.00406">
        <ele>136</ele>
        <time>2020-05-31T09:24:04Z</time>
      </trkpt>
      <trkpt lat="48.62917" lon="2.00404">
        <ele>136</ele>
        <time>2020-05-31T09:24:05Z</time>
      </trkpt>
      <trkpt lat="48.62918" lon="2.00402">
        <ele>136</ele>
        <time>2020-05-31T09:24:06Z</time>
      </trkpt>
      <trkpt lat="48.62921" lon="2.00399">
        <ele>136</ele>
        <time>2020-05-31T09:24:07Z</time>
      </trkpt>
      <trkpt lat="48.62923" lon="2.00396">
        <ele>137</ele>
        <time>2020-05-31T09:24:08Z</time>
      </trkpt>
      <trkpt lat="48.62926" lon="2.00393">
        <ele>137</ele>
        <time>2020-05-31T09:24:09Z</time>
      </trkpt>
      <trkpt lat="48.62928" lon="2.0039">
        <ele>137</ele>
        <time>2020-05-31T09:24:10Z</time>
      </trkpt>
      <trkpt lat="48.62931" lon="2.00387">
        <ele>137</ele>
        <time>2020-05-31T09:24:11Z</time>
      </trkpt>
      <trkpt lat="48.62933" lon="2.00384">
        <ele>138</ele>
        <time>2020-05-31T09:24:12Z</time>
      </trkpt>
      <trkpt lat="48.62936" lon="2.00382">
        <ele>137</ele>
        <time>2020-05-31T09:24:13Z</time>
      </trkpt>
      <trkpt lat="48.62939" lon="2.00379">
        <ele>137</ele>
        <time>2020-05-31T09:24:14Z</time>
      </trkpt>
      <trkpt lat="48.62942" lon="2.00377">
        <ele>137</ele>
        <time>2020-05-31T09:24:15Z</time>
      </trkpt>
      <trkpt lat="48.62944" lon="2.00374">
        <ele>138</ele>
        <time>2020-05-31T09:24:16Z</time>
      </trkpt>
      <trkpt lat="48.62947" lon="2.00373">
        <ele>138</ele>
        <time>2020-05-31T09:24:17Z</time>
      </trkpt>
      <trkpt lat="48.6295" lon="2.00371">
        <ele>138</ele>
        <time>2020-05-31T09:24:18Z</time>
      </trkpt>
      <trkpt lat="48.62953" lon="2.00368">
        <ele>138</ele>
        <time>2020-05-31T09:24:19Z</time>
      </trkpt>
      <trkpt lat="48.62957" lon="2.00364">
        <ele>138</ele>
        <time>2020-05-31T09:24:21Z</time>
      </trkpt>
      <trkpt lat="48.62959" lon="2.00361">
        <ele>138</ele>
        <time>2020-05-31T09:24:22Z</time>
      </trkpt>
      <trkpt lat="48.62963" lon="2.00357">
        <ele>138</ele>
        <time>2020-05-31T09:24:23Z</time>
      </trkpt>
      <trkpt lat="48.62965" lon="2.00354">
        <ele>139</ele>
        <time>2020-05-31T09:24:24Z</time>
      </trkpt>
      <trkpt lat="48.62967" lon="2.0035">
        <ele>139</ele>
        <time>2020-05-31T09:24:25Z</time>
      </trkpt>
      <trkpt lat="48.62969" lon="2.00347">
        <ele>139</ele>
        <time>2020-05-31T09:24:26Z</time>
      </trkpt>
      <trkpt lat="48.62971" lon="2.00344">
        <ele>138</ele>
        <time>2020-05-31T09:24:27Z</time>
      </trkpt>
      <trkpt lat="48.62974" lon="2.00341">
        <ele>138</ele>
        <time>2020-05-31T09:24:28Z</time>
      </trkpt>
      <trkpt lat="48.62976" lon="2.00338">
        <ele>138</ele>
        <time>2020-05-31T09:24:29Z</time>
      </trkpt>
      <trkpt lat="48.62977" lon="2.00335">
        <ele>138</ele>
        <time>2020-05-31T09:24:30Z</time>
      </trkpt>
      <trkpt lat="48.62979" lon="2.00332">
        <ele>138</ele>
        <time>2020-05-31T09:24:31Z</time>
      </trkpt>
      <trkpt lat="48.62981" lon="2.00329">
        <ele>138</ele>
        <time>2020-05-31T09:24:32Z</time>
      </trkpt>
      <trkpt lat="48.62983" lon="2.00327">
        <ele>138</ele>
        <time>2020-05-31T09:24:33Z</time>
      </trkpt>
      <trkpt lat="48.62985" lon="2.00324">
        <ele>138</ele>
        <time>2020-05-31T09:24:34Z</time>
      </trkpt>
      <trkpt lat="48.62987" lon="2.00321">
        <ele>138</ele>
        <time>2020-05-31T09:24:35Z</time>
      </trkpt>
      <trkpt lat="48.62995" lon="2.0031">
        <ele>138</ele>
        <time>2020-05-31T09:24:38Z</time>
      </trkpt>
      <trkpt lat="48.62997" lon="2.00307">
        <ele>138</ele>
        <time>2020-05-31T09:24:39Z</time>
      </trkpt>
      <trkpt lat="48.62998" lon="2.00304">
        <ele>138</ele>
        <time>2020-05-31T09:24:40Z</time>
      </trkpt>
      <trkpt lat="48.63" lon="2.00302">
        <ele>138</ele>
        <time>2020-05-31T09:24:41Z</time>
      </trkpt>
      <trkpt lat="48.63002" lon="2.00299">
        <ele>138</ele>
        <time>2020-05-31T09:24:42Z</time>
      </trkpt>
      <trkpt lat="48.63004" lon="2.00296">
        <ele>138</ele>
        <time>2020-05-31T09:24:43Z</time>
      </trkpt>
      <trkpt lat="48.63006" lon="2.00292">
        <ele>138</ele>
        <time>2020-05-31T09:24:44Z</time>
      </trkpt>
      <trkpt lat="48.63008" lon="2.00289">
        <ele>137</ele>
        <time>2020-05-31T09:24:45Z</time>
      </trkpt>
      <trkpt lat="48.63011" lon="2.00286">
        <ele>137</ele>
        <time>2020-05-31T09:24:46Z</time>
      </trkpt>
      <trkpt lat="48.63015" lon="2.00282">
        <ele>137</ele>
        <time>2020-05-31T09:24:47Z</time>
      </trkpt>
      <trkpt lat="48.63019" lon="2.00279">
        <ele>137</ele>
        <time>2020-05-31T09:24:48Z</time>
      </trkpt>
      <trkpt lat="48.63023" lon="2.00276">
        <ele>138</ele>
        <time>2020-05-31T09:24:49Z</time>
      </trkpt>
      <trkpt lat="48.63031" lon="2.0027">
        <ele>138</ele>
        <time>2020-05-31T09:24:52Z</time>
      </trkpt>
      <trkpt lat="48.63037" lon="2.00265">
        <ele>138</ele>
        <time>2020-05-31T09:24:55Z</time>
      </trkpt>
      <trkpt lat="48.63043" lon="2.00262">
        <ele>138</ele>
        <time>2020-05-31T09:24:58Z</time>
      </trkpt>
      <trkpt lat="48.63045" lon="2.00261">
        <ele>138</ele>
        <time>2020-05-31T09:24:59Z</time>
      </trkpt>
      <trkpt lat="48.63047" lon="2.0026">
        <ele>138</ele>
        <time>2020-05-31T09:25:00Z</time>
      </trkpt>
      <trkpt lat="48.6305" lon="2.00259">
        <ele>138</ele>
        <time>2020-05-31T09:25:01Z</time>
      </trkpt>
      <trkpt lat="48.63052" lon="2.00257">
        <ele>138</ele>
        <time>2020-05-31T09:25:02Z</time>
      </trkpt>
      <trkpt lat="48.63055" lon="2.00256">
        <ele>138</ele>
        <time>2020-05-31T09:25:04Z</time>
      </trkpt>
      <trkpt lat="48.63057" lon="2.00255">
        <ele>138</ele>
        <time>2020-05-31T09:25:05Z</time>
      </trkpt>
      <trkpt lat="48.6306" lon="2.00253">
        <ele>138</ele>
        <time>2020-05-31T09:25:07Z</time>
      </trkpt>
      <trkpt lat="48.63063" lon="2.0025">
        <ele>138</ele>
        <time>2020-05-31T09:25:09Z</time>
      </trkpt>
      <trkpt lat="48.63065" lon="2.00249">
        <ele>138</ele>
        <time>2020-05-31T09:25:10Z</time>
      </trkpt>
      <trkpt lat="48.63066" lon="2.00248">
        <ele>138</ele>
        <time>2020-05-31T09:25:11Z</time>
      </trkpt>
      <trkpt lat="48.63068" lon="2.00246">
        <ele>138</ele>
        <time>2020-05-31T09:25:12Z</time>
      </trkpt>
      <trkpt lat="48.6307" lon="2.00244">
        <ele>138</ele>
        <time>2020-05-31T09:25:13Z</time>
      </trkpt>
      <trkpt lat="48.63073" lon="2.00242">
        <ele>138</ele>
        <time>2020-05-31T09:25:14Z</time>
      </trkpt>
      <trkpt lat="48.63076" lon="2.0024">
        <ele>138</ele>
        <time>2020-05-31T09:25:15Z</time>
      </trkpt>
      <trkpt lat="48.63079" lon="2.00239">
        <ele>138</ele>
        <time>2020-05-31T09:25:16Z</time>
      </trkpt>
      <trkpt lat="48.63082" lon="2.00237">
        <ele>138</ele>
        <time>2020-05-31T09:25:17Z</time>
      </trkpt>
      <trkpt lat="48.63086" lon="2.00235">
        <ele>138</ele>
        <time>2020-05-31T09:25:18Z</time>
      </trkpt>
      <trkpt lat="48.63088" lon="2.00233">
        <ele>138</ele>
        <time>2020-05-31T09:25:19Z</time>
      </trkpt>
      <trkpt lat="48.63092" lon="2.00232">
        <ele>138</ele>
        <time>2020-05-31T09:25:20Z</time>
      </trkpt>
      <trkpt lat="48.63096" lon="2.0023">
        <ele>138</ele>
        <time>2020-05-31T09:25:21Z</time>
      </trkpt>
      <trkpt lat="48.631" lon="2.00229">
        <ele>138</ele>
        <time>2020-05-31T09:25:22Z</time>
      </trkpt>
      <trkpt lat="48.63104" lon="2.00227">
        <ele>138</ele>
        <time>2020-05-31T09:25:23Z</time>
      </trkpt>
      <trkpt lat="48.63108" lon="2.00225">
        <ele>138</ele>
        <time>2020-05-31T09:25:24Z</time>
      </trkpt>
      <trkpt lat="48.63117" lon="2.00221">
        <ele>138</ele>
        <time>2020-05-31T09:25:26Z</time>
      </trkpt>
      <trkpt lat="48.63126" lon="2.00217">
        <ele>137</ele>
        <time>2020-05-31T09:25:28Z</time>
      </trkpt>
      <trkpt lat="48.63138" lon="2.00215">
        <ele>137</ele>
        <time>2020-05-31T09:25:31Z</time>
      </trkpt>
      <trkpt lat="48.63149" lon="2.00215">
        <ele>136</ele>
        <time>2020-05-31T09:25:34Z</time>
      </trkpt>
      <trkpt lat="48.6316" lon="2.00213">
        <ele>136</ele>
        <time>2020-05-31T09:25:37Z</time>
      </trkpt>
      <trkpt lat="48.63172" lon="2.00209">
        <ele>136</ele>
        <time>2020-05-31T09:25:40Z</time>
      </trkpt>
      <trkpt lat="48.63183" lon="2.00208">
        <ele>136</ele>
        <time>2020-05-31T09:25:43Z</time>
      </trkpt>
      <trkpt lat="48.63192" lon="2.00207">
        <ele>136</ele>
        <time>2020-05-31T09:25:45Z</time>
      </trkpt>
      <trkpt lat="48.63201" lon="2.00206">
        <ele>136</ele>
        <time>2020-05-31T09:25:47Z</time>
      </trkpt>
      <trkpt lat="48.63215" lon="2.00204">
        <ele>136</ele>
        <time>2020-05-31T09:25:50Z</time>
      </trkpt>
      <trkpt lat="48.63225" lon="2.00201">
        <ele>135</ele>
        <time>2020-05-31T09:25:52Z</time>
      </trkpt>
      <trkpt lat="48.63235" lon="2.002">
        <ele>135</ele>
        <time>2020-05-31T09:25:54Z</time>
      </trkpt>
      <trkpt lat="48.63244" lon="2.002">
        <ele>135</ele>
        <time>2020-05-31T09:25:56Z</time>
      </trkpt>
      <trkpt lat="48.63257" lon="2.00198">
        <ele>135</ele>
        <time>2020-05-31T09:25:59Z</time>
      </trkpt>
      <trkpt lat="48.63268" lon="2.00195">
        <ele>134</ele>
        <time>2020-05-31T09:26:02Z</time>
      </trkpt>
      <trkpt lat="48.63282" lon="2.00192">
        <ele>134</ele>
        <time>2020-05-31T09:26:05Z</time>
      </trkpt>
      <trkpt lat="48.63291" lon="2.00191">
        <ele>134</ele>
        <time>2020-05-31T09:26:07Z</time>
      </trkpt>
      <trkpt lat="48.63301" lon="2.0019">
        <ele>134</ele>
        <time>2020-05-31T09:26:09Z</time>
      </trkpt>
      <trkpt lat="48.63313" lon="2.00189">
        <ele>135</ele>
        <time>2020-05-31T09:26:12Z</time>
      </trkpt>
      <trkpt lat="48.63323" lon="2.00187">
        <ele>135</ele>
        <time>2020-05-31T09:26:14Z</time>
      </trkpt>
      <trkpt lat="48.63335" lon="2.00185">
        <ele>136</ele>
        <time>2020-05-31T09:26:16Z</time>
      </trkpt>
      <trkpt lat="48.63346" lon="2.00183">
        <ele>136</ele>
        <time>2020-05-31T09:26:18Z</time>
      </trkpt>
      <trkpt lat="48.63356" lon="2.00181">
        <ele>136</ele>
        <time>2020-05-31T09:26:20Z</time>
      </trkpt>
      <trkpt lat="48.63366" lon="2.00179">
        <ele>136</ele>
        <time>2020-05-31T09:26:22Z</time>
      </trkpt>
      <trkpt lat="48.63377" lon="2.00176">
        <ele>136</ele>
        <time>2020-05-31T09:26:24Z</time>
      </trkpt>
      <trkpt lat="48.63386" lon="2.00173">
        <ele>136</ele>
        <time>2020-05-31T09:26:26Z</time>
      </trkpt>
      <trkpt lat="48.63399" lon="2.00168">
        <ele>136</ele>
        <time>2020-05-31T09:26:29Z</time>
      </trkpt>
      <trkpt lat="48.63412" lon="2.00161">
        <ele>136</ele>
        <time>2020-05-31T09:26:32Z</time>
      </trkpt>
      <trkpt lat="48.6342" lon="2.00156">
        <ele>137</ele>
        <time>2020-05-31T09:26:34Z</time>
      </trkpt>
      <trkpt lat="48.63432" lon="2.0015">
        <ele>138</ele>
        <time>2020-05-31T09:26:37Z</time>
      </trkpt>
      <trkpt lat="48.63443" lon="2.00146">
        <ele>139</ele>
        <time>2020-05-31T09:26:40Z</time>
      </trkpt>
      <trkpt lat="48.63452" lon="2.00145">
        <ele>139</ele>
        <time>2020-05-31T09:26:42Z</time>
      </trkpt>
      <trkpt lat="48.63464" lon="2.00146">
        <ele>139</ele>
        <time>2020-05-31T09:26:45Z</time>
      </trkpt>
      <trkpt lat="48.63474" lon="2.00149">
        <ele>140</ele>
        <time>2020-05-31T09:26:48Z</time>
      </trkpt>
      <trkpt lat="48.63485" lon="2.00153">
        <ele>140</ele>
        <time>2020-05-31T09:26:51Z</time>
      </trkpt>
      <trkpt lat="48.63494" lon="2.00157">
        <ele>140</ele>
        <time>2020-05-31T09:26:54Z</time>
      </trkpt>
      <trkpt lat="48.63507" lon="2.00157">
        <ele>140</ele>
        <time>2020-05-31T09:26:59Z</time>
      </trkpt>
      <trkpt lat="48.63517" lon="2.00153">
        <ele>141</ele>
        <time>2020-05-31T09:27:02Z</time>
      </trkpt>
      <trkpt lat="48.63527" lon="2.00146">
        <ele>142</ele>
        <time>2020-05-31T09:27:05Z</time>
      </trkpt>
      <trkpt lat="48.63536" lon="2.00138">
        <ele>142</ele>
        <time>2020-05-31T09:27:10Z</time>
      </trkpt>
      <trkpt lat="48.63539" lon="2.00136">
        <ele>142</ele>
        <time>2020-05-31T09:27:12Z</time>
      </trkpt>
      <trkpt lat="48.63541" lon="2.00136">
        <ele>142</ele>
        <time>2020-05-31T09:27:13Z</time>
      </trkpt>
      <trkpt lat="48.63544" lon="2.00134">
        <ele>142</ele>
        <time>2020-05-31T09:27:15Z</time>
      </trkpt>
      <trkpt lat="48.63547" lon="2.00132">
        <ele>142</ele>
        <time>2020-05-31T09:27:17Z</time>
      </trkpt>
      <trkpt lat="48.6355" lon="2.0013">
        <ele>142</ele>
        <time>2020-05-31T09:27:19Z</time>
      </trkpt>
      <trkpt lat="48.63553" lon="2.00128">
        <ele>142</ele>
        <time>2020-05-31T09:27:21Z</time>
      </trkpt>
      <trkpt lat="48.63555" lon="2.00127">
        <ele>142</ele>
        <time>2020-05-31T09:27:23Z</time>
      </trkpt>
      <trkpt lat="48.63557" lon="2.00128">
        <ele>142</ele>
        <time>2020-05-31T09:27:25Z</time>
      </trkpt>
      <trkpt lat="48.6356" lon="2.00129">
        <ele>141</ele>
        <time>2020-05-31T09:27:27Z</time>
      </trkpt>
      <trkpt lat="48.63563" lon="2.00128">
        <ele>142</ele>
        <time>2020-05-31T09:27:29Z</time>
      </trkpt>
      <trkpt lat="48.63566" lon="2.00127">
        <ele>142</ele>
        <time>2020-05-31T09:27:31Z</time>
      </trkpt>
      <trkpt lat="48.63568" lon="2.00126">
        <ele>142</ele>
        <time>2020-05-31T09:27:33Z</time>
      </trkpt>
      <trkpt lat="48.63571" lon="2.00125">
        <ele>142</ele>
        <time>2020-05-31T09:27:35Z</time>
      </trkpt>
      <trkpt lat="48.63574" lon="2.00124">
        <ele>142</ele>
        <time>2020-05-31T09:27:37Z</time>
      </trkpt>
      <trkpt lat="48.63576" lon="2.00124">
        <ele>142</ele>
        <time>2020-05-31T09:27:39Z</time>
      </trkpt>
      <trkpt lat="48.63579" lon="2.00123">
        <ele>143</ele>
        <time>2020-05-31T09:27:41Z</time>
      </trkpt>
      <trkpt lat="48.63581" lon="2.00123">
        <ele>143</ele>
        <time>2020-05-31T09:27:43Z</time>
      </trkpt>
      <trkpt lat="48.63584" lon="2.00122">
        <ele>143</ele>
        <time>2020-05-31T09:27:45Z</time>
      </trkpt>
      <trkpt lat="48.63587" lon="2.00121">
        <ele>143</ele>
        <time>2020-05-31T09:27:47Z</time>
      </trkpt>
      <trkpt lat="48.63589" lon="2.00119">
        <ele>143</ele>
        <time>2020-05-31T09:27:49Z</time>
      </trkpt>
      <trkpt lat="48.6359" lon="2.00115">
        <ele>143</ele>
        <time>2020-05-31T09:27:51Z</time>
      </trkpt>
      <trkpt lat="48.63591" lon="2.00112">
        <ele>143</ele>
        <time>2020-05-31T09:27:53Z</time>
      </trkpt>
      <trkpt lat="48.6359" lon="2.00109">
        <ele>143</ele>
        <time>2020-05-31T09:27:57Z</time>
      </trkpt>
      <trkpt lat="48.63589" lon="2.00107">
        <ele>143</ele>
        <time>2020-05-31T09:27:59Z</time>
      </trkpt>
      <trkpt lat="48.63579" lon="2.001">
        <ele>143</ele>
        <time>2020-05-31T09:28:09Z</time>
      </trkpt>
      <trkpt lat="48.63571" lon="2.00094">
        <ele>144</ele>
        <time>2020-05-31T09:28:15Z</time>
      </trkpt>
      <trkpt lat="48.63562" lon="2.00092">
        <ele>144</ele>
        <time>2020-05-31T09:28:19Z</time>
      </trkpt>
      <trkpt lat="48.63557" lon="2.0009">
        <ele>143</ele>
        <time>2020-05-31T09:28:21Z</time>
      </trkpt>
      <trkpt lat="48.63556" lon="2.00089">
        <ele>143</ele>
        <time>2020-05-31T09:28:22Z</time>
      </trkpt>
      <trkpt lat="48.63553" lon="2.00088">
        <ele>142</ele>
        <time>2020-05-31T09:28:23Z</time>
      </trkpt>
      <trkpt lat="48.63551" lon="2.00087">
        <ele>142</ele>
        <time>2020-05-31T09:28:24Z</time>
      </trkpt>
      <trkpt lat="48.63548" lon="2.00084">
        <ele>142</ele>
        <time>2020-05-31T09:28:26Z</time>
      </trkpt>
      <trkpt lat="48.63546" lon="2.00083">
        <ele>141</ele>
        <time>2020-05-31T09:28:27Z</time>
      </trkpt>
      <trkpt lat="48.63544" lon="2.00083">
        <ele>141</ele>
        <time>2020-05-31T09:28:28Z</time>
      </trkpt>
      <trkpt lat="48.63541" lon="2.00082">
        <ele>141</ele>
        <time>2020-05-31T09:28:30Z</time>
      </trkpt>
      <trkpt lat="48.63538" lon="2.0008">
        <ele>141</ele>
        <time>2020-05-31T09:28:32Z</time>
      </trkpt>
      <trkpt lat="48.63536" lon="2.00079">
        <ele>141</ele>
        <time>2020-05-31T09:28:34Z</time>
      </trkpt>
      <trkpt lat="48.63534" lon="2.00078">
        <ele>141</ele>
        <time>2020-05-31T09:28:36Z</time>
      </trkpt>
      <trkpt lat="48.63531" lon="2.00077">
        <ele>141</ele>
        <time>2020-05-31T09:28:38Z</time>
      </trkpt>
      <trkpt lat="48.6353" lon="2.00075">
        <ele>140</ele>
        <time>2020-05-31T09:28:40Z</time>
      </trkpt>
      <trkpt lat="48.63528" lon="2.00075">
        <ele>140</ele>
        <time>2020-05-31T09:28:42Z</time>
      </trkpt>
      <trkpt lat="48.63525" lon="2.00075">
        <ele>140</ele>
        <time>2020-05-31T09:28:44Z</time>
      </trkpt>
      <trkpt lat="48.63521" lon="2.00074">
        <ele>139</ele>
        <time>2020-05-31T09:28:46Z</time>
      </trkpt>
      <trkpt lat="48.63518" lon="2.00072">
        <ele>139</ele>
        <time>2020-05-31T09:28:48Z</time>
      </trkpt>
      <trkpt lat="48.63516" lon="2.0007">
        <ele>139</ele>
        <time>2020-05-31T09:28:50Z</time>
      </trkpt>
      <trkpt lat="48.63513" lon="2.00067">
        <ele>138</ele>
        <time>2020-05-31T09:28:52Z</time>
      </trkpt>
      <trkpt lat="48.6351" lon="2.00065">
        <ele>138</ele>
        <time>2020-05-31T09:28:54Z</time>
      </trkpt>
      <trkpt lat="48.63507" lon="2.00064">
        <ele>138</ele>
        <time>2020-05-31T09:28:56Z</time>
      </trkpt>
      <trkpt lat="48.63505" lon="2.00062">
        <ele>138</ele>
        <time>2020-05-31T09:28:58Z</time>
      </trkpt>
      <trkpt lat="48.63502" lon="2.0006">
        <ele>137</ele>
        <time>2020-05-31T09:29:00Z</time>
      </trkpt>
      <trkpt lat="48.63499" lon="2.00058">
        <ele>137</ele>
        <time>2020-05-31T09:29:02Z</time>
      </trkpt>
      <trkpt lat="48.63496" lon="2.00057">
        <ele>136</ele>
        <time>2020-05-31T09:29:03Z</time>
      </trkpt>
      <trkpt lat="48.63495" lon="2.00056">
        <ele>136</ele>
        <time>2020-05-31T09:29:04Z</time>
      </trkpt>
      <trkpt lat="48.63493" lon="2.00055">
        <ele>136</ele>
        <time>2020-05-31T09:29:05Z</time>
      </trkpt>
      <trkpt lat="48.6349" lon="2.00053">
        <ele>136</ele>
        <time>2020-05-31T09:29:07Z</time>
      </trkpt>
      <trkpt lat="48.63486" lon="2.00053">
        <ele>136</ele>
        <time>2020-05-31T09:29:09Z</time>
      </trkpt>
      <trkpt lat="48.63483" lon="2.00052">
        <ele>136</ele>
        <time>2020-05-31T09:29:11Z</time>
      </trkpt>
      <trkpt lat="48.63479" lon="2.00052">
        <ele>136</ele>
        <time>2020-05-31T09:29:13Z</time>
      </trkpt>
      <trkpt lat="48.63475" lon="2.00051">
        <ele>136</ele>
        <time>2020-05-31T09:29:15Z</time>
      </trkpt>
      <trkpt lat="48.63472" lon="2.0005">
        <ele>136</ele>
        <time>2020-05-31T09:29:17Z</time>
      </trkpt>
      <trkpt lat="48.63469" lon="2.00049">
        <ele>136</ele>
        <time>2020-05-31T09:29:19Z</time>
      </trkpt>
      <trkpt lat="48.63461" lon="2.00047">
        <ele>135</ele>
        <time>2020-05-31T09:29:24Z</time>
      </trkpt>
      <trkpt lat="48.63455" lon="2.00047">
        <ele>135</ele>
        <time>2020-05-31T09:29:27Z</time>
      </trkpt>
      <trkpt lat="48.63453" lon="2.00047">
        <ele>135</ele>
        <time>2020-05-31T09:29:28Z</time>
      </trkpt>
      <trkpt lat="48.63443" lon="2.00045">
        <ele>134</ele>
        <time>2020-05-31T09:29:33Z</time>
      </trkpt>
      <trkpt lat="48.63433" lon="2.00041">
        <ele>134</ele>
        <time>2020-05-31T09:29:39Z</time>
      </trkpt>
      <trkpt lat="48.63429" lon="2.00038">
        <ele>134</ele>
        <time>2020-05-31T09:29:43Z</time>
      </trkpt>
      <trkpt lat="48.63427" lon="2.00038">
        <ele>135</ele>
        <time>2020-05-31T09:29:44Z</time>
      </trkpt>
      <trkpt lat="48.63421" lon="2.00038">
        <ele>135</ele>
        <time>2020-05-31T09:29:47Z</time>
      </trkpt>
      <trkpt lat="48.63419" lon="2.00037">
        <ele>135</ele>
        <time>2020-05-31T09:29:48Z</time>
      </trkpt>
      <trkpt lat="48.63417" lon="2.00035">
        <ele>135</ele>
        <time>2020-05-31T09:29:50Z</time>
      </trkpt>
      <trkpt lat="48.63413" lon="2.00035">
        <ele>135</ele>
        <time>2020-05-31T09:29:52Z</time>
      </trkpt>
      <trkpt lat="48.6341" lon="2.00035">
        <ele>135</ele>
        <time>2020-05-31T09:29:54Z</time>
      </trkpt>
      <trkpt lat="48.63407" lon="2.00035">
        <ele>135</ele>
        <time>2020-05-31T09:29:56Z</time>
      </trkpt>
      <trkpt lat="48.63405" lon="2.00034">
        <ele>135</ele>
        <time>2020-05-31T09:29:57Z</time>
      </trkpt>
      <trkpt lat="48.63403" lon="2.00031">
        <ele>135</ele>
        <time>2020-05-31T09:29:59Z</time>
      </trkpt>
      <trkpt lat="48.634" lon="2.0003">
        <ele>135</ele>
        <time>2020-05-31T09:30:01Z</time>
      </trkpt>
      <trkpt lat="48.63397" lon="2.00029">
        <ele>135</ele>
        <time>2020-05-31T09:30:03Z</time>
      </trkpt>
      <trkpt lat="48.63393" lon="2.00027">
        <ele>135</ele>
        <time>2020-05-31T09:30:05Z</time>
      </trkpt>
      <trkpt lat="48.63391" lon="2.00026">
        <ele>135</ele>
        <time>2020-05-31T09:30:07Z</time>
      </trkpt>
      <trkpt lat="48.63387" lon="2.00025">
        <ele>134</ele>
        <time>2020-05-31T09:30:09Z</time>
      </trkpt>
      <trkpt lat="48.63384" lon="2.00024">
        <ele>134</ele>
        <time>2020-05-31T09:30:11Z</time>
      </trkpt>
      <trkpt lat="48.63381" lon="2.00022">
        <ele>134</ele>
        <time>2020-05-31T09:30:13Z</time>
      </trkpt>
      <trkpt lat="48.63379" lon="2.00021">
        <ele>134</ele>
        <time>2020-05-31T09:30:15Z</time>
      </trkpt>
      <trkpt lat="48.63376" lon="2.00019">
        <ele>134</ele>
        <time>2020-05-31T09:30:17Z</time>
      </trkpt>
      <trkpt lat="48.63374" lon="2.00018">
        <ele>134</ele>
        <time>2020-05-31T09:30:19Z</time>
      </trkpt>
      <trkpt lat="48.63371" lon="2.00016">
        <ele>134</ele>
        <time>2020-05-31T09:30:21Z</time>
      </trkpt>
      <trkpt lat="48.63368" lon="2.00013">
        <ele>133</ele>
        <time>2020-05-31T09:30:23Z</time>
      </trkpt>
      <trkpt lat="48.63365" lon="2.0001">
        <ele>133</ele>
        <time>2020-05-31T09:30:25Z</time>
      </trkpt>
      <trkpt lat="48.63362" lon="2.00009">
        <ele>133</ele>
        <time>2020-05-31T09:30:27Z</time>
      </trkpt>
      <trkpt lat="48.63359" lon="2.00008">
        <ele>133</ele>
        <time>2020-05-31T09:30:29Z</time>
      </trkpt>
      <trkpt lat="48.63356" lon="2.00007">
        <ele>133</ele>
        <time>2020-05-31T09:30:31Z</time>
      </trkpt>
      <trkpt lat="48.63353" lon="2.00007">
        <ele>133</ele>
        <time>2020-05-31T09:30:33Z</time>
      </trkpt>
      <trkpt lat="48.6335" lon="2.00006">
        <ele>132</ele>
        <time>2020-05-31T09:30:35Z</time>
      </trkpt>
      <trkpt lat="48.63347" lon="2.00005">
        <ele>132</ele>
        <time>2020-05-31T09:30:37Z</time>
      </trkpt>
      <trkpt lat="48.63343" lon="2.00005">
        <ele>132</ele>
        <time>2020-05-31T09:30:39Z</time>
      </trkpt>
      <trkpt lat="48.63341" lon="2.00005">
        <ele>132</ele>
        <time>2020-05-31T09:30:40Z</time>
      </trkpt>
      <trkpt lat="48.63339" lon="2.00005">
        <ele>132</ele>
        <time>2020-05-31T09:30:41Z</time>
      </trkpt>
      <trkpt lat="48.63337" lon="2.00005">
        <ele>132</ele>
        <time>2020-05-31T09:30:42Z</time>
      </trkpt>
      <trkpt lat="48.63334" lon="2.00005">
        <ele>132</ele>
        <time>2020-05-31T09:30:44Z</time>
      </trkpt>
      <trkpt lat="48.63332" lon="2.00005">
        <ele>132</ele>
        <time>2020-05-31T09:30:45Z</time>
      </trkpt>
      <trkpt lat="48.63329" lon="2.00004">
        <ele>131</ele>
        <time>2020-05-31T09:30:47Z</time>
      </trkpt>
      <trkpt lat="48.63326" lon="2.00003">
        <ele>132</ele>
        <time>2020-05-31T09:30:49Z</time>
      </trkpt>
      <trkpt lat="48.63325" lon="2.00001">
        <ele>132</ele>
        <time>2020-05-31T09:30:51Z</time>
      </trkpt>
      <trkpt lat="48.63324" lon="1.99997">
        <ele>132</ele>
        <time>2020-05-31T09:30:53Z</time>
      </trkpt>
      <trkpt lat="48.63325" lon="1.99992">
        <ele>132</ele>
        <time>2020-05-31T09:30:55Z</time>
      </trkpt>
      <trkpt lat="48.63325" lon="1.99987">
        <ele>132</ele>
        <time>2020-05-31T09:30:57Z</time>
      </trkpt>
      <trkpt lat="48.63326" lon="1.99982">
        <ele>132</ele>
        <time>2020-05-31T09:30:59Z</time>
      </trkpt>
      <trkpt lat="48.63325" lon="1.99977">
        <ele>132</ele>
        <time>2020-05-31T09:31:01Z</time>
      </trkpt>
      <trkpt lat="48.63326" lon="1.99972">
        <ele>132</ele>
        <time>2020-05-31T09:31:03Z</time>
      </trkpt>
      <trkpt lat="48.63326" lon="1.99968">
        <ele>132</ele>
        <time>2020-05-31T09:31:05Z</time>
      </trkpt>
      <trkpt lat="48.63326" lon="1.99962">
        <ele>132</ele>
        <time>2020-05-31T09:31:07Z</time>
      </trkpt>
      <trkpt lat="48.63326" lon="1.9996">
        <ele>133</ele>
        <time>2020-05-31T09:31:08Z</time>
      </trkpt>
      <trkpt lat="48.63327" lon="1.99954">
        <ele>133</ele>
        <time>2020-05-31T09:31:10Z</time>
      </trkpt>
      <trkpt lat="48.63327" lon="1.99949">
        <ele>133</ele>
        <time>2020-05-31T09:31:12Z</time>
      </trkpt>
      <trkpt lat="48.63327" lon="1.99946">
        <ele>133</ele>
        <time>2020-05-31T09:31:13Z</time>
      </trkpt>
      <trkpt lat="48.63328" lon="1.99941">
        <ele>133</ele>
        <time>2020-05-31T09:31:15Z</time>
      </trkpt>
      <trkpt lat="48.63328" lon="1.99937">
        <ele>134</ele>
        <time>2020-05-31T09:31:17Z</time>
      </trkpt>
      <trkpt lat="48.63328" lon="1.99932">
        <ele>134</ele>
        <time>2020-05-31T09:31:19Z</time>
      </trkpt>
      <trkpt lat="48.63328" lon="1.99928">
        <ele>134</ele>
        <time>2020-05-31T09:31:21Z</time>
      </trkpt>
      <trkpt lat="48.63328" lon="1.99923">
        <ele>135</ele>
        <time>2020-05-31T09:31:23Z</time>
      </trkpt>
      <trkpt lat="48.63328" lon="1.99918">
        <ele>135</ele>
        <time>2020-05-31T09:31:25Z</time>
      </trkpt>
      <trkpt lat="48.63328" lon="1.99914">
        <ele>135</ele>
        <time>2020-05-31T09:31:27Z</time>
      </trkpt>
      <trkpt lat="48.63328" lon="1.99909">
        <ele>135</ele>
        <time>2020-05-31T09:31:29Z</time>
      </trkpt>
      <trkpt lat="48.63329" lon="1.99904">
        <ele>135</ele>
        <time>2020-05-31T09:31:31Z</time>
      </trkpt>
      <trkpt lat="48.63329" lon="1.99899">
        <ele>136</ele>
        <time>2020-05-31T09:31:33Z</time>
      </trkpt>
      <trkpt lat="48.63329" lon="1.99895">
        <ele>136</ele>
        <time>2020-05-31T09:31:35Z</time>
      </trkpt>
      <trkpt lat="48.63329" lon="1.9989">
        <ele>136</ele>
        <time>2020-05-31T09:31:37Z</time>
      </trkpt>
      <trkpt lat="48.63329" lon="1.99886">
        <ele>137</ele>
        <time>2020-05-31T09:31:39Z</time>
      </trkpt>
      <trkpt lat="48.6333" lon="1.99882">
        <ele>137</ele>
        <time>2020-05-31T09:31:41Z</time>
      </trkpt>
      <trkpt lat="48.6333" lon="1.99877">
        <ele>137</ele>
        <time>2020-05-31T09:31:43Z</time>
      </trkpt>
      <trkpt lat="48.6333" lon="1.99872">
        <ele>138</ele>
        <time>2020-05-31T09:31:45Z</time>
      </trkpt>
      <trkpt lat="48.6333" lon="1.99867">
        <ele>138</ele>
        <time>2020-05-31T09:31:47Z</time>
      </trkpt>
      <trkpt lat="48.63331" lon="1.99862">
        <ele>138</ele>
        <time>2020-05-31T09:31:49Z</time>
      </trkpt>
      <trkpt lat="48.63331" lon="1.99858">
        <ele>139</ele>
        <time>2020-05-31T09:31:51Z</time>
      </trkpt>
      <trkpt lat="48.63331" lon="1.99853">
        <ele>139</ele>
        <time>2020-05-31T09:31:53Z</time>
      </trkpt>
      <trkpt lat="48.63331" lon="1.99849">
        <ele>139</ele>
        <time>2020-05-31T09:31:55Z</time>
      </trkpt>
      <trkpt lat="48.63332" lon="1.99845">
        <ele>140</ele>
        <time>2020-05-31T09:31:57Z</time>
      </trkpt>
      <trkpt lat="48.63332" lon="1.9984">
        <ele>140</ele>
        <time>2020-05-31T09:31:59Z</time>
      </trkpt>
      <trkpt lat="48.63332" lon="1.99836">
        <ele>140</ele>
        <time>2020-05-31T09:32:01Z</time>
      </trkpt>
      <trkpt lat="48.63332" lon="1.99831">
        <ele>141</ele>
        <time>2020-05-31T09:32:03Z</time>
      </trkpt>
      <trkpt lat="48.63333" lon="1.99826">
        <ele>141</ele>
        <time>2020-05-31T09:32:05Z</time>
      </trkpt>
      <trkpt lat="48.63332" lon="1.99821">
        <ele>142</ele>
        <time>2020-05-31T09:32:07Z</time>
      </trkpt>
      <trkpt lat="48.63333" lon="1.99817">
        <ele>142</ele>
        <time>2020-05-31T09:32:09Z</time>
      </trkpt>
      <trkpt lat="48.63332" lon="1.99812">
        <ele>142</ele>
        <time>2020-05-31T09:32:11Z</time>
      </trkpt>
      <trkpt lat="48.63332" lon="1.99808">
        <ele>142</ele>
        <time>2020-05-31T09:32:13Z</time>
      </trkpt>
      <trkpt lat="48.63332" lon="1.99804">
        <ele>142</ele>
        <time>2020-05-31T09:32:15Z</time>
      </trkpt>
      <trkpt lat="48.63333" lon="1.998">
        <ele>142</ele>
        <time>2020-05-31T09:32:17Z</time>
      </trkpt>
      <trkpt lat="48.63334" lon="1.99796">
        <ele>143</ele>
        <time>2020-05-31T09:32:19Z</time>
      </trkpt>
      <trkpt lat="48.63334" lon="1.99792">
        <ele>143</ele>
        <time>2020-05-31T09:32:21Z</time>
      </trkpt>
      <trkpt lat="48.63333" lon="1.99787">
        <ele>143</ele>
        <time>2020-05-31T09:32:23Z</time>
      </trkpt>
      <trkpt lat="48.63334" lon="1.99783">
        <ele>143</ele>
        <time>2020-05-31T09:32:25Z</time>
      </trkpt>
      <trkpt lat="48.63334" lon="1.9978">
        <ele>143</ele>
        <time>2020-05-31T09:32:27Z</time>
      </trkpt>
      <trkpt lat="48.63334" lon="1.99775">
        <ele>143</ele>
        <time>2020-05-31T09:32:29Z</time>
      </trkpt>
      <trkpt lat="48.63334" lon="1.99772">
        <ele>143</ele>
        <time>2020-05-31T09:32:31Z</time>
      </trkpt>
      <trkpt lat="48.63333" lon="1.99768">
        <ele>144</ele>
        <time>2020-05-31T09:32:33Z</time>
      </trkpt>
      <trkpt lat="48.63333" lon="1.99765">
        <ele>144</ele>
        <time>2020-05-31T09:32:35Z</time>
      </trkpt>
      <trkpt lat="48.63332" lon="1.99761">
        <ele>144</ele>
        <time>2020-05-31T09:32:38Z</time>
      </trkpt>
      <trkpt lat="48.63332" lon="1.99758">
        <ele>144</ele>
        <time>2020-05-31T09:32:40Z</time>
      </trkpt>
      <trkpt lat="48.6333" lon="1.99755">
        <ele>145</ele>
        <time>2020-05-31T09:32:42Z</time>
      </trkpt>
      <trkpt lat="48.6333" lon="1.9975">
        <ele>145</ele>
        <time>2020-05-31T09:32:44Z</time>
      </trkpt>
      <trkpt lat="48.63329" lon="1.99747">
        <ele>145</ele>
        <time>2020-05-31T09:32:46Z</time>
      </trkpt>
      <trkpt lat="48.63329" lon="1.9974">
        <ele>146</ele>
        <time>2020-05-31T09:32:49Z</time>
      </trkpt>
      <trkpt lat="48.6333" lon="1.99737">
        <ele>146</ele>
        <time>2020-05-31T09:32:50Z</time>
      </trkpt>
      <trkpt lat="48.63331" lon="1.99732">
        <ele>146</ele>
        <time>2020-05-31T09:32:52Z</time>
      </trkpt>
      <trkpt lat="48.63331" lon="1.9973">
        <ele>146</ele>
        <time>2020-05-31T09:32:53Z</time>
      </trkpt>
      <trkpt lat="48.63331" lon="1.99727">
        <ele>146</ele>
        <time>2020-05-31T09:32:54Z</time>
      </trkpt>
      <trkpt lat="48.63332" lon="1.99722">
        <ele>146</ele>
        <time>2020-05-31T09:32:56Z</time>
      </trkpt>
      <trkpt lat="48.63333" lon="1.99718">
        <ele>147</ele>
        <time>2020-05-31T09:32:58Z</time>
      </trkpt>
      <trkpt lat="48.63334" lon="1.99713">
        <ele>147</ele>
        <time>2020-05-31T09:33:00Z</time>
      </trkpt>
      <trkpt lat="48.63336" lon="1.9971">
        <ele>147</ele>
        <time>2020-05-31T09:33:02Z</time>
      </trkpt>
      <trkpt lat="48.63339" lon="1.99709">
        <ele>147</ele>
        <time>2020-05-31T09:33:04Z</time>
      </trkpt>
      <trkpt lat="48.63341" lon="1.99708">
        <ele>147</ele>
        <time>2020-05-31T09:33:06Z</time>
      </trkpt>
      <trkpt lat="48.63343" lon="1.99705">
        <ele>147</ele>
        <time>2020-05-31T09:33:08Z</time>
      </trkpt>
      <trkpt lat="48.63343" lon="1.99702">
        <ele>147</ele>
        <time>2020-05-31T09:33:10Z</time>
      </trkpt>
      <trkpt lat="48.63342" lon="1.99698">
        <ele>147</ele>
        <time>2020-05-31T09:33:12Z</time>
      </trkpt>
      <trkpt lat="48.63342" lon="1.99696">
        <ele>147</ele>
        <time>2020-05-31T09:33:14Z</time>
      </trkpt>
      <trkpt lat="48.63342" lon="1.99692">
        <ele>147</ele>
        <time>2020-05-31T09:33:16Z</time>
      </trkpt>
      <trkpt lat="48.63342" lon="1.99689">
        <ele>148</ele>
        <time>2020-05-31T09:33:18Z</time>
      </trkpt>
      <trkpt lat="48.63343" lon="1.99685">
        <ele>148</ele>
        <time>2020-05-31T09:33:20Z</time>
      </trkpt>
      <trkpt lat="48.63343" lon="1.99681">
        <ele>148</ele>
        <time>2020-05-31T09:33:22Z</time>
      </trkpt>
      <trkpt lat="48.63344" lon="1.99677">
        <ele>148</ele>
        <time>2020-05-31T09:33:24Z</time>
      </trkpt>
      <trkpt lat="48.63344" lon="1.99673">
        <ele>148</ele>
        <time>2020-05-31T09:33:26Z</time>
      </trkpt>
      <trkpt lat="48.63344" lon="1.9967">
        <ele>148</ele>
        <time>2020-05-31T09:33:28Z</time>
      </trkpt>
      <trkpt lat="48.63345" lon="1.99666">
        <ele>149</ele>
        <time>2020-05-31T09:33:30Z</time>
      </trkpt>
      <trkpt lat="48.63345" lon="1.99662">
        <ele>149</ele>
        <time>2020-05-31T09:33:32Z</time>
      </trkpt>
      <trkpt lat="48.63344" lon="1.99658">
        <ele>149</ele>
        <time>2020-05-31T09:33:34Z</time>
      </trkpt>
      <trkpt lat="48.63344" lon="1.99654">
        <ele>149</ele>
        <time>2020-05-31T09:33:36Z</time>
      </trkpt>
      <trkpt lat="48.63345" lon="1.99649">
        <ele>149</ele>
        <time>2020-05-31T09:33:38Z</time>
      </trkpt>
      <trkpt lat="48.63344" lon="1.99646">
        <ele>149</ele>
        <time>2020-05-31T09:33:40Z</time>
      </trkpt>
      <trkpt lat="48.63345" lon="1.99642">
        <ele>149</ele>
        <time>2020-05-31T09:33:42Z</time>
      </trkpt>
      <trkpt lat="48.63345" lon="1.99638">
        <ele>149</ele>
        <time>2020-05-31T09:33:44Z</time>
      </trkpt>
      <trkpt lat="48.63345" lon="1.99634">
        <ele>149</ele>
        <time>2020-05-31T09:33:46Z</time>
      </trkpt>
      <trkpt lat="48.63346" lon="1.99629">
        <ele>150</ele>
        <time>2020-05-31T09:33:48Z</time>
      </trkpt>
      <trkpt lat="48.63348" lon="1.99625">
        <ele>150</ele>
        <time>2020-05-31T09:33:50Z</time>
      </trkpt>
      <trkpt lat="48.63349" lon="1.99621">
        <ele>150</ele>
        <time>2020-05-31T09:33:52Z</time>
      </trkpt>
      <trkpt lat="48.6335" lon="1.99618">
        <ele>150</ele>
        <time>2020-05-31T09:33:54Z</time>
      </trkpt>
      <trkpt lat="48.63349" lon="1.99614">
        <ele>150</ele>
        <time>2020-05-31T09:33:56Z</time>
      </trkpt>
      <trkpt lat="48.63348" lon="1.9961">
        <ele>151</ele>
        <time>2020-05-31T09:33:58Z</time>
      </trkpt>
      <trkpt lat="48.63346" lon="1.99607">
        <ele>151</ele>
        <time>2020-05-31T09:34:00Z</time>
      </trkpt>
      <trkpt lat="48.63345" lon="1.99604">
        <ele>151</ele>
        <time>2020-05-31T09:34:02Z</time>
      </trkpt>
      <trkpt lat="48.63342" lon="1.99602">
        <ele>151</ele>
        <time>2020-05-31T09:34:04Z</time>
      </trkpt>
      <trkpt lat="48.6334" lon="1.99599">
        <ele>151</ele>
        <time>2020-05-31T09:34:06Z</time>
      </trkpt>
      <trkpt lat="48.63339" lon="1.99596">
        <ele>151</ele>
        <time>2020-05-31T09:34:08Z</time>
      </trkpt>
      <trkpt lat="48.63336" lon="1.99589">
        <ele>151</ele>
        <time>2020-05-31T09:34:12Z</time>
      </trkpt>
      <trkpt lat="48.63332" lon="1.99581">
        <ele>151</ele>
        <time>2020-05-31T09:34:17Z</time>
      </trkpt>
      <trkpt lat="48.63329" lon="1.9958">
        <ele>151</ele>
        <time>2020-05-31T09:34:19Z</time>
      </trkpt>
      <trkpt lat="48.63327" lon="1.99579">
        <ele>151</ele>
        <time>2020-05-31T09:34:21Z</time>
      </trkpt>
      <trkpt lat="48.63324" lon="1.99578">
        <ele>151</ele>
        <time>2020-05-31T09:34:23Z</time>
      </trkpt>
      <trkpt lat="48.63321" lon="1.99576">
        <ele>151</ele>
        <time>2020-05-31T09:34:25Z</time>
      </trkpt>
      <trkpt lat="48.6332" lon="1.99575">
        <ele>151</ele>
        <time>2020-05-31T09:34:26Z</time>
      </trkpt>
      <trkpt lat="48.63317" lon="1.99573">
        <ele>151</ele>
        <time>2020-05-31T09:34:28Z</time>
      </trkpt>
      <trkpt lat="48.63314" lon="1.99572">
        <ele>151</ele>
        <time>2020-05-31T09:34:30Z</time>
      </trkpt>
      <trkpt lat="48.6331" lon="1.99569">
        <ele>151</ele>
        <time>2020-05-31T09:34:34Z</time>
      </trkpt>
      <trkpt lat="48.63308" lon="1.99569">
        <ele>151</ele>
        <time>2020-05-31T09:34:36Z</time>
      </trkpt>
      <trkpt lat="48.63306" lon="1.99568">
        <ele>151</ele>
        <time>2020-05-31T09:34:38Z</time>
      </trkpt>
      <trkpt lat="48.63303" lon="1.99567">
        <ele>151</ele>
        <time>2020-05-31T09:34:40Z</time>
      </trkpt>
      <trkpt lat="48.63299" lon="1.99565">
        <ele>150</ele>
        <time>2020-05-31T09:34:43Z</time>
      </trkpt>
      <trkpt lat="48.63296" lon="1.99563">
        <ele>150</ele>
        <time>2020-05-31T09:34:45Z</time>
      </trkpt>
      <trkpt lat="48.63293" lon="1.99562">
        <ele>150</ele>
        <time>2020-05-31T09:34:47Z</time>
      </trkpt>
      <trkpt lat="48.63287" lon="1.99561">
        <ele>149</ele>
        <time>2020-05-31T09:34:51Z</time>
      </trkpt>
      <trkpt lat="48.63284" lon="1.9956">
        <ele>149</ele>
        <time>2020-05-31T09:34:53Z</time>
      </trkpt>
      <trkpt lat="48.63282" lon="1.99557">
        <ele>149</ele>
        <time>2020-05-31T09:34:55Z</time>
      </trkpt>
      <trkpt lat="48.6328" lon="1.99556">
        <ele>149</ele>
        <time>2020-05-31T09:34:57Z</time>
      </trkpt>
      <trkpt lat="48.63275" lon="1.99557">
        <ele>149</ele>
        <time>2020-05-31T09:35:01Z</time>
      </trkpt>
      <trkpt lat="48.63273" lon="1.99557">
        <ele>149</ele>
        <time>2020-05-31T09:35:02Z</time>
      </trkpt>
      <trkpt lat="48.63271" lon="1.99557">
        <ele>149</ele>
        <time>2020-05-31T09:35:03Z</time>
      </trkpt>
      <trkpt lat="48.63269" lon="1.99556">
        <ele>149</ele>
        <time>2020-05-31T09:35:04Z</time>
      </trkpt>
      <trkpt lat="48.63267" lon="1.99556">
        <ele>149</ele>
        <time>2020-05-31T09:35:05Z</time>
      </trkpt>
      <trkpt lat="48.63257" lon="1.99554">
        <ele>149</ele>
        <time>2020-05-31T09:35:12Z</time>
      </trkpt>
      <trkpt lat="48.63254" lon="1.99554">
        <ele>149</ele>
        <time>2020-05-31T09:35:14Z</time>
      </trkpt>
      <trkpt lat="48.63251" lon="1.99554">
        <ele>149</ele>
        <time>2020-05-31T09:35:16Z</time>
      </trkpt>
      <trkpt lat="48.63248" lon="1.99552">
        <ele>149</ele>
        <time>2020-05-31T09:35:18Z</time>
      </trkpt>
      <trkpt lat="48.63246" lon="1.99549">
        <ele>149</ele>
        <time>2020-05-31T09:35:20Z</time>
      </trkpt>
      <trkpt lat="48.63242" lon="1.99547">
        <ele>148</ele>
        <time>2020-05-31T09:35:22Z</time>
      </trkpt>
      <trkpt lat="48.63241" lon="1.99545">
        <ele>148</ele>
        <time>2020-05-31T09:35:23Z</time>
      </trkpt>
      <trkpt lat="48.63239" lon="1.99543">
        <ele>148</ele>
        <time>2020-05-31T09:35:24Z</time>
      </trkpt>
      <trkpt lat="48.63236" lon="1.99542">
        <ele>148</ele>
        <time>2020-05-31T09:35:26Z</time>
      </trkpt>
      <trkpt lat="48.63233" lon="1.99541">
        <ele>148</ele>
        <time>2020-05-31T09:35:28Z</time>
      </trkpt>
      <trkpt lat="48.6323" lon="1.9954">
        <ele>148</ele>
        <time>2020-05-31T09:35:30Z</time>
      </trkpt>
      <trkpt lat="48.63228" lon="1.99538">
        <ele>148</ele>
        <time>2020-05-31T09:35:31Z</time>
      </trkpt>
      <trkpt lat="48.63225" lon="1.99536">
        <ele>148</ele>
        <time>2020-05-31T09:35:33Z</time>
      </trkpt>
      <trkpt lat="48.63224" lon="1.99534">
        <ele>148</ele>
        <time>2020-05-31T09:35:34Z</time>
      </trkpt>
      <trkpt lat="48.63222" lon="1.99531">
        <ele>147</ele>
        <time>2020-05-31T09:35:36Z</time>
      </trkpt>
      <trkpt lat="48.6322" lon="1.99529">
        <ele>147</ele>
        <time>2020-05-31T09:35:37Z</time>
      </trkpt>
      <trkpt lat="48.63219" lon="1.99527">
        <ele>147</ele>
        <time>2020-05-31T09:35:38Z</time>
      </trkpt>
      <trkpt lat="48.63218" lon="1.99524">
        <ele>147</ele>
        <time>2020-05-31T09:35:39Z</time>
      </trkpt>
      <trkpt lat="48.63215" lon="1.99522">
        <ele>146</ele>
        <time>2020-05-31T09:35:41Z</time>
      </trkpt>
      <trkpt lat="48.63211" lon="1.99521">
        <ele>146</ele>
        <time>2020-05-31T09:35:44Z</time>
      </trkpt>
      <trkpt lat="48.63202" lon="1.99515">
        <ele>147</ele>
        <time>2020-05-31T09:35:52Z</time>
      </trkpt>
      <trkpt lat="48.63193" lon="1.99508">
        <ele>148</ele>
        <time>2020-05-31T09:36:01Z</time>
      </trkpt>
      <trkpt lat="48.63189" lon="1.99506">
        <ele>148</ele>
        <time>2020-05-31T09:36:03Z</time>
      </trkpt>
      <trkpt lat="48.63187" lon="1.99505">
        <ele>148</ele>
        <time>2020-05-31T09:36:04Z</time>
      </trkpt>
      <trkpt lat="48.63184" lon="1.99504">
        <ele>148</ele>
        <time>2020-05-31T09:36:05Z</time>
      </trkpt>
      <trkpt lat="48.63182" lon="1.99503">
        <ele>148</ele>
        <time>2020-05-31T09:36:06Z</time>
      </trkpt>
      <trkpt lat="48.6318" lon="1.99502">
        <ele>148</ele>
        <time>2020-05-31T09:36:07Z</time>
      </trkpt>
      <trkpt lat="48.63179" lon="1.995">
        <ele>148</ele>
        <time>2020-05-31T09:36:08Z</time>
      </trkpt>
      <trkpt lat="48.63177" lon="1.99499">
        <ele>147</ele>
        <time>2020-05-31T09:36:09Z</time>
      </trkpt>
      <trkpt lat="48.63175" lon="1.99498">
        <ele>147</ele>
        <time>2020-05-31T09:36:10Z</time>
      </trkpt>
      <trkpt lat="48.63173" lon="1.99498">
        <ele>147</ele>
        <time>2020-05-31T09:36:11Z</time>
      </trkpt>
      <trkpt lat="48.63171" lon="1.99497">
        <ele>147</ele>
        <time>2020-05-31T09:36:12Z</time>
      </trkpt>
      <trkpt lat="48.63169" lon="1.99495">
        <ele>146</ele>
        <time>2020-05-31T09:36:14Z</time>
      </trkpt>
      <trkpt lat="48.63167" lon="1.99494">
        <ele>146</ele>
        <time>2020-05-31T09:36:16Z</time>
      </trkpt>
      <trkpt lat="48.63165" lon="1.99492">
        <ele>145</ele>
        <time>2020-05-31T09:36:17Z</time>
      </trkpt>
      <trkpt lat="48.63163" lon="1.9949">
        <ele>144</ele>
        <time>2020-05-31T09:36:18Z</time>
      </trkpt>
      <trkpt lat="48.63161" lon="1.99488">
        <ele>143</ele>
        <time>2020-05-31T09:36:19Z</time>
      </trkpt>
      <trkpt lat="48.6316" lon="1.99486">
        <ele>142</ele>
        <time>2020-05-31T09:36:20Z</time>
      </trkpt>
      <trkpt lat="48.63159" lon="1.99478">
        <ele>141</ele>
        <time>2020-05-31T09:36:22Z</time>
      </trkpt>
      <trkpt lat="48.63156" lon="1.99472">
        <ele>140</ele>
        <time>2020-05-31T09:36:24Z</time>
      </trkpt>
      <trkpt lat="48.63154" lon="1.9947">
        <ele>140</ele>
        <time>2020-05-31T09:36:25Z</time>
      </trkpt>
      <trkpt lat="48.63153" lon="1.99468">
        <ele>140</ele>
        <time>2020-05-31T09:36:26Z</time>
      </trkpt>
      <trkpt lat="48.6315" lon="1.99464">
        <ele>139</ele>
        <time>2020-05-31T09:36:28Z</time>
      </trkpt>
      <trkpt lat="48.63148" lon="1.99462">
        <ele>139</ele>
        <time>2020-05-31T09:36:29Z</time>
      </trkpt>
      <trkpt lat="48.63146" lon="1.99459">
        <ele>138</ele>
        <time>2020-05-31T09:36:31Z</time>
      </trkpt>
      <trkpt lat="48.63144" lon="1.99457">
        <ele>138</ele>
        <time>2020-05-31T09:36:32Z</time>
      </trkpt>
      <trkpt lat="48.63138" lon="1.99451">
        <ele>137</ele>
        <time>2020-05-31T09:36:36Z</time>
      </trkpt>
      <trkpt lat="48.63134" lon="1.99448">
        <ele>137</ele>
        <time>2020-05-31T09:36:38Z</time>
      </trkpt>
      <trkpt lat="48.63133" lon="1.99447">
        <ele>136</ele>
        <time>2020-05-31T09:36:39Z</time>
      </trkpt>
      <trkpt lat="48.6313" lon="1.99444">
        <ele>136</ele>
        <time>2020-05-31T09:36:41Z</time>
      </trkpt>
      <trkpt lat="48.63128" lon="1.99442">
        <ele>136</ele>
        <time>2020-05-31T09:36:42Z</time>
      </trkpt>
      <trkpt lat="48.63126" lon="1.99439">
        <ele>136</ele>
        <time>2020-05-31T09:36:44Z</time>
      </trkpt>
      <trkpt lat="48.63124" lon="1.99436">
        <ele>135</ele>
        <time>2020-05-31T09:36:46Z</time>
      </trkpt>
      <trkpt lat="48.63123" lon="1.99432">
        <ele>135</ele>
        <time>2020-05-31T09:36:48Z</time>
      </trkpt>
      <trkpt lat="48.63121" lon="1.99421">
        <ele>134</ele>
        <time>2020-05-31T09:36:52Z</time>
      </trkpt>
      <trkpt lat="48.63119" lon="1.99418">
        <ele>134</ele>
        <time>2020-05-31T09:36:54Z</time>
      </trkpt>
      <trkpt lat="48.63117" lon="1.99413">
        <ele>133</ele>
        <time>2020-05-31T09:36:56Z</time>
      </trkpt>
      <trkpt lat="48.63115" lon="1.99409">
        <ele>133</ele>
        <time>2020-05-31T09:36:58Z</time>
      </trkpt>
      <trkpt lat="48.63113" lon="1.99405">
        <ele>132</ele>
        <time>2020-05-31T09:37:00Z</time>
      </trkpt>
      <trkpt lat="48.63111" lon="1.994">
        <ele>131</ele>
        <time>2020-05-31T09:37:02Z</time>
      </trkpt>
      <trkpt lat="48.6311" lon="1.99397">
        <ele>131</ele>
        <time>2020-05-31T09:37:03Z</time>
      </trkpt>
      <trkpt lat="48.63108" lon="1.99393">
        <ele>130</ele>
        <time>2020-05-31T09:37:05Z</time>
      </trkpt>
      <trkpt lat="48.63106" lon="1.9939">
        <ele>130</ele>
        <time>2020-05-31T09:37:06Z</time>
      </trkpt>
      <trkpt lat="48.63104" lon="1.99387">
        <ele>129</ele>
        <time>2020-05-31T09:37:08Z</time>
      </trkpt>
      <trkpt lat="48.63102" lon="1.99385">
        <ele>129</ele>
        <time>2020-05-31T09:37:09Z</time>
      </trkpt>
      <trkpt lat="48.631" lon="1.99384">
        <ele>129</ele>
        <time>2020-05-31T09:37:10Z</time>
      </trkpt>
      <trkpt lat="48.63098" lon="1.9938">
        <ele>129</ele>
        <time>2020-05-31T09:37:12Z</time>
      </trkpt>
      <trkpt lat="48.63096" lon="1.99377">
        <ele>129</ele>
        <time>2020-05-31T09:37:14Z</time>
      </trkpt>
      <trkpt lat="48.63093" lon="1.99373">
        <ele>129</ele>
        <time>2020-05-31T09:37:16Z</time>
      </trkpt>
      <trkpt lat="48.63091" lon="1.9937">
        <ele>128</ele>
        <time>2020-05-31T09:37:18Z</time>
      </trkpt>
      <trkpt lat="48.63088" lon="1.99366">
        <ele>128</ele>
        <time>2020-05-31T09:37:20Z</time>
      </trkpt>
      <trkpt lat="48.63086" lon="1.99362">
        <ele>128</ele>
        <time>2020-05-31T09:37:22Z</time>
      </trkpt>
      <trkpt lat="48.63084" lon="1.9936">
        <ele>127</ele>
        <time>2020-05-31T09:37:23Z</time>
      </trkpt>
      <trkpt lat="48.63083" lon="1.99358">
        <ele>127</ele>
        <time>2020-05-31T09:37:24Z</time>
      </trkpt>
      <trkpt lat="48.63081" lon="1.99354">
        <ele>127</ele>
        <time>2020-05-31T09:37:26Z</time>
      </trkpt>
      <trkpt lat="48.63079" lon="1.99349">
        <ele>126</ele>
        <time>2020-05-31T09:37:28Z</time>
      </trkpt>
      <trkpt lat="48.63077" lon="1.99344">
        <ele>125</ele>
        <time>2020-05-31T09:37:30Z</time>
      </trkpt>
      <trkpt lat="48.63074" lon="1.99339">
        <ele>125</ele>
        <time>2020-05-31T09:37:33Z</time>
      </trkpt>
      <trkpt lat="48.63072" lon="1.99335">
        <ele>125</ele>
        <time>2020-05-31T09:37:35Z</time>
      </trkpt>
      <trkpt lat="48.63071" lon="1.9933">
        <ele>125</ele>
        <time>2020-05-31T09:37:37Z</time>
      </trkpt>
      <trkpt lat="48.63069" lon="1.99327">
        <ele>124</ele>
        <time>2020-05-31T09:37:39Z</time>
      </trkpt>
      <trkpt lat="48.63068" lon="1.99324">
        <ele>124</ele>
        <time>2020-05-31T09:37:40Z</time>
      </trkpt>
      <trkpt lat="48.63067" lon="1.99321">
        <ele>124</ele>
        <time>2020-05-31T09:37:41Z</time>
      </trkpt>
      <trkpt lat="48.63066" lon="1.99319">
        <ele>123</ele>
        <time>2020-05-31T09:37:42Z</time>
      </trkpt>
      <trkpt lat="48.63065" lon="1.99316">
        <ele>123</ele>
        <time>2020-05-31T09:37:43Z</time>
      </trkpt>
      <trkpt lat="48.63062" lon="1.99312">
        <ele>123</ele>
        <time>2020-05-31T09:37:45Z</time>
      </trkpt>
      <trkpt lat="48.63061" lon="1.9931">
        <ele>123</ele>
        <time>2020-05-31T09:37:46Z</time>
      </trkpt>
      <trkpt lat="48.6306" lon="1.99308">
        <ele>123</ele>
        <time>2020-05-31T09:37:47Z</time>
      </trkpt>
      <trkpt lat="48.6306" lon="1.99302">
        <ele>123</ele>
        <time>2020-05-31T09:37:49Z</time>
      </trkpt>
      <trkpt lat="48.63061" lon="1.993">
        <ele>123</ele>
        <time>2020-05-31T09:37:50Z</time>
      </trkpt>
      <trkpt lat="48.63062" lon="1.99297">
        <ele>122</ele>
        <time>2020-05-31T09:37:51Z</time>
      </trkpt>
      <trkpt lat="48.63063" lon="1.99294">
        <ele>122</ele>
        <time>2020-05-31T09:37:52Z</time>
      </trkpt>
      <trkpt lat="48.63064" lon="1.99291">
        <ele>122</ele>
        <time>2020-05-31T09:37:53Z</time>
      </trkpt>
      <trkpt lat="48.63065" lon="1.99288">
        <ele>122</ele>
        <time>2020-05-31T09:37:54Z</time>
      </trkpt>
      <trkpt lat="48.63067" lon="1.99285">
        <ele>122</ele>
        <time>2020-05-31T09:37:55Z</time>
      </trkpt>
      <trkpt lat="48.63068" lon="1.99282">
        <ele>122</ele>
        <time>2020-05-31T09:37:56Z</time>
      </trkpt>
      <trkpt lat="48.63068" lon="1.99279">
        <ele>122</ele>
        <time>2020-05-31T09:37:57Z</time>
      </trkpt>
      <trkpt lat="48.63069" lon="1.99276">
        <ele>122</ele>
        <time>2020-05-31T09:37:58Z</time>
      </trkpt>
      <trkpt lat="48.6307" lon="1.99273">
        <ele>122</ele>
        <time>2020-05-31T09:37:59Z</time>
      </trkpt>
      <trkpt lat="48.6307" lon="1.99268">
        <ele>122</ele>
        <time>2020-05-31T09:38:01Z</time>
      </trkpt>
      <trkpt lat="48.63071" lon="1.99265">
        <ele>122</ele>
        <time>2020-05-31T09:38:03Z</time>
      </trkpt>
      <trkpt lat="48.63073" lon="1.9926">
        <ele>122</ele>
        <time>2020-05-31T09:38:05Z</time>
      </trkpt>
      <trkpt lat="48.63074" lon="1.99255">
        <ele>122</ele>
        <time>2020-05-31T09:38:07Z</time>
      </trkpt>
      <trkpt lat="48.63074" lon="1.99251">
        <ele>122</ele>
        <time>2020-05-31T09:38:09Z</time>
      </trkpt>
      <trkpt lat="48.63075" lon="1.99248">
        <ele>122</ele>
        <time>2020-05-31T09:38:10Z</time>
      </trkpt>
      <trkpt lat="48.63075" lon="1.99242">
        <ele>122</ele>
        <time>2020-05-31T09:38:12Z</time>
      </trkpt>
      <trkpt lat="48.63076" lon="1.99239">
        <ele>122</ele>
        <time>2020-05-31T09:38:13Z</time>
      </trkpt>
      <trkpt lat="48.63078" lon="1.99234">
        <ele>122</ele>
        <time>2020-05-31T09:38:15Z</time>
      </trkpt>
      <trkpt lat="48.63079" lon="1.99232">
        <ele>122</ele>
        <time>2020-05-31T09:38:16Z</time>
      </trkpt>
      <trkpt lat="48.6308" lon="1.99227">
        <ele>122</ele>
        <time>2020-05-31T09:38:18Z</time>
      </trkpt>
      <trkpt lat="48.63081" lon="1.99223">
        <ele>122</ele>
        <time>2020-05-31T09:38:20Z</time>
      </trkpt>
      <trkpt lat="48.63082" lon="1.99218">
        <ele>122</ele>
        <time>2020-05-31T09:38:22Z</time>
      </trkpt>
      <trkpt lat="48.63084" lon="1.99213">
        <ele>122</ele>
        <time>2020-05-31T09:38:24Z</time>
      </trkpt>
      <trkpt lat="48.63084" lon="1.9921">
        <ele>123</ele>
        <time>2020-05-31T09:38:25Z</time>
      </trkpt>
      <trkpt lat="48.63086" lon="1.99206">
        <ele>123</ele>
        <time>2020-05-31T09:38:27Z</time>
      </trkpt>
      <trkpt lat="48.63087" lon="1.99201">
        <ele>123</ele>
        <time>2020-05-31T09:38:29Z</time>
      </trkpt>
      <trkpt lat="48.63088" lon="1.99198">
        <ele>123</ele>
        <time>2020-05-31T09:38:30Z</time>
      </trkpt>
      <trkpt lat="48.63088" lon="1.99193">
        <ele>123</ele>
        <time>2020-05-31T09:38:32Z</time>
      </trkpt>
      <trkpt lat="48.63088" lon="1.9919">
        <ele>123</ele>
        <time>2020-05-31T09:38:33Z</time>
      </trkpt>
      <trkpt lat="48.63089" lon="1.99186">
        <ele>123</ele>
        <time>2020-05-31T09:38:35Z</time>
      </trkpt>
      <trkpt lat="48.63088" lon="1.99182">
        <ele>123</ele>
        <time>2020-05-31T09:38:37Z</time>
      </trkpt>
      <trkpt lat="48.6309" lon="1.99177">
        <ele>124</ele>
        <time>2020-05-31T09:38:39Z</time>
      </trkpt>
      <trkpt lat="48.6309" lon="1.99174">
        <ele>124</ele>
        <time>2020-05-31T09:38:40Z</time>
      </trkpt>
      <trkpt lat="48.63091" lon="1.99171">
        <ele>124</ele>
        <time>2020-05-31T09:38:41Z</time>
      </trkpt>
      <trkpt lat="48.63092" lon="1.99167">
        <ele>124</ele>
        <time>2020-05-31T09:38:43Z</time>
      </trkpt>
      <trkpt lat="48.63094" lon="1.99163">
        <ele>124</ele>
        <time>2020-05-31T09:38:45Z</time>
      </trkpt>
      <trkpt lat="48.63096" lon="1.9916">
        <ele>124</ele>
        <time>2020-05-31T09:38:46Z</time>
      </trkpt>
      <trkpt lat="48.63097" lon="1.99157">
        <ele>124</ele>
        <time>2020-05-31T09:38:47Z</time>
      </trkpt>
      <trkpt lat="48.63099" lon="1.99154">
        <ele>124</ele>
        <time>2020-05-31T09:38:48Z</time>
      </trkpt>
      <trkpt lat="48.631" lon="1.99152">
        <ele>124</ele>
        <time>2020-05-31T09:38:49Z</time>
      </trkpt>
      <trkpt lat="48.63101" lon="1.99149">
        <ele>124</ele>
        <time>2020-05-31T09:38:50Z</time>
      </trkpt>
      <trkpt lat="48.63102" lon="1.99147">
        <ele>125</ele>
        <time>2020-05-31T09:38:51Z</time>
      </trkpt>
      <trkpt lat="48.63103" lon="1.99144">
        <ele>125</ele>
        <time>2020-05-31T09:38:52Z</time>
      </trkpt>
      <trkpt lat="48.63106" lon="1.9914">
        <ele>125</ele>
        <time>2020-05-31T09:38:54Z</time>
      </trkpt>
      <trkpt lat="48.63107" lon="1.99138">
        <ele>125</ele>
        <time>2020-05-31T09:38:55Z</time>
      </trkpt>
      <trkpt lat="48.63108" lon="1.99136">
        <ele>125</ele>
        <time>2020-05-31T09:38:56Z</time>
      </trkpt>
      <trkpt lat="48.6311" lon="1.99132">
        <ele>125</ele>
        <time>2020-05-31T09:38:58Z</time>
      </trkpt>
      <trkpt lat="48.63111" lon="1.99129">
        <ele>125</ele>
        <time>2020-05-31T09:39:00Z</time>
      </trkpt>
      <trkpt lat="48.63113" lon="1.99124">
        <ele>125</ele>
        <time>2020-05-31T09:39:02Z</time>
      </trkpt>
      <trkpt lat="48.63114" lon="1.9912">
        <ele>125</ele>
        <time>2020-05-31T09:39:04Z</time>
      </trkpt>
      <trkpt lat="48.63117" lon="1.99116">
        <ele>125</ele>
        <time>2020-05-31T09:39:06Z</time>
      </trkpt>
      <trkpt lat="48.63119" lon="1.99112">
        <ele>125</ele>
        <time>2020-05-31T09:39:08Z</time>
      </trkpt>
      <trkpt lat="48.6312" lon="1.99109">
        <ele>125</ele>
        <time>2020-05-31T09:39:09Z</time>
      </trkpt>
      <trkpt lat="48.63121" lon="1.99107">
        <ele>125</ele>
        <time>2020-05-31T09:39:10Z</time>
      </trkpt>
      <trkpt lat="48.63123" lon="1.99103">
        <ele>125</ele>
        <time>2020-05-31T09:39:12Z</time>
      </trkpt>
      <trkpt lat="48.63125" lon="1.99099">
        <ele>125</ele>
        <time>2020-05-31T09:39:14Z</time>
      </trkpt>
      <trkpt lat="48.63127" lon="1.99096">
        <ele>125</ele>
        <time>2020-05-31T09:39:16Z</time>
      </trkpt>
      <trkpt lat="48.6313" lon="1.99092">
        <ele>125</ele>
        <time>2020-05-31T09:39:18Z</time>
      </trkpt>
      <trkpt lat="48.63131" lon="1.99088">
        <ele>125</ele>
        <time>2020-05-31T09:39:20Z</time>
      </trkpt>
      <trkpt lat="48.63133" lon="1.99084">
        <ele>126</ele>
        <time>2020-05-31T09:39:22Z</time>
      </trkpt>
      <trkpt lat="48.63135" lon="1.9908">
        <ele>126</ele>
        <time>2020-05-31T09:39:24Z</time>
      </trkpt>
      <trkpt lat="48.63136" lon="1.99076">
        <ele>126</ele>
        <time>2020-05-31T09:39:26Z</time>
      </trkpt>
      <trkpt lat="48.63138" lon="1.99072">
        <ele>126</ele>
        <time>2020-05-31T09:39:28Z</time>
      </trkpt>
      <trkpt lat="48.63139" lon="1.99068">
        <ele>126</ele>
        <time>2020-05-31T09:39:30Z</time>
      </trkpt>
      <trkpt lat="48.63139" lon="1.99064">
        <ele>125</ele>
        <time>2020-05-31T09:39:32Z</time>
      </trkpt>
      <trkpt lat="48.6314" lon="1.9906">
        <ele>125</ele>
        <time>2020-05-31T09:39:34Z</time>
      </trkpt>
      <trkpt lat="48.6314" lon="1.99057">
        <ele>124</ele>
        <time>2020-05-31T09:39:36Z</time>
      </trkpt>
      <trkpt lat="48.63139" lon="1.99054">
        <ele>123</ele>
        <time>2020-05-31T09:39:38Z</time>
      </trkpt>
      <trkpt lat="48.63137" lon="1.99051">
        <ele>123</ele>
        <time>2020-05-31T09:39:40Z</time>
      </trkpt>
      <trkpt lat="48.63136" lon="1.99048">
        <ele>123</ele>
        <time>2020-05-31T09:39:42Z</time>
      </trkpt>
      <trkpt lat="48.63135" lon="1.99044">
        <ele>122</ele>
        <time>2020-05-31T09:39:44Z</time>
      </trkpt>
      <trkpt lat="48.63134" lon="1.99041">
        <ele>122</ele>
        <time>2020-05-31T09:39:46Z</time>
      </trkpt>
      <trkpt lat="48.63133" lon="1.99038">
        <ele>121</ele>
        <time>2020-05-31T09:39:48Z</time>
      </trkpt>
      <trkpt lat="48.63131" lon="1.99035">
        <ele>121</ele>
        <time>2020-05-31T09:39:50Z</time>
      </trkpt>
      <trkpt lat="48.63129" lon="1.99033">
        <ele>121</ele>
        <time>2020-05-31T09:39:52Z</time>
      </trkpt>
      <trkpt lat="48.63128" lon="1.9903">
        <ele>120</ele>
        <time>2020-05-31T09:39:54Z</time>
      </trkpt>
      <trkpt lat="48.63125" lon="1.99027">
        <ele>120</ele>
        <time>2020-05-31T09:39:56Z</time>
      </trkpt>
      <trkpt lat="48.63123" lon="1.99025">
        <ele>119</ele>
        <time>2020-05-31T09:39:58Z</time>
      </trkpt>
      <trkpt lat="48.63121" lon="1.99024">
        <ele>119</ele>
        <time>2020-05-31T09:40:00Z</time>
      </trkpt>
      <trkpt lat="48.63118" lon="1.99024">
        <ele>118</ele>
        <time>2020-05-31T09:40:02Z</time>
      </trkpt>
      <trkpt lat="48.63116" lon="1.99023">
        <ele>118</ele>
        <time>2020-05-31T09:40:04Z</time>
      </trkpt>
      <trkpt lat="48.63113" lon="1.99021">
        <ele>118</ele>
        <time>2020-05-31T09:40:06Z</time>
      </trkpt>
      <trkpt lat="48.63111" lon="1.99019">
        <ele>117</ele>
        <time>2020-05-31T09:40:08Z</time>
      </trkpt>
      <trkpt lat="48.63109" lon="1.99018">
        <ele>117</ele>
        <time>2020-05-31T09:40:10Z</time>
      </trkpt>
      <trkpt lat="48.63107" lon="1.99016">
        <ele>117</ele>
        <time>2020-05-31T09:40:12Z</time>
      </trkpt>
      <trkpt lat="48.63105" lon="1.99014">
        <ele>117</ele>
        <time>2020-05-31T09:40:14Z</time>
      </trkpt>
      <trkpt lat="48.63101" lon="1.99014">
        <ele>117</ele>
        <time>2020-05-31T09:40:16Z</time>
      </trkpt>
      <trkpt lat="48.631" lon="1.99014">
        <ele>117</ele>
        <time>2020-05-31T09:40:17Z</time>
      </trkpt>
      <trkpt lat="48.63097" lon="1.99013">
        <ele>116</ele>
        <time>2020-05-31T09:40:18Z</time>
      </trkpt>
      <trkpt lat="48.63094" lon="1.99012">
        <ele>116</ele>
        <time>2020-05-31T09:40:20Z</time>
      </trkpt>
      <trkpt lat="48.63091" lon="1.99011">
        <ele>116</ele>
        <time>2020-05-31T09:40:22Z</time>
      </trkpt>
      <trkpt lat="48.63089" lon="1.99011">
        <ele>117</ele>
        <time>2020-05-31T09:40:24Z</time>
      </trkpt>
      <trkpt lat="48.63087" lon="1.9901">
        <ele>117</ele>
        <time>2020-05-31T09:40:26Z</time>
      </trkpt>
      <trkpt lat="48.63084" lon="1.99009">
        <ele>117</ele>
        <time>2020-05-31T09:40:28Z</time>
      </trkpt>
      <trkpt lat="48.63081" lon="1.99009">
        <ele>117</ele>
        <time>2020-05-31T09:40:30Z</time>
      </trkpt>
      <trkpt lat="48.63078" lon="1.99009">
        <ele>117</ele>
        <time>2020-05-31T09:40:32Z</time>
      </trkpt>
      <trkpt lat="48.63075" lon="1.99008">
        <ele>117</ele>
        <time>2020-05-31T09:40:34Z</time>
      </trkpt>
      <trkpt lat="48.63072" lon="1.99007">
        <ele>117</ele>
        <time>2020-05-31T09:40:36Z</time>
      </trkpt>
      <trkpt lat="48.63068" lon="1.99006">
        <ele>117</ele>
        <time>2020-05-31T09:40:38Z</time>
      </trkpt>
      <trkpt lat="48.63065" lon="1.99006">
        <ele>118</ele>
        <time>2020-05-31T09:40:40Z</time>
      </trkpt>
      <trkpt lat="48.63062" lon="1.99005">
        <ele>118</ele>
        <time>2020-05-31T09:40:42Z</time>
      </trkpt>
      <trkpt lat="48.6306" lon="1.99002">
        <ele>118</ele>
        <time>2020-05-31T09:40:44Z</time>
      </trkpt>
      <trkpt lat="48.63057" lon="1.99001">
        <ele>118</ele>
        <time>2020-05-31T09:40:46Z</time>
      </trkpt>
      <trkpt lat="48.63055" lon="1.99001">
        <ele>119</ele>
        <time>2020-05-31T09:40:48Z</time>
      </trkpt>
      <trkpt lat="48.63053" lon="1.99">
        <ele>119</ele>
        <time>2020-05-31T09:40:50Z</time>
      </trkpt>
      <trkpt lat="48.63051" lon="1.98998">
        <ele>118</ele>
        <time>2020-05-31T09:40:53Z</time>
      </trkpt>
      <trkpt lat="48.63048" lon="1.98997">
        <ele>118</ele>
        <time>2020-05-31T09:40:54Z</time>
      </trkpt>
      <trkpt lat="48.63045" lon="1.98996">
        <ele>118</ele>
        <time>2020-05-31T09:40:55Z</time>
      </trkpt>
      <trkpt lat="48.63042" lon="1.98996">
        <ele>117</ele>
        <time>2020-05-31T09:40:56Z</time>
      </trkpt>
      <trkpt lat="48.63039" lon="1.98994">
        <ele>117</ele>
        <time>2020-05-31T09:40:57Z</time>
      </trkpt>
      <trkpt lat="48.63037" lon="1.98993">
        <ele>117</ele>
        <time>2020-05-31T09:40:58Z</time>
      </trkpt>
      <trkpt lat="48.63034" lon="1.98991">
        <ele>116</ele>
        <time>2020-05-31T09:41:00Z</time>
      </trkpt>
      <trkpt lat="48.63031" lon="1.98989">
        <ele>116</ele>
        <time>2020-05-31T09:41:02Z</time>
      </trkpt>
      <trkpt lat="48.63028" lon="1.98988">
        <ele>116</ele>
        <time>2020-05-31T09:41:04Z</time>
      </trkpt>
      <trkpt lat="48.63025" lon="1.98987">
        <ele>116</ele>
        <time>2020-05-31T09:41:06Z</time>
      </trkpt>
      <trkpt lat="48.63022" lon="1.98985">
        <ele>116</ele>
        <time>2020-05-31T09:41:08Z</time>
      </trkpt>
      <trkpt lat="48.6302" lon="1.98981">
        <ele>115</ele>
        <time>2020-05-31T09:41:10Z</time>
      </trkpt>
      <trkpt lat="48.63017" lon="1.98978">
        <ele>114</ele>
        <time>2020-05-31T09:41:12Z</time>
      </trkpt>
      <trkpt lat="48.63014" lon="1.98975">
        <ele>114</ele>
        <time>2020-05-31T09:41:14Z</time>
      </trkpt>
      <trkpt lat="48.63012" lon="1.98973">
        <ele>113</ele>
        <time>2020-05-31T09:41:16Z</time>
      </trkpt>
      <trkpt lat="48.63009" lon="1.9897">
        <ele>113</ele>
        <time>2020-05-31T09:41:18Z</time>
      </trkpt>
      <trkpt lat="48.63007" lon="1.98967">
        <ele>113</ele>
        <time>2020-05-31T09:41:20Z</time>
      </trkpt>
      <trkpt lat="48.63004" lon="1.98964">
        <ele>112</ele>
        <time>2020-05-31T09:41:22Z</time>
      </trkpt>
      <trkpt lat="48.63001" lon="1.98962">
        <ele>112</ele>
        <time>2020-05-31T09:41:24Z</time>
      </trkpt>
      <trkpt lat="48.62999" lon="1.9896">
        <ele>112</ele>
        <time>2020-05-31T09:41:25Z</time>
      </trkpt>
      <trkpt lat="48.62996" lon="1.98958">
        <ele>111</ele>
        <time>2020-05-31T09:41:27Z</time>
      </trkpt>
      <trkpt lat="48.62993" lon="1.98956">
        <ele>111</ele>
        <time>2020-05-31T09:41:29Z</time>
      </trkpt>
      <trkpt lat="48.6299" lon="1.98954">
        <ele>111</ele>
        <time>2020-05-31T09:41:31Z</time>
      </trkpt>
      <trkpt lat="48.62988" lon="1.98951">
        <ele>111</ele>
        <time>2020-05-31T09:41:33Z</time>
      </trkpt>
      <trkpt lat="48.62985" lon="1.98949">
        <ele>111</ele>
        <time>2020-05-31T09:41:35Z</time>
      </trkpt>
      <trkpt lat="48.62982" lon="1.98947">
        <ele>111</ele>
        <time>2020-05-31T09:41:37Z</time>
      </trkpt>
      <trkpt lat="48.6298" lon="1.98944">
        <ele>111</ele>
        <time>2020-05-31T09:41:39Z</time>
      </trkpt>
      <trkpt lat="48.62977" lon="1.98942">
        <ele>112</ele>
        <time>2020-05-31T09:41:41Z</time>
      </trkpt>
      <trkpt lat="48.62974" lon="1.9894">
        <ele>111</ele>
        <time>2020-05-31T09:41:43Z</time>
      </trkpt>
      <trkpt lat="48.62972" lon="1.98938">
        <ele>111</ele>
        <time>2020-05-31T09:41:45Z</time>
      </trkpt>
      <trkpt lat="48.62969" lon="1.98935">
        <ele>111</ele>
        <time>2020-05-31T09:41:47Z</time>
      </trkpt>
      <trkpt lat="48.62966" lon="1.98933">
        <ele>111</ele>
        <time>2020-05-31T09:41:49Z</time>
      </trkpt>
      <trkpt lat="48.62963" lon="1.98931">
        <ele>111</ele>
        <time>2020-05-31T09:41:51Z</time>
      </trkpt>
      <trkpt lat="48.62961" lon="1.98928">
        <ele>111</ele>
        <time>2020-05-31T09:41:53Z</time>
      </trkpt>
      <trkpt lat="48.62958" lon="1.98927">
        <ele>112</ele>
        <time>2020-05-31T09:41:55Z</time>
      </trkpt>
      <trkpt lat="48.62955" lon="1.98924">
        <ele>112</ele>
        <time>2020-05-31T09:41:57Z</time>
      </trkpt>
      <trkpt lat="48.62953" lon="1.98922">
        <ele>112</ele>
        <time>2020-05-31T09:41:59Z</time>
      </trkpt>
      <trkpt lat="48.6295" lon="1.98919">
        <ele>112</ele>
        <time>2020-05-31T09:42:01Z</time>
      </trkpt>
      <trkpt lat="48.62947" lon="1.98917">
        <ele>112</ele>
        <time>2020-05-31T09:42:03Z</time>
      </trkpt>
      <trkpt lat="48.62945" lon="1.98914">
        <ele>112</ele>
        <time>2020-05-31T09:42:05Z</time>
      </trkpt>
      <trkpt lat="48.62942" lon="1.98911">
        <ele>112</ele>
        <time>2020-05-31T09:42:07Z</time>
      </trkpt>
      <trkpt lat="48.62939" lon="1.98909">
        <ele>112</ele>
        <time>2020-05-31T09:42:09Z</time>
      </trkpt>
      <trkpt lat="48.62935" lon="1.98907">
        <ele>111</ele>
        <time>2020-05-31T09:42:11Z</time>
      </trkpt>
      <trkpt lat="48.62934" lon="1.98906">
        <ele>111</ele>
        <time>2020-05-31T09:42:12Z</time>
      </trkpt>
      <trkpt lat="48.62932" lon="1.98904">
        <ele>110</ele>
        <time>2020-05-31T09:42:13Z</time>
      </trkpt>
      <trkpt lat="48.62931" lon="1.98903">
        <ele>110</ele>
        <time>2020-05-31T09:42:14Z</time>
      </trkpt>
      <trkpt lat="48.62929" lon="1.98902">
        <ele>110</ele>
        <time>2020-05-31T09:42:15Z</time>
      </trkpt>
      <trkpt lat="48.62926" lon="1.98899">
        <ele>110</ele>
        <time>2020-05-31T09:42:17Z</time>
      </trkpt>
      <trkpt lat="48.62924" lon="1.98896">
        <ele>110</ele>
        <time>2020-05-31T09:42:19Z</time>
      </trkpt>
      <trkpt lat="48.62922" lon="1.98892">
        <ele>109</ele>
        <time>2020-05-31T09:42:21Z</time>
      </trkpt>
      <trkpt lat="48.6292" lon="1.98889">
        <ele>109</ele>
        <time>2020-05-31T09:42:23Z</time>
      </trkpt>
      <trkpt lat="48.62917" lon="1.98885">
        <ele>109</ele>
        <time>2020-05-31T09:42:25Z</time>
      </trkpt>
      <trkpt lat="48.62915" lon="1.98883">
        <ele>109</ele>
        <time>2020-05-31T09:42:27Z</time>
      </trkpt>
      <trkpt lat="48.62912" lon="1.9888">
        <ele>109</ele>
        <time>2020-05-31T09:42:29Z</time>
      </trkpt>
      <trkpt lat="48.62909" lon="1.98878">
        <ele>109</ele>
        <time>2020-05-31T09:42:31Z</time>
      </trkpt>
      <trkpt lat="48.62907" lon="1.98876">
        <ele>110</ele>
        <time>2020-05-31T09:42:33Z</time>
      </trkpt>
      <trkpt lat="48.62904" lon="1.98874">
        <ele>110</ele>
        <time>2020-05-31T09:42:35Z</time>
      </trkpt>
      <trkpt lat="48.62901" lon="1.98871">
        <ele>110</ele>
        <time>2020-05-31T09:42:37Z</time>
      </trkpt>
      <trkpt lat="48.629" lon="1.98869">
        <ele>110</ele>
        <time>2020-05-31T09:42:38Z</time>
      </trkpt>
      <trkpt lat="48.62898" lon="1.98867">
        <ele>109</ele>
        <time>2020-05-31T09:42:39Z</time>
      </trkpt>
      <trkpt lat="48.62897" lon="1.98865">
        <ele>109</ele>
        <time>2020-05-31T09:42:40Z</time>
      </trkpt>
      <trkpt lat="48.62897" lon="1.98862">
        <ele>109</ele>
        <time>2020-05-31T09:42:41Z</time>
      </trkpt>
      <trkpt lat="48.62897" lon="1.98859">
        <ele>109</ele>
        <time>2020-05-31T09:42:42Z</time>
      </trkpt>
      <trkpt lat="48.62897" lon="1.98855">
        <ele>109</ele>
        <time>2020-05-31T09:42:44Z</time>
      </trkpt>
      <trkpt lat="48.62898" lon="1.9885">
        <ele>109</ele>
        <time>2020-05-31T09:42:46Z</time>
      </trkpt>
      <trkpt lat="48.629" lon="1.98846">
        <ele>109</ele>
        <time>2020-05-31T09:42:48Z</time>
      </trkpt>
      <trkpt lat="48.62902" lon="1.98842">
        <ele>109</ele>
        <time>2020-05-31T09:42:50Z</time>
      </trkpt>
      <trkpt lat="48.62904" lon="1.98838">
        <ele>109</ele>
        <time>2020-05-31T09:42:52Z</time>
      </trkpt>
      <trkpt lat="48.62906" lon="1.98834">
        <ele>109</ele>
        <time>2020-05-31T09:42:54Z</time>
      </trkpt>
      <trkpt lat="48.62907" lon="1.9883">
        <ele>109</ele>
        <time>2020-05-31T09:42:56Z</time>
      </trkpt>
      <trkpt lat="48.6291" lon="1.98826">
        <ele>108</ele>
        <time>2020-05-31T09:42:58Z</time>
      </trkpt>
      <trkpt lat="48.62912" lon="1.98822">
        <ele>108</ele>
        <time>2020-05-31T09:43:00Z</time>
      </trkpt>
      <trkpt lat="48.62914" lon="1.98819">
        <ele>108</ele>
        <time>2020-05-31T09:43:02Z</time>
      </trkpt>
      <trkpt lat="48.62915" lon="1.98817">
        <ele>108</ele>
        <time>2020-05-31T09:43:03Z</time>
      </trkpt>
      <trkpt lat="48.62918" lon="1.98813">
        <ele>109</ele>
        <time>2020-05-31T09:43:05Z</time>
      </trkpt>
      <trkpt lat="48.62919" lon="1.9881">
        <ele>108</ele>
        <time>2020-05-31T09:43:07Z</time>
      </trkpt>
      <trkpt lat="48.62922" lon="1.98806">
        <ele>109</ele>
        <time>2020-05-31T09:43:09Z</time>
      </trkpt>
      <trkpt lat="48.62925" lon="1.98803">
        <ele>109</ele>
        <time>2020-05-31T09:43:11Z</time>
      </trkpt>
      <trkpt lat="48.62927" lon="1.98801">
        <ele>109</ele>
        <time>2020-05-31T09:43:13Z</time>
      </trkpt>
      <trkpt lat="48.6293" lon="1.98798">
        <ele>109</ele>
        <time>2020-05-31T09:43:15Z</time>
      </trkpt>
      <trkpt lat="48.62933" lon="1.98795">
        <ele>109</ele>
        <time>2020-05-31T09:43:17Z</time>
      </trkpt>
      <trkpt lat="48.62935" lon="1.98792">
        <ele>109</ele>
        <time>2020-05-31T09:43:19Z</time>
      </trkpt>
      <trkpt lat="48.62937" lon="1.9879">
        <ele>109</ele>
        <time>2020-05-31T09:43:20Z</time>
      </trkpt>
      <trkpt lat="48.6294" lon="1.98787">
        <ele>109</ele>
        <time>2020-05-31T09:43:22Z</time>
      </trkpt>
      <trkpt lat="48.62942" lon="1.98786">
        <ele>109</ele>
        <time>2020-05-31T09:43:23Z</time>
      </trkpt>
      <trkpt lat="48.62944" lon="1.98783">
        <ele>109</ele>
        <time>2020-05-31T09:43:25Z</time>
      </trkpt>
      <trkpt lat="48.62946" lon="1.98781">
        <ele>110</ele>
        <time>2020-05-31T09:43:27Z</time>
      </trkpt>
      <trkpt lat="48.62948" lon="1.98779">
        <ele>110</ele>
        <time>2020-05-31T09:43:29Z</time>
      </trkpt>
      <trkpt lat="48.62951" lon="1.98776">
        <ele>109</ele>
        <time>2020-05-31T09:43:31Z</time>
      </trkpt>
      <trkpt lat="48.62953" lon="1.98773">
        <ele>109</ele>
        <time>2020-05-31T09:43:33Z</time>
      </trkpt>
      <trkpt lat="48.62955" lon="1.98768">
        <ele>109</ele>
        <time>2020-05-31T09:43:35Z</time>
      </trkpt>
      <trkpt lat="48.62957" lon="1.98764">
        <ele>109</ele>
        <time>2020-05-31T09:43:37Z</time>
      </trkpt>
      <trkpt lat="48.62958" lon="1.9876">
        <ele>109</ele>
        <time>2020-05-31T09:43:39Z</time>
      </trkpt>
      <trkpt lat="48.62959" lon="1.98755">
        <ele>109</ele>
        <time>2020-05-31T09:43:41Z</time>
      </trkpt>
      <trkpt lat="48.62961" lon="1.98751">
        <ele>109</ele>
        <time>2020-05-31T09:43:43Z</time>
      </trkpt>
      <trkpt lat="48.62963" lon="1.98747">
        <ele>109</ele>
        <time>2020-05-31T09:43:45Z</time>
      </trkpt>
      <trkpt lat="48.62964" lon="1.98744">
        <ele>109</ele>
        <time>2020-05-31T09:43:47Z</time>
      </trkpt>
      <trkpt lat="48.62966" lon="1.9874">
        <ele>109</ele>
        <time>2020-05-31T09:43:49Z</time>
      </trkpt>
      <trkpt lat="48.62967" lon="1.98736">
        <ele>109</ele>
        <time>2020-05-31T09:43:51Z</time>
      </trkpt>
      <trkpt lat="48.62969" lon="1.98731">
        <ele>109</ele>
        <time>2020-05-31T09:43:53Z</time>
      </trkpt>
      <trkpt lat="48.6297" lon="1.98726">
        <ele>109</ele>
        <time>2020-05-31T09:43:55Z</time>
      </trkpt>
      <trkpt lat="48.62972" lon="1.98722">
        <ele>109</ele>
        <time>2020-05-31T09:43:57Z</time>
      </trkpt>
      <trkpt lat="48.62974" lon="1.98717">
        <ele>109</ele>
        <time>2020-05-31T09:43:59Z</time>
      </trkpt>
      <trkpt lat="48.62975" lon="1.98713">
        <ele>109</ele>
        <time>2020-05-31T09:44:01Z</time>
      </trkpt>
      <trkpt lat="48.62977" lon="1.98709">
        <ele>109</ele>
        <time>2020-05-31T09:44:03Z</time>
      </trkpt>
      <trkpt lat="48.62978" lon="1.98704">
        <ele>109</ele>
        <time>2020-05-31T09:44:05Z</time>
      </trkpt>
      <trkpt lat="48.62979" lon="1.987">
        <ele>109</ele>
        <time>2020-05-31T09:44:07Z</time>
      </trkpt>
      <trkpt lat="48.62981" lon="1.98695">
        <ele>109</ele>
        <time>2020-05-31T09:44:09Z</time>
      </trkpt>
      <trkpt lat="48.62982" lon="1.98691">
        <ele>109</ele>
        <time>2020-05-31T09:44:11Z</time>
      </trkpt>
      <trkpt lat="48.62984" lon="1.98686">
        <ele>109</ele>
        <time>2020-05-31T09:44:13Z</time>
      </trkpt>
      <trkpt lat="48.62985" lon="1.98684">
        <ele>109</ele>
        <time>2020-05-31T09:44:14Z</time>
      </trkpt>
      <trkpt lat="48.62987" lon="1.9868">
        <ele>109</ele>
        <time>2020-05-31T09:44:16Z</time>
      </trkpt>
      <trkpt lat="48.62988" lon="1.98676">
        <ele>109</ele>
        <time>2020-05-31T09:44:18Z</time>
      </trkpt>
      <trkpt lat="48.6299" lon="1.98672">
        <ele>109</ele>
        <time>2020-05-31T09:44:20Z</time>
      </trkpt>
      <trkpt lat="48.62992" lon="1.98668">
        <ele>109</ele>
        <time>2020-05-31T09:44:22Z</time>
      </trkpt>
      <trkpt lat="48.62993" lon="1.98664">
        <ele>109</ele>
        <time>2020-05-31T09:44:24Z</time>
      </trkpt>
      <trkpt lat="48.62994" lon="1.9866">
        <ele>109</ele>
        <time>2020-05-31T09:44:26Z</time>
      </trkpt>
      <trkpt lat="48.62996" lon="1.98656">
        <ele>109</ele>
        <time>2020-05-31T09:44:28Z</time>
      </trkpt>
      <trkpt lat="48.62998" lon="1.98652">
        <ele>109</ele>
        <time>2020-05-31T09:44:30Z</time>
      </trkpt>
      <trkpt lat="48.62998" lon="1.98649">
        <ele>109</ele>
        <time>2020-05-31T09:44:32Z</time>
      </trkpt>
      <trkpt lat="48.63" lon="1.98646">
        <ele>109</ele>
        <time>2020-05-31T09:44:34Z</time>
      </trkpt>
      <trkpt lat="48.63001" lon="1.98642">
        <ele>109</ele>
        <time>2020-05-31T09:44:36Z</time>
      </trkpt>
      <trkpt lat="48.63002" lon="1.98637">
        <ele>109</ele>
        <time>2020-05-31T09:44:38Z</time>
      </trkpt>
      <trkpt lat="48.63003" lon="1.98633">
        <ele>109</ele>
        <time>2020-05-31T09:44:40Z</time>
      </trkpt>
      <trkpt lat="48.63004" lon="1.98629">
        <ele>109</ele>
        <time>2020-05-31T09:44:42Z</time>
      </trkpt>
      <trkpt lat="48.63006" lon="1.98626">
        <ele>109</ele>
        <time>2020-05-31T09:44:44Z</time>
      </trkpt>
      <trkpt lat="48.63007" lon="1.98622">
        <ele>109</ele>
        <time>2020-05-31T09:44:46Z</time>
      </trkpt>
      <trkpt lat="48.63007" lon="1.98619">
        <ele>109</ele>
        <time>2020-05-31T09:44:48Z</time>
      </trkpt>
      <trkpt lat="48.63008" lon="1.98614">
        <ele>109</ele>
        <time>2020-05-31T09:44:50Z</time>
      </trkpt>
      <trkpt lat="48.63008" lon="1.98609">
        <ele>109</ele>
        <time>2020-05-31T09:44:52Z</time>
      </trkpt>
      <trkpt lat="48.63009" lon="1.98605">
        <ele>109</ele>
        <time>2020-05-31T09:44:54Z</time>
      </trkpt>
      <trkpt lat="48.63009" lon="1.986">
        <ele>109</ele>
        <time>2020-05-31T09:44:56Z</time>
      </trkpt>
      <trkpt lat="48.63011" lon="1.98596">
        <ele>109</ele>
        <time>2020-05-31T09:44:58Z</time>
      </trkpt>
      <trkpt lat="48.63012" lon="1.98592">
        <ele>109</ele>
        <time>2020-05-31T09:45:00Z</time>
      </trkpt>
      <trkpt lat="48.63013" lon="1.98588">
        <ele>109</ele>
        <time>2020-05-31T09:45:02Z</time>
      </trkpt>
      <trkpt lat="48.63014" lon="1.98584">
        <ele>109</ele>
        <time>2020-05-31T09:45:04Z</time>
      </trkpt>
      <trkpt lat="48.63014" lon="1.9858">
        <ele>110</ele>
        <time>2020-05-31T09:45:06Z</time>
      </trkpt>
      <trkpt lat="48.63014" lon="1.98575">
        <ele>109</ele>
        <time>2020-05-31T09:45:08Z</time>
      </trkpt>
      <trkpt lat="48.63015" lon="1.98571">
        <ele>110</ele>
        <time>2020-05-31T09:45:10Z</time>
      </trkpt>
      <trkpt lat="48.63016" lon="1.98567">
        <ele>110</ele>
        <time>2020-05-31T09:45:12Z</time>
      </trkpt>
      <trkpt lat="48.63017" lon="1.98563">
        <ele>110</ele>
        <time>2020-05-31T09:45:14Z</time>
      </trkpt>
      <trkpt lat="48.63018" lon="1.98558">
        <ele>110</ele>
        <time>2020-05-31T09:45:16Z</time>
      </trkpt>
      <trkpt lat="48.63018" lon="1.98553">
        <ele>110</ele>
        <time>2020-05-31T09:45:18Z</time>
      </trkpt>
      <trkpt lat="48.63019" lon="1.98549">
        <ele>110</ele>
        <time>2020-05-31T09:45:20Z</time>
      </trkpt>
      <trkpt lat="48.6302" lon="1.98544">
        <ele>110</ele>
        <time>2020-05-31T09:45:22Z</time>
      </trkpt>
      <trkpt lat="48.63021" lon="1.98539">
        <ele>109</ele>
        <time>2020-05-31T09:45:24Z</time>
      </trkpt>
      <trkpt lat="48.63022" lon="1.98534">
        <ele>109</ele>
        <time>2020-05-31T09:45:26Z</time>
      </trkpt>
      <trkpt lat="48.63023" lon="1.9853">
        <ele>109</ele>
        <time>2020-05-31T09:45:28Z</time>
      </trkpt>
      <trkpt lat="48.63024" lon="1.98525">
        <ele>109</ele>
        <time>2020-05-31T09:45:30Z</time>
      </trkpt>
      <trkpt lat="48.63026" lon="1.98521">
        <ele>109</ele>
        <time>2020-05-31T09:45:32Z</time>
      </trkpt>
      <trkpt lat="48.63027" lon="1.98517">
        <ele>109</ele>
        <time>2020-05-31T09:45:34Z</time>
      </trkpt>
      <trkpt lat="48.63028" lon="1.98513">
        <ele>109</ele>
        <time>2020-05-31T09:45:36Z</time>
      </trkpt>
      <trkpt lat="48.63029" lon="1.9851">
        <ele>109</ele>
        <time>2020-05-31T09:45:37Z</time>
      </trkpt>
      <trkpt lat="48.6303" lon="1.98505">
        <ele>109</ele>
        <time>2020-05-31T09:45:39Z</time>
      </trkpt>
      <trkpt lat="48.6303" lon="1.98502">
        <ele>110</ele>
        <time>2020-05-31T09:45:40Z</time>
      </trkpt>
      <trkpt lat="48.63031" lon="1.98497">
        <ele>110</ele>
        <time>2020-05-31T09:45:42Z</time>
      </trkpt>
      <trkpt lat="48.63032" lon="1.98493">
        <ele>110</ele>
        <time>2020-05-31T09:45:44Z</time>
      </trkpt>
      <trkpt lat="48.63032" lon="1.98488">
        <ele>110</ele>
        <time>2020-05-31T09:45:46Z</time>
      </trkpt>
      <trkpt lat="48.63032" lon="1.98484">
        <ele>110</ele>
        <time>2020-05-31T09:45:48Z</time>
      </trkpt>
      <trkpt lat="48.63032" lon="1.98479">
        <ele>110</ele>
        <time>2020-05-31T09:45:50Z</time>
      </trkpt>
      <trkpt lat="48.63032" lon="1.98475">
        <ele>110</ele>
        <time>2020-05-31T09:45:52Z</time>
      </trkpt>
      <trkpt lat="48.63031" lon="1.9847">
        <ele>110</ele>
        <time>2020-05-31T09:45:54Z</time>
      </trkpt>
      <trkpt lat="48.63031" lon="1.98465">
        <ele>110</ele>
        <time>2020-05-31T09:45:56Z</time>
      </trkpt>
      <trkpt lat="48.6303" lon="1.98461">
        <ele>110</ele>
        <time>2020-05-31T09:45:58Z</time>
      </trkpt>
      <trkpt lat="48.6303" lon="1.98457">
        <ele>110</ele>
        <time>2020-05-31T09:46:00Z</time>
      </trkpt>
      <trkpt lat="48.63029" lon="1.98452">
        <ele>110</ele>
        <time>2020-05-31T09:46:02Z</time>
      </trkpt>
      <trkpt lat="48.63029" lon="1.98447">
        <ele>110</ele>
        <time>2020-05-31T09:46:04Z</time>
      </trkpt>
      <trkpt lat="48.63028" lon="1.98442">
        <ele>110</ele>
        <time>2020-05-31T09:46:06Z</time>
      </trkpt>
      <trkpt lat="48.63028" lon="1.98438">
        <ele>110</ele>
        <time>2020-05-31T09:46:08Z</time>
      </trkpt>
      <trkpt lat="48.63028" lon="1.98433">
        <ele>110</ele>
        <time>2020-05-31T09:46:10Z</time>
      </trkpt>
      <trkpt lat="48.63028" lon="1.98429">
        <ele>110</ele>
        <time>2020-05-31T09:46:12Z</time>
      </trkpt>
      <trkpt lat="48.63027" lon="1.98424">
        <ele>110</ele>
        <time>2020-05-31T09:46:14Z</time>
      </trkpt>
      <trkpt lat="48.63027" lon="1.98419">
        <ele>110</ele>
        <time>2020-05-31T09:46:16Z</time>
      </trkpt>
      <trkpt lat="48.63026" lon="1.98415">
        <ele>110</ele>
        <time>2020-05-31T09:46:18Z</time>
      </trkpt>
      <trkpt lat="48.63026" lon="1.9841">
        <ele>110</ele>
        <time>2020-05-31T09:46:20Z</time>
      </trkpt>
      <trkpt lat="48.63026" lon="1.98405">
        <ele>109</ele>
        <time>2020-05-31T09:46:22Z</time>
      </trkpt>
      <trkpt lat="48.63026" lon="1.98401">
        <ele>109</ele>
        <time>2020-05-31T09:46:24Z</time>
      </trkpt>
      <trkpt lat="48.63026" lon="1.98396">
        <ele>109</ele>
        <time>2020-05-31T09:46:26Z</time>
      </trkpt>
      <trkpt lat="48.63025" lon="1.98392">
        <ele>109</ele>
        <time>2020-05-31T09:46:28Z</time>
      </trkpt>
      <trkpt lat="48.63025" lon="1.98389">
        <ele>109</ele>
        <time>2020-05-31T09:46:30Z</time>
      </trkpt>
      <trkpt lat="48.63024" lon="1.98385">
        <ele>109</ele>
        <time>2020-05-31T09:46:32Z</time>
      </trkpt>
      <trkpt lat="48.63024" lon="1.98381">
        <ele>110</ele>
        <time>2020-05-31T09:46:34Z</time>
      </trkpt>
      <trkpt lat="48.63024" lon="1.98376">
        <ele>110</ele>
        <time>2020-05-31T09:46:36Z</time>
      </trkpt>
      <trkpt lat="48.63023" lon="1.98372">
        <ele>110</ele>
        <time>2020-05-31T09:46:38Z</time>
      </trkpt>
      <trkpt lat="48.63022" lon="1.98367">
        <ele>110</ele>
        <time>2020-05-31T09:46:40Z</time>
      </trkpt>
      <trkpt lat="48.63022" lon="1.98362">
        <ele>110</ele>
        <time>2020-05-31T09:46:42Z</time>
      </trkpt>
      <trkpt lat="48.63021" lon="1.98357">
        <ele>110</ele>
        <time>2020-05-31T09:46:44Z</time>
      </trkpt>
      <trkpt lat="48.6302" lon="1.98353">
        <ele>110</ele>
        <time>2020-05-31T09:46:46Z</time>
      </trkpt>
      <trkpt lat="48.63019" lon="1.98348">
        <ele>110</ele>
        <time>2020-05-31T09:46:48Z</time>
      </trkpt>
      <trkpt lat="48.63018" lon="1.98343">
        <ele>110</ele>
        <time>2020-05-31T09:46:50Z</time>
      </trkpt>
      <trkpt lat="48.63018" lon="1.98338">
        <ele>110</ele>
        <time>2020-05-31T09:46:52Z</time>
      </trkpt>
      <trkpt lat="48.63018" lon="1.98333">
        <ele>110</ele>
        <time>2020-05-31T09:46:54Z</time>
      </trkpt>
      <trkpt lat="48.63018" lon="1.98329">
        <ele>110</ele>
        <time>2020-05-31T09:46:56Z</time>
      </trkpt>
      <trkpt lat="48.63018" lon="1.98324">
        <ele>110</ele>
        <time>2020-05-31T09:46:58Z</time>
      </trkpt>
      <trkpt lat="48.63019" lon="1.9832">
        <ele>110</ele>
        <time>2020-05-31T09:47:00Z</time>
      </trkpt>
      <trkpt lat="48.63018" lon="1.98315">
        <ele>110</ele>
        <time>2020-05-31T09:47:02Z</time>
      </trkpt>
      <trkpt lat="48.63019" lon="1.9831">
        <ele>110</ele>
        <time>2020-05-31T09:47:04Z</time>
      </trkpt>
      <trkpt lat="48.63019" lon="1.98305">
        <ele>110</ele>
        <time>2020-05-31T09:47:06Z</time>
      </trkpt>
      <trkpt lat="48.63019" lon="1.98301">
        <ele>110</ele>
        <time>2020-05-31T09:47:08Z</time>
      </trkpt>
      <trkpt lat="48.63019" lon="1.98297">
        <ele>110</ele>
        <time>2020-05-31T09:47:10Z</time>
      </trkpt>
      <trkpt lat="48.63019" lon="1.98292">
        <ele>110</ele>
        <time>2020-05-31T09:47:12Z</time>
      </trkpt>
      <trkpt lat="48.63019" lon="1.98287">
        <ele>110</ele>
        <time>2020-05-31T09:47:14Z</time>
      </trkpt>
      <trkpt lat="48.63019" lon="1.98283">
        <ele>110</ele>
        <time>2020-05-31T09:47:16Z</time>
      </trkpt>
      <trkpt lat="48.6302" lon="1.98278">
        <ele>110</ele>
        <time>2020-05-31T09:47:18Z</time>
      </trkpt>
      <trkpt lat="48.6302" lon="1.98273">
        <ele>110</ele>
        <time>2020-05-31T09:47:20Z</time>
      </trkpt>
      <trkpt lat="48.6302" lon="1.98268">
        <ele>110</ele>
        <time>2020-05-31T09:47:22Z</time>
      </trkpt>
      <trkpt lat="48.6302" lon="1.98263">
        <ele>110</ele>
        <time>2020-05-31T09:47:24Z</time>
      </trkpt>
      <trkpt lat="48.63021" lon="1.98259">
        <ele>110</ele>
        <time>2020-05-31T09:47:26Z</time>
      </trkpt>
      <trkpt lat="48.63021" lon="1.98254">
        <ele>111</ele>
        <time>2020-05-31T09:47:28Z</time>
      </trkpt>
      <trkpt lat="48.63021" lon="1.98249">
        <ele>111</ele>
        <time>2020-05-31T09:47:30Z</time>
      </trkpt>
      <trkpt lat="48.63021" lon="1.98245">
        <ele>111</ele>
        <time>2020-05-31T09:47:32Z</time>
      </trkpt>
      <trkpt lat="48.63021" lon="1.9824">
        <ele>111</ele>
        <time>2020-05-31T09:47:34Z</time>
      </trkpt>
      <trkpt lat="48.63022" lon="1.98235">
        <ele>111</ele>
        <time>2020-05-31T09:47:36Z</time>
      </trkpt>
      <trkpt lat="48.63022" lon="1.9823">
        <ele>111</ele>
        <time>2020-05-31T09:47:38Z</time>
      </trkpt>
      <trkpt lat="48.63021" lon="1.98226">
        <ele>111</ele>
        <time>2020-05-31T09:47:40Z</time>
      </trkpt>
      <trkpt lat="48.63022" lon="1.98221">
        <ele>111</ele>
        <time>2020-05-31T09:47:42Z</time>
      </trkpt>
      <trkpt lat="48.63022" lon="1.98216">
        <ele>111</ele>
        <time>2020-05-31T09:47:44Z</time>
      </trkpt>
      <trkpt lat="48.63022" lon="1.98211">
        <ele>111</ele>
        <time>2020-05-31T09:47:46Z</time>
      </trkpt>
      <trkpt lat="48.63022" lon="1.98207">
        <ele>111</ele>
        <time>2020-05-31T09:47:48Z</time>
      </trkpt>
      <trkpt lat="48.63022" lon="1.98202">
        <ele>111</ele>
        <time>2020-05-31T09:47:50Z</time>
      </trkpt>
      <trkpt lat="48.63022" lon="1.98197">
        <ele>111</ele>
        <time>2020-05-31T09:47:52Z</time>
      </trkpt>
      <trkpt lat="48.63022" lon="1.98193">
        <ele>111</ele>
        <time>2020-05-31T09:47:54Z</time>
      </trkpt>
      <trkpt lat="48.63021" lon="1.9819">
        <ele>111</ele>
        <time>2020-05-31T09:47:56Z</time>
      </trkpt>
      <trkpt lat="48.6302" lon="1.98186">
        <ele>111</ele>
        <time>2020-05-31T09:47:58Z</time>
      </trkpt>
      <trkpt lat="48.63018" lon="1.98182">
        <ele>111</ele>
        <time>2020-05-31T09:48:00Z</time>
      </trkpt>
      <trkpt lat="48.63017" lon="1.98179">
        <ele>111</ele>
        <time>2020-05-31T09:48:02Z</time>
      </trkpt>
      <trkpt lat="48.63015" lon="1.98175">
        <ele>112</ele>
        <time>2020-05-31T09:48:04Z</time>
      </trkpt>
      <trkpt lat="48.63012" lon="1.98172">
        <ele>112</ele>
        <time>2020-05-31T09:48:06Z</time>
      </trkpt>
      <trkpt lat="48.6301" lon="1.98169">
        <ele>112</ele>
        <time>2020-05-31T09:48:08Z</time>
      </trkpt>
      <trkpt lat="48.63008" lon="1.98167">
        <ele>112</ele>
        <time>2020-05-31T09:48:10Z</time>
      </trkpt>
      <trkpt lat="48.63006" lon="1.98164">
        <ele>112</ele>
        <time>2020-05-31T09:48:12Z</time>
      </trkpt>
      <trkpt lat="48.63003" lon="1.98161">
        <ele>112</ele>
        <time>2020-05-31T09:48:14Z</time>
      </trkpt>
      <trkpt lat="48.63001" lon="1.98158">
        <ele>113</ele>
        <time>2020-05-31T09:48:16Z</time>
      </trkpt>
      <trkpt lat="48.62998" lon="1.98155">
        <ele>113</ele>
        <time>2020-05-31T09:48:18Z</time>
      </trkpt>
      <trkpt lat="48.62995" lon="1.98152">
        <ele>113</ele>
        <time>2020-05-31T09:48:20Z</time>
      </trkpt>
      <trkpt lat="48.62994" lon="1.98148">
        <ele>113</ele>
        <time>2020-05-31T09:48:22Z</time>
      </trkpt>
      <trkpt lat="48.62993" lon="1.98144">
        <ele>113</ele>
        <time>2020-05-31T09:48:24Z</time>
      </trkpt>
      <trkpt lat="48.62992" lon="1.98139">
        <ele>114</ele>
        <time>2020-05-31T09:48:26Z</time>
      </trkpt>
      <trkpt lat="48.62991" lon="1.98135">
        <ele>114</ele>
        <time>2020-05-31T09:48:28Z</time>
      </trkpt>
      <trkpt lat="48.62991" lon="1.9813">
        <ele>114</ele>
        <time>2020-05-31T09:48:30Z</time>
      </trkpt>
      <trkpt lat="48.6299" lon="1.98126">
        <ele>114</ele>
        <time>2020-05-31T09:48:32Z</time>
      </trkpt>
      <trkpt lat="48.62989" lon="1.98121">
        <ele>114</ele>
        <time>2020-05-31T09:48:34Z</time>
      </trkpt>
      <trkpt lat="48.62988" lon="1.98117">
        <ele>114</ele>
        <time>2020-05-31T09:48:36Z</time>
      </trkpt>
      <trkpt lat="48.62987" lon="1.98113">
        <ele>114</ele>
        <time>2020-05-31T09:48:38Z</time>
      </trkpt>
      <trkpt lat="48.62986" lon="1.98109">
        <ele>114</ele>
        <time>2020-05-31T09:48:40Z</time>
      </trkpt>
      <trkpt lat="48.62985" lon="1.98104">
        <ele>115</ele>
        <time>2020-05-31T09:48:42Z</time>
      </trkpt>
      <trkpt lat="48.62984" lon="1.981">
        <ele>115</ele>
        <time>2020-05-31T09:48:44Z</time>
      </trkpt>
      <trkpt lat="48.62983" lon="1.98096">
        <ele>115</ele>
        <time>2020-05-31T09:48:46Z</time>
      </trkpt>
      <trkpt lat="48.62982" lon="1.98091">
        <ele>115</ele>
        <time>2020-05-31T09:48:48Z</time>
      </trkpt>
      <trkpt lat="48.62981" lon="1.98087">
        <ele>115</ele>
        <time>2020-05-31T09:48:50Z</time>
      </trkpt>
      <trkpt lat="48.6298" lon="1.98084">
        <ele>115</ele>
        <time>2020-05-31T09:48:52Z</time>
      </trkpt>
      <trkpt lat="48.62978" lon="1.9808">
        <ele>115</ele>
        <time>2020-05-31T09:48:54Z</time>
      </trkpt>
      <trkpt lat="48.62977" lon="1.98077">
        <ele>115</ele>
        <time>2020-05-31T09:48:56Z</time>
      </trkpt>
      <trkpt lat="48.62975" lon="1.98073">
        <ele>115</ele>
        <time>2020-05-31T09:48:58Z</time>
      </trkpt>
      <trkpt lat="48.62974" lon="1.9807">
        <ele>115</ele>
        <time>2020-05-31T09:49:00Z</time>
      </trkpt>
      <trkpt lat="48.62972" lon="1.98067">
        <ele>116</ele>
        <time>2020-05-31T09:49:02Z</time>
      </trkpt>
      <trkpt lat="48.6297" lon="1.98063">
        <ele>116</ele>
        <time>2020-05-31T09:49:04Z</time>
      </trkpt>
      <trkpt lat="48.62969" lon="1.9806">
        <ele>116</ele>
        <time>2020-05-31T09:49:06Z</time>
      </trkpt>
      <trkpt lat="48.62967" lon="1.98056">
        <ele>116</ele>
        <time>2020-05-31T09:49:08Z</time>
      </trkpt>
      <trkpt lat="48.62964" lon="1.98053">
        <ele>116</ele>
        <time>2020-05-31T09:49:10Z</time>
      </trkpt>
      <trkpt lat="48.62961" lon="1.9805">
        <ele>116</ele>
        <time>2020-05-31T09:49:12Z</time>
      </trkpt>
      <trkpt lat="48.62958" lon="1.98049">
        <ele>117</ele>
        <time>2020-05-31T09:49:14Z</time>
      </trkpt>
      <trkpt lat="48.62955" lon="1.98048">
        <ele>117</ele>
        <time>2020-05-31T09:49:16Z</time>
      </trkpt>
      <trkpt lat="48.62951" lon="1.98047">
        <ele>117</ele>
        <time>2020-05-31T09:49:18Z</time>
      </trkpt>
      <trkpt lat="48.62948" lon="1.98047">
        <ele>117</ele>
        <time>2020-05-31T09:49:20Z</time>
      </trkpt>
      <trkpt lat="48.62945" lon="1.98047">
        <ele>117</ele>
        <time>2020-05-31T09:49:22Z</time>
      </trkpt>
      <trkpt lat="48.62942" lon="1.98047">
        <ele>118</ele>
        <time>2020-05-31T09:49:24Z</time>
      </trkpt>
      <trkpt lat="48.62939" lon="1.98046">
        <ele>118</ele>
        <time>2020-05-31T09:49:26Z</time>
      </trkpt>
      <trkpt lat="48.62936" lon="1.98045">
        <ele>118</ele>
        <time>2020-05-31T09:49:28Z</time>
      </trkpt>
      <trkpt lat="48.62933" lon="1.98044">
        <ele>118</ele>
        <time>2020-05-31T09:49:30Z</time>
      </trkpt>
      <trkpt lat="48.6293" lon="1.98043">
        <ele>118</ele>
        <time>2020-05-31T09:49:32Z</time>
      </trkpt>
      <trkpt lat="48.62927" lon="1.98043">
        <ele>118</ele>
        <time>2020-05-31T09:49:34Z</time>
      </trkpt>
      <trkpt lat="48.62924" lon="1.98043">
        <ele>118</ele>
        <time>2020-05-31T09:49:36Z</time>
      </trkpt>
      <trkpt lat="48.62921" lon="1.98042">
        <ele>118</ele>
        <time>2020-05-31T09:49:38Z</time>
      </trkpt>
      <trkpt lat="48.62918" lon="1.98041">
        <ele>118</ele>
        <time>2020-05-31T09:49:40Z</time>
      </trkpt>
      <trkpt lat="48.62915" lon="1.9804">
        <ele>118</ele>
        <time>2020-05-31T09:49:42Z</time>
      </trkpt>
      <trkpt lat="48.62912" lon="1.98039">
        <ele>118</ele>
        <time>2020-05-31T09:49:44Z</time>
      </trkpt>
      <trkpt lat="48.62909" lon="1.98039">
        <ele>118</ele>
        <time>2020-05-31T09:49:46Z</time>
      </trkpt>
      <trkpt lat="48.62906" lon="1.98037">
        <ele>118</ele>
        <time>2020-05-31T09:49:48Z</time>
      </trkpt>
      <trkpt lat="48.62903" lon="1.98036">
        <ele>118</ele>
        <time>2020-05-31T09:49:50Z</time>
      </trkpt>
      <trkpt lat="48.629" lon="1.98035">
        <ele>118</ele>
        <time>2020-05-31T09:49:52Z</time>
      </trkpt>
      <trkpt lat="48.62897" lon="1.98034">
        <ele>119</ele>
        <time>2020-05-31T09:49:54Z</time>
      </trkpt>
      <trkpt lat="48.62895" lon="1.98032">
        <ele>119</ele>
        <time>2020-05-31T09:49:56Z</time>
      </trkpt>
      <trkpt lat="48.62894" lon="1.98029">
        <ele>119</ele>
        <time>2020-05-31T09:49:58Z</time>
      </trkpt>
      <trkpt lat="48.62893" lon="1.98025">
        <ele>119</ele>
        <time>2020-05-31T09:50:00Z</time>
      </trkpt>
      <trkpt lat="48.62893" lon="1.9802">
        <ele>119</ele>
        <time>2020-05-31T09:50:02Z</time>
      </trkpt>
      <trkpt lat="48.62894" lon="1.98016">
        <ele>119</ele>
        <time>2020-05-31T09:50:04Z</time>
      </trkpt>
      <trkpt lat="48.62895" lon="1.98011">
        <ele>119</ele>
        <time>2020-05-31T09:50:06Z</time>
      </trkpt>
      <trkpt lat="48.62896" lon="1.98007">
        <ele>119</ele>
        <time>2020-05-31T09:50:08Z</time>
      </trkpt>
      <trkpt lat="48.62897" lon="1.98003">
        <ele>119</ele>
        <time>2020-05-31T09:50:10Z</time>
      </trkpt>
      <trkpt lat="48.62898" lon="1.97999">
        <ele>119</ele>
        <time>2020-05-31T09:50:12Z</time>
      </trkpt>
      <trkpt lat="48.62899" lon="1.97994">
        <ele>119</ele>
        <time>2020-05-31T09:50:14Z</time>
      </trkpt>
      <trkpt lat="48.629" lon="1.97989">
        <ele>119</ele>
        <time>2020-05-31T09:50:16Z</time>
      </trkpt>
      <trkpt lat="48.629" lon="1.97984">
        <ele>119</ele>
        <time>2020-05-31T09:50:18Z</time>
      </trkpt>
      <trkpt lat="48.62901" lon="1.9798">
        <ele>119</ele>
        <time>2020-05-31T09:50:20Z</time>
      </trkpt>
      <trkpt lat="48.62902" lon="1.97975">
        <ele>119</ele>
        <time>2020-05-31T09:50:22Z</time>
      </trkpt>
      <trkpt lat="48.62903" lon="1.97971">
        <ele>119</ele>
        <time>2020-05-31T09:50:24Z</time>
      </trkpt>
      <trkpt lat="48.62903" lon="1.97966">
        <ele>119</ele>
        <time>2020-05-31T09:50:26Z</time>
      </trkpt>
      <trkpt lat="48.62904" lon="1.97962">
        <ele>120</ele>
        <time>2020-05-31T09:50:28Z</time>
      </trkpt>
      <trkpt lat="48.62904" lon="1.97958">
        <ele>120</ele>
        <time>2020-05-31T09:50:30Z</time>
      </trkpt>
      <trkpt lat="48.62905" lon="1.97953">
        <ele>120</ele>
        <time>2020-05-31T09:50:32Z</time>
      </trkpt>
      <trkpt lat="48.62905" lon="1.97949">
        <ele>120</ele>
        <time>2020-05-31T09:50:34Z</time>
      </trkpt>
      <trkpt lat="48.62906" lon="1.97945">
        <ele>120</ele>
        <time>2020-05-31T09:50:36Z</time>
      </trkpt>
      <trkpt lat="48.62907" lon="1.97941">
        <ele>120</ele>
        <time>2020-05-31T09:50:38Z</time>
      </trkpt>
      <trkpt lat="48.62907" lon="1.97937">
        <ele>120</ele>
        <time>2020-05-31T09:50:40Z</time>
      </trkpt>
      <trkpt lat="48.62908" lon="1.97932">
        <ele>120</ele>
        <time>2020-05-31T09:50:42Z</time>
      </trkpt>
      <trkpt lat="48.62909" lon="1.97928">
        <ele>120</ele>
        <time>2020-05-31T09:50:44Z</time>
      </trkpt>
      <trkpt lat="48.62909" lon="1.97924">
        <ele>120</ele>
        <time>2020-05-31T09:50:46Z</time>
      </trkpt>
      <trkpt lat="48.6291" lon="1.9792">
        <ele>120</ele>
        <time>2020-05-31T09:50:48Z</time>
      </trkpt>
      <trkpt lat="48.6291" lon="1.97916">
        <ele>121</ele>
        <time>2020-05-31T09:50:50Z</time>
      </trkpt>
      <trkpt lat="48.62911" lon="1.97912">
        <ele>121</ele>
        <time>2020-05-31T09:50:52Z</time>
      </trkpt>
      <trkpt lat="48.62911" lon="1.97908">
        <ele>121</ele>
        <time>2020-05-31T09:50:54Z</time>
      </trkpt>
      <trkpt lat="48.62912" lon="1.97904">
        <ele>121</ele>
        <time>2020-05-31T09:50:56Z</time>
      </trkpt>
      <trkpt lat="48.62913" lon="1.97901">
        <ele>121</ele>
        <time>2020-05-31T09:50:58Z</time>
      </trkpt>
      <trkpt lat="48.62913" lon="1.97897">
        <ele>121</ele>
        <time>2020-05-31T09:51:00Z</time>
      </trkpt>
      <trkpt lat="48.62914" lon="1.97893">
        <ele>121</ele>
        <time>2020-05-31T09:51:02Z</time>
      </trkpt>
      <trkpt lat="48.62915" lon="1.97889">
        <ele>121</ele>
        <time>2020-05-31T09:51:04Z</time>
      </trkpt>
      <trkpt lat="48.62916" lon="1.97884">
        <ele>121</ele>
        <time>2020-05-31T09:51:06Z</time>
      </trkpt>
      <trkpt lat="48.62916" lon="1.9788">
        <ele>121</ele>
        <time>2020-05-31T09:51:08Z</time>
      </trkpt>
      <trkpt lat="48.62917" lon="1.97876">
        <ele>121</ele>
        <time>2020-05-31T09:51:10Z</time>
      </trkpt>
      <trkpt lat="48.62918" lon="1.97871">
        <ele>121</ele>
        <time>2020-05-31T09:51:12Z</time>
      </trkpt>
      <trkpt lat="48.62919" lon="1.97868">
        <ele>121</ele>
        <time>2020-05-31T09:51:14Z</time>
      </trkpt>
      <trkpt lat="48.62919" lon="1.97864">
        <ele>121</ele>
        <time>2020-05-31T09:51:16Z</time>
      </trkpt>
      <trkpt lat="48.6292" lon="1.9786">
        <ele>121</ele>
        <time>2020-05-31T09:51:18Z</time>
      </trkpt>
      <trkpt lat="48.6292" lon="1.97856">
        <ele>122</ele>
        <time>2020-05-31T09:51:20Z</time>
      </trkpt>
      <trkpt lat="48.62921" lon="1.97852">
        <ele>122</ele>
        <time>2020-05-31T09:51:22Z</time>
      </trkpt>
      <trkpt lat="48.62922" lon="1.97847">
        <ele>122</ele>
        <time>2020-05-31T09:51:24Z</time>
      </trkpt>
      <trkpt lat="48.62923" lon="1.97843">
        <ele>122</ele>
        <time>2020-05-31T09:51:26Z</time>
      </trkpt>
      <trkpt lat="48.62923" lon="1.9784">
        <ele>122</ele>
        <time>2020-05-31T09:51:29Z</time>
      </trkpt>
      <trkpt lat="48.62924" lon="1.97836">
        <ele>122</ele>
        <time>2020-05-31T09:51:31Z</time>
      </trkpt>
      <trkpt lat="48.62924" lon="1.97832">
        <ele>122</ele>
        <time>2020-05-31T09:51:33Z</time>
      </trkpt>
      <trkpt lat="48.62925" lon="1.97827">
        <ele>122</ele>
        <time>2020-05-31T09:51:35Z</time>
      </trkpt>
      <trkpt lat="48.62926" lon="1.97822">
        <ele>122</ele>
        <time>2020-05-31T09:51:37Z</time>
      </trkpt>
      <trkpt lat="48.62926" lon="1.97818">
        <ele>122</ele>
        <time>2020-05-31T09:51:39Z</time>
      </trkpt>
      <trkpt lat="48.62927" lon="1.97814">
        <ele>123</ele>
        <time>2020-05-31T09:51:41Z</time>
      </trkpt>
      <trkpt lat="48.62927" lon="1.9781">
        <ele>123</ele>
        <time>2020-05-31T09:51:43Z</time>
      </trkpt>
      <trkpt lat="48.62928" lon="1.97807">
        <ele>123</ele>
        <time>2020-05-31T09:51:45Z</time>
      </trkpt>
      <trkpt lat="48.62928" lon="1.97802">
        <ele>123</ele>
        <time>2020-05-31T09:51:47Z</time>
      </trkpt>
      <trkpt lat="48.62929" lon="1.97798">
        <ele>123</ele>
        <time>2020-05-31T09:51:49Z</time>
      </trkpt>
      <trkpt lat="48.6293" lon="1.97794">
        <ele>123</ele>
        <time>2020-05-31T09:51:51Z</time>
      </trkpt>
      <trkpt lat="48.6293" lon="1.9779">
        <ele>123</ele>
        <time>2020-05-31T09:51:53Z</time>
      </trkpt>
      <trkpt lat="48.62931" lon="1.97786">
        <ele>123</ele>
        <time>2020-05-31T09:51:55Z</time>
      </trkpt>
      <trkpt lat="48.62932" lon="1.97782">
        <ele>123</ele>
        <time>2020-05-31T09:51:57Z</time>
      </trkpt>
      <trkpt lat="48.62932" lon="1.97779">
        <ele>123</ele>
        <time>2020-05-31T09:51:59Z</time>
      </trkpt>
      <trkpt lat="48.62933" lon="1.97775">
        <ele>123</ele>
        <time>2020-05-31T09:52:01Z</time>
      </trkpt>
      <trkpt lat="48.62933" lon="1.97771">
        <ele>124</ele>
        <time>2020-05-31T09:52:03Z</time>
      </trkpt>
      <trkpt lat="48.62934" lon="1.97767">
        <ele>124</ele>
        <time>2020-05-31T09:52:05Z</time>
      </trkpt>
      <trkpt lat="48.62934" lon="1.97763">
        <ele>124</ele>
        <time>2020-05-31T09:52:07Z</time>
      </trkpt>
      <trkpt lat="48.62934" lon="1.97759">
        <ele>124</ele>
        <time>2020-05-31T09:52:09Z</time>
      </trkpt>
      <trkpt lat="48.62935" lon="1.97755">
        <ele>124</ele>
        <time>2020-05-31T09:52:11Z</time>
      </trkpt>
      <trkpt lat="48.62936" lon="1.97751">
        <ele>124</ele>
        <time>2020-05-31T09:52:13Z</time>
      </trkpt>
      <trkpt lat="48.62936" lon="1.97747">
        <ele>124</ele>
        <time>2020-05-31T09:52:15Z</time>
      </trkpt>
      <trkpt lat="48.62937" lon="1.97743">
        <ele>124</ele>
        <time>2020-05-31T09:52:17Z</time>
      </trkpt>
      <trkpt lat="48.62937" lon="1.97738">
        <ele>124</ele>
        <time>2020-05-31T09:52:19Z</time>
      </trkpt>
      <trkpt lat="48.62938" lon="1.97734">
        <ele>124</ele>
        <time>2020-05-31T09:52:21Z</time>
      </trkpt>
      <trkpt lat="48.62939" lon="1.9773">
        <ele>124</ele>
        <time>2020-05-31T09:52:23Z</time>
      </trkpt>
      <trkpt lat="48.6294" lon="1.97726">
        <ele>124</ele>
        <time>2020-05-31T09:52:25Z</time>
      </trkpt>
      <trkpt lat="48.6294" lon="1.97722">
        <ele>124</ele>
        <time>2020-05-31T09:52:27Z</time>
      </trkpt>
      <trkpt lat="48.6294" lon="1.97718">
        <ele>124</ele>
        <time>2020-05-31T09:52:29Z</time>
      </trkpt>
      <trkpt lat="48.62941" lon="1.97713">
        <ele>124</ele>
        <time>2020-05-31T09:52:31Z</time>
      </trkpt>
      <trkpt lat="48.62941" lon="1.97709">
        <ele>124</ele>
        <time>2020-05-31T09:52:33Z</time>
      </trkpt>
      <trkpt lat="48.62942" lon="1.97705">
        <ele>124</ele>
        <time>2020-05-31T09:52:35Z</time>
      </trkpt>
      <trkpt lat="48.62943" lon="1.977">
        <ele>124</ele>
        <time>2020-05-31T09:52:37Z</time>
      </trkpt>
      <trkpt lat="48.62943" lon="1.97696">
        <ele>124</ele>
        <time>2020-05-31T09:52:39Z</time>
      </trkpt>
      <trkpt lat="48.62944" lon="1.97692">
        <ele>124</ele>
        <time>2020-05-31T09:52:41Z</time>
      </trkpt>
      <trkpt lat="48.62945" lon="1.97687">
        <ele>123</ele>
        <time>2020-05-31T09:52:43Z</time>
      </trkpt>
      <trkpt lat="48.62946" lon="1.97683">
        <ele>123</ele>
        <time>2020-05-31T09:52:45Z</time>
      </trkpt>
      <trkpt lat="48.62946" lon="1.97679">
        <ele>124</ele>
        <time>2020-05-31T09:52:47Z</time>
      </trkpt>
      <trkpt lat="48.62947" lon="1.97675">
        <ele>124</ele>
        <time>2020-05-31T09:52:49Z</time>
      </trkpt>
      <trkpt lat="48.62947" lon="1.97671">
        <ele>124</ele>
        <time>2020-05-31T09:52:51Z</time>
      </trkpt>
      <trkpt lat="48.62948" lon="1.97666">
        <ele>124</ele>
        <time>2020-05-31T09:52:53Z</time>
      </trkpt>
      <trkpt lat="48.62949" lon="1.97662">
        <ele>124</ele>
        <time>2020-05-31T09:52:55Z</time>
      </trkpt>
      <trkpt lat="48.6295" lon="1.97658">
        <ele>124</ele>
        <time>2020-05-31T09:52:57Z</time>
      </trkpt>
      <trkpt lat="48.6295" lon="1.97654">
        <ele>124</ele>
        <time>2020-05-31T09:52:59Z</time>
      </trkpt>
      <trkpt lat="48.62951" lon="1.9765">
        <ele>124</ele>
        <time>2020-05-31T09:53:01Z</time>
      </trkpt>
      <trkpt lat="48.62952" lon="1.97645">
        <ele>124</ele>
        <time>2020-05-31T09:53:03Z</time>
      </trkpt>
      <trkpt lat="48.62952" lon="1.97641">
        <ele>124</ele>
        <time>2020-05-31T09:53:05Z</time>
      </trkpt>
      <trkpt lat="48.62953" lon="1.97637">
        <ele>124</ele>
        <time>2020-05-31T09:53:07Z</time>
      </trkpt>
      <trkpt lat="48.62953" lon="1.97633">
        <ele>123</ele>
        <time>2020-05-31T09:53:09Z</time>
      </trkpt>
      <trkpt lat="48.62954" lon="1.97628">
        <ele>123</ele>
        <time>2020-05-31T09:53:11Z</time>
      </trkpt>
      <trkpt lat="48.62954" lon="1.97624">
        <ele>123</ele>
        <time>2020-05-31T09:53:13Z</time>
      </trkpt>
      <trkpt lat="48.62955" lon="1.9762">
        <ele>123</ele>
        <time>2020-05-31T09:53:15Z</time>
      </trkpt>
      <trkpt lat="48.62955" lon="1.97615">
        <ele>123</ele>
        <time>2020-05-31T09:53:17Z</time>
      </trkpt>
      <trkpt lat="48.62955" lon="1.97611">
        <ele>123</ele>
        <time>2020-05-31T09:53:19Z</time>
      </trkpt>
      <trkpt lat="48.62956" lon="1.97606">
        <ele>123</ele>
        <time>2020-05-31T09:53:21Z</time>
      </trkpt>
      <trkpt lat="48.62956" lon="1.97602">
        <ele>124</ele>
        <time>2020-05-31T09:53:23Z</time>
      </trkpt>
      <trkpt lat="48.62957" lon="1.97598">
        <ele>124</ele>
        <time>2020-05-31T09:53:25Z</time>
      </trkpt>
      <trkpt lat="48.62957" lon="1.97594">
        <ele>124</ele>
        <time>2020-05-31T09:53:27Z</time>
      </trkpt>
      <trkpt lat="48.62956" lon="1.97589">
        <ele>124</ele>
        <time>2020-05-31T09:53:29Z</time>
      </trkpt>
      <trkpt lat="48.62956" lon="1.97585">
        <ele>124</ele>
        <time>2020-05-31T09:53:31Z</time>
      </trkpt>
      <trkpt lat="48.62956" lon="1.9758">
        <ele>124</ele>
        <time>2020-05-31T09:53:33Z</time>
      </trkpt>
      <trkpt lat="48.62957" lon="1.97575">
        <ele>124</ele>
        <time>2020-05-31T09:53:35Z</time>
      </trkpt>
      <trkpt lat="48.62958" lon="1.97571">
        <ele>124</ele>
        <time>2020-05-31T09:53:37Z</time>
      </trkpt>
      <trkpt lat="48.62958" lon="1.97567">
        <ele>124</ele>
        <time>2020-05-31T09:53:39Z</time>
      </trkpt>
      <trkpt lat="48.62959" lon="1.97562">
        <ele>123</ele>
        <time>2020-05-31T09:53:41Z</time>
      </trkpt>
      <trkpt lat="48.62959" lon="1.97557">
        <ele>123</ele>
        <time>2020-05-31T09:53:43Z</time>
      </trkpt>
      <trkpt lat="48.62959" lon="1.97553">
        <ele>123</ele>
        <time>2020-05-31T09:53:45Z</time>
      </trkpt>
      <trkpt lat="48.62959" lon="1.97549">
        <ele>123</ele>
        <time>2020-05-31T09:53:47Z</time>
      </trkpt>
      <trkpt lat="48.6296" lon="1.97544">
        <ele>123</ele>
        <time>2020-05-31T09:53:49Z</time>
      </trkpt>
      <trkpt lat="48.62959" lon="1.97539">
        <ele>123</ele>
        <time>2020-05-31T09:53:51Z</time>
      </trkpt>
      <trkpt lat="48.62959" lon="1.97535">
        <ele>123</ele>
        <time>2020-05-31T09:53:53Z</time>
      </trkpt>
      <trkpt lat="48.62959" lon="1.9753">
        <ele>123</ele>
        <time>2020-05-31T09:53:55Z</time>
      </trkpt>
      <trkpt lat="48.62959" lon="1.97525">
        <ele>123</ele>
        <time>2020-05-31T09:53:57Z</time>
      </trkpt>
      <trkpt lat="48.6296" lon="1.9752">
        <ele>123</ele>
        <time>2020-05-31T09:53:59Z</time>
      </trkpt>
      <trkpt lat="48.6296" lon="1.97515">
        <ele>123</ele>
        <time>2020-05-31T09:54:01Z</time>
      </trkpt>
      <trkpt lat="48.6296" lon="1.9751">
        <ele>123</ele>
        <time>2020-05-31T09:54:03Z</time>
      </trkpt>
      <trkpt lat="48.62961" lon="1.97505">
        <ele>123</ele>
        <time>2020-05-31T09:54:05Z</time>
      </trkpt>
      <trkpt lat="48.62961" lon="1.975">
        <ele>123</ele>
        <time>2020-05-31T09:54:07Z</time>
      </trkpt>
      <trkpt lat="48.62961" lon="1.97495">
        <ele>123</ele>
        <time>2020-05-31T09:54:09Z</time>
      </trkpt>
      <trkpt lat="48.6296" lon="1.97491">
        <ele>123</ele>
        <time>2020-05-31T09:54:11Z</time>
      </trkpt>
      <trkpt lat="48.62961" lon="1.97486">
        <ele>123</ele>
        <time>2020-05-31T09:54:13Z</time>
      </trkpt>
      <trkpt lat="48.62961" lon="1.97481">
        <ele>123</ele>
        <time>2020-05-31T09:54:15Z</time>
      </trkpt>
      <trkpt lat="48.62962" lon="1.97476">
        <ele>123</ele>
        <time>2020-05-31T09:54:17Z</time>
      </trkpt>
      <trkpt lat="48.62962" lon="1.97471">
        <ele>123</ele>
        <time>2020-05-31T09:54:19Z</time>
      </trkpt>
      <trkpt lat="48.62963" lon="1.97466">
        <ele>123</ele>
        <time>2020-05-31T09:54:21Z</time>
      </trkpt>
      <trkpt lat="48.62964" lon="1.97461">
        <ele>124</ele>
        <time>2020-05-31T09:54:23Z</time>
      </trkpt>
      <trkpt lat="48.62964" lon="1.97457">
        <ele>124</ele>
        <time>2020-05-31T09:54:25Z</time>
      </trkpt>
      <trkpt lat="48.62964" lon="1.97452">
        <ele>124</ele>
        <time>2020-05-31T09:54:27Z</time>
      </trkpt>
      <trkpt lat="48.62963" lon="1.97448">
        <ele>124</ele>
        <time>2020-05-31T09:54:29Z</time>
      </trkpt>
      <trkpt lat="48.62964" lon="1.97443">
        <ele>124</ele>
        <time>2020-05-31T09:54:31Z</time>
      </trkpt>
      <trkpt lat="48.62964" lon="1.97439">
        <ele>124</ele>
        <time>2020-05-31T09:54:33Z</time>
      </trkpt>
      <trkpt lat="48.62963" lon="1.97435">
        <ele>124</ele>
        <time>2020-05-31T09:54:35Z</time>
      </trkpt>
      <trkpt lat="48.62963" lon="1.97431">
        <ele>124</ele>
        <time>2020-05-31T09:54:37Z</time>
      </trkpt>
      <trkpt lat="48.62963" lon="1.97426">
        <ele>124</ele>
        <time>2020-05-31T09:54:39Z</time>
      </trkpt>
      <trkpt lat="48.62963" lon="1.97421">
        <ele>124</ele>
        <time>2020-05-31T09:54:41Z</time>
      </trkpt>
      <trkpt lat="48.62964" lon="1.97417">
        <ele>124</ele>
        <time>2020-05-31T09:54:43Z</time>
      </trkpt>
      <trkpt lat="48.62965" lon="1.97413">
        <ele>125</ele>
        <time>2020-05-31T09:54:45Z</time>
      </trkpt>
      <trkpt lat="48.62966" lon="1.9741">
        <ele>125</ele>
        <time>2020-05-31T09:54:47Z</time>
      </trkpt>
      <trkpt lat="48.62967" lon="1.97406">
        <ele>125</ele>
        <time>2020-05-31T09:54:49Z</time>
      </trkpt>
      <trkpt lat="48.62967" lon="1.97403">
        <ele>125</ele>
        <time>2020-05-31T09:54:51Z</time>
      </trkpt>
      <trkpt lat="48.62969" lon="1.974">
        <ele>125</ele>
        <time>2020-05-31T09:54:53Z</time>
      </trkpt>
      <trkpt lat="48.6297" lon="1.97398">
        <ele>125</ele>
        <time>2020-05-31T09:54:54Z</time>
      </trkpt>
      <trkpt lat="48.62973" lon="1.97395">
        <ele>125</ele>
        <time>2020-05-31T09:54:56Z</time>
      </trkpt>
      <trkpt lat="48.62974" lon="1.97394">
        <ele>124</ele>
        <time>2020-05-31T09:54:57Z</time>
      </trkpt>
      <trkpt lat="48.62976" lon="1.97392">
        <ele>124</ele>
        <time>2020-05-31T09:54:58Z</time>
      </trkpt>
      <trkpt lat="48.62978" lon="1.97391">
        <ele>125</ele>
        <time>2020-05-31T09:54:59Z</time>
      </trkpt>
      <trkpt lat="48.6298" lon="1.9739">
        <ele>125</ele>
        <time>2020-05-31T09:55:01Z</time>
      </trkpt>
      <trkpt lat="48.62987" lon="1.97381">
        <ele>125</ele>
        <time>2020-05-31T09:55:08Z</time>
      </trkpt>
      <trkpt lat="48.62995" lon="1.97371">
        <ele>125</ele>
        <time>2020-05-31T09:55:15Z</time>
      </trkpt>
      <trkpt lat="48.63005" lon="1.97362">
        <ele>125</ele>
        <time>2020-05-31T09:55:22Z</time>
      </trkpt>
      <trkpt lat="48.63012" lon="1.97351">
        <ele>125</ele>
        <time>2020-05-31T09:55:28Z</time>
      </trkpt>
      <trkpt lat="48.63019" lon="1.97341">
        <ele>125</ele>
        <time>2020-05-31T09:55:34Z</time>
      </trkpt>
      <trkpt lat="48.63025" lon="1.97331">
        <ele>125</ele>
        <time>2020-05-31T09:55:39Z</time>
      </trkpt>
      <trkpt lat="48.63029" lon="1.97319">
        <ele>126</ele>
        <time>2020-05-31T09:55:46Z</time>
      </trkpt>
      <trkpt lat="48.63035" lon="1.97306">
        <ele>127</ele>
        <time>2020-05-31T09:55:52Z</time>
      </trkpt>
      <trkpt lat="48.6304" lon="1.97293">
        <ele>126</ele>
        <time>2020-05-31T09:55:58Z</time>
      </trkpt>
      <trkpt lat="48.63047" lon="1.97283">
        <ele>126</ele>
        <time>2020-05-31T09:56:03Z</time>
      </trkpt>
      <trkpt lat="48.63052" lon="1.97269">
        <ele>125</ele>
        <time>2020-05-31T09:56:10Z</time>
      </trkpt>
      <trkpt lat="48.63055" lon="1.97254">
        <ele>124</ele>
        <time>2020-05-31T09:56:17Z</time>
      </trkpt>
      <trkpt lat="48.63053" lon="1.97248">
        <ele>124</ele>
        <time>2020-05-31T09:56:19Z</time>
      </trkpt>
      <trkpt lat="48.63052" lon="1.97246">
        <ele>124</ele>
        <time>2020-05-31T09:56:20Z</time>
      </trkpt>
      <trkpt lat="48.63051" lon="1.97243">
        <ele>124</ele>
        <time>2020-05-31T09:56:21Z</time>
      </trkpt>
      <trkpt lat="48.6305" lon="1.9724">
        <ele>124</ele>
        <time>2020-05-31T09:56:22Z</time>
      </trkpt>
      <trkpt lat="48.63049" lon="1.97236">
        <ele>124</ele>
        <time>2020-05-31T09:56:24Z</time>
      </trkpt>
      <trkpt lat="48.63046" lon="1.97232">
        <ele>124</ele>
        <time>2020-05-31T09:56:26Z</time>
      </trkpt>
      <trkpt lat="48.63043" lon="1.97229">
        <ele>124</ele>
        <time>2020-05-31T09:56:28Z</time>
      </trkpt>
      <trkpt lat="48.63042" lon="1.97227">
        <ele>124</ele>
        <time>2020-05-31T09:56:29Z</time>
      </trkpt>
      <trkpt lat="48.63041" lon="1.97224">
        <ele>124</ele>
        <time>2020-05-31T09:56:31Z</time>
      </trkpt>
      <trkpt lat="48.63038" lon="1.97218">
        <ele>124</ele>
        <time>2020-05-31T09:56:34Z</time>
      </trkpt>
      <trkpt lat="48.63037" lon="1.97216">
        <ele>123</ele>
        <time>2020-05-31T09:56:36Z</time>
      </trkpt>
      <trkpt lat="48.63036" lon="1.97213">
        <ele>123</ele>
        <time>2020-05-31T09:56:38Z</time>
      </trkpt>
      <trkpt lat="48.63034" lon="1.9721">
        <ele>123</ele>
        <time>2020-05-31T09:56:40Z</time>
      </trkpt>
      <trkpt lat="48.63031" lon="1.97208">
        <ele>123</ele>
        <time>2020-05-31T09:56:42Z</time>
      </trkpt>
      <trkpt lat="48.63029" lon="1.97205">
        <ele>123</ele>
        <time>2020-05-31T09:56:44Z</time>
      </trkpt>
      <trkpt lat="48.63027" lon="1.97202">
        <ele>123</ele>
        <time>2020-05-31T09:56:46Z</time>
      </trkpt>
      <trkpt lat="48.63026" lon="1.972">
        <ele>124</ele>
        <time>2020-05-31T09:56:48Z</time>
      </trkpt>
      <trkpt lat="48.63024" lon="1.97197">
        <ele>124</ele>
        <time>2020-05-31T09:56:51Z</time>
      </trkpt>
      <trkpt lat="48.63022" lon="1.97197">
        <ele>124</ele>
        <time>2020-05-31T09:56:53Z</time>
      </trkpt>
      <trkpt lat="48.63019" lon="1.97196">
        <ele>124</ele>
        <time>2020-05-31T09:56:55Z</time>
      </trkpt>
      <trkpt lat="48.63017" lon="1.97197">
        <ele>125</ele>
        <time>2020-05-31T09:56:57Z</time>
      </trkpt>
      <trkpt lat="48.63015" lon="1.97197">
        <ele>125</ele>
        <time>2020-05-31T09:56:59Z</time>
      </trkpt>
      <trkpt lat="48.6301" lon="1.97196">
        <ele>125</ele>
        <time>2020-05-31T09:57:02Z</time>
      </trkpt>
      <trkpt lat="48.62999" lon="1.97195">
        <ele>126</ele>
        <time>2020-05-31T09:57:09Z</time>
      </trkpt>
      <trkpt lat="48.62996" lon="1.97195">
        <ele>126</ele>
        <time>2020-05-31T09:57:10Z</time>
      </trkpt>
      <trkpt lat="48.62987" lon="1.97195">
        <ele>126</ele>
        <time>2020-05-31T09:57:14Z</time>
      </trkpt>
      <trkpt lat="48.62978" lon="1.97194">
        <ele>126</ele>
        <time>2020-05-31T09:57:20Z</time>
      </trkpt>
      <trkpt lat="48.62974" lon="1.97194">
        <ele>127</ele>
        <time>2020-05-31T09:57:22Z</time>
      </trkpt>
      <trkpt lat="48.62971" lon="1.97194">
        <ele>128</ele>
        <time>2020-05-31T09:57:24Z</time>
      </trkpt>
      <trkpt lat="48.62968" lon="1.97195">
        <ele>128</ele>
        <time>2020-05-31T09:57:26Z</time>
      </trkpt>
      <trkpt lat="48.62966" lon="1.97195">
        <ele>128</ele>
        <time>2020-05-31T09:57:27Z</time>
      </trkpt>
      <trkpt lat="48.62964" lon="1.97196">
        <ele>129</ele>
        <time>2020-05-31T09:57:28Z</time>
      </trkpt>
      <trkpt lat="48.62954" lon="1.97196">
        <ele>129</ele>
        <time>2020-05-31T09:57:34Z</time>
      </trkpt>
      <trkpt lat="48.62952" lon="1.97197">
        <ele>130</ele>
        <time>2020-05-31T09:57:36Z</time>
      </trkpt>
      <trkpt lat="48.62942" lon="1.97203">
        <ele>131</ele>
        <time>2020-05-31T09:57:44Z</time>
      </trkpt>
      <trkpt lat="48.62938" lon="1.97204">
        <ele>132</ele>
        <time>2020-05-31T09:57:46Z</time>
      </trkpt>
      <trkpt lat="48.62935" lon="1.97206">
        <ele>132</ele>
        <time>2020-05-31T09:57:48Z</time>
      </trkpt>
      <trkpt lat="48.62933" lon="1.97207">
        <ele>133</ele>
        <time>2020-05-31T09:57:50Z</time>
      </trkpt>
      <trkpt lat="48.6293" lon="1.97209">
        <ele>133</ele>
        <time>2020-05-31T09:57:52Z</time>
      </trkpt>
      <trkpt lat="48.62927" lon="1.97209">
        <ele>134</ele>
        <time>2020-05-31T09:57:54Z</time>
      </trkpt>
      <trkpt lat="48.62925" lon="1.9721">
        <ele>134</ele>
        <time>2020-05-31T09:57:55Z</time>
      </trkpt>
      <trkpt lat="48.62915" lon="1.97211">
        <ele>135</ele>
        <time>2020-05-31T09:58:03Z</time>
      </trkpt>
      <trkpt lat="48.62905" lon="1.97212">
        <ele>135</ele>
        <time>2020-05-31T09:58:10Z</time>
      </trkpt>
      <trkpt lat="48.62896" lon="1.97215">
        <ele>136</ele>
        <time>2020-05-31T09:58:17Z</time>
      </trkpt>
      <trkpt lat="48.62886" lon="1.97214">
        <ele>137</ele>
        <time>2020-05-31T09:58:24Z</time>
      </trkpt>
      <trkpt lat="48.62884" lon="1.97214">
        <ele>137</ele>
        <time>2020-05-31T09:58:25Z</time>
      </trkpt>
      <trkpt lat="48.62877" lon="1.97212">
        <ele>137</ele>
        <time>2020-05-31T09:58:29Z</time>
      </trkpt>
      <trkpt lat="48.62874" lon="1.97212">
        <ele>137</ele>
        <time>2020-05-31T09:58:31Z</time>
      </trkpt>
      <trkpt lat="48.62871" lon="1.97211">
        <ele>137</ele>
        <time>2020-05-31T09:58:34Z</time>
      </trkpt>
      <trkpt lat="48.62868" lon="1.9721">
        <ele>138</ele>
        <time>2020-05-31T09:58:36Z</time>
      </trkpt>
      <trkpt lat="48.62866" lon="1.97209">
        <ele>138</ele>
        <time>2020-05-31T09:58:38Z</time>
      </trkpt>
      <trkpt lat="48.62863" lon="1.97209">
        <ele>138</ele>
        <time>2020-05-31T09:58:41Z</time>
      </trkpt>
      <trkpt lat="48.62855" lon="1.97207">
        <ele>139</ele>
        <time>2020-05-31T09:58:48Z</time>
      </trkpt>
      <trkpt lat="48.62847" lon="1.97206">
        <ele>141</ele>
        <time>2020-05-31T09:58:52Z</time>
      </trkpt>
      <trkpt lat="48.62844" lon="1.97206">
        <ele>141</ele>
        <time>2020-05-31T09:58:53Z</time>
      </trkpt>
      <trkpt lat="48.62842" lon="1.97205">
        <ele>142</ele>
        <time>2020-05-31T09:58:54Z</time>
      </trkpt>
      <trkpt lat="48.62841" lon="1.97204">
        <ele>142</ele>
        <time>2020-05-31T09:58:55Z</time>
      </trkpt>
      <trkpt lat="48.62838" lon="1.97203">
        <ele>142</ele>
        <time>2020-05-31T09:58:56Z</time>
      </trkpt>
      <trkpt lat="48.62837" lon="1.97202">
        <ele>142</ele>
        <time>2020-05-31T09:58:57Z</time>
      </trkpt>
      <trkpt lat="48.62834" lon="1.97201">
        <ele>142</ele>
        <time>2020-05-31T09:58:58Z</time>
      </trkpt>
      <trkpt lat="48.62831" lon="1.97199">
        <ele>142</ele>
        <time>2020-05-31T09:59:00Z</time>
      </trkpt>
      <trkpt lat="48.62829" lon="1.97198">
        <ele>142</ele>
        <time>2020-05-31T09:59:01Z</time>
      </trkpt>
      <trkpt lat="48.62826" lon="1.97197">
        <ele>142</ele>
        <time>2020-05-31T09:59:02Z</time>
      </trkpt>
      <trkpt lat="48.62824" lon="1.97195">
        <ele>142</ele>
        <time>2020-05-31T09:59:03Z</time>
      </trkpt>
      <trkpt lat="48.62821" lon="1.97195">
        <ele>142</ele>
        <time>2020-05-31T09:59:04Z</time>
      </trkpt>
      <trkpt lat="48.62819" lon="1.97194">
        <ele>142</ele>
        <time>2020-05-31T09:59:05Z</time>
      </trkpt>
      <trkpt lat="48.62816" lon="1.97191">
        <ele>143</ele>
        <time>2020-05-31T09:59:07Z</time>
      </trkpt>
      <trkpt lat="48.62814" lon="1.9719">
        <ele>143</ele>
        <time>2020-05-31T09:59:09Z</time>
      </trkpt>
      <trkpt lat="48.62811" lon="1.97188">
        <ele>143</ele>
        <time>2020-05-31T09:59:12Z</time>
      </trkpt>
      <trkpt lat="48.62809" lon="1.97186">
        <ele>143</ele>
        <time>2020-05-31T09:59:14Z</time>
      </trkpt>
      <trkpt lat="48.62807" lon="1.97184">
        <ele>144</ele>
        <time>2020-05-31T09:59:16Z</time>
      </trkpt>
      <trkpt lat="48.62805" lon="1.97182">
        <ele>144</ele>
        <time>2020-05-31T09:59:17Z</time>
      </trkpt>
      <trkpt lat="48.62803" lon="1.97181">
        <ele>144</ele>
        <time>2020-05-31T09:59:18Z</time>
      </trkpt>
      <trkpt lat="48.628" lon="1.97178">
        <ele>143</ele>
        <time>2020-05-31T09:59:20Z</time>
      </trkpt>
      <trkpt lat="48.62798" lon="1.97177">
        <ele>144</ele>
        <time>2020-05-31T09:59:21Z</time>
      </trkpt>
      <trkpt lat="48.62795" lon="1.97175">
        <ele>144</ele>
        <time>2020-05-31T09:59:23Z</time>
      </trkpt>
      <trkpt lat="48.62793" lon="1.97172">
        <ele>144</ele>
        <time>2020-05-31T09:59:25Z</time>
      </trkpt>
      <trkpt lat="48.6279" lon="1.97169">
        <ele>144</ele>
        <time>2020-05-31T09:59:27Z</time>
      </trkpt>
      <trkpt lat="48.62787" lon="1.97167">
        <ele>144</ele>
        <time>2020-05-31T09:59:29Z</time>
      </trkpt>
      <trkpt lat="48.62785" lon="1.97165">
        <ele>144</ele>
        <time>2020-05-31T09:59:31Z</time>
      </trkpt>
      <trkpt lat="48.62782" lon="1.97163">
        <ele>144</ele>
        <time>2020-05-31T09:59:33Z</time>
      </trkpt>
      <trkpt lat="48.62781" lon="1.97161">
        <ele>144</ele>
        <time>2020-05-31T09:59:34Z</time>
      </trkpt>
      <trkpt lat="48.62778" lon="1.9716">
        <ele>145</ele>
        <time>2020-05-31T09:59:36Z</time>
      </trkpt>
      <trkpt lat="48.62776" lon="1.97158">
        <ele>145</ele>
        <time>2020-05-31T09:59:38Z</time>
      </trkpt>
      <trkpt lat="48.62774" lon="1.97157">
        <ele>145</ele>
        <time>2020-05-31T09:59:40Z</time>
      </trkpt>
      <trkpt lat="48.62772" lon="1.97156">
        <ele>145</ele>
        <time>2020-05-31T09:59:42Z</time>
      </trkpt>
      <trkpt lat="48.62769" lon="1.97155">
        <ele>146</ele>
        <time>2020-05-31T09:59:44Z</time>
      </trkpt>
      <trkpt lat="48.62767" lon="1.97154">
        <ele>146</ele>
        <time>2020-05-31T09:59:46Z</time>
      </trkpt>
      <trkpt lat="48.62764" lon="1.97153">
        <ele>147</ele>
        <time>2020-05-31T09:59:48Z</time>
      </trkpt>
      <trkpt lat="48.62761" lon="1.97153">
        <ele>147</ele>
        <time>2020-05-31T09:59:50Z</time>
      </trkpt>
      <trkpt lat="48.62759" lon="1.97152">
        <ele>147</ele>
        <time>2020-05-31T09:59:52Z</time>
      </trkpt>
      <trkpt lat="48.62756" lon="1.97152">
        <ele>148</ele>
        <time>2020-05-31T09:59:54Z</time>
      </trkpt>
      <trkpt lat="48.62752" lon="1.97151">
        <ele>148</ele>
        <time>2020-05-31T09:59:56Z</time>
      </trkpt>
      <trkpt lat="48.6275" lon="1.97151">
        <ele>148</ele>
        <time>2020-05-31T09:59:57Z</time>
      </trkpt>
      <trkpt lat="48.62747" lon="1.97151">
        <ele>149</ele>
        <time>2020-05-31T09:59:59Z</time>
      </trkpt>
      <trkpt lat="48.62744" lon="1.97151">
        <ele>149</ele>
        <time>2020-05-31T10:00:01Z</time>
      </trkpt>
      <trkpt lat="48.62741" lon="1.9715">
        <ele>150</ele>
        <time>2020-05-31T10:00:03Z</time>
      </trkpt>
      <trkpt lat="48.62739" lon="1.9715">
        <ele>150</ele>
        <time>2020-05-31T10:00:05Z</time>
      </trkpt>
      <trkpt lat="48.62736" lon="1.9715">
        <ele>150</ele>
        <time>2020-05-31T10:00:06Z</time>
      </trkpt>
      <trkpt lat="48.62733" lon="1.97151">
        <ele>150</ele>
        <time>2020-05-31T10:00:07Z</time>
      </trkpt>
      <trkpt lat="48.6273" lon="1.97151">
        <ele>150</ele>
        <time>2020-05-31T10:00:08Z</time>
      </trkpt>
      <trkpt lat="48.62729" lon="1.97151">
        <ele>150</ele>
        <time>2020-05-31T10:00:10Z</time>
      </trkpt>
      <trkpt lat="48.62725" lon="1.97152">
        <ele>150</ele>
        <time>2020-05-31T10:00:12Z</time>
      </trkpt>
      <trkpt lat="48.62723" lon="1.97152">
        <ele>150</ele>
        <time>2020-05-31T10:00:14Z</time>
      </trkpt>
      <trkpt lat="48.6272" lon="1.97152">
        <ele>151</ele>
        <time>2020-05-31T10:00:16Z</time>
      </trkpt>
      <trkpt lat="48.62716" lon="1.97151">
        <ele>151</ele>
        <time>2020-05-31T10:00:17Z</time>
      </trkpt>
      <trkpt lat="48.62714" lon="1.97151">
        <ele>151</ele>
        <time>2020-05-31T10:00:18Z</time>
      </trkpt>
      <trkpt lat="48.62711" lon="1.97151">
        <ele>151</ele>
        <time>2020-05-31T10:00:20Z</time>
      </trkpt>
      <trkpt lat="48.62708" lon="1.97151">
        <ele>151</ele>
        <time>2020-05-31T10:00:22Z</time>
      </trkpt>
      <trkpt lat="48.62706" lon="1.97151">
        <ele>151</ele>
        <time>2020-05-31T10:00:26Z</time>
      </trkpt>
      <trkpt lat="48.62703" lon="1.97152">
        <ele>152</ele>
        <time>2020-05-31T10:00:28Z</time>
      </trkpt>
      <trkpt lat="48.627" lon="1.97152">
        <ele>152</ele>
        <time>2020-05-31T10:00:30Z</time>
      </trkpt>
      <trkpt lat="48.62698" lon="1.97152">
        <ele>152</ele>
        <time>2020-05-31T10:00:31Z</time>
      </trkpt>
      <trkpt lat="48.62694" lon="1.97151">
        <ele>152</ele>
        <time>2020-05-31T10:00:33Z</time>
      </trkpt>
      <trkpt lat="48.62692" lon="1.9715">
        <ele>152</ele>
        <time>2020-05-31T10:00:35Z</time>
      </trkpt>
      <trkpt lat="48.6269" lon="1.97149">
        <ele>152</ele>
        <time>2020-05-31T10:00:37Z</time>
      </trkpt>
      <trkpt lat="48.62688" lon="1.97148">
        <ele>152</ele>
        <time>2020-05-31T10:00:43Z</time>
      </trkpt>
      <trkpt lat="48.62686" lon="1.97147">
        <ele>153</ele>
        <time>2020-05-31T10:00:46Z</time>
      </trkpt>
      <trkpt lat="48.62683" lon="1.97147">
        <ele>153</ele>
        <time>2020-05-31T10:00:48Z</time>
      </trkpt>
      <trkpt lat="48.62681" lon="1.97146">
        <ele>153</ele>
        <time>2020-05-31T10:00:50Z</time>
      </trkpt>
      <trkpt lat="48.62678" lon="1.97146">
        <ele>153</ele>
        <time>2020-05-31T10:00:54Z</time>
      </trkpt>
      <trkpt lat="48.62676" lon="1.97146">
        <ele>153</ele>
        <time>2020-05-31T10:00:56Z</time>
      </trkpt>
      <trkpt lat="48.62674" lon="1.97145">
        <ele>153</ele>
        <time>2020-05-31T10:00:58Z</time>
      </trkpt>
      <trkpt lat="48.62671" lon="1.97143">
        <ele>153</ele>
        <time>2020-05-31T10:01:00Z</time>
      </trkpt>
      <trkpt lat="48.62668" lon="1.97142">
        <ele>153</ele>
        <time>2020-05-31T10:01:01Z</time>
      </trkpt>
      <trkpt lat="48.62666" lon="1.97142">
        <ele>153</ele>
        <time>2020-05-31T10:01:02Z</time>
      </trkpt>
      <trkpt lat="48.62664" lon="1.97141">
        <ele>153</ele>
        <time>2020-05-31T10:01:03Z</time>
      </trkpt>
      <trkpt lat="48.62661" lon="1.97141">
        <ele>153</ele>
        <time>2020-05-31T10:01:04Z</time>
      </trkpt>
      <trkpt lat="48.62658" lon="1.97141">
        <ele>153</ele>
        <time>2020-05-31T10:01:06Z</time>
      </trkpt>
      <trkpt lat="48.62655" lon="1.97141">
        <ele>153</ele>
        <time>2020-05-31T10:01:08Z</time>
      </trkpt>
      <trkpt lat="48.62652" lon="1.9714">
        <ele>153</ele>
        <time>2020-05-31T10:01:10Z</time>
      </trkpt>
      <trkpt lat="48.62649" lon="1.9714">
        <ele>152</ele>
        <time>2020-05-31T10:01:11Z</time>
      </trkpt>
      <trkpt lat="48.62647" lon="1.9714">
        <ele>152</ele>
        <time>2020-05-31T10:01:12Z</time>
      </trkpt>
      <trkpt lat="48.62645" lon="1.9714">
        <ele>152</ele>
        <time>2020-05-31T10:01:13Z</time>
      </trkpt>
      <trkpt lat="48.62643" lon="1.97139">
        <ele>153</ele>
        <time>2020-05-31T10:01:14Z</time>
      </trkpt>
      <trkpt lat="48.6264" lon="1.97138">
        <ele>152</ele>
        <time>2020-05-31T10:01:16Z</time>
      </trkpt>
      <trkpt lat="48.62636" lon="1.97137">
        <ele>152</ele>
        <time>2020-05-31T10:01:18Z</time>
      </trkpt>
      <trkpt lat="48.62633" lon="1.97134">
        <ele>152</ele>
        <time>2020-05-31T10:01:20Z</time>
      </trkpt>
      <trkpt lat="48.62631" lon="1.97134">
        <ele>152</ele>
        <time>2020-05-31T10:01:21Z</time>
      </trkpt>
      <trkpt lat="48.6263" lon="1.97133">
        <ele>152</ele>
        <time>2020-05-31T10:01:22Z</time>
      </trkpt>
      <trkpt lat="48.62626" lon="1.97132">
        <ele>152</ele>
        <time>2020-05-31T10:01:24Z</time>
      </trkpt>
      <trkpt lat="48.62623" lon="1.9713">
        <ele>152</ele>
        <time>2020-05-31T10:01:26Z</time>
      </trkpt>
      <trkpt lat="48.62621" lon="1.9713">
        <ele>152</ele>
        <time>2020-05-31T10:01:27Z</time>
      </trkpt>
      <trkpt lat="48.62619" lon="1.97129">
        <ele>153</ele>
        <time>2020-05-31T10:01:29Z</time>
      </trkpt>
      <trkpt lat="48.62616" lon="1.97128">
        <ele>153</ele>
        <time>2020-05-31T10:01:31Z</time>
      </trkpt>
      <trkpt lat="48.62614" lon="1.97127">
        <ele>152</ele>
        <time>2020-05-31T10:01:32Z</time>
      </trkpt>
      <trkpt lat="48.62612" lon="1.97127">
        <ele>152</ele>
        <time>2020-05-31T10:01:33Z</time>
      </trkpt>
      <trkpt lat="48.62609" lon="1.97127">
        <ele>152</ele>
        <time>2020-05-31T10:01:35Z</time>
      </trkpt>
      <trkpt lat="48.62606" lon="1.97126">
        <ele>152</ele>
        <time>2020-05-31T10:01:37Z</time>
      </trkpt>
      <trkpt lat="48.62604" lon="1.97126">
        <ele>153</ele>
        <time>2020-05-31T10:01:39Z</time>
      </trkpt>
      <trkpt lat="48.62601" lon="1.97126">
        <ele>153</ele>
        <time>2020-05-31T10:01:41Z</time>
      </trkpt>
      <trkpt lat="48.62598" lon="1.97126">
        <ele>154</ele>
        <time>2020-05-31T10:01:43Z</time>
      </trkpt>
      <trkpt lat="48.62596" lon="1.97127">
        <ele>154</ele>
        <time>2020-05-31T10:01:44Z</time>
      </trkpt>
      <trkpt lat="48.62593" lon="1.97126">
        <ele>154</ele>
        <time>2020-05-31T10:01:46Z</time>
      </trkpt>
      <trkpt lat="48.62591" lon="1.97125">
        <ele>154</ele>
        <time>2020-05-31T10:01:48Z</time>
      </trkpt>
      <trkpt lat="48.62588" lon="1.97123">
        <ele>154</ele>
        <time>2020-05-31T10:01:50Z</time>
      </trkpt>
      <trkpt lat="48.62584" lon="1.97122">
        <ele>155</ele>
        <time>2020-05-31T10:01:52Z</time>
      </trkpt>
      <trkpt lat="48.62581" lon="1.97121">
        <ele>155</ele>
        <time>2020-05-31T10:01:54Z</time>
      </trkpt>
      <trkpt lat="48.62579" lon="1.97121">
        <ele>155</ele>
        <time>2020-05-31T10:01:56Z</time>
      </trkpt>
      <trkpt lat="48.62576" lon="1.9712">
        <ele>155</ele>
        <time>2020-05-31T10:01:58Z</time>
      </trkpt>
      <trkpt lat="48.62573" lon="1.9712">
        <ele>155</ele>
        <time>2020-05-31T10:02:00Z</time>
      </trkpt>
      <trkpt lat="48.62571" lon="1.97119">
        <ele>155</ele>
        <time>2020-05-31T10:02:02Z</time>
      </trkpt>
      <trkpt lat="48.62568" lon="1.97119">
        <ele>155</ele>
        <time>2020-05-31T10:02:04Z</time>
      </trkpt>
      <trkpt lat="48.62565" lon="1.97118">
        <ele>155</ele>
        <time>2020-05-31T10:02:06Z</time>
      </trkpt>
      <trkpt lat="48.62563" lon="1.97117">
        <ele>155</ele>
        <time>2020-05-31T10:02:07Z</time>
      </trkpt>
      <trkpt lat="48.62559" lon="1.97117">
        <ele>155</ele>
        <time>2020-05-31T10:02:09Z</time>
      </trkpt>
      <trkpt lat="48.62556" lon="1.97117">
        <ele>156</ele>
        <time>2020-05-31T10:02:11Z</time>
      </trkpt>
      <trkpt lat="48.62553" lon="1.97116">
        <ele>155</ele>
        <time>2020-05-31T10:02:13Z</time>
      </trkpt>
      <trkpt lat="48.62551" lon="1.97116">
        <ele>155</ele>
        <time>2020-05-31T10:02:14Z</time>
      </trkpt>
      <trkpt lat="48.62547" lon="1.97115">
        <ele>155</ele>
        <time>2020-05-31T10:02:16Z</time>
      </trkpt>
      <trkpt lat="48.62544" lon="1.97115">
        <ele>155</ele>
        <time>2020-05-31T10:02:18Z</time>
      </trkpt>
      <trkpt lat="48.62542" lon="1.97115">
        <ele>155</ele>
        <time>2020-05-31T10:02:19Z</time>
      </trkpt>
      <trkpt lat="48.6254" lon="1.97115">
        <ele>155</ele>
        <time>2020-05-31T10:02:20Z</time>
      </trkpt>
      <trkpt lat="48.62538" lon="1.97115">
        <ele>155</ele>
        <time>2020-05-31T10:02:21Z</time>
      </trkpt>
      <trkpt lat="48.62535" lon="1.97115">
        <ele>155</ele>
        <time>2020-05-31T10:02:23Z</time>
      </trkpt>
      <trkpt lat="48.62533" lon="1.97114">
        <ele>156</ele>
        <time>2020-05-31T10:02:25Z</time>
      </trkpt>
      <trkpt lat="48.6253" lon="1.97113">
        <ele>156</ele>
        <time>2020-05-31T10:02:27Z</time>
      </trkpt>
      <trkpt lat="48.62528" lon="1.97112">
        <ele>156</ele>
        <time>2020-05-31T10:02:29Z</time>
      </trkpt>
      <trkpt lat="48.62524" lon="1.9711">
        <ele>156</ele>
        <time>2020-05-31T10:02:31Z</time>
      </trkpt>
      <trkpt lat="48.62522" lon="1.9711">
        <ele>156</ele>
        <time>2020-05-31T10:02:32Z</time>
      </trkpt>
      <trkpt lat="48.6252" lon="1.97109">
        <ele>156</ele>
        <time>2020-05-31T10:02:33Z</time>
      </trkpt>
      <trkpt lat="48.62517" lon="1.97108">
        <ele>156</ele>
        <time>2020-05-31T10:02:35Z</time>
      </trkpt>
      <trkpt lat="48.62514" lon="1.97107">
        <ele>156</ele>
        <time>2020-05-31T10:02:37Z</time>
      </trkpt>
      <trkpt lat="48.62512" lon="1.97106">
        <ele>155</ele>
        <time>2020-05-31T10:02:39Z</time>
      </trkpt>
      <trkpt lat="48.6251" lon="1.97104">
        <ele>155</ele>
        <time>2020-05-31T10:02:42Z</time>
      </trkpt>
      <trkpt lat="48.62507" lon="1.97101">
        <ele>154</ele>
        <time>2020-05-31T10:02:46Z</time>
      </trkpt>
      <trkpt lat="48.62501" lon="1.97095">
        <ele>153</ele>
        <time>2020-05-31T10:02:50Z</time>
      </trkpt>
      <trkpt lat="48.62496" lon="1.97094">
        <ele>153</ele>
        <time>2020-05-31T10:02:52Z</time>
      </trkpt>
      <trkpt lat="48.62486" lon="1.97094">
        <ele>154</ele>
        <time>2020-05-31T10:02:57Z</time>
      </trkpt>
      <trkpt lat="48.62482" lon="1.97094">
        <ele>154</ele>
        <time>2020-05-31T10:03:00Z</time>
      </trkpt>
      <trkpt lat="48.62477" lon="1.97095">
        <ele>154</ele>
        <time>2020-05-31T10:03:02Z</time>
      </trkpt>
      <trkpt lat="48.62475" lon="1.97095">
        <ele>155</ele>
        <time>2020-05-31T10:03:04Z</time>
      </trkpt>
      <trkpt lat="48.62469" lon="1.97095">
        <ele>155</ele>
        <time>2020-05-31T10:03:08Z</time>
      </trkpt>
      <trkpt lat="48.62466" lon="1.97096">
        <ele>155</ele>
        <time>2020-05-31T10:03:10Z</time>
      </trkpt>
      <trkpt lat="48.62463" lon="1.97097">
        <ele>155</ele>
        <time>2020-05-31T10:03:12Z</time>
      </trkpt>
      <trkpt lat="48.6246" lon="1.97097">
        <ele>155</ele>
        <time>2020-05-31T10:03:14Z</time>
      </trkpt>
      <trkpt lat="48.62457" lon="1.97096">
        <ele>155</ele>
        <time>2020-05-31T10:03:16Z</time>
      </trkpt>
      <trkpt lat="48.62455" lon="1.97096">
        <ele>155</ele>
        <time>2020-05-31T10:03:17Z</time>
      </trkpt>
      <trkpt lat="48.62453" lon="1.97096">
        <ele>155</ele>
        <time>2020-05-31T10:03:18Z</time>
      </trkpt>
      <trkpt lat="48.62451" lon="1.97096">
        <ele>155</ele>
        <time>2020-05-31T10:03:20Z</time>
      </trkpt>
      <trkpt lat="48.62448" lon="1.97098">
        <ele>155</ele>
        <time>2020-05-31T10:03:22Z</time>
      </trkpt>
      <trkpt lat="48.62444" lon="1.97099">
        <ele>155</ele>
        <time>2020-05-31T10:03:24Z</time>
      </trkpt>
      <trkpt lat="48.62441" lon="1.97098">
        <ele>155</ele>
        <time>2020-05-31T10:03:26Z</time>
      </trkpt>
      <trkpt lat="48.62438" lon="1.97099">
        <ele>155</ele>
        <time>2020-05-31T10:03:27Z</time>
      </trkpt>
      <trkpt lat="48.62436" lon="1.97099">
        <ele>155</ele>
        <time>2020-05-31T10:03:28Z</time>
      </trkpt>
      <trkpt lat="48.62434" lon="1.97099">
        <ele>155</ele>
        <time>2020-05-31T10:03:29Z</time>
      </trkpt>
      <trkpt lat="48.62433" lon="1.97099">
        <ele>155</ele>
        <time>2020-05-31T10:03:30Z</time>
      </trkpt>
      <trkpt lat="48.62431" lon="1.971">
        <ele>155</ele>
        <time>2020-05-31T10:03:31Z</time>
      </trkpt>
      <trkpt lat="48.62428" lon="1.97101">
        <ele>154</ele>
        <time>2020-05-31T10:03:32Z</time>
      </trkpt>
      <trkpt lat="48.62427" lon="1.97102">
        <ele>155</ele>
        <time>2020-05-31T10:03:33Z</time>
      </trkpt>
      <trkpt lat="48.62423" lon="1.97103">
        <ele>155</ele>
        <time>2020-05-31T10:03:35Z</time>
      </trkpt>
      <trkpt lat="48.6242" lon="1.97104">
        <ele>155</ele>
        <time>2020-05-31T10:03:37Z</time>
      </trkpt>
      <trkpt lat="48.62418" lon="1.97105">
        <ele>154</ele>
        <time>2020-05-31T10:03:38Z</time>
      </trkpt>
      <trkpt lat="48.62415" lon="1.97106">
        <ele>154</ele>
        <time>2020-05-31T10:03:39Z</time>
      </trkpt>
      <trkpt lat="48.62413" lon="1.97106">
        <ele>154</ele>
        <time>2020-05-31T10:03:40Z</time>
      </trkpt>
      <trkpt lat="48.6241" lon="1.97106">
        <ele>154</ele>
        <time>2020-05-31T10:03:42Z</time>
      </trkpt>
      <trkpt lat="48.62406" lon="1.97108">
        <ele>154</ele>
        <time>2020-05-31T10:03:44Z</time>
      </trkpt>
      <trkpt lat="48.62404" lon="1.97108">
        <ele>154</ele>
        <time>2020-05-31T10:03:45Z</time>
      </trkpt>
      <trkpt lat="48.62402" lon="1.97109">
        <ele>154</ele>
        <time>2020-05-31T10:03:47Z</time>
      </trkpt>
      <trkpt lat="48.62399" lon="1.97111">
        <ele>154</ele>
        <time>2020-05-31T10:03:49Z</time>
      </trkpt>
      <trkpt lat="48.62396" lon="1.97112">
        <ele>153</ele>
        <time>2020-05-31T10:03:50Z</time>
      </trkpt>
      <trkpt lat="48.62394" lon="1.97113">
        <ele>153</ele>
        <time>2020-05-31T10:03:51Z</time>
      </trkpt>
      <trkpt lat="48.62392" lon="1.97114">
        <ele>153</ele>
        <time>2020-05-31T10:03:52Z</time>
      </trkpt>
      <trkpt lat="48.6239" lon="1.97114">
        <ele>153</ele>
        <time>2020-05-31T10:03:53Z</time>
      </trkpt>
      <trkpt lat="48.62387" lon="1.97116">
        <ele>153</ele>
        <time>2020-05-31T10:03:55Z</time>
      </trkpt>
      <trkpt lat="48.62384" lon="1.97116">
        <ele>153</ele>
        <time>2020-05-31T10:03:57Z</time>
      </trkpt>
      <trkpt lat="48.62381" lon="1.97116">
        <ele>153</ele>
        <time>2020-05-31T10:03:59Z</time>
      </trkpt>
      <trkpt lat="48.62378" lon="1.97117">
        <ele>153</ele>
        <time>2020-05-31T10:04:01Z</time>
      </trkpt>
      <trkpt lat="48.62376" lon="1.97118">
        <ele>152</ele>
        <time>2020-05-31T10:04:02Z</time>
      </trkpt>
      <trkpt lat="48.62373" lon="1.9712">
        <ele>152</ele>
        <time>2020-05-31T10:04:04Z</time>
      </trkpt>
      <trkpt lat="48.6237" lon="1.97122">
        <ele>152</ele>
        <time>2020-05-31T10:04:06Z</time>
      </trkpt>
      <trkpt lat="48.62366" lon="1.97124">
        <ele>151</ele>
        <time>2020-05-31T10:04:08Z</time>
      </trkpt>
      <trkpt lat="48.62364" lon="1.97125">
        <ele>151</ele>
        <time>2020-05-31T10:04:09Z</time>
      </trkpt>
      <trkpt lat="48.6236" lon="1.97127">
        <ele>151</ele>
        <time>2020-05-31T10:04:11Z</time>
      </trkpt>
      <trkpt lat="48.62358" lon="1.97128">
        <ele>150</ele>
        <time>2020-05-31T10:04:13Z</time>
      </trkpt>
      <trkpt lat="48.62355" lon="1.9713">
        <ele>150</ele>
        <time>2020-05-31T10:04:15Z</time>
      </trkpt>
      <trkpt lat="48.62353" lon="1.97132">
        <ele>150</ele>
        <time>2020-05-31T10:04:16Z</time>
      </trkpt>
      <trkpt lat="48.62351" lon="1.97134">
        <ele>150</ele>
        <time>2020-05-31T10:04:18Z</time>
      </trkpt>
      <trkpt lat="48.62349" lon="1.97137">
        <ele>150</ele>
        <time>2020-05-31T10:04:20Z</time>
      </trkpt>
      <trkpt lat="48.62345" lon="1.97139">
        <ele>149</ele>
        <time>2020-05-31T10:04:22Z</time>
      </trkpt>
      <trkpt lat="48.62342" lon="1.97142">
        <ele>149</ele>
        <time>2020-05-31T10:04:24Z</time>
      </trkpt>
      <trkpt lat="48.6234" lon="1.97144">
        <ele>148</ele>
        <time>2020-05-31T10:04:25Z</time>
      </trkpt>
      <trkpt lat="48.62337" lon="1.97146">
        <ele>148</ele>
        <time>2020-05-31T10:04:27Z</time>
      </trkpt>
      <trkpt lat="48.62335" lon="1.97148">
        <ele>148</ele>
        <time>2020-05-31T10:04:29Z</time>
      </trkpt>
      <trkpt lat="48.62333" lon="1.9715">
        <ele>148</ele>
        <time>2020-05-31T10:04:31Z</time>
      </trkpt>
      <trkpt lat="48.62331" lon="1.97153">
        <ele>148</ele>
        <time>2020-05-31T10:04:33Z</time>
      </trkpt>
      <trkpt lat="48.62329" lon="1.97156">
        <ele>148</ele>
        <time>2020-05-31T10:04:35Z</time>
      </trkpt>
      <trkpt lat="48.62326" lon="1.97158">
        <ele>148</ele>
        <time>2020-05-31T10:04:37Z</time>
      </trkpt>
      <trkpt lat="48.62324" lon="1.97161">
        <ele>148</ele>
        <time>2020-05-31T10:04:39Z</time>
      </trkpt>
      <trkpt lat="48.62322" lon="1.97164">
        <ele>147</ele>
        <time>2020-05-31T10:04:41Z</time>
      </trkpt>
      <trkpt lat="48.62319" lon="1.97166">
        <ele>147</ele>
        <time>2020-05-31T10:04:43Z</time>
      </trkpt>
      <trkpt lat="48.62316" lon="1.97168">
        <ele>147</ele>
        <time>2020-05-31T10:04:45Z</time>
      </trkpt>
      <trkpt lat="48.62314" lon="1.9717">
        <ele>147</ele>
        <time>2020-05-31T10:04:47Z</time>
      </trkpt>
      <trkpt lat="48.62311" lon="1.97174">
        <ele>147</ele>
        <time>2020-05-31T10:04:49Z</time>
      </trkpt>
      <trkpt lat="48.62308" lon="1.97177">
        <ele>146</ele>
        <time>2020-05-31T10:04:51Z</time>
      </trkpt>
      <trkpt lat="48.62307" lon="1.97178">
        <ele>146</ele>
        <time>2020-05-31T10:04:52Z</time>
      </trkpt>
      <trkpt lat="48.62305" lon="1.97181">
        <ele>146</ele>
        <time>2020-05-31T10:04:54Z</time>
      </trkpt>
      <trkpt lat="48.62303" lon="1.97184">
        <ele>146</ele>
        <time>2020-05-31T10:04:56Z</time>
      </trkpt>
      <trkpt lat="48.62301" lon="1.97187">
        <ele>146</ele>
        <time>2020-05-31T10:04:58Z</time>
      </trkpt>
      <trkpt lat="48.62299" lon="1.97189">
        <ele>146</ele>
        <time>2020-05-31T10:05:00Z</time>
      </trkpt>
      <trkpt lat="48.62296" lon="1.97193">
        <ele>146</ele>
        <time>2020-05-31T10:05:02Z</time>
      </trkpt>
      <trkpt lat="48.62294" lon="1.97195">
        <ele>145</ele>
        <time>2020-05-31T10:05:03Z</time>
      </trkpt>
      <trkpt lat="48.62292" lon="1.97196">
        <ele>145</ele>
        <time>2020-05-31T10:05:04Z</time>
      </trkpt>
      <trkpt lat="48.62291" lon="1.97197">
        <ele>145</ele>
        <time>2020-05-31T10:05:05Z</time>
      </trkpt>
      <trkpt lat="48.62288" lon="1.972">
        <ele>145</ele>
        <time>2020-05-31T10:05:07Z</time>
      </trkpt>
      <trkpt lat="48.62286" lon="1.97204">
        <ele>145</ele>
        <time>2020-05-31T10:05:09Z</time>
      </trkpt>
      <trkpt lat="48.62284" lon="1.97206">
        <ele>145</ele>
        <time>2020-05-31T10:05:10Z</time>
      </trkpt>
      <trkpt lat="48.62283" lon="1.97208">
        <ele>145</ele>
        <time>2020-05-31T10:05:11Z</time>
      </trkpt>
      <trkpt lat="48.6228" lon="1.97212">
        <ele>145</ele>
        <time>2020-05-31T10:05:13Z</time>
      </trkpt>
      <trkpt lat="48.62278" lon="1.97215">
        <ele>145</ele>
        <time>2020-05-31T10:05:15Z</time>
      </trkpt>
      <trkpt lat="48.62277" lon="1.97217">
        <ele>144</ele>
        <time>2020-05-31T10:05:16Z</time>
      </trkpt>
      <trkpt lat="48.62275" lon="1.97219">
        <ele>144</ele>
        <time>2020-05-31T10:05:17Z</time>
      </trkpt>
      <trkpt lat="48.62273" lon="1.9722">
        <ele>144</ele>
        <time>2020-05-31T10:05:18Z</time>
      </trkpt>
      <trkpt lat="48.62272" lon="1.97222">
        <ele>143</ele>
        <time>2020-05-31T10:05:19Z</time>
      </trkpt>
      <trkpt lat="48.62269" lon="1.97225">
        <ele>143</ele>
        <time>2020-05-31T10:05:21Z</time>
      </trkpt>
      <trkpt lat="48.62267" lon="1.97226">
        <ele>143</ele>
        <time>2020-05-31T10:05:22Z</time>
      </trkpt>
      <trkpt lat="48.62264" lon="1.97229">
        <ele>142</ele>
        <time>2020-05-31T10:05:24Z</time>
      </trkpt>
      <trkpt lat="48.62263" lon="1.97231">
        <ele>142</ele>
        <time>2020-05-31T10:05:25Z</time>
      </trkpt>
      <trkpt lat="48.62261" lon="1.97233">
        <ele>142</ele>
        <time>2020-05-31T10:05:26Z</time>
      </trkpt>
      <trkpt lat="48.62259" lon="1.97236">
        <ele>143</ele>
        <time>2020-05-31T10:05:28Z</time>
      </trkpt>
      <trkpt lat="48.62257" lon="1.97238">
        <ele>142</ele>
        <time>2020-05-31T10:05:30Z</time>
      </trkpt>
      <trkpt lat="48.62255" lon="1.97237">
        <ele>142</ele>
        <time>2020-05-31T10:05:40Z</time>
      </trkpt>
      <trkpt lat="48.62253" lon="1.9724">
        <ele>142</ele>
        <time>2020-05-31T10:05:53Z</time>
      </trkpt>
      <trkpt lat="48.62251" lon="1.97242">
        <ele>142</ele>
        <time>2020-05-31T10:05:55Z</time>
      </trkpt>
      <trkpt lat="48.62249" lon="1.97244">
        <ele>142</ele>
        <time>2020-05-31T10:05:57Z</time>
      </trkpt>
      <trkpt lat="48.62247" lon="1.97247">
        <ele>142</ele>
        <time>2020-05-31T10:05:59Z</time>
      </trkpt>
      <trkpt lat="48.62244" lon="1.97249">
        <ele>142</ele>
        <time>2020-05-31T10:06:01Z</time>
      </trkpt>
      <trkpt lat="48.62242" lon="1.97252">
        <ele>142</ele>
        <time>2020-05-31T10:06:03Z</time>
      </trkpt>
      <trkpt lat="48.6224" lon="1.97256">
        <ele>142</ele>
        <time>2020-05-31T10:06:05Z</time>
      </trkpt>
      <trkpt lat="48.62236" lon="1.97259">
        <ele>142</ele>
        <time>2020-05-31T10:06:07Z</time>
      </trkpt>
      <trkpt lat="48.62234" lon="1.97261">
        <ele>142</ele>
        <time>2020-05-31T10:06:08Z</time>
      </trkpt>
      <trkpt lat="48.62231" lon="1.97264">
        <ele>141</ele>
        <time>2020-05-31T10:06:10Z</time>
      </trkpt>
      <trkpt lat="48.62229" lon="1.97267">
        <ele>141</ele>
        <time>2020-05-31T10:06:12Z</time>
      </trkpt>
      <trkpt lat="48.62226" lon="1.9727">
        <ele>141</ele>
        <time>2020-05-31T10:06:14Z</time>
      </trkpt>
      <trkpt lat="48.62224" lon="1.97273">
        <ele>141</ele>
        <time>2020-05-31T10:06:16Z</time>
      </trkpt>
      <trkpt lat="48.62222" lon="1.97276">
        <ele>141</ele>
        <time>2020-05-31T10:06:18Z</time>
      </trkpt>
      <trkpt lat="48.62219" lon="1.97279">
        <ele>141</ele>
        <time>2020-05-31T10:06:20Z</time>
      </trkpt>
      <trkpt lat="48.62218" lon="1.97281">
        <ele>141</ele>
        <time>2020-05-31T10:06:21Z</time>
      </trkpt>
      <trkpt lat="48.62215" lon="1.97285">
        <ele>141</ele>
        <time>2020-05-31T10:06:23Z</time>
      </trkpt>
      <trkpt lat="48.62214" lon="1.97288">
        <ele>140</ele>
        <time>2020-05-31T10:06:25Z</time>
      </trkpt>
      <trkpt lat="48.62211" lon="1.97292">
        <ele>140</ele>
        <time>2020-05-31T10:06:27Z</time>
      </trkpt>
      <trkpt lat="48.6221" lon="1.97294">
        <ele>141</ele>
        <time>2020-05-31T10:06:29Z</time>
      </trkpt>
      <trkpt lat="48.62207" lon="1.97298">
        <ele>141</ele>
        <time>2020-05-31T10:06:32Z</time>
      </trkpt>
      <trkpt lat="48.62204" lon="1.97299">
        <ele>141</ele>
        <time>2020-05-31T10:06:33Z</time>
      </trkpt>
      <trkpt lat="48.62202" lon="1.97302">
        <ele>140</ele>
        <time>2020-05-31T10:06:34Z</time>
      </trkpt>
      <trkpt lat="48.622" lon="1.97303">
        <ele>140</ele>
        <time>2020-05-31T10:06:35Z</time>
      </trkpt>
      <trkpt lat="48.62198" lon="1.97304">
        <ele>140</ele>
        <time>2020-05-31T10:06:36Z</time>
      </trkpt>
      <trkpt lat="48.62196" lon="1.97306">
        <ele>140</ele>
        <time>2020-05-31T10:06:37Z</time>
      </trkpt>
      <trkpt lat="48.62194" lon="1.97308">
        <ele>140</ele>
        <time>2020-05-31T10:06:38Z</time>
      </trkpt>
      <trkpt lat="48.62192" lon="1.97311">
        <ele>139</ele>
        <time>2020-05-31T10:06:40Z</time>
      </trkpt>
      <trkpt lat="48.6219" lon="1.97313">
        <ele>139</ele>
        <time>2020-05-31T10:06:41Z</time>
      </trkpt>
      <trkpt lat="48.62189" lon="1.97315">
        <ele>140</ele>
        <time>2020-05-31T10:06:42Z</time>
      </trkpt>
      <trkpt lat="48.62187" lon="1.97316">
        <ele>140</ele>
        <time>2020-05-31T10:06:43Z</time>
      </trkpt>
      <trkpt lat="48.62186" lon="1.97318">
        <ele>140</ele>
        <time>2020-05-31T10:06:44Z</time>
      </trkpt>
      <trkpt lat="48.62183" lon="1.97321">
        <ele>140</ele>
        <time>2020-05-31T10:06:46Z</time>
      </trkpt>
      <trkpt lat="48.62181" lon="1.97325">
        <ele>139</ele>
        <time>2020-05-31T10:06:48Z</time>
      </trkpt>
      <trkpt lat="48.62179" lon="1.97328">
        <ele>139</ele>
        <time>2020-05-31T10:06:49Z</time>
      </trkpt>
      <trkpt lat="48.62177" lon="1.97329">
        <ele>139</ele>
        <time>2020-05-31T10:06:50Z</time>
      </trkpt>
      <trkpt lat="48.62176" lon="1.97331">
        <ele>139</ele>
        <time>2020-05-31T10:06:51Z</time>
      </trkpt>
      <trkpt lat="48.62174" lon="1.97333">
        <ele>139</ele>
        <time>2020-05-31T10:06:52Z</time>
      </trkpt>
      <trkpt lat="48.62173" lon="1.97334">
        <ele>138</ele>
        <time>2020-05-31T10:06:53Z</time>
      </trkpt>
      <trkpt lat="48.62171" lon="1.97336">
        <ele>138</ele>
        <time>2020-05-31T10:06:54Z</time>
      </trkpt>
      <trkpt lat="48.62169" lon="1.97337">
        <ele>138</ele>
        <time>2020-05-31T10:06:55Z</time>
      </trkpt>
      <trkpt lat="48.62168" lon="1.97339">
        <ele>138</ele>
        <time>2020-05-31T10:06:56Z</time>
      </trkpt>
      <trkpt lat="48.62165" lon="1.97342">
        <ele>137</ele>
        <time>2020-05-31T10:06:58Z</time>
      </trkpt>
      <trkpt lat="48.62164" lon="1.97346">
        <ele>137</ele>
        <time>2020-05-31T10:07:00Z</time>
      </trkpt>
      <trkpt lat="48.62162" lon="1.97349">
        <ele>138</ele>
        <time>2020-05-31T10:07:02Z</time>
      </trkpt>
      <trkpt lat="48.62161" lon="1.97352">
        <ele>138</ele>
        <time>2020-05-31T10:07:04Z</time>
      </trkpt>
      <trkpt lat="48.6216" lon="1.97355">
        <ele>138</ele>
        <time>2020-05-31T10:07:06Z</time>
      </trkpt>
      <trkpt lat="48.62158" lon="1.97359">
        <ele>137</ele>
        <time>2020-05-31T10:07:08Z</time>
      </trkpt>
      <trkpt lat="48.62156" lon="1.97361">
        <ele>137</ele>
        <time>2020-05-31T10:07:09Z</time>
      </trkpt>
      <trkpt lat="48.62154" lon="1.97364">
        <ele>137</ele>
        <time>2020-05-31T10:07:11Z</time>
      </trkpt>
      <trkpt lat="48.62153" lon="1.97367">
        <ele>137</ele>
        <time>2020-05-31T10:07:13Z</time>
      </trkpt>
      <trkpt lat="48.62152" lon="1.9737">
        <ele>136</ele>
        <time>2020-05-31T10:07:15Z</time>
      </trkpt>
      <trkpt lat="48.62151" lon="1.97374">
        <ele>136</ele>
        <time>2020-05-31T10:07:17Z</time>
      </trkpt>
      <trkpt lat="48.6215" lon="1.97378">
        <ele>137</ele>
        <time>2020-05-31T10:07:19Z</time>
      </trkpt>
      <trkpt lat="48.62149" lon="1.97381">
        <ele>136</ele>
        <time>2020-05-31T10:07:21Z</time>
      </trkpt>
      <trkpt lat="48.62148" lon="1.97385">
        <ele>137</ele>
        <time>2020-05-31T10:07:23Z</time>
      </trkpt>
      <trkpt lat="48.62146" lon="1.9739">
        <ele>137</ele>
        <time>2020-05-31T10:07:25Z</time>
      </trkpt>
      <trkpt lat="48.62144" lon="1.97395">
        <ele>136</ele>
        <time>2020-05-31T10:07:27Z</time>
      </trkpt>
      <trkpt lat="48.62143" lon="1.97399">
        <ele>136</ele>
        <time>2020-05-31T10:07:29Z</time>
      </trkpt>
      <trkpt lat="48.62142" lon="1.97402">
        <ele>136</ele>
        <time>2020-05-31T10:07:30Z</time>
      </trkpt>
      <trkpt lat="48.6214" lon="1.97406">
        <ele>136</ele>
        <time>2020-05-31T10:07:32Z</time>
      </trkpt>
      <trkpt lat="48.62138" lon="1.9741">
        <ele>135</ele>
        <time>2020-05-31T10:07:34Z</time>
      </trkpt>
      <trkpt lat="48.62137" lon="1.97412">
        <ele>135</ele>
        <time>2020-05-31T10:07:35Z</time>
      </trkpt>
      <trkpt lat="48.62134" lon="1.97416">
        <ele>135</ele>
        <time>2020-05-31T10:07:37Z</time>
      </trkpt>
      <trkpt lat="48.62131" lon="1.97419">
        <ele>135</ele>
        <time>2020-05-31T10:07:39Z</time>
      </trkpt>
      <trkpt lat="48.62129" lon="1.9742">
        <ele>135</ele>
        <time>2020-05-31T10:07:40Z</time>
      </trkpt>
      <trkpt lat="48.62127" lon="1.97422">
        <ele>135</ele>
        <time>2020-05-31T10:07:42Z</time>
      </trkpt>
      <trkpt lat="48.62125" lon="1.97423">
        <ele>134</ele>
        <time>2020-05-31T10:07:43Z</time>
      </trkpt>
      <trkpt lat="48.62122" lon="1.97422">
        <ele>134</ele>
        <time>2020-05-31T10:07:45Z</time>
      </trkpt>
      <trkpt lat="48.62119" lon="1.97419">
        <ele>133</ele>
        <time>2020-05-31T10:07:47Z</time>
      </trkpt>
      <trkpt lat="48.62118" lon="1.97416">
        <ele>133</ele>
        <time>2020-05-31T10:07:49Z</time>
      </trkpt>
      <trkpt lat="48.62116" lon="1.97412">
        <ele>132</ele>
        <time>2020-05-31T10:07:51Z</time>
      </trkpt>
      <trkpt lat="48.62115" lon="1.97408">
        <ele>132</ele>
        <time>2020-05-31T10:07:53Z</time>
      </trkpt>
      <trkpt lat="48.62112" lon="1.97406">
        <ele>132</ele>
        <time>2020-05-31T10:07:55Z</time>
      </trkpt>
      <trkpt lat="48.6211" lon="1.97404">
        <ele>132</ele>
        <time>2020-05-31T10:07:57Z</time>
      </trkpt>
      <trkpt lat="48.62108" lon="1.97403">
        <ele>132</ele>
        <time>2020-05-31T10:07:59Z</time>
      </trkpt>
      <trkpt lat="48.62106" lon="1.97402">
        <ele>132</ele>
        <time>2020-05-31T10:08:01Z</time>
      </trkpt>
      <trkpt lat="48.62103" lon="1.97398">
        <ele>132</ele>
        <time>2020-05-31T10:08:03Z</time>
      </trkpt>
      <trkpt lat="48.62102" lon="1.97395">
        <ele>131</ele>
        <time>2020-05-31T10:08:04Z</time>
      </trkpt>
      <trkpt lat="48.62101" lon="1.97392">
        <ele>131</ele>
        <time>2020-05-31T10:08:05Z</time>
      </trkpt>
      <trkpt lat="48.62099" lon="1.97388">
        <ele>131</ele>
        <time>2020-05-31T10:08:07Z</time>
      </trkpt>
      <trkpt lat="48.62097" lon="1.97384">
        <ele>131</ele>
        <time>2020-05-31T10:08:09Z</time>
      </trkpt>
      <trkpt lat="48.62096" lon="1.97382">
        <ele>131</ele>
        <time>2020-05-31T10:08:10Z</time>
      </trkpt>
      <trkpt lat="48.62095" lon="1.9738">
        <ele>131</ele>
        <time>2020-05-31T10:08:11Z</time>
      </trkpt>
      <trkpt lat="48.62092" lon="1.97377">
        <ele>131</ele>
        <time>2020-05-31T10:08:13Z</time>
      </trkpt>
      <trkpt lat="48.6209" lon="1.97374">
        <ele>130</ele>
        <time>2020-05-31T10:08:15Z</time>
      </trkpt>
      <trkpt lat="48.62087" lon="1.97372">
        <ele>130</ele>
        <time>2020-05-31T10:08:17Z</time>
      </trkpt>
      <trkpt lat="48.62085" lon="1.9737">
        <ele>130</ele>
        <time>2020-05-31T10:08:19Z</time>
      </trkpt>
      <trkpt lat="48.62083" lon="1.97366">
        <ele>130</ele>
        <time>2020-05-31T10:08:21Z</time>
      </trkpt>
      <trkpt lat="48.62082" lon="1.97363">
        <ele>130</ele>
        <time>2020-05-31T10:08:23Z</time>
      </trkpt>
      <trkpt lat="48.6208" lon="1.97359">
        <ele>130</ele>
        <time>2020-05-31T10:08:25Z</time>
      </trkpt>
      <trkpt lat="48.62079" lon="1.97354">
        <ele>130</ele>
        <time>2020-05-31T10:08:27Z</time>
      </trkpt>
      <trkpt lat="48.62077" lon="1.9735">
        <ele>130</ele>
        <time>2020-05-31T10:08:29Z</time>
      </trkpt>
      <trkpt lat="48.62076" lon="1.97347">
        <ele>130</ele>
        <time>2020-05-31T10:08:31Z</time>
      </trkpt>
      <trkpt lat="48.62075" lon="1.97344">
        <ele>130</ele>
        <time>2020-05-31T10:08:33Z</time>
      </trkpt>
      <trkpt lat="48.62073" lon="1.97341">
        <ele>130</ele>
        <time>2020-05-31T10:08:35Z</time>
      </trkpt>
      <trkpt lat="48.62071" lon="1.97338">
        <ele>130</ele>
        <time>2020-05-31T10:08:37Z</time>
      </trkpt>
      <trkpt lat="48.6207" lon="1.97335">
        <ele>130</ele>
        <time>2020-05-31T10:08:39Z</time>
      </trkpt>
      <trkpt lat="48.62069" lon="1.97332">
        <ele>130</ele>
        <time>2020-05-31T10:08:40Z</time>
      </trkpt>
      <trkpt lat="48.62067" lon="1.97328">
        <ele>130</ele>
        <time>2020-05-31T10:08:42Z</time>
      </trkpt>
      <trkpt lat="48.62066" lon="1.97325">
        <ele>130</ele>
        <time>2020-05-31T10:08:43Z</time>
      </trkpt>
      <trkpt lat="48.62066" lon="1.97321">
        <ele>129</ele>
        <time>2020-05-31T10:08:44Z</time>
      </trkpt>
      <trkpt lat="48.62066" lon="1.97318">
        <ele>129</ele>
        <time>2020-05-31T10:08:45Z</time>
      </trkpt>
      <trkpt lat="48.62064" lon="1.97316">
        <ele>129</ele>
        <time>2020-05-31T10:08:46Z</time>
      </trkpt>
      <trkpt lat="48.62063" lon="1.97313">
        <ele>129</ele>
        <time>2020-05-31T10:08:47Z</time>
      </trkpt>
      <trkpt lat="48.62061" lon="1.97311">
        <ele>129</ele>
        <time>2020-05-31T10:08:48Z</time>
      </trkpt>
      <trkpt lat="48.6206" lon="1.97309">
        <ele>129</ele>
        <time>2020-05-31T10:08:49Z</time>
      </trkpt>
      <trkpt lat="48.62058" lon="1.97308">
        <ele>129</ele>
        <time>2020-05-31T10:08:50Z</time>
      </trkpt>
      <trkpt lat="48.62055" lon="1.97305">
        <ele>129</ele>
        <time>2020-05-31T10:08:52Z</time>
      </trkpt>
      <trkpt lat="48.62053" lon="1.97301">
        <ele>129</ele>
        <time>2020-05-31T10:08:54Z</time>
      </trkpt>
      <trkpt lat="48.62052" lon="1.97298">
        <ele>129</ele>
        <time>2020-05-31T10:08:56Z</time>
      </trkpt>
      <trkpt lat="48.62049" lon="1.97294">
        <ele>129</ele>
        <time>2020-05-31T10:08:58Z</time>
      </trkpt>
      <trkpt lat="48.62047" lon="1.9729">
        <ele>129</ele>
        <time>2020-05-31T10:09:00Z</time>
      </trkpt>
      <trkpt lat="48.62046" lon="1.97286">
        <ele>130</ele>
        <time>2020-05-31T10:09:02Z</time>
      </trkpt>
      <trkpt lat="48.62044" lon="1.97282">
        <ele>130</ele>
        <time>2020-05-31T10:09:04Z</time>
      </trkpt>
      <trkpt lat="48.62042" lon="1.97278">
        <ele>130</ele>
        <time>2020-05-31T10:09:06Z</time>
      </trkpt>
      <trkpt lat="48.62041" lon="1.97275">
        <ele>130</ele>
        <time>2020-05-31T10:09:08Z</time>
      </trkpt>
      <trkpt lat="48.62041" lon="1.97272">
        <ele>130</ele>
        <time>2020-05-31T10:09:10Z</time>
      </trkpt>
      <trkpt lat="48.6204" lon="1.97267">
        <ele>131</ele>
        <time>2020-05-31T10:09:12Z</time>
      </trkpt>
      <trkpt lat="48.62039" lon="1.97266">
        <ele>131</ele>
        <time>2020-05-31T10:09:13Z</time>
      </trkpt>
      <trkpt lat="48.62037" lon="1.97261">
        <ele>130</ele>
        <time>2020-05-31T10:09:15Z</time>
      </trkpt>
      <trkpt lat="48.62034" lon="1.97258">
        <ele>130</ele>
        <time>2020-05-31T10:09:16Z</time>
      </trkpt>
      <trkpt lat="48.62032" lon="1.97256">
        <ele>130</ele>
        <time>2020-05-31T10:09:17Z</time>
      </trkpt>
      <trkpt lat="48.6203" lon="1.97255">
        <ele>130</ele>
        <time>2020-05-31T10:09:18Z</time>
      </trkpt>
      <trkpt lat="48.62027" lon="1.97251">
        <ele>130</ele>
        <time>2020-05-31T10:09:20Z</time>
      </trkpt>
      <trkpt lat="48.62025" lon="1.97249">
        <ele>129</ele>
        <time>2020-05-31T10:09:21Z</time>
      </trkpt>
      <trkpt lat="48.62025" lon="1.97245">
        <ele>129</ele>
        <time>2020-05-31T10:09:22Z</time>
      </trkpt>
      <trkpt lat="48.62023" lon="1.97243">
        <ele>129</ele>
        <time>2020-05-31T10:09:23Z</time>
      </trkpt>
      <trkpt lat="48.62021" lon="1.97239">
        <ele>129</ele>
        <time>2020-05-31T10:09:25Z</time>
      </trkpt>
      <trkpt lat="48.6202" lon="1.97236">
        <ele>129</ele>
        <time>2020-05-31T10:09:26Z</time>
      </trkpt>
      <trkpt lat="48.62018" lon="1.97232">
        <ele>128</ele>
        <time>2020-05-31T10:09:28Z</time>
      </trkpt>
      <trkpt lat="48.62016" lon="1.97227">
        <ele>128</ele>
        <time>2020-05-31T10:09:30Z</time>
      </trkpt>
      <trkpt lat="48.62015" lon="1.97225">
        <ele>127</ele>
        <time>2020-05-31T10:09:31Z</time>
      </trkpt>
      <trkpt lat="48.62013" lon="1.9722">
        <ele>127</ele>
        <time>2020-05-31T10:09:33Z</time>
      </trkpt>
      <trkpt lat="48.62009" lon="1.97214">
        <ele>126</ele>
        <time>2020-05-31T10:09:35Z</time>
      </trkpt>
      <trkpt lat="48.62006" lon="1.9721">
        <ele>126</ele>
        <time>2020-05-31T10:09:37Z</time>
      </trkpt>
      <trkpt lat="48.62004" lon="1.97207">
        <ele>125</ele>
        <time>2020-05-31T10:09:39Z</time>
      </trkpt>
      <trkpt lat="48.62002" lon="1.97204">
        <ele>125</ele>
        <time>2020-05-31T10:09:41Z</time>
      </trkpt>
      <trkpt lat="48.62" lon="1.972">
        <ele>124</ele>
        <time>2020-05-31T10:09:43Z</time>
      </trkpt>
      <trkpt lat="48.61998" lon="1.97197">
        <ele>124</ele>
        <time>2020-05-31T10:09:45Z</time>
      </trkpt>
      <trkpt lat="48.61996" lon="1.97193">
        <ele>123</ele>
        <time>2020-05-31T10:09:47Z</time>
      </trkpt>
      <trkpt lat="48.61994" lon="1.97189">
        <ele>123</ele>
        <time>2020-05-31T10:09:49Z</time>
      </trkpt>
      <trkpt lat="48.61994" lon="1.97186">
        <ele>123</ele>
        <time>2020-05-31T10:09:50Z</time>
      </trkpt>
      <trkpt lat="48.61992" lon="1.97182">
        <ele>123</ele>
        <time>2020-05-31T10:09:52Z</time>
      </trkpt>
      <trkpt lat="48.61991" lon="1.97177">
        <ele>123</ele>
        <time>2020-05-31T10:09:54Z</time>
      </trkpt>
      <trkpt lat="48.61989" lon="1.97175">
        <ele>123</ele>
        <time>2020-05-31T10:09:56Z</time>
      </trkpt>
      <trkpt lat="48.61986" lon="1.97171">
        <ele>123</ele>
        <time>2020-05-31T10:09:58Z</time>
      </trkpt>
      <trkpt lat="48.61985" lon="1.97169">
        <ele>123</ele>
        <time>2020-05-31T10:09:59Z</time>
      </trkpt>
      <trkpt lat="48.61984" lon="1.97167">
        <ele>123</ele>
        <time>2020-05-31T10:10:00Z</time>
      </trkpt>
      <trkpt lat="48.61982" lon="1.97164">
        <ele>122</ele>
        <time>2020-05-31T10:10:02Z</time>
      </trkpt>
      <trkpt lat="48.6198" lon="1.97161">
        <ele>122</ele>
        <time>2020-05-31T10:10:04Z</time>
      </trkpt>
      <trkpt lat="48.6198" lon="1.97157">
        <ele>121</ele>
        <time>2020-05-31T10:10:06Z</time>
      </trkpt>
      <trkpt lat="48.61979" lon="1.97154">
        <ele>121</ele>
        <time>2020-05-31T10:10:08Z</time>
      </trkpt>
      <trkpt lat="48.61978" lon="1.9715">
        <ele>121</ele>
        <time>2020-05-31T10:10:10Z</time>
      </trkpt>
      <trkpt lat="48.61976" lon="1.97145">
        <ele>121</ele>
        <time>2020-05-31T10:10:12Z</time>
      </trkpt>
      <trkpt lat="48.61974" lon="1.97142">
        <ele>121</ele>
        <time>2020-05-31T10:10:14Z</time>
      </trkpt>
      <trkpt lat="48.61971" lon="1.97138">
        <ele>120</ele>
        <time>2020-05-31T10:10:16Z</time>
      </trkpt>
      <trkpt lat="48.6197" lon="1.97137">
        <ele>120</ele>
        <time>2020-05-31T10:10:17Z</time>
      </trkpt>
      <trkpt lat="48.61967" lon="1.97134">
        <ele>120</ele>
        <time>2020-05-31T10:10:19Z</time>
      </trkpt>
      <trkpt lat="48.61964" lon="1.97131">
        <ele>121</ele>
        <time>2020-05-31T10:10:21Z</time>
      </trkpt>
      <trkpt lat="48.61962" lon="1.9713">
        <ele>120</ele>
        <time>2020-05-31T10:10:22Z</time>
      </trkpt>
      <trkpt lat="48.6196" lon="1.97129">
        <ele>120</ele>
        <time>2020-05-31T10:10:23Z</time>
      </trkpt>
      <trkpt lat="48.61958" lon="1.97127">
        <ele>120</ele>
        <time>2020-05-31T10:10:24Z</time>
      </trkpt>
      <trkpt lat="48.61955" lon="1.97125">
        <ele>120</ele>
        <time>2020-05-31T10:10:26Z</time>
      </trkpt>
      <trkpt lat="48.61953" lon="1.97122">
        <ele>120</ele>
        <time>2020-05-31T10:10:28Z</time>
      </trkpt>
      <trkpt lat="48.6195" lon="1.97119">
        <ele>120</ele>
        <time>2020-05-31T10:10:30Z</time>
      </trkpt>
      <trkpt lat="48.61947" lon="1.97117">
        <ele>120</ele>
        <time>2020-05-31T10:10:32Z</time>
      </trkpt>
      <trkpt lat="48.61945" lon="1.97115">
        <ele>120</ele>
        <time>2020-05-31T10:10:34Z</time>
      </trkpt>
      <trkpt lat="48.61943" lon="1.97113">
        <ele>120</ele>
        <time>2020-05-31T10:10:36Z</time>
      </trkpt>
      <trkpt lat="48.6194" lon="1.97111">
        <ele>120</ele>
        <time>2020-05-31T10:10:38Z</time>
      </trkpt>
      <trkpt lat="48.61938" lon="1.97107">
        <ele>119</ele>
        <time>2020-05-31T10:10:40Z</time>
      </trkpt>
      <trkpt lat="48.61936" lon="1.97106">
        <ele>119</ele>
        <time>2020-05-31T10:10:41Z</time>
      </trkpt>
      <trkpt lat="48.61935" lon="1.97104">
        <ele>119</ele>
        <time>2020-05-31T10:10:42Z</time>
      </trkpt>
      <trkpt lat="48.61933" lon="1.97103">
        <ele>119</ele>
        <time>2020-05-31T10:10:43Z</time>
      </trkpt>
      <trkpt lat="48.61931" lon="1.97101">
        <ele>119</ele>
        <time>2020-05-31T10:10:44Z</time>
      </trkpt>
      <trkpt lat="48.61929" lon="1.97101">
        <ele>119</ele>
        <time>2020-05-31T10:10:45Z</time>
      </trkpt>
      <trkpt lat="48.61927" lon="1.97098">
        <ele>119</ele>
        <time>2020-05-31T10:10:47Z</time>
      </trkpt>
      <trkpt lat="48.61926" lon="1.97097">
        <ele>119</ele>
        <time>2020-05-31T10:10:48Z</time>
      </trkpt>
      <trkpt lat="48.61924" lon="1.97095">
        <ele>119</ele>
        <time>2020-05-31T10:10:49Z</time>
      </trkpt>
      <trkpt lat="48.61922" lon="1.97094">
        <ele>119</ele>
        <time>2020-05-31T10:10:51Z</time>
      </trkpt>
      <trkpt lat="48.6192" lon="1.97093">
        <ele>120</ele>
        <time>2020-05-31T10:10:53Z</time>
      </trkpt>
      <trkpt lat="48.61918" lon="1.97091">
        <ele>120</ele>
        <time>2020-05-31T10:10:55Z</time>
      </trkpt>
      <trkpt lat="48.61916" lon="1.9709">
        <ele>120</ele>
        <time>2020-05-31T10:10:57Z</time>
      </trkpt>
      <trkpt lat="48.61914" lon="1.97088">
        <ele>120</ele>
        <time>2020-05-31T10:10:59Z</time>
      </trkpt>
      <trkpt lat="48.61911" lon="1.97086">
        <ele>120</ele>
        <time>2020-05-31T10:11:01Z</time>
      </trkpt>
      <trkpt lat="48.61909" lon="1.97085">
        <ele>120</ele>
        <time>2020-05-31T10:11:04Z</time>
      </trkpt>
      <trkpt lat="48.61907" lon="1.97083">
        <ele>120</ele>
        <time>2020-05-31T10:11:06Z</time>
      </trkpt>
      <trkpt lat="48.61905" lon="1.97082">
        <ele>119</ele>
        <time>2020-05-31T10:11:08Z</time>
      </trkpt>
      <trkpt lat="48.619" lon="1.9708">
        <ele>119</ele>
        <time>2020-05-31T10:11:10Z</time>
      </trkpt>
      <trkpt lat="48.61898" lon="1.97079">
        <ele>119</ele>
        <time>2020-05-31T10:11:11Z</time>
      </trkpt>
      <trkpt lat="48.61896" lon="1.97077">
        <ele>119</ele>
        <time>2020-05-31T10:11:13Z</time>
      </trkpt>
      <trkpt lat="48.61893" lon="1.97075">
        <ele>119</ele>
        <time>2020-05-31T10:11:15Z</time>
      </trkpt>
      <trkpt lat="48.61889" lon="1.97073">
        <ele>120</ele>
        <time>2020-05-31T10:11:17Z</time>
      </trkpt>
      <trkpt lat="48.61887" lon="1.97073">
        <ele>120</ele>
        <time>2020-05-31T10:11:18Z</time>
      </trkpt>
      <trkpt lat="48.61885" lon="1.97072">
        <ele>120</ele>
        <time>2020-05-31T10:11:20Z</time>
      </trkpt>
      <trkpt lat="48.6188" lon="1.97069">
        <ele>120</ele>
        <time>2020-05-31T10:11:25Z</time>
      </trkpt>
      <trkpt lat="48.61877" lon="1.97069">
        <ele>120</ele>
        <time>2020-05-31T10:11:26Z</time>
      </trkpt>
      <trkpt lat="48.61875" lon="1.97068">
        <ele>120</ele>
        <time>2020-05-31T10:11:27Z</time>
      </trkpt>
      <trkpt lat="48.61873" lon="1.97066">
        <ele>120</ele>
        <time>2020-05-31T10:11:28Z</time>
      </trkpt>
      <trkpt lat="48.6187" lon="1.97064">
        <ele>120</ele>
        <time>2020-05-31T10:11:30Z</time>
      </trkpt>
      <trkpt lat="48.61867" lon="1.97062">
        <ele>120</ele>
        <time>2020-05-31T10:11:32Z</time>
      </trkpt>
      <trkpt lat="48.61865" lon="1.97061">
        <ele>120</ele>
        <time>2020-05-31T10:11:33Z</time>
      </trkpt>
      <trkpt lat="48.61862" lon="1.9706">
        <ele>120</ele>
        <time>2020-05-31T10:11:35Z</time>
      </trkpt>
      <trkpt lat="48.6186" lon="1.97058">
        <ele>121</ele>
        <time>2020-05-31T10:11:37Z</time>
      </trkpt>
      <trkpt lat="48.61855" lon="1.97051">
        <ele>120</ele>
        <time>2020-05-31T10:11:42Z</time>
      </trkpt>
      <trkpt lat="48.61852" lon="1.97048">
        <ele>120</ele>
        <time>2020-05-31T10:11:44Z</time>
      </trkpt>
      <trkpt lat="48.6185" lon="1.97045">
        <ele>120</ele>
        <time>2020-05-31T10:11:46Z</time>
      </trkpt>
      <trkpt lat="48.61847" lon="1.97044">
        <ele>119</ele>
        <time>2020-05-31T10:11:48Z</time>
      </trkpt>
      <trkpt lat="48.61844" lon="1.97042">
        <ele>119</ele>
        <time>2020-05-31T10:11:50Z</time>
      </trkpt>
      <trkpt lat="48.61841" lon="1.9704">
        <ele>119</ele>
        <time>2020-05-31T10:11:52Z</time>
      </trkpt>
      <trkpt lat="48.6184" lon="1.9704">
        <ele>120</ele>
        <time>2020-05-31T10:11:53Z</time>
      </trkpt>
      <trkpt lat="48.61837" lon="1.97039">
        <ele>120</ele>
        <time>2020-05-31T10:11:54Z</time>
      </trkpt>
      <trkpt lat="48.61836" lon="1.97038">
        <ele>120</ele>
        <time>2020-05-31T10:11:55Z</time>
      </trkpt>
      <trkpt lat="48.61834" lon="1.97037">
        <ele>120</ele>
        <time>2020-05-31T10:11:56Z</time>
      </trkpt>
      <trkpt lat="48.61831" lon="1.97037">
        <ele>120</ele>
        <time>2020-05-31T10:11:57Z</time>
      </trkpt>
      <trkpt lat="48.61829" lon="1.97036">
        <ele>120</ele>
        <time>2020-05-31T10:11:58Z</time>
      </trkpt>
      <trkpt lat="48.61827" lon="1.97034">
        <ele>120</ele>
        <time>2020-05-31T10:11:59Z</time>
      </trkpt>
      <trkpt lat="48.61826" lon="1.97032">
        <ele>120</ele>
        <time>2020-05-31T10:12:00Z</time>
      </trkpt>
      <trkpt lat="48.61823" lon="1.9703">
        <ele>120</ele>
        <time>2020-05-31T10:12:02Z</time>
      </trkpt>
      <trkpt lat="48.61822" lon="1.97029">
        <ele>120</ele>
        <time>2020-05-31T10:12:03Z</time>
      </trkpt>
      <trkpt lat="48.61818" lon="1.97027">
        <ele>120</ele>
        <time>2020-05-31T10:12:05Z</time>
      </trkpt>
      <trkpt lat="48.61817" lon="1.97026">
        <ele>120</ele>
        <time>2020-05-31T10:12:06Z</time>
      </trkpt>
      <trkpt lat="48.61815" lon="1.97026">
        <ele>120</ele>
        <time>2020-05-31T10:12:07Z</time>
      </trkpt>
      <trkpt lat="48.61813" lon="1.97023">
        <ele>120</ele>
        <time>2020-05-31T10:12:10Z</time>
      </trkpt>
      <trkpt lat="48.61811" lon="1.97022">
        <ele>121</ele>
        <time>2020-05-31T10:12:13Z</time>
      </trkpt>
      <trkpt lat="48.61808" lon="1.97021">
        <ele>121</ele>
        <time>2020-05-31T10:12:15Z</time>
      </trkpt>
      <trkpt lat="48.61806" lon="1.97021">
        <ele>121</ele>
        <time>2020-05-31T10:12:17Z</time>
      </trkpt>
      <trkpt lat="48.61804" lon="1.97021">
        <ele>121</ele>
        <time>2020-05-31T10:12:18Z</time>
      </trkpt>
      <trkpt lat="48.618" lon="1.9702">
        <ele>121</ele>
        <time>2020-05-31T10:12:20Z</time>
      </trkpt>
      <trkpt lat="48.61797" lon="1.97018">
        <ele>121</ele>
        <time>2020-05-31T10:12:22Z</time>
      </trkpt>
      <trkpt lat="48.61794" lon="1.97016">
        <ele>120</ele>
        <time>2020-05-31T10:12:24Z</time>
      </trkpt>
      <trkpt lat="48.61792" lon="1.97016">
        <ele>120</ele>
        <time>2020-05-31T10:12:30Z</time>
      </trkpt>
      <trkpt lat="48.6179" lon="1.97015">
        <ele>120</ele>
        <time>2020-05-31T10:12:31Z</time>
      </trkpt>
      <trkpt lat="48.61788" lon="1.97015">
        <ele>119</ele>
        <time>2020-05-31T10:12:32Z</time>
      </trkpt>
      <trkpt lat="48.61786" lon="1.97015">
        <ele>119</ele>
        <time>2020-05-31T10:12:33Z</time>
      </trkpt>
      <trkpt lat="48.61782" lon="1.97014">
        <ele>119</ele>
        <time>2020-05-31T10:12:35Z</time>
      </trkpt>
      <trkpt lat="48.6178" lon="1.97014">
        <ele>119</ele>
        <time>2020-05-31T10:12:36Z</time>
      </trkpt>
      <trkpt lat="48.61777" lon="1.97013">
        <ele>119</ele>
        <time>2020-05-31T10:12:38Z</time>
      </trkpt>
      <trkpt lat="48.61775" lon="1.97013">
        <ele>119</ele>
        <time>2020-05-31T10:12:39Z</time>
      </trkpt>
      <trkpt lat="48.61773" lon="1.97012">
        <ele>119</ele>
        <time>2020-05-31T10:12:40Z</time>
      </trkpt>
      <trkpt lat="48.61771" lon="1.97012">
        <ele>118</ele>
        <time>2020-05-31T10:12:41Z</time>
      </trkpt>
      <trkpt lat="48.61767" lon="1.97011">
        <ele>119</ele>
        <time>2020-05-31T10:12:43Z</time>
      </trkpt>
      <trkpt lat="48.61765" lon="1.97011">
        <ele>119</ele>
        <time>2020-05-31T10:12:44Z</time>
      </trkpt>
      <trkpt lat="48.61763" lon="1.97011">
        <ele>119</ele>
        <time>2020-05-31T10:12:45Z</time>
      </trkpt>
      <trkpt lat="48.61761" lon="1.9701">
        <ele>120</ele>
        <time>2020-05-31T10:12:46Z</time>
      </trkpt>
      <trkpt lat="48.61759" lon="1.9701">
        <ele>120</ele>
        <time>2020-05-31T10:12:47Z</time>
      </trkpt>
      <trkpt lat="48.61757" lon="1.9701">
        <ele>120</ele>
        <time>2020-05-31T10:12:48Z</time>
      </trkpt>
      <trkpt lat="48.61755" lon="1.9701">
        <ele>120</ele>
        <time>2020-05-31T10:12:49Z</time>
      </trkpt>
      <trkpt lat="48.61752" lon="1.97011">
        <ele>120</ele>
        <time>2020-05-31T10:12:51Z</time>
      </trkpt>
      <trkpt lat="48.6175" lon="1.97011">
        <ele>120</ele>
        <time>2020-05-31T10:12:53Z</time>
      </trkpt>
      <trkpt lat="48.61746" lon="1.97012">
        <ele>120</ele>
        <time>2020-05-31T10:12:55Z</time>
      </trkpt>
      <trkpt lat="48.61741" lon="1.97012">
        <ele>120</ele>
        <time>2020-05-31T10:12:58Z</time>
      </trkpt>
      <trkpt lat="48.61734" lon="1.97011">
        <ele>121</ele>
        <time>2020-05-31T10:13:01Z</time>
      </trkpt>
      <trkpt lat="48.61732" lon="1.97011">
        <ele>121</ele>
        <time>2020-05-31T10:13:02Z</time>
      </trkpt>
      <trkpt lat="48.6173" lon="1.97011">
        <ele>121</ele>
        <time>2020-05-31T10:13:03Z</time>
      </trkpt>
      <trkpt lat="48.61728" lon="1.97011">
        <ele>121</ele>
        <time>2020-05-31T10:13:04Z</time>
      </trkpt>
      <trkpt lat="48.61724" lon="1.9701">
        <ele>121</ele>
        <time>2020-05-31T10:13:06Z</time>
      </trkpt>
      <trkpt lat="48.61722" lon="1.9701">
        <ele>121</ele>
        <time>2020-05-31T10:13:07Z</time>
      </trkpt>
      <trkpt lat="48.6172" lon="1.9701">
        <ele>121</ele>
        <time>2020-05-31T10:13:08Z</time>
      </trkpt>
      <trkpt lat="48.61718" lon="1.97009">
        <ele>121</ele>
        <time>2020-05-31T10:13:09Z</time>
      </trkpt>
      <trkpt lat="48.61716" lon="1.97009">
        <ele>121</ele>
        <time>2020-05-31T10:13:10Z</time>
      </trkpt>
      <trkpt lat="48.61713" lon="1.97009">
        <ele>121</ele>
        <time>2020-05-31T10:13:11Z</time>
      </trkpt>
      <trkpt lat="48.61711" lon="1.97008">
        <ele>121</ele>
        <time>2020-05-31T10:13:12Z</time>
      </trkpt>
      <trkpt lat="48.61709" lon="1.97008">
        <ele>121</ele>
        <time>2020-05-31T10:13:13Z</time>
      </trkpt>
      <trkpt lat="48.61706" lon="1.97006">
        <ele>121</ele>
        <time>2020-05-31T10:13:15Z</time>
      </trkpt>
      <trkpt lat="48.61704" lon="1.97005">
        <ele>121</ele>
        <time>2020-05-31T10:13:16Z</time>
      </trkpt>
      <trkpt lat="48.61701" lon="1.97004">
        <ele>121</ele>
        <time>2020-05-31T10:13:18Z</time>
      </trkpt>
      <trkpt lat="48.61699" lon="1.97003">
        <ele>121</ele>
        <time>2020-05-31T10:13:19Z</time>
      </trkpt>
      <trkpt lat="48.61696" lon="1.97002">
        <ele>121</ele>
        <time>2020-05-31T10:13:20Z</time>
      </trkpt>
      <trkpt lat="48.61694" lon="1.97001">
        <ele>121</ele>
        <time>2020-05-31T10:13:21Z</time>
      </trkpt>
      <trkpt lat="48.61691" lon="1.97">
        <ele>121</ele>
        <time>2020-05-31T10:13:23Z</time>
      </trkpt>
      <trkpt lat="48.61688" lon="1.96998">
        <ele>121</ele>
        <time>2020-05-31T10:13:25Z</time>
      </trkpt>
      <trkpt lat="48.61686" lon="1.96997">
        <ele>121</ele>
        <time>2020-05-31T10:13:27Z</time>
      </trkpt>
      <trkpt lat="48.61682" lon="1.96996">
        <ele>121</ele>
        <time>2020-05-31T10:13:29Z</time>
      </trkpt>
      <trkpt lat="48.61679" lon="1.96995">
        <ele>121</ele>
        <time>2020-05-31T10:13:31Z</time>
      </trkpt>
      <trkpt lat="48.61676" lon="1.96995">
        <ele>121</ele>
        <time>2020-05-31T10:13:35Z</time>
      </trkpt>
      <trkpt lat="48.61674" lon="1.96995">
        <ele>121</ele>
        <time>2020-05-31T10:13:36Z</time>
      </trkpt>
      <trkpt lat="48.61672" lon="1.96994">
        <ele>121</ele>
        <time>2020-05-31T10:13:37Z</time>
      </trkpt>
      <trkpt lat="48.61669" lon="1.96992">
        <ele>121</ele>
        <time>2020-05-31T10:13:39Z</time>
      </trkpt>
      <trkpt lat="48.61666" lon="1.96991">
        <ele>121</ele>
        <time>2020-05-31T10:13:41Z</time>
      </trkpt>
      <trkpt lat="48.61663" lon="1.9699">
        <ele>121</ele>
        <time>2020-05-31T10:13:43Z</time>
      </trkpt>
      <trkpt lat="48.6166" lon="1.9699">
        <ele>121</ele>
        <time>2020-05-31T10:13:44Z</time>
      </trkpt>
      <trkpt lat="48.61657" lon="1.96989">
        <ele>121</ele>
        <time>2020-05-31T10:13:45Z</time>
      </trkpt>
      <trkpt lat="48.61654" lon="1.96989">
        <ele>121</ele>
        <time>2020-05-31T10:13:47Z</time>
      </trkpt>
      <trkpt lat="48.61652" lon="1.96989">
        <ele>122</ele>
        <time>2020-05-31T10:13:49Z</time>
      </trkpt>
      <trkpt lat="48.6165" lon="1.96989">
        <ele>121</ele>
        <time>2020-05-31T10:13:51Z</time>
      </trkpt>
      <trkpt lat="48.61647" lon="1.96989">
        <ele>121</ele>
        <time>2020-05-31T10:13:53Z</time>
      </trkpt>
      <trkpt lat="48.61644" lon="1.9699">
        <ele>121</ele>
        <time>2020-05-31T10:13:55Z</time>
      </trkpt>
      <trkpt lat="48.6164" lon="1.9699">
        <ele>122</ele>
        <time>2020-05-31T10:13:57Z</time>
      </trkpt>
      <trkpt lat="48.61637" lon="1.96991">
        <ele>121</ele>
        <time>2020-05-31T10:13:59Z</time>
      </trkpt>
      <trkpt lat="48.61634" lon="1.96991">
        <ele>121</ele>
        <time>2020-05-31T10:14:01Z</time>
      </trkpt>
      <trkpt lat="48.61631" lon="1.96991">
        <ele>121</ele>
        <time>2020-05-31T10:14:03Z</time>
      </trkpt>
      <trkpt lat="48.61629" lon="1.9699">
        <ele>121</ele>
        <time>2020-05-31T10:14:04Z</time>
      </trkpt>
      <trkpt lat="48.61627" lon="1.9699">
        <ele>121</ele>
        <time>2020-05-31T10:14:05Z</time>
      </trkpt>
      <trkpt lat="48.61624" lon="1.96989">
        <ele>120</ele>
        <time>2020-05-31T10:14:07Z</time>
      </trkpt>
      <trkpt lat="48.61621" lon="1.96989">
        <ele>120</ele>
        <time>2020-05-31T10:14:09Z</time>
      </trkpt>
      <trkpt lat="48.61618" lon="1.96989">
        <ele>120</ele>
        <time>2020-05-31T10:14:11Z</time>
      </trkpt>
      <trkpt lat="48.61616" lon="1.96989">
        <ele>119</ele>
        <time>2020-05-31T10:14:12Z</time>
      </trkpt>
      <trkpt lat="48.61612" lon="1.96988">
        <ele>119</ele>
        <time>2020-05-31T10:14:13Z</time>
      </trkpt>
      <trkpt lat="48.6161" lon="1.96988">
        <ele>119</ele>
        <time>2020-05-31T10:14:14Z</time>
      </trkpt>
      <trkpt lat="48.61606" lon="1.96987">
        <ele>119</ele>
        <time>2020-05-31T10:14:16Z</time>
      </trkpt>
      <trkpt lat="48.61603" lon="1.96987">
        <ele>119</ele>
        <time>2020-05-31T10:14:18Z</time>
      </trkpt>
      <trkpt lat="48.61601" lon="1.96987">
        <ele>119</ele>
        <time>2020-05-31T10:14:19Z</time>
      </trkpt>
      <trkpt lat="48.61597" lon="1.96987">
        <ele>118</ele>
        <time>2020-05-31T10:14:21Z</time>
      </trkpt>
      <trkpt lat="48.61595" lon="1.96987">
        <ele>118</ele>
        <time>2020-05-31T10:14:22Z</time>
      </trkpt>
      <trkpt lat="48.61594" lon="1.96986">
        <ele>118</ele>
        <time>2020-05-31T10:14:23Z</time>
      </trkpt>
      <trkpt lat="48.61592" lon="1.96986">
        <ele>117</ele>
        <time>2020-05-31T10:14:24Z</time>
      </trkpt>
      <trkpt lat="48.61589" lon="1.96986">
        <ele>116</ele>
        <time>2020-05-31T10:14:26Z</time>
      </trkpt>
      <trkpt lat="48.61586" lon="1.96986">
        <ele>115</ele>
        <time>2020-05-31T10:14:28Z</time>
      </trkpt>
      <trkpt lat="48.61584" lon="1.96984">
        <ele>114</ele>
        <time>2020-05-31T10:14:32Z</time>
      </trkpt>
      <trkpt lat="48.61583" lon="1.96982">
        <ele>113</ele>
        <time>2020-05-31T10:14:36Z</time>
      </trkpt>
      <trkpt lat="48.61581" lon="1.96981">
        <ele>113</ele>
        <time>2020-05-31T10:14:38Z</time>
      </trkpt>
      <trkpt lat="48.61579" lon="1.96982">
        <ele>112</ele>
        <time>2020-05-31T10:14:40Z</time>
      </trkpt>
      <trkpt lat="48.61576" lon="1.96982">
        <ele>112</ele>
        <time>2020-05-31T10:14:42Z</time>
      </trkpt>
      <trkpt lat="48.61573" lon="1.96982">
        <ele>112</ele>
        <time>2020-05-31T10:14:44Z</time>
      </trkpt>
      <trkpt lat="48.61571" lon="1.96982">
        <ele>111</ele>
        <time>2020-05-31T10:14:46Z</time>
      </trkpt>
      <trkpt lat="48.61568" lon="1.96983">
        <ele>111</ele>
        <time>2020-05-31T10:14:48Z</time>
      </trkpt>
      <trkpt lat="48.61565" lon="1.96984">
        <ele>111</ele>
        <time>2020-05-31T10:14:50Z</time>
      </trkpt>
      <trkpt lat="48.61562" lon="1.96985">
        <ele>111</ele>
        <time>2020-05-31T10:14:52Z</time>
      </trkpt>
      <trkpt lat="48.6156" lon="1.96987">
        <ele>111</ele>
        <time>2020-05-31T10:14:54Z</time>
      </trkpt>
      <trkpt lat="48.61557" lon="1.96988">
        <ele>110</ele>
        <time>2020-05-31T10:14:56Z</time>
      </trkpt>
      <trkpt lat="48.61553" lon="1.96989">
        <ele>110</ele>
        <time>2020-05-31T10:14:58Z</time>
      </trkpt>
      <trkpt lat="48.61551" lon="1.9699">
        <ele>110</ele>
        <time>2020-05-31T10:14:59Z</time>
      </trkpt>
      <trkpt lat="48.61548" lon="1.9699">
        <ele>110</ele>
        <time>2020-05-31T10:15:01Z</time>
      </trkpt>
      <trkpt lat="48.61546" lon="1.9699">
        <ele>110</ele>
        <time>2020-05-31T10:15:02Z</time>
      </trkpt>
      <trkpt lat="48.61544" lon="1.96991">
        <ele>109</ele>
        <time>2020-05-31T10:15:04Z</time>
      </trkpt>
      <trkpt lat="48.61541" lon="1.96993">
        <ele>109</ele>
        <time>2020-05-31T10:15:06Z</time>
      </trkpt>
      <trkpt lat="48.61539" lon="1.96994">
        <ele>109</ele>
        <time>2020-05-31T10:15:07Z</time>
      </trkpt>
      <trkpt lat="48.61537" lon="1.96994">
        <ele>109</ele>
        <time>2020-05-31T10:15:08Z</time>
      </trkpt>
      <trkpt lat="48.61534" lon="1.96995">
        <ele>109</ele>
        <time>2020-05-31T10:15:10Z</time>
      </trkpt>
      <trkpt lat="48.61531" lon="1.96995">
        <ele>109</ele>
        <time>2020-05-31T10:15:12Z</time>
      </trkpt>
      <trkpt lat="48.61528" lon="1.96997">
        <ele>108</ele>
        <time>2020-05-31T10:15:14Z</time>
      </trkpt>
      <trkpt lat="48.61525" lon="1.96999">
        <ele>108</ele>
        <time>2020-05-31T10:15:16Z</time>
      </trkpt>
      <trkpt lat="48.61523" lon="1.97001">
        <ele>108</ele>
        <time>2020-05-31T10:15:18Z</time>
      </trkpt>
      <trkpt lat="48.6152" lon="1.97002">
        <ele>108</ele>
        <time>2020-05-31T10:15:20Z</time>
      </trkpt>
      <trkpt lat="48.61519" lon="1.97005">
        <ele>108</ele>
        <time>2020-05-31T10:15:22Z</time>
      </trkpt>
      <trkpt lat="48.61517" lon="1.97008">
        <ele>108</ele>
        <time>2020-05-31T10:15:24Z</time>
      </trkpt>
      <trkpt lat="48.61514" lon="1.9701">
        <ele>109</ele>
        <time>2020-05-31T10:15:26Z</time>
      </trkpt>
      <trkpt lat="48.61512" lon="1.97011">
        <ele>109</ele>
        <time>2020-05-31T10:15:28Z</time>
      </trkpt>
      <trkpt lat="48.61509" lon="1.97012">
        <ele>109</ele>
        <time>2020-05-31T10:15:30Z</time>
      </trkpt>
      <trkpt lat="48.61506" lon="1.97014">
        <ele>109</ele>
        <time>2020-05-31T10:15:32Z</time>
      </trkpt>
      <trkpt lat="48.61504" lon="1.97017">
        <ele>110</ele>
        <time>2020-05-31T10:15:34Z</time>
      </trkpt>
      <trkpt lat="48.61501" lon="1.97019">
        <ele>109</ele>
        <time>2020-05-31T10:15:36Z</time>
      </trkpt>
      <trkpt lat="48.61499" lon="1.9702">
        <ele>109</ele>
        <time>2020-05-31T10:15:37Z</time>
      </trkpt>
      <trkpt lat="48.61496" lon="1.9702">
        <ele>108</ele>
        <time>2020-05-31T10:15:38Z</time>
      </trkpt>
      <trkpt lat="48.61494" lon="1.97021">
        <ele>108</ele>
        <time>2020-05-31T10:15:39Z</time>
      </trkpt>
      <trkpt lat="48.61491" lon="1.97023">
        <ele>108</ele>
        <time>2020-05-31T10:15:41Z</time>
      </trkpt>
      <trkpt lat="48.61489" lon="1.97025">
        <ele>108</ele>
        <time>2020-05-31T10:15:43Z</time>
      </trkpt>
      <trkpt lat="48.61486" lon="1.97028">
        <ele>108</ele>
        <time>2020-05-31T10:15:45Z</time>
      </trkpt>
      <trkpt lat="48.61483" lon="1.9703">
        <ele>108</ele>
        <time>2020-05-31T10:15:47Z</time>
      </trkpt>
      <trkpt lat="48.61481" lon="1.97033">
        <ele>108</ele>
        <time>2020-05-31T10:15:49Z</time>
      </trkpt>
      <trkpt lat="48.61479" lon="1.97036">
        <ele>108</ele>
        <time>2020-05-31T10:15:53Z</time>
      </trkpt>
      <trkpt lat="48.61477" lon="1.97039">
        <ele>109</ele>
        <time>2020-05-31T10:15:55Z</time>
      </trkpt>
      <trkpt lat="48.61474" lon="1.97043">
        <ele>109</ele>
        <time>2020-05-31T10:15:57Z</time>
      </trkpt>
      <trkpt lat="48.61473" lon="1.97045">
        <ele>109</ele>
        <time>2020-05-31T10:15:58Z</time>
      </trkpt>
      <trkpt lat="48.6147" lon="1.97049">
        <ele>109</ele>
        <time>2020-05-31T10:16:00Z</time>
      </trkpt>
      <trkpt lat="48.61469" lon="1.97051">
        <ele>109</ele>
        <time>2020-05-31T10:16:01Z</time>
      </trkpt>
      <trkpt lat="48.61467" lon="1.97054">
        <ele>109</ele>
        <time>2020-05-31T10:16:03Z</time>
      </trkpt>
      <trkpt lat="48.61465" lon="1.97056">
        <ele>109</ele>
        <time>2020-05-31T10:16:05Z</time>
      </trkpt>
      <trkpt lat="48.61463" lon="1.9706">
        <ele>109</ele>
        <time>2020-05-31T10:16:07Z</time>
      </trkpt>
      <trkpt lat="48.61461" lon="1.97063">
        <ele>109</ele>
        <time>2020-05-31T10:16:09Z</time>
      </trkpt>
      <trkpt lat="48.6146" lon="1.97065">
        <ele>109</ele>
        <time>2020-05-31T10:16:10Z</time>
      </trkpt>
      <trkpt lat="48.61458" lon="1.97067">
        <ele>109</ele>
        <time>2020-05-31T10:16:11Z</time>
      </trkpt>
      <trkpt lat="48.61456" lon="1.9707">
        <ele>109</ele>
        <time>2020-05-31T10:16:13Z</time>
      </trkpt>
      <trkpt lat="48.61454" lon="1.97075">
        <ele>109</ele>
        <time>2020-05-31T10:16:15Z</time>
      </trkpt>
      <trkpt lat="48.61453" lon="1.97077">
        <ele>109</ele>
        <time>2020-05-31T10:16:16Z</time>
      </trkpt>
      <trkpt lat="48.61451" lon="1.97081">
        <ele>109</ele>
        <time>2020-05-31T10:16:18Z</time>
      </trkpt>
      <trkpt lat="48.6145" lon="1.97084">
        <ele>109</ele>
        <time>2020-05-31T10:16:20Z</time>
      </trkpt>
      <trkpt lat="48.61448" lon="1.97088">
        <ele>109</ele>
        <time>2020-05-31T10:16:22Z</time>
      </trkpt>
      <trkpt lat="48.61446" lon="1.97091">
        <ele>109</ele>
        <time>2020-05-31T10:16:24Z</time>
      </trkpt>
      <trkpt lat="48.61444" lon="1.97094">
        <ele>109</ele>
        <time>2020-05-31T10:16:26Z</time>
      </trkpt>
      <trkpt lat="48.6144" lon="1.97096">
        <ele>109</ele>
        <time>2020-05-31T10:16:28Z</time>
      </trkpt>
      <trkpt lat="48.61438" lon="1.97097">
        <ele>109</ele>
        <time>2020-05-31T10:16:29Z</time>
      </trkpt>
      <trkpt lat="48.61436" lon="1.97099">
        <ele>108</ele>
        <time>2020-05-31T10:16:30Z</time>
      </trkpt>
      <trkpt lat="48.61434" lon="1.97101">
        <ele>109</ele>
        <time>2020-05-31T10:16:32Z</time>
      </trkpt>
      <trkpt lat="48.61432" lon="1.97104">
        <ele>109</ele>
        <time>2020-05-31T10:16:34Z</time>
      </trkpt>
      <trkpt lat="48.6143" lon="1.97107">
        <ele>109</ele>
        <time>2020-05-31T10:16:36Z</time>
      </trkpt>
      <trkpt lat="48.61429" lon="1.97111">
        <ele>108</ele>
        <time>2020-05-31T10:16:38Z</time>
      </trkpt>
      <trkpt lat="48.61427" lon="1.97113">
        <ele>108</ele>
        <time>2020-05-31T10:16:39Z</time>
      </trkpt>
      <trkpt lat="48.61426" lon="1.97116">
        <ele>108</ele>
        <time>2020-05-31T10:16:40Z</time>
      </trkpt>
      <trkpt lat="48.61424" lon="1.97118">
        <ele>108</ele>
        <time>2020-05-31T10:16:41Z</time>
      </trkpt>
      <trkpt lat="48.61423" lon="1.9712">
        <ele>108</ele>
        <time>2020-05-31T10:16:42Z</time>
      </trkpt>
      <trkpt lat="48.61421" lon="1.97122">
        <ele>108</ele>
        <time>2020-05-31T10:16:43Z</time>
      </trkpt>
      <trkpt lat="48.61419" lon="1.97124">
        <ele>107</ele>
        <time>2020-05-31T10:16:44Z</time>
      </trkpt>
      <trkpt lat="48.61418" lon="1.97127">
        <ele>107</ele>
        <time>2020-05-31T10:16:45Z</time>
      </trkpt>
      <trkpt lat="48.61416" lon="1.97131">
        <ele>107</ele>
        <time>2020-05-31T10:16:47Z</time>
      </trkpt>
      <trkpt lat="48.61413" lon="1.97134">
        <ele>107</ele>
        <time>2020-05-31T10:16:49Z</time>
      </trkpt>
      <trkpt lat="48.61412" lon="1.97136">
        <ele>107</ele>
        <time>2020-05-31T10:16:50Z</time>
      </trkpt>
      <trkpt lat="48.6141" lon="1.97138">
        <ele>107</ele>
        <time>2020-05-31T10:16:51Z</time>
      </trkpt>
      <trkpt lat="48.61408" lon="1.97139">
        <ele>107</ele>
        <time>2020-05-31T10:16:52Z</time>
      </trkpt>
      <trkpt lat="48.61406" lon="1.9714">
        <ele>106</ele>
        <time>2020-05-31T10:16:53Z</time>
      </trkpt>
      <trkpt lat="48.61403" lon="1.97141">
        <ele>106</ele>
        <time>2020-05-31T10:16:54Z</time>
      </trkpt>
      <trkpt lat="48.61401" lon="1.97142">
        <ele>106</ele>
        <time>2020-05-31T10:16:55Z</time>
      </trkpt>
      <trkpt lat="48.61398" lon="1.97143">
        <ele>106</ele>
        <time>2020-05-31T10:16:56Z</time>
      </trkpt>
      <trkpt lat="48.61396" lon="1.97144">
        <ele>106</ele>
        <time>2020-05-31T10:16:57Z</time>
      </trkpt>
      <trkpt lat="48.61394" lon="1.97145">
        <ele>106</ele>
        <time>2020-05-31T10:16:58Z</time>
      </trkpt>
      <trkpt lat="48.61392" lon="1.97146">
        <ele>106</ele>
        <time>2020-05-31T10:16:59Z</time>
      </trkpt>
      <trkpt lat="48.6139" lon="1.97146">
        <ele>106</ele>
        <time>2020-05-31T10:17:00Z</time>
      </trkpt>
      <trkpt lat="48.61388" lon="1.97147">
        <ele>105</ele>
        <time>2020-05-31T10:17:01Z</time>
      </trkpt>
      <trkpt lat="48.61386" lon="1.97148">
        <ele>105</ele>
        <time>2020-05-31T10:17:02Z</time>
      </trkpt>
      <trkpt lat="48.61384" lon="1.97148">
        <ele>105</ele>
        <time>2020-05-31T10:17:03Z</time>
      </trkpt>
      <trkpt lat="48.61382" lon="1.97149">
        <ele>105</ele>
        <time>2020-05-31T10:17:04Z</time>
      </trkpt>
      <trkpt lat="48.61381" lon="1.9715">
        <ele>105</ele>
        <time>2020-05-31T10:17:05Z</time>
      </trkpt>
      <trkpt lat="48.61378" lon="1.9715">
        <ele>104</ele>
        <time>2020-05-31T10:17:07Z</time>
      </trkpt>
      <trkpt lat="48.61374" lon="1.9715">
        <ele>104</ele>
        <time>2020-05-31T10:17:09Z</time>
      </trkpt>
      <trkpt lat="48.61371" lon="1.97151">
        <ele>104</ele>
        <time>2020-05-31T10:17:11Z</time>
      </trkpt>
      <trkpt lat="48.61367" lon="1.97151">
        <ele>103</ele>
        <time>2020-05-31T10:17:13Z</time>
      </trkpt>
      <trkpt lat="48.61366" lon="1.97152">
        <ele>103</ele>
        <time>2020-05-31T10:17:14Z</time>
      </trkpt>
      <trkpt lat="48.61362" lon="1.97152">
        <ele>103</ele>
        <time>2020-05-31T10:17:16Z</time>
      </trkpt>
      <trkpt lat="48.6136" lon="1.97152">
        <ele>103</ele>
        <time>2020-05-31T10:17:17Z</time>
      </trkpt>
      <trkpt lat="48.61358" lon="1.97151">
        <ele>103</ele>
        <time>2020-05-31T10:17:18Z</time>
      </trkpt>
      <trkpt lat="48.61355" lon="1.9715">
        <ele>103</ele>
        <time>2020-05-31T10:17:20Z</time>
      </trkpt>
      <trkpt lat="48.61354" lon="1.97149">
        <ele>102</ele>
        <time>2020-05-31T10:17:21Z</time>
      </trkpt>
      <trkpt lat="48.6135" lon="1.97148">
        <ele>102</ele>
        <time>2020-05-31T10:17:23Z</time>
      </trkpt>
      <trkpt lat="48.61347" lon="1.97148">
        <ele>102</ele>
        <time>2020-05-31T10:17:25Z</time>
      </trkpt>
      <trkpt lat="48.61344" lon="1.97147">
        <ele>102</ele>
        <time>2020-05-31T10:17:27Z</time>
      </trkpt>
      <trkpt lat="48.6134" lon="1.97145">
        <ele>102</ele>
        <time>2020-05-31T10:17:29Z</time>
      </trkpt>
      <trkpt lat="48.61337" lon="1.97144">
        <ele>101</ele>
        <time>2020-05-31T10:17:31Z</time>
      </trkpt>
      <trkpt lat="48.61335" lon="1.97144">
        <ele>101</ele>
        <time>2020-05-31T10:17:33Z</time>
      </trkpt>
      <trkpt lat="48.61331" lon="1.97144">
        <ele>101</ele>
        <time>2020-05-31T10:17:35Z</time>
      </trkpt>
      <trkpt lat="48.61329" lon="1.97143">
        <ele>101</ele>
        <time>2020-05-31T10:17:37Z</time>
      </trkpt>
      <trkpt lat="48.61327" lon="1.97143">
        <ele>101</ele>
        <time>2020-05-31T10:17:41Z</time>
      </trkpt>
      <trkpt lat="48.61325" lon="1.97143">
        <ele>101</ele>
        <time>2020-05-31T10:17:42Z</time>
      </trkpt>
      <trkpt lat="48.61322" lon="1.97143">
        <ele>102</ele>
        <time>2020-05-31T10:17:43Z</time>
      </trkpt>
      <trkpt lat="48.6132" lon="1.97142">
        <ele>102</ele>
        <time>2020-05-31T10:17:44Z</time>
      </trkpt>
      <trkpt lat="48.61318" lon="1.97142">
        <ele>102</ele>
        <time>2020-05-31T10:17:45Z</time>
      </trkpt>
      <trkpt lat="48.61315" lon="1.97142">
        <ele>102</ele>
        <time>2020-05-31T10:17:47Z</time>
      </trkpt>
      <trkpt lat="48.61312" lon="1.97142">
        <ele>102</ele>
        <time>2020-05-31T10:17:49Z</time>
      </trkpt>
      <trkpt lat="48.6131" lon="1.97142">
        <ele>102</ele>
        <time>2020-05-31T10:17:50Z</time>
      </trkpt>
      <trkpt lat="48.61307" lon="1.97141">
        <ele>102</ele>
        <time>2020-05-31T10:17:51Z</time>
      </trkpt>
      <trkpt lat="48.61305" lon="1.9714">
        <ele>102</ele>
        <time>2020-05-31T10:17:52Z</time>
      </trkpt>
      <trkpt lat="48.61302" lon="1.97141">
        <ele>102</ele>
        <time>2020-05-31T10:17:54Z</time>
      </trkpt>
      <trkpt lat="48.61299" lon="1.9714">
        <ele>102</ele>
        <time>2020-05-31T10:17:56Z</time>
      </trkpt>
      <trkpt lat="48.61297" lon="1.9714">
        <ele>102</ele>
        <time>2020-05-31T10:17:57Z</time>
      </trkpt>
      <trkpt lat="48.61295" lon="1.9714">
        <ele>102</ele>
        <time>2020-05-31T10:17:58Z</time>
      </trkpt>
      <trkpt lat="48.61293" lon="1.97139">
        <ele>101</ele>
        <time>2020-05-31T10:17:59Z</time>
      </trkpt>
      <trkpt lat="48.61291" lon="1.97138">
        <ele>101</ele>
        <time>2020-05-31T10:18:00Z</time>
      </trkpt>
      <trkpt lat="48.61288" lon="1.97137">
        <ele>101</ele>
        <time>2020-05-31T10:18:02Z</time>
      </trkpt>
      <trkpt lat="48.61285" lon="1.97135">
        <ele>101</ele>
        <time>2020-05-31T10:18:04Z</time>
      </trkpt>
      <trkpt lat="48.61282" lon="1.97135">
        <ele>101</ele>
        <time>2020-05-31T10:18:06Z</time>
      </trkpt>
      <trkpt lat="48.61279" lon="1.97133">
        <ele>101</ele>
        <time>2020-05-31T10:18:08Z</time>
      </trkpt>
      <trkpt lat="48.61277" lon="1.97132">
        <ele>101</ele>
        <time>2020-05-31T10:18:10Z</time>
      </trkpt>
      <trkpt lat="48.61274" lon="1.97132">
        <ele>101</ele>
        <time>2020-05-31T10:18:12Z</time>
      </trkpt>
      <trkpt lat="48.61271" lon="1.97132">
        <ele>101</ele>
        <time>2020-05-31T10:18:14Z</time>
      </trkpt>
      <trkpt lat="48.61268" lon="1.97131">
        <ele>101</ele>
        <time>2020-05-31T10:18:16Z</time>
      </trkpt>
      <trkpt lat="48.61265" lon="1.97131">
        <ele>101</ele>
        <time>2020-05-31T10:18:18Z</time>
      </trkpt>
      <trkpt lat="48.61263" lon="1.97132">
        <ele>101</ele>
        <time>2020-05-31T10:18:20Z</time>
      </trkpt>
      <trkpt lat="48.6126" lon="1.97133">
        <ele>101</ele>
        <time>2020-05-31T10:18:22Z</time>
      </trkpt>
      <trkpt lat="48.61257" lon="1.97134">
        <ele>101</ele>
        <time>2020-05-31T10:18:24Z</time>
      </trkpt>
      <trkpt lat="48.61254" lon="1.97135">
        <ele>101</ele>
        <time>2020-05-31T10:18:26Z</time>
      </trkpt>
      <trkpt lat="48.61252" lon="1.97135">
        <ele>101</ele>
        <time>2020-05-31T10:18:28Z</time>
      </trkpt>
      <trkpt lat="48.61249" lon="1.97137">
        <ele>101</ele>
        <time>2020-05-31T10:18:30Z</time>
      </trkpt>
      <trkpt lat="48.61246" lon="1.97138">
        <ele>101</ele>
        <time>2020-05-31T10:18:32Z</time>
      </trkpt>
      <trkpt lat="48.61244" lon="1.97139">
        <ele>101</ele>
        <time>2020-05-31T10:18:34Z</time>
      </trkpt>
      <trkpt lat="48.61241" lon="1.9714">
        <ele>101</ele>
        <time>2020-05-31T10:18:36Z</time>
      </trkpt>
      <trkpt lat="48.61238" lon="1.97141">
        <ele>101</ele>
        <time>2020-05-31T10:18:38Z</time>
      </trkpt>
      <trkpt lat="48.61236" lon="1.97141">
        <ele>101</ele>
        <time>2020-05-31T10:18:41Z</time>
      </trkpt>
      <trkpt lat="48.61235" lon="1.97139">
        <ele>101</ele>
        <time>2020-05-31T10:18:55Z</time>
      </trkpt>
      <trkpt lat="48.61233" lon="1.97137">
        <ele>101</ele>
        <time>2020-05-31T10:19:01Z</time>
      </trkpt>
      <trkpt lat="48.61235" lon="1.97138">
        <ele>102</ele>
        <time>2020-05-31T10:19:13Z</time>
      </trkpt>
      <trkpt lat="48.61242" lon="1.97142">
        <ele>100</ele>
        <time>2020-05-31T10:34:34Z</time>
      </trkpt>
      <trkpt lat="48.60766" lon="1.97442">
        <ele>108</ele>
        <time>2020-05-31T11:24:29Z</time>
      </trkpt>
      <trkpt lat="48.60763" lon="1.97443">
        <ele>108</ele>
        <time>2020-05-31T11:24:31Z</time>
      </trkpt>
      <trkpt lat="48.60761" lon="1.97445">
        <ele>108</ele>
        <time>2020-05-31T11:24:33Z</time>
      </trkpt>
      <trkpt lat="48.60758" lon="1.97446">
        <ele>108</ele>
        <time>2020-05-31T11:24:35Z</time>
      </trkpt>
      <trkpt lat="48.60755" lon="1.97448">
        <ele>108</ele>
        <time>2020-05-31T11:24:37Z</time>
      </trkpt>
      <trkpt lat="48.60753" lon="1.97449">
        <ele>108</ele>
        <time>2020-05-31T11:24:39Z</time>
      </trkpt>
      <trkpt lat="48.6075" lon="1.97451">
        <ele>108</ele>
        <time>2020-05-31T11:24:41Z</time>
      </trkpt>
      <trkpt lat="48.60747" lon="1.97453">
        <ele>108</ele>
        <time>2020-05-31T11:24:43Z</time>
      </trkpt>
      <trkpt lat="48.60745" lon="1.97455">
        <ele>108</ele>
        <time>2020-05-31T11:24:45Z</time>
      </trkpt>
      <trkpt lat="48.60742" lon="1.97458">
        <ele>108</ele>
        <time>2020-05-31T11:24:47Z</time>
      </trkpt>
      <trkpt lat="48.60739" lon="1.9746">
        <ele>108</ele>
        <time>2020-05-31T11:24:49Z</time>
      </trkpt>
      <trkpt lat="48.60736" lon="1.97461">
        <ele>108</ele>
        <time>2020-05-31T11:24:51Z</time>
      </trkpt>
      <trkpt lat="48.60733" lon="1.97462">
        <ele>108</ele>
        <time>2020-05-31T11:24:53Z</time>
      </trkpt>
      <trkpt lat="48.6073" lon="1.97463">
        <ele>108</ele>
        <time>2020-05-31T11:24:55Z</time>
      </trkpt>
      <trkpt lat="48.60727" lon="1.97465">
        <ele>108</ele>
        <time>2020-05-31T11:24:57Z</time>
      </trkpt>
      <trkpt lat="48.60725" lon="1.97467">
        <ele>108</ele>
        <time>2020-05-31T11:24:59Z</time>
      </trkpt>
      <trkpt lat="48.60722" lon="1.97469">
        <ele>109</ele>
        <time>2020-05-31T11:25:01Z</time>
      </trkpt>
      <trkpt lat="48.60719" lon="1.97471">
        <ele>109</ele>
        <time>2020-05-31T11:25:03Z</time>
      </trkpt>
      <trkpt lat="48.60716" lon="1.97472">
        <ele>108</ele>
        <time>2020-05-31T11:25:05Z</time>
      </trkpt>
      <trkpt lat="48.60714" lon="1.97473">
        <ele>108</ele>
        <time>2020-05-31T11:25:06Z</time>
      </trkpt>
      <trkpt lat="48.60711" lon="1.97475">
        <ele>108</ele>
        <time>2020-05-31T11:25:08Z</time>
      </trkpt>
      <trkpt lat="48.60708" lon="1.97476">
        <ele>108</ele>
        <time>2020-05-31T11:25:10Z</time>
      </trkpt>
      <trkpt lat="48.60706" lon="1.97476">
        <ele>108</ele>
        <time>2020-05-31T11:25:12Z</time>
      </trkpt>
      <trkpt lat="48.60704" lon="1.97475">
        <ele>109</ele>
        <time>2020-05-31T11:25:14Z</time>
      </trkpt>
      <trkpt lat="48.60701" lon="1.97476">
        <ele>109</ele>
        <time>2020-05-31T11:25:16Z</time>
      </trkpt>
      <trkpt lat="48.60697" lon="1.97476">
        <ele>109</ele>
        <time>2020-05-31T11:25:18Z</time>
      </trkpt>
      <trkpt lat="48.60694" lon="1.97475">
        <ele>109</ele>
        <time>2020-05-31T11:25:20Z</time>
      </trkpt>
      <trkpt lat="48.60691" lon="1.97475">
        <ele>108</ele>
        <time>2020-05-31T11:25:22Z</time>
      </trkpt>
      <trkpt lat="48.60687" lon="1.97475">
        <ele>108</ele>
        <time>2020-05-31T11:25:24Z</time>
      </trkpt>
      <trkpt lat="48.60685" lon="1.97474">
        <ele>108</ele>
        <time>2020-05-31T11:25:25Z</time>
      </trkpt>
      <trkpt lat="48.60683" lon="1.97474">
        <ele>108</ele>
        <time>2020-05-31T11:25:26Z</time>
      </trkpt>
      <trkpt lat="48.6068" lon="1.97473">
        <ele>108</ele>
        <time>2020-05-31T11:25:28Z</time>
      </trkpt>
      <trkpt lat="48.60678" lon="1.97472">
        <ele>108</ele>
        <time>2020-05-31T11:25:30Z</time>
      </trkpt>
      <trkpt lat="48.60675" lon="1.9747">
        <ele>108</ele>
        <time>2020-05-31T11:25:32Z</time>
      </trkpt>
      <trkpt lat="48.60672" lon="1.97467">
        <ele>109</ele>
        <time>2020-05-31T11:25:34Z</time>
      </trkpt>
      <trkpt lat="48.6067" lon="1.97466">
        <ele>109</ele>
        <time>2020-05-31T11:25:36Z</time>
      </trkpt>
      <trkpt lat="48.60667" lon="1.97464">
        <ele>109</ele>
        <time>2020-05-31T11:25:38Z</time>
      </trkpt>
      <trkpt lat="48.60665" lon="1.97461">
        <ele>109</ele>
        <time>2020-05-31T11:25:40Z</time>
      </trkpt>
      <trkpt lat="48.60662" lon="1.97458">
        <ele>109</ele>
        <time>2020-05-31T11:25:42Z</time>
      </trkpt>
      <trkpt lat="48.6066" lon="1.97455">
        <ele>109</ele>
        <time>2020-05-31T11:25:44Z</time>
      </trkpt>
      <trkpt lat="48.60657" lon="1.97452">
        <ele>109</ele>
        <time>2020-05-31T11:25:46Z</time>
      </trkpt>
      <trkpt lat="48.60655" lon="1.97449">
        <ele>109</ele>
        <time>2020-05-31T11:25:48Z</time>
      </trkpt>
      <trkpt lat="48.60652" lon="1.97445">
        <ele>110</ele>
        <time>2020-05-31T11:25:50Z</time>
      </trkpt>
      <trkpt lat="48.6065" lon="1.97442">
        <ele>110</ele>
        <time>2020-05-31T11:25:52Z</time>
      </trkpt>
      <trkpt lat="48.60648" lon="1.9744">
        <ele>109</ele>
        <time>2020-05-31T11:25:56Z</time>
      </trkpt>
      <trkpt lat="48.60646" lon="1.97437">
        <ele>110</ele>
        <time>2020-05-31T11:25:58Z</time>
      </trkpt>
      <trkpt lat="48.60644" lon="1.97433">
        <ele>110</ele>
        <time>2020-05-31T11:26:00Z</time>
      </trkpt>
      <trkpt lat="48.60642" lon="1.97431">
        <ele>110</ele>
        <time>2020-05-31T11:26:01Z</time>
      </trkpt>
      <trkpt lat="48.60641" lon="1.9743">
        <ele>110</ele>
        <time>2020-05-31T11:26:02Z</time>
      </trkpt>
      <trkpt lat="48.60639" lon="1.97428">
        <ele>110</ele>
        <time>2020-05-31T11:26:03Z</time>
      </trkpt>
      <trkpt lat="48.60638" lon="1.97426">
        <ele>110</ele>
        <time>2020-05-31T11:26:04Z</time>
      </trkpt>
      <trkpt lat="48.60636" lon="1.97424">
        <ele>110</ele>
        <time>2020-05-31T11:26:05Z</time>
      </trkpt>
      <trkpt lat="48.60634" lon="1.97422">
        <ele>110</ele>
        <time>2020-05-31T11:26:06Z</time>
      </trkpt>
      <trkpt lat="48.60632" lon="1.9742">
        <ele>110</ele>
        <time>2020-05-31T11:26:07Z</time>
      </trkpt>
      <trkpt lat="48.60631" lon="1.97419">
        <ele>110</ele>
        <time>2020-05-31T11:26:08Z</time>
      </trkpt>
      <trkpt lat="48.60628" lon="1.97416">
        <ele>110</ele>
        <time>2020-05-31T11:26:10Z</time>
      </trkpt>
      <trkpt lat="48.60625" lon="1.97412">
        <ele>110</ele>
        <time>2020-05-31T11:26:12Z</time>
      </trkpt>
      <trkpt lat="48.60623" lon="1.9741">
        <ele>110</ele>
        <time>2020-05-31T11:26:14Z</time>
      </trkpt>
      <trkpt lat="48.6062" lon="1.97407">
        <ele>110</ele>
        <time>2020-05-31T11:26:16Z</time>
      </trkpt>
      <trkpt lat="48.60618" lon="1.97404">
        <ele>110</ele>
        <time>2020-05-31T11:26:18Z</time>
      </trkpt>
      <trkpt lat="48.60615" lon="1.97401">
        <ele>110</ele>
        <time>2020-05-31T11:26:20Z</time>
      </trkpt>
      <trkpt lat="48.60613" lon="1.97398">
        <ele>110</ele>
        <time>2020-05-31T11:26:22Z</time>
      </trkpt>
      <trkpt lat="48.60611" lon="1.97395">
        <ele>111</ele>
        <time>2020-05-31T11:26:24Z</time>
      </trkpt>
      <trkpt lat="48.60609" lon="1.97392">
        <ele>111</ele>
        <time>2020-05-31T11:26:26Z</time>
      </trkpt>
      <trkpt lat="48.60608" lon="1.97387">
        <ele>111</ele>
        <time>2020-05-31T11:26:28Z</time>
      </trkpt>
      <trkpt lat="48.60606" lon="1.97384">
        <ele>111</ele>
        <time>2020-05-31T11:26:30Z</time>
      </trkpt>
      <trkpt lat="48.60605" lon="1.97381">
        <ele>111</ele>
        <time>2020-05-31T11:26:32Z</time>
      </trkpt>
      <trkpt lat="48.60603" lon="1.97378">
        <ele>111</ele>
        <time>2020-05-31T11:26:34Z</time>
      </trkpt>
      <trkpt lat="48.60601" lon="1.97375">
        <ele>111</ele>
        <time>2020-05-31T11:26:36Z</time>
      </trkpt>
      <trkpt lat="48.60599" lon="1.97372">
        <ele>111</ele>
        <time>2020-05-31T11:26:38Z</time>
      </trkpt>
      <trkpt lat="48.60598" lon="1.97369">
        <ele>112</ele>
        <time>2020-05-31T11:26:40Z</time>
      </trkpt>
      <trkpt lat="48.60596" lon="1.97366">
        <ele>112</ele>
        <time>2020-05-31T11:26:42Z</time>
      </trkpt>
      <trkpt lat="48.60593" lon="1.97364">
        <ele>112</ele>
        <time>2020-05-31T11:26:44Z</time>
      </trkpt>
      <trkpt lat="48.60592" lon="1.97362">
        <ele>112</ele>
        <time>2020-05-31T11:26:45Z</time>
      </trkpt>
      <trkpt lat="48.60589" lon="1.97361">
        <ele>112</ele>
        <time>2020-05-31T11:26:47Z</time>
      </trkpt>
      <trkpt lat="48.60587" lon="1.97358">
        <ele>112</ele>
        <time>2020-05-31T11:26:49Z</time>
      </trkpt>
      <trkpt lat="48.60585" lon="1.97354">
        <ele>112</ele>
        <time>2020-05-31T11:26:51Z</time>
      </trkpt>
      <trkpt lat="48.60583" lon="1.97351">
        <ele>113</ele>
        <time>2020-05-31T11:26:53Z</time>
      </trkpt>
      <trkpt lat="48.6058" lon="1.97348">
        <ele>113</ele>
        <time>2020-05-31T11:26:55Z</time>
      </trkpt>
      <trkpt lat="48.60577" lon="1.97347">
        <ele>112</ele>
        <time>2020-05-31T11:26:57Z</time>
      </trkpt>
      <trkpt lat="48.60575" lon="1.97344">
        <ele>112</ele>
        <time>2020-05-31T11:26:59Z</time>
      </trkpt>
      <trkpt lat="48.60573" lon="1.97341">
        <ele>112</ele>
        <time>2020-05-31T11:27:01Z</time>
      </trkpt>
      <trkpt lat="48.60571" lon="1.97337">
        <ele>113</ele>
        <time>2020-05-31T11:27:03Z</time>
      </trkpt>
      <trkpt lat="48.60569" lon="1.97333">
        <ele>113</ele>
        <time>2020-05-31T11:27:05Z</time>
      </trkpt>
      <trkpt lat="48.60567" lon="1.9733">
        <ele>113</ele>
        <time>2020-05-31T11:27:07Z</time>
      </trkpt>
      <trkpt lat="48.60565" lon="1.97326">
        <ele>113</ele>
        <time>2020-05-31T11:27:09Z</time>
      </trkpt>
      <trkpt lat="48.60563" lon="1.97323">
        <ele>113</ele>
        <time>2020-05-31T11:27:11Z</time>
      </trkpt>
      <trkpt lat="48.60561" lon="1.97321">
        <ele>113</ele>
        <time>2020-05-31T11:27:13Z</time>
      </trkpt>
      <trkpt lat="48.60558" lon="1.97318">
        <ele>113</ele>
        <time>2020-05-31T11:27:15Z</time>
      </trkpt>
      <trkpt lat="48.60555" lon="1.97316">
        <ele>113</ele>
        <time>2020-05-31T11:27:17Z</time>
      </trkpt>
      <trkpt lat="48.60553" lon="1.97315">
        <ele>113</ele>
        <time>2020-05-31T11:27:19Z</time>
      </trkpt>
      <trkpt lat="48.60551" lon="1.97314">
        <ele>113</ele>
        <time>2020-05-31T11:27:21Z</time>
      </trkpt>
      <trkpt lat="48.60548" lon="1.97312">
        <ele>113</ele>
        <time>2020-05-31T11:27:23Z</time>
      </trkpt>
      <trkpt lat="48.60545" lon="1.97311">
        <ele>113</ele>
        <time>2020-05-31T11:27:25Z</time>
      </trkpt>
      <trkpt lat="48.60542" lon="1.97309">
        <ele>113</ele>
        <time>2020-05-31T11:27:27Z</time>
      </trkpt>
      <trkpt lat="48.6054" lon="1.97308">
        <ele>113</ele>
        <time>2020-05-31T11:27:29Z</time>
      </trkpt>
      <trkpt lat="48.60537" lon="1.97307">
        <ele>113</ele>
        <time>2020-05-31T11:27:31Z</time>
      </trkpt>
      <trkpt lat="48.60535" lon="1.97308">
        <ele>113</ele>
        <time>2020-05-31T11:27:34Z</time>
      </trkpt>
      <trkpt lat="48.60535" lon="1.97311">
        <ele>114</ele>
        <time>2020-05-31T11:27:45Z</time>
      </trkpt>
      <trkpt lat="48.60536" lon="1.97314">
        <ele>114</ele>
        <time>2020-05-31T11:27:48Z</time>
      </trkpt>
      <trkpt lat="48.60536" lon="1.97318">
        <ele>114</ele>
        <time>2020-05-31T11:27:51Z</time>
      </trkpt>
      <trkpt lat="48.60537" lon="1.97322">
        <ele>115</ele>
        <time>2020-05-31T11:27:53Z</time>
      </trkpt>
      <trkpt lat="48.60537" lon="1.97325">
        <ele>115</ele>
        <time>2020-05-31T11:27:55Z</time>
      </trkpt>
      <trkpt lat="48.60535" lon="1.97328">
        <ele>115</ele>
        <time>2020-05-31T11:27:57Z</time>
      </trkpt>
      <trkpt lat="48.60534" lon="1.9733">
        <ele>114</ele>
        <time>2020-05-31T11:27:59Z</time>
      </trkpt>
      <trkpt lat="48.60534" lon="1.97333">
        <ele>115</ele>
        <time>2020-05-31T11:28:06Z</time>
      </trkpt>
      <trkpt lat="48.60533" lon="1.97331">
        <ele>115</ele>
        <time>2020-05-31T11:28:11Z</time>
      </trkpt>
      <trkpt lat="48.60533" lon="1.97327">
        <ele>114</ele>
        <time>2020-05-31T11:29:00Z</time>
      </trkpt>
      <trkpt lat="48.60533" lon="1.97324">
        <ele>114</ele>
        <time>2020-05-31T11:29:02Z</time>
      </trkpt>
      <trkpt lat="48.60533" lon="1.97322">
        <ele>114</ele>
        <time>2020-05-31T11:29:04Z</time>
      </trkpt>
      <trkpt lat="48.60534" lon="1.97319">
        <ele>114</ele>
        <time>2020-05-31T11:29:06Z</time>
      </trkpt>
      <trkpt lat="48.60535" lon="1.97316">
        <ele>114</ele>
        <time>2020-05-31T11:29:09Z</time>
      </trkpt>
      <trkpt lat="48.60536" lon="1.97319">
        <ele>115</ele>
        <time>2020-05-31T11:29:23Z</time>
      </trkpt>
      <trkpt lat="48.60536" lon="1.97322">
        <ele>115</ele>
        <time>2020-05-31T11:29:31Z</time>
      </trkpt>
      <trkpt lat="48.60537" lon="1.97324">
        <ele>116</ele>
        <time>2020-05-31T11:29:39Z</time>
      </trkpt>
      <trkpt lat="48.60539" lon="1.97324">
        <ele>117</ele>
        <time>2020-05-31T11:29:46Z</time>
      </trkpt>
      <trkpt lat="48.60541" lon="1.97326">
        <ele>117</ele>
        <time>2020-05-31T11:30:02Z</time>
      </trkpt>
      <trkpt lat="48.60539" lon="1.97324">
        <ele>117</ele>
        <time>2020-05-31T11:30:07Z</time>
      </trkpt>
      <trkpt lat="48.60537" lon="1.97322">
        <ele>117</ele>
        <time>2020-05-31T11:30:09Z</time>
      </trkpt>
      <trkpt lat="48.60537" lon="1.97319">
        <ele>118</ele>
        <time>2020-05-31T11:30:17Z</time>
      </trkpt>
      <trkpt lat="48.60536" lon="1.97316">
        <ele>118</ele>
        <time>2020-05-31T11:30:19Z</time>
      </trkpt>
      <trkpt lat="48.60536" lon="1.97313">
        <ele>118</ele>
        <time>2020-05-31T11:30:21Z</time>
      </trkpt>
      <trkpt lat="48.60533" lon="1.97309">
        <ele>118</ele>
        <time>2020-05-31T11:30:23Z</time>
      </trkpt>
      <trkpt lat="48.60531" lon="1.97308">
        <ele>118</ele>
        <time>2020-05-31T11:30:24Z</time>
      </trkpt>
      <trkpt lat="48.60529" lon="1.97306">
        <ele>118</ele>
        <time>2020-05-31T11:30:25Z</time>
      </trkpt>
      <trkpt lat="48.60527" lon="1.97304">
        <ele>118</ele>
        <time>2020-05-31T11:30:26Z</time>
      </trkpt>
      <trkpt lat="48.60526" lon="1.97303">
        <ele>118</ele>
        <time>2020-05-31T11:30:27Z</time>
      </trkpt>
      <trkpt lat="48.60523" lon="1.97301">
        <ele>118</ele>
        <time>2020-05-31T11:30:28Z</time>
      </trkpt>
      <trkpt lat="48.60521" lon="1.97299">
        <ele>118</ele>
        <time>2020-05-31T11:30:29Z</time>
      </trkpt>
      <trkpt lat="48.60519" lon="1.97297">
        <ele>118</ele>
        <time>2020-05-31T11:30:30Z</time>
      </trkpt>
      <trkpt lat="48.60517" lon="1.97295">
        <ele>118</ele>
        <time>2020-05-31T11:30:31Z</time>
      </trkpt>
      <trkpt lat="48.60515" lon="1.97293">
        <ele>118</ele>
        <time>2020-05-31T11:30:32Z</time>
      </trkpt>
      <trkpt lat="48.60513" lon="1.97292">
        <ele>118</ele>
        <time>2020-05-31T11:30:33Z</time>
      </trkpt>
      <trkpt lat="48.60511" lon="1.9729">
        <ele>118</ele>
        <time>2020-05-31T11:30:34Z</time>
      </trkpt>
      <trkpt lat="48.60508" lon="1.97288">
        <ele>118</ele>
        <time>2020-05-31T11:30:35Z</time>
      </trkpt>
      <trkpt lat="48.60506" lon="1.97286">
        <ele>118</ele>
        <time>2020-05-31T11:30:36Z</time>
      </trkpt>
      <trkpt lat="48.60504" lon="1.97285">
        <ele>118</ele>
        <time>2020-05-31T11:30:37Z</time>
      </trkpt>
      <trkpt lat="48.60502" lon="1.97284">
        <ele>118</ele>
        <time>2020-05-31T11:30:38Z</time>
      </trkpt>
      <trkpt lat="48.605" lon="1.97283">
        <ele>118</ele>
        <time>2020-05-31T11:30:39Z</time>
      </trkpt>
      <trkpt lat="48.60498" lon="1.97282">
        <ele>118</ele>
        <time>2020-05-31T11:30:40Z</time>
      </trkpt>
      <trkpt lat="48.60495" lon="1.97281">
        <ele>118</ele>
        <time>2020-05-31T11:30:42Z</time>
      </trkpt>
      <trkpt lat="48.60492" lon="1.9728">
        <ele>118</ele>
        <time>2020-05-31T11:30:44Z</time>
      </trkpt>
      <trkpt lat="48.60489" lon="1.97279">
        <ele>119</ele>
        <time>2020-05-31T11:30:46Z</time>
      </trkpt>
      <trkpt lat="48.60488" lon="1.97277">
        <ele>119</ele>
        <time>2020-05-31T11:30:53Z</time>
      </trkpt>
      <trkpt lat="48.60485" lon="1.97277">
        <ele>119</ele>
        <time>2020-05-31T11:30:55Z</time>
      </trkpt>
      <trkpt lat="48.60483" lon="1.97277">
        <ele>119</ele>
        <time>2020-05-31T11:30:57Z</time>
      </trkpt>
      <trkpt lat="48.60481" lon="1.97276">
        <ele>119</ele>
        <time>2020-05-31T11:30:59Z</time>
      </trkpt>
      <trkpt lat="48.60478" lon="1.97276">
        <ele>119</ele>
        <time>2020-05-31T11:31:01Z</time>
      </trkpt>
      <trkpt lat="48.60475" lon="1.97275">
        <ele>119</ele>
        <time>2020-05-31T11:31:03Z</time>
      </trkpt>
      <trkpt lat="48.60472" lon="1.97275">
        <ele>119</ele>
        <time>2020-05-31T11:31:05Z</time>
      </trkpt>
      <trkpt lat="48.6047" lon="1.97274">
        <ele>119</ele>
        <time>2020-05-31T11:31:07Z</time>
      </trkpt>
      <trkpt lat="48.60468" lon="1.97273">
        <ele>119</ele>
        <time>2020-05-31T11:31:09Z</time>
      </trkpt>
      <trkpt lat="48.60465" lon="1.97273">
        <ele>119</ele>
        <time>2020-05-31T11:31:11Z</time>
      </trkpt>
      <trkpt lat="48.60464" lon="1.97271">
        <ele>119</ele>
        <time>2020-05-31T11:31:13Z</time>
      </trkpt>
      <trkpt lat="48.60461" lon="1.9727">
        <ele>119</ele>
        <time>2020-05-31T11:31:15Z</time>
      </trkpt>
      <trkpt lat="48.60459" lon="1.97269">
        <ele>119</ele>
        <time>2020-05-31T11:31:17Z</time>
      </trkpt>
      <trkpt lat="48.60457" lon="1.97267">
        <ele>119</ele>
        <time>2020-05-31T11:31:19Z</time>
      </trkpt>
      <trkpt lat="48.60454" lon="1.97265">
        <ele>119</ele>
        <time>2020-05-31T11:31:21Z</time>
      </trkpt>
      <trkpt lat="48.60452" lon="1.97264">
        <ele>119</ele>
        <time>2020-05-31T11:31:23Z</time>
      </trkpt>
      <trkpt lat="48.60449" lon="1.97262">
        <ele>119</ele>
        <time>2020-05-31T11:31:25Z</time>
      </trkpt>
      <trkpt lat="48.60446" lon="1.9726">
        <ele>119</ele>
        <time>2020-05-31T11:31:27Z</time>
      </trkpt>
      <trkpt lat="48.60444" lon="1.97258">
        <ele>119</ele>
        <time>2020-05-31T11:31:29Z</time>
      </trkpt>
      <trkpt lat="48.60441" lon="1.97257">
        <ele>119</ele>
        <time>2020-05-31T11:31:31Z</time>
      </trkpt>
      <trkpt lat="48.60439" lon="1.97255">
        <ele>120</ele>
        <time>2020-05-31T11:31:33Z</time>
      </trkpt>
      <trkpt lat="48.60437" lon="1.97253">
        <ele>120</ele>
        <time>2020-05-31T11:31:35Z</time>
      </trkpt>
      <trkpt lat="48.60435" lon="1.97252">
        <ele>120</ele>
        <time>2020-05-31T11:31:37Z</time>
      </trkpt>
      <trkpt lat="48.60432" lon="1.9725">
        <ele>120</ele>
        <time>2020-05-31T11:31:39Z</time>
      </trkpt>
      <trkpt lat="48.6043" lon="1.97247">
        <ele>120</ele>
        <time>2020-05-31T11:31:41Z</time>
      </trkpt>
      <trkpt lat="48.60428" lon="1.97245">
        <ele>120</ele>
        <time>2020-05-31T11:31:43Z</time>
      </trkpt>
      <trkpt lat="48.60426" lon="1.97243">
        <ele>120</ele>
        <time>2020-05-31T11:31:45Z</time>
      </trkpt>
      <trkpt lat="48.60423" lon="1.9724">
        <ele>121</ele>
        <time>2020-05-31T11:31:47Z</time>
      </trkpt>
      <trkpt lat="48.60422" lon="1.97238">
        <ele>121</ele>
        <time>2020-05-31T11:31:49Z</time>
      </trkpt>
      <trkpt lat="48.6042" lon="1.97236">
        <ele>121</ele>
        <time>2020-05-31T11:31:51Z</time>
      </trkpt>
      <trkpt lat="48.60418" lon="1.97233">
        <ele>121</ele>
        <time>2020-05-31T11:31:53Z</time>
      </trkpt>
      <trkpt lat="48.60416" lon="1.97231">
        <ele>121</ele>
        <time>2020-05-31T11:31:55Z</time>
      </trkpt>
      <trkpt lat="48.60414" lon="1.97228">
        <ele>121</ele>
        <time>2020-05-31T11:31:57Z</time>
      </trkpt>
      <trkpt lat="48.60412" lon="1.97226">
        <ele>121</ele>
        <time>2020-05-31T11:31:59Z</time>
      </trkpt>
      <trkpt lat="48.6041" lon="1.97224">
        <ele>121</ele>
        <time>2020-05-31T11:32:01Z</time>
      </trkpt>
      <trkpt lat="48.60408" lon="1.97221">
        <ele>121</ele>
        <time>2020-05-31T11:32:03Z</time>
      </trkpt>
      <trkpt lat="48.60406" lon="1.97219">
        <ele>121</ele>
        <time>2020-05-31T11:32:05Z</time>
      </trkpt>
      <trkpt lat="48.60404" lon="1.97217">
        <ele>122</ele>
        <time>2020-05-31T11:32:07Z</time>
      </trkpt>
      <trkpt lat="48.60402" lon="1.97215">
        <ele>122</ele>
        <time>2020-05-31T11:32:09Z</time>
      </trkpt>
      <trkpt lat="48.604" lon="1.97213">
        <ele>122</ele>
        <time>2020-05-31T11:32:11Z</time>
      </trkpt>
      <trkpt lat="48.60399" lon="1.97211">
        <ele>122</ele>
        <time>2020-05-31T11:32:13Z</time>
      </trkpt>
      <trkpt lat="48.60397" lon="1.97208">
        <ele>122</ele>
        <time>2020-05-31T11:32:15Z</time>
      </trkpt>
      <trkpt lat="48.60395" lon="1.97206">
        <ele>122</ele>
        <time>2020-05-31T11:32:17Z</time>
      </trkpt>
      <trkpt lat="48.60394" lon="1.97204">
        <ele>122</ele>
        <time>2020-05-31T11:32:19Z</time>
      </trkpt>
      <trkpt lat="48.60392" lon="1.97201">
        <ele>122</ele>
        <time>2020-05-31T11:32:21Z</time>
      </trkpt>
      <trkpt lat="48.6039" lon="1.97198">
        <ele>122</ele>
        <time>2020-05-31T11:32:23Z</time>
      </trkpt>
      <trkpt lat="48.60388" lon="1.97196">
        <ele>122</ele>
        <time>2020-05-31T11:32:25Z</time>
      </trkpt>
      <trkpt lat="48.60386" lon="1.97193">
        <ele>122</ele>
        <time>2020-05-31T11:32:27Z</time>
      </trkpt>
      <trkpt lat="48.60384" lon="1.9719">
        <ele>122</ele>
        <time>2020-05-31T11:32:29Z</time>
      </trkpt>
      <trkpt lat="48.60382" lon="1.97186">
        <ele>122</ele>
        <time>2020-05-31T11:32:31Z</time>
      </trkpt>
      <trkpt lat="48.6038" lon="1.97183">
        <ele>122</ele>
        <time>2020-05-31T11:32:33Z</time>
      </trkpt>
      <trkpt lat="48.60378" lon="1.9718">
        <ele>122</ele>
        <time>2020-05-31T11:32:35Z</time>
      </trkpt>
      <trkpt lat="48.60376" lon="1.97177">
        <ele>122</ele>
        <time>2020-05-31T11:32:37Z</time>
      </trkpt>
      <trkpt lat="48.60374" lon="1.97173">
        <ele>122</ele>
        <time>2020-05-31T11:32:39Z</time>
      </trkpt>
      <trkpt lat="48.60372" lon="1.9717">
        <ele>122</ele>
        <time>2020-05-31T11:32:41Z</time>
      </trkpt>
      <trkpt lat="48.6037" lon="1.97167">
        <ele>122</ele>
        <time>2020-05-31T11:32:43Z</time>
      </trkpt>
      <trkpt lat="48.60369" lon="1.97165">
        <ele>122</ele>
        <time>2020-05-31T11:32:45Z</time>
      </trkpt>
      <trkpt lat="48.60367" lon="1.97162">
        <ele>122</ele>
        <time>2020-05-31T11:32:47Z</time>
      </trkpt>
      <trkpt lat="48.60366" lon="1.97159">
        <ele>122</ele>
        <time>2020-05-31T11:32:49Z</time>
      </trkpt>
      <trkpt lat="48.60364" lon="1.97155">
        <ele>121</ele>
        <time>2020-05-31T11:32:51Z</time>
      </trkpt>
      <trkpt lat="48.60362" lon="1.97151">
        <ele>121</ele>
        <time>2020-05-31T11:32:53Z</time>
      </trkpt>
      <trkpt lat="48.60359" lon="1.97148">
        <ele>121</ele>
        <time>2020-05-31T11:32:55Z</time>
      </trkpt>
      <trkpt lat="48.60357" lon="1.97144">
        <ele>121</ele>
        <time>2020-05-31T11:32:57Z</time>
      </trkpt>
      <trkpt lat="48.60354" lon="1.97141">
        <ele>121</ele>
        <time>2020-05-31T11:32:59Z</time>
      </trkpt>
      <trkpt lat="48.60352" lon="1.97137">
        <ele>121</ele>
        <time>2020-05-31T11:33:01Z</time>
      </trkpt>
      <trkpt lat="48.6035" lon="1.97134">
        <ele>121</ele>
        <time>2020-05-31T11:33:03Z</time>
      </trkpt>
      <trkpt lat="48.60347" lon="1.97132">
        <ele>121</ele>
        <time>2020-05-31T11:33:05Z</time>
      </trkpt>
      <trkpt lat="48.60344" lon="1.97129">
        <ele>121</ele>
        <time>2020-05-31T11:33:07Z</time>
      </trkpt>
      <trkpt lat="48.60342" lon="1.97127">
        <ele>121</ele>
        <time>2020-05-31T11:33:09Z</time>
      </trkpt>
      <trkpt lat="48.60339" lon="1.97125">
        <ele>121</ele>
        <time>2020-05-31T11:33:11Z</time>
      </trkpt>
      <trkpt lat="48.60338" lon="1.97122">
        <ele>121</ele>
        <time>2020-05-31T11:33:13Z</time>
      </trkpt>
      <trkpt lat="48.60336" lon="1.97119">
        <ele>122</ele>
        <time>2020-05-31T11:33:15Z</time>
      </trkpt>
      <trkpt lat="48.60335" lon="1.97117">
        <ele>122</ele>
        <time>2020-05-31T11:33:19Z</time>
      </trkpt>
      <trkpt lat="48.60332" lon="1.97115">
        <ele>122</ele>
        <time>2020-05-31T11:33:21Z</time>
      </trkpt>
      <trkpt lat="48.60331" lon="1.97113">
        <ele>122</ele>
        <time>2020-05-31T11:33:22Z</time>
      </trkpt>
      <trkpt lat="48.60328" lon="1.9711">
        <ele>122</ele>
        <time>2020-05-31T11:33:24Z</time>
      </trkpt>
      <trkpt lat="48.60326" lon="1.97108">
        <ele>122</ele>
        <time>2020-05-31T11:33:26Z</time>
      </trkpt>
      <trkpt lat="48.60324" lon="1.97107">
        <ele>122</ele>
        <time>2020-05-31T11:33:27Z</time>
      </trkpt>
      <trkpt lat="48.60321" lon="1.97104">
        <ele>122</ele>
        <time>2020-05-31T11:33:29Z</time>
      </trkpt>
      <trkpt lat="48.60318" lon="1.97102">
        <ele>122</ele>
        <time>2020-05-31T11:33:31Z</time>
      </trkpt>
      <trkpt lat="48.60316" lon="1.97099">
        <ele>122</ele>
        <time>2020-05-31T11:33:33Z</time>
      </trkpt>
      <trkpt lat="48.60314" lon="1.97096">
        <ele>122</ele>
        <time>2020-05-31T11:33:35Z</time>
      </trkpt>
      <trkpt lat="48.60312" lon="1.97093">
        <ele>122</ele>
        <time>2020-05-31T11:33:37Z</time>
      </trkpt>
      <trkpt lat="48.6031" lon="1.97089">
        <ele>122</ele>
        <time>2020-05-31T11:33:39Z</time>
      </trkpt>
      <trkpt lat="48.60309" lon="1.97083">
        <ele>123</ele>
        <time>2020-05-31T11:33:41Z</time>
      </trkpt>
      <trkpt lat="48.60308" lon="1.9708">
        <ele>123</ele>
        <time>2020-05-31T11:33:42Z</time>
      </trkpt>
      <trkpt lat="48.60306" lon="1.97076">
        <ele>122</ele>
        <time>2020-05-31T11:33:44Z</time>
      </trkpt>
      <trkpt lat="48.60304" lon="1.97073">
        <ele>122</ele>
        <time>2020-05-31T11:33:45Z</time>
      </trkpt>
      <trkpt lat="48.60303" lon="1.97068">
        <ele>122</ele>
        <time>2020-05-31T11:33:47Z</time>
      </trkpt>
      <trkpt lat="48.60302" lon="1.97064">
        <ele>123</ele>
        <time>2020-05-31T11:33:49Z</time>
      </trkpt>
      <trkpt lat="48.60302" lon="1.97059">
        <ele>123</ele>
        <time>2020-05-31T11:33:51Z</time>
      </trkpt>
      <trkpt lat="48.60302" lon="1.97054">
        <ele>123</ele>
        <time>2020-05-31T11:33:53Z</time>
      </trkpt>
      <trkpt lat="48.60301" lon="1.97051">
        <ele>123</ele>
        <time>2020-05-31T11:33:54Z</time>
      </trkpt>
      <trkpt lat="48.60301" lon="1.97048">
        <ele>123</ele>
        <time>2020-05-31T11:33:55Z</time>
      </trkpt>
      <trkpt lat="48.603" lon="1.97043">
        <ele>123</ele>
        <time>2020-05-31T11:33:57Z</time>
      </trkpt>
      <trkpt lat="48.603" lon="1.9704">
        <ele>123</ele>
        <time>2020-05-31T11:33:58Z</time>
      </trkpt>
      <trkpt lat="48.60299" lon="1.97035">
        <ele>123</ele>
        <time>2020-05-31T11:34:00Z</time>
      </trkpt>
      <trkpt lat="48.60299" lon="1.97031">
        <ele>123</ele>
        <time>2020-05-31T11:34:02Z</time>
      </trkpt>
      <trkpt lat="48.60298" lon="1.97026">
        <ele>123</ele>
        <time>2020-05-31T11:34:04Z</time>
      </trkpt>
      <trkpt lat="48.60297" lon="1.97022">
        <ele>123</ele>
        <time>2020-05-31T11:34:06Z</time>
      </trkpt>
      <trkpt lat="48.60295" lon="1.97017">
        <ele>123</ele>
        <time>2020-05-31T11:34:08Z</time>
      </trkpt>
      <trkpt lat="48.60294" lon="1.97015">
        <ele>123</ele>
        <time>2020-05-31T11:34:09Z</time>
      </trkpt>
      <trkpt lat="48.60293" lon="1.97011">
        <ele>124</ele>
        <time>2020-05-31T11:34:11Z</time>
      </trkpt>
      <trkpt lat="48.60291" lon="1.97006">
        <ele>124</ele>
        <time>2020-05-31T11:34:13Z</time>
      </trkpt>
      <trkpt lat="48.60291" lon="1.97003">
        <ele>124</ele>
        <time>2020-05-31T11:34:17Z</time>
      </trkpt>
      <trkpt lat="48.6029" lon="1.96999">
        <ele>124</ele>
        <time>2020-05-31T11:34:19Z</time>
      </trkpt>
      <trkpt lat="48.60288" lon="1.96994">
        <ele>123</ele>
        <time>2020-05-31T11:34:21Z</time>
      </trkpt>
      <trkpt lat="48.60287" lon="1.96991">
        <ele>123</ele>
        <time>2020-05-31T11:34:22Z</time>
      </trkpt>
      <trkpt lat="48.60285" lon="1.96987">
        <ele>123</ele>
        <time>2020-05-31T11:34:24Z</time>
      </trkpt>
      <trkpt lat="48.60284" lon="1.96985">
        <ele>123</ele>
        <time>2020-05-31T11:34:25Z</time>
      </trkpt>
      <trkpt lat="48.60282" lon="1.96981">
        <ele>123</ele>
        <time>2020-05-31T11:34:27Z</time>
      </trkpt>
      <trkpt lat="48.6028" lon="1.96976">
        <ele>124</ele>
        <time>2020-05-31T11:34:29Z</time>
      </trkpt>
      <trkpt lat="48.60279" lon="1.96972">
        <ele>124</ele>
        <time>2020-05-31T11:34:31Z</time>
      </trkpt>
      <trkpt lat="48.60278" lon="1.96968">
        <ele>124</ele>
        <time>2020-05-31T11:34:33Z</time>
      </trkpt>
      <trkpt lat="48.60276" lon="1.96964">
        <ele>124</ele>
        <time>2020-05-31T11:34:35Z</time>
      </trkpt>
      <trkpt lat="48.60275" lon="1.96961">
        <ele>125</ele>
        <time>2020-05-31T11:34:37Z</time>
      </trkpt>
      <trkpt lat="48.60274" lon="1.96956">
        <ele>125</ele>
        <time>2020-05-31T11:34:39Z</time>
      </trkpt>
      <trkpt lat="48.60272" lon="1.96951">
        <ele>125</ele>
        <time>2020-05-31T11:34:41Z</time>
      </trkpt>
      <trkpt lat="48.60271" lon="1.96946">
        <ele>125</ele>
        <time>2020-05-31T11:34:43Z</time>
      </trkpt>
      <trkpt lat="48.6027" lon="1.96943">
        <ele>125</ele>
        <time>2020-05-31T11:34:45Z</time>
      </trkpt>
      <trkpt lat="48.60269" lon="1.96939">
        <ele>126</ele>
        <time>2020-05-31T11:34:47Z</time>
      </trkpt>
      <trkpt lat="48.60267" lon="1.96936">
        <ele>126</ele>
        <time>2020-05-31T11:34:49Z</time>
      </trkpt>
      <trkpt lat="48.60264" lon="1.96932">
        <ele>126</ele>
        <time>2020-05-31T11:34:51Z</time>
      </trkpt>
      <trkpt lat="48.60263" lon="1.96929">
        <ele>126</ele>
        <time>2020-05-31T11:34:53Z</time>
      </trkpt>
      <trkpt lat="48.60261" lon="1.96926">
        <ele>126</ele>
        <time>2020-05-31T11:34:55Z</time>
      </trkpt>
      <trkpt lat="48.6026" lon="1.96922">
        <ele>126</ele>
        <time>2020-05-31T11:34:57Z</time>
      </trkpt>
      <trkpt lat="48.60259" lon="1.96918">
        <ele>126</ele>
        <time>2020-05-31T11:34:59Z</time>
      </trkpt>
      <trkpt lat="48.60258" lon="1.96914">
        <ele>126</ele>
        <time>2020-05-31T11:35:01Z</time>
      </trkpt>
      <trkpt lat="48.60257" lon="1.96911">
        <ele>126</ele>
        <time>2020-05-31T11:35:03Z</time>
      </trkpt>
      <trkpt lat="48.60255" lon="1.96908">
        <ele>126</ele>
        <time>2020-05-31T11:35:05Z</time>
      </trkpt>
      <trkpt lat="48.60253" lon="1.96905">
        <ele>126</ele>
        <time>2020-05-31T11:35:07Z</time>
      </trkpt>
      <trkpt lat="48.60251" lon="1.96902">
        <ele>125</ele>
        <time>2020-05-31T11:35:09Z</time>
      </trkpt>
      <trkpt lat="48.60249" lon="1.96899">
        <ele>126</ele>
        <time>2020-05-31T11:35:11Z</time>
      </trkpt>
      <trkpt lat="48.60247" lon="1.96897">
        <ele>126</ele>
        <time>2020-05-31T11:35:13Z</time>
      </trkpt>
      <trkpt lat="48.60245" lon="1.96893">
        <ele>126</ele>
        <time>2020-05-31T11:35:15Z</time>
      </trkpt>
      <trkpt lat="48.60244" lon="1.96889">
        <ele>126</ele>
        <time>2020-05-31T11:35:17Z</time>
      </trkpt>
      <trkpt lat="48.60242" lon="1.96885">
        <ele>126</ele>
        <time>2020-05-31T11:35:19Z</time>
      </trkpt>
      <trkpt lat="48.60242" lon="1.9688">
        <ele>126</ele>
        <time>2020-05-31T11:35:21Z</time>
      </trkpt>
      <trkpt lat="48.60241" lon="1.96875">
        <ele>127</ele>
        <time>2020-05-31T11:35:23Z</time>
      </trkpt>
      <trkpt lat="48.6024" lon="1.96871">
        <ele>127</ele>
        <time>2020-05-31T11:35:25Z</time>
      </trkpt>
      <trkpt lat="48.60239" lon="1.96868">
        <ele>127</ele>
        <time>2020-05-31T11:35:27Z</time>
      </trkpt>
      <trkpt lat="48.60237" lon="1.96864">
        <ele>127</ele>
        <time>2020-05-31T11:35:29Z</time>
      </trkpt>
      <trkpt lat="48.60236" lon="1.9686">
        <ele>128</ele>
        <time>2020-05-31T11:35:31Z</time>
      </trkpt>
      <trkpt lat="48.60235" lon="1.96856">
        <ele>127</ele>
        <time>2020-05-31T11:35:33Z</time>
      </trkpt>
      <trkpt lat="48.60234" lon="1.96852">
        <ele>128</ele>
        <time>2020-05-31T11:35:35Z</time>
      </trkpt>
      <trkpt lat="48.60232" lon="1.96848">
        <ele>128</ele>
        <time>2020-05-31T11:35:37Z</time>
      </trkpt>
      <trkpt lat="48.60231" lon="1.96843">
        <ele>128</ele>
        <time>2020-05-31T11:35:39Z</time>
      </trkpt>
      <trkpt lat="48.60229" lon="1.96839">
        <ele>129</ele>
        <time>2020-05-31T11:35:41Z</time>
      </trkpt>
      <trkpt lat="48.60228" lon="1.96835">
        <ele>129</ele>
        <time>2020-05-31T11:35:43Z</time>
      </trkpt>
      <trkpt lat="48.60227" lon="1.96831">
        <ele>129</ele>
        <time>2020-05-31T11:35:45Z</time>
      </trkpt>
      <trkpt lat="48.60226" lon="1.96827">
        <ele>129</ele>
        <time>2020-05-31T11:35:47Z</time>
      </trkpt>
      <trkpt lat="48.60225" lon="1.96822">
        <ele>130</ele>
        <time>2020-05-31T11:35:49Z</time>
      </trkpt>
      <trkpt lat="48.60224" lon="1.96818">
        <ele>130</ele>
        <time>2020-05-31T11:35:51Z</time>
      </trkpt>
      <trkpt lat="48.60223" lon="1.96813">
        <ele>130</ele>
        <time>2020-05-31T11:35:53Z</time>
      </trkpt>
      <trkpt lat="48.60222" lon="1.96809">
        <ele>130</ele>
        <time>2020-05-31T11:35:55Z</time>
      </trkpt>
      <trkpt lat="48.6022" lon="1.96806">
        <ele>129</ele>
        <time>2020-05-31T11:35:57Z</time>
      </trkpt>
      <trkpt lat="48.60219" lon="1.96801">
        <ele>129</ele>
        <time>2020-05-31T11:35:59Z</time>
      </trkpt>
      <trkpt lat="48.60218" lon="1.96797">
        <ele>130</ele>
        <time>2020-05-31T11:36:01Z</time>
      </trkpt>
      <trkpt lat="48.60217" lon="1.96793">
        <ele>130</ele>
        <time>2020-05-31T11:36:03Z</time>
      </trkpt>
      <trkpt lat="48.60216" lon="1.96789">
        <ele>130</ele>
        <time>2020-05-31T11:36:05Z</time>
      </trkpt>
      <trkpt lat="48.60215" lon="1.96785">
        <ele>130</ele>
        <time>2020-05-31T11:36:07Z</time>
      </trkpt>
      <trkpt lat="48.60215" lon="1.96782">
        <ele>130</ele>
        <time>2020-05-31T11:36:09Z</time>
      </trkpt>
      <trkpt lat="48.60214" lon="1.96777">
        <ele>130</ele>
        <time>2020-05-31T11:36:11Z</time>
      </trkpt>
      <trkpt lat="48.60214" lon="1.96774">
        <ele>130</ele>
        <time>2020-05-31T11:36:13Z</time>
      </trkpt>
      <trkpt lat="48.60214" lon="1.96769">
        <ele>130</ele>
        <time>2020-05-31T11:36:15Z</time>
      </trkpt>
      <trkpt lat="48.60214" lon="1.96765">
        <ele>130</ele>
        <time>2020-05-31T11:36:17Z</time>
      </trkpt>
      <trkpt lat="48.60213" lon="1.96761">
        <ele>130</ele>
        <time>2020-05-31T11:36:19Z</time>
      </trkpt>
      <trkpt lat="48.60212" lon="1.96758">
        <ele>130</ele>
        <time>2020-05-31T11:36:21Z</time>
      </trkpt>
      <trkpt lat="48.60211" lon="1.96754">
        <ele>130</ele>
        <time>2020-05-31T11:36:23Z</time>
      </trkpt>
      <trkpt lat="48.60209" lon="1.9675">
        <ele>130</ele>
        <time>2020-05-31T11:36:25Z</time>
      </trkpt>
      <trkpt lat="48.60208" lon="1.96745">
        <ele>130</ele>
        <time>2020-05-31T11:36:27Z</time>
      </trkpt>
      <trkpt lat="48.60206" lon="1.96742">
        <ele>130</ele>
        <time>2020-05-31T11:36:29Z</time>
      </trkpt>
      <trkpt lat="48.60205" lon="1.96739">
        <ele>130</ele>
        <time>2020-05-31T11:36:31Z</time>
      </trkpt>
      <trkpt lat="48.60205" lon="1.96736">
        <ele>129</ele>
        <time>2020-05-31T11:36:33Z</time>
      </trkpt>
      <trkpt lat="48.60203" lon="1.96732">
        <ele>130</ele>
        <time>2020-05-31T11:36:35Z</time>
      </trkpt>
      <trkpt lat="48.60202" lon="1.96728">
        <ele>129</ele>
        <time>2020-05-31T11:36:37Z</time>
      </trkpt>
      <trkpt lat="48.602" lon="1.96723">
        <ele>129</ele>
        <time>2020-05-31T11:36:39Z</time>
      </trkpt>
      <trkpt lat="48.60199" lon="1.96719">
        <ele>130</ele>
        <time>2020-05-31T11:36:41Z</time>
      </trkpt>
      <trkpt lat="48.60198" lon="1.96715">
        <ele>130</ele>
        <time>2020-05-31T11:36:43Z</time>
      </trkpt>
      <trkpt lat="48.60197" lon="1.96711">
        <ele>130</ele>
        <time>2020-05-31T11:36:45Z</time>
      </trkpt>
      <trkpt lat="48.60196" lon="1.96707">
        <ele>130</ele>
        <time>2020-05-31T11:36:47Z</time>
      </trkpt>
      <trkpt lat="48.60196" lon="1.96703">
        <ele>130</ele>
        <time>2020-05-31T11:36:49Z</time>
      </trkpt>
      <trkpt lat="48.60196" lon="1.96698">
        <ele>130</ele>
        <time>2020-05-31T11:36:51Z</time>
      </trkpt>
      <trkpt lat="48.60195" lon="1.96694">
        <ele>130</ele>
        <time>2020-05-31T11:36:53Z</time>
      </trkpt>
      <trkpt lat="48.60196" lon="1.9669">
        <ele>130</ele>
        <time>2020-05-31T11:36:55Z</time>
      </trkpt>
      <trkpt lat="48.60195" lon="1.96686">
        <ele>130</ele>
        <time>2020-05-31T11:36:57Z</time>
      </trkpt>
      <trkpt lat="48.60195" lon="1.96682">
        <ele>131</ele>
        <time>2020-05-31T11:36:59Z</time>
      </trkpt>
      <trkpt lat="48.60196" lon="1.96678">
        <ele>131</ele>
        <time>2020-05-31T11:37:01Z</time>
      </trkpt>
      <trkpt lat="48.60195" lon="1.96675">
        <ele>131</ele>
        <time>2020-05-31T11:37:03Z</time>
      </trkpt>
      <trkpt lat="48.60195" lon="1.96671">
        <ele>132</ele>
        <time>2020-05-31T11:37:12Z</time>
      </trkpt>
      <trkpt lat="48.60195" lon="1.96669">
        <ele>131</ele>
        <time>2020-05-31T11:37:14Z</time>
      </trkpt>
      <trkpt lat="48.60197" lon="1.96665">
        <ele>131</ele>
        <time>2020-05-31T11:37:17Z</time>
      </trkpt>
      <trkpt lat="48.60197" lon="1.96661">
        <ele>131</ele>
        <time>2020-05-31T11:37:19Z</time>
      </trkpt>
      <trkpt lat="48.60198" lon="1.96657">
        <ele>131</ele>
        <time>2020-05-31T11:37:21Z</time>
      </trkpt>
      <trkpt lat="48.60198" lon="1.96653">
        <ele>131</ele>
        <time>2020-05-31T11:37:23Z</time>
      </trkpt>
      <trkpt lat="48.60199" lon="1.96649">
        <ele>131</ele>
        <time>2020-05-31T11:37:25Z</time>
      </trkpt>
      <trkpt lat="48.60199" lon="1.96646">
        <ele>131</ele>
        <time>2020-05-31T11:37:27Z</time>
      </trkpt>
      <trkpt lat="48.602" lon="1.96642">
        <ele>131</ele>
        <time>2020-05-31T11:37:29Z</time>
      </trkpt>
      <trkpt lat="48.602" lon="1.96637">
        <ele>132</ele>
        <time>2020-05-31T11:37:31Z</time>
      </trkpt>
      <trkpt lat="48.60201" lon="1.96632">
        <ele>132</ele>
        <time>2020-05-31T11:37:33Z</time>
      </trkpt>
      <trkpt lat="48.60201" lon="1.96628">
        <ele>132</ele>
        <time>2020-05-31T11:37:35Z</time>
      </trkpt>
      <trkpt lat="48.60202" lon="1.96624">
        <ele>133</ele>
        <time>2020-05-31T11:37:37Z</time>
      </trkpt>
      <trkpt lat="48.60203" lon="1.96619">
        <ele>133</ele>
        <time>2020-05-31T11:37:39Z</time>
      </trkpt>
      <trkpt lat="48.60204" lon="1.96616">
        <ele>133</ele>
        <time>2020-05-31T11:37:40Z</time>
      </trkpt>
      <trkpt lat="48.60205" lon="1.96611">
        <ele>133</ele>
        <time>2020-05-31T11:37:42Z</time>
      </trkpt>
      <trkpt lat="48.60205" lon="1.96607">
        <ele>134</ele>
        <time>2020-05-31T11:37:44Z</time>
      </trkpt>
      <trkpt lat="48.60205" lon="1.96603">
        <ele>134</ele>
        <time>2020-05-31T11:37:46Z</time>
      </trkpt>
      <trkpt lat="48.60205" lon="1.96599">
        <ele>134</ele>
        <time>2020-05-31T11:37:48Z</time>
      </trkpt>
      <trkpt lat="48.60206" lon="1.96596">
        <ele>134</ele>
        <time>2020-05-31T11:37:50Z</time>
      </trkpt>
      <trkpt lat="48.60206" lon="1.96592">
        <ele>134</ele>
        <time>2020-05-31T11:37:52Z</time>
      </trkpt>
      <trkpt lat="48.60207" lon="1.96587">
        <ele>134</ele>
        <time>2020-05-31T11:37:54Z</time>
      </trkpt>
      <trkpt lat="48.60206" lon="1.96581">
        <ele>134</ele>
        <time>2020-05-31T11:37:56Z</time>
      </trkpt>
      <trkpt lat="48.60206" lon="1.96576">
        <ele>134</ele>
        <time>2020-05-31T11:37:58Z</time>
      </trkpt>
      <trkpt lat="48.60206" lon="1.96571">
        <ele>134</ele>
        <time>2020-05-31T11:38:00Z</time>
      </trkpt>
      <trkpt lat="48.60206" lon="1.96567">
        <ele>134</ele>
        <time>2020-05-31T11:38:02Z</time>
      </trkpt>
      <trkpt lat="48.60206" lon="1.96562">
        <ele>134</ele>
        <time>2020-05-31T11:38:04Z</time>
      </trkpt>
      <trkpt lat="48.60206" lon="1.96557">
        <ele>134</ele>
        <time>2020-05-31T11:38:06Z</time>
      </trkpt>
      <trkpt lat="48.60206" lon="1.96553">
        <ele>134</ele>
        <time>2020-05-31T11:38:08Z</time>
      </trkpt>
      <trkpt lat="48.60206" lon="1.96548">
        <ele>134</ele>
        <time>2020-05-31T11:38:10Z</time>
      </trkpt>
      <trkpt lat="48.60206" lon="1.96543">
        <ele>135</ele>
        <time>2020-05-31T11:38:12Z</time>
      </trkpt>
      <trkpt lat="48.60206" lon="1.96538">
        <ele>135</ele>
        <time>2020-05-31T11:38:14Z</time>
      </trkpt>
      <trkpt lat="48.60205" lon="1.96533">
        <ele>135</ele>
        <time>2020-05-31T11:38:16Z</time>
      </trkpt>
      <trkpt lat="48.60205" lon="1.96528">
        <ele>135</ele>
        <time>2020-05-31T11:38:18Z</time>
      </trkpt>
      <trkpt lat="48.60205" lon="1.96523">
        <ele>135</ele>
        <time>2020-05-31T11:38:20Z</time>
      </trkpt>
      <trkpt lat="48.60205" lon="1.96518">
        <ele>135</ele>
        <time>2020-05-31T11:38:22Z</time>
      </trkpt>
      <trkpt lat="48.60205" lon="1.96513">
        <ele>135</ele>
        <time>2020-05-31T11:38:24Z</time>
      </trkpt>
      <trkpt lat="48.60205" lon="1.96508">
        <ele>135</ele>
        <time>2020-05-31T11:38:26Z</time>
      </trkpt>
      <trkpt lat="48.60205" lon="1.96505">
        <ele>135</ele>
        <time>2020-05-31T11:38:29Z</time>
      </trkpt>
      <trkpt lat="48.60205" lon="1.96501">
        <ele>135</ele>
        <time>2020-05-31T11:38:31Z</time>
      </trkpt>
      <trkpt lat="48.60205" lon="1.96496">
        <ele>135</ele>
        <time>2020-05-31T11:38:33Z</time>
      </trkpt>
      <trkpt lat="48.60205" lon="1.96492">
        <ele>135</ele>
        <time>2020-05-31T11:38:35Z</time>
      </trkpt>
      <trkpt lat="48.60204" lon="1.96489">
        <ele>135</ele>
        <time>2020-05-31T11:38:37Z</time>
      </trkpt>
      <trkpt lat="48.60203" lon="1.96486">
        <ele>136</ele>
        <time>2020-05-31T11:38:39Z</time>
      </trkpt>
      <trkpt lat="48.60202" lon="1.96481">
        <ele>136</ele>
        <time>2020-05-31T11:38:41Z</time>
      </trkpt>
      <trkpt lat="48.60202" lon="1.96477">
        <ele>136</ele>
        <time>2020-05-31T11:38:43Z</time>
      </trkpt>
      <trkpt lat="48.60201" lon="1.96474">
        <ele>135</ele>
        <time>2020-05-31T11:38:44Z</time>
      </trkpt>
      <trkpt lat="48.60201" lon="1.96471">
        <ele>135</ele>
        <time>2020-05-31T11:38:45Z</time>
      </trkpt>
      <trkpt lat="48.60202" lon="1.96467">
        <ele>135</ele>
        <time>2020-05-31T11:38:46Z</time>
      </trkpt>
      <trkpt lat="48.60202" lon="1.96464">
        <ele>136</ele>
        <time>2020-05-31T11:38:47Z</time>
      </trkpt>
      <trkpt lat="48.60202" lon="1.96461">
        <ele>136</ele>
        <time>2020-05-31T11:38:48Z</time>
      </trkpt>
      <trkpt lat="48.60202" lon="1.96456">
        <ele>136</ele>
        <time>2020-05-31T11:38:50Z</time>
      </trkpt>
      <trkpt lat="48.60201" lon="1.96452">
        <ele>136</ele>
        <time>2020-05-31T11:38:52Z</time>
      </trkpt>
      <trkpt lat="48.60201" lon="1.96449">
        <ele>136</ele>
        <time>2020-05-31T11:38:53Z</time>
      </trkpt>
      <trkpt lat="48.602" lon="1.96446">
        <ele>136</ele>
        <time>2020-05-31T11:38:54Z</time>
      </trkpt>
      <trkpt lat="48.602" lon="1.96442">
        <ele>136</ele>
        <time>2020-05-31T11:38:56Z</time>
      </trkpt>
      <trkpt lat="48.60199" lon="1.96437">
        <ele>136</ele>
        <time>2020-05-31T11:38:58Z</time>
      </trkpt>
      <trkpt lat="48.60198" lon="1.96433">
        <ele>136</ele>
        <time>2020-05-31T11:39:00Z</time>
      </trkpt>
      <trkpt lat="48.60198" lon="1.9643">
        <ele>136</ele>
        <time>2020-05-31T11:39:02Z</time>
      </trkpt>
      <trkpt lat="48.60196" lon="1.96426">
        <ele>136</ele>
        <time>2020-05-31T11:39:04Z</time>
      </trkpt>
      <trkpt lat="48.60195" lon="1.96422">
        <ele>136</ele>
        <time>2020-05-31T11:39:06Z</time>
      </trkpt>
      <trkpt lat="48.60195" lon="1.96419">
        <ele>136</ele>
        <time>2020-05-31T11:39:07Z</time>
      </trkpt>
      <trkpt lat="48.60195" lon="1.96416">
        <ele>136</ele>
        <time>2020-05-31T11:39:08Z</time>
      </trkpt>
      <trkpt lat="48.60195" lon="1.96411">
        <ele>136</ele>
        <time>2020-05-31T11:39:10Z</time>
      </trkpt>
      <trkpt lat="48.60195" lon="1.96406">
        <ele>136</ele>
        <time>2020-05-31T11:39:12Z</time>
      </trkpt>
      <trkpt lat="48.60195" lon="1.96402">
        <ele>136</ele>
        <time>2020-05-31T11:39:14Z</time>
      </trkpt>
      <trkpt lat="48.60195" lon="1.96397">
        <ele>136</ele>
        <time>2020-05-31T11:39:16Z</time>
      </trkpt>
      <trkpt lat="48.60194" lon="1.96393">
        <ele>136</ele>
        <time>2020-05-31T11:39:18Z</time>
      </trkpt>
      <trkpt lat="48.60194" lon="1.9639">
        <ele>137</ele>
        <time>2020-05-31T11:39:19Z</time>
      </trkpt>
      <trkpt lat="48.60194" lon="1.96385">
        <ele>137</ele>
        <time>2020-05-31T11:39:21Z</time>
      </trkpt>
      <trkpt lat="48.60193" lon="1.9638">
        <ele>137</ele>
        <time>2020-05-31T11:39:23Z</time>
      </trkpt>
      <trkpt lat="48.60192" lon="1.96376">
        <ele>137</ele>
        <time>2020-05-31T11:39:25Z</time>
      </trkpt>
      <trkpt lat="48.60191" lon="1.96373">
        <ele>137</ele>
        <time>2020-05-31T11:39:27Z</time>
      </trkpt>
      <trkpt lat="48.6019" lon="1.9637">
        <ele>137</ele>
        <time>2020-05-31T11:39:29Z</time>
      </trkpt>
      <trkpt lat="48.60188" lon="1.96366">
        <ele>137</ele>
        <time>2020-05-31T11:39:31Z</time>
      </trkpt>
      <trkpt lat="48.60187" lon="1.96362">
        <ele>136</ele>
        <time>2020-05-31T11:39:33Z</time>
      </trkpt>
      <trkpt lat="48.60185" lon="1.96358">
        <ele>136</ele>
        <time>2020-05-31T11:39:35Z</time>
      </trkpt>
      <trkpt lat="48.60184" lon="1.96353">
        <ele>136</ele>
        <time>2020-05-31T11:39:37Z</time>
      </trkpt>
      <trkpt lat="48.60183" lon="1.96349">
        <ele>136</ele>
        <time>2020-05-31T11:39:39Z</time>
      </trkpt>
      <trkpt lat="48.60182" lon="1.96345">
        <ele>136</ele>
        <time>2020-05-31T11:39:41Z</time>
      </trkpt>
      <trkpt lat="48.60182" lon="1.9634">
        <ele>136</ele>
        <time>2020-05-31T11:39:43Z</time>
      </trkpt>
      <trkpt lat="48.60182" lon="1.96336">
        <ele>135</ele>
        <time>2020-05-31T11:39:45Z</time>
      </trkpt>
      <trkpt lat="48.60181" lon="1.96331">
        <ele>135</ele>
        <time>2020-05-31T11:39:47Z</time>
      </trkpt>
      <trkpt lat="48.60181" lon="1.96327">
        <ele>135</ele>
        <time>2020-05-31T11:39:49Z</time>
      </trkpt>
      <trkpt lat="48.60181" lon="1.96323">
        <ele>135</ele>
        <time>2020-05-31T11:39:51Z</time>
      </trkpt>
      <trkpt lat="48.6018" lon="1.96318">
        <ele>135</ele>
        <time>2020-05-31T11:39:53Z</time>
      </trkpt>
      <trkpt lat="48.60179" lon="1.96314">
        <ele>135</ele>
        <time>2020-05-31T11:39:55Z</time>
      </trkpt>
      <trkpt lat="48.60178" lon="1.9631">
        <ele>135</ele>
        <time>2020-05-31T11:39:57Z</time>
      </trkpt>
      <trkpt lat="48.60176" lon="1.96305">
        <ele>135</ele>
        <time>2020-05-31T11:39:59Z</time>
      </trkpt>
      <trkpt lat="48.60175" lon="1.96301">
        <ele>135</ele>
        <time>2020-05-31T11:40:01Z</time>
      </trkpt>
      <trkpt lat="48.60174" lon="1.96297">
        <ele>135</ele>
        <time>2020-05-31T11:40:03Z</time>
      </trkpt>
      <trkpt lat="48.60173" lon="1.96293">
        <ele>135</ele>
        <time>2020-05-31T11:40:05Z</time>
      </trkpt>
      <trkpt lat="48.60172" lon="1.96289">
        <ele>135</ele>
        <time>2020-05-31T11:40:07Z</time>
      </trkpt>
      <trkpt lat="48.6017" lon="1.96286">
        <ele>135</ele>
        <time>2020-05-31T11:40:09Z</time>
      </trkpt>
      <trkpt lat="48.60168" lon="1.96282">
        <ele>135</ele>
        <time>2020-05-31T11:40:11Z</time>
      </trkpt>
      <trkpt lat="48.60166" lon="1.96278">
        <ele>135</ele>
        <time>2020-05-31T11:40:13Z</time>
      </trkpt>
      <trkpt lat="48.60164" lon="1.96275">
        <ele>135</ele>
        <time>2020-05-31T11:40:15Z</time>
      </trkpt>
      <trkpt lat="48.60163" lon="1.96271">
        <ele>135</ele>
        <time>2020-05-31T11:40:17Z</time>
      </trkpt>
      <trkpt lat="48.6016" lon="1.96268">
        <ele>135</ele>
        <time>2020-05-31T11:40:19Z</time>
      </trkpt>
      <trkpt lat="48.60158" lon="1.96264">
        <ele>135</ele>
        <time>2020-05-31T11:40:21Z</time>
      </trkpt>
      <trkpt lat="48.60156" lon="1.9626">
        <ele>135</ele>
        <time>2020-05-31T11:40:23Z</time>
      </trkpt>
      <trkpt lat="48.60155" lon="1.96257">
        <ele>135</ele>
        <time>2020-05-31T11:40:25Z</time>
      </trkpt>
      <trkpt lat="48.60153" lon="1.96253">
        <ele>135</ele>
        <time>2020-05-31T11:40:27Z</time>
      </trkpt>
      <trkpt lat="48.60151" lon="1.96249">
        <ele>134</ele>
        <time>2020-05-31T11:40:29Z</time>
      </trkpt>
      <trkpt lat="48.60149" lon="1.96246">
        <ele>134</ele>
        <time>2020-05-31T11:40:31Z</time>
      </trkpt>
      <trkpt lat="48.60148" lon="1.96242">
        <ele>134</ele>
        <time>2020-05-31T11:40:33Z</time>
      </trkpt>
      <trkpt lat="48.60146" lon="1.96237">
        <ele>134</ele>
        <time>2020-05-31T11:40:35Z</time>
      </trkpt>
      <trkpt lat="48.60146" lon="1.96232">
        <ele>134</ele>
        <time>2020-05-31T11:40:37Z</time>
      </trkpt>
      <trkpt lat="48.60146" lon="1.96227">
        <ele>134</ele>
        <time>2020-05-31T11:40:39Z</time>
      </trkpt>
      <trkpt lat="48.60147" lon="1.96223">
        <ele>133</ele>
        <time>2020-05-31T11:40:41Z</time>
      </trkpt>
      <trkpt lat="48.60148" lon="1.96219">
        <ele>133</ele>
        <time>2020-05-31T11:40:43Z</time>
      </trkpt>
      <trkpt lat="48.60148" lon="1.96215">
        <ele>133</ele>
        <time>2020-05-31T11:40:45Z</time>
      </trkpt>
      <trkpt lat="48.60149" lon="1.9621">
        <ele>133</ele>
        <time>2020-05-31T11:40:47Z</time>
      </trkpt>
      <trkpt lat="48.60149" lon="1.96205">
        <ele>133</ele>
        <time>2020-05-31T11:40:49Z</time>
      </trkpt>
      <trkpt lat="48.60149" lon="1.96201">
        <ele>134</ele>
        <time>2020-05-31T11:40:51Z</time>
      </trkpt>
      <trkpt lat="48.60149" lon="1.96198">
        <ele>134</ele>
        <time>2020-05-31T11:41:00Z</time>
      </trkpt>
      <trkpt lat="48.6015" lon="1.96195">
        <ele>134</ele>
        <time>2020-05-31T11:41:03Z</time>
      </trkpt>
      <trkpt lat="48.60151" lon="1.96191">
        <ele>134</ele>
        <time>2020-05-31T11:41:06Z</time>
      </trkpt>
      <trkpt lat="48.60151" lon="1.96187">
        <ele>134</ele>
        <time>2020-05-31T11:41:08Z</time>
      </trkpt>
      <trkpt lat="48.60151" lon="1.96182">
        <ele>134</ele>
        <time>2020-05-31T11:41:10Z</time>
      </trkpt>
      <trkpt lat="48.60152" lon="1.96177">
        <ele>134</ele>
        <time>2020-05-31T11:41:12Z</time>
      </trkpt>
      <trkpt lat="48.60152" lon="1.96174">
        <ele>134</ele>
        <time>2020-05-31T11:41:14Z</time>
      </trkpt>
      <trkpt lat="48.60152" lon="1.9617">
        <ele>134</ele>
        <time>2020-05-31T11:41:16Z</time>
      </trkpt>
      <trkpt lat="48.60153" lon="1.96166">
        <ele>134</ele>
        <time>2020-05-31T11:41:18Z</time>
      </trkpt>
      <trkpt lat="48.60153" lon="1.96162">
        <ele>134</ele>
        <time>2020-05-31T11:41:20Z</time>
      </trkpt>
      <trkpt lat="48.60153" lon="1.96158">
        <ele>134</ele>
        <time>2020-05-31T11:41:22Z</time>
      </trkpt>
      <trkpt lat="48.60154" lon="1.96153">
        <ele>134</ele>
        <time>2020-05-31T11:41:24Z</time>
      </trkpt>
      <trkpt lat="48.60154" lon="1.96149">
        <ele>134</ele>
        <time>2020-05-31T11:41:26Z</time>
      </trkpt>
      <trkpt lat="48.60154" lon="1.96144">
        <ele>133</ele>
        <time>2020-05-31T11:41:28Z</time>
      </trkpt>
      <trkpt lat="48.60155" lon="1.96139">
        <ele>133</ele>
        <time>2020-05-31T11:41:30Z</time>
      </trkpt>
      <trkpt lat="48.60154" lon="1.96137">
        <ele>133</ele>
        <time>2020-05-31T11:41:31Z</time>
      </trkpt>
      <trkpt lat="48.60154" lon="1.96132">
        <ele>133</ele>
        <time>2020-05-31T11:41:33Z</time>
      </trkpt>
      <trkpt lat="48.60153" lon="1.96127">
        <ele>133</ele>
        <time>2020-05-31T11:41:35Z</time>
      </trkpt>
      <trkpt lat="48.60152" lon="1.96122">
        <ele>132</ele>
        <time>2020-05-31T11:41:37Z</time>
      </trkpt>
      <trkpt lat="48.60151" lon="1.96118">
        <ele>132</ele>
        <time>2020-05-31T11:41:39Z</time>
      </trkpt>
      <trkpt lat="48.6015" lon="1.96113">
        <ele>132</ele>
        <time>2020-05-31T11:41:41Z</time>
      </trkpt>
      <trkpt lat="48.60149" lon="1.96109">
        <ele>132</ele>
        <time>2020-05-31T11:41:43Z</time>
      </trkpt>
      <trkpt lat="48.60148" lon="1.96104">
        <ele>132</ele>
        <time>2020-05-31T11:41:45Z</time>
      </trkpt>
      <trkpt lat="48.60147" lon="1.96101">
        <ele>131</ele>
        <time>2020-05-31T11:41:47Z</time>
      </trkpt>
      <trkpt lat="48.60146" lon="1.96095">
        <ele>131</ele>
        <time>2020-05-31T11:41:49Z</time>
      </trkpt>
      <trkpt lat="48.60146" lon="1.96092">
        <ele>131</ele>
        <time>2020-05-31T11:41:50Z</time>
      </trkpt>
      <trkpt lat="48.60146" lon="1.9609">
        <ele>131</ele>
        <time>2020-05-31T11:41:51Z</time>
      </trkpt>
      <trkpt lat="48.60145" lon="1.96087">
        <ele>130</ele>
        <time>2020-05-31T11:41:52Z</time>
      </trkpt>
      <trkpt lat="48.60145" lon="1.96084">
        <ele>130</ele>
        <time>2020-05-31T11:41:53Z</time>
      </trkpt>
      <trkpt lat="48.60144" lon="1.96079">
        <ele>130</ele>
        <time>2020-05-31T11:41:55Z</time>
      </trkpt>
      <trkpt lat="48.60143" lon="1.96075">
        <ele>130</ele>
        <time>2020-05-31T11:41:57Z</time>
      </trkpt>
      <trkpt lat="48.60142" lon="1.96071">
        <ele>130</ele>
        <time>2020-05-31T11:41:59Z</time>
      </trkpt>
      <trkpt lat="48.60141" lon="1.96067">
        <ele>130</ele>
        <time>2020-05-31T11:42:01Z</time>
      </trkpt>
      <trkpt lat="48.60141" lon="1.96063">
        <ele>130</ele>
        <time>2020-05-31T11:42:03Z</time>
      </trkpt>
      <trkpt lat="48.60141" lon="1.9606">
        <ele>129</ele>
        <time>2020-05-31T11:42:05Z</time>
      </trkpt>
      <trkpt lat="48.6014" lon="1.96063">
        <ele>129</ele>
        <time>2020-05-31T11:42:11Z</time>
      </trkpt>
      <trkpt lat="48.60139" lon="1.96065">
        <ele>129</ele>
        <time>2020-05-31T11:42:13Z</time>
      </trkpt>
      <trkpt lat="48.60138" lon="1.96068">
        <ele>129</ele>
        <time>2020-05-31T11:42:15Z</time>
      </trkpt>
      <trkpt lat="48.60137" lon="1.96071">
        <ele>129</ele>
        <time>2020-05-31T11:42:17Z</time>
      </trkpt>
      <trkpt lat="48.60135" lon="1.96075">
        <ele>129</ele>
        <time>2020-05-31T11:42:19Z</time>
      </trkpt>
      <trkpt lat="48.60134" lon="1.96079">
        <ele>129</ele>
        <time>2020-05-31T11:42:21Z</time>
      </trkpt>
      <trkpt lat="48.60133" lon="1.96083">
        <ele>129</ele>
        <time>2020-05-31T11:42:23Z</time>
      </trkpt>
      <trkpt lat="48.60132" lon="1.96087">
        <ele>128</ele>
        <time>2020-05-31T11:42:25Z</time>
      </trkpt>
      <trkpt lat="48.6013" lon="1.96092">
        <ele>128</ele>
        <time>2020-05-31T11:42:27Z</time>
      </trkpt>
      <trkpt lat="48.60129" lon="1.96096">
        <ele>128</ele>
        <time>2020-05-31T11:42:29Z</time>
      </trkpt>
      <trkpt lat="48.60127" lon="1.96099">
        <ele>129</ele>
        <time>2020-05-31T11:42:31Z</time>
      </trkpt>
      <trkpt lat="48.60125" lon="1.96103">
        <ele>129</ele>
        <time>2020-05-31T11:42:33Z</time>
      </trkpt>
      <trkpt lat="48.60124" lon="1.96106">
        <ele>129</ele>
        <time>2020-05-31T11:42:35Z</time>
      </trkpt>
      <trkpt lat="48.60123" lon="1.9611">
        <ele>129</ele>
        <time>2020-05-31T11:42:37Z</time>
      </trkpt>
      <trkpt lat="48.60122" lon="1.96114">
        <ele>129</ele>
        <time>2020-05-31T11:42:39Z</time>
      </trkpt>
      <trkpt lat="48.6012" lon="1.96117">
        <ele>129</ele>
        <time>2020-05-31T11:42:41Z</time>
      </trkpt>
      <trkpt lat="48.60118" lon="1.96121">
        <ele>130</ele>
        <time>2020-05-31T11:42:43Z</time>
      </trkpt>
      <trkpt lat="48.60117" lon="1.96126">
        <ele>130</ele>
        <time>2020-05-31T11:42:45Z</time>
      </trkpt>
      <trkpt lat="48.60116" lon="1.96128">
        <ele>130</ele>
        <time>2020-05-31T11:42:46Z</time>
      </trkpt>
      <trkpt lat="48.60115" lon="1.96131">
        <ele>130</ele>
        <time>2020-05-31T11:42:47Z</time>
      </trkpt>
      <trkpt lat="48.60114" lon="1.96133">
        <ele>130</ele>
        <time>2020-05-31T11:42:48Z</time>
      </trkpt>
      <trkpt lat="48.60112" lon="1.96137">
        <ele>130</ele>
        <time>2020-05-31T11:42:50Z</time>
      </trkpt>
      <trkpt lat="48.60111" lon="1.96139">
        <ele>130</ele>
        <time>2020-05-31T11:42:51Z</time>
      </trkpt>
      <trkpt lat="48.60109" lon="1.96141">
        <ele>130</ele>
        <time>2020-05-31T11:42:52Z</time>
      </trkpt>
      <trkpt lat="48.60108" lon="1.96143">
        <ele>130</ele>
        <time>2020-05-31T11:42:53Z</time>
      </trkpt>
      <trkpt lat="48.60106" lon="1.96147">
        <ele>131</ele>
        <time>2020-05-31T11:42:55Z</time>
      </trkpt>
      <trkpt lat="48.60105" lon="1.96149">
        <ele>131</ele>
        <time>2020-05-31T11:42:56Z</time>
      </trkpt>
      <trkpt lat="48.60103" lon="1.96153">
        <ele>131</ele>
        <time>2020-05-31T11:42:58Z</time>
      </trkpt>
      <trkpt lat="48.601" lon="1.96157">
        <ele>131</ele>
        <time>2020-05-31T11:43:00Z</time>
      </trkpt>
      <trkpt lat="48.60098" lon="1.9616">
        <ele>132</ele>
        <time>2020-05-31T11:43:02Z</time>
      </trkpt>
      <trkpt lat="48.60097" lon="1.96163">
        <ele>132</ele>
        <time>2020-05-31T11:43:03Z</time>
      </trkpt>
      <trkpt lat="48.60095" lon="1.96167">
        <ele>133</ele>
        <time>2020-05-31T11:43:05Z</time>
      </trkpt>
      <trkpt lat="48.60093" lon="1.96171">
        <ele>133</ele>
        <time>2020-05-31T11:43:07Z</time>
      </trkpt>
      <trkpt lat="48.60091" lon="1.96174">
        <ele>134</ele>
        <time>2020-05-31T11:43:09Z</time>
      </trkpt>
      <trkpt lat="48.60089" lon="1.96178">
        <ele>135</ele>
        <time>2020-05-31T11:43:11Z</time>
      </trkpt>
      <trkpt lat="48.60087" lon="1.96181">
        <ele>135</ele>
        <time>2020-05-31T11:43:13Z</time>
      </trkpt>
      <trkpt lat="48.60086" lon="1.96184">
        <ele>136</ele>
        <time>2020-05-31T11:43:15Z</time>
      </trkpt>
      <trkpt lat="48.60084" lon="1.96188">
        <ele>137</ele>
        <time>2020-05-31T11:43:17Z</time>
      </trkpt>
      <trkpt lat="48.60082" lon="1.96192">
        <ele>138</ele>
        <time>2020-05-31T11:43:19Z</time>
      </trkpt>
      <trkpt lat="48.6008" lon="1.96195">
        <ele>138</ele>
        <time>2020-05-31T11:43:21Z</time>
      </trkpt>
      <trkpt lat="48.60078" lon="1.96199">
        <ele>139</ele>
        <time>2020-05-31T11:43:23Z</time>
      </trkpt>
      <trkpt lat="48.60076" lon="1.96201">
        <ele>139</ele>
        <time>2020-05-31T11:43:25Z</time>
      </trkpt>
      <trkpt lat="48.60075" lon="1.96205">
        <ele>140</ele>
        <time>2020-05-31T11:43:27Z</time>
      </trkpt>
      <trkpt lat="48.60073" lon="1.96209">
        <ele>140</ele>
        <time>2020-05-31T11:43:29Z</time>
      </trkpt>
      <trkpt lat="48.60071" lon="1.96213">
        <ele>141</ele>
        <time>2020-05-31T11:43:31Z</time>
      </trkpt>
      <trkpt lat="48.60069" lon="1.96217">
        <ele>141</ele>
        <time>2020-05-31T11:43:33Z</time>
      </trkpt>
      <trkpt lat="48.60067" lon="1.9622">
        <ele>142</ele>
        <time>2020-05-31T11:43:35Z</time>
      </trkpt>
      <trkpt lat="48.60065" lon="1.96223">
        <ele>142</ele>
        <time>2020-05-31T11:43:37Z</time>
      </trkpt>
      <trkpt lat="48.60064" lon="1.96227">
        <ele>143</ele>
        <time>2020-05-31T11:43:39Z</time>
      </trkpt>
      <trkpt lat="48.60062" lon="1.96231">
        <ele>144</ele>
        <time>2020-05-31T11:43:41Z</time>
      </trkpt>
      <trkpt lat="48.6006" lon="1.96235">
        <ele>144</ele>
        <time>2020-05-31T11:43:43Z</time>
      </trkpt>
      <trkpt lat="48.60058" lon="1.96239">
        <ele>144</ele>
        <time>2020-05-31T11:43:45Z</time>
      </trkpt>
      <trkpt lat="48.60057" lon="1.96242">
        <ele>145</ele>
        <time>2020-05-31T11:43:47Z</time>
      </trkpt>
      <trkpt lat="48.60055" lon="1.96245">
        <ele>145</ele>
        <time>2020-05-31T11:43:49Z</time>
      </trkpt>
      <trkpt lat="48.60052" lon="1.96248">
        <ele>145</ele>
        <time>2020-05-31T11:43:51Z</time>
      </trkpt>
      <trkpt lat="48.6005" lon="1.96252">
        <ele>146</ele>
        <time>2020-05-31T11:43:53Z</time>
      </trkpt>
      <trkpt lat="48.60049" lon="1.96256">
        <ele>146</ele>
        <time>2020-05-31T11:43:55Z</time>
      </trkpt>
      <trkpt lat="48.60047" lon="1.96261">
        <ele>146</ele>
        <time>2020-05-31T11:43:57Z</time>
      </trkpt>
      <trkpt lat="48.60045" lon="1.96264">
        <ele>146</ele>
        <time>2020-05-31T11:43:59Z</time>
      </trkpt>
      <trkpt lat="48.60043" lon="1.96268">
        <ele>147</ele>
        <time>2020-05-31T11:44:01Z</time>
      </trkpt>
      <trkpt lat="48.60041" lon="1.96272">
        <ele>147</ele>
        <time>2020-05-31T11:44:03Z</time>
      </trkpt>
      <trkpt lat="48.6004" lon="1.96274">
        <ele>147</ele>
        <time>2020-05-31T11:44:04Z</time>
      </trkpt>
      <trkpt lat="48.60038" lon="1.96279">
        <ele>147</ele>
        <time>2020-05-31T11:44:06Z</time>
      </trkpt>
      <trkpt lat="48.60036" lon="1.96283">
        <ele>147</ele>
        <time>2020-05-31T11:44:08Z</time>
      </trkpt>
      <trkpt lat="48.60034" lon="1.96287">
        <ele>148</ele>
        <time>2020-05-31T11:44:10Z</time>
      </trkpt>
      <trkpt lat="48.60033" lon="1.9629">
        <ele>148</ele>
        <time>2020-05-31T11:44:12Z</time>
      </trkpt>
      <trkpt lat="48.60031" lon="1.96294">
        <ele>148</ele>
        <time>2020-05-31T11:44:14Z</time>
      </trkpt>
      <trkpt lat="48.6003" lon="1.96298">
        <ele>148</ele>
        <time>2020-05-31T11:44:16Z</time>
      </trkpt>
      <trkpt lat="48.60028" lon="1.96302">
        <ele>149</ele>
        <time>2020-05-31T11:44:18Z</time>
      </trkpt>
      <trkpt lat="48.60026" lon="1.96306">
        <ele>149</ele>
        <time>2020-05-31T11:44:20Z</time>
      </trkpt>
      <trkpt lat="48.60024" lon="1.96309">
        <ele>149</ele>
        <time>2020-05-31T11:44:22Z</time>
      </trkpt>
      <trkpt lat="48.60022" lon="1.96313">
        <ele>149</ele>
        <time>2020-05-31T11:44:24Z</time>
      </trkpt>
      <trkpt lat="48.60021" lon="1.96317">
        <ele>150</ele>
        <time>2020-05-31T11:44:26Z</time>
      </trkpt>
      <trkpt lat="48.60019" lon="1.9632">
        <ele>150</ele>
        <time>2020-05-31T11:44:28Z</time>
      </trkpt>
      <trkpt lat="48.60018" lon="1.96324">
        <ele>150</ele>
        <time>2020-05-31T11:44:30Z</time>
      </trkpt>
      <trkpt lat="48.60016" lon="1.96328">
        <ele>150</ele>
        <time>2020-05-31T11:44:32Z</time>
      </trkpt>
      <trkpt lat="48.60015" lon="1.9633">
        <ele>150</ele>
        <time>2020-05-31T11:44:33Z</time>
      </trkpt>
      <trkpt lat="48.60013" lon="1.96335">
        <ele>151</ele>
        <time>2020-05-31T11:44:35Z</time>
      </trkpt>
      <trkpt lat="48.60011" lon="1.96339">
        <ele>151</ele>
        <time>2020-05-31T11:44:37Z</time>
      </trkpt>
      <trkpt lat="48.60009" lon="1.96343">
        <ele>151</ele>
        <time>2020-05-31T11:44:39Z</time>
      </trkpt>
      <trkpt lat="48.60007" lon="1.96347">
        <ele>151</ele>
        <time>2020-05-31T11:44:41Z</time>
      </trkpt>
      <trkpt lat="48.60005" lon="1.96351">
        <ele>151</ele>
        <time>2020-05-31T11:44:43Z</time>
      </trkpt>
      <trkpt lat="48.60003" lon="1.96355">
        <ele>151</ele>
        <time>2020-05-31T11:44:45Z</time>
      </trkpt>
      <trkpt lat="48.60001" lon="1.96359">
        <ele>151</ele>
        <time>2020-05-31T11:44:47Z</time>
      </trkpt>
      <trkpt lat="48.6" lon="1.96361">
        <ele>151</ele>
        <time>2020-05-31T11:44:48Z</time>
      </trkpt>
      <trkpt lat="48.59998" lon="1.96366">
        <ele>151</ele>
        <time>2020-05-31T11:44:50Z</time>
      </trkpt>
      <trkpt lat="48.59997" lon="1.96369">
        <ele>151</ele>
        <time>2020-05-31T11:44:52Z</time>
      </trkpt>
      <trkpt lat="48.59996" lon="1.96372">
        <ele>152</ele>
        <time>2020-05-31T11:44:54Z</time>
      </trkpt>
      <trkpt lat="48.59995" lon="1.96375">
        <ele>152</ele>
        <time>2020-05-31T11:44:56Z</time>
      </trkpt>
      <trkpt lat="48.59994" lon="1.96378">
        <ele>152</ele>
        <time>2020-05-31T11:44:58Z</time>
      </trkpt>
      <trkpt lat="48.59992" lon="1.96381">
        <ele>152</ele>
        <time>2020-05-31T11:44:59Z</time>
      </trkpt>
      <trkpt lat="48.59991" lon="1.96383">
        <ele>151</ele>
        <time>2020-05-31T11:45:00Z</time>
      </trkpt>
      <trkpt lat="48.5999" lon="1.96386">
        <ele>151</ele>
        <time>2020-05-31T11:45:01Z</time>
      </trkpt>
      <trkpt lat="48.59988" lon="1.9639">
        <ele>151</ele>
        <time>2020-05-31T11:45:03Z</time>
      </trkpt>
      <trkpt lat="48.59987" lon="1.96393">
        <ele>151</ele>
        <time>2020-05-31T11:45:05Z</time>
      </trkpt>
      <trkpt lat="48.59985" lon="1.96396">
        <ele>151</ele>
        <time>2020-05-31T11:45:07Z</time>
      </trkpt>
      <trkpt lat="48.59983" lon="1.964">
        <ele>151</ele>
        <time>2020-05-31T11:45:09Z</time>
      </trkpt>
      <trkpt lat="48.59981" lon="1.96404">
        <ele>151</ele>
        <time>2020-05-31T11:45:11Z</time>
      </trkpt>
      <trkpt lat="48.5998" lon="1.96408">
        <ele>151</ele>
        <time>2020-05-31T11:45:13Z</time>
      </trkpt>
      <trkpt lat="48.59977" lon="1.96412">
        <ele>151</ele>
        <time>2020-05-31T11:45:15Z</time>
      </trkpt>
      <trkpt lat="48.59975" lon="1.96418">
        <ele>150</ele>
        <time>2020-05-31T11:45:18Z</time>
      </trkpt>
      <trkpt lat="48.59973" lon="1.96421">
        <ele>150</ele>
        <time>2020-05-31T11:45:19Z</time>
      </trkpt>
      <trkpt lat="48.59972" lon="1.96423">
        <ele>150</ele>
        <time>2020-05-31T11:45:20Z</time>
      </trkpt>
      <trkpt lat="48.59971" lon="1.96425">
        <ele>150</ele>
        <time>2020-05-31T11:45:21Z</time>
      </trkpt>
      <trkpt lat="48.59968" lon="1.9643">
        <ele>150</ele>
        <time>2020-05-31T11:45:23Z</time>
      </trkpt>
      <trkpt lat="48.59966" lon="1.96434">
        <ele>150</ele>
        <time>2020-05-31T11:45:25Z</time>
      </trkpt>
      <trkpt lat="48.59966" lon="1.96436">
        <ele>150</ele>
        <time>2020-05-31T11:45:26Z</time>
      </trkpt>
      <trkpt lat="48.59963" lon="1.9644">
        <ele>150</ele>
        <time>2020-05-31T11:45:28Z</time>
      </trkpt>
      <trkpt lat="48.59962" lon="1.96443">
        <ele>150</ele>
        <time>2020-05-31T11:45:29Z</time>
      </trkpt>
      <trkpt lat="48.59961" lon="1.96446">
        <ele>150</ele>
        <time>2020-05-31T11:45:31Z</time>
      </trkpt>
      <trkpt lat="48.59959" lon="1.96451">
        <ele>150</ele>
        <time>2020-05-31T11:45:33Z</time>
      </trkpt>
      <trkpt lat="48.59958" lon="1.96453">
        <ele>150</ele>
        <time>2020-05-31T11:45:34Z</time>
      </trkpt>
      <trkpt lat="48.59957" lon="1.96455">
        <ele>151</ele>
        <time>2020-05-31T11:45:35Z</time>
      </trkpt>
      <trkpt lat="48.59955" lon="1.96459">
        <ele>150</ele>
        <time>2020-05-31T11:45:37Z</time>
      </trkpt>
      <trkpt lat="48.59953" lon="1.96462">
        <ele>150</ele>
        <time>2020-05-31T11:45:39Z</time>
      </trkpt>
      <trkpt lat="48.59951" lon="1.96466">
        <ele>151</ele>
        <time>2020-05-31T11:45:41Z</time>
      </trkpt>
      <trkpt lat="48.59949" lon="1.96469">
        <ele>151</ele>
        <time>2020-05-31T11:45:43Z</time>
      </trkpt>
      <trkpt lat="48.59948" lon="1.96472">
        <ele>151</ele>
        <time>2020-05-31T11:45:45Z</time>
      </trkpt>
      <trkpt lat="48.59946" lon="1.96477">
        <ele>151</ele>
        <time>2020-05-31T11:45:47Z</time>
      </trkpt>
      <trkpt lat="48.59945" lon="1.96479">
        <ele>151</ele>
        <time>2020-05-31T11:45:48Z</time>
      </trkpt>
      <trkpt lat="48.59943" lon="1.96483">
        <ele>150</ele>
        <time>2020-05-31T11:45:50Z</time>
      </trkpt>
      <trkpt lat="48.59942" lon="1.96487">
        <ele>150</ele>
        <time>2020-05-31T11:45:52Z</time>
      </trkpt>
      <trkpt lat="48.59941" lon="1.9649">
        <ele>150</ele>
        <time>2020-05-31T11:45:54Z</time>
      </trkpt>
      <trkpt lat="48.5994" lon="1.96494">
        <ele>151</ele>
        <time>2020-05-31T11:45:56Z</time>
      </trkpt>
      <trkpt lat="48.59939" lon="1.96498">
        <ele>151</ele>
        <time>2020-05-31T11:45:58Z</time>
      </trkpt>
      <trkpt lat="48.59938" lon="1.96501">
        <ele>151</ele>
        <time>2020-05-31T11:46:00Z</time>
      </trkpt>
      <trkpt lat="48.59936" lon="1.96505">
        <ele>151</ele>
        <time>2020-05-31T11:46:02Z</time>
      </trkpt>
      <trkpt lat="48.59934" lon="1.96506">
        <ele>151</ele>
        <time>2020-05-31T11:46:03Z</time>
      </trkpt>
      <trkpt lat="48.59932" lon="1.96509">
        <ele>151</ele>
        <time>2020-05-31T11:46:05Z</time>
      </trkpt>
      <trkpt lat="48.5993" lon="1.96512">
        <ele>151</ele>
        <time>2020-05-31T11:46:07Z</time>
      </trkpt>
      <trkpt lat="48.59928" lon="1.96516">
        <ele>151</ele>
        <time>2020-05-31T11:46:09Z</time>
      </trkpt>
      <trkpt lat="48.59926" lon="1.9652">
        <ele>151</ele>
        <time>2020-05-31T11:46:11Z</time>
      </trkpt>
      <trkpt lat="48.59924" lon="1.96523">
        <ele>152</ele>
        <time>2020-05-31T11:46:13Z</time>
      </trkpt>
      <trkpt lat="48.59922" lon="1.96527">
        <ele>152</ele>
        <time>2020-05-31T11:46:15Z</time>
      </trkpt>
      <trkpt lat="48.5992" lon="1.96532">
        <ele>152</ele>
        <time>2020-05-31T11:46:17Z</time>
      </trkpt>
      <trkpt lat="48.59918" lon="1.96536">
        <ele>152</ele>
        <time>2020-05-31T11:46:19Z</time>
      </trkpt>
      <trkpt lat="48.59916" lon="1.96539">
        <ele>152</ele>
        <time>2020-05-31T11:46:20Z</time>
      </trkpt>
      <trkpt lat="48.59915" lon="1.96541">
        <ele>152</ele>
        <time>2020-05-31T11:46:21Z</time>
      </trkpt>
      <trkpt lat="48.59913" lon="1.96544">
        <ele>152</ele>
        <time>2020-05-31T11:46:23Z</time>
      </trkpt>
      <trkpt lat="48.59911" lon="1.96548">
        <ele>152</ele>
        <time>2020-05-31T11:46:25Z</time>
      </trkpt>
      <trkpt lat="48.5991" lon="1.9655">
        <ele>152</ele>
        <time>2020-05-31T11:46:29Z</time>
      </trkpt>
      <trkpt lat="48.59907" lon="1.96554">
        <ele>152</ele>
        <time>2020-05-31T11:46:31Z</time>
      </trkpt>
      <trkpt lat="48.59905" lon="1.96557">
        <ele>152</ele>
        <time>2020-05-31T11:46:33Z</time>
      </trkpt>
      <trkpt lat="48.59904" lon="1.96561">
        <ele>152</ele>
        <time>2020-05-31T11:46:35Z</time>
      </trkpt>
      <trkpt lat="48.59902" lon="1.96564">
        <ele>152</ele>
        <time>2020-05-31T11:46:37Z</time>
      </trkpt>
      <trkpt lat="48.599" lon="1.96568">
        <ele>152</ele>
        <time>2020-05-31T11:46:39Z</time>
      </trkpt>
      <trkpt lat="48.59899" lon="1.96571">
        <ele>153</ele>
        <time>2020-05-31T11:46:41Z</time>
      </trkpt>
      <trkpt lat="48.59897" lon="1.96575">
        <ele>153</ele>
        <time>2020-05-31T11:46:43Z</time>
      </trkpt>
      <trkpt lat="48.59895" lon="1.96579">
        <ele>153</ele>
        <time>2020-05-31T11:46:45Z</time>
      </trkpt>
      <trkpt lat="48.59893" lon="1.96583">
        <ele>154</ele>
        <time>2020-05-31T11:46:47Z</time>
      </trkpt>
      <trkpt lat="48.59892" lon="1.96587">
        <ele>154</ele>
        <time>2020-05-31T11:46:49Z</time>
      </trkpt>
      <trkpt lat="48.5989" lon="1.96592">
        <ele>154</ele>
        <time>2020-05-31T11:46:51Z</time>
      </trkpt>
      <trkpt lat="48.59888" lon="1.96594">
        <ele>153</ele>
        <time>2020-05-31T11:46:52Z</time>
      </trkpt>
      <trkpt lat="48.59887" lon="1.96596">
        <ele>153</ele>
        <time>2020-05-31T11:46:53Z</time>
      </trkpt>
      <trkpt lat="48.59885" lon="1.966">
        <ele>154</ele>
        <time>2020-05-31T11:46:55Z</time>
      </trkpt>
      <trkpt lat="48.59883" lon="1.96604">
        <ele>154</ele>
        <time>2020-05-31T11:46:57Z</time>
      </trkpt>
      <trkpt lat="48.59881" lon="1.96606">
        <ele>154</ele>
        <time>2020-05-31T11:46:58Z</time>
      </trkpt>
      <trkpt lat="48.59879" lon="1.9661">
        <ele>154</ele>
        <time>2020-05-31T11:47:00Z</time>
      </trkpt>
      <trkpt lat="48.59877" lon="1.96613">
        <ele>153</ele>
        <time>2020-05-31T11:47:02Z</time>
      </trkpt>
      <trkpt lat="48.59876" lon="1.96617">
        <ele>153</ele>
        <time>2020-05-31T11:47:04Z</time>
      </trkpt>
      <trkpt lat="48.59874" lon="1.96621">
        <ele>153</ele>
        <time>2020-05-31T11:47:06Z</time>
      </trkpt>
      <trkpt lat="48.59871" lon="1.96625">
        <ele>153</ele>
        <time>2020-05-31T11:47:08Z</time>
      </trkpt>
      <trkpt lat="48.59869" lon="1.96628">
        <ele>153</ele>
        <time>2020-05-31T11:47:10Z</time>
      </trkpt>
      <trkpt lat="48.59867" lon="1.96632">
        <ele>153</ele>
        <time>2020-05-31T11:47:12Z</time>
      </trkpt>
      <trkpt lat="48.59865" lon="1.96636">
        <ele>153</ele>
        <time>2020-05-31T11:47:14Z</time>
      </trkpt>
      <trkpt lat="48.59863" lon="1.9664">
        <ele>152</ele>
        <time>2020-05-31T11:47:16Z</time>
      </trkpt>
      <trkpt lat="48.59861" lon="1.96644">
        <ele>152</ele>
        <time>2020-05-31T11:47:18Z</time>
      </trkpt>
      <trkpt lat="48.59859" lon="1.96648">
        <ele>153</ele>
        <time>2020-05-31T11:47:20Z</time>
      </trkpt>
      <trkpt lat="48.59857" lon="1.96651">
        <ele>153</ele>
        <time>2020-05-31T11:47:22Z</time>
      </trkpt>
      <trkpt lat="48.59855" lon="1.96655">
        <ele>153</ele>
        <time>2020-05-31T11:47:24Z</time>
      </trkpt>
      <trkpt lat="48.59853" lon="1.96658">
        <ele>153</ele>
        <time>2020-05-31T11:47:26Z</time>
      </trkpt>
      <trkpt lat="48.59851" lon="1.96662">
        <ele>152</ele>
        <time>2020-05-31T11:47:28Z</time>
      </trkpt>
      <trkpt lat="48.59848" lon="1.96665">
        <ele>152</ele>
        <time>2020-05-31T11:47:30Z</time>
      </trkpt>
      <trkpt lat="48.59846" lon="1.96668">
        <ele>152</ele>
        <time>2020-05-31T11:47:32Z</time>
      </trkpt>
      <trkpt lat="48.59844" lon="1.96672">
        <ele>153</ele>
        <time>2020-05-31T11:47:34Z</time>
      </trkpt>
      <trkpt lat="48.59843" lon="1.96675">
        <ele>153</ele>
        <time>2020-05-31T11:47:36Z</time>
      </trkpt>
      <trkpt lat="48.59841" lon="1.96679">
        <ele>153</ele>
        <time>2020-05-31T11:47:38Z</time>
      </trkpt>
      <trkpt lat="48.59839" lon="1.96683">
        <ele>153</ele>
        <time>2020-05-31T11:47:40Z</time>
      </trkpt>
      <trkpt lat="48.59838" lon="1.96687">
        <ele>153</ele>
        <time>2020-05-31T11:47:42Z</time>
      </trkpt>
      <trkpt lat="48.59836" lon="1.96691">
        <ele>153</ele>
        <time>2020-05-31T11:47:44Z</time>
      </trkpt>
      <trkpt lat="48.59834" lon="1.96695">
        <ele>153</ele>
        <time>2020-05-31T11:47:46Z</time>
      </trkpt>
      <trkpt lat="48.59832" lon="1.96699">
        <ele>153</ele>
        <time>2020-05-31T11:47:48Z</time>
      </trkpt>
      <trkpt lat="48.59831" lon="1.96703">
        <ele>153</ele>
        <time>2020-05-31T11:47:50Z</time>
      </trkpt>
      <trkpt lat="48.59829" lon="1.96707">
        <ele>153</ele>
        <time>2020-05-31T11:47:52Z</time>
      </trkpt>
      <trkpt lat="48.59828" lon="1.96709">
        <ele>153</ele>
        <time>2020-05-31T11:47:53Z</time>
      </trkpt>
      <trkpt lat="48.59826" lon="1.96713">
        <ele>153</ele>
        <time>2020-05-31T11:47:55Z</time>
      </trkpt>
      <trkpt lat="48.59824" lon="1.96716">
        <ele>153</ele>
        <time>2020-05-31T11:47:57Z</time>
      </trkpt>
      <trkpt lat="48.59822" lon="1.9672">
        <ele>153</ele>
        <time>2020-05-31T11:47:59Z</time>
      </trkpt>
      <trkpt lat="48.5982" lon="1.96724">
        <ele>153</ele>
        <time>2020-05-31T11:48:01Z</time>
      </trkpt>
      <trkpt lat="48.59818" lon="1.96728">
        <ele>153</ele>
        <time>2020-05-31T11:48:03Z</time>
      </trkpt>
      <trkpt lat="48.59816" lon="1.96732">
        <ele>153</ele>
        <time>2020-05-31T11:48:05Z</time>
      </trkpt>
      <trkpt lat="48.59815" lon="1.96735">
        <ele>153</ele>
        <time>2020-05-31T11:48:07Z</time>
      </trkpt>
      <trkpt lat="48.59813" lon="1.9674">
        <ele>152</ele>
        <time>2020-05-31T11:48:09Z</time>
      </trkpt>
      <trkpt lat="48.59811" lon="1.96744">
        <ele>152</ele>
        <time>2020-05-31T11:48:11Z</time>
      </trkpt>
      <trkpt lat="48.59809" lon="1.96748">
        <ele>152</ele>
        <time>2020-05-31T11:48:13Z</time>
      </trkpt>
      <trkpt lat="48.59808" lon="1.96751">
        <ele>152</ele>
        <time>2020-05-31T11:48:14Z</time>
      </trkpt>
      <trkpt lat="48.59806" lon="1.96755">
        <ele>152</ele>
        <time>2020-05-31T11:48:16Z</time>
      </trkpt>
      <trkpt lat="48.59804" lon="1.96758">
        <ele>152</ele>
        <time>2020-05-31T11:48:18Z</time>
      </trkpt>
      <trkpt lat="48.59802" lon="1.96762">
        <ele>152</ele>
        <time>2020-05-31T11:48:20Z</time>
      </trkpt>
      <trkpt lat="48.59801" lon="1.96765">
        <ele>152</ele>
        <time>2020-05-31T11:48:22Z</time>
      </trkpt>
      <trkpt lat="48.59799" lon="1.96769">
        <ele>151</ele>
        <time>2020-05-31T11:48:24Z</time>
      </trkpt>
      <trkpt lat="48.59797" lon="1.96773">
        <ele>151</ele>
        <time>2020-05-31T11:48:26Z</time>
      </trkpt>
      <trkpt lat="48.59796" lon="1.96777">
        <ele>151</ele>
        <time>2020-05-31T11:48:28Z</time>
      </trkpt>
      <trkpt lat="48.59794" lon="1.96781">
        <ele>151</ele>
        <time>2020-05-31T11:48:30Z</time>
      </trkpt>
      <trkpt lat="48.59792" lon="1.96784">
        <ele>151</ele>
        <time>2020-05-31T11:48:32Z</time>
      </trkpt>
      <trkpt lat="48.59791" lon="1.96788">
        <ele>151</ele>
        <time>2020-05-31T11:48:34Z</time>
      </trkpt>
      <trkpt lat="48.59789" lon="1.96792">
        <ele>151</ele>
        <time>2020-05-31T11:48:36Z</time>
      </trkpt>
      <trkpt lat="48.59788" lon="1.96795">
        <ele>151</ele>
        <time>2020-05-31T11:48:38Z</time>
      </trkpt>
      <trkpt lat="48.59786" lon="1.96798">
        <ele>151</ele>
        <time>2020-05-31T11:48:40Z</time>
      </trkpt>
      <trkpt lat="48.59784" lon="1.96802">
        <ele>150</ele>
        <time>2020-05-31T11:48:42Z</time>
      </trkpt>
      <trkpt lat="48.59783" lon="1.96806">
        <ele>150</ele>
        <time>2020-05-31T11:48:44Z</time>
      </trkpt>
      <trkpt lat="48.59781" lon="1.9681">
        <ele>150</ele>
        <time>2020-05-31T11:48:46Z</time>
      </trkpt>
      <trkpt lat="48.59778" lon="1.96813">
        <ele>150</ele>
        <time>2020-05-31T11:48:48Z</time>
      </trkpt>
      <trkpt lat="48.59776" lon="1.96816">
        <ele>150</ele>
        <time>2020-05-31T11:48:50Z</time>
      </trkpt>
      <trkpt lat="48.59774" lon="1.96819">
        <ele>149</ele>
        <time>2020-05-31T11:48:52Z</time>
      </trkpt>
      <trkpt lat="48.59772" lon="1.96822">
        <ele>149</ele>
        <time>2020-05-31T11:48:54Z</time>
      </trkpt>
      <trkpt lat="48.5977" lon="1.96826">
        <ele>149</ele>
        <time>2020-05-31T11:48:56Z</time>
      </trkpt>
      <trkpt lat="48.59769" lon="1.96829">
        <ele>149</ele>
        <time>2020-05-31T11:48:58Z</time>
      </trkpt>
      <trkpt lat="48.59768" lon="1.96832">
        <ele>149</ele>
        <time>2020-05-31T11:49:00Z</time>
      </trkpt>
      <trkpt lat="48.59767" lon="1.96836">
        <ele>149</ele>
        <time>2020-05-31T11:49:02Z</time>
      </trkpt>
      <trkpt lat="48.59765" lon="1.9684">
        <ele>149</ele>
        <time>2020-05-31T11:49:04Z</time>
      </trkpt>
      <trkpt lat="48.59763" lon="1.96844">
        <ele>149</ele>
        <time>2020-05-31T11:49:06Z</time>
      </trkpt>
      <trkpt lat="48.59761" lon="1.96848">
        <ele>148</ele>
        <time>2020-05-31T11:49:08Z</time>
      </trkpt>
      <trkpt lat="48.5976" lon="1.9685">
        <ele>148</ele>
        <time>2020-05-31T11:49:09Z</time>
      </trkpt>
      <trkpt lat="48.59758" lon="1.96855">
        <ele>148</ele>
        <time>2020-05-31T11:49:11Z</time>
      </trkpt>
      <trkpt lat="48.59757" lon="1.96859">
        <ele>148</ele>
        <time>2020-05-31T11:49:13Z</time>
      </trkpt>
      <trkpt lat="48.59755" lon="1.96863">
        <ele>148</ele>
        <time>2020-05-31T11:49:15Z</time>
      </trkpt>
      <trkpt lat="48.59754" lon="1.96867">
        <ele>147</ele>
        <time>2020-05-31T11:49:17Z</time>
      </trkpt>
      <trkpt lat="48.59752" lon="1.96871">
        <ele>147</ele>
        <time>2020-05-31T11:49:19Z</time>
      </trkpt>
      <trkpt lat="48.5975" lon="1.96875">
        <ele>146</ele>
        <time>2020-05-31T11:49:21Z</time>
      </trkpt>
      <trkpt lat="48.59748" lon="1.96879">
        <ele>146</ele>
        <time>2020-05-31T11:49:23Z</time>
      </trkpt>
      <trkpt lat="48.59746" lon="1.96883">
        <ele>145</ele>
        <time>2020-05-31T11:49:25Z</time>
      </trkpt>
      <trkpt lat="48.59743" lon="1.96888">
        <ele>145</ele>
        <time>2020-05-31T11:49:27Z</time>
      </trkpt>
      <trkpt lat="48.59742" lon="1.9689">
        <ele>144</ele>
        <time>2020-05-31T11:49:29Z</time>
      </trkpt>
      <trkpt lat="48.5974" lon="1.96893">
        <ele>144</ele>
        <time>2020-05-31T11:49:32Z</time>
      </trkpt>
      <trkpt lat="48.59738" lon="1.96896">
        <ele>143</ele>
        <time>2020-05-31T11:49:34Z</time>
      </trkpt>
      <trkpt lat="48.59736" lon="1.969">
        <ele>143</ele>
        <time>2020-05-31T11:49:36Z</time>
      </trkpt>
      <trkpt lat="48.59734" lon="1.96904">
        <ele>143</ele>
        <time>2020-05-31T11:49:38Z</time>
      </trkpt>
      <trkpt lat="48.59733" lon="1.96907">
        <ele>143</ele>
        <time>2020-05-31T11:49:40Z</time>
      </trkpt>
      <trkpt lat="48.59731" lon="1.96911">
        <ele>143</ele>
        <time>2020-05-31T11:49:42Z</time>
      </trkpt>
      <trkpt lat="48.59729" lon="1.96914">
        <ele>143</ele>
        <time>2020-05-31T11:49:44Z</time>
      </trkpt>
      <trkpt lat="48.59727" lon="1.96917">
        <ele>143</ele>
        <time>2020-05-31T11:49:46Z</time>
      </trkpt>
      <trkpt lat="48.59726" lon="1.9692">
        <ele>143</ele>
        <time>2020-05-31T11:49:48Z</time>
      </trkpt>
      <trkpt lat="48.59724" lon="1.96922">
        <ele>144</ele>
        <time>2020-05-31T11:49:50Z</time>
      </trkpt>
      <trkpt lat="48.59722" lon="1.96926">
        <ele>144</ele>
        <time>2020-05-31T11:49:52Z</time>
      </trkpt>
      <trkpt lat="48.5972" lon="1.9693">
        <ele>144</ele>
        <time>2020-05-31T11:49:54Z</time>
      </trkpt>
      <trkpt lat="48.59719" lon="1.96933">
        <ele>144</ele>
        <time>2020-05-31T11:49:56Z</time>
      </trkpt>
      <trkpt lat="48.59718" lon="1.96937">
        <ele>144</ele>
        <time>2020-05-31T11:49:58Z</time>
      </trkpt>
      <trkpt lat="48.59717" lon="1.96942">
        <ele>144</ele>
        <time>2020-05-31T11:50:00Z</time>
      </trkpt>
      <trkpt lat="48.59716" lon="1.96944">
        <ele>144</ele>
        <time>2020-05-31T11:50:01Z</time>
      </trkpt>
      <trkpt lat="48.59715" lon="1.96947">
        <ele>144</ele>
        <time>2020-05-31T11:50:02Z</time>
      </trkpt>
      <trkpt lat="48.59713" lon="1.96949">
        <ele>144</ele>
        <time>2020-05-31T11:50:03Z</time>
      </trkpt>
      <trkpt lat="48.59711" lon="1.96954">
        <ele>144</ele>
        <time>2020-05-31T11:50:05Z</time>
      </trkpt>
      <trkpt lat="48.59709" lon="1.96956">
        <ele>144</ele>
        <time>2020-05-31T11:50:06Z</time>
      </trkpt>
      <trkpt lat="48.59708" lon="1.96958">
        <ele>144</ele>
        <time>2020-05-31T11:50:07Z</time>
      </trkpt>
      <trkpt lat="48.59707" lon="1.96961">
        <ele>144</ele>
        <time>2020-05-31T11:50:08Z</time>
      </trkpt>
      <trkpt lat="48.59706" lon="1.96963">
        <ele>144</ele>
        <time>2020-05-31T11:50:09Z</time>
      </trkpt>
      <trkpt lat="48.59705" lon="1.96966">
        <ele>144</ele>
        <time>2020-05-31T11:50:10Z</time>
      </trkpt>
      <trkpt lat="48.59703" lon="1.9697">
        <ele>143</ele>
        <time>2020-05-31T11:50:12Z</time>
      </trkpt>
      <trkpt lat="48.59702" lon="1.96973">
        <ele>143</ele>
        <time>2020-05-31T11:50:13Z</time>
      </trkpt>
      <trkpt lat="48.59701" lon="1.96975">
        <ele>143</ele>
        <time>2020-05-31T11:50:14Z</time>
      </trkpt>
      <trkpt lat="48.59699" lon="1.96979">
        <ele>143</ele>
        <time>2020-05-31T11:50:16Z</time>
      </trkpt>
      <trkpt lat="48.59697" lon="1.96984">
        <ele>142</ele>
        <time>2020-05-31T11:50:18Z</time>
      </trkpt>
      <trkpt lat="48.59695" lon="1.96987">
        <ele>142</ele>
        <time>2020-05-31T11:50:20Z</time>
      </trkpt>
      <trkpt lat="48.59693" lon="1.96991">
        <ele>142</ele>
        <time>2020-05-31T11:50:22Z</time>
      </trkpt>
      <trkpt lat="48.59692" lon="1.96994">
        <ele>142</ele>
        <time>2020-05-31T11:50:23Z</time>
      </trkpt>
      <trkpt lat="48.59691" lon="1.96996">
        <ele>142</ele>
        <time>2020-05-31T11:50:24Z</time>
      </trkpt>
      <trkpt lat="48.5969" lon="1.97">
        <ele>142</ele>
        <time>2020-05-31T11:50:26Z</time>
      </trkpt>
      <trkpt lat="48.59688" lon="1.97002">
        <ele>142</ele>
        <time>2020-05-31T11:50:27Z</time>
      </trkpt>
      <trkpt lat="48.59687" lon="1.97004">
        <ele>142</ele>
        <time>2020-05-31T11:50:28Z</time>
      </trkpt>
      <trkpt lat="48.59686" lon="1.97007">
        <ele>142</ele>
        <time>2020-05-31T11:50:29Z</time>
      </trkpt>
      <trkpt lat="48.59684" lon="1.9701">
        <ele>141</ele>
        <time>2020-05-31T11:50:30Z</time>
      </trkpt>
      <trkpt lat="48.59683" lon="1.97012">
        <ele>141</ele>
        <time>2020-05-31T11:50:31Z</time>
      </trkpt>
      <trkpt lat="48.59681" lon="1.97016">
        <ele>141</ele>
        <time>2020-05-31T11:50:33Z</time>
      </trkpt>
      <trkpt lat="48.59679" lon="1.97021">
        <ele>141</ele>
        <time>2020-05-31T11:50:35Z</time>
      </trkpt>
      <trkpt lat="48.59677" lon="1.97025">
        <ele>141</ele>
        <time>2020-05-31T11:50:37Z</time>
      </trkpt>
      <trkpt lat="48.59676" lon="1.97027">
        <ele>141</ele>
        <time>2020-05-31T11:50:38Z</time>
      </trkpt>
      <trkpt lat="48.59674" lon="1.97031">
        <ele>141</ele>
        <time>2020-05-31T11:50:40Z</time>
      </trkpt>
      <trkpt lat="48.59672" lon="1.97035">
        <ele>140</ele>
        <time>2020-05-31T11:50:42Z</time>
      </trkpt>
      <trkpt lat="48.59671" lon="1.97039">
        <ele>140</ele>
        <time>2020-05-31T11:50:44Z</time>
      </trkpt>
      <trkpt lat="48.5967" lon="1.97041">
        <ele>140</ele>
        <time>2020-05-31T11:50:46Z</time>
      </trkpt>
      <trkpt lat="48.59667" lon="1.97044">
        <ele>140</ele>
        <time>2020-05-31T11:50:48Z</time>
      </trkpt>
      <trkpt lat="48.59665" lon="1.97047">
        <ele>140</ele>
        <time>2020-05-31T11:50:50Z</time>
      </trkpt>
      <trkpt lat="48.59664" lon="1.97051">
        <ele>140</ele>
        <time>2020-05-31T11:50:52Z</time>
      </trkpt>
      <trkpt lat="48.59663" lon="1.97053">
        <ele>140</ele>
        <time>2020-05-31T11:50:54Z</time>
      </trkpt>
      <trkpt lat="48.59661" lon="1.97058">
        <ele>139</ele>
        <time>2020-05-31T11:50:56Z</time>
      </trkpt>
      <trkpt lat="48.5966" lon="1.9706">
        <ele>138</ele>
        <time>2020-05-31T11:50:57Z</time>
      </trkpt>
      <trkpt lat="48.59658" lon="1.97063">
        <ele>139</ele>
        <time>2020-05-31T11:50:59Z</time>
      </trkpt>
      <trkpt lat="48.59656" lon="1.97067">
        <ele>138</ele>
        <time>2020-05-31T11:51:01Z</time>
      </trkpt>
      <trkpt lat="48.59653" lon="1.9707">
        <ele>138</ele>
        <time>2020-05-31T11:51:03Z</time>
      </trkpt>
      <trkpt lat="48.59651" lon="1.97073">
        <ele>138</ele>
        <time>2020-05-31T11:51:05Z</time>
      </trkpt>
      <trkpt lat="48.5965" lon="1.97077">
        <ele>137</ele>
        <time>2020-05-31T11:51:07Z</time>
      </trkpt>
      <trkpt lat="48.59649" lon="1.9708">
        <ele>137</ele>
        <time>2020-05-31T11:51:08Z</time>
      </trkpt>
      <trkpt lat="48.59648" lon="1.97082">
        <ele>137</ele>
        <time>2020-05-31T11:51:09Z</time>
      </trkpt>
      <trkpt lat="48.59647" lon="1.97085">
        <ele>137</ele>
        <time>2020-05-31T11:51:10Z</time>
      </trkpt>
      <trkpt lat="48.59645" lon="1.97089">
        <ele>137</ele>
        <time>2020-05-31T11:51:12Z</time>
      </trkpt>
      <trkpt lat="48.59643" lon="1.97093">
        <ele>137</ele>
        <time>2020-05-31T11:51:14Z</time>
      </trkpt>
      <trkpt lat="48.59641" lon="1.97096">
        <ele>138</ele>
        <time>2020-05-31T11:51:16Z</time>
      </trkpt>
      <trkpt lat="48.59639" lon="1.971">
        <ele>138</ele>
        <time>2020-05-31T11:51:18Z</time>
      </trkpt>
      <trkpt lat="48.59637" lon="1.97104">
        <ele>138</ele>
        <time>2020-05-31T11:51:20Z</time>
      </trkpt>
      <trkpt lat="48.59636" lon="1.97107">
        <ele>138</ele>
        <time>2020-05-31T11:51:22Z</time>
      </trkpt>
      <trkpt lat="48.59634" lon="1.97111">
        <ele>138</ele>
        <time>2020-05-31T11:51:24Z</time>
      </trkpt>
      <trkpt lat="48.59632" lon="1.97115">
        <ele>138</ele>
        <time>2020-05-31T11:51:26Z</time>
      </trkpt>
      <trkpt lat="48.59631" lon="1.97119">
        <ele>138</ele>
        <time>2020-05-31T11:51:28Z</time>
      </trkpt>
      <trkpt lat="48.5963" lon="1.97122">
        <ele>138</ele>
        <time>2020-05-31T11:51:30Z</time>
      </trkpt>
      <trkpt lat="48.59628" lon="1.97126">
        <ele>138</ele>
        <time>2020-05-31T11:51:32Z</time>
      </trkpt>
      <trkpt lat="48.59626" lon="1.97129">
        <ele>138</ele>
        <time>2020-05-31T11:51:34Z</time>
      </trkpt>
      <trkpt lat="48.59625" lon="1.97133">
        <ele>138</ele>
        <time>2020-05-31T11:51:36Z</time>
      </trkpt>
      <trkpt lat="48.59623" lon="1.97136">
        <ele>137</ele>
        <time>2020-05-31T11:51:38Z</time>
      </trkpt>
      <trkpt lat="48.59621" lon="1.9714">
        <ele>137</ele>
        <time>2020-05-31T11:51:40Z</time>
      </trkpt>
      <trkpt lat="48.59619" lon="1.97143">
        <ele>137</ele>
        <time>2020-05-31T11:51:42Z</time>
      </trkpt>
      <trkpt lat="48.59618" lon="1.97146">
        <ele>136</ele>
        <time>2020-05-31T11:51:43Z</time>
      </trkpt>
      <trkpt lat="48.59617" lon="1.97148">
        <ele>136</ele>
        <time>2020-05-31T11:51:44Z</time>
      </trkpt>
      <trkpt lat="48.59615" lon="1.97152">
        <ele>136</ele>
        <time>2020-05-31T11:51:46Z</time>
      </trkpt>
      <trkpt lat="48.59613" lon="1.97157">
        <ele>137</ele>
        <time>2020-05-31T11:51:48Z</time>
      </trkpt>
      <trkpt lat="48.59611" lon="1.97161">
        <ele>137</ele>
        <time>2020-05-31T11:51:50Z</time>
      </trkpt>
      <trkpt lat="48.5961" lon="1.97163">
        <ele>136</ele>
        <time>2020-05-31T11:51:51Z</time>
      </trkpt>
      <trkpt lat="48.59608" lon="1.97165">
        <ele>136</ele>
        <time>2020-05-31T11:51:52Z</time>
      </trkpt>
      <trkpt lat="48.59607" lon="1.97169">
        <ele>136</ele>
        <time>2020-05-31T11:51:54Z</time>
      </trkpt>
      <trkpt lat="48.59605" lon="1.97174">
        <ele>136</ele>
        <time>2020-05-31T11:51:56Z</time>
      </trkpt>
      <trkpt lat="48.59603" lon="1.97178">
        <ele>136</ele>
        <time>2020-05-31T11:51:58Z</time>
      </trkpt>
      <trkpt lat="48.59601" lon="1.97181">
        <ele>136</ele>
        <time>2020-05-31T11:52:00Z</time>
      </trkpt>
      <trkpt lat="48.59599" lon="1.97185">
        <ele>137</ele>
        <time>2020-05-31T11:52:02Z</time>
      </trkpt>
      <trkpt lat="48.59597" lon="1.97189">
        <ele>137</ele>
        <time>2020-05-31T11:52:04Z</time>
      </trkpt>
      <trkpt lat="48.59596" lon="1.97193">
        <ele>137</ele>
        <time>2020-05-31T11:52:06Z</time>
      </trkpt>
      <trkpt lat="48.59594" lon="1.97197">
        <ele>137</ele>
        <time>2020-05-31T11:52:08Z</time>
      </trkpt>
      <trkpt lat="48.59591" lon="1.97201">
        <ele>137</ele>
        <time>2020-05-31T11:52:10Z</time>
      </trkpt>
      <trkpt lat="48.5959" lon="1.97205">
        <ele>138</ele>
        <time>2020-05-31T11:52:12Z</time>
      </trkpt>
      <trkpt lat="48.59588" lon="1.97209">
        <ele>138</ele>
        <time>2020-05-31T11:52:14Z</time>
      </trkpt>
      <trkpt lat="48.59586" lon="1.97213">
        <ele>138</ele>
        <time>2020-05-31T11:52:16Z</time>
      </trkpt>
      <trkpt lat="48.59584" lon="1.97217">
        <ele>138</ele>
        <time>2020-05-31T11:52:18Z</time>
      </trkpt>
      <trkpt lat="48.59582" lon="1.9722">
        <ele>138</ele>
        <time>2020-05-31T11:52:20Z</time>
      </trkpt>
      <trkpt lat="48.5958" lon="1.97224">
        <ele>139</ele>
        <time>2020-05-31T11:52:22Z</time>
      </trkpt>
      <trkpt lat="48.59578" lon="1.97228">
        <ele>138</ele>
        <time>2020-05-31T11:52:24Z</time>
      </trkpt>
      <trkpt lat="48.59577" lon="1.97233">
        <ele>138</ele>
        <time>2020-05-31T11:52:26Z</time>
      </trkpt>
      <trkpt lat="48.59575" lon="1.97237">
        <ele>139</ele>
        <time>2020-05-31T11:52:28Z</time>
      </trkpt>
      <trkpt lat="48.59574" lon="1.97239">
        <ele>139</ele>
        <time>2020-05-31T11:52:29Z</time>
      </trkpt>
      <trkpt lat="48.59572" lon="1.97243">
        <ele>139</ele>
        <time>2020-05-31T11:52:31Z</time>
      </trkpt>
      <trkpt lat="48.59569" lon="1.97247">
        <ele>139</ele>
        <time>2020-05-31T11:52:33Z</time>
      </trkpt>
      <trkpt lat="48.59567" lon="1.9725">
        <ele>139</ele>
        <time>2020-05-31T11:52:35Z</time>
      </trkpt>
      <trkpt lat="48.59565" lon="1.97255">
        <ele>139</ele>
        <time>2020-05-31T11:52:37Z</time>
      </trkpt>
      <trkpt lat="48.59563" lon="1.97259">
        <ele>139</ele>
        <time>2020-05-31T11:52:39Z</time>
      </trkpt>
      <trkpt lat="48.59561" lon="1.97263">
        <ele>140</ele>
        <time>2020-05-31T11:52:41Z</time>
      </trkpt>
      <trkpt lat="48.59559" lon="1.97267">
        <ele>140</ele>
        <time>2020-05-31T11:52:43Z</time>
      </trkpt>
      <trkpt lat="48.59558" lon="1.97271">
        <ele>140</ele>
        <time>2020-05-31T11:52:45Z</time>
      </trkpt>
      <trkpt lat="48.59556" lon="1.97275">
        <ele>140</ele>
        <time>2020-05-31T11:52:47Z</time>
      </trkpt>
      <trkpt lat="48.59554" lon="1.97279">
        <ele>140</ele>
        <time>2020-05-31T11:52:49Z</time>
      </trkpt>
      <trkpt lat="48.59552" lon="1.97283">
        <ele>140</ele>
        <time>2020-05-31T11:52:51Z</time>
      </trkpt>
      <trkpt lat="48.5955" lon="1.97286">
        <ele>139</ele>
        <time>2020-05-31T11:52:53Z</time>
      </trkpt>
      <trkpt lat="48.59548" lon="1.9729">
        <ele>139</ele>
        <time>2020-05-31T11:52:55Z</time>
      </trkpt>
      <trkpt lat="48.59546" lon="1.97293">
        <ele>139</ele>
        <time>2020-05-31T11:52:57Z</time>
      </trkpt>
      <trkpt lat="48.59544" lon="1.97297">
        <ele>139</ele>
        <time>2020-05-31T11:52:59Z</time>
      </trkpt>
      <trkpt lat="48.59542" lon="1.97301">
        <ele>139</ele>
        <time>2020-05-31T11:53:01Z</time>
      </trkpt>
      <trkpt lat="48.5954" lon="1.97305">
        <ele>139</ele>
        <time>2020-05-31T11:53:03Z</time>
      </trkpt>
      <trkpt lat="48.59537" lon="1.97309">
        <ele>139</ele>
        <time>2020-05-31T11:53:05Z</time>
      </trkpt>
      <trkpt lat="48.59535" lon="1.97312">
        <ele>139</ele>
        <time>2020-05-31T11:53:07Z</time>
      </trkpt>
      <trkpt lat="48.59533" lon="1.97316">
        <ele>138</ele>
        <time>2020-05-31T11:53:09Z</time>
      </trkpt>
      <trkpt lat="48.59531" lon="1.9732">
        <ele>138</ele>
        <time>2020-05-31T11:53:11Z</time>
      </trkpt>
      <trkpt lat="48.59528" lon="1.97324">
        <ele>138</ele>
        <time>2020-05-31T11:53:13Z</time>
      </trkpt>
      <trkpt lat="48.59527" lon="1.97329">
        <ele>138</ele>
        <time>2020-05-31T11:53:15Z</time>
      </trkpt>
      <trkpt lat="48.59525" lon="1.97333">
        <ele>138</ele>
        <time>2020-05-31T11:53:17Z</time>
      </trkpt>
      <trkpt lat="48.59523" lon="1.97335">
        <ele>138</ele>
        <time>2020-05-31T11:53:18Z</time>
      </trkpt>
      <trkpt lat="48.59522" lon="1.97337">
        <ele>138</ele>
        <time>2020-05-31T11:53:19Z</time>
      </trkpt>
      <trkpt lat="48.5952" lon="1.97341">
        <ele>137</ele>
        <time>2020-05-31T11:53:21Z</time>
      </trkpt>
      <trkpt lat="48.59518" lon="1.97344">
        <ele>137</ele>
        <time>2020-05-31T11:53:23Z</time>
      </trkpt>
      <trkpt lat="48.59516" lon="1.97348">
        <ele>137</ele>
        <time>2020-05-31T11:53:25Z</time>
      </trkpt>
      <trkpt lat="48.59514" lon="1.97352">
        <ele>137</ele>
        <time>2020-05-31T11:53:27Z</time>
      </trkpt>
      <trkpt lat="48.59512" lon="1.97356">
        <ele>137</ele>
        <time>2020-05-31T11:53:29Z</time>
      </trkpt>
      <trkpt lat="48.59511" lon="1.9736">
        <ele>137</ele>
        <time>2020-05-31T11:53:31Z</time>
      </trkpt>
      <trkpt lat="48.59509" lon="1.97363">
        <ele>136</ele>
        <time>2020-05-31T11:53:33Z</time>
      </trkpt>
      <trkpt lat="48.59508" lon="1.97366">
        <ele>136</ele>
        <time>2020-05-31T11:53:37Z</time>
      </trkpt>
      <trkpt lat="48.59507" lon="1.9737">
        <ele>136</ele>
        <time>2020-05-31T11:53:39Z</time>
      </trkpt>
      <trkpt lat="48.59505" lon="1.97374">
        <ele>136</ele>
        <time>2020-05-31T11:53:41Z</time>
      </trkpt>
      <trkpt lat="48.59504" lon="1.97375">
        <ele>136</ele>
        <time>2020-05-31T11:53:43Z</time>
      </trkpt>
      <trkpt lat="48.59503" lon="1.97378">
        <ele>136</ele>
        <time>2020-05-31T11:53:59Z</time>
      </trkpt>
      <trkpt lat="48.59501" lon="1.97382">
        <ele>136</ele>
        <time>2020-05-31T11:54:01Z</time>
      </trkpt>
      <trkpt lat="48.595" lon="1.97386">
        <ele>136</ele>
        <time>2020-05-31T11:54:03Z</time>
      </trkpt>
      <trkpt lat="48.59497" lon="1.9739">
        <ele>136</ele>
        <time>2020-05-31T11:54:05Z</time>
      </trkpt>
      <trkpt lat="48.59495" lon="1.97394">
        <ele>136</ele>
        <time>2020-05-31T11:54:07Z</time>
      </trkpt>
      <trkpt lat="48.59493" lon="1.97398">
        <ele>136</ele>
        <time>2020-05-31T11:54:09Z</time>
      </trkpt>
      <trkpt lat="48.59491" lon="1.97402">
        <ele>136</ele>
        <time>2020-05-31T11:54:11Z</time>
      </trkpt>
      <trkpt lat="48.59489" lon="1.97406">
        <ele>136</ele>
        <time>2020-05-31T11:54:13Z</time>
      </trkpt>
      <trkpt lat="48.59487" lon="1.97409">
        <ele>136</ele>
        <time>2020-05-31T11:54:14Z</time>
      </trkpt>
      <trkpt lat="48.59486" lon="1.97413">
        <ele>137</ele>
        <time>2020-05-31T11:54:16Z</time>
      </trkpt>
      <trkpt lat="48.59483" lon="1.97417">
        <ele>137</ele>
        <time>2020-05-31T11:54:18Z</time>
      </trkpt>
      <trkpt lat="48.59482" lon="1.9742">
        <ele>137</ele>
        <time>2020-05-31T11:54:20Z</time>
      </trkpt>
      <trkpt lat="48.5948" lon="1.97425">
        <ele>137</ele>
        <time>2020-05-31T11:54:22Z</time>
      </trkpt>
      <trkpt lat="48.59479" lon="1.97429">
        <ele>138</ele>
        <time>2020-05-31T11:54:24Z</time>
      </trkpt>
      <trkpt lat="48.59478" lon="1.97431">
        <ele>138</ele>
        <time>2020-05-31T11:54:25Z</time>
      </trkpt>
      <trkpt lat="48.59477" lon="1.97434">
        <ele>138</ele>
        <time>2020-05-31T11:54:26Z</time>
      </trkpt>
      <trkpt lat="48.59475" lon="1.97438">
        <ele>138</ele>
        <time>2020-05-31T11:54:28Z</time>
      </trkpt>
      <trkpt lat="48.59474" lon="1.97442">
        <ele>138</ele>
        <time>2020-05-31T11:54:30Z</time>
      </trkpt>
      <trkpt lat="48.59473" lon="1.97447">
        <ele>138</ele>
        <time>2020-05-31T11:54:32Z</time>
      </trkpt>
      <trkpt lat="48.59471" lon="1.97451">
        <ele>138</ele>
        <time>2020-05-31T11:54:34Z</time>
      </trkpt>
      <trkpt lat="48.59471" lon="1.97456">
        <ele>139</ele>
        <time>2020-05-31T11:54:36Z</time>
      </trkpt>
      <trkpt lat="48.59471" lon="1.97462">
        <ele>139</ele>
        <time>2020-05-31T11:54:38Z</time>
      </trkpt>
      <trkpt lat="48.59471" lon="1.97465">
        <ele>139</ele>
        <time>2020-05-31T11:54:39Z</time>
      </trkpt>
      <trkpt lat="48.5947" lon="1.97468">
        <ele>139</ele>
        <time>2020-05-31T11:54:40Z</time>
      </trkpt>
      <trkpt lat="48.5947" lon="1.97471">
        <ele>139</ele>
        <time>2020-05-31T11:54:41Z</time>
      </trkpt>
      <trkpt lat="48.5947" lon="1.97473">
        <ele>139</ele>
        <time>2020-05-31T11:54:42Z</time>
      </trkpt>
      <trkpt lat="48.5947" lon="1.97479">
        <ele>139</ele>
        <time>2020-05-31T11:54:44Z</time>
      </trkpt>
      <trkpt lat="48.59471" lon="1.97483">
        <ele>140</ele>
        <time>2020-05-31T11:54:46Z</time>
      </trkpt>
      <trkpt lat="48.59472" lon="1.97487">
        <ele>140</ele>
        <time>2020-05-31T11:54:48Z</time>
      </trkpt>
      <trkpt lat="48.59472" lon="1.97492">
        <ele>140</ele>
        <time>2020-05-31T11:54:50Z</time>
      </trkpt>
      <trkpt lat="48.59473" lon="1.97497">
        <ele>140</ele>
        <time>2020-05-31T11:54:52Z</time>
      </trkpt>
      <trkpt lat="48.59474" lon="1.97502">
        <ele>140</ele>
        <time>2020-05-31T11:54:54Z</time>
      </trkpt>
      <trkpt lat="48.59474" lon="1.97506">
        <ele>140</ele>
        <time>2020-05-31T11:54:56Z</time>
      </trkpt>
      <trkpt lat="48.59474" lon="1.97509">
        <ele>141</ele>
        <time>2020-05-31T11:54:58Z</time>
      </trkpt>
      <trkpt lat="48.59474" lon="1.97512">
        <ele>141</ele>
        <time>2020-05-31T11:55:00Z</time>
      </trkpt>
      <trkpt lat="48.59473" lon="1.97517">
        <ele>141</ele>
        <time>2020-05-31T11:55:02Z</time>
      </trkpt>
      <trkpt lat="48.59472" lon="1.97521">
        <ele>141</ele>
        <time>2020-05-31T11:55:04Z</time>
      </trkpt>
      <trkpt lat="48.59471" lon="1.97526">
        <ele>142</ele>
        <time>2020-05-31T11:55:06Z</time>
      </trkpt>
      <trkpt lat="48.5947" lon="1.97528">
        <ele>142</ele>
        <time>2020-05-31T11:55:07Z</time>
      </trkpt>
      <trkpt lat="48.59469" lon="1.97531">
        <ele>142</ele>
        <time>2020-05-31T11:55:08Z</time>
      </trkpt>
      <trkpt lat="48.59467" lon="1.97535">
        <ele>142</ele>
        <time>2020-05-31T11:55:10Z</time>
      </trkpt>
      <trkpt lat="48.59465" lon="1.97538">
        <ele>142</ele>
        <time>2020-05-31T11:55:12Z</time>
      </trkpt>
      <trkpt lat="48.59463" lon="1.97542">
        <ele>143</ele>
        <time>2020-05-31T11:55:14Z</time>
      </trkpt>
      <trkpt lat="48.59461" lon="1.97546">
        <ele>143</ele>
        <time>2020-05-31T11:55:16Z</time>
      </trkpt>
      <trkpt lat="48.59459" lon="1.97549">
        <ele>143</ele>
        <time>2020-05-31T11:55:18Z</time>
      </trkpt>
      <trkpt lat="48.59457" lon="1.97553">
        <ele>143</ele>
        <time>2020-05-31T11:55:20Z</time>
      </trkpt>
      <trkpt lat="48.59454" lon="1.97556">
        <ele>143</ele>
        <time>2020-05-31T11:55:22Z</time>
      </trkpt>
      <trkpt lat="48.59452" lon="1.9756">
        <ele>143</ele>
        <time>2020-05-31T11:55:24Z</time>
      </trkpt>
      <trkpt lat="48.5945" lon="1.97563">
        <ele>144</ele>
        <time>2020-05-31T11:55:26Z</time>
      </trkpt>
      <trkpt lat="48.59447" lon="1.97567">
        <ele>143</ele>
        <time>2020-05-31T11:55:28Z</time>
      </trkpt>
      <trkpt lat="48.59446" lon="1.97571">
        <ele>144</ele>
        <time>2020-05-31T11:55:30Z</time>
      </trkpt>
      <trkpt lat="48.59444" lon="1.97575">
        <ele>144</ele>
        <time>2020-05-31T11:55:32Z</time>
      </trkpt>
      <trkpt lat="48.59442" lon="1.9758">
        <ele>144</ele>
        <time>2020-05-31T11:55:34Z</time>
      </trkpt>
      <trkpt lat="48.59441" lon="1.97582">
        <ele>144</ele>
        <time>2020-05-31T11:55:35Z</time>
      </trkpt>
      <trkpt lat="48.59439" lon="1.97586">
        <ele>144</ele>
        <time>2020-05-31T11:55:37Z</time>
      </trkpt>
      <trkpt lat="48.59438" lon="1.97591">
        <ele>144</ele>
        <time>2020-05-31T11:55:39Z</time>
      </trkpt>
      <trkpt lat="48.59437" lon="1.97596">
        <ele>144</ele>
        <time>2020-05-31T11:55:41Z</time>
      </trkpt>
      <trkpt lat="48.59436" lon="1.976">
        <ele>144</ele>
        <time>2020-05-31T11:55:43Z</time>
      </trkpt>
      <trkpt lat="48.59434" lon="1.97605">
        <ele>144</ele>
        <time>2020-05-31T11:55:45Z</time>
      </trkpt>
      <trkpt lat="48.59433" lon="1.97609">
        <ele>145</ele>
        <time>2020-05-31T11:55:47Z</time>
      </trkpt>
      <trkpt lat="48.59432" lon="1.97614">
        <ele>145</ele>
        <time>2020-05-31T11:55:49Z</time>
      </trkpt>
      <trkpt lat="48.59431" lon="1.97617">
        <ele>145</ele>
        <time>2020-05-31T11:55:50Z</time>
      </trkpt>
      <trkpt lat="48.5943" lon="1.97621">
        <ele>145</ele>
        <time>2020-05-31T11:55:52Z</time>
      </trkpt>
      <trkpt lat="48.5943" lon="1.97626">
        <ele>145</ele>
        <time>2020-05-31T11:55:54Z</time>
      </trkpt>
      <trkpt lat="48.5943" lon="1.9763">
        <ele>145</ele>
        <time>2020-05-31T11:55:56Z</time>
      </trkpt>
      <trkpt lat="48.59429" lon="1.97635">
        <ele>146</ele>
        <time>2020-05-31T11:55:58Z</time>
      </trkpt>
      <trkpt lat="48.59429" lon="1.9764">
        <ele>146</ele>
        <time>2020-05-31T11:56:00Z</time>
      </trkpt>
      <trkpt lat="48.59429" lon="1.97644">
        <ele>146</ele>
        <time>2020-05-31T11:56:02Z</time>
      </trkpt>
      <trkpt lat="48.59429" lon="1.97649">
        <ele>146</ele>
        <time>2020-05-31T11:56:04Z</time>
      </trkpt>
      <trkpt lat="48.59429" lon="1.97654">
        <ele>146</ele>
        <time>2020-05-31T11:56:06Z</time>
      </trkpt>
      <trkpt lat="48.59429" lon="1.97658">
        <ele>146</ele>
        <time>2020-05-31T11:56:08Z</time>
      </trkpt>
      <trkpt lat="48.59428" lon="1.97663">
        <ele>146</ele>
        <time>2020-05-31T11:56:10Z</time>
      </trkpt>
      <trkpt lat="48.59428" lon="1.97668">
        <ele>146</ele>
        <time>2020-05-31T11:56:12Z</time>
      </trkpt>
      <trkpt lat="48.59428" lon="1.97673">
        <ele>147</ele>
        <time>2020-05-31T11:56:14Z</time>
      </trkpt>
      <trkpt lat="48.59428" lon="1.97677">
        <ele>147</ele>
        <time>2020-05-31T11:56:16Z</time>
      </trkpt>
      <trkpt lat="48.59428" lon="1.97683">
        <ele>147</ele>
        <time>2020-05-31T11:56:18Z</time>
      </trkpt>
      <trkpt lat="48.59428" lon="1.97688">
        <ele>147</ele>
        <time>2020-05-31T11:56:20Z</time>
      </trkpt>
      <trkpt lat="48.59428" lon="1.97693">
        <ele>147</ele>
        <time>2020-05-31T11:56:22Z</time>
      </trkpt>
      <trkpt lat="48.59429" lon="1.97697">
        <ele>148</ele>
        <time>2020-05-31T11:56:24Z</time>
      </trkpt>
      <trkpt lat="48.5943" lon="1.97702">
        <ele>148</ele>
        <time>2020-05-31T11:56:26Z</time>
      </trkpt>
      <trkpt lat="48.59431" lon="1.97706">
        <ele>148</ele>
        <time>2020-05-31T11:56:28Z</time>
      </trkpt>
      <trkpt lat="48.59432" lon="1.97711">
        <ele>148</ele>
        <time>2020-05-31T11:56:30Z</time>
      </trkpt>
      <trkpt lat="48.59433" lon="1.97716">
        <ele>149</ele>
        <time>2020-05-31T11:56:32Z</time>
      </trkpt>
      <trkpt lat="48.59435" lon="1.97721">
        <ele>149</ele>
        <time>2020-05-31T11:56:34Z</time>
      </trkpt>
      <trkpt lat="48.59436" lon="1.97724">
        <ele>149</ele>
        <time>2020-05-31T11:56:36Z</time>
      </trkpt>
      <trkpt lat="48.59438" lon="1.97729">
        <ele>149</ele>
        <time>2020-05-31T11:56:38Z</time>
      </trkpt>
      <trkpt lat="48.59439" lon="1.97733">
        <ele>149</ele>
        <time>2020-05-31T11:56:40Z</time>
      </trkpt>
      <trkpt lat="48.5944" lon="1.97737">
        <ele>149</ele>
        <time>2020-05-31T11:56:42Z</time>
      </trkpt>
      <trkpt lat="48.59439" lon="1.97741">
        <ele>150</ele>
        <time>2020-05-31T11:56:44Z</time>
      </trkpt>
      <trkpt lat="48.59437" lon="1.97744">
        <ele>150</ele>
        <time>2020-05-31T11:56:46Z</time>
      </trkpt>
      <trkpt lat="48.59435" lon="1.97745">
        <ele>150</ele>
        <time>2020-05-31T11:56:49Z</time>
      </trkpt>
      <trkpt lat="48.59433" lon="1.97745">
        <ele>150</ele>
        <time>2020-05-31T11:56:52Z</time>
      </trkpt>
      <trkpt lat="48.59431" lon="1.97746">
        <ele>153</ele>
        <time>2020-05-31T11:57:07Z</time>
      </trkpt>
      <trkpt lat="48.59428" lon="1.97746">
        <ele>154</ele>
        <time>2020-05-31T11:57:09Z</time>
      </trkpt>
      <trkpt lat="48.59425" lon="1.97745">
        <ele>154</ele>
        <time>2020-05-31T11:57:11Z</time>
      </trkpt>
      <trkpt lat="48.59422" lon="1.97743">
        <ele>153</ele>
        <time>2020-05-31T11:57:13Z</time>
      </trkpt>
      <trkpt lat="48.59419" lon="1.97741">
        <ele>153</ele>
        <time>2020-05-31T11:57:15Z</time>
      </trkpt>
      <trkpt lat="48.59416" lon="1.9774">
        <ele>154</ele>
        <time>2020-05-31T11:57:17Z</time>
      </trkpt>
      <trkpt lat="48.59413" lon="1.97738">
        <ele>154</ele>
        <time>2020-05-31T11:57:19Z</time>
      </trkpt>
      <trkpt lat="48.5941" lon="1.97737">
        <ele>154</ele>
        <time>2020-05-31T11:57:21Z</time>
      </trkpt>
      <trkpt lat="48.59407" lon="1.97735">
        <ele>154</ele>
        <time>2020-05-31T11:57:23Z</time>
      </trkpt>
      <trkpt lat="48.59404" lon="1.97733">
        <ele>154</ele>
        <time>2020-05-31T11:57:25Z</time>
      </trkpt>
      <trkpt lat="48.59402" lon="1.97732">
        <ele>154</ele>
        <time>2020-05-31T11:57:27Z</time>
      </trkpt>
      <trkpt lat="48.594" lon="1.97731">
        <ele>154</ele>
        <time>2020-05-31T11:57:28Z</time>
      </trkpt>
      <trkpt lat="48.59398" lon="1.9773">
        <ele>154</ele>
        <time>2020-05-31T11:57:29Z</time>
      </trkpt>
      <trkpt lat="48.59396" lon="1.97728">
        <ele>154</ele>
        <time>2020-05-31T11:57:30Z</time>
      </trkpt>
      <trkpt lat="48.59395" lon="1.97727">
        <ele>154</ele>
        <time>2020-05-31T11:57:31Z</time>
      </trkpt>
      <trkpt lat="48.59393" lon="1.97726">
        <ele>154</ele>
        <time>2020-05-31T11:57:32Z</time>
      </trkpt>
      <trkpt lat="48.5939" lon="1.97724">
        <ele>155</ele>
        <time>2020-05-31T11:57:34Z</time>
      </trkpt>
      <trkpt lat="48.59387" lon="1.97721">
        <ele>155</ele>
        <time>2020-05-31T11:57:36Z</time>
      </trkpt>
      <trkpt lat="48.59384" lon="1.97719">
        <ele>155</ele>
        <time>2020-05-31T11:57:38Z</time>
      </trkpt>
      <trkpt lat="48.59381" lon="1.97718">
        <ele>155</ele>
        <time>2020-05-31T11:57:40Z</time>
      </trkpt>
      <trkpt lat="48.59379" lon="1.97717">
        <ele>155</ele>
        <time>2020-05-31T11:57:41Z</time>
      </trkpt>
      <trkpt lat="48.59377" lon="1.97717">
        <ele>155</ele>
        <time>2020-05-31T11:57:42Z</time>
      </trkpt>
      <trkpt lat="48.59374" lon="1.97715">
        <ele>155</ele>
        <time>2020-05-31T11:57:44Z</time>
      </trkpt>
      <trkpt lat="48.59371" lon="1.97714">
        <ele>156</ele>
        <time>2020-05-31T11:57:46Z</time>
      </trkpt>
      <trkpt lat="48.59368" lon="1.97713">
        <ele>156</ele>
        <time>2020-05-31T11:57:48Z</time>
      </trkpt>
      <trkpt lat="48.59366" lon="1.97712">
        <ele>156</ele>
        <time>2020-05-31T11:57:50Z</time>
      </trkpt>
      <trkpt lat="48.59363" lon="1.97712">
        <ele>156</ele>
        <time>2020-05-31T11:57:52Z</time>
      </trkpt>
      <trkpt lat="48.59359" lon="1.97712">
        <ele>157</ele>
        <time>2020-05-31T11:57:54Z</time>
      </trkpt>
      <trkpt lat="48.59357" lon="1.97713">
        <ele>157</ele>
        <time>2020-05-31T11:57:56Z</time>
      </trkpt>
      <trkpt lat="48.59355" lon="1.97716">
        <ele>157</ele>
        <time>2020-05-31T11:57:58Z</time>
      </trkpt>
      <trkpt lat="48.59352" lon="1.97719">
        <ele>157</ele>
        <time>2020-05-31T11:58:00Z</time>
      </trkpt>
      <trkpt lat="48.5935" lon="1.97723">
        <ele>158</ele>
        <time>2020-05-31T11:58:02Z</time>
      </trkpt>
      <trkpt lat="48.59349" lon="1.97726">
        <ele>158</ele>
        <time>2020-05-31T11:58:05Z</time>
      </trkpt>
      <trkpt lat="48.59347" lon="1.97731">
        <ele>158</ele>
        <time>2020-05-31T11:58:08Z</time>
      </trkpt>
      <trkpt lat="48.59346" lon="1.97734">
        <ele>158</ele>
        <time>2020-05-31T11:58:09Z</time>
      </trkpt>
      <trkpt lat="48.59346" lon="1.97737">
        <ele>158</ele>
        <time>2020-05-31T11:58:10Z</time>
      </trkpt>
      <trkpt lat="48.59345" lon="1.9774">
        <ele>158</ele>
        <time>2020-05-31T11:58:11Z</time>
      </trkpt>
      <trkpt lat="48.59345" lon="1.97743">
        <ele>158</ele>
        <time>2020-05-31T11:58:12Z</time>
      </trkpt>
      <trkpt lat="48.59344" lon="1.97745">
        <ele>159</ele>
        <time>2020-05-31T11:58:13Z</time>
      </trkpt>
      <trkpt lat="48.59344" lon="1.97748">
        <ele>159</ele>
        <time>2020-05-31T11:58:14Z</time>
      </trkpt>
      <trkpt lat="48.59343" lon="1.97752">
        <ele>159</ele>
        <time>2020-05-31T11:58:16Z</time>
      </trkpt>
      <trkpt lat="48.59342" lon="1.97757">
        <ele>159</ele>
        <time>2020-05-31T11:58:18Z</time>
      </trkpt>
      <trkpt lat="48.5934" lon="1.97761">
        <ele>159</ele>
        <time>2020-05-31T11:58:20Z</time>
      </trkpt>
      <trkpt lat="48.59338" lon="1.97766">
        <ele>159</ele>
        <time>2020-05-31T11:58:22Z</time>
      </trkpt>
      <trkpt lat="48.59337" lon="1.9777">
        <ele>159</ele>
        <time>2020-05-31T11:58:24Z</time>
      </trkpt>
      <trkpt lat="48.59337" lon="1.97775">
        <ele>159</ele>
        <time>2020-05-31T11:58:26Z</time>
      </trkpt>
      <trkpt lat="48.59338" lon="1.9778">
        <ele>159</ele>
        <time>2020-05-31T11:58:28Z</time>
      </trkpt>
      <trkpt lat="48.59338" lon="1.97783">
        <ele>159</ele>
        <time>2020-05-31T11:58:29Z</time>
      </trkpt>
      <trkpt lat="48.59339" lon="1.97788">
        <ele>158</ele>
        <time>2020-05-31T11:58:31Z</time>
      </trkpt>
      <trkpt lat="48.59339" lon="1.97793">
        <ele>158</ele>
        <time>2020-05-31T11:58:33Z</time>
      </trkpt>
      <trkpt lat="48.59341" lon="1.97797">
        <ele>158</ele>
        <time>2020-05-31T11:58:35Z</time>
      </trkpt>
      <trkpt lat="48.59343" lon="1.97802">
        <ele>158</ele>
        <time>2020-05-31T11:58:37Z</time>
      </trkpt>
      <trkpt lat="48.59343" lon="1.97804">
        <ele>158</ele>
        <time>2020-05-31T11:58:38Z</time>
      </trkpt>
      <trkpt lat="48.59344" lon="1.97807">
        <ele>158</ele>
        <time>2020-05-31T11:58:39Z</time>
      </trkpt>
      <trkpt lat="48.59345" lon="1.9781">
        <ele>158</ele>
        <time>2020-05-31T11:58:40Z</time>
      </trkpt>
      <trkpt lat="48.59346" lon="1.97812">
        <ele>158</ele>
        <time>2020-05-31T11:58:41Z</time>
      </trkpt>
      <trkpt lat="48.59346" lon="1.97815">
        <ele>158</ele>
        <time>2020-05-31T11:58:42Z</time>
      </trkpt>
      <trkpt lat="48.59347" lon="1.97817">
        <ele>158</ele>
        <time>2020-05-31T11:58:43Z</time>
      </trkpt>
      <trkpt lat="48.59348" lon="1.9782">
        <ele>158</ele>
        <time>2020-05-31T11:58:44Z</time>
      </trkpt>
      <trkpt lat="48.59349" lon="1.97823">
        <ele>158</ele>
        <time>2020-05-31T11:58:45Z</time>
      </trkpt>
      <trkpt lat="48.5935" lon="1.97826">
        <ele>158</ele>
        <time>2020-05-31T11:58:46Z</time>
      </trkpt>
      <trkpt lat="48.59351" lon="1.97829">
        <ele>158</ele>
        <time>2020-05-31T11:58:47Z</time>
      </trkpt>
      <trkpt lat="48.59352" lon="1.97831">
        <ele>158</ele>
        <time>2020-05-31T11:58:48Z</time>
      </trkpt>
      <trkpt lat="48.59354" lon="1.97836">
        <ele>158</ele>
        <time>2020-05-31T11:58:50Z</time>
      </trkpt>
      <trkpt lat="48.59355" lon="1.9784">
        <ele>159</ele>
        <time>2020-05-31T11:58:52Z</time>
      </trkpt>
      <trkpt lat="48.59356" lon="1.97845">
        <ele>159</ele>
        <time>2020-05-31T11:58:54Z</time>
      </trkpt>
      <trkpt lat="48.59358" lon="1.9785">
        <ele>159</ele>
        <time>2020-05-31T11:58:56Z</time>
      </trkpt>
      <trkpt lat="48.59359" lon="1.97855">
        <ele>160</ele>
        <time>2020-05-31T11:58:58Z</time>
      </trkpt>
      <trkpt lat="48.5936" lon="1.97857">
        <ele>160</ele>
        <time>2020-05-31T11:58:59Z</time>
      </trkpt>
      <trkpt lat="48.59361" lon="1.97862">
        <ele>160</ele>
        <time>2020-05-31T11:59:01Z</time>
      </trkpt>
      <trkpt lat="48.59362" lon="1.97867">
        <ele>160</ele>
        <time>2020-05-31T11:59:03Z</time>
      </trkpt>
      <trkpt lat="48.59364" lon="1.97871">
        <ele>160</ele>
        <time>2020-05-31T11:59:05Z</time>
      </trkpt>
      <trkpt lat="48.59365" lon="1.97876">
        <ele>160</ele>
        <time>2020-05-31T11:59:07Z</time>
      </trkpt>
      <trkpt lat="48.59367" lon="1.9788">
        <ele>160</ele>
        <time>2020-05-31T11:59:09Z</time>
      </trkpt>
      <trkpt lat="48.59368" lon="1.97885">
        <ele>160</ele>
        <time>2020-05-31T11:59:11Z</time>
      </trkpt>
      <trkpt lat="48.59368" lon="1.97888">
        <ele>160</ele>
        <time>2020-05-31T11:59:12Z</time>
      </trkpt>
      <trkpt lat="48.59369" lon="1.97893">
        <ele>160</ele>
        <time>2020-05-31T11:59:14Z</time>
      </trkpt>
      <trkpt lat="48.5937" lon="1.97896">
        <ele>160</ele>
        <time>2020-05-31T11:59:15Z</time>
      </trkpt>
      <trkpt lat="48.5937" lon="1.97901">
        <ele>160</ele>
        <time>2020-05-31T11:59:17Z</time>
      </trkpt>
      <trkpt lat="48.59371" lon="1.97906">
        <ele>160</ele>
        <time>2020-05-31T11:59:19Z</time>
      </trkpt>
      <trkpt lat="48.59371" lon="1.97908">
        <ele>160</ele>
        <time>2020-05-31T11:59:20Z</time>
      </trkpt>
      <trkpt lat="48.59372" lon="1.97911">
        <ele>160</ele>
        <time>2020-05-31T11:59:21Z</time>
      </trkpt>
      <trkpt lat="48.59373" lon="1.97915">
        <ele>160</ele>
        <time>2020-05-31T11:59:23Z</time>
      </trkpt>
      <trkpt lat="48.59373" lon="1.9792">
        <ele>161</ele>
        <time>2020-05-31T11:59:25Z</time>
      </trkpt>
      <trkpt lat="48.59373" lon="1.97925">
        <ele>161</ele>
        <time>2020-05-31T11:59:27Z</time>
      </trkpt>
      <trkpt lat="48.59374" lon="1.97929">
        <ele>161</ele>
        <time>2020-05-31T11:59:29Z</time>
      </trkpt>
      <trkpt lat="48.59375" lon="1.97934">
        <ele>161</ele>
        <time>2020-05-31T11:59:31Z</time>
      </trkpt>
      <trkpt lat="48.59374" lon="1.9794">
        <ele>161</ele>
        <time>2020-05-31T11:59:33Z</time>
      </trkpt>
      <trkpt lat="48.59374" lon="1.97942">
        <ele>161</ele>
        <time>2020-05-31T11:59:34Z</time>
      </trkpt>
      <trkpt lat="48.59373" lon="1.97945">
        <ele>161</ele>
        <time>2020-05-31T11:59:35Z</time>
      </trkpt>
      <trkpt lat="48.59372" lon="1.97948">
        <ele>161</ele>
        <time>2020-05-31T11:59:36Z</time>
      </trkpt>
      <trkpt lat="48.59372" lon="1.97951">
        <ele>162</ele>
        <time>2020-05-31T11:59:37Z</time>
      </trkpt>
      <trkpt lat="48.59371" lon="1.97956">
        <ele>162</ele>
        <time>2020-05-31T11:59:39Z</time>
      </trkpt>
      <trkpt lat="48.5937" lon="1.97961">
        <ele>162</ele>
        <time>2020-05-31T11:59:41Z</time>
      </trkpt>
      <trkpt lat="48.59369" lon="1.97965">
        <ele>162</ele>
        <time>2020-05-31T11:59:43Z</time>
      </trkpt>
      <trkpt lat="48.59368" lon="1.9797">
        <ele>162</ele>
        <time>2020-05-31T11:59:45Z</time>
      </trkpt>
      <trkpt lat="48.59366" lon="1.97974">
        <ele>161</ele>
        <time>2020-05-31T11:59:47Z</time>
      </trkpt>
      <trkpt lat="48.59365" lon="1.97979">
        <ele>161</ele>
        <time>2020-05-31T11:59:49Z</time>
      </trkpt>
      <trkpt lat="48.59364" lon="1.97984">
        <ele>161</ele>
        <time>2020-05-31T11:59:51Z</time>
      </trkpt>
      <trkpt lat="48.59364" lon="1.97987">
        <ele>161</ele>
        <time>2020-05-31T11:59:52Z</time>
      </trkpt>
      <trkpt lat="48.59363" lon="1.97989">
        <ele>161</ele>
        <time>2020-05-31T11:59:53Z</time>
      </trkpt>
      <trkpt lat="48.59362" lon="1.97994">
        <ele>161</ele>
        <time>2020-05-31T11:59:55Z</time>
      </trkpt>
      <trkpt lat="48.59361" lon="1.97999">
        <ele>161</ele>
        <time>2020-05-31T11:59:57Z</time>
      </trkpt>
      <trkpt lat="48.5936" lon="1.98004">
        <ele>161</ele>
        <time>2020-05-31T11:59:59Z</time>
      </trkpt>
      <trkpt lat="48.5936" lon="1.98008">
        <ele>161</ele>
        <time>2020-05-31T12:00:01Z</time>
      </trkpt>
      <trkpt lat="48.5936" lon="1.98013">
        <ele>161</ele>
        <time>2020-05-31T12:00:03Z</time>
      </trkpt>
      <trkpt lat="48.59361" lon="1.98018">
        <ele>161</ele>
        <time>2020-05-31T12:00:05Z</time>
      </trkpt>
      <trkpt lat="48.59361" lon="1.98023">
        <ele>161</ele>
        <time>2020-05-31T12:00:07Z</time>
      </trkpt>
      <trkpt lat="48.59362" lon="1.98028">
        <ele>161</ele>
        <time>2020-05-31T12:00:09Z</time>
      </trkpt>
      <trkpt lat="48.59363" lon="1.98032">
        <ele>161</ele>
        <time>2020-05-31T12:00:11Z</time>
      </trkpt>
      <trkpt lat="48.59364" lon="1.98036">
        <ele>160</ele>
        <time>2020-05-31T12:00:13Z</time>
      </trkpt>
      <trkpt lat="48.59365" lon="1.9804">
        <ele>160</ele>
        <time>2020-05-31T12:00:15Z</time>
      </trkpt>
      <trkpt lat="48.59367" lon="1.98043">
        <ele>160</ele>
        <time>2020-05-31T12:00:17Z</time>
      </trkpt>
      <trkpt lat="48.59368" lon="1.98046">
        <ele>160</ele>
        <time>2020-05-31T12:00:19Z</time>
      </trkpt>
      <trkpt lat="48.5937" lon="1.98049">
        <ele>160</ele>
        <time>2020-05-31T12:00:21Z</time>
      </trkpt>
      <trkpt lat="48.59372" lon="1.98051">
        <ele>160</ele>
        <time>2020-05-31T12:00:23Z</time>
      </trkpt>
      <trkpt lat="48.59374" lon="1.98052">
        <ele>159</ele>
        <time>2020-05-31T12:00:35Z</time>
      </trkpt>
      <trkpt lat="48.59375" lon="1.98055">
        <ele>160</ele>
        <time>2020-05-31T12:00:44Z</time>
      </trkpt>
      <trkpt lat="48.59377" lon="1.98056">
        <ele>160</ele>
        <time>2020-05-31T12:00:46Z</time>
      </trkpt>
      <trkpt lat="48.5938" lon="1.98059">
        <ele>160</ele>
        <time>2020-05-31T12:00:48Z</time>
      </trkpt>
      <trkpt lat="48.59382" lon="1.98061">
        <ele>160</ele>
        <time>2020-05-31T12:00:50Z</time>
      </trkpt>
      <trkpt lat="48.59385" lon="1.98064">
        <ele>159</ele>
        <time>2020-05-31T12:00:52Z</time>
      </trkpt>
      <trkpt lat="48.59387" lon="1.98067">
        <ele>159</ele>
        <time>2020-05-31T12:00:54Z</time>
      </trkpt>
      <trkpt lat="48.59389" lon="1.9807">
        <ele>159</ele>
        <time>2020-05-31T12:00:56Z</time>
      </trkpt>
      <trkpt lat="48.59391" lon="1.98072">
        <ele>159</ele>
        <time>2020-05-31T12:00:58Z</time>
      </trkpt>
      <trkpt lat="48.59394" lon="1.98074">
        <ele>159</ele>
        <time>2020-05-31T12:01:00Z</time>
      </trkpt>
      <trkpt lat="48.59396" lon="1.98076">
        <ele>159</ele>
        <time>2020-05-31T12:01:02Z</time>
      </trkpt>
      <trkpt lat="48.59399" lon="1.98077">
        <ele>159</ele>
        <time>2020-05-31T12:01:04Z</time>
      </trkpt>
      <trkpt lat="48.59402" lon="1.98078">
        <ele>159</ele>
        <time>2020-05-31T12:01:06Z</time>
      </trkpt>
      <trkpt lat="48.59404" lon="1.98079">
        <ele>159</ele>
        <time>2020-05-31T12:01:08Z</time>
      </trkpt>
      <trkpt lat="48.59407" lon="1.98081">
        <ele>158</ele>
        <time>2020-05-31T12:01:10Z</time>
      </trkpt>
      <trkpt lat="48.5941" lon="1.98083">
        <ele>158</ele>
        <time>2020-05-31T12:01:12Z</time>
      </trkpt>
      <trkpt lat="48.59413" lon="1.98084">
        <ele>158</ele>
        <time>2020-05-31T12:01:14Z</time>
      </trkpt>
      <trkpt lat="48.59416" lon="1.98083">
        <ele>159</ele>
        <time>2020-05-31T12:01:16Z</time>
      </trkpt>
      <trkpt lat="48.59419" lon="1.98082">
        <ele>159</ele>
        <time>2020-05-31T12:01:18Z</time>
      </trkpt>
      <trkpt lat="48.59421" lon="1.98081">
        <ele>159</ele>
        <time>2020-05-31T12:01:20Z</time>
      </trkpt>
      <trkpt lat="48.59423" lon="1.9808">
        <ele>159</ele>
        <time>2020-05-31T12:01:22Z</time>
      </trkpt>
      <trkpt lat="48.59425" lon="1.98078">
        <ele>159</ele>
        <time>2020-05-31T12:01:24Z</time>
      </trkpt>
      <trkpt lat="48.59427" lon="1.98076">
        <ele>159</ele>
        <time>2020-05-31T12:01:26Z</time>
      </trkpt>
      <trkpt lat="48.59429" lon="1.98074">
        <ele>159</ele>
        <time>2020-05-31T12:01:28Z</time>
      </trkpt>
      <trkpt lat="48.59431" lon="1.98072">
        <ele>159</ele>
        <time>2020-05-31T12:01:30Z</time>
      </trkpt>
      <trkpt lat="48.59433" lon="1.98069">
        <ele>158</ele>
        <time>2020-05-31T12:01:32Z</time>
      </trkpt>
      <trkpt lat="48.59435" lon="1.98066">
        <ele>158</ele>
        <time>2020-05-31T12:01:34Z</time>
      </trkpt>
      <trkpt lat="48.59437" lon="1.98064">
        <ele>158</ele>
        <time>2020-05-31T12:01:36Z</time>
      </trkpt>
      <trkpt lat="48.59439" lon="1.98062">
        <ele>158</ele>
        <time>2020-05-31T12:01:38Z</time>
      </trkpt>
      <trkpt lat="48.59441" lon="1.98061">
        <ele>158</ele>
        <time>2020-05-31T12:01:40Z</time>
      </trkpt>
      <trkpt lat="48.59444" lon="1.98059">
        <ele>158</ele>
        <time>2020-05-31T12:01:42Z</time>
      </trkpt>
      <trkpt lat="48.59446" lon="1.98056">
        <ele>158</ele>
        <time>2020-05-31T12:01:44Z</time>
      </trkpt>
      <trkpt lat="48.59448" lon="1.98052">
        <ele>158</ele>
        <time>2020-05-31T12:01:46Z</time>
      </trkpt>
      <trkpt lat="48.5945" lon="1.98048">
        <ele>158</ele>
        <time>2020-05-31T12:01:48Z</time>
      </trkpt>
      <trkpt lat="48.59452" lon="1.98047">
        <ele>158</ele>
        <time>2020-05-31T12:01:49Z</time>
      </trkpt>
      <trkpt lat="48.59454" lon="1.98043">
        <ele>158</ele>
        <time>2020-05-31T12:01:51Z</time>
      </trkpt>
      <trkpt lat="48.59456" lon="1.98041">
        <ele>158</ele>
        <time>2020-05-31T12:01:52Z</time>
      </trkpt>
      <trkpt lat="48.59457" lon="1.98039">
        <ele>158</ele>
        <time>2020-05-31T12:01:53Z</time>
      </trkpt>
      <trkpt lat="48.59459" lon="1.98035">
        <ele>158</ele>
        <time>2020-05-31T12:01:55Z</time>
      </trkpt>
      <trkpt lat="48.59461" lon="1.98032">
        <ele>158</ele>
        <time>2020-05-31T12:01:57Z</time>
      </trkpt>
      <trkpt lat="48.59464" lon="1.98029">
        <ele>158</ele>
        <time>2020-05-31T12:01:59Z</time>
      </trkpt>
      <trkpt lat="48.59466" lon="1.98025">
        <ele>158</ele>
        <time>2020-05-31T12:02:01Z</time>
      </trkpt>
      <trkpt lat="48.59468" lon="1.98023">
        <ele>158</ele>
        <time>2020-05-31T12:02:02Z</time>
      </trkpt>
      <trkpt lat="48.59469" lon="1.98021">
        <ele>158</ele>
        <time>2020-05-31T12:02:03Z</time>
      </trkpt>
      <trkpt lat="48.59471" lon="1.98017">
        <ele>158</ele>
        <time>2020-05-31T12:02:05Z</time>
      </trkpt>
      <trkpt lat="48.59474" lon="1.98014">
        <ele>158</ele>
        <time>2020-05-31T12:02:07Z</time>
      </trkpt>
      <trkpt lat="48.59476" lon="1.98011">
        <ele>158</ele>
        <time>2020-05-31T12:02:09Z</time>
      </trkpt>
      <trkpt lat="48.59479" lon="1.98007">
        <ele>159</ele>
        <time>2020-05-31T12:02:11Z</time>
      </trkpt>
      <trkpt lat="48.59481" lon="1.98004">
        <ele>159</ele>
        <time>2020-05-31T12:02:13Z</time>
      </trkpt>
      <trkpt lat="48.59484" lon="1.98001">
        <ele>159</ele>
        <time>2020-05-31T12:02:15Z</time>
      </trkpt>
      <trkpt lat="48.59486" lon="1.97998">
        <ele>159</ele>
        <time>2020-05-31T12:02:17Z</time>
      </trkpt>
      <trkpt lat="48.59489" lon="1.97995">
        <ele>159</ele>
        <time>2020-05-31T12:02:19Z</time>
      </trkpt>
      <trkpt lat="48.59491" lon="1.97992">
        <ele>159</ele>
        <time>2020-05-31T12:02:21Z</time>
      </trkpt>
      <trkpt lat="48.59494" lon="1.9799">
        <ele>159</ele>
        <time>2020-05-31T12:02:23Z</time>
      </trkpt>
      <trkpt lat="48.59496" lon="1.97988">
        <ele>159</ele>
        <time>2020-05-31T12:02:25Z</time>
      </trkpt>
      <trkpt lat="48.59499" lon="1.97986">
        <ele>160</ele>
        <time>2020-05-31T12:02:27Z</time>
      </trkpt>
      <trkpt lat="48.59503" lon="1.97985">
        <ele>160</ele>
        <time>2020-05-31T12:02:29Z</time>
      </trkpt>
      <trkpt lat="48.59506" lon="1.97985">
        <ele>160</ele>
        <time>2020-05-31T12:02:31Z</time>
      </trkpt>
      <trkpt lat="48.59509" lon="1.97986">
        <ele>160</ele>
        <time>2020-05-31T12:02:33Z</time>
      </trkpt>
      <trkpt lat="48.59512" lon="1.97988">
        <ele>160</ele>
        <time>2020-05-31T12:02:35Z</time>
      </trkpt>
      <trkpt lat="48.59513" lon="1.97989">
        <ele>159</ele>
        <time>2020-05-31T12:02:36Z</time>
      </trkpt>
      <trkpt lat="48.59516" lon="1.97991">
        <ele>159</ele>
        <time>2020-05-31T12:02:37Z</time>
      </trkpt>
      <trkpt lat="48.59517" lon="1.97992">
        <ele>159</ele>
        <time>2020-05-31T12:02:38Z</time>
      </trkpt>
      <trkpt lat="48.5952" lon="1.97996">
        <ele>159</ele>
        <time>2020-05-31T12:02:40Z</time>
      </trkpt>
      <trkpt lat="48.59523" lon="1.97998">
        <ele>158</ele>
        <time>2020-05-31T12:02:44Z</time>
      </trkpt>
      <trkpt lat="48.59525" lon="1.98">
        <ele>158</ele>
        <time>2020-05-31T12:02:45Z</time>
      </trkpt>
      <trkpt lat="48.59527" lon="1.98002">
        <ele>157</ele>
        <time>2020-05-31T12:02:46Z</time>
      </trkpt>
      <trkpt lat="48.59529" lon="1.98004">
        <ele>157</ele>
        <time>2020-05-31T12:02:47Z</time>
      </trkpt>
      <trkpt lat="48.5953" lon="1.98006">
        <ele>157</ele>
        <time>2020-05-31T12:02:48Z</time>
      </trkpt>
      <trkpt lat="48.59531" lon="1.98008">
        <ele>157</ele>
        <time>2020-05-31T12:02:49Z</time>
      </trkpt>
      <trkpt lat="48.59531" lon="1.98013">
        <ele>156</ele>
        <time>2020-05-31T12:02:51Z</time>
      </trkpt>
      <trkpt lat="48.5953" lon="1.98018">
        <ele>156</ele>
        <time>2020-05-31T12:02:53Z</time>
      </trkpt>
      <trkpt lat="48.59529" lon="1.98021">
        <ele>156</ele>
        <time>2020-05-31T12:02:55Z</time>
      </trkpt>
      <trkpt lat="48.59528" lon="1.98025">
        <ele>156</ele>
        <time>2020-05-31T12:02:57Z</time>
      </trkpt>
      <trkpt lat="48.59528" lon="1.9803">
        <ele>156</ele>
        <time>2020-05-31T12:02:59Z</time>
      </trkpt>
      <trkpt lat="48.59528" lon="1.98034">
        <ele>157</ele>
        <time>2020-05-31T12:03:01Z</time>
      </trkpt>
      <trkpt lat="48.59528" lon="1.98039">
        <ele>157</ele>
        <time>2020-05-31T12:03:03Z</time>
      </trkpt>
      <trkpt lat="48.59528" lon="1.98043">
        <ele>158</ele>
        <time>2020-05-31T12:03:05Z</time>
      </trkpt>
      <trkpt lat="48.59529" lon="1.98048">
        <ele>158</ele>
        <time>2020-05-31T12:03:07Z</time>
      </trkpt>
      <trkpt lat="48.5953" lon="1.98051">
        <ele>158</ele>
        <time>2020-05-31T12:03:08Z</time>
      </trkpt>
      <trkpt lat="48.5953" lon="1.98054">
        <ele>158</ele>
        <time>2020-05-31T12:03:09Z</time>
      </trkpt>
      <trkpt lat="48.59531" lon="1.98057">
        <ele>158</ele>
        <time>2020-05-31T12:03:10Z</time>
      </trkpt>
      <trkpt lat="48.59531" lon="1.9806">
        <ele>158</ele>
        <time>2020-05-31T12:03:11Z</time>
      </trkpt>
      <trkpt lat="48.59532" lon="1.98063">
        <ele>159</ele>
        <time>2020-05-31T12:03:12Z</time>
      </trkpt>
      <trkpt lat="48.59532" lon="1.98068">
        <ele>159</ele>
        <time>2020-05-31T12:03:14Z</time>
      </trkpt>
      <trkpt lat="48.59533" lon="1.98073">
        <ele>159</ele>
        <time>2020-05-31T12:03:16Z</time>
      </trkpt>
      <trkpt lat="48.59534" lon="1.98077">
        <ele>159</ele>
        <time>2020-05-31T12:03:18Z</time>
      </trkpt>
      <trkpt lat="48.59534" lon="1.9808">
        <ele>159</ele>
        <time>2020-05-31T12:03:19Z</time>
      </trkpt>
      <trkpt lat="48.59535" lon="1.98085">
        <ele>159</ele>
        <time>2020-05-31T12:03:21Z</time>
      </trkpt>
      <trkpt lat="48.59536" lon="1.98089">
        <ele>159</ele>
        <time>2020-05-31T12:03:23Z</time>
      </trkpt>
      <trkpt lat="48.59538" lon="1.98093">
        <ele>159</ele>
        <time>2020-05-31T12:03:25Z</time>
      </trkpt>
      <trkpt lat="48.59539" lon="1.98097">
        <ele>159</ele>
        <time>2020-05-31T12:03:27Z</time>
      </trkpt>
      <trkpt lat="48.59541" lon="1.98102">
        <ele>159</ele>
        <time>2020-05-31T12:03:29Z</time>
      </trkpt>
      <trkpt lat="48.59543" lon="1.98106">
        <ele>159</ele>
        <time>2020-05-31T12:03:31Z</time>
      </trkpt>
      <trkpt lat="48.59545" lon="1.98109">
        <ele>158</ele>
        <time>2020-05-31T12:03:33Z</time>
      </trkpt>
      <trkpt lat="48.59546" lon="1.98113">
        <ele>158</ele>
        <time>2020-05-31T12:03:36Z</time>
      </trkpt>
      <trkpt lat="48.59547" lon="1.98116">
        <ele>158</ele>
        <time>2020-05-31T12:03:38Z</time>
      </trkpt>
      <trkpt lat="48.59549" lon="1.9812">
        <ele>158</ele>
        <time>2020-05-31T12:03:40Z</time>
      </trkpt>
      <trkpt lat="48.59551" lon="1.98125">
        <ele>158</ele>
        <time>2020-05-31T12:03:42Z</time>
      </trkpt>
      <trkpt lat="48.59551" lon="1.98128">
        <ele>158</ele>
        <time>2020-05-31T12:03:43Z</time>
      </trkpt>
      <trkpt lat="48.59552" lon="1.98131">
        <ele>158</ele>
        <time>2020-05-31T12:03:44Z</time>
      </trkpt>
      <trkpt lat="48.59553" lon="1.98133">
        <ele>157</ele>
        <time>2020-05-31T12:03:45Z</time>
      </trkpt>
      <trkpt lat="48.59554" lon="1.98136">
        <ele>157</ele>
        <time>2020-05-31T12:03:46Z</time>
      </trkpt>
      <trkpt lat="48.59555" lon="1.98139">
        <ele>157</ele>
        <time>2020-05-31T12:03:47Z</time>
      </trkpt>
      <trkpt lat="48.59556" lon="1.98142">
        <ele>158</ele>
        <time>2020-05-31T12:03:48Z</time>
      </trkpt>
      <trkpt lat="48.59557" lon="1.98145">
        <ele>157</ele>
        <time>2020-05-31T12:03:49Z</time>
      </trkpt>
      <trkpt lat="48.59558" lon="1.98148">
        <ele>157</ele>
        <time>2020-05-31T12:03:50Z</time>
      </trkpt>
      <trkpt lat="48.5956" lon="1.98152">
        <ele>157</ele>
        <time>2020-05-31T12:03:52Z</time>
      </trkpt>
      <trkpt lat="48.59562" lon="1.98155">
        <ele>157</ele>
        <time>2020-05-31T12:03:54Z</time>
      </trkpt>
      <trkpt lat="48.59563" lon="1.9816">
        <ele>157</ele>
        <time>2020-05-31T12:03:56Z</time>
      </trkpt>
      <trkpt lat="48.59565" lon="1.98162">
        <ele>157</ele>
        <time>2020-05-31T12:03:58Z</time>
      </trkpt>
      <trkpt lat="48.59567" lon="1.98166">
        <ele>157</ele>
        <time>2020-05-31T12:04:00Z</time>
      </trkpt>
      <trkpt lat="48.59568" lon="1.98168">
        <ele>157</ele>
        <time>2020-05-31T12:04:01Z</time>
      </trkpt>
      <trkpt lat="48.5957" lon="1.98172">
        <ele>157</ele>
        <time>2020-05-31T12:04:03Z</time>
      </trkpt>
      <trkpt lat="48.59572" lon="1.98177">
        <ele>157</ele>
        <time>2020-05-31T12:04:05Z</time>
      </trkpt>
      <trkpt lat="48.59574" lon="1.98181">
        <ele>157</ele>
        <time>2020-05-31T12:04:07Z</time>
      </trkpt>
      <trkpt lat="48.59575" lon="1.98184">
        <ele>157</ele>
        <time>2020-05-31T12:04:09Z</time>
      </trkpt>
      <trkpt lat="48.59577" lon="1.98186">
        <ele>157</ele>
        <time>2020-05-31T12:04:11Z</time>
      </trkpt>
      <trkpt lat="48.59579" lon="1.98189">
        <ele>157</ele>
        <time>2020-05-31T12:04:13Z</time>
      </trkpt>
      <trkpt lat="48.59581" lon="1.98193">
        <ele>156</ele>
        <time>2020-05-31T12:04:15Z</time>
      </trkpt>
      <trkpt lat="48.59582" lon="1.98195">
        <ele>156</ele>
        <time>2020-05-31T12:04:16Z</time>
      </trkpt>
      <trkpt lat="48.59585" lon="1.98199">
        <ele>156</ele>
        <time>2020-05-31T12:04:18Z</time>
      </trkpt>
      <trkpt lat="48.59587" lon="1.982">
        <ele>156</ele>
        <time>2020-05-31T12:04:19Z</time>
      </trkpt>
      <trkpt lat="48.5959" lon="1.98203">
        <ele>156</ele>
        <time>2020-05-31T12:04:21Z</time>
      </trkpt>
      <trkpt lat="48.59592" lon="1.98205">
        <ele>156</ele>
        <time>2020-05-31T12:04:23Z</time>
      </trkpt>
      <trkpt lat="48.59594" lon="1.98208">
        <ele>155</ele>
        <time>2020-05-31T12:04:25Z</time>
      </trkpt>
      <trkpt lat="48.59596" lon="1.98211">
        <ele>155</ele>
        <time>2020-05-31T12:04:27Z</time>
      </trkpt>
      <trkpt lat="48.59598" lon="1.98213">
        <ele>155</ele>
        <time>2020-05-31T12:04:29Z</time>
      </trkpt>
      <trkpt lat="48.59601" lon="1.98216">
        <ele>155</ele>
        <time>2020-05-31T12:04:31Z</time>
      </trkpt>
      <trkpt lat="48.59603" lon="1.98218">
        <ele>155</ele>
        <time>2020-05-31T12:04:33Z</time>
      </trkpt>
      <trkpt lat="48.59605" lon="1.98221">
        <ele>155</ele>
        <time>2020-05-31T12:04:35Z</time>
      </trkpt>
      <trkpt lat="48.59608" lon="1.98223">
        <ele>155</ele>
        <time>2020-05-31T12:04:37Z</time>
      </trkpt>
      <trkpt lat="48.59611" lon="1.98225">
        <ele>155</ele>
        <time>2020-05-31T12:04:39Z</time>
      </trkpt>
      <trkpt lat="48.59613" lon="1.98228">
        <ele>154</ele>
        <time>2020-05-31T12:04:41Z</time>
      </trkpt>
      <trkpt lat="48.59614" lon="1.9823">
        <ele>154</ele>
        <time>2020-05-31T12:04:42Z</time>
      </trkpt>
      <trkpt lat="48.59615" lon="1.98233">
        <ele>154</ele>
        <time>2020-05-31T12:04:43Z</time>
      </trkpt>
      <trkpt lat="48.59616" lon="1.98235">
        <ele>154</ele>
        <time>2020-05-31T12:04:44Z</time>
      </trkpt>
      <trkpt lat="48.59617" lon="1.98238">
        <ele>154</ele>
        <time>2020-05-31T12:04:45Z</time>
      </trkpt>
      <trkpt lat="48.59618" lon="1.9824">
        <ele>153</ele>
        <time>2020-05-31T12:04:46Z</time>
      </trkpt>
      <trkpt lat="48.5962" lon="1.98244">
        <ele>153</ele>
        <time>2020-05-31T12:04:48Z</time>
      </trkpt>
      <trkpt lat="48.59622" lon="1.98249">
        <ele>153</ele>
        <time>2020-05-31T12:04:50Z</time>
      </trkpt>
      <trkpt lat="48.59625" lon="1.98252">
        <ele>153</ele>
        <time>2020-05-31T12:04:52Z</time>
      </trkpt>
      <trkpt lat="48.59627" lon="1.98256">
        <ele>152</ele>
        <time>2020-05-31T12:04:54Z</time>
      </trkpt>
      <trkpt lat="48.5963" lon="1.9826">
        <ele>152</ele>
        <time>2020-05-31T12:04:56Z</time>
      </trkpt>
      <trkpt lat="48.59631" lon="1.98262">
        <ele>152</ele>
        <time>2020-05-31T12:04:57Z</time>
      </trkpt>
      <trkpt lat="48.59632" lon="1.98264">
        <ele>152</ele>
        <time>2020-05-31T12:04:58Z</time>
      </trkpt>
      <trkpt lat="48.59633" lon="1.98267">
        <ele>152</ele>
        <time>2020-05-31T12:04:59Z</time>
      </trkpt>
      <trkpt lat="48.59634" lon="1.98269">
        <ele>152</ele>
        <time>2020-05-31T12:05:00Z</time>
      </trkpt>
      <trkpt lat="48.59635" lon="1.98271">
        <ele>151</ele>
        <time>2020-05-31T12:05:01Z</time>
      </trkpt>
      <trkpt lat="48.59637" lon="1.98274">
        <ele>151</ele>
        <time>2020-05-31T12:05:02Z</time>
      </trkpt>
      <trkpt lat="48.59638" lon="1.98278">
        <ele>151</ele>
        <time>2020-05-31T12:05:04Z</time>
      </trkpt>
      <trkpt lat="48.5964" lon="1.98281">
        <ele>151</ele>
        <time>2020-05-31T12:05:06Z</time>
      </trkpt>
      <trkpt lat="48.59642" lon="1.98284">
        <ele>151</ele>
        <time>2020-05-31T12:05:08Z</time>
      </trkpt>
      <trkpt lat="48.59644" lon="1.98286">
        <ele>151</ele>
        <time>2020-05-31T12:05:10Z</time>
      </trkpt>
      <trkpt lat="48.59645" lon="1.98289">
        <ele>151</ele>
        <time>2020-05-31T12:05:11Z</time>
      </trkpt>
      <trkpt lat="48.59646" lon="1.98291">
        <ele>151</ele>
        <time>2020-05-31T12:05:12Z</time>
      </trkpt>
      <trkpt lat="48.59647" lon="1.98294">
        <ele>151</ele>
        <time>2020-05-31T12:05:13Z</time>
      </trkpt>
      <trkpt lat="48.59647" lon="1.98297">
        <ele>151</ele>
        <time>2020-05-31T12:05:14Z</time>
      </trkpt>
      <trkpt lat="48.59648" lon="1.983">
        <ele>150</ele>
        <time>2020-05-31T12:05:15Z</time>
      </trkpt>
      <trkpt lat="48.5965" lon="1.98305">
        <ele>150</ele>
        <time>2020-05-31T12:05:17Z</time>
      </trkpt>
      <trkpt lat="48.59651" lon="1.98309">
        <ele>150</ele>
        <time>2020-05-31T12:05:19Z</time>
      </trkpt>
      <trkpt lat="48.59652" lon="1.98313">
        <ele>150</ele>
        <time>2020-05-31T12:05:21Z</time>
      </trkpt>
      <trkpt lat="48.59653" lon="1.98318">
        <ele>150</ele>
        <time>2020-05-31T12:05:23Z</time>
      </trkpt>
      <trkpt lat="48.59654" lon="1.98323">
        <ele>150</ele>
        <time>2020-05-31T12:05:25Z</time>
      </trkpt>
      <trkpt lat="48.59656" lon="1.98327">
        <ele>150</ele>
        <time>2020-05-31T12:05:27Z</time>
      </trkpt>
      <trkpt lat="48.59657" lon="1.98332">
        <ele>150</ele>
        <time>2020-05-31T12:05:29Z</time>
      </trkpt>
      <trkpt lat="48.59659" lon="1.98335">
        <ele>150</ele>
        <time>2020-05-31T12:05:31Z</time>
      </trkpt>
      <trkpt lat="48.5966" lon="1.98338">
        <ele>150</ele>
        <time>2020-05-31T12:05:33Z</time>
      </trkpt>
      <trkpt lat="48.59662" lon="1.98342">
        <ele>150</ele>
        <time>2020-05-31T12:05:35Z</time>
      </trkpt>
      <trkpt lat="48.59664" lon="1.98344">
        <ele>150</ele>
        <time>2020-05-31T12:05:36Z</time>
      </trkpt>
      <trkpt lat="48.59665" lon="1.98346">
        <ele>150</ele>
        <time>2020-05-31T12:05:37Z</time>
      </trkpt>
      <trkpt lat="48.59667" lon="1.9835">
        <ele>149</ele>
        <time>2020-05-31T12:05:39Z</time>
      </trkpt>
      <trkpt lat="48.59669" lon="1.98352">
        <ele>149</ele>
        <time>2020-05-31T12:05:40Z</time>
      </trkpt>
      <trkpt lat="48.59671" lon="1.98355">
        <ele>149</ele>
        <time>2020-05-31T12:05:42Z</time>
      </trkpt>
      <trkpt lat="48.59673" lon="1.98359">
        <ele>150</ele>
        <time>2020-05-31T12:05:44Z</time>
      </trkpt>
      <trkpt lat="48.59675" lon="1.98362">
        <ele>150</ele>
        <time>2020-05-31T12:05:45Z</time>
      </trkpt>
      <trkpt lat="48.59677" lon="1.98366">
        <ele>150</ele>
        <time>2020-05-31T12:05:47Z</time>
      </trkpt>
      <trkpt lat="48.59678" lon="1.9837">
        <ele>150</ele>
        <time>2020-05-31T12:05:49Z</time>
      </trkpt>
      <trkpt lat="48.5968" lon="1.98374">
        <ele>149</ele>
        <time>2020-05-31T12:05:51Z</time>
      </trkpt>
      <trkpt lat="48.59681" lon="1.98377">
        <ele>149</ele>
        <time>2020-05-31T12:05:53Z</time>
      </trkpt>
      <trkpt lat="48.59683" lon="1.98382">
        <ele>149</ele>
        <time>2020-05-31T12:05:55Z</time>
      </trkpt>
      <trkpt lat="48.59684" lon="1.98385">
        <ele>149</ele>
        <time>2020-05-31T12:05:57Z</time>
      </trkpt>
      <trkpt lat="48.59685" lon="1.98389">
        <ele>149</ele>
        <time>2020-05-31T12:05:59Z</time>
      </trkpt>
      <trkpt lat="48.59687" lon="1.98392">
        <ele>149</ele>
        <time>2020-05-31T12:06:01Z</time>
      </trkpt>
      <trkpt lat="48.59688" lon="1.98396">
        <ele>149</ele>
        <time>2020-05-31T12:06:03Z</time>
      </trkpt>
      <trkpt lat="48.59689" lon="1.984">
        <ele>149</ele>
        <time>2020-05-31T12:06:05Z</time>
      </trkpt>
      <trkpt lat="48.5969" lon="1.98406">
        <ele>149</ele>
        <time>2020-05-31T12:06:07Z</time>
      </trkpt>
      <trkpt lat="48.59691" lon="1.98408">
        <ele>149</ele>
        <time>2020-05-31T12:06:08Z</time>
      </trkpt>
      <trkpt lat="48.59692" lon="1.98413">
        <ele>149</ele>
        <time>2020-05-31T12:06:10Z</time>
      </trkpt>
      <trkpt lat="48.59693" lon="1.98416">
        <ele>149</ele>
        <time>2020-05-31T12:06:11Z</time>
      </trkpt>
      <trkpt lat="48.59694" lon="1.98419">
        <ele>150</ele>
        <time>2020-05-31T12:06:12Z</time>
      </trkpt>
      <trkpt lat="48.59695" lon="1.98423">
        <ele>150</ele>
        <time>2020-05-31T12:06:14Z</time>
      </trkpt>
      <trkpt lat="48.59696" lon="1.98428">
        <ele>150</ele>
        <time>2020-05-31T12:06:16Z</time>
      </trkpt>
      <trkpt lat="48.59696" lon="1.98433">
        <ele>150</ele>
        <time>2020-05-31T12:06:18Z</time>
      </trkpt>
      <trkpt lat="48.59696" lon="1.98438">
        <ele>150</ele>
        <time>2020-05-31T12:06:20Z</time>
      </trkpt>
      <trkpt lat="48.59697" lon="1.98442">
        <ele>150</ele>
        <time>2020-05-31T12:06:22Z</time>
      </trkpt>
      <trkpt lat="48.59697" lon="1.98447">
        <ele>150</ele>
        <time>2020-05-31T12:06:24Z</time>
      </trkpt>
      <trkpt lat="48.59697" lon="1.98452">
        <ele>150</ele>
        <time>2020-05-31T12:06:26Z</time>
      </trkpt>
      <trkpt lat="48.59698" lon="1.98456">
        <ele>151</ele>
        <time>2020-05-31T12:06:28Z</time>
      </trkpt>
      <trkpt lat="48.59698" lon="1.98461">
        <ele>151</ele>
        <time>2020-05-31T12:06:30Z</time>
      </trkpt>
      <trkpt lat="48.59698" lon="1.98466">
        <ele>151</ele>
        <time>2020-05-31T12:06:32Z</time>
      </trkpt>
      <trkpt lat="48.59698" lon="1.98471">
        <ele>151</ele>
        <time>2020-05-31T12:06:34Z</time>
      </trkpt>
      <trkpt lat="48.59698" lon="1.98475">
        <ele>151</ele>
        <time>2020-05-31T12:06:36Z</time>
      </trkpt>
      <trkpt lat="48.59699" lon="1.9848">
        <ele>151</ele>
        <time>2020-05-31T12:06:38Z</time>
      </trkpt>
      <trkpt lat="48.59699" lon="1.98485">
        <ele>152</ele>
        <time>2020-05-31T12:06:40Z</time>
      </trkpt>
      <trkpt lat="48.59699" lon="1.98488">
        <ele>152</ele>
        <time>2020-05-31T12:06:41Z</time>
      </trkpt>
      <trkpt lat="48.59699" lon="1.98493">
        <ele>152</ele>
        <time>2020-05-31T12:06:43Z</time>
      </trkpt>
      <trkpt lat="48.597" lon="1.98496">
        <ele>152</ele>
        <time>2020-05-31T12:06:44Z</time>
      </trkpt>
      <trkpt lat="48.597" lon="1.98501">
        <ele>153</ele>
        <time>2020-05-31T12:06:46Z</time>
      </trkpt>
      <trkpt lat="48.597" lon="1.98504">
        <ele>153</ele>
        <time>2020-05-31T12:06:47Z</time>
      </trkpt>
      <trkpt lat="48.59701" lon="1.98508">
        <ele>153</ele>
        <time>2020-05-31T12:06:49Z</time>
      </trkpt>
      <trkpt lat="48.59702" lon="1.98513">
        <ele>153</ele>
        <time>2020-05-31T12:06:51Z</time>
      </trkpt>
      <trkpt lat="48.59703" lon="1.98517">
        <ele>152</ele>
        <time>2020-05-31T12:06:53Z</time>
      </trkpt>
      <trkpt lat="48.59703" lon="1.9852">
        <ele>152</ele>
        <time>2020-05-31T12:06:55Z</time>
      </trkpt>
      <trkpt lat="48.59704" lon="1.98524">
        <ele>153</ele>
        <time>2020-05-31T12:06:57Z</time>
      </trkpt>
      <trkpt lat="48.59704" lon="1.98529">
        <ele>153</ele>
        <time>2020-05-31T12:06:59Z</time>
      </trkpt>
      <trkpt lat="48.59704" lon="1.98533">
        <ele>153</ele>
        <time>2020-05-31T12:07:01Z</time>
      </trkpt>
      <trkpt lat="48.59703" lon="1.98538">
        <ele>152</ele>
        <time>2020-05-31T12:07:03Z</time>
      </trkpt>
      <trkpt lat="48.59703" lon="1.98542">
        <ele>152</ele>
        <time>2020-05-31T12:07:05Z</time>
      </trkpt>
      <trkpt lat="48.59703" lon="1.98547">
        <ele>152</ele>
        <time>2020-05-31T12:07:07Z</time>
      </trkpt>
      <trkpt lat="48.59703" lon="1.98552">
        <ele>152</ele>
        <time>2020-05-31T12:07:09Z</time>
      </trkpt>
      <trkpt lat="48.59703" lon="1.98555">
        <ele>152</ele>
        <time>2020-05-31T12:07:10Z</time>
      </trkpt>
      <trkpt lat="48.59704" lon="1.98559">
        <ele>152</ele>
        <time>2020-05-31T12:07:12Z</time>
      </trkpt>
      <trkpt lat="48.59704" lon="1.98564">
        <ele>153</ele>
        <time>2020-05-31T12:07:14Z</time>
      </trkpt>
      <trkpt lat="48.59703" lon="1.98569">
        <ele>152</ele>
        <time>2020-05-31T12:07:16Z</time>
      </trkpt>
      <trkpt lat="48.59703" lon="1.98572">
        <ele>152</ele>
        <time>2020-05-31T12:07:18Z</time>
      </trkpt>
      <trkpt lat="48.59704" lon="1.98576">
        <ele>152</ele>
        <time>2020-05-31T12:07:20Z</time>
      </trkpt>
      <trkpt lat="48.59705" lon="1.98579">
        <ele>152</ele>
        <time>2020-05-31T12:07:22Z</time>
      </trkpt>
      <trkpt lat="48.59706" lon="1.98583">
        <ele>152</ele>
        <time>2020-05-31T12:07:24Z</time>
      </trkpt>
      <trkpt lat="48.59706" lon="1.98587">
        <ele>152</ele>
        <time>2020-05-31T12:07:26Z</time>
      </trkpt>
      <trkpt lat="48.59706" lon="1.98592">
        <ele>152</ele>
        <time>2020-05-31T12:07:28Z</time>
      </trkpt>
      <trkpt lat="48.59706" lon="1.98596">
        <ele>152</ele>
        <time>2020-05-31T12:07:30Z</time>
      </trkpt>
      <trkpt lat="48.59707" lon="1.986">
        <ele>152</ele>
        <time>2020-05-31T12:07:32Z</time>
      </trkpt>
      <trkpt lat="48.59708" lon="1.98605">
        <ele>151</ele>
        <time>2020-05-31T12:07:34Z</time>
      </trkpt>
      <trkpt lat="48.59708" lon="1.9861">
        <ele>151</ele>
        <time>2020-05-31T12:07:36Z</time>
      </trkpt>
      <trkpt lat="48.59708" lon="1.98614">
        <ele>151</ele>
        <time>2020-05-31T12:07:38Z</time>
      </trkpt>
      <trkpt lat="48.59706" lon="1.98615">
        <ele>150</ele>
        <time>2020-05-31T12:07:40Z</time>
      </trkpt>
      <trkpt lat="48.59704" lon="1.98617">
        <ele>150</ele>
        <time>2020-05-31T12:07:43Z</time>
      </trkpt>
      <trkpt lat="48.59702" lon="1.98619">
        <ele>149</ele>
        <time>2020-05-31T12:07:45Z</time>
      </trkpt>
      <trkpt lat="48.597" lon="1.98622">
        <ele>149</ele>
        <time>2020-05-31T12:07:47Z</time>
      </trkpt>
      <trkpt lat="48.59698" lon="1.98625">
        <ele>148</ele>
        <time>2020-05-31T12:07:49Z</time>
      </trkpt>
      <trkpt lat="48.59697" lon="1.98629">
        <ele>148</ele>
        <time>2020-05-31T12:07:51Z</time>
      </trkpt>
      <trkpt lat="48.59693" lon="1.98637">
        <ele>147</ele>
        <time>2020-05-31T12:07:55Z</time>
      </trkpt>
      <trkpt lat="48.59691" lon="1.98641">
        <ele>147</ele>
        <time>2020-05-31T12:07:57Z</time>
      </trkpt>
      <trkpt lat="48.5969" lon="1.98643">
        <ele>147</ele>
        <time>2020-05-31T12:07:58Z</time>
      </trkpt>
      <trkpt lat="48.59691" lon="1.98652">
        <ele>146</ele>
        <time>2020-05-31T12:08:01Z</time>
      </trkpt>
      <trkpt lat="48.59691" lon="1.98658">
        <ele>146</ele>
        <time>2020-05-31T12:08:02Z</time>
      </trkpt>
      <trkpt lat="48.5969" lon="1.98663">
        <ele>145</ele>
        <time>2020-05-31T12:08:03Z</time>
      </trkpt>
      <trkpt lat="48.5969" lon="1.98666">
        <ele>145</ele>
        <time>2020-05-31T12:08:04Z</time>
      </trkpt>
      <trkpt lat="48.59688" lon="1.98675">
        <ele>143</ele>
        <time>2020-05-31T12:08:07Z</time>
      </trkpt>
      <trkpt lat="48.59686" lon="1.9869">
        <ele>140</ele>
        <time>2020-05-31T12:08:12Z</time>
      </trkpt>
      <trkpt lat="48.59684" lon="1.98691">
        <ele>139</ele>
        <time>2020-05-31T12:08:13Z</time>
      </trkpt>
      <trkpt lat="48.59681" lon="1.98694">
        <ele>138</ele>
        <time>2020-05-31T12:08:15Z</time>
      </trkpt>
      <trkpt lat="48.59679" lon="1.98693">
        <ele>137</ele>
        <time>2020-05-31T12:08:22Z</time>
      </trkpt>
      <trkpt lat="48.59677" lon="1.98694">
        <ele>136</ele>
        <time>2020-05-31T12:08:28Z</time>
      </trkpt>
      <trkpt lat="48.59676" lon="1.98696">
        <ele>135</ele>
        <time>2020-05-31T12:08:32Z</time>
      </trkpt>
      <trkpt lat="48.59674" lon="1.98699">
        <ele>135</ele>
        <time>2020-05-31T12:08:34Z</time>
      </trkpt>
      <trkpt lat="48.59672" lon="1.987">
        <ele>135</ele>
        <time>2020-05-31T12:08:36Z</time>
      </trkpt>
      <trkpt lat="48.59671" lon="1.98702">
        <ele>135</ele>
        <time>2020-05-31T12:08:38Z</time>
      </trkpt>
      <trkpt lat="48.59669" lon="1.98702">
        <ele>135</ele>
        <time>2020-05-31T12:08:39Z</time>
      </trkpt>
      <trkpt lat="48.59666" lon="1.98703">
        <ele>135</ele>
        <time>2020-05-31T12:08:41Z</time>
      </trkpt>
      <trkpt lat="48.59663" lon="1.98704">
        <ele>134</ele>
        <time>2020-05-31T12:08:43Z</time>
      </trkpt>
      <trkpt lat="48.59659" lon="1.98703">
        <ele>133</ele>
        <time>2020-05-31T12:08:45Z</time>
      </trkpt>
      <trkpt lat="48.59657" lon="1.98702">
        <ele>133</ele>
        <time>2020-05-31T12:08:46Z</time>
      </trkpt>
      <trkpt lat="48.59653" lon="1.98701">
        <ele>133</ele>
        <time>2020-05-31T12:08:48Z</time>
      </trkpt>
      <trkpt lat="48.59651" lon="1.98701">
        <ele>133</ele>
        <time>2020-05-31T12:08:49Z</time>
      </trkpt>
      <trkpt lat="48.59648" lon="1.98699">
        <ele>132</ele>
        <time>2020-05-31T12:08:51Z</time>
      </trkpt>
      <trkpt lat="48.59646" lon="1.98699">
        <ele>132</ele>
        <time>2020-05-31T12:08:52Z</time>
      </trkpt>
      <trkpt lat="48.59644" lon="1.98698">
        <ele>132</ele>
        <time>2020-05-31T12:08:53Z</time>
      </trkpt>
      <trkpt lat="48.59642" lon="1.98697">
        <ele>132</ele>
        <time>2020-05-31T12:08:54Z</time>
      </trkpt>
      <trkpt lat="48.59639" lon="1.98695">
        <ele>132</ele>
        <time>2020-05-31T12:08:56Z</time>
      </trkpt>
      <trkpt lat="48.59637" lon="1.98694">
        <ele>132</ele>
        <time>2020-05-31T12:08:58Z</time>
      </trkpt>
      <trkpt lat="48.59634" lon="1.98694">
        <ele>132</ele>
        <time>2020-05-31T12:09:00Z</time>
      </trkpt>
      <trkpt lat="48.59632" lon="1.98695">
        <ele>132</ele>
        <time>2020-05-31T12:09:02Z</time>
      </trkpt>
      <trkpt lat="48.5963" lon="1.98698">
        <ele>132</ele>
        <time>2020-05-31T12:09:04Z</time>
      </trkpt>
      <trkpt lat="48.59628" lon="1.98701">
        <ele>132</ele>
        <time>2020-05-31T12:09:06Z</time>
      </trkpt>
      <trkpt lat="48.59627" lon="1.98704">
        <ele>132</ele>
        <time>2020-05-31T12:09:08Z</time>
      </trkpt>
      <trkpt lat="48.59625" lon="1.98706">
        <ele>132</ele>
        <time>2020-05-31T12:09:10Z</time>
      </trkpt>
      <trkpt lat="48.59624" lon="1.98708">
        <ele>132</ele>
        <time>2020-05-31T12:09:12Z</time>
      </trkpt>
      <trkpt lat="48.59622" lon="1.98711">
        <ele>132</ele>
        <time>2020-05-31T12:09:14Z</time>
      </trkpt>
      <trkpt lat="48.5962" lon="1.98715">
        <ele>132</ele>
        <time>2020-05-31T12:09:16Z</time>
      </trkpt>
      <trkpt lat="48.59618" lon="1.9872">
        <ele>132</ele>
        <time>2020-05-31T12:09:18Z</time>
      </trkpt>
      <trkpt lat="48.59618" lon="1.98722">
        <ele>132</ele>
        <time>2020-05-31T12:09:19Z</time>
      </trkpt>
      <trkpt lat="48.59615" lon="1.98725">
        <ele>131</ele>
        <time>2020-05-31T12:09:21Z</time>
      </trkpt>
      <trkpt lat="48.59614" lon="1.98728">
        <ele>131</ele>
        <time>2020-05-31T12:09:23Z</time>
      </trkpt>
      <trkpt lat="48.59612" lon="1.98731">
        <ele>131</ele>
        <time>2020-05-31T12:09:25Z</time>
      </trkpt>
      <trkpt lat="48.5961" lon="1.98736">
        <ele>131</ele>
        <time>2020-05-31T12:09:27Z</time>
      </trkpt>
      <trkpt lat="48.59608" lon="1.98738">
        <ele>131</ele>
        <time>2020-05-31T12:09:28Z</time>
      </trkpt>
      <trkpt lat="48.59607" lon="1.98739">
        <ele>131</ele>
        <time>2020-05-31T12:09:29Z</time>
      </trkpt>
      <trkpt lat="48.59603" lon="1.98741">
        <ele>130</ele>
        <time>2020-05-31T12:09:31Z</time>
      </trkpt>
      <trkpt lat="48.596" lon="1.98744">
        <ele>130</ele>
        <time>2020-05-31T12:09:33Z</time>
      </trkpt>
      <trkpt lat="48.59598" lon="1.98747">
        <ele>130</ele>
        <time>2020-05-31T12:09:35Z</time>
      </trkpt>
      <trkpt lat="48.59595" lon="1.9875">
        <ele>130</ele>
        <time>2020-05-31T12:09:37Z</time>
      </trkpt>
      <trkpt lat="48.59594" lon="1.98754">
        <ele>130</ele>
        <time>2020-05-31T12:09:39Z</time>
      </trkpt>
      <trkpt lat="48.59593" lon="1.98756">
        <ele>130</ele>
        <time>2020-05-31T12:09:40Z</time>
      </trkpt>
      <trkpt lat="48.59591" lon="1.9876">
        <ele>130</ele>
        <time>2020-05-31T12:09:42Z</time>
      </trkpt>
      <trkpt lat="48.59589" lon="1.98762">
        <ele>130</ele>
        <time>2020-05-31T12:09:43Z</time>
      </trkpt>
      <trkpt lat="48.59588" lon="1.98764">
        <ele>130</ele>
        <time>2020-05-31T12:09:44Z</time>
      </trkpt>
      <trkpt lat="48.59586" lon="1.98766">
        <ele>130</ele>
        <time>2020-05-31T12:09:45Z</time>
      </trkpt>
      <trkpt lat="48.59583" lon="1.98769">
        <ele>130</ele>
        <time>2020-05-31T12:09:47Z</time>
      </trkpt>
      <trkpt lat="48.59581" lon="1.98771">
        <ele>130</ele>
        <time>2020-05-31T12:09:49Z</time>
      </trkpt>
      <trkpt lat="48.59577" lon="1.98773">
        <ele>129</ele>
        <time>2020-05-31T12:09:51Z</time>
      </trkpt>
      <trkpt lat="48.59574" lon="1.98774">
        <ele>129</ele>
        <time>2020-05-31T12:09:53Z</time>
      </trkpt>
      <trkpt lat="48.59571" lon="1.98775">
        <ele>129</ele>
        <time>2020-05-31T12:09:55Z</time>
      </trkpt>
      <trkpt lat="48.59568" lon="1.98776">
        <ele>129</ele>
        <time>2020-05-31T12:09:57Z</time>
      </trkpt>
      <trkpt lat="48.59565" lon="1.98778">
        <ele>128</ele>
        <time>2020-05-31T12:09:59Z</time>
      </trkpt>
      <trkpt lat="48.59562" lon="1.98781">
        <ele>128</ele>
        <time>2020-05-31T12:10:01Z</time>
      </trkpt>
      <trkpt lat="48.5956" lon="1.98783">
        <ele>128</ele>
        <time>2020-05-31T12:10:02Z</time>
      </trkpt>
      <trkpt lat="48.59558" lon="1.98787">
        <ele>129</ele>
        <time>2020-05-31T12:10:04Z</time>
      </trkpt>
      <trkpt lat="48.59556" lon="1.98791">
        <ele>129</ele>
        <time>2020-05-31T12:10:06Z</time>
      </trkpt>
      <trkpt lat="48.59555" lon="1.98793">
        <ele>129</ele>
        <time>2020-05-31T12:10:08Z</time>
      </trkpt>
      <trkpt lat="48.59554" lon="1.98796">
        <ele>129</ele>
        <time>2020-05-31T12:10:14Z</time>
      </trkpt>
      <trkpt lat="48.59554" lon="1.988">
        <ele>128</ele>
        <time>2020-05-31T12:10:16Z</time>
      </trkpt>
      <trkpt lat="48.59553" lon="1.98802">
        <ele>128</ele>
        <time>2020-05-31T12:10:18Z</time>
      </trkpt>
      <trkpt lat="48.59551" lon="1.98805">
        <ele>128</ele>
        <time>2020-05-31T12:10:20Z</time>
      </trkpt>
      <trkpt lat="48.59548" lon="1.98807">
        <ele>127</ele>
        <time>2020-05-31T12:10:22Z</time>
      </trkpt>
      <trkpt lat="48.59547" lon="1.98807">
        <ele>126</ele>
        <time>2020-05-31T12:10:23Z</time>
      </trkpt>
      <trkpt lat="48.59545" lon="1.98807">
        <ele>126</ele>
        <time>2020-05-31T12:10:24Z</time>
      </trkpt>
      <trkpt lat="48.59543" lon="1.98806">
        <ele>126</ele>
        <time>2020-05-31T12:10:25Z</time>
      </trkpt>
      <trkpt lat="48.5954" lon="1.98806">
        <ele>126</ele>
        <time>2020-05-31T12:10:26Z</time>
      </trkpt>
      <trkpt lat="48.59538" lon="1.98805">
        <ele>126</ele>
        <time>2020-05-31T12:10:27Z</time>
      </trkpt>
      <trkpt lat="48.59536" lon="1.98805">
        <ele>126</ele>
        <time>2020-05-31T12:10:28Z</time>
      </trkpt>
      <trkpt lat="48.59534" lon="1.98805">
        <ele>126</ele>
        <time>2020-05-31T12:10:29Z</time>
      </trkpt>
      <trkpt lat="48.59531" lon="1.98804">
        <ele>126</ele>
        <time>2020-05-31T12:10:31Z</time>
      </trkpt>
      <trkpt lat="48.59527" lon="1.98805">
        <ele>126</ele>
        <time>2020-05-31T12:10:33Z</time>
      </trkpt>
      <trkpt lat="48.59524" lon="1.98805">
        <ele>126</ele>
        <time>2020-05-31T12:10:35Z</time>
      </trkpt>
      <trkpt lat="48.59522" lon="1.98805">
        <ele>126</ele>
        <time>2020-05-31T12:10:36Z</time>
      </trkpt>
      <trkpt lat="48.5952" lon="1.98806">
        <ele>125</ele>
        <time>2020-05-31T12:10:37Z</time>
      </trkpt>
      <trkpt lat="48.59518" lon="1.98806">
        <ele>125</ele>
        <time>2020-05-31T12:10:38Z</time>
      </trkpt>
      <trkpt lat="48.59517" lon="1.98807">
        <ele>125</ele>
        <time>2020-05-31T12:10:39Z</time>
      </trkpt>
      <trkpt lat="48.59515" lon="1.98808">
        <ele>125</ele>
        <time>2020-05-31T12:10:40Z</time>
      </trkpt>
      <trkpt lat="48.59513" lon="1.98808">
        <ele>125</ele>
        <time>2020-05-31T12:10:41Z</time>
      </trkpt>
      <trkpt lat="48.59511" lon="1.98809">
        <ele>125</ele>
        <time>2020-05-31T12:10:42Z</time>
      </trkpt>
      <trkpt lat="48.59509" lon="1.98809">
        <ele>125</ele>
        <time>2020-05-31T12:10:43Z</time>
      </trkpt>
      <trkpt lat="48.59506" lon="1.98809">
        <ele>125</ele>
        <time>2020-05-31T12:10:45Z</time>
      </trkpt>
      <trkpt lat="48.59503" lon="1.9881">
        <ele>125</ele>
        <time>2020-05-31T12:10:47Z</time>
      </trkpt>
      <trkpt lat="48.595" lon="1.9881">
        <ele>124</ele>
        <time>2020-05-31T12:10:49Z</time>
      </trkpt>
      <trkpt lat="48.59496" lon="1.9881">
        <ele>124</ele>
        <time>2020-05-31T12:10:51Z</time>
      </trkpt>
      <trkpt lat="48.59493" lon="1.9881">
        <ele>124</ele>
        <time>2020-05-31T12:10:53Z</time>
      </trkpt>
      <trkpt lat="48.59491" lon="1.98809">
        <ele>124</ele>
        <time>2020-05-31T12:10:54Z</time>
      </trkpt>
      <trkpt lat="48.59488" lon="1.98809">
        <ele>124</ele>
        <time>2020-05-31T12:10:56Z</time>
      </trkpt>
      <trkpt lat="48.59486" lon="1.98809">
        <ele>124</ele>
        <time>2020-05-31T12:10:57Z</time>
      </trkpt>
      <trkpt lat="48.59482" lon="1.98809">
        <ele>123</ele>
        <time>2020-05-31T12:10:59Z</time>
      </trkpt>
      <trkpt lat="48.59479" lon="1.9881">
        <ele>123</ele>
        <time>2020-05-31T12:11:01Z</time>
      </trkpt>
      <trkpt lat="48.59476" lon="1.9881">
        <ele>123</ele>
        <time>2020-05-31T12:11:03Z</time>
      </trkpt>
      <trkpt lat="48.59473" lon="1.9881">
        <ele>123</ele>
        <time>2020-05-31T12:11:05Z</time>
      </trkpt>
      <trkpt lat="48.5947" lon="1.9881">
        <ele>123</ele>
        <time>2020-05-31T12:11:07Z</time>
      </trkpt>
      <trkpt lat="48.59467" lon="1.9881">
        <ele>123</ele>
        <time>2020-05-31T12:11:09Z</time>
      </trkpt>
      <trkpt lat="48.59463" lon="1.98811">
        <ele>122</ele>
        <time>2020-05-31T12:11:11Z</time>
      </trkpt>
      <trkpt lat="48.5946" lon="1.98811">
        <ele>122</ele>
        <time>2020-05-31T12:11:13Z</time>
      </trkpt>
      <trkpt lat="48.59458" lon="1.98812">
        <ele>122</ele>
        <time>2020-05-31T12:11:14Z</time>
      </trkpt>
      <trkpt lat="48.59454" lon="1.98812">
        <ele>122</ele>
        <time>2020-05-31T12:11:16Z</time>
      </trkpt>
      <trkpt lat="48.59451" lon="1.98812">
        <ele>122</ele>
        <time>2020-05-31T12:11:18Z</time>
      </trkpt>
      <trkpt lat="48.59448" lon="1.98812">
        <ele>122</ele>
        <time>2020-05-31T12:11:20Z</time>
      </trkpt>
      <trkpt lat="48.59445" lon="1.98812">
        <ele>122</ele>
        <time>2020-05-31T12:11:22Z</time>
      </trkpt>
      <trkpt lat="48.59443" lon="1.98812">
        <ele>122</ele>
        <time>2020-05-31T12:11:23Z</time>
      </trkpt>
      <trkpt lat="48.59441" lon="1.98812">
        <ele>121</ele>
        <time>2020-05-31T12:11:24Z</time>
      </trkpt>
      <trkpt lat="48.59439" lon="1.98813">
        <ele>121</ele>
        <time>2020-05-31T12:11:25Z</time>
      </trkpt>
      <trkpt lat="48.59436" lon="1.98814">
        <ele>122</ele>
        <time>2020-05-31T12:11:27Z</time>
      </trkpt>
      <trkpt lat="48.59432" lon="1.98814">
        <ele>122</ele>
        <time>2020-05-31T12:11:29Z</time>
      </trkpt>
      <trkpt lat="48.59429" lon="1.98816">
        <ele>121</ele>
        <time>2020-05-31T12:11:31Z</time>
      </trkpt>
      <trkpt lat="48.59427" lon="1.98816">
        <ele>121</ele>
        <time>2020-05-31T12:11:32Z</time>
      </trkpt>
      <trkpt lat="48.59425" lon="1.98816">
        <ele>121</ele>
        <time>2020-05-31T12:11:33Z</time>
      </trkpt>
      <trkpt lat="48.59423" lon="1.98817">
        <ele>121</ele>
        <time>2020-05-31T12:11:34Z</time>
      </trkpt>
      <trkpt lat="48.59421" lon="1.98817">
        <ele>121</ele>
        <time>2020-05-31T12:11:35Z</time>
      </trkpt>
      <trkpt lat="48.59419" lon="1.98817">
        <ele>121</ele>
        <time>2020-05-31T12:11:36Z</time>
      </trkpt>
      <trkpt lat="48.59418" lon="1.98818">
        <ele>121</ele>
        <time>2020-05-31T12:11:37Z</time>
      </trkpt>
      <trkpt lat="48.59414" lon="1.98818">
        <ele>120</ele>
        <time>2020-05-31T12:11:39Z</time>
      </trkpt>
      <trkpt lat="48.59411" lon="1.98818">
        <ele>120</ele>
        <time>2020-05-31T12:11:41Z</time>
      </trkpt>
      <trkpt lat="48.59409" lon="1.98818">
        <ele>120</ele>
        <time>2020-05-31T12:11:43Z</time>
      </trkpt>
      <trkpt lat="48.59406" lon="1.98819">
        <ele>120</ele>
        <time>2020-05-31T12:11:45Z</time>
      </trkpt>
      <trkpt lat="48.59403" lon="1.9882">
        <ele>120</ele>
        <time>2020-05-31T12:11:47Z</time>
      </trkpt>
      <trkpt lat="48.594" lon="1.98821">
        <ele>119</ele>
        <time>2020-05-31T12:11:49Z</time>
      </trkpt>
      <trkpt lat="48.59397" lon="1.98822">
        <ele>119</ele>
        <time>2020-05-31T12:11:51Z</time>
      </trkpt>
      <trkpt lat="48.59394" lon="1.98823">
        <ele>120</ele>
        <time>2020-05-31T12:11:53Z</time>
      </trkpt>
      <trkpt lat="48.59391" lon="1.98823">
        <ele>120</ele>
        <time>2020-05-31T12:11:55Z</time>
      </trkpt>
      <trkpt lat="48.59388" lon="1.98824">
        <ele>120</ele>
        <time>2020-05-31T12:11:57Z</time>
      </trkpt>
      <trkpt lat="48.59385" lon="1.98825">
        <ele>120</ele>
        <time>2020-05-31T12:11:59Z</time>
      </trkpt>
      <trkpt lat="48.59382" lon="1.98826">
        <ele>119</ele>
        <time>2020-05-31T12:12:01Z</time>
      </trkpt>
      <trkpt lat="48.5938" lon="1.98827">
        <ele>119</ele>
        <time>2020-05-31T12:12:02Z</time>
      </trkpt>
      <trkpt lat="48.59378" lon="1.98828">
        <ele>119</ele>
        <time>2020-05-31T12:12:03Z</time>
      </trkpt>
      <trkpt lat="48.59376" lon="1.9883">
        <ele>119</ele>
        <time>2020-05-31T12:12:05Z</time>
      </trkpt>
      <trkpt lat="48.59372" lon="1.98831">
        <ele>120</ele>
        <time>2020-05-31T12:12:07Z</time>
      </trkpt>
      <trkpt lat="48.59369" lon="1.98833">
        <ele>119</ele>
        <time>2020-05-31T12:12:09Z</time>
      </trkpt>
      <trkpt lat="48.59365" lon="1.98834">
        <ele>119</ele>
        <time>2020-05-31T12:12:11Z</time>
      </trkpt>
      <trkpt lat="48.59363" lon="1.98835">
        <ele>119</ele>
        <time>2020-05-31T12:12:13Z</time>
      </trkpt>
      <trkpt lat="48.5936" lon="1.98835">
        <ele>119</ele>
        <time>2020-05-31T12:12:15Z</time>
      </trkpt>
      <trkpt lat="48.59358" lon="1.98836">
        <ele>119</ele>
        <time>2020-05-31T12:12:18Z</time>
      </trkpt>
      <trkpt lat="48.59356" lon="1.98838">
        <ele>118</ele>
        <time>2020-05-31T12:12:32Z</time>
      </trkpt>
      <trkpt lat="48.59353" lon="1.98838">
        <ele>118</ele>
        <time>2020-05-31T12:12:34Z</time>
      </trkpt>
      <trkpt lat="48.5935" lon="1.98839">
        <ele>118</ele>
        <time>2020-05-31T12:12:36Z</time>
      </trkpt>
      <trkpt lat="48.59348" lon="1.9884">
        <ele>118</ele>
        <time>2020-05-31T12:12:38Z</time>
      </trkpt>
      <trkpt lat="48.59345" lon="1.98841">
        <ele>118</ele>
        <time>2020-05-31T12:12:40Z</time>
      </trkpt>
      <trkpt lat="48.59342" lon="1.98841">
        <ele>117</ele>
        <time>2020-05-31T12:12:42Z</time>
      </trkpt>
      <trkpt lat="48.5934" lon="1.98841">
        <ele>118</ele>
        <time>2020-05-31T12:12:43Z</time>
      </trkpt>
      <trkpt lat="48.59336" lon="1.98842">
        <ele>118</ele>
        <time>2020-05-31T12:12:45Z</time>
      </trkpt>
      <trkpt lat="48.59335" lon="1.98842">
        <ele>117</ele>
        <time>2020-05-31T12:12:46Z</time>
      </trkpt>
      <trkpt lat="48.59333" lon="1.98843">
        <ele>117</ele>
        <time>2020-05-31T12:12:47Z</time>
      </trkpt>
      <trkpt lat="48.5933" lon="1.98844">
        <ele>118</ele>
        <time>2020-05-31T12:12:49Z</time>
      </trkpt>
      <trkpt lat="48.59326" lon="1.98846">
        <ele>118</ele>
        <time>2020-05-31T12:12:51Z</time>
      </trkpt>
      <trkpt lat="48.59324" lon="1.98848">
        <ele>118</ele>
        <time>2020-05-31T12:12:53Z</time>
      </trkpt>
      <trkpt lat="48.5932" lon="1.98849">
        <ele>118</ele>
        <time>2020-05-31T12:12:55Z</time>
      </trkpt>
      <trkpt lat="48.59317" lon="1.9885">
        <ele>117</ele>
        <time>2020-05-31T12:12:57Z</time>
      </trkpt>
      <trkpt lat="48.59314" lon="1.98851">
        <ele>118</ele>
        <time>2020-05-31T12:12:59Z</time>
      </trkpt>
      <trkpt lat="48.59311" lon="1.98853">
        <ele>118</ele>
        <time>2020-05-31T12:13:01Z</time>
      </trkpt>
      <trkpt lat="48.59308" lon="1.98855">
        <ele>118</ele>
        <time>2020-05-31T12:13:03Z</time>
      </trkpt>
      <trkpt lat="48.59305" lon="1.98856">
        <ele>118</ele>
        <time>2020-05-31T12:13:05Z</time>
      </trkpt>
      <trkpt lat="48.59301" lon="1.98858">
        <ele>118</ele>
        <time>2020-05-31T12:13:07Z</time>
      </trkpt>
      <trkpt lat="48.59298" lon="1.98859">
        <ele>118</ele>
        <time>2020-05-31T12:13:09Z</time>
      </trkpt>
      <trkpt lat="48.59295" lon="1.98859">
        <ele>117</ele>
        <time>2020-05-31T12:13:11Z</time>
      </trkpt>
      <trkpt lat="48.59292" lon="1.9886">
        <ele>117</ele>
        <time>2020-05-31T12:13:13Z</time>
      </trkpt>
      <trkpt lat="48.59288" lon="1.98861">
        <ele>117</ele>
        <time>2020-05-31T12:13:15Z</time>
      </trkpt>
      <trkpt lat="48.59287" lon="1.98862">
        <ele>116</ele>
        <time>2020-05-31T12:13:16Z</time>
      </trkpt>
      <trkpt lat="48.59283" lon="1.98864">
        <ele>116</ele>
        <time>2020-05-31T12:13:18Z</time>
      </trkpt>
      <trkpt lat="48.59281" lon="1.98865">
        <ele>116</ele>
        <time>2020-05-31T12:13:20Z</time>
      </trkpt>
      <trkpt lat="48.59277" lon="1.98867">
        <ele>116</ele>
        <time>2020-05-31T12:13:22Z</time>
      </trkpt>
      <trkpt lat="48.59274" lon="1.98869">
        <ele>116</ele>
        <time>2020-05-31T12:13:24Z</time>
      </trkpt>
      <trkpt lat="48.59272" lon="1.9887">
        <ele>116</ele>
        <time>2020-05-31T12:13:25Z</time>
      </trkpt>
      <trkpt lat="48.59271" lon="1.9887">
        <ele>116</ele>
        <time>2020-05-31T12:13:26Z</time>
      </trkpt>
      <trkpt lat="48.59269" lon="1.98871">
        <ele>116</ele>
        <time>2020-05-31T12:13:27Z</time>
      </trkpt>
      <trkpt lat="48.59266" lon="1.98873">
        <ele>116</ele>
        <time>2020-05-31T12:13:29Z</time>
      </trkpt>
      <trkpt lat="48.59263" lon="1.98874">
        <ele>116</ele>
        <time>2020-05-31T12:13:31Z</time>
      </trkpt>
      <trkpt lat="48.5926" lon="1.98876">
        <ele>116</ele>
        <time>2020-05-31T12:13:33Z</time>
      </trkpt>
      <trkpt lat="48.59258" lon="1.98877">
        <ele>116</ele>
        <time>2020-05-31T12:13:34Z</time>
      </trkpt>
      <trkpt lat="48.59255" lon="1.9888">
        <ele>116</ele>
        <time>2020-05-31T12:13:36Z</time>
      </trkpt>
      <trkpt lat="48.59252" lon="1.98882">
        <ele>116</ele>
        <time>2020-05-31T12:13:38Z</time>
      </trkpt>
      <trkpt lat="48.5925" lon="1.98885">
        <ele>116</ele>
        <time>2020-05-31T12:13:40Z</time>
      </trkpt>
      <trkpt lat="48.59247" lon="1.98888">
        <ele>116</ele>
        <time>2020-05-31T12:13:42Z</time>
      </trkpt>
      <trkpt lat="48.59244" lon="1.9889">
        <ele>116</ele>
        <time>2020-05-31T12:13:44Z</time>
      </trkpt>
      <trkpt lat="48.59241" lon="1.98892">
        <ele>116</ele>
        <time>2020-05-31T12:13:46Z</time>
      </trkpt>
      <trkpt lat="48.59239" lon="1.98896">
        <ele>116</ele>
        <time>2020-05-31T12:13:48Z</time>
      </trkpt>
      <trkpt lat="48.59237" lon="1.98899">
        <ele>116</ele>
        <time>2020-05-31T12:13:50Z</time>
      </trkpt>
      <trkpt lat="48.59235" lon="1.98902">
        <ele>117</ele>
        <time>2020-05-31T12:13:52Z</time>
      </trkpt>
      <trkpt lat="48.59234" lon="1.98906">
        <ele>117</ele>
        <time>2020-05-31T12:13:54Z</time>
      </trkpt>
      <trkpt lat="48.59232" lon="1.9891">
        <ele>118</ele>
        <time>2020-05-31T12:13:56Z</time>
      </trkpt>
      <trkpt lat="48.5923" lon="1.98914">
        <ele>118</ele>
        <time>2020-05-31T12:13:58Z</time>
      </trkpt>
      <trkpt lat="48.59229" lon="1.98916">
        <ele>118</ele>
        <time>2020-05-31T12:14:00Z</time>
      </trkpt>
      <trkpt lat="48.59227" lon="1.98918">
        <ele>118</ele>
        <time>2020-05-31T12:14:02Z</time>
      </trkpt>
      <trkpt lat="48.59224" lon="1.98921">
        <ele>118</ele>
        <time>2020-05-31T12:14:04Z</time>
      </trkpt>
      <trkpt lat="48.59223" lon="1.98924">
        <ele>118</ele>
        <time>2020-05-31T12:14:06Z</time>
      </trkpt>
      <trkpt lat="48.59222" lon="1.98928">
        <ele>118</ele>
        <time>2020-05-31T12:14:08Z</time>
      </trkpt>
      <trkpt lat="48.59221" lon="1.98931">
        <ele>118</ele>
        <time>2020-05-31T12:14:09Z</time>
      </trkpt>
      <trkpt lat="48.59219" lon="1.98935">
        <ele>118</ele>
        <time>2020-05-31T12:14:11Z</time>
      </trkpt>
      <trkpt lat="48.59217" lon="1.98939">
        <ele>118</ele>
        <time>2020-05-31T12:14:13Z</time>
      </trkpt>
      <trkpt lat="48.59216" lon="1.98941">
        <ele>118</ele>
        <time>2020-05-31T12:14:14Z</time>
      </trkpt>
      <trkpt lat="48.59214" lon="1.98945">
        <ele>118</ele>
        <time>2020-05-31T12:14:16Z</time>
      </trkpt>
      <trkpt lat="48.59212" lon="1.98949">
        <ele>118</ele>
        <time>2020-05-31T12:14:18Z</time>
      </trkpt>
      <trkpt lat="48.5921" lon="1.98953">
        <ele>118</ele>
        <time>2020-05-31T12:14:20Z</time>
      </trkpt>
      <trkpt lat="48.59208" lon="1.98957">
        <ele>117</ele>
        <time>2020-05-31T12:14:22Z</time>
      </trkpt>
      <trkpt lat="48.59206" lon="1.9896">
        <ele>117</ele>
        <time>2020-05-31T12:14:24Z</time>
      </trkpt>
      <trkpt lat="48.59205" lon="1.98964">
        <ele>118</ele>
        <time>2020-05-31T12:14:26Z</time>
      </trkpt>
      <trkpt lat="48.59203" lon="1.98968">
        <ele>118</ele>
        <time>2020-05-31T12:14:28Z</time>
      </trkpt>
      <trkpt lat="48.59202" lon="1.98972">
        <ele>118</ele>
        <time>2020-05-31T12:14:30Z</time>
      </trkpt>
      <trkpt lat="48.59201" lon="1.98976">
        <ele>118</ele>
        <time>2020-05-31T12:14:32Z</time>
      </trkpt>
      <trkpt lat="48.59198" lon="1.98978">
        <ele>118</ele>
        <time>2020-05-31T12:14:34Z</time>
      </trkpt>
      <trkpt lat="48.59196" lon="1.98981">
        <ele>117</ele>
        <time>2020-05-31T12:14:36Z</time>
      </trkpt>
      <trkpt lat="48.59194" lon="1.98984">
        <ele>117</ele>
        <time>2020-05-31T12:14:38Z</time>
      </trkpt>
      <trkpt lat="48.59193" lon="1.98988">
        <ele>117</ele>
        <time>2020-05-31T12:14:40Z</time>
      </trkpt>
      <trkpt lat="48.5919" lon="1.98991">
        <ele>117</ele>
        <time>2020-05-31T12:14:42Z</time>
      </trkpt>
      <trkpt lat="48.59189" lon="1.98993">
        <ele>117</ele>
        <time>2020-05-31T12:14:43Z</time>
      </trkpt>
      <trkpt lat="48.59187" lon="1.98996">
        <ele>116</ele>
        <time>2020-05-31T12:14:45Z</time>
      </trkpt>
      <trkpt lat="48.59184" lon="1.98999">
        <ele>116</ele>
        <time>2020-05-31T12:14:47Z</time>
      </trkpt>
      <trkpt lat="48.59181" lon="1.99001">
        <ele>116</ele>
        <time>2020-05-31T12:14:49Z</time>
      </trkpt>
      <trkpt lat="48.59179" lon="1.99004">
        <ele>117</ele>
        <time>2020-05-31T12:14:51Z</time>
      </trkpt>
      <trkpt lat="48.59177" lon="1.99007">
        <ele>116</ele>
        <time>2020-05-31T12:14:53Z</time>
      </trkpt>
      <trkpt lat="48.59174" lon="1.9901">
        <ele>116</ele>
        <time>2020-05-31T12:14:55Z</time>
      </trkpt>
      <trkpt lat="48.59172" lon="1.99013">
        <ele>117</ele>
        <time>2020-05-31T12:14:57Z</time>
      </trkpt>
      <trkpt lat="48.59169" lon="1.99016">
        <ele>117</ele>
        <time>2020-05-31T12:14:59Z</time>
      </trkpt>
      <trkpt lat="48.59167" lon="1.99019">
        <ele>117</ele>
        <time>2020-05-31T12:15:01Z</time>
      </trkpt>
      <trkpt lat="48.59164" lon="1.99022">
        <ele>117</ele>
        <time>2020-05-31T12:15:03Z</time>
      </trkpt>
      <trkpt lat="48.59162" lon="1.99025">
        <ele>117</ele>
        <time>2020-05-31T12:15:05Z</time>
      </trkpt>
      <trkpt lat="48.59159" lon="1.99028">
        <ele>117</ele>
        <time>2020-05-31T12:15:07Z</time>
      </trkpt>
      <trkpt lat="48.59156" lon="1.99031">
        <ele>117</ele>
        <time>2020-05-31T12:15:09Z</time>
      </trkpt>
      <trkpt lat="48.59155" lon="1.99033">
        <ele>117</ele>
        <time>2020-05-31T12:15:10Z</time>
      </trkpt>
      <trkpt lat="48.59154" lon="1.99035">
        <ele>117</ele>
        <time>2020-05-31T12:15:11Z</time>
      </trkpt>
      <trkpt lat="48.59151" lon="1.99038">
        <ele>117</ele>
        <time>2020-05-31T12:15:13Z</time>
      </trkpt>
      <trkpt lat="48.59148" lon="1.99041">
        <ele>117</ele>
        <time>2020-05-31T12:15:15Z</time>
      </trkpt>
      <trkpt lat="48.59146" lon="1.99042">
        <ele>117</ele>
        <time>2020-05-31T12:15:17Z</time>
      </trkpt>
      <trkpt lat="48.59143" lon="1.99045">
        <ele>117</ele>
        <time>2020-05-31T12:15:19Z</time>
      </trkpt>
      <trkpt lat="48.5914" lon="1.99048">
        <ele>117</ele>
        <time>2020-05-31T12:15:21Z</time>
      </trkpt>
      <trkpt lat="48.59138" lon="1.99051">
        <ele>117</ele>
        <time>2020-05-31T12:15:23Z</time>
      </trkpt>
      <trkpt lat="48.59135" lon="1.99053">
        <ele>117</ele>
        <time>2020-05-31T12:15:25Z</time>
      </trkpt>
      <trkpt lat="48.59132" lon="1.99056">
        <ele>117</ele>
        <time>2020-05-31T12:15:27Z</time>
      </trkpt>
      <trkpt lat="48.5913" lon="1.99059">
        <ele>117</ele>
        <time>2020-05-31T12:15:29Z</time>
      </trkpt>
      <trkpt lat="48.59127" lon="1.99061">
        <ele>117</ele>
        <time>2020-05-31T12:15:31Z</time>
      </trkpt>
      <trkpt lat="48.59124" lon="1.99064">
        <ele>117</ele>
        <time>2020-05-31T12:15:33Z</time>
      </trkpt>
      <trkpt lat="48.59122" lon="1.99067">
        <ele>116</ele>
        <time>2020-05-31T12:15:35Z</time>
      </trkpt>
      <trkpt lat="48.59119" lon="1.99069">
        <ele>116</ele>
        <time>2020-05-31T12:15:37Z</time>
      </trkpt>
      <trkpt lat="48.59116" lon="1.99071">
        <ele>116</ele>
        <time>2020-05-31T12:15:39Z</time>
      </trkpt>
      <trkpt lat="48.59114" lon="1.99073">
        <ele>116</ele>
        <time>2020-05-31T12:15:41Z</time>
      </trkpt>
      <trkpt lat="48.59112" lon="1.99075">
        <ele>116</ele>
        <time>2020-05-31T12:15:43Z</time>
      </trkpt>
      <trkpt lat="48.59109" lon="1.99078">
        <ele>116</ele>
        <time>2020-05-31T12:15:45Z</time>
      </trkpt>
      <trkpt lat="48.59107" lon="1.9908">
        <ele>116</ele>
        <time>2020-05-31T12:15:47Z</time>
      </trkpt>
      <trkpt lat="48.59105" lon="1.99082">
        <ele>116</ele>
        <time>2020-05-31T12:15:49Z</time>
      </trkpt>
      <trkpt lat="48.59103" lon="1.99085">
        <ele>116</ele>
        <time>2020-05-31T12:15:51Z</time>
      </trkpt>
      <trkpt lat="48.59101" lon="1.99088">
        <ele>116</ele>
        <time>2020-05-31T12:15:53Z</time>
      </trkpt>
      <trkpt lat="48.59098" lon="1.9909">
        <ele>116</ele>
        <time>2020-05-31T12:15:55Z</time>
      </trkpt>
      <trkpt lat="48.59096" lon="1.99093">
        <ele>116</ele>
        <time>2020-05-31T12:15:57Z</time>
      </trkpt>
      <trkpt lat="48.59093" lon="1.99096">
        <ele>116</ele>
        <time>2020-05-31T12:15:59Z</time>
      </trkpt>
      <trkpt lat="48.5909" lon="1.99098">
        <ele>116</ele>
        <time>2020-05-31T12:16:01Z</time>
      </trkpt>
      <trkpt lat="48.59088" lon="1.99101">
        <ele>116</ele>
        <time>2020-05-31T12:16:03Z</time>
      </trkpt>
      <trkpt lat="48.59085" lon="1.99104">
        <ele>116</ele>
        <time>2020-05-31T12:16:05Z</time>
      </trkpt>
      <trkpt lat="48.59083" lon="1.99106">
        <ele>116</ele>
        <time>2020-05-31T12:16:07Z</time>
      </trkpt>
      <trkpt lat="48.59081" lon="1.99108">
        <ele>117</ele>
        <time>2020-05-31T12:16:09Z</time>
      </trkpt>
      <trkpt lat="48.5908" lon="1.99111">
        <ele>117</ele>
        <time>2020-05-31T12:16:11Z</time>
      </trkpt>
      <trkpt lat="48.59079" lon="1.99114">
        <ele>115</ele>
        <time>2020-05-31T12:16:19Z</time>
      </trkpt>
      <trkpt lat="48.59077" lon="1.99116">
        <ele>115</ele>
        <time>2020-05-31T12:16:22Z</time>
      </trkpt>
      <trkpt lat="48.59075" lon="1.99118">
        <ele>115</ele>
        <time>2020-05-31T12:16:24Z</time>
      </trkpt>
      <trkpt lat="48.59071" lon="1.99118">
        <ele>114</ele>
        <time>2020-05-31T12:16:26Z</time>
      </trkpt>
      <trkpt lat="48.59069" lon="1.99118">
        <ele>113</ele>
        <time>2020-05-31T12:16:27Z</time>
      </trkpt>
      <trkpt lat="48.59067" lon="1.99117">
        <ele>113</ele>
        <time>2020-05-31T12:16:28Z</time>
      </trkpt>
      <trkpt lat="48.59065" lon="1.99116">
        <ele>113</ele>
        <time>2020-05-31T12:16:29Z</time>
      </trkpt>
      <trkpt lat="48.59063" lon="1.99116">
        <ele>113</ele>
        <time>2020-05-31T12:16:30Z</time>
      </trkpt>
      <trkpt lat="48.59062" lon="1.99115">
        <ele>112</ele>
        <time>2020-05-31T12:16:31Z</time>
      </trkpt>
      <trkpt lat="48.5906" lon="1.99114">
        <ele>112</ele>
        <time>2020-05-31T12:16:32Z</time>
      </trkpt>
      <trkpt lat="48.59057" lon="1.99113">
        <ele>112</ele>
        <time>2020-05-31T12:16:34Z</time>
      </trkpt>
      <trkpt lat="48.59053" lon="1.99112">
        <ele>112</ele>
        <time>2020-05-31T12:16:36Z</time>
      </trkpt>
      <trkpt lat="48.5905" lon="1.99111">
        <ele>111</ele>
        <time>2020-05-31T12:16:38Z</time>
      </trkpt>
      <trkpt lat="48.59047" lon="1.99109">
        <ele>111</ele>
        <time>2020-05-31T12:16:40Z</time>
      </trkpt>
      <trkpt lat="48.59043" lon="1.99107">
        <ele>111</ele>
        <time>2020-05-31T12:16:42Z</time>
      </trkpt>
      <trkpt lat="48.5904" lon="1.99106">
        <ele>111</ele>
        <time>2020-05-31T12:16:44Z</time>
      </trkpt>
      <trkpt lat="48.59037" lon="1.99104">
        <ele>110</ele>
        <time>2020-05-31T12:16:46Z</time>
      </trkpt>
      <trkpt lat="48.59034" lon="1.99102">
        <ele>110</ele>
        <time>2020-05-31T12:16:48Z</time>
      </trkpt>
      <trkpt lat="48.59031" lon="1.991">
        <ele>110</ele>
        <time>2020-05-31T12:16:50Z</time>
      </trkpt>
      <trkpt lat="48.59028" lon="1.99098">
        <ele>111</ele>
        <time>2020-05-31T12:16:52Z</time>
      </trkpt>
      <trkpt lat="48.59024" lon="1.99097">
        <ele>111</ele>
        <time>2020-05-31T12:16:54Z</time>
      </trkpt>
      <trkpt lat="48.59023" lon="1.99096">
        <ele>111</ele>
        <time>2020-05-31T12:16:55Z</time>
      </trkpt>
      <trkpt lat="48.59019" lon="1.99095">
        <ele>111</ele>
        <time>2020-05-31T12:16:57Z</time>
      </trkpt>
      <trkpt lat="48.59016" lon="1.99093">
        <ele>111</ele>
        <time>2020-05-31T12:16:59Z</time>
      </trkpt>
      <trkpt lat="48.59013" lon="1.99091">
        <ele>111</ele>
        <time>2020-05-31T12:17:01Z</time>
      </trkpt>
      <trkpt lat="48.5901" lon="1.9909">
        <ele>111</ele>
        <time>2020-05-31T12:17:03Z</time>
      </trkpt>
      <trkpt lat="48.59007" lon="1.99088">
        <ele>111</ele>
        <time>2020-05-31T12:17:05Z</time>
      </trkpt>
      <trkpt lat="48.59005" lon="1.99086">
        <ele>111</ele>
        <time>2020-05-31T12:17:07Z</time>
      </trkpt>
      <trkpt lat="48.59001" lon="1.99085">
        <ele>111</ele>
        <time>2020-05-31T12:17:09Z</time>
      </trkpt>
      <trkpt lat="48.59" lon="1.99084">
        <ele>111</ele>
        <time>2020-05-31T12:17:10Z</time>
      </trkpt>
      <trkpt lat="48.58997" lon="1.99082">
        <ele>111</ele>
        <time>2020-05-31T12:17:12Z</time>
      </trkpt>
      <trkpt lat="48.58994" lon="1.9908">
        <ele>111</ele>
        <time>2020-05-31T12:17:14Z</time>
      </trkpt>
      <trkpt lat="48.58991" lon="1.99077">
        <ele>111</ele>
        <time>2020-05-31T12:17:16Z</time>
      </trkpt>
      <trkpt lat="48.58987" lon="1.99076">
        <ele>111</ele>
        <time>2020-05-31T12:17:18Z</time>
      </trkpt>
      <trkpt lat="48.58984" lon="1.99074">
        <ele>111</ele>
        <time>2020-05-31T12:17:20Z</time>
      </trkpt>
      <trkpt lat="48.58982" lon="1.99073">
        <ele>111</ele>
        <time>2020-05-31T12:17:22Z</time>
      </trkpt>
      <trkpt lat="48.58979" lon="1.99071">
        <ele>111</ele>
        <time>2020-05-31T12:17:24Z</time>
      </trkpt>
      <trkpt lat="48.58976" lon="1.99069">
        <ele>111</ele>
        <time>2020-05-31T12:17:26Z</time>
      </trkpt>
      <trkpt lat="48.58973" lon="1.99068">
        <ele>111</ele>
        <time>2020-05-31T12:17:28Z</time>
      </trkpt>
      <trkpt lat="48.5897" lon="1.99068">
        <ele>111</ele>
        <time>2020-05-31T12:17:30Z</time>
      </trkpt>
      <trkpt lat="48.58967" lon="1.99067">
        <ele>111</ele>
        <time>2020-05-31T12:17:32Z</time>
      </trkpt>
      <trkpt lat="48.58964" lon="1.99066">
        <ele>111</ele>
        <time>2020-05-31T12:17:34Z</time>
      </trkpt>
      <trkpt lat="48.58961" lon="1.99065">
        <ele>111</ele>
        <time>2020-05-31T12:17:36Z</time>
      </trkpt>
      <trkpt lat="48.58958" lon="1.99065">
        <ele>111</ele>
        <time>2020-05-31T12:17:38Z</time>
      </trkpt>
      <trkpt lat="48.58956" lon="1.99066">
        <ele>111</ele>
        <time>2020-05-31T12:17:40Z</time>
      </trkpt>
      <trkpt lat="48.58953" lon="1.99068">
        <ele>111</ele>
        <time>2020-05-31T12:17:42Z</time>
      </trkpt>
      <trkpt lat="48.58951" lon="1.99072">
        <ele>111</ele>
        <time>2020-05-31T12:17:44Z</time>
      </trkpt>
      <trkpt lat="48.5895" lon="1.99076">
        <ele>111</ele>
        <time>2020-05-31T12:17:46Z</time>
      </trkpt>
      <trkpt lat="48.58949" lon="1.99081">
        <ele>111</ele>
        <time>2020-05-31T12:17:48Z</time>
      </trkpt>
      <trkpt lat="48.58947" lon="1.99085">
        <ele>111</ele>
        <time>2020-05-31T12:17:50Z</time>
      </trkpt>
      <trkpt lat="48.58946" lon="1.9909">
        <ele>111</ele>
        <time>2020-05-31T12:17:52Z</time>
      </trkpt>
      <trkpt lat="48.58946" lon="1.99093">
        <ele>111</ele>
        <time>2020-05-31T12:17:53Z</time>
      </trkpt>
      <trkpt lat="48.58945" lon="1.99096">
        <ele>112</ele>
        <time>2020-05-31T12:17:54Z</time>
      </trkpt>
      <trkpt lat="48.58945" lon="1.99101">
        <ele>112</ele>
        <time>2020-05-31T12:17:56Z</time>
      </trkpt>
      <trkpt lat="48.58944" lon="1.99106">
        <ele>112</ele>
        <time>2020-05-31T12:17:58Z</time>
      </trkpt>
      <trkpt lat="48.58943" lon="1.99111">
        <ele>112</ele>
        <time>2020-05-31T12:18:00Z</time>
      </trkpt>
      <trkpt lat="48.58942" lon="1.99115">
        <ele>112</ele>
        <time>2020-05-31T12:18:02Z</time>
      </trkpt>
      <trkpt lat="48.58941" lon="1.99118">
        <ele>112</ele>
        <time>2020-05-31T12:18:04Z</time>
      </trkpt>
      <trkpt lat="48.5894" lon="1.99123">
        <ele>112</ele>
        <time>2020-05-31T12:18:06Z</time>
      </trkpt>
      <trkpt lat="48.58939" lon="1.99127">
        <ele>113</ele>
        <time>2020-05-31T12:18:08Z</time>
      </trkpt>
      <trkpt lat="48.58938" lon="1.99132">
        <ele>113</ele>
        <time>2020-05-31T12:18:10Z</time>
      </trkpt>
      <trkpt lat="48.58937" lon="1.99136">
        <ele>114</ele>
        <time>2020-05-31T12:18:12Z</time>
      </trkpt>
      <trkpt lat="48.58937" lon="1.9914">
        <ele>114</ele>
        <time>2020-05-31T12:18:14Z</time>
      </trkpt>
      <trkpt lat="48.58936" lon="1.99145">
        <ele>115</ele>
        <time>2020-05-31T12:18:16Z</time>
      </trkpt>
      <trkpt lat="48.58935" lon="1.99149">
        <ele>115</ele>
        <time>2020-05-31T12:18:18Z</time>
      </trkpt>
      <trkpt lat="48.58935" lon="1.99154">
        <ele>115</ele>
        <time>2020-05-31T12:18:20Z</time>
      </trkpt>
      <trkpt lat="48.58935" lon="1.99159">
        <ele>116</ele>
        <time>2020-05-31T12:18:22Z</time>
      </trkpt>
      <trkpt lat="48.58934" lon="1.99163">
        <ele>116</ele>
        <time>2020-05-31T12:18:24Z</time>
      </trkpt>
      <trkpt lat="48.58933" lon="1.99168">
        <ele>116</ele>
        <time>2020-05-31T12:18:26Z</time>
      </trkpt>
      <trkpt lat="48.58933" lon="1.99172">
        <ele>117</ele>
        <time>2020-05-31T12:18:28Z</time>
      </trkpt>
      <trkpt lat="48.58931" lon="1.99177">
        <ele>117</ele>
        <time>2020-05-31T12:18:30Z</time>
      </trkpt>
      <trkpt lat="48.58929" lon="1.99181">
        <ele>117</ele>
        <time>2020-05-31T12:18:32Z</time>
      </trkpt>
      <trkpt lat="48.58928" lon="1.99186">
        <ele>118</ele>
        <time>2020-05-31T12:18:34Z</time>
      </trkpt>
      <trkpt lat="48.58928" lon="1.99191">
        <ele>118</ele>
        <time>2020-05-31T12:18:36Z</time>
      </trkpt>
      <trkpt lat="48.58928" lon="1.99196">
        <ele>119</ele>
        <time>2020-05-31T12:18:38Z</time>
      </trkpt>
      <trkpt lat="48.58927" lon="1.99201">
        <ele>119</ele>
        <time>2020-05-31T12:18:40Z</time>
      </trkpt>
      <trkpt lat="48.58927" lon="1.99207">
        <ele>119</ele>
        <time>2020-05-31T12:18:42Z</time>
      </trkpt>
      <trkpt lat="48.58927" lon="1.99211">
        <ele>119</ele>
        <time>2020-05-31T12:18:44Z</time>
      </trkpt>
      <trkpt lat="48.58928" lon="1.99216">
        <ele>119</ele>
        <time>2020-05-31T12:18:46Z</time>
      </trkpt>
      <trkpt lat="48.58927" lon="1.99221">
        <ele>120</ele>
        <time>2020-05-31T12:18:48Z</time>
      </trkpt>
      <trkpt lat="48.58927" lon="1.99225">
        <ele>120</ele>
        <time>2020-05-31T12:18:50Z</time>
      </trkpt>
      <trkpt lat="48.58926" lon="1.9923">
        <ele>120</ele>
        <time>2020-05-31T12:18:52Z</time>
      </trkpt>
      <trkpt lat="48.58926" lon="1.99235">
        <ele>120</ele>
        <time>2020-05-31T12:18:54Z</time>
      </trkpt>
      <trkpt lat="48.58926" lon="1.9924">
        <ele>121</ele>
        <time>2020-05-31T12:18:56Z</time>
      </trkpt>
      <trkpt lat="48.58925" lon="1.99244">
        <ele>121</ele>
        <time>2020-05-31T12:18:58Z</time>
      </trkpt>
      <trkpt lat="48.58924" lon="1.99249">
        <ele>121</ele>
        <time>2020-05-31T12:19:00Z</time>
      </trkpt>
      <trkpt lat="48.58924" lon="1.99253">
        <ele>122</ele>
        <time>2020-05-31T12:19:02Z</time>
      </trkpt>
      <trkpt lat="48.58924" lon="1.99258">
        <ele>122</ele>
        <time>2020-05-31T12:19:04Z</time>
      </trkpt>
      <trkpt lat="48.58923" lon="1.99263">
        <ele>122</ele>
        <time>2020-05-31T12:19:06Z</time>
      </trkpt>
      <trkpt lat="48.58923" lon="1.99268">
        <ele>122</ele>
        <time>2020-05-31T12:19:08Z</time>
      </trkpt>
      <trkpt lat="48.58923" lon="1.99273">
        <ele>122</ele>
        <time>2020-05-31T12:19:10Z</time>
      </trkpt>
      <trkpt lat="48.58923" lon="1.99277">
        <ele>121</ele>
        <time>2020-05-31T12:19:12Z</time>
      </trkpt>
      <trkpt lat="48.58923" lon="1.99282">
        <ele>122</ele>
        <time>2020-05-31T12:19:14Z</time>
      </trkpt>
      <trkpt lat="48.58923" lon="1.99288">
        <ele>122</ele>
        <time>2020-05-31T12:19:16Z</time>
      </trkpt>
      <trkpt lat="48.58923" lon="1.99293">
        <ele>122</ele>
        <time>2020-05-31T12:19:18Z</time>
      </trkpt>
      <trkpt lat="48.58922" lon="1.99297">
        <ele>121</ele>
        <time>2020-05-31T12:19:20Z</time>
      </trkpt>
      <trkpt lat="48.58922" lon="1.99302">
        <ele>121</ele>
        <time>2020-05-31T12:19:22Z</time>
      </trkpt>
      <trkpt lat="48.58921" lon="1.99306">
        <ele>121</ele>
        <time>2020-05-31T12:19:24Z</time>
      </trkpt>
      <trkpt lat="48.58922" lon="1.99311">
        <ele>121</ele>
        <time>2020-05-31T12:19:26Z</time>
      </trkpt>
      <trkpt lat="48.58922" lon="1.99314">
        <ele>121</ele>
        <time>2020-05-31T12:19:28Z</time>
      </trkpt>
      <trkpt lat="48.58923" lon="1.99318">
        <ele>121</ele>
        <time>2020-05-31T12:19:30Z</time>
      </trkpt>
      <trkpt lat="48.58924" lon="1.99322">
        <ele>121</ele>
        <time>2020-05-31T12:19:32Z</time>
      </trkpt>
      <trkpt lat="48.58925" lon="1.99326">
        <ele>121</ele>
        <time>2020-05-31T12:19:34Z</time>
      </trkpt>
      <trkpt lat="48.58926" lon="1.9933">
        <ele>121</ele>
        <time>2020-05-31T12:19:36Z</time>
      </trkpt>
      <trkpt lat="48.58927" lon="1.99332">
        <ele>121</ele>
        <time>2020-05-31T12:19:38Z</time>
      </trkpt>
      <trkpt lat="48.58929" lon="1.99334">
        <ele>121</ele>
        <time>2020-05-31T12:19:40Z</time>
      </trkpt>
      <trkpt lat="48.58931" lon="1.99336">
        <ele>121</ele>
        <time>2020-05-31T12:19:42Z</time>
      </trkpt>
      <trkpt lat="48.58933" lon="1.99338">
        <ele>121</ele>
        <time>2020-05-31T12:19:44Z</time>
      </trkpt>
      <trkpt lat="48.58935" lon="1.9934">
        <ele>121</ele>
        <time>2020-05-31T12:19:46Z</time>
      </trkpt>
      <trkpt lat="48.58938" lon="1.99343">
        <ele>121</ele>
        <time>2020-05-31T12:19:48Z</time>
      </trkpt>
      <trkpt lat="48.5894" lon="1.99346">
        <ele>121</ele>
        <time>2020-05-31T12:19:50Z</time>
      </trkpt>
      <trkpt lat="48.58942" lon="1.99349">
        <ele>121</ele>
        <time>2020-05-31T12:19:52Z</time>
      </trkpt>
      <trkpt lat="48.58944" lon="1.99353">
        <ele>121</ele>
        <time>2020-05-31T12:19:54Z</time>
      </trkpt>
      <trkpt lat="48.58946" lon="1.99355">
        <ele>121</ele>
        <time>2020-05-31T12:19:56Z</time>
      </trkpt>
      <trkpt lat="48.58949" lon="1.99357">
        <ele>122</ele>
        <time>2020-05-31T12:19:58Z</time>
      </trkpt>
      <trkpt lat="48.58951" lon="1.99359">
        <ele>121</ele>
        <time>2020-05-31T12:20:00Z</time>
      </trkpt>
      <trkpt lat="48.58953" lon="1.9936">
        <ele>121</ele>
        <time>2020-05-31T12:20:02Z</time>
      </trkpt>
      <trkpt lat="48.58957" lon="1.99363">
        <ele>121</ele>
        <time>2020-05-31T12:20:04Z</time>
      </trkpt>
      <trkpt lat="48.58958" lon="1.99364">
        <ele>121</ele>
        <time>2020-05-31T12:20:05Z</time>
      </trkpt>
      <trkpt lat="48.5896" lon="1.99366">
        <ele>121</ele>
        <time>2020-05-31T12:20:06Z</time>
      </trkpt>
      <trkpt lat="48.58963" lon="1.99369">
        <ele>121</ele>
        <time>2020-05-31T12:20:08Z</time>
      </trkpt>
      <trkpt lat="48.58964" lon="1.99371">
        <ele>121</ele>
        <time>2020-05-31T12:20:09Z</time>
      </trkpt>
      <trkpt lat="48.58966" lon="1.99373">
        <ele>121</ele>
        <time>2020-05-31T12:20:10Z</time>
      </trkpt>
      <trkpt lat="48.58967" lon="1.99374">
        <ele>120</ele>
        <time>2020-05-31T12:20:11Z</time>
      </trkpt>
      <trkpt lat="48.5897" lon="1.99378">
        <ele>120</ele>
        <time>2020-05-31T12:20:13Z</time>
      </trkpt>
      <trkpt lat="48.58972" lon="1.99382">
        <ele>120</ele>
        <time>2020-05-31T12:20:15Z</time>
      </trkpt>
      <trkpt lat="48.58975" lon="1.99385">
        <ele>120</ele>
        <time>2020-05-31T12:20:17Z</time>
      </trkpt>
      <trkpt lat="48.58976" lon="1.99387">
        <ele>120</ele>
        <time>2020-05-31T12:20:18Z</time>
      </trkpt>
      <trkpt lat="48.58979" lon="1.9939">
        <ele>120</ele>
        <time>2020-05-31T12:20:20Z</time>
      </trkpt>
      <trkpt lat="48.58981" lon="1.99392">
        <ele>120</ele>
        <time>2020-05-31T12:20:22Z</time>
      </trkpt>
      <trkpt lat="48.58983" lon="1.99395">
        <ele>120</ele>
        <time>2020-05-31T12:20:24Z</time>
      </trkpt>
      <trkpt lat="48.58986" lon="1.99397">
        <ele>120</ele>
        <time>2020-05-31T12:20:26Z</time>
      </trkpt>
      <trkpt lat="48.58989" lon="1.994">
        <ele>120</ele>
        <time>2020-05-31T12:20:28Z</time>
      </trkpt>
      <trkpt lat="48.58992" lon="1.99403">
        <ele>120</ele>
        <time>2020-05-31T12:20:30Z</time>
      </trkpt>
      <trkpt lat="48.58995" lon="1.99406">
        <ele>120</ele>
        <time>2020-05-31T12:20:32Z</time>
      </trkpt>
      <trkpt lat="48.58996" lon="1.99407">
        <ele>120</ele>
        <time>2020-05-31T12:20:33Z</time>
      </trkpt>
      <trkpt lat="48.58999" lon="1.99412">
        <ele>119</ele>
        <time>2020-05-31T12:20:35Z</time>
      </trkpt>
      <trkpt lat="48.59001" lon="1.99414">
        <ele>119</ele>
        <time>2020-05-31T12:20:36Z</time>
      </trkpt>
      <trkpt lat="48.59002" lon="1.99416">
        <ele>119</ele>
        <time>2020-05-31T12:20:37Z</time>
      </trkpt>
      <trkpt lat="48.59005" lon="1.9942">
        <ele>119</ele>
        <time>2020-05-31T12:20:39Z</time>
      </trkpt>
      <trkpt lat="48.59007" lon="1.99423">
        <ele>119</ele>
        <time>2020-05-31T12:20:41Z</time>
      </trkpt>
      <trkpt lat="48.5901" lon="1.99426">
        <ele>118</ele>
        <time>2020-05-31T12:20:43Z</time>
      </trkpt>
      <trkpt lat="48.59011" lon="1.99428">
        <ele>118</ele>
        <time>2020-05-31T12:20:44Z</time>
      </trkpt>
      <trkpt lat="48.59014" lon="1.99431">
        <ele>118</ele>
        <time>2020-05-31T12:20:46Z</time>
      </trkpt>
      <trkpt lat="48.59017" lon="1.99433">
        <ele>119</ele>
        <time>2020-05-31T12:20:48Z</time>
      </trkpt>
      <trkpt lat="48.59019" lon="1.99436">
        <ele>119</ele>
        <time>2020-05-31T12:20:50Z</time>
      </trkpt>
      <trkpt lat="48.59021" lon="1.99439">
        <ele>118</ele>
        <time>2020-05-31T12:20:52Z</time>
      </trkpt>
      <trkpt lat="48.59024" lon="1.99442">
        <ele>118</ele>
        <time>2020-05-31T12:20:54Z</time>
      </trkpt>
      <trkpt lat="48.59027" lon="1.99445">
        <ele>118</ele>
        <time>2020-05-31T12:20:56Z</time>
      </trkpt>
      <trkpt lat="48.5903" lon="1.99449">
        <ele>118</ele>
        <time>2020-05-31T12:20:58Z</time>
      </trkpt>
      <trkpt lat="48.59033" lon="1.99452">
        <ele>117</ele>
        <time>2020-05-31T12:21:00Z</time>
      </trkpt>
      <trkpt lat="48.59034" lon="1.99454">
        <ele>117</ele>
        <time>2020-05-31T12:21:01Z</time>
      </trkpt>
      <trkpt lat="48.59036" lon="1.99456">
        <ele>117</ele>
        <time>2020-05-31T12:21:02Z</time>
      </trkpt>
      <trkpt lat="48.59038" lon="1.99459">
        <ele>116</ele>
        <time>2020-05-31T12:21:04Z</time>
      </trkpt>
      <trkpt lat="48.5904" lon="1.99462">
        <ele>116</ele>
        <time>2020-05-31T12:21:06Z</time>
      </trkpt>
      <trkpt lat="48.59043" lon="1.99466">
        <ele>116</ele>
        <time>2020-05-31T12:21:08Z</time>
      </trkpt>
      <trkpt lat="48.59044" lon="1.99467">
        <ele>116</ele>
        <time>2020-05-31T12:21:09Z</time>
      </trkpt>
      <trkpt lat="48.59047" lon="1.99469">
        <ele>116</ele>
        <time>2020-05-31T12:21:11Z</time>
      </trkpt>
      <trkpt lat="48.5905" lon="1.99472">
        <ele>116</ele>
        <time>2020-05-31T12:21:13Z</time>
      </trkpt>
      <trkpt lat="48.59051" lon="1.99474">
        <ele>116</ele>
        <time>2020-05-31T12:21:14Z</time>
      </trkpt>
      <trkpt lat="48.59053" lon="1.99476">
        <ele>116</ele>
        <time>2020-05-31T12:21:15Z</time>
      </trkpt>
      <trkpt lat="48.59054" lon="1.99479">
        <ele>115</ele>
        <time>2020-05-31T12:21:16Z</time>
      </trkpt>
      <trkpt lat="48.59057" lon="1.99482">
        <ele>115</ele>
        <time>2020-05-31T12:21:18Z</time>
      </trkpt>
      <trkpt lat="48.59059" lon="1.99484">
        <ele>115</ele>
        <time>2020-05-31T12:21:19Z</time>
      </trkpt>
      <trkpt lat="48.59062" lon="1.99487">
        <ele>115</ele>
        <time>2020-05-31T12:21:21Z</time>
      </trkpt>
      <trkpt lat="48.59064" lon="1.99489">
        <ele>115</ele>
        <time>2020-05-31T12:21:23Z</time>
      </trkpt>
      <trkpt lat="48.59067" lon="1.99493">
        <ele>116</ele>
        <time>2020-05-31T12:21:25Z</time>
      </trkpt>
      <trkpt lat="48.59068" lon="1.99496">
        <ele>116</ele>
        <time>2020-05-31T12:21:27Z</time>
      </trkpt>
      <trkpt lat="48.5907" lon="1.99499">
        <ele>116</ele>
        <time>2020-05-31T12:21:29Z</time>
      </trkpt>
      <trkpt lat="48.59071" lon="1.99503">
        <ele>117</ele>
        <time>2020-05-31T12:21:31Z</time>
      </trkpt>
      <trkpt lat="48.59071" lon="1.99508">
        <ele>117</ele>
        <time>2020-05-31T12:21:33Z</time>
      </trkpt>
      <trkpt lat="48.59071" lon="1.99513">
        <ele>118</ele>
        <time>2020-05-31T12:21:35Z</time>
      </trkpt>
      <trkpt lat="48.59071" lon="1.99515">
        <ele>118</ele>
        <time>2020-05-31T12:21:36Z</time>
      </trkpt>
      <trkpt lat="48.59072" lon="1.99518">
        <ele>118</ele>
        <time>2020-05-31T12:21:37Z</time>
      </trkpt>
      <trkpt lat="48.59075" lon="1.99523">
        <ele>118</ele>
        <time>2020-05-31T12:21:39Z</time>
      </trkpt>
      <trkpt lat="48.59076" lon="1.99525">
        <ele>118</ele>
        <time>2020-05-31T12:21:40Z</time>
      </trkpt>
      <trkpt lat="48.59078" lon="1.99527">
        <ele>118</ele>
        <time>2020-05-31T12:21:41Z</time>
      </trkpt>
      <trkpt lat="48.5908" lon="1.99528">
        <ele>118</ele>
        <time>2020-05-31T12:21:43Z</time>
      </trkpt>
      <trkpt lat="48.59083" lon="1.99527">
        <ele>118</ele>
        <time>2020-05-31T12:21:45Z</time>
      </trkpt>
      <trkpt lat="48.59086" lon="1.99527">
        <ele>118</ele>
        <time>2020-05-31T12:21:47Z</time>
      </trkpt>
      <trkpt lat="48.59089" lon="1.99529">
        <ele>118</ele>
        <time>2020-05-31T12:21:49Z</time>
      </trkpt>
      <trkpt lat="48.59092" lon="1.99531">
        <ele>118</ele>
        <time>2020-05-31T12:21:51Z</time>
      </trkpt>
      <trkpt lat="48.59094" lon="1.99532">
        <ele>118</ele>
        <time>2020-05-31T12:21:52Z</time>
      </trkpt>
      <trkpt lat="48.59097" lon="1.99534">
        <ele>118</ele>
        <time>2020-05-31T12:21:54Z</time>
      </trkpt>
      <trkpt lat="48.59099" lon="1.99537">
        <ele>118</ele>
        <time>2020-05-31T12:21:56Z</time>
      </trkpt>
      <trkpt lat="48.59102" lon="1.9954">
        <ele>118</ele>
        <time>2020-05-31T12:21:58Z</time>
      </trkpt>
      <trkpt lat="48.59103" lon="1.99542">
        <ele>118</ele>
        <time>2020-05-31T12:21:59Z</time>
      </trkpt>
      <trkpt lat="48.59106" lon="1.99545">
        <ele>118</ele>
        <time>2020-05-31T12:22:01Z</time>
      </trkpt>
      <trkpt lat="48.59108" lon="1.99547">
        <ele>118</ele>
        <time>2020-05-31T12:22:03Z</time>
      </trkpt>
      <trkpt lat="48.59111" lon="1.9955">
        <ele>118</ele>
        <time>2020-05-31T12:22:05Z</time>
      </trkpt>
      <trkpt lat="48.59114" lon="1.99552">
        <ele>118</ele>
        <time>2020-05-31T12:22:07Z</time>
      </trkpt>
      <trkpt lat="48.59115" lon="1.99554">
        <ele>118</ele>
        <time>2020-05-31T12:22:08Z</time>
      </trkpt>
      <trkpt lat="48.59118" lon="1.99557">
        <ele>118</ele>
        <time>2020-05-31T12:22:10Z</time>
      </trkpt>
      <trkpt lat="48.59121" lon="1.99559">
        <ele>118</ele>
        <time>2020-05-31T12:22:12Z</time>
      </trkpt>
      <trkpt lat="48.59124" lon="1.99561">
        <ele>118</ele>
        <time>2020-05-31T12:22:14Z</time>
      </trkpt>
      <trkpt lat="48.59126" lon="1.99563">
        <ele>118</ele>
        <time>2020-05-31T12:22:15Z</time>
      </trkpt>
      <trkpt lat="48.59127" lon="1.99564">
        <ele>118</ele>
        <time>2020-05-31T12:22:16Z</time>
      </trkpt>
      <trkpt lat="48.59129" lon="1.99565">
        <ele>118</ele>
        <time>2020-05-31T12:22:17Z</time>
      </trkpt>
      <trkpt lat="48.59131" lon="1.99566">
        <ele>118</ele>
        <time>2020-05-31T12:22:18Z</time>
      </trkpt>
      <trkpt lat="48.59134" lon="1.99569">
        <ele>118</ele>
        <time>2020-05-31T12:22:20Z</time>
      </trkpt>
      <trkpt lat="48.59135" lon="1.99571">
        <ele>117</ele>
        <time>2020-05-31T12:22:21Z</time>
      </trkpt>
      <trkpt lat="48.59137" lon="1.99573">
        <ele>117</ele>
        <time>2020-05-31T12:22:22Z</time>
      </trkpt>
      <trkpt lat="48.59138" lon="1.99575">
        <ele>117</ele>
        <time>2020-05-31T12:22:23Z</time>
      </trkpt>
      <trkpt lat="48.5914" lon="1.99579">
        <ele>117</ele>
        <time>2020-05-31T12:22:25Z</time>
      </trkpt>
      <trkpt lat="48.59142" lon="1.99581">
        <ele>116</ele>
        <time>2020-05-31T12:22:26Z</time>
      </trkpt>
      <trkpt lat="48.59144" lon="1.99584">
        <ele>116</ele>
        <time>2020-05-31T12:22:28Z</time>
      </trkpt>
      <trkpt lat="48.59145" lon="1.99587">
        <ele>116</ele>
        <time>2020-05-31T12:22:29Z</time>
      </trkpt>
      <trkpt lat="48.59147" lon="1.99589">
        <ele>115</ele>
        <time>2020-05-31T12:22:30Z</time>
      </trkpt>
      <trkpt lat="48.59148" lon="1.99592">
        <ele>115</ele>
        <time>2020-05-31T12:22:31Z</time>
      </trkpt>
      <trkpt lat="48.5915" lon="1.99595">
        <ele>115</ele>
        <time>2020-05-31T12:22:32Z</time>
      </trkpt>
      <trkpt lat="48.59151" lon="1.99598">
        <ele>115</ele>
        <time>2020-05-31T12:22:33Z</time>
      </trkpt>
      <trkpt lat="48.59152" lon="1.99601">
        <ele>115</ele>
        <time>2020-05-31T12:22:34Z</time>
      </trkpt>
      <trkpt lat="48.59154" lon="1.99604">
        <ele>115</ele>
        <time>2020-05-31T12:22:35Z</time>
      </trkpt>
      <trkpt lat="48.59156" lon="1.99607">
        <ele>115</ele>
        <time>2020-05-31T12:22:36Z</time>
      </trkpt>
      <trkpt lat="48.59157" lon="1.9961">
        <ele>115</ele>
        <time>2020-05-31T12:22:37Z</time>
      </trkpt>
      <trkpt lat="48.59159" lon="1.99614">
        <ele>115</ele>
        <time>2020-05-31T12:22:38Z</time>
      </trkpt>
      <trkpt lat="48.59162" lon="1.99617">
        <ele>115</ele>
        <time>2020-05-31T12:22:39Z</time>
      </trkpt>
      <trkpt lat="48.59164" lon="1.99621">
        <ele>114</ele>
        <time>2020-05-31T12:22:40Z</time>
      </trkpt>
      <trkpt lat="48.59167" lon="1.99625">
        <ele>114</ele>
        <time>2020-05-31T12:22:41Z</time>
      </trkpt>
      <trkpt lat="48.59169" lon="1.99628">
        <ele>114</ele>
        <time>2020-05-31T12:22:42Z</time>
      </trkpt>
      <trkpt lat="48.59172" lon="1.99631">
        <ele>114</ele>
        <time>2020-05-31T12:22:43Z</time>
      </trkpt>
      <trkpt lat="48.59175" lon="1.99634">
        <ele>114</ele>
        <time>2020-05-31T12:22:44Z</time>
      </trkpt>
      <trkpt lat="48.59178" lon="1.99636">
        <ele>114</ele>
        <time>2020-05-31T12:22:45Z</time>
      </trkpt>
      <trkpt lat="48.59186" lon="1.99648">
        <ele>113</ele>
        <time>2020-05-31T12:22:49Z</time>
      </trkpt>
      <trkpt lat="48.59195" lon="1.99659">
        <ele>113</ele>
        <time>2020-05-31T12:22:53Z</time>
      </trkpt>
      <trkpt lat="48.59204" lon="1.99669">
        <ele>113</ele>
        <time>2020-05-31T12:22:57Z</time>
      </trkpt>
      <trkpt lat="48.59213" lon="1.9968">
        <ele>112</ele>
        <time>2020-05-31T12:23:00Z</time>
      </trkpt>
      <trkpt lat="48.59221" lon="1.99692">
        <ele>112</ele>
        <time>2020-05-31T12:23:03Z</time>
      </trkpt>
      <trkpt lat="48.5923" lon="1.99704">
        <ele>112</ele>
        <time>2020-05-31T12:23:06Z</time>
      </trkpt>
      <trkpt lat="48.59239" lon="1.99713">
        <ele>111</ele>
        <time>2020-05-31T12:23:09Z</time>
      </trkpt>
      <trkpt lat="48.59247" lon="1.99719">
        <ele>111</ele>
        <time>2020-05-31T12:23:12Z</time>
      </trkpt>
      <trkpt lat="48.59256" lon="1.99725">
        <ele>112</ele>
        <time>2020-05-31T12:23:14Z</time>
      </trkpt>
      <trkpt lat="48.59264" lon="1.99732">
        <ele>112</ele>
        <time>2020-05-31T12:23:16Z</time>
      </trkpt>
      <trkpt lat="48.59272" lon="1.9974">
        <ele>112</ele>
        <time>2020-05-31T12:23:18Z</time>
      </trkpt>
      <trkpt lat="48.59283" lon="1.99744">
        <ele>111</ele>
        <time>2020-05-31T12:23:21Z</time>
      </trkpt>
      <trkpt lat="48.59292" lon="1.99753">
        <ele>113</ele>
        <time>2020-05-31T12:23:26Z</time>
      </trkpt>
      <trkpt lat="48.59288" lon="1.99766">
        <ele>113</ele>
        <time>2020-05-31T12:23:31Z</time>
      </trkpt>
      <trkpt lat="48.59279" lon="1.99777">
        <ele>112</ele>
        <time>2020-05-31T12:23:36Z</time>
      </trkpt>
      <trkpt lat="48.59277" lon="1.99778">
        <ele>112</ele>
        <time>2020-05-31T12:23:37Z</time>
      </trkpt>
      <trkpt lat="48.59275" lon="1.9978">
        <ele>112</ele>
        <time>2020-05-31T12:23:38Z</time>
      </trkpt>
      <trkpt lat="48.59273" lon="1.9978">
        <ele>112</ele>
        <time>2020-05-31T12:23:39Z</time>
      </trkpt>
      <trkpt lat="48.5927" lon="1.99785">
        <ele>111</ele>
        <time>2020-05-31T12:23:41Z</time>
      </trkpt>
      <trkpt lat="48.59269" lon="1.99789">
        <ele>112</ele>
        <time>2020-05-31T12:23:43Z</time>
      </trkpt>
      <trkpt lat="48.59267" lon="1.99791">
        <ele>112</ele>
        <time>2020-05-31T12:23:44Z</time>
      </trkpt>
      <trkpt lat="48.59266" lon="1.99807">
        <ele>112</ele>
        <time>2020-05-31T12:23:49Z</time>
      </trkpt>
      <trkpt lat="48.59261" lon="1.99821">
        <ele>111</ele>
        <time>2020-05-31T12:23:54Z</time>
      </trkpt>
      <trkpt lat="48.59254" lon="1.99834">
        <ele>111</ele>
        <time>2020-05-31T12:23:57Z</time>
      </trkpt>
      <trkpt lat="48.59248" lon="1.99845">
        <ele>111</ele>
        <time>2020-05-31T12:24:00Z</time>
      </trkpt>
      <trkpt lat="48.5924" lon="1.99857">
        <ele>110</ele>
        <time>2020-05-31T12:24:03Z</time>
      </trkpt>
      <trkpt lat="48.59231" lon="1.99867">
        <ele>110</ele>
        <time>2020-05-31T12:24:06Z</time>
      </trkpt>
      <trkpt lat="48.59225" lon="1.99877">
        <ele>110</ele>
        <time>2020-05-31T12:24:09Z</time>
      </trkpt>
      <trkpt lat="48.59218" lon="1.99891">
        <ele>110</ele>
        <time>2020-05-31T12:24:12Z</time>
      </trkpt>
      <trkpt lat="48.59211" lon="1.99904">
        <ele>110</ele>
        <time>2020-05-31T12:24:15Z</time>
      </trkpt>
      <trkpt lat="48.59207" lon="1.99916">
        <ele>110</ele>
        <time>2020-05-31T12:24:18Z</time>
      </trkpt>
      <trkpt lat="48.59206" lon="1.99929">
        <ele>110</ele>
        <time>2020-05-31T12:24:22Z</time>
      </trkpt>
      <trkpt lat="48.59206" lon="1.99933">
        <ele>110</ele>
        <time>2020-05-31T12:24:24Z</time>
      </trkpt>
      <trkpt lat="48.59206" lon="1.99937">
        <ele>110</ele>
        <time>2020-05-31T12:24:26Z</time>
      </trkpt>
      <trkpt lat="48.59206" lon="1.99943">
        <ele>110</ele>
        <time>2020-05-31T12:24:29Z</time>
      </trkpt>
      <trkpt lat="48.59208" lon="1.99948">
        <ele>110</ele>
        <time>2020-05-31T12:24:31Z</time>
      </trkpt>
      <trkpt lat="48.5921" lon="1.99954">
        <ele>110</ele>
        <time>2020-05-31T12:24:33Z</time>
      </trkpt>
      <trkpt lat="48.59211" lon="1.99958">
        <ele>110</ele>
        <time>2020-05-31T12:24:34Z</time>
      </trkpt>
      <trkpt lat="48.59215" lon="1.9997">
        <ele>110</ele>
        <time>2020-05-31T12:24:37Z</time>
      </trkpt>
      <trkpt lat="48.5922" lon="1.99985">
        <ele>111</ele>
        <time>2020-05-31T12:24:41Z</time>
      </trkpt>
      <trkpt lat="48.59222" lon="2.00001">
        <ele>111</ele>
        <time>2020-05-31T12:24:44Z</time>
      </trkpt>
      <trkpt lat="48.59225" lon="2.00016">
        <ele>111</ele>
        <time>2020-05-31T12:24:47Z</time>
      </trkpt>
      <trkpt lat="48.5923" lon="2.00029">
        <ele>111</ele>
        <time>2020-05-31T12:24:50Z</time>
      </trkpt>
      <trkpt lat="48.59234" lon="2.00043">
        <ele>111</ele>
        <time>2020-05-31T12:24:54Z</time>
      </trkpt>
      <trkpt lat="48.5924" lon="2.00062">
        <ele>111</ele>
        <time>2020-05-31T12:24:58Z</time>
      </trkpt>
      <trkpt lat="48.59243" lon="2.00078">
        <ele>111</ele>
        <time>2020-05-31T12:25:01Z</time>
      </trkpt>
      <trkpt lat="48.59248" lon="2.0009">
        <ele>112</ele>
        <time>2020-05-31T12:25:06Z</time>
      </trkpt>
      <trkpt lat="48.5925" lon="2.00106">
        <ele>112</ele>
        <time>2020-05-31T12:25:10Z</time>
      </trkpt>
      <trkpt lat="48.59253" lon="2.00122">
        <ele>112</ele>
        <time>2020-05-31T12:25:13Z</time>
      </trkpt>
      <trkpt lat="48.59257" lon="2.0014">
        <ele>111</ele>
        <time>2020-05-31T12:25:16Z</time>
      </trkpt>
      <trkpt lat="48.59261" lon="2.00153">
        <ele>111</ele>
        <time>2020-05-31T12:25:18Z</time>
      </trkpt>
      <trkpt lat="48.59264" lon="2.00166">
        <ele>111</ele>
        <time>2020-05-31T12:25:20Z</time>
      </trkpt>
      <trkpt lat="48.59268" lon="2.00183">
        <ele>111</ele>
        <time>2020-05-31T12:25:23Z</time>
      </trkpt>
      <trkpt lat="48.59272" lon="2.00201">
        <ele>112</ele>
        <time>2020-05-31T12:25:26Z</time>
      </trkpt>
      <trkpt lat="48.59275" lon="2.00214">
        <ele>112</ele>
        <time>2020-05-31T12:25:28Z</time>
      </trkpt>
      <trkpt lat="48.5928" lon="2.00226">
        <ele>111</ele>
        <time>2020-05-31T12:25:30Z</time>
      </trkpt>
      <trkpt lat="48.59282" lon="2.00239">
        <ele>111</ele>
        <time>2020-05-31T12:25:32Z</time>
      </trkpt>
      <trkpt lat="48.59285" lon="2.00253">
        <ele>111</ele>
        <time>2020-05-31T12:25:34Z</time>
      </trkpt>
      <trkpt lat="48.59291" lon="2.00271">
        <ele>111</ele>
        <time>2020-05-31T12:25:37Z</time>
      </trkpt>
      <trkpt lat="48.59295" lon="2.00287">
        <ele>111</ele>
        <time>2020-05-31T12:25:40Z</time>
      </trkpt>
      <trkpt lat="48.593" lon="2.00303">
        <ele>112</ele>
        <time>2020-05-31T12:25:44Z</time>
      </trkpt>
      <trkpt lat="48.59303" lon="2.00319">
        <ele>112</ele>
        <time>2020-05-31T12:25:48Z</time>
      </trkpt>
      <trkpt lat="48.59306" lon="2.00334">
        <ele>111</ele>
        <time>2020-05-31T12:25:51Z</time>
      </trkpt>
      <trkpt lat="48.5931" lon="2.00346">
        <ele>112</ele>
        <time>2020-05-31T12:25:54Z</time>
      </trkpt>
      <trkpt lat="48.59314" lon="2.00359">
        <ele>113</ele>
        <time>2020-05-31T12:25:59Z</time>
      </trkpt>
      <trkpt lat="48.59318" lon="2.00366">
        <ele>113</ele>
        <time>2020-05-31T12:26:03Z</time>
      </trkpt>
      <trkpt lat="48.5932" lon="2.00371">
        <ele>113</ele>
        <time>2020-05-31T12:26:05Z</time>
      </trkpt>
      <trkpt lat="48.5932" lon="2.00374">
        <ele>114</ele>
        <time>2020-05-31T12:26:07Z</time>
      </trkpt>
      <trkpt lat="48.59322" lon="2.00379">
        <ele>114</ele>
        <time>2020-05-31T12:26:09Z</time>
      </trkpt>
      <trkpt lat="48.59323" lon="2.00381">
        <ele>114</ele>
        <time>2020-05-31T12:26:10Z</time>
      </trkpt>
      <trkpt lat="48.59325" lon="2.00385">
        <ele>114</ele>
        <time>2020-05-31T12:26:12Z</time>
      </trkpt>
      <trkpt lat="48.59326" lon="2.00389">
        <ele>115</ele>
        <time>2020-05-31T12:26:14Z</time>
      </trkpt>
      <trkpt lat="48.59329" lon="2.00395">
        <ele>114</ele>
        <time>2020-05-31T12:26:17Z</time>
      </trkpt>
      <trkpt lat="48.59334" lon="2.00408">
        <ele>114</ele>
        <time>2020-05-31T12:26:22Z</time>
      </trkpt>
      <trkpt lat="48.59337" lon="2.00418">
        <ele>114</ele>
        <time>2020-05-31T12:26:27Z</time>
      </trkpt>
      <trkpt lat="48.59338" lon="2.00422">
        <ele>114</ele>
        <time>2020-05-31T12:26:29Z</time>
      </trkpt>
      <trkpt lat="48.59338" lon="2.00426">
        <ele>114</ele>
        <time>2020-05-31T12:26:31Z</time>
      </trkpt>
      <trkpt lat="48.59339" lon="2.00431">
        <ele>114</ele>
        <time>2020-05-31T12:26:33Z</time>
      </trkpt>
      <trkpt lat="48.59341" lon="2.00436">
        <ele>114</ele>
        <time>2020-05-31T12:26:35Z</time>
      </trkpt>
      <trkpt lat="48.59342" lon="2.00439">
        <ele>114</ele>
        <time>2020-05-31T12:26:36Z</time>
      </trkpt>
      <trkpt lat="48.59343" lon="2.00443">
        <ele>115</ele>
        <time>2020-05-31T12:26:38Z</time>
      </trkpt>
      <trkpt lat="48.59346" lon="2.00457">
        <ele>114</ele>
        <time>2020-05-31T12:26:44Z</time>
      </trkpt>
      <trkpt lat="48.59347" lon="2.00459">
        <ele>114</ele>
        <time>2020-05-31T12:26:45Z</time>
      </trkpt>
      <trkpt lat="48.59348" lon="2.00464">
        <ele>114</ele>
        <time>2020-05-31T12:26:47Z</time>
      </trkpt>
      <trkpt lat="48.59349" lon="2.00467">
        <ele>114</ele>
        <time>2020-05-31T12:26:48Z</time>
      </trkpt>
      <trkpt lat="48.59354" lon="2.00478">
        <ele>113</ele>
        <time>2020-05-31T12:26:54Z</time>
      </trkpt>
      <trkpt lat="48.59356" lon="2.00481">
        <ele>113</ele>
        <time>2020-05-31T12:26:56Z</time>
      </trkpt>
      <trkpt lat="48.59359" lon="2.00489">
        <ele>113</ele>
        <time>2020-05-31T12:27:00Z</time>
      </trkpt>
      <trkpt lat="48.5936" lon="2.00491">
        <ele>113</ele>
        <time>2020-05-31T12:27:01Z</time>
      </trkpt>
      <trkpt lat="48.59361" lon="2.00494">
        <ele>113</ele>
        <time>2020-05-31T12:27:02Z</time>
      </trkpt>
      <trkpt lat="48.59364" lon="2.00509">
        <ele>112</ele>
        <time>2020-05-31T12:27:07Z</time>
      </trkpt>
      <trkpt lat="48.59365" lon="2.00512">
        <ele>112</ele>
        <time>2020-05-31T12:27:08Z</time>
      </trkpt>
      <trkpt lat="48.59365" lon="2.00515">
        <ele>112</ele>
        <time>2020-05-31T12:27:09Z</time>
      </trkpt>
      <trkpt lat="48.59366" lon="2.00519">
        <ele>111</ele>
        <time>2020-05-31T12:27:11Z</time>
      </trkpt>
      <trkpt lat="48.59368" lon="2.00525">
        <ele>111</ele>
        <time>2020-05-31T12:27:14Z</time>
      </trkpt>
      <trkpt lat="48.59369" lon="2.00528">
        <ele>111</ele>
        <time>2020-05-31T12:27:15Z</time>
      </trkpt>
      <trkpt lat="48.5937" lon="2.00532">
        <ele>111</ele>
        <time>2020-05-31T12:27:17Z</time>
      </trkpt>
      <trkpt lat="48.5937" lon="2.00536">
        <ele>111</ele>
        <time>2020-05-31T12:27:19Z</time>
      </trkpt>
      <trkpt lat="48.5937" lon="2.00541">
        <ele>110</ele>
        <time>2020-05-31T12:27:21Z</time>
      </trkpt>
      <trkpt lat="48.5937" lon="2.00546">
        <ele>110</ele>
        <time>2020-05-31T12:27:24Z</time>
      </trkpt>
      <trkpt lat="48.59371" lon="2.00551">
        <ele>110</ele>
        <time>2020-05-31T12:27:26Z</time>
      </trkpt>
      <trkpt lat="48.59372" lon="2.00554">
        <ele>109</ele>
        <time>2020-05-31T12:27:27Z</time>
      </trkpt>
      <trkpt lat="48.59374" lon="2.00559">
        <ele>109</ele>
        <time>2020-05-31T12:27:29Z</time>
      </trkpt>
      <trkpt lat="48.59375" lon="2.00562">
        <ele>109</ele>
        <time>2020-05-31T12:27:30Z</time>
      </trkpt>
      <trkpt lat="48.59376" lon="2.00565">
        <ele>109</ele>
        <time>2020-05-31T12:27:31Z</time>
      </trkpt>
      <trkpt lat="48.59377" lon="2.00568">
        <ele>108</ele>
        <time>2020-05-31T12:27:32Z</time>
      </trkpt>
      <trkpt lat="48.59378" lon="2.0057">
        <ele>108</ele>
        <time>2020-05-31T12:27:33Z</time>
      </trkpt>
      <trkpt lat="48.5938" lon="2.00573">
        <ele>108</ele>
        <time>2020-05-31T12:27:34Z</time>
      </trkpt>
      <trkpt lat="48.59382" lon="2.00576">
        <ele>108</ele>
        <time>2020-05-31T12:27:36Z</time>
      </trkpt>
      <trkpt lat="48.59384" lon="2.0058">
        <ele>108</ele>
        <time>2020-05-31T12:27:38Z</time>
      </trkpt>
      <trkpt lat="48.59385" lon="2.00582">
        <ele>108</ele>
        <time>2020-05-31T12:27:39Z</time>
      </trkpt>
      <trkpt lat="48.59386" lon="2.00585">
        <ele>108</ele>
        <time>2020-05-31T12:27:40Z</time>
      </trkpt>
      <trkpt lat="48.59387" lon="2.00588">
        <ele>108</ele>
        <time>2020-05-31T12:27:42Z</time>
      </trkpt>
      <trkpt lat="48.59389" lon="2.00591">
        <ele>107</ele>
        <time>2020-05-31T12:27:44Z</time>
      </trkpt>
      <trkpt lat="48.5939" lon="2.00595">
        <ele>106</ele>
        <time>2020-05-31T12:27:46Z</time>
      </trkpt>
      <trkpt lat="48.59391" lon="2.00599">
        <ele>106</ele>
        <time>2020-05-31T12:27:48Z</time>
      </trkpt>
      <trkpt lat="48.59391" lon="2.00603">
        <ele>105</ele>
        <time>2020-05-31T12:27:50Z</time>
      </trkpt>
      <trkpt lat="48.59393" lon="2.00607">
        <ele>105</ele>
        <time>2020-05-31T12:27:52Z</time>
      </trkpt>
      <trkpt lat="48.59394" lon="2.00609">
        <ele>105</ele>
        <time>2020-05-31T12:27:53Z</time>
      </trkpt>
      <trkpt lat="48.59395" lon="2.00611">
        <ele>105</ele>
        <time>2020-05-31T12:27:54Z</time>
      </trkpt>
      <trkpt lat="48.59396" lon="2.00614">
        <ele>105</ele>
        <time>2020-05-31T12:27:55Z</time>
      </trkpt>
      <trkpt lat="48.59397" lon="2.00623">
        <ele>105</ele>
        <time>2020-05-31T12:27:59Z</time>
      </trkpt>
      <trkpt lat="48.59399" lon="2.00627">
        <ele>104</ele>
        <time>2020-05-31T12:28:01Z</time>
      </trkpt>
      <trkpt lat="48.59399" lon="2.00631">
        <ele>104</ele>
        <time>2020-05-31T12:28:03Z</time>
      </trkpt>
      <trkpt lat="48.59401" lon="2.00637">
        <ele>104</ele>
        <time>2020-05-31T12:28:06Z</time>
      </trkpt>
      <trkpt lat="48.59402" lon="2.0064">
        <ele>104</ele>
        <time>2020-05-31T12:28:07Z</time>
      </trkpt>
      <trkpt lat="48.59403" lon="2.00644">
        <ele>104</ele>
        <time>2020-05-31T12:28:09Z</time>
      </trkpt>
      <trkpt lat="48.59405" lon="2.00649">
        <ele>104</ele>
        <time>2020-05-31T12:28:11Z</time>
      </trkpt>
      <trkpt lat="48.59405" lon="2.00652">
        <ele>104</ele>
        <time>2020-05-31T12:28:12Z</time>
      </trkpt>
      <trkpt lat="48.59406" lon="2.00657">
        <ele>104</ele>
        <time>2020-05-31T12:28:14Z</time>
      </trkpt>
      <trkpt lat="48.59406" lon="2.0066">
        <ele>105</ele>
        <time>2020-05-31T12:28:15Z</time>
      </trkpt>
      <trkpt lat="48.59407" lon="2.00666">
        <ele>105</ele>
        <time>2020-05-31T12:28:18Z</time>
      </trkpt>
      <trkpt lat="48.59407" lon="2.0067">
        <ele>105</ele>
        <time>2020-05-31T12:28:20Z</time>
      </trkpt>
      <trkpt lat="48.59408" lon="2.00674">
        <ele>105</ele>
        <time>2020-05-31T12:28:22Z</time>
      </trkpt>
      <trkpt lat="48.59409" lon="2.00679">
        <ele>105</ele>
        <time>2020-05-31T12:28:24Z</time>
      </trkpt>
      <trkpt lat="48.59411" lon="2.00683">
        <ele>105</ele>
        <time>2020-05-31T12:28:26Z</time>
      </trkpt>
      <trkpt lat="48.59412" lon="2.00686">
        <ele>105</ele>
        <time>2020-05-31T12:28:27Z</time>
      </trkpt>
      <trkpt lat="48.59412" lon="2.00689">
        <ele>105</ele>
        <time>2020-05-31T12:28:28Z</time>
      </trkpt>
      <trkpt lat="48.59413" lon="2.00691">
        <ele>105</ele>
        <time>2020-05-31T12:28:29Z</time>
      </trkpt>
      <trkpt lat="48.59413" lon="2.00694">
        <ele>105</ele>
        <time>2020-05-31T12:28:30Z</time>
      </trkpt>
      <trkpt lat="48.59412" lon="2.00699">
        <ele>105</ele>
        <time>2020-05-31T12:28:32Z</time>
      </trkpt>
      <trkpt lat="48.59412" lon="2.00704">
        <ele>104</ele>
        <time>2020-05-31T12:28:34Z</time>
      </trkpt>
      <trkpt lat="48.5941" lon="2.0071">
        <ele>104</ele>
        <time>2020-05-31T12:28:36Z</time>
      </trkpt>
      <trkpt lat="48.59409" lon="2.00715">
        <ele>104</ele>
        <time>2020-05-31T12:28:37Z</time>
      </trkpt>
      <trkpt lat="48.59407" lon="2.0072">
        <ele>104</ele>
        <time>2020-05-31T12:28:38Z</time>
      </trkpt>
      <trkpt lat="48.59405" lon="2.00725">
        <ele>103</ele>
        <time>2020-05-31T12:28:39Z</time>
      </trkpt>
      <trkpt lat="48.59403" lon="2.00731">
        <ele>103</ele>
        <time>2020-05-31T12:28:40Z</time>
      </trkpt>
      <trkpt lat="48.59401" lon="2.00737">
        <ele>103</ele>
        <time>2020-05-31T12:28:41Z</time>
      </trkpt>
      <trkpt lat="48.59398" lon="2.00743">
        <ele>103</ele>
        <time>2020-05-31T12:28:42Z</time>
      </trkpt>
      <trkpt lat="48.59396" lon="2.0075">
        <ele>102</ele>
        <time>2020-05-31T12:28:43Z</time>
      </trkpt>
      <trkpt lat="48.59391" lon="2.00762">
        <ele>102</ele>
        <time>2020-05-31T12:28:45Z</time>
      </trkpt>
      <trkpt lat="48.59386" lon="2.00775">
        <ele>101</ele>
        <time>2020-05-31T12:28:48Z</time>
      </trkpt>
      <trkpt lat="48.5938" lon="2.00791">
        <ele>101</ele>
        <time>2020-05-31T12:28:51Z</time>
      </trkpt>
      <trkpt lat="48.59375" lon="2.00805">
        <ele>101</ele>
        <time>2020-05-31T12:28:54Z</time>
      </trkpt>
      <trkpt lat="48.59371" lon="2.00818">
        <ele>100</ele>
        <time>2020-05-31T12:28:57Z</time>
      </trkpt>
      <trkpt lat="48.59367" lon="2.00834">
        <ele>100</ele>
        <time>2020-05-31T12:29:00Z</time>
      </trkpt>
      <trkpt lat="48.59361" lon="2.00845">
        <ele>99</ele>
        <time>2020-05-31T12:29:03Z</time>
      </trkpt>
      <trkpt lat="48.59355" lon="2.00857">
        <ele>98</ele>
        <time>2020-05-31T12:29:06Z</time>
      </trkpt>
      <trkpt lat="48.59348" lon="2.0087">
        <ele>97</ele>
        <time>2020-05-31T12:29:09Z</time>
      </trkpt>
      <trkpt lat="48.59339" lon="2.00883">
        <ele>96</ele>
        <time>2020-05-31T12:29:12Z</time>
      </trkpt>
      <trkpt lat="48.59332" lon="2.00892">
        <ele>96</ele>
        <time>2020-05-31T12:29:14Z</time>
      </trkpt>
      <trkpt lat="48.59325" lon="2.009">
        <ele>95</ele>
        <time>2020-05-31T12:29:16Z</time>
      </trkpt>
      <trkpt lat="48.59313" lon="2.00911">
        <ele>94</ele>
        <time>2020-05-31T12:29:19Z</time>
      </trkpt>
      <trkpt lat="48.59302" lon="2.0092">
        <ele>92</ele>
        <time>2020-05-31T12:29:21Z</time>
      </trkpt>
      <trkpt lat="48.59289" lon="2.0093">
        <ele>91</ele>
        <time>2020-05-31T12:29:23Z</time>
      </trkpt>
      <trkpt lat="48.5928" lon="2.00936">
        <ele>90</ele>
        <time>2020-05-31T12:29:24Z</time>
      </trkpt>
      <trkpt lat="48.5927" lon="2.00941">
        <ele>89</ele>
        <time>2020-05-31T12:29:26Z</time>
      </trkpt>
      <trkpt lat="48.59261" lon="2.00949">
        <ele>88</ele>
        <time>2020-05-31T12:29:28Z</time>
      </trkpt>
      <trkpt lat="48.59251" lon="2.00956">
        <ele>87</ele>
        <time>2020-05-31T12:29:30Z</time>
      </trkpt>
      <trkpt lat="48.5924" lon="2.00962">
        <ele>87</ele>
        <time>2020-05-31T12:29:32Z</time>
      </trkpt>
      <trkpt lat="48.59231" lon="2.00968">
        <ele>86</ele>
        <time>2020-05-31T12:29:34Z</time>
      </trkpt>
      <trkpt lat="48.59221" lon="2.00971">
        <ele>86</ele>
        <time>2020-05-31T12:29:36Z</time>
      </trkpt>
      <trkpt lat="48.59207" lon="2.00975">
        <ele>86</ele>
        <time>2020-05-31T12:29:38Z</time>
      </trkpt>
      <trkpt lat="48.59196" lon="2.00976">
        <ele>85</ele>
        <time>2020-05-31T12:29:40Z</time>
      </trkpt>
      <trkpt lat="48.59182" lon="2.00976">
        <ele>85</ele>
        <time>2020-05-31T12:29:43Z</time>
      </trkpt>
      <trkpt lat="48.59173" lon="2.00973">
        <ele>85</ele>
        <time>2020-05-31T12:29:45Z</time>
      </trkpt>
      <trkpt lat="48.59163" lon="2.00971">
        <ele>85</ele>
        <time>2020-05-31T12:29:48Z</time>
      </trkpt>
      <trkpt lat="48.59152" lon="2.00971">
        <ele>85</ele>
        <time>2020-05-31T12:29:51Z</time>
      </trkpt>
      <trkpt lat="48.59141" lon="2.00971">
        <ele>85</ele>
        <time>2020-05-31T12:29:54Z</time>
      </trkpt>
      <trkpt lat="48.59129" lon="2.00972">
        <ele>85</ele>
        <time>2020-05-31T12:29:58Z</time>
      </trkpt>
      <trkpt lat="48.59117" lon="2.00975">
        <ele>84</ele>
        <time>2020-05-31T12:30:02Z</time>
      </trkpt>
      <trkpt lat="48.59109" lon="2.00982">
        <ele>83</ele>
        <time>2020-05-31T12:30:04Z</time>
      </trkpt>
      <trkpt lat="48.59097" lon="2.00989">
        <ele>83</ele>
        <time>2020-05-31T12:30:07Z</time>
      </trkpt>
      <trkpt lat="48.59088" lon="2.00992">
        <ele>83</ele>
        <time>2020-05-31T12:30:09Z</time>
      </trkpt>
      <trkpt lat="48.59078" lon="2.00996">
        <ele>82</ele>
        <time>2020-05-31T12:30:11Z</time>
      </trkpt>
      <trkpt lat="48.59068" lon="2.01">
        <ele>82</ele>
        <time>2020-05-31T12:30:13Z</time>
      </trkpt>
      <trkpt lat="48.59059" lon="2.01002">
        <ele>81</ele>
        <time>2020-05-31T12:30:15Z</time>
      </trkpt>
      <trkpt lat="48.59048" lon="2.01007">
        <ele>81</ele>
        <time>2020-05-31T12:30:18Z</time>
      </trkpt>
      <trkpt lat="48.59038" lon="2.01011">
        <ele>80</ele>
        <time>2020-05-31T12:30:21Z</time>
      </trkpt>
      <trkpt lat="48.59029" lon="2.01017">
        <ele>80</ele>
        <time>2020-05-31T12:30:23Z</time>
      </trkpt>
      <trkpt lat="48.5902" lon="2.01021">
        <ele>79</ele>
        <time>2020-05-31T12:30:26Z</time>
      </trkpt>
      <trkpt lat="48.5901" lon="2.01027">
        <ele>80</ele>
        <time>2020-05-31T12:30:31Z</time>
      </trkpt>
      <trkpt lat="48.59007" lon="2.01028">
        <ele>80</ele>
        <time>2020-05-31T12:30:32Z</time>
      </trkpt>
      <trkpt lat="48.59004" lon="2.0103">
        <ele>80</ele>
        <time>2020-05-31T12:30:33Z</time>
      </trkpt>
      <trkpt lat="48.59002" lon="2.01031">
        <ele>80</ele>
        <time>2020-05-31T12:30:34Z</time>
      </trkpt>
      <trkpt lat="48.58997" lon="2.01034">
        <ele>81</ele>
        <time>2020-05-31T12:30:37Z</time>
      </trkpt>
      <trkpt lat="48.58995" lon="2.01035">
        <ele>82</ele>
        <time>2020-05-31T12:30:38Z</time>
      </trkpt>
      <trkpt lat="48.58993" lon="2.01036">
        <ele>82</ele>
        <time>2020-05-31T12:30:39Z</time>
      </trkpt>
      <trkpt lat="48.58991" lon="2.01037">
        <ele>83</ele>
        <time>2020-05-31T12:30:40Z</time>
      </trkpt>
      <trkpt lat="48.58988" lon="2.01037">
        <ele>83</ele>
        <time>2020-05-31T12:30:41Z</time>
      </trkpt>
      <trkpt lat="48.58987" lon="2.01038">
        <ele>84</ele>
        <time>2020-05-31T12:30:42Z</time>
      </trkpt>
      <trkpt lat="48.58985" lon="2.01039">
        <ele>84</ele>
        <time>2020-05-31T12:30:43Z</time>
      </trkpt>
      <trkpt lat="48.58983" lon="2.01038">
        <ele>84</ele>
        <time>2020-05-31T12:30:44Z</time>
      </trkpt>
      <trkpt lat="48.5898" lon="2.01039">
        <ele>85</ele>
        <time>2020-05-31T12:30:45Z</time>
      </trkpt>
      <trkpt lat="48.58978" lon="2.01039">
        <ele>85</ele>
        <time>2020-05-31T12:30:46Z</time>
      </trkpt>
      <trkpt lat="48.58977" lon="2.01038">
        <ele>85</ele>
        <time>2020-05-31T12:30:47Z</time>
      </trkpt>
      <trkpt lat="48.58973" lon="2.01039">
        <ele>86</ele>
        <time>2020-05-31T12:30:49Z</time>
      </trkpt>
      <trkpt lat="48.5897" lon="2.01038">
        <ele>86</ele>
        <time>2020-05-31T12:30:51Z</time>
      </trkpt>
      <trkpt lat="48.58967" lon="2.01038">
        <ele>86</ele>
        <time>2020-05-31T12:30:53Z</time>
      </trkpt>
      <trkpt lat="48.58964" lon="2.01036">
        <ele>86</ele>
        <time>2020-05-31T12:30:55Z</time>
      </trkpt>
      <trkpt lat="48.58962" lon="2.01034">
        <ele>87</ele>
        <time>2020-05-31T12:30:57Z</time>
      </trkpt>
      <trkpt lat="48.58959" lon="2.01033">
        <ele>87</ele>
        <time>2020-05-31T12:30:59Z</time>
      </trkpt>
      <trkpt lat="48.58956" lon="2.01032">
        <ele>87</ele>
        <time>2020-05-31T12:31:01Z</time>
      </trkpt>
      <trkpt lat="48.58954" lon="2.01031">
        <ele>87</ele>
        <time>2020-05-31T12:31:02Z</time>
      </trkpt>
      <trkpt lat="48.58951" lon="2.01031">
        <ele>88</ele>
        <time>2020-05-31T12:31:04Z</time>
      </trkpt>
      <trkpt lat="48.5895" lon="2.0103">
        <ele>88</ele>
        <time>2020-05-31T12:31:06Z</time>
      </trkpt>
      <trkpt lat="48.58947" lon="2.01029">
        <ele>89</ele>
        <time>2020-05-31T12:31:09Z</time>
      </trkpt>
      <trkpt lat="48.58944" lon="2.0103">
        <ele>89</ele>
        <time>2020-05-31T12:31:11Z</time>
      </trkpt>
      <trkpt lat="48.58942" lon="2.01033">
        <ele>90</ele>
        <time>2020-05-31T12:31:13Z</time>
      </trkpt>
      <trkpt lat="48.58941" lon="2.01036">
        <ele>90</ele>
        <time>2020-05-31T12:31:15Z</time>
      </trkpt>
      <trkpt lat="48.58941" lon="2.01039">
        <ele>90</ele>
        <time>2020-05-31T12:31:17Z</time>
      </trkpt>
      <trkpt lat="48.58942" lon="2.01043">
        <ele>90</ele>
        <time>2020-05-31T12:31:19Z</time>
      </trkpt>
      <trkpt lat="48.58942" lon="2.01047">
        <ele>90</ele>
        <time>2020-05-31T12:31:21Z</time>
      </trkpt>
      <trkpt lat="48.58943" lon="2.01051">
        <ele>90</ele>
        <time>2020-05-31T12:31:23Z</time>
      </trkpt>
      <trkpt lat="48.58945" lon="2.01056">
        <ele>90</ele>
        <time>2020-05-31T12:31:25Z</time>
      </trkpt>
      <trkpt lat="48.58946" lon="2.0106">
        <ele>90</ele>
        <time>2020-05-31T12:31:27Z</time>
      </trkpt>
      <trkpt lat="48.58946" lon="2.01063">
        <ele>90</ele>
        <time>2020-05-31T12:31:28Z</time>
      </trkpt>
      <trkpt lat="48.58947" lon="2.01065">
        <ele>90</ele>
        <time>2020-05-31T12:31:29Z</time>
      </trkpt>
      <trkpt lat="48.58948" lon="2.01068">
        <ele>90</ele>
        <time>2020-05-31T12:31:30Z</time>
      </trkpt>
      <trkpt lat="48.5895" lon="2.01072">
        <ele>90</ele>
        <time>2020-05-31T12:31:32Z</time>
      </trkpt>
      <trkpt lat="48.5895" lon="2.01078">
        <ele>90</ele>
        <time>2020-05-31T12:31:34Z</time>
      </trkpt>
      <trkpt lat="48.58951" lon="2.01083">
        <ele>90</ele>
        <time>2020-05-31T12:31:36Z</time>
      </trkpt>
      <trkpt lat="48.58951" lon="2.01087">
        <ele>90</ele>
        <time>2020-05-31T12:31:38Z</time>
      </trkpt>
      <trkpt lat="48.58952" lon="2.01092">
        <ele>90</ele>
        <time>2020-05-31T12:31:40Z</time>
      </trkpt>
      <trkpt lat="48.58953" lon="2.01097">
        <ele>90</ele>
        <time>2020-05-31T12:31:42Z</time>
      </trkpt>
      <trkpt lat="48.58954" lon="2.01102">
        <ele>90</ele>
        <time>2020-05-31T12:31:44Z</time>
      </trkpt>
      <trkpt lat="48.58954" lon="2.01107">
        <ele>89</ele>
        <time>2020-05-31T12:31:46Z</time>
      </trkpt>
      <trkpt lat="48.58955" lon="2.01112">
        <ele>90</ele>
        <time>2020-05-31T12:31:48Z</time>
      </trkpt>
      <trkpt lat="48.58956" lon="2.01116">
        <ele>90</ele>
        <time>2020-05-31T12:31:50Z</time>
      </trkpt>
      <trkpt lat="48.58957" lon="2.01121">
        <ele>90</ele>
        <time>2020-05-31T12:31:52Z</time>
      </trkpt>
      <trkpt lat="48.58958" lon="2.01126">
        <ele>90</ele>
        <time>2020-05-31T12:31:54Z</time>
      </trkpt>
      <trkpt lat="48.58959" lon="2.01131">
        <ele>90</ele>
        <time>2020-05-31T12:31:56Z</time>
      </trkpt>
      <trkpt lat="48.5896" lon="2.01135">
        <ele>90</ele>
        <time>2020-05-31T12:31:58Z</time>
      </trkpt>
      <trkpt lat="48.58961" lon="2.01138">
        <ele>90</ele>
        <time>2020-05-31T12:31:59Z</time>
      </trkpt>
      <trkpt lat="48.58962" lon="2.0114">
        <ele>90</ele>
        <time>2020-05-31T12:32:00Z</time>
      </trkpt>
      <trkpt lat="48.58963" lon="2.01145">
        <ele>90</ele>
        <time>2020-05-31T12:32:02Z</time>
      </trkpt>
      <trkpt lat="48.58964" lon="2.0115">
        <ele>90</ele>
        <time>2020-05-31T12:32:04Z</time>
      </trkpt>
      <trkpt lat="48.58964" lon="2.01156">
        <ele>89</ele>
        <time>2020-05-31T12:32:06Z</time>
      </trkpt>
      <trkpt lat="48.58965" lon="2.01161">
        <ele>89</ele>
        <time>2020-05-31T12:32:08Z</time>
      </trkpt>
      <trkpt lat="48.58965" lon="2.01166">
        <ele>89</ele>
        <time>2020-05-31T12:32:10Z</time>
      </trkpt>
      <trkpt lat="48.58966" lon="2.01171">
        <ele>89</ele>
        <time>2020-05-31T12:32:12Z</time>
      </trkpt>
      <trkpt lat="48.58967" lon="2.01176">
        <ele>89</ele>
        <time>2020-05-31T12:32:14Z</time>
      </trkpt>
      <trkpt lat="48.58967" lon="2.01181">
        <ele>89</ele>
        <time>2020-05-31T12:32:16Z</time>
      </trkpt>
      <trkpt lat="48.58968" lon="2.01185">
        <ele>89</ele>
        <time>2020-05-31T12:32:18Z</time>
      </trkpt>
      <trkpt lat="48.58968" lon="2.01191">
        <ele>89</ele>
        <time>2020-05-31T12:32:20Z</time>
      </trkpt>
      <trkpt lat="48.58969" lon="2.01195">
        <ele>89</ele>
        <time>2020-05-31T12:32:22Z</time>
      </trkpt>
      <trkpt lat="48.5897" lon="2.01201">
        <ele>89</ele>
        <time>2020-05-31T12:32:24Z</time>
      </trkpt>
      <trkpt lat="48.58971" lon="2.01206">
        <ele>89</ele>
        <time>2020-05-31T12:32:26Z</time>
      </trkpt>
      <trkpt lat="48.58972" lon="2.01211">
        <ele>89</ele>
        <time>2020-05-31T12:32:28Z</time>
      </trkpt>
      <trkpt lat="48.58973" lon="2.01216">
        <ele>89</ele>
        <time>2020-05-31T12:32:30Z</time>
      </trkpt>
      <trkpt lat="48.58974" lon="2.01221">
        <ele>88</ele>
        <time>2020-05-31T12:32:32Z</time>
      </trkpt>
      <trkpt lat="48.58975" lon="2.01226">
        <ele>88</ele>
        <time>2020-05-31T12:32:34Z</time>
      </trkpt>
      <trkpt lat="48.58975" lon="2.01231">
        <ele>88</ele>
        <time>2020-05-31T12:32:36Z</time>
      </trkpt>
      <trkpt lat="48.58976" lon="2.01235">
        <ele>88</ele>
        <time>2020-05-31T12:32:38Z</time>
      </trkpt>
      <trkpt lat="48.58977" lon="2.0124">
        <ele>88</ele>
        <time>2020-05-31T12:32:40Z</time>
      </trkpt>
      <trkpt lat="48.58978" lon="2.01245">
        <ele>88</ele>
        <time>2020-05-31T12:32:42Z</time>
      </trkpt>
      <trkpt lat="48.5898" lon="2.0125">
        <ele>88</ele>
        <time>2020-05-31T12:32:44Z</time>
      </trkpt>
      <trkpt lat="48.58981" lon="2.01255">
        <ele>88</ele>
        <time>2020-05-31T12:32:46Z</time>
      </trkpt>
      <trkpt lat="48.58981" lon="2.0126">
        <ele>87</ele>
        <time>2020-05-31T12:32:48Z</time>
      </trkpt>
      <trkpt lat="48.58982" lon="2.01265">
        <ele>87</ele>
        <time>2020-05-31T12:32:50Z</time>
      </trkpt>
      <trkpt lat="48.58983" lon="2.0127">
        <ele>87</ele>
        <time>2020-05-31T12:32:52Z</time>
      </trkpt>
      <trkpt lat="48.58983" lon="2.01275">
        <ele>87</ele>
        <time>2020-05-31T12:32:54Z</time>
      </trkpt>
      <trkpt lat="48.58984" lon="2.01279">
        <ele>87</ele>
        <time>2020-05-31T12:32:56Z</time>
      </trkpt>
      <trkpt lat="48.58984" lon="2.01284">
        <ele>87</ele>
        <time>2020-05-31T12:32:58Z</time>
      </trkpt>
      <trkpt lat="48.58985" lon="2.01289">
        <ele>87</ele>
        <time>2020-05-31T12:33:00Z</time>
      </trkpt>
      <trkpt lat="48.58986" lon="2.01294">
        <ele>87</ele>
        <time>2020-05-31T12:33:02Z</time>
      </trkpt>
      <trkpt lat="48.58987" lon="2.01299">
        <ele>86</ele>
        <time>2020-05-31T12:33:04Z</time>
      </trkpt>
      <trkpt lat="48.58988" lon="2.01303">
        <ele>86</ele>
        <time>2020-05-31T12:33:06Z</time>
      </trkpt>
      <trkpt lat="48.58989" lon="2.01308">
        <ele>86</ele>
        <time>2020-05-31T12:33:08Z</time>
      </trkpt>
      <trkpt lat="48.5899" lon="2.01313">
        <ele>86</ele>
        <time>2020-05-31T12:33:10Z</time>
      </trkpt>
      <trkpt lat="48.5899" lon="2.01318">
        <ele>86</ele>
        <time>2020-05-31T12:33:12Z</time>
      </trkpt>
      <trkpt lat="48.58991" lon="2.01323">
        <ele>86</ele>
        <time>2020-05-31T12:33:14Z</time>
      </trkpt>
      <trkpt lat="48.58992" lon="2.01328">
        <ele>86</ele>
        <time>2020-05-31T12:33:16Z</time>
      </trkpt>
      <trkpt lat="48.58993" lon="2.01333">
        <ele>86</ele>
        <time>2020-05-31T12:33:18Z</time>
      </trkpt>
      <trkpt lat="48.58994" lon="2.01337">
        <ele>86</ele>
        <time>2020-05-31T12:33:20Z</time>
      </trkpt>
      <trkpt lat="48.58995" lon="2.01342">
        <ele>86</ele>
        <time>2020-05-31T12:33:22Z</time>
      </trkpt>
      <trkpt lat="48.58995" lon="2.01347">
        <ele>86</ele>
        <time>2020-05-31T12:33:24Z</time>
      </trkpt>
      <trkpt lat="48.58997" lon="2.01352">
        <ele>86</ele>
        <time>2020-05-31T12:33:26Z</time>
      </trkpt>
      <trkpt lat="48.58997" lon="2.01357">
        <ele>86</ele>
        <time>2020-05-31T12:33:28Z</time>
      </trkpt>
      <trkpt lat="48.58998" lon="2.01362">
        <ele>85</ele>
        <time>2020-05-31T12:33:30Z</time>
      </trkpt>
      <trkpt lat="48.58999" lon="2.01366">
        <ele>85</ele>
        <time>2020-05-31T12:33:32Z</time>
      </trkpt>
      <trkpt lat="48.59" lon="2.01372">
        <ele>85</ele>
        <time>2020-05-31T12:33:34Z</time>
      </trkpt>
      <trkpt lat="48.59001" lon="2.01376">
        <ele>85</ele>
        <time>2020-05-31T12:33:36Z</time>
      </trkpt>
      <trkpt lat="48.59002" lon="2.01381">
        <ele>85</ele>
        <time>2020-05-31T12:33:38Z</time>
      </trkpt>
      <trkpt lat="48.59002" lon="2.01386">
        <ele>85</ele>
        <time>2020-05-31T12:33:40Z</time>
      </trkpt>
      <trkpt lat="48.59003" lon="2.01391">
        <ele>85</ele>
        <time>2020-05-31T12:33:42Z</time>
      </trkpt>
      <trkpt lat="48.59004" lon="2.01396">
        <ele>85</ele>
        <time>2020-05-31T12:33:44Z</time>
      </trkpt>
      <trkpt lat="48.59006" lon="2.014">
        <ele>85</ele>
        <time>2020-05-31T12:33:46Z</time>
      </trkpt>
      <trkpt lat="48.59006" lon="2.01405">
        <ele>85</ele>
        <time>2020-05-31T12:33:48Z</time>
      </trkpt>
      <trkpt lat="48.59007" lon="2.01409">
        <ele>85</ele>
        <time>2020-05-31T12:33:50Z</time>
      </trkpt>
      <trkpt lat="48.59007" lon="2.01414">
        <ele>85</ele>
        <time>2020-05-31T12:33:52Z</time>
      </trkpt>
      <trkpt lat="48.59008" lon="2.01418">
        <ele>85</ele>
        <time>2020-05-31T12:33:54Z</time>
      </trkpt>
      <trkpt lat="48.59009" lon="2.01422">
        <ele>84</ele>
        <time>2020-05-31T12:33:56Z</time>
      </trkpt>
      <trkpt lat="48.59009" lon="2.01425">
        <ele>84</ele>
        <time>2020-05-31T12:33:58Z</time>
      </trkpt>
      <trkpt lat="48.5901" lon="2.01428">
        <ele>84</ele>
        <time>2020-05-31T12:34:08Z</time>
      </trkpt>
      <trkpt lat="48.59012" lon="2.01428">
        <ele>83</ele>
        <time>2020-05-31T12:34:11Z</time>
      </trkpt>
      <trkpt lat="48.59013" lon="2.01424">
        <ele>83</ele>
        <time>2020-05-31T12:34:14Z</time>
      </trkpt>
      <trkpt lat="48.59013" lon="2.01421">
        <ele>83</ele>
        <time>2020-05-31T12:34:20Z</time>
      </trkpt>
      <trkpt lat="48.59014" lon="2.01425">
        <ele>84</ele>
        <time>2020-05-31T12:34:39Z</time>
      </trkpt>
      <trkpt lat="48.59014" lon="2.01429">
        <ele>84</ele>
        <time>2020-05-31T12:34:41Z</time>
      </trkpt>
      <trkpt lat="48.59014" lon="2.01434">
        <ele>84</ele>
        <time>2020-05-31T12:34:43Z</time>
      </trkpt>
      <trkpt lat="48.59014" lon="2.0144">
        <ele>84</ele>
        <time>2020-05-31T12:34:45Z</time>
      </trkpt>
      <trkpt lat="48.59014" lon="2.01445">
        <ele>84</ele>
        <time>2020-05-31T12:34:47Z</time>
      </trkpt>
      <trkpt lat="48.59014" lon="2.0145">
        <ele>84</ele>
        <time>2020-05-31T12:34:49Z</time>
      </trkpt>
      <trkpt lat="48.59015" lon="2.01455">
        <ele>84</ele>
        <time>2020-05-31T12:34:51Z</time>
      </trkpt>
      <trkpt lat="48.59016" lon="2.0146">
        <ele>84</ele>
        <time>2020-05-31T12:34:53Z</time>
      </trkpt>
      <trkpt lat="48.59017" lon="2.01465">
        <ele>84</ele>
        <time>2020-05-31T12:34:55Z</time>
      </trkpt>
      <trkpt lat="48.59017" lon="2.01469">
        <ele>85</ele>
        <time>2020-05-31T12:34:57Z</time>
      </trkpt>
      <trkpt lat="48.59018" lon="2.01474">
        <ele>85</ele>
        <time>2020-05-31T12:34:59Z</time>
      </trkpt>
      <trkpt lat="48.59019" lon="2.01479">
        <ele>85</ele>
        <time>2020-05-31T12:35:01Z</time>
      </trkpt>
      <trkpt lat="48.59019" lon="2.01484">
        <ele>85</ele>
        <time>2020-05-31T12:35:03Z</time>
      </trkpt>
      <trkpt lat="48.5902" lon="2.01489">
        <ele>85</ele>
        <time>2020-05-31T12:35:05Z</time>
      </trkpt>
      <trkpt lat="48.5902" lon="2.01494">
        <ele>85</ele>
        <time>2020-05-31T12:35:07Z</time>
      </trkpt>
      <trkpt lat="48.59021" lon="2.01498">
        <ele>85</ele>
        <time>2020-05-31T12:35:09Z</time>
      </trkpt>
      <trkpt lat="48.59022" lon="2.01504">
        <ele>85</ele>
        <time>2020-05-31T12:35:11Z</time>
      </trkpt>
      <trkpt lat="48.59024" lon="2.01508">
        <ele>85</ele>
        <time>2020-05-31T12:35:13Z</time>
      </trkpt>
      <trkpt lat="48.59025" lon="2.01513">
        <ele>85</ele>
        <time>2020-05-31T12:35:15Z</time>
      </trkpt>
      <trkpt lat="48.59026" lon="2.01518">
        <ele>85</ele>
        <time>2020-05-31T12:35:17Z</time>
      </trkpt>
      <trkpt lat="48.59027" lon="2.0152">
        <ele>85</ele>
        <time>2020-05-31T12:35:18Z</time>
      </trkpt>
      <trkpt lat="48.59028" lon="2.01523">
        <ele>85</ele>
        <time>2020-05-31T12:35:19Z</time>
      </trkpt>
      <trkpt lat="48.59029" lon="2.01527">
        <ele>85</ele>
        <time>2020-05-31T12:35:21Z</time>
      </trkpt>
      <trkpt lat="48.59031" lon="2.0153">
        <ele>85</ele>
        <time>2020-05-31T12:35:23Z</time>
      </trkpt>
      <trkpt lat="48.59033" lon="2.01534">
        <ele>85</ele>
        <time>2020-05-31T12:35:25Z</time>
      </trkpt>
      <trkpt lat="48.59035" lon="2.01538">
        <ele>85</ele>
        <time>2020-05-31T12:35:27Z</time>
      </trkpt>
      <trkpt lat="48.59037" lon="2.01542">
        <ele>86</ele>
        <time>2020-05-31T12:35:29Z</time>
      </trkpt>
      <trkpt lat="48.59038" lon="2.01547">
        <ele>86</ele>
        <time>2020-05-31T12:35:31Z</time>
      </trkpt>
      <trkpt lat="48.59039" lon="2.01551">
        <ele>86</ele>
        <time>2020-05-31T12:35:33Z</time>
      </trkpt>
      <trkpt lat="48.59041" lon="2.01555">
        <ele>86</ele>
        <time>2020-05-31T12:35:35Z</time>
      </trkpt>
      <trkpt lat="48.59043" lon="2.01558">
        <ele>86</ele>
        <time>2020-05-31T12:35:37Z</time>
      </trkpt>
      <trkpt lat="48.59044" lon="2.01563">
        <ele>86</ele>
        <time>2020-05-31T12:35:39Z</time>
      </trkpt>
      <trkpt lat="48.59046" lon="2.01567">
        <ele>86</ele>
        <time>2020-05-31T12:35:41Z</time>
      </trkpt>
      <trkpt lat="48.59048" lon="2.01571">
        <ele>86</ele>
        <time>2020-05-31T12:35:43Z</time>
      </trkpt>
      <trkpt lat="48.5905" lon="2.01575">
        <ele>87</ele>
        <time>2020-05-31T12:35:45Z</time>
      </trkpt>
      <trkpt lat="48.59052" lon="2.01577">
        <ele>87</ele>
        <time>2020-05-31T12:35:46Z</time>
      </trkpt>
      <trkpt lat="48.59054" lon="2.0158">
        <ele>87</ele>
        <time>2020-05-31T12:35:48Z</time>
      </trkpt>
      <trkpt lat="48.59056" lon="2.01584">
        <ele>87</ele>
        <time>2020-05-31T12:35:50Z</time>
      </trkpt>
      <trkpt lat="48.59058" lon="2.01588">
        <ele>87</ele>
        <time>2020-05-31T12:35:52Z</time>
      </trkpt>
      <trkpt lat="48.5906" lon="2.01591">
        <ele>87</ele>
        <time>2020-05-31T12:35:54Z</time>
      </trkpt>
      <trkpt lat="48.59062" lon="2.01595">
        <ele>87</ele>
        <time>2020-05-31T12:35:56Z</time>
      </trkpt>
      <trkpt lat="48.59064" lon="2.01599">
        <ele>87</ele>
        <time>2020-05-31T12:35:58Z</time>
      </trkpt>
      <trkpt lat="48.59066" lon="2.01604">
        <ele>87</ele>
        <time>2020-05-31T12:36:00Z</time>
      </trkpt>
      <trkpt lat="48.59067" lon="2.01608">
        <ele>87</ele>
        <time>2020-05-31T12:36:02Z</time>
      </trkpt>
      <trkpt lat="48.59068" lon="2.01613">
        <ele>87</ele>
        <time>2020-05-31T12:36:04Z</time>
      </trkpt>
      <trkpt lat="48.5907" lon="2.01618">
        <ele>88</ele>
        <time>2020-05-31T12:36:06Z</time>
      </trkpt>
      <trkpt lat="48.59072" lon="2.01622">
        <ele>88</ele>
        <time>2020-05-31T12:36:08Z</time>
      </trkpt>
      <trkpt lat="48.59073" lon="2.01627">
        <ele>88</ele>
        <time>2020-05-31T12:36:10Z</time>
      </trkpt>
      <trkpt lat="48.59075" lon="2.01631">
        <ele>88</ele>
        <time>2020-05-31T12:36:12Z</time>
      </trkpt>
      <trkpt lat="48.59076" lon="2.01635">
        <ele>89</ele>
        <time>2020-05-31T12:36:14Z</time>
      </trkpt>
      <trkpt lat="48.59077" lon="2.0164">
        <ele>89</ele>
        <time>2020-05-31T12:36:16Z</time>
      </trkpt>
      <trkpt lat="48.59077" lon="2.01645">
        <ele>89</ele>
        <time>2020-05-31T12:36:18Z</time>
      </trkpt>
      <trkpt lat="48.59077" lon="2.0165">
        <ele>89</ele>
        <time>2020-05-31T12:36:20Z</time>
      </trkpt>
      <trkpt lat="48.59077" lon="2.01655">
        <ele>90</ele>
        <time>2020-05-31T12:36:22Z</time>
      </trkpt>
      <trkpt lat="48.59077" lon="2.0166">
        <ele>90</ele>
        <time>2020-05-31T12:36:24Z</time>
      </trkpt>
      <trkpt lat="48.59077" lon="2.01665">
        <ele>90</ele>
        <time>2020-05-31T12:36:26Z</time>
      </trkpt>
      <trkpt lat="48.59077" lon="2.0167">
        <ele>90</ele>
        <time>2020-05-31T12:36:28Z</time>
      </trkpt>
      <trkpt lat="48.59077" lon="2.01675">
        <ele>91</ele>
        <time>2020-05-31T12:36:30Z</time>
      </trkpt>
      <trkpt lat="48.59076" lon="2.0168">
        <ele>91</ele>
        <time>2020-05-31T12:36:32Z</time>
      </trkpt>
      <trkpt lat="48.59076" lon="2.01685">
        <ele>92</ele>
        <time>2020-05-31T12:36:34Z</time>
      </trkpt>
      <trkpt lat="48.59077" lon="2.0169">
        <ele>92</ele>
        <time>2020-05-31T12:36:36Z</time>
      </trkpt>
      <trkpt lat="48.59078" lon="2.01695">
        <ele>92</ele>
        <time>2020-05-31T12:36:38Z</time>
      </trkpt>
      <trkpt lat="48.59078" lon="2.01699">
        <ele>92</ele>
        <time>2020-05-31T12:36:40Z</time>
      </trkpt>
      <trkpt lat="48.59077" lon="2.01704">
        <ele>93</ele>
        <time>2020-05-31T12:36:42Z</time>
      </trkpt>
      <trkpt lat="48.59077" lon="2.01709">
        <ele>93</ele>
        <time>2020-05-31T12:36:44Z</time>
      </trkpt>
      <trkpt lat="48.59076" lon="2.01714">
        <ele>93</ele>
        <time>2020-05-31T12:36:46Z</time>
      </trkpt>
      <trkpt lat="48.59076" lon="2.01719">
        <ele>93</ele>
        <time>2020-05-31T12:36:48Z</time>
      </trkpt>
      <trkpt lat="48.59076" lon="2.01724">
        <ele>94</ele>
        <time>2020-05-31T12:36:50Z</time>
      </trkpt>
      <trkpt lat="48.59076" lon="2.0173">
        <ele>94</ele>
        <time>2020-05-31T12:36:52Z</time>
      </trkpt>
      <trkpt lat="48.59076" lon="2.01735">
        <ele>94</ele>
        <time>2020-05-31T12:36:54Z</time>
      </trkpt>
      <trkpt lat="48.59076" lon="2.0174">
        <ele>94</ele>
        <time>2020-05-31T12:36:56Z</time>
      </trkpt>
      <trkpt lat="48.59076" lon="2.01745">
        <ele>95</ele>
        <time>2020-05-31T12:36:58Z</time>
      </trkpt>
      <trkpt lat="48.59076" lon="2.0175">
        <ele>95</ele>
        <time>2020-05-31T12:37:00Z</time>
      </trkpt>
      <trkpt lat="48.59075" lon="2.01753">
        <ele>95</ele>
        <time>2020-05-31T12:37:01Z</time>
      </trkpt>
      <trkpt lat="48.59075" lon="2.01755">
        <ele>95</ele>
        <time>2020-05-31T12:37:02Z</time>
      </trkpt>
      <trkpt lat="48.59075" lon="2.0176">
        <ele>95</ele>
        <time>2020-05-31T12:37:04Z</time>
      </trkpt>
      <trkpt lat="48.59075" lon="2.01766">
        <ele>95</ele>
        <time>2020-05-31T12:37:06Z</time>
      </trkpt>
      <trkpt lat="48.59075" lon="2.01771">
        <ele>95</ele>
        <time>2020-05-31T12:37:08Z</time>
      </trkpt>
      <trkpt lat="48.59075" lon="2.01775">
        <ele>95</ele>
        <time>2020-05-31T12:37:10Z</time>
      </trkpt>
      <trkpt lat="48.59076" lon="2.0178">
        <ele>96</ele>
        <time>2020-05-31T12:37:12Z</time>
      </trkpt>
      <trkpt lat="48.59076" lon="2.01784">
        <ele>96</ele>
        <time>2020-05-31T12:37:14Z</time>
      </trkpt>
      <trkpt lat="48.59077" lon="2.01789">
        <ele>96</ele>
        <time>2020-05-31T12:37:16Z</time>
      </trkpt>
      <trkpt lat="48.59078" lon="2.01794">
        <ele>96</ele>
        <time>2020-05-31T12:37:18Z</time>
      </trkpt>
      <trkpt lat="48.59079" lon="2.018">
        <ele>96</ele>
        <time>2020-05-31T12:37:21Z</time>
      </trkpt>
      <trkpt lat="48.59079" lon="2.01804">
        <ele>96</ele>
        <time>2020-05-31T12:37:23Z</time>
      </trkpt>
      <trkpt lat="48.5908" lon="2.01809">
        <ele>96</ele>
        <time>2020-05-31T12:37:25Z</time>
      </trkpt>
      <trkpt lat="48.59084" lon="2.01816">
        <ele>97</ele>
        <time>2020-05-31T12:37:28Z</time>
      </trkpt>
      <trkpt lat="48.59086" lon="2.01823">
        <ele>97</ele>
        <time>2020-05-31T12:37:31Z</time>
      </trkpt>
      <trkpt lat="48.59088" lon="2.01828">
        <ele>97</ele>
        <time>2020-05-31T12:37:33Z</time>
      </trkpt>
      <trkpt lat="48.5909" lon="2.01834">
        <ele>98</ele>
        <time>2020-05-31T12:37:36Z</time>
      </trkpt>
      <trkpt lat="48.59091" lon="2.01839">
        <ele>98</ele>
        <time>2020-05-31T12:37:38Z</time>
      </trkpt>
      <trkpt lat="48.59092" lon="2.01841">
        <ele>98</ele>
        <time>2020-05-31T12:37:39Z</time>
      </trkpt>
      <trkpt lat="48.59093" lon="2.01844">
        <ele>98</ele>
        <time>2020-05-31T12:37:40Z</time>
      </trkpt>
      <trkpt lat="48.59094" lon="2.01846">
        <ele>98</ele>
        <time>2020-05-31T12:37:41Z</time>
      </trkpt>
      <trkpt lat="48.59095" lon="2.01849">
        <ele>98</ele>
        <time>2020-05-31T12:37:43Z</time>
      </trkpt>
      <trkpt lat="48.59098" lon="2.01855">
        <ele>99</ele>
        <time>2020-05-31T12:37:46Z</time>
      </trkpt>
      <trkpt lat="48.59101" lon="2.01862">
        <ele>99</ele>
        <time>2020-05-31T12:37:49Z</time>
      </trkpt>
      <trkpt lat="48.59103" lon="2.01867">
        <ele>99</ele>
        <time>2020-05-31T12:37:51Z</time>
      </trkpt>
      <trkpt lat="48.59104" lon="2.01869">
        <ele>99</ele>
        <time>2020-05-31T12:37:52Z</time>
      </trkpt>
      <trkpt lat="48.59106" lon="2.01874">
        <ele>99</ele>
        <time>2020-05-31T12:37:54Z</time>
      </trkpt>
      <trkpt lat="48.59111" lon="2.01887">
        <ele>99</ele>
        <time>2020-05-31T12:38:00Z</time>
      </trkpt>
      <trkpt lat="48.59113" lon="2.01891">
        <ele>100</ele>
        <time>2020-05-31T12:38:02Z</time>
      </trkpt>
      <trkpt lat="48.59115" lon="2.01895">
        <ele>100</ele>
        <time>2020-05-31T12:38:04Z</time>
      </trkpt>
      <trkpt lat="48.59117" lon="2.01899">
        <ele>101</ele>
        <time>2020-05-31T12:38:06Z</time>
      </trkpt>
      <trkpt lat="48.59119" lon="2.01903">
        <ele>101</ele>
        <time>2020-05-31T12:38:08Z</time>
      </trkpt>
      <trkpt lat="48.59121" lon="2.01906">
        <ele>101</ele>
        <time>2020-05-31T12:38:10Z</time>
      </trkpt>
      <trkpt lat="48.59122" lon="2.01911">
        <ele>102</ele>
        <time>2020-05-31T12:38:12Z</time>
      </trkpt>
      <trkpt lat="48.59123" lon="2.01913">
        <ele>102</ele>
        <time>2020-05-31T12:38:13Z</time>
      </trkpt>
      <trkpt lat="48.59125" lon="2.01917">
        <ele>102</ele>
        <time>2020-05-31T12:38:15Z</time>
      </trkpt>
      <trkpt lat="48.59128" lon="2.01921">
        <ele>102</ele>
        <time>2020-05-31T12:38:17Z</time>
      </trkpt>
      <trkpt lat="48.59129" lon="2.01924">
        <ele>102</ele>
        <time>2020-05-31T12:38:18Z</time>
      </trkpt>
      <trkpt lat="48.59131" lon="2.01928">
        <ele>102</ele>
        <time>2020-05-31T12:38:20Z</time>
      </trkpt>
      <trkpt lat="48.59133" lon="2.01932">
        <ele>102</ele>
        <time>2020-05-31T12:38:22Z</time>
      </trkpt>
      <trkpt lat="48.59135" lon="2.01936">
        <ele>102</ele>
        <time>2020-05-31T12:38:24Z</time>
      </trkpt>
      <trkpt lat="48.59137" lon="2.0194">
        <ele>103</ele>
        <time>2020-05-31T12:38:26Z</time>
      </trkpt>
      <trkpt lat="48.59137" lon="2.01945">
        <ele>103</ele>
        <time>2020-05-31T12:38:28Z</time>
      </trkpt>
      <trkpt lat="48.59137" lon="2.0195">
        <ele>103</ele>
        <time>2020-05-31T12:38:30Z</time>
      </trkpt>
      <trkpt lat="48.59138" lon="2.01953">
        <ele>103</ele>
        <time>2020-05-31T12:38:32Z</time>
      </trkpt>
      <trkpt lat="48.59139" lon="2.01957">
        <ele>104</ele>
        <time>2020-05-31T12:38:34Z</time>
      </trkpt>
      <trkpt lat="48.5914" lon="2.01959">
        <ele>104</ele>
        <time>2020-05-31T12:38:36Z</time>
      </trkpt>
      <trkpt lat="48.59141" lon="2.01962">
        <ele>104</ele>
        <time>2020-05-31T12:38:38Z</time>
      </trkpt>
      <trkpt lat="48.59142" lon="2.01965">
        <ele>104</ele>
        <time>2020-05-31T12:38:40Z</time>
      </trkpt>
      <trkpt lat="48.59143" lon="2.01969">
        <ele>104</ele>
        <time>2020-05-31T12:38:42Z</time>
      </trkpt>
      <trkpt lat="48.59144" lon="2.01973">
        <ele>105</ele>
        <time>2020-05-31T12:38:44Z</time>
      </trkpt>
      <trkpt lat="48.59145" lon="2.01976">
        <ele>105</ele>
        <time>2020-05-31T12:38:46Z</time>
      </trkpt>
      <trkpt lat="48.59145" lon="2.0198">
        <ele>105</ele>
        <time>2020-05-31T12:38:48Z</time>
      </trkpt>
      <trkpt lat="48.59145" lon="2.01983">
        <ele>105</ele>
        <time>2020-05-31T12:38:50Z</time>
      </trkpt>
      <trkpt lat="48.59146" lon="2.01987">
        <ele>105</ele>
        <time>2020-05-31T12:38:52Z</time>
      </trkpt>
      <trkpt lat="48.59147" lon="2.0199">
        <ele>105</ele>
        <time>2020-05-31T12:38:53Z</time>
      </trkpt>
      <trkpt lat="48.59148" lon="2.01996">
        <ele>105</ele>
        <time>2020-05-31T12:38:55Z</time>
      </trkpt>
      <trkpt lat="48.59149" lon="2.01999">
        <ele>105</ele>
        <time>2020-05-31T12:38:56Z</time>
      </trkpt>
      <trkpt lat="48.5915" lon="2.02003">
        <ele>105</ele>
        <time>2020-05-31T12:38:57Z</time>
      </trkpt>
      <trkpt lat="48.5915" lon="2.02005">
        <ele>105</ele>
        <time>2020-05-31T12:38:58Z</time>
      </trkpt>
      <trkpt lat="48.59151" lon="2.02008">
        <ele>105</ele>
        <time>2020-05-31T12:38:59Z</time>
      </trkpt>
      <trkpt lat="48.59154" lon="2.02025">
        <ele>105</ele>
        <time>2020-05-31T12:39:04Z</time>
      </trkpt>
      <trkpt lat="48.59157" lon="2.02042">
        <ele>105</ele>
        <time>2020-05-31T12:39:08Z</time>
      </trkpt>
      <trkpt lat="48.59161" lon="2.02055">
        <ele>105</ele>
        <time>2020-05-31T12:39:11Z</time>
      </trkpt>
      <trkpt lat="48.59163" lon="2.02066">
        <ele>104</ele>
        <time>2020-05-31T12:39:13Z</time>
      </trkpt>
      <trkpt lat="48.59164" lon="2.02071">
        <ele>104</ele>
        <time>2020-05-31T12:39:14Z</time>
      </trkpt>
      <trkpt lat="48.59165" lon="2.02076">
        <ele>104</ele>
        <time>2020-05-31T12:39:15Z</time>
      </trkpt>
      <trkpt lat="48.59166" lon="2.0208">
        <ele>104</ele>
        <time>2020-05-31T12:39:16Z</time>
      </trkpt>
      <trkpt lat="48.59166" lon="2.02086">
        <ele>104</ele>
        <time>2020-05-31T12:39:17Z</time>
      </trkpt>
      <trkpt lat="48.59168" lon="2.02104">
        <ele>105</ele>
        <time>2020-05-31T12:39:20Z</time>
      </trkpt>
      <trkpt lat="48.59169" lon="2.02123">
        <ele>105</ele>
        <time>2020-05-31T12:39:23Z</time>
      </trkpt>
      <trkpt lat="48.59169" lon="2.02142">
        <ele>105</ele>
        <time>2020-05-31T12:39:26Z</time>
      </trkpt>
      <trkpt lat="48.59171" lon="2.02163">
        <ele>105</ele>
        <time>2020-05-31T12:39:29Z</time>
      </trkpt>
      <trkpt lat="48.59173" lon="2.02176">
        <ele>105</ele>
        <time>2020-05-31T12:39:31Z</time>
      </trkpt>
      <trkpt lat="48.59173" lon="2.02194">
        <ele>106</ele>
        <time>2020-05-31T12:39:34Z</time>
      </trkpt>
      <trkpt lat="48.59172" lon="2.02208">
        <ele>106</ele>
        <time>2020-05-31T12:39:36Z</time>
      </trkpt>
      <trkpt lat="48.59172" lon="2.02228">
        <ele>107</ele>
        <time>2020-05-31T12:39:39Z</time>
      </trkpt>
      <trkpt lat="48.59173" lon="2.02248">
        <ele>107</ele>
        <time>2020-05-31T12:39:42Z</time>
      </trkpt>
      <trkpt lat="48.59175" lon="2.02262">
        <ele>108</ele>
        <time>2020-05-31T12:39:44Z</time>
      </trkpt>
      <trkpt lat="48.59173" lon="2.02277">
        <ele>108</ele>
        <time>2020-05-31T12:39:46Z</time>
      </trkpt>
      <trkpt lat="48.59173" lon="2.02291">
        <ele>109</ele>
        <time>2020-05-31T12:39:48Z</time>
      </trkpt>
      <trkpt lat="48.59171" lon="2.02307">
        <ele>109</ele>
        <time>2020-05-31T12:39:50Z</time>
      </trkpt>
      <trkpt lat="48.59169" lon="2.02325">
        <ele>109</ele>
        <time>2020-05-31T12:39:52Z</time>
      </trkpt>
      <trkpt lat="48.59168" lon="2.02345">
        <ele>110</ele>
        <time>2020-05-31T12:39:54Z</time>
      </trkpt>
      <trkpt lat="48.59167" lon="2.02364">
        <ele>111</ele>
        <time>2020-05-31T12:39:56Z</time>
      </trkpt>
      <trkpt lat="48.59166" lon="2.02384">
        <ele>111</ele>
        <time>2020-05-31T12:39:58Z</time>
      </trkpt>
      <trkpt lat="48.59165" lon="2.02405">
        <ele>112</ele>
        <time>2020-05-31T12:40:00Z</time>
      </trkpt>
      <trkpt lat="48.59163" lon="2.02429">
        <ele>112</ele>
        <time>2020-05-31T12:40:02Z</time>
      </trkpt>
      <trkpt lat="48.59162" lon="2.02452">
        <ele>112</ele>
        <time>2020-05-31T12:40:04Z</time>
      </trkpt>
      <trkpt lat="48.59163" lon="2.02475">
        <ele>112</ele>
        <time>2020-05-31T12:40:06Z</time>
      </trkpt>
      <trkpt lat="48.59164" lon="2.02498">
        <ele>112</ele>
        <time>2020-05-31T12:40:08Z</time>
      </trkpt>
      <trkpt lat="48.59164" lon="2.0252">
        <ele>112</ele>
        <time>2020-05-31T12:40:10Z</time>
      </trkpt>
      <trkpt lat="48.59165" lon="2.02538">
        <ele>112</ele>
        <time>2020-05-31T12:40:12Z</time>
      </trkpt>
      <trkpt lat="48.59168" lon="2.02556">
        <ele>112</ele>
        <time>2020-05-31T12:40:14Z</time>
      </trkpt>
      <trkpt lat="48.59169" lon="2.02573">
        <ele>112</ele>
        <time>2020-05-31T12:40:16Z</time>
      </trkpt>
      <trkpt lat="48.59168" lon="2.02594">
        <ele>112</ele>
        <time>2020-05-31T12:40:18Z</time>
      </trkpt>
      <trkpt lat="48.59166" lon="2.02614">
        <ele>113</ele>
        <time>2020-05-31T12:40:20Z</time>
      </trkpt>
      <trkpt lat="48.59166" lon="2.0263">
        <ele>113</ele>
        <time>2020-05-31T12:40:22Z</time>
      </trkpt>
      <trkpt lat="48.59166" lon="2.02646">
        <ele>113</ele>
        <time>2020-05-31T12:40:24Z</time>
      </trkpt>
      <trkpt lat="48.59163" lon="2.02662">
        <ele>114</ele>
        <time>2020-05-31T12:40:26Z</time>
      </trkpt>
      <trkpt lat="48.59162" lon="2.02677">
        <ele>114</ele>
        <time>2020-05-31T12:40:28Z</time>
      </trkpt>
      <trkpt lat="48.5916" lon="2.02694">
        <ele>114</ele>
        <time>2020-05-31T12:40:30Z</time>
      </trkpt>
      <trkpt lat="48.59158" lon="2.02711">
        <ele>115</ele>
        <time>2020-05-31T12:40:32Z</time>
      </trkpt>
      <trkpt lat="48.59156" lon="2.02727">
        <ele>115</ele>
        <time>2020-05-31T12:40:34Z</time>
      </trkpt>
      <trkpt lat="48.59155" lon="2.02743">
        <ele>115</ele>
        <time>2020-05-31T12:40:36Z</time>
      </trkpt>
      <trkpt lat="48.59155" lon="2.0276">
        <ele>115</ele>
        <time>2020-05-31T12:40:38Z</time>
      </trkpt>
      <trkpt lat="48.59153" lon="2.02776">
        <ele>115</ele>
        <time>2020-05-31T12:40:40Z</time>
      </trkpt>
      <trkpt lat="48.59153" lon="2.02792">
        <ele>116</ele>
        <time>2020-05-31T12:40:42Z</time>
      </trkpt>
      <trkpt lat="48.5915" lon="2.02808">
        <ele>116</ele>
        <time>2020-05-31T12:40:44Z</time>
      </trkpt>
      <trkpt lat="48.59147" lon="2.02824">
        <ele>117</ele>
        <time>2020-05-31T12:40:46Z</time>
      </trkpt>
      <trkpt lat="48.59145" lon="2.02841">
        <ele>117</ele>
        <time>2020-05-31T12:40:48Z</time>
      </trkpt>
      <trkpt lat="48.59144" lon="2.02858">
        <ele>117</ele>
        <time>2020-05-31T12:40:50Z</time>
      </trkpt>
      <trkpt lat="48.59144" lon="2.02876">
        <ele>117</ele>
        <time>2020-05-31T12:40:52Z</time>
      </trkpt>
      <trkpt lat="48.59145" lon="2.02893">
        <ele>118</ele>
        <time>2020-05-31T12:40:54Z</time>
      </trkpt>
      <trkpt lat="48.59145" lon="2.0291">
        <ele>118</ele>
        <time>2020-05-31T12:40:56Z</time>
      </trkpt>
      <trkpt lat="48.59145" lon="2.02927">
        <ele>118</ele>
        <time>2020-05-31T12:40:58Z</time>
      </trkpt>
      <trkpt lat="48.59146" lon="2.02943">
        <ele>118</ele>
        <time>2020-05-31T12:41:00Z</time>
      </trkpt>
      <trkpt lat="48.59147" lon="2.02963">
        <ele>118</ele>
        <time>2020-05-31T12:41:02Z</time>
      </trkpt>
      <trkpt lat="48.59148" lon="2.02986">
        <ele>118</ele>
        <time>2020-05-31T12:41:04Z</time>
      </trkpt>
      <trkpt lat="48.59149" lon="2.02998">
        <ele>118</ele>
        <time>2020-05-31T12:41:05Z</time>
      </trkpt>
      <trkpt lat="48.5915" lon="2.0301">
        <ele>118</ele>
        <time>2020-05-31T12:41:06Z</time>
      </trkpt>
      <trkpt lat="48.59151" lon="2.03024">
        <ele>118</ele>
        <time>2020-05-31T12:41:07Z</time>
      </trkpt>
      <trkpt lat="48.59152" lon="2.03038">
        <ele>118</ele>
        <time>2020-05-31T12:41:08Z</time>
      </trkpt>
      <trkpt lat="48.59153" lon="2.03052">
        <ele>118</ele>
        <time>2020-05-31T12:41:09Z</time>
      </trkpt>
      <trkpt lat="48.59155" lon="2.03066">
        <ele>118</ele>
        <time>2020-05-31T12:41:10Z</time>
      </trkpt>
      <trkpt lat="48.59156" lon="2.03079">
        <ele>119</ele>
        <time>2020-05-31T12:41:11Z</time>
      </trkpt>
      <trkpt lat="48.59158" lon="2.03092">
        <ele>119</ele>
        <time>2020-05-31T12:41:12Z</time>
      </trkpt>
      <trkpt lat="48.59159" lon="2.03104">
        <ele>119</ele>
        <time>2020-05-31T12:41:13Z</time>
      </trkpt>
      <trkpt lat="48.59159" lon="2.03117">
        <ele>119</ele>
        <time>2020-05-31T12:41:14Z</time>
      </trkpt>
      <trkpt lat="48.5916" lon="2.03129">
        <ele>119</ele>
        <time>2020-05-31T12:41:15Z</time>
      </trkpt>
      <trkpt lat="48.59161" lon="2.0314">
        <ele>119</ele>
        <time>2020-05-31T12:41:16Z</time>
      </trkpt>
      <trkpt lat="48.59161" lon="2.03151">
        <ele>119</ele>
        <time>2020-05-31T12:41:17Z</time>
      </trkpt>
      <trkpt lat="48.5916" lon="2.03161">
        <ele>119</ele>
        <time>2020-05-31T12:41:18Z</time>
      </trkpt>
      <trkpt lat="48.59159" lon="2.03181">
        <ele>119</ele>
        <time>2020-05-31T12:41:20Z</time>
      </trkpt>
      <trkpt lat="48.59159" lon="2.03201">
        <ele>119</ele>
        <time>2020-05-31T12:41:22Z</time>
      </trkpt>
      <trkpt lat="48.59159" lon="2.0322">
        <ele>120</ele>
        <time>2020-05-31T12:41:24Z</time>
      </trkpt>
      <trkpt lat="48.59161" lon="2.0324">
        <ele>120</ele>
        <time>2020-05-31T12:41:26Z</time>
      </trkpt>
      <trkpt lat="48.59162" lon="2.0326">
        <ele>120</ele>
        <time>2020-05-31T12:41:28Z</time>
      </trkpt>
      <trkpt lat="48.59166" lon="2.03278">
        <ele>120</ele>
        <time>2020-05-31T12:41:30Z</time>
      </trkpt>
      <trkpt lat="48.59167" lon="2.03293">
        <ele>120</ele>
        <time>2020-05-31T12:41:32Z</time>
      </trkpt>
      <trkpt lat="48.59166" lon="2.03307">
        <ele>120</ele>
        <time>2020-05-31T12:41:34Z</time>
      </trkpt>
      <trkpt lat="48.59165" lon="2.03325">
        <ele>121</ele>
        <time>2020-05-31T12:41:37Z</time>
      </trkpt>
      <trkpt lat="48.59163" lon="2.03342">
        <ele>121</ele>
        <time>2020-05-31T12:41:40Z</time>
      </trkpt>
      <trkpt lat="48.59164" lon="2.03356">
        <ele>121</ele>
        <time>2020-05-31T12:41:43Z</time>
      </trkpt>
      <trkpt lat="48.59167" lon="2.03372">
        <ele>121</ele>
        <time>2020-05-31T12:41:46Z</time>
      </trkpt>
      <trkpt lat="48.59168" lon="2.03391">
        <ele>121</ele>
        <time>2020-05-31T12:41:49Z</time>
      </trkpt>
      <trkpt lat="48.59169" lon="2.03409">
        <ele>121</ele>
        <time>2020-05-31T12:41:52Z</time>
      </trkpt>
      <trkpt lat="48.59171" lon="2.03426">
        <ele>121</ele>
        <time>2020-05-31T12:41:55Z</time>
      </trkpt>
      <trkpt lat="48.59173" lon="2.03441">
        <ele>121</ele>
        <time>2020-05-31T12:41:58Z</time>
      </trkpt>
      <trkpt lat="48.59175" lon="2.03456">
        <ele>121</ele>
        <time>2020-05-31T12:42:02Z</time>
      </trkpt>
      <trkpt lat="48.59176" lon="2.03472">
        <ele>122</ele>
        <time>2020-05-31T12:42:07Z</time>
      </trkpt>
      <trkpt lat="48.59177" lon="2.03483">
        <ele>123</ele>
        <time>2020-05-31T12:42:11Z</time>
      </trkpt>
      <trkpt lat="48.59177" lon="2.03488">
        <ele>123</ele>
        <time>2020-05-31T12:42:13Z</time>
      </trkpt>
      <trkpt lat="48.59178" lon="2.03492">
        <ele>123</ele>
        <time>2020-05-31T12:42:15Z</time>
      </trkpt>
      <trkpt lat="48.59178" lon="2.03497">
        <ele>122</ele>
        <time>2020-05-31T12:42:17Z</time>
      </trkpt>
      <trkpt lat="48.59179" lon="2.03502">
        <ele>122</ele>
        <time>2020-05-31T12:42:19Z</time>
      </trkpt>
      <trkpt lat="48.5918" lon="2.03506">
        <ele>121</ele>
        <time>2020-05-31T12:42:21Z</time>
      </trkpt>
      <trkpt lat="48.59178" lon="2.03507">
        <ele>121</ele>
        <time>2020-05-31T12:42:28Z</time>
      </trkpt>
      <trkpt lat="48.59179" lon="2.0351">
        <ele>120</ele>
        <time>2020-05-31T12:42:51Z</time>
      </trkpt>
      <trkpt lat="48.59179" lon="2.03513">
        <ele>120</ele>
        <time>2020-05-31T12:42:53Z</time>
      </trkpt>
      <trkpt lat="48.59178" lon="2.03515">
        <ele>120</ele>
        <time>2020-05-31T12:42:56Z</time>
      </trkpt>
      <trkpt lat="48.59177" lon="2.03513">
        <ele>120</ele>
        <time>2020-05-31T12:43:01Z</time>
      </trkpt>
      <trkpt lat="48.59176" lon="2.03509">
        <ele>120</ele>
        <time>2020-05-31T12:43:03Z</time>
      </trkpt>
      <trkpt lat="48.59177" lon="2.03506">
        <ele>120</ele>
        <time>2020-05-31T12:43:05Z</time>
      </trkpt>
      <trkpt lat="48.59176" lon="2.03502">
        <ele>120</ele>
        <time>2020-05-31T12:43:09Z</time>
      </trkpt>
      <trkpt lat="48.59176" lon="2.03498">
        <ele>120</ele>
        <time>2020-05-31T12:43:11Z</time>
      </trkpt>
      <trkpt lat="48.59176" lon="2.03495">
        <ele>120</ele>
        <time>2020-05-31T12:43:13Z</time>
      </trkpt>
      <trkpt lat="48.59176" lon="2.03492">
        <ele>120</ele>
        <time>2020-05-31T12:43:15Z</time>
      </trkpt>
      <trkpt lat="48.59176" lon="2.03489">
        <ele>120</ele>
        <time>2020-05-31T12:43:17Z</time>
      </trkpt>
      <trkpt lat="48.59177" lon="2.0349">
        <ele>121</ele>
        <time>2020-05-31T12:43:19Z</time>
      </trkpt>
      <trkpt lat="48.59178" lon="2.03495">
        <ele>120</ele>
        <time>2020-05-31T12:43:21Z</time>
      </trkpt>
      <trkpt lat="48.59179" lon="2.03499">
        <ele>120</ele>
        <time>2020-05-31T12:43:23Z</time>
      </trkpt>
      <trkpt lat="48.5918" lon="2.03503">
        <ele>121</ele>
        <time>2020-05-31T12:43:25Z</time>
      </trkpt>
      <trkpt lat="48.59179" lon="2.03506">
        <ele>121</ele>
        <time>2020-05-31T12:43:28Z</time>
      </trkpt>
      <trkpt lat="48.59179" lon="2.0351">
        <ele>121</ele>
        <time>2020-05-31T12:43:37Z</time>
      </trkpt>
      <trkpt lat="48.5918" lon="2.03515">
        <ele>121</ele>
        <time>2020-05-31T12:43:39Z</time>
      </trkpt>
      <trkpt lat="48.5918" lon="2.03519">
        <ele>121</ele>
        <time>2020-05-31T12:43:41Z</time>
      </trkpt>
      <trkpt lat="48.59181" lon="2.03524">
        <ele>121</ele>
        <time>2020-05-31T12:43:43Z</time>
      </trkpt>
      <trkpt lat="48.59181" lon="2.03529">
        <ele>121</ele>
        <time>2020-05-31T12:43:45Z</time>
      </trkpt>
      <trkpt lat="48.59182" lon="2.03533">
        <ele>122</ele>
        <time>2020-05-31T12:43:47Z</time>
      </trkpt>
      <trkpt lat="48.59182" lon="2.03537">
        <ele>122</ele>
        <time>2020-05-31T12:43:49Z</time>
      </trkpt>
      <trkpt lat="48.59182" lon="2.03541">
        <ele>122</ele>
        <time>2020-05-31T12:43:51Z</time>
      </trkpt>
      <trkpt lat="48.59182" lon="2.03545">
        <ele>122</ele>
        <time>2020-05-31T12:43:53Z</time>
      </trkpt>
      <trkpt lat="48.59182" lon="2.03549">
        <ele>122</ele>
        <time>2020-05-31T12:43:55Z</time>
      </trkpt>
      <trkpt lat="48.59181" lon="2.03554">
        <ele>122</ele>
        <time>2020-05-31T12:43:57Z</time>
      </trkpt>
      <trkpt lat="48.59181" lon="2.03558">
        <ele>122</ele>
        <time>2020-05-31T12:43:59Z</time>
      </trkpt>
      <trkpt lat="48.59181" lon="2.03562">
        <ele>123</ele>
        <time>2020-05-31T12:44:01Z</time>
      </trkpt>
      <trkpt lat="48.59181" lon="2.03566">
        <ele>123</ele>
        <time>2020-05-31T12:44:03Z</time>
      </trkpt>
      <trkpt lat="48.59182" lon="2.03571">
        <ele>123</ele>
        <time>2020-05-31T12:44:05Z</time>
      </trkpt>
      <trkpt lat="48.59183" lon="2.03575">
        <ele>123</ele>
        <time>2020-05-31T12:44:07Z</time>
      </trkpt>
      <trkpt lat="48.59183" lon="2.0358">
        <ele>123</ele>
        <time>2020-05-31T12:44:09Z</time>
      </trkpt>
      <trkpt lat="48.59183" lon="2.03586">
        <ele>123</ele>
        <time>2020-05-31T12:44:11Z</time>
      </trkpt>
      <trkpt lat="48.59183" lon="2.03589">
        <ele>123</ele>
        <time>2020-05-31T12:44:12Z</time>
      </trkpt>
      <trkpt lat="48.59182" lon="2.03593">
        <ele>123</ele>
        <time>2020-05-31T12:44:14Z</time>
      </trkpt>
      <trkpt lat="48.59183" lon="2.03596">
        <ele>123</ele>
        <time>2020-05-31T12:44:17Z</time>
      </trkpt>
      <trkpt lat="48.59181" lon="2.03594">
        <ele>123</ele>
        <time>2020-05-31T12:44:21Z</time>
      </trkpt>
      <trkpt lat="48.59183" lon="2.03597">
        <ele>123</ele>
        <time>2020-05-31T12:44:27Z</time>
      </trkpt>
      <trkpt lat="48.5918" lon="2.03596">
        <ele>122</ele>
        <time>2020-05-31T12:44:35Z</time>
      </trkpt>
      <trkpt lat="48.5918" lon="2.03599">
        <ele>123</ele>
        <time>2020-05-31T12:44:59Z</time>
      </trkpt>
      <trkpt lat="48.59177" lon="2.03599">
        <ele>123</ele>
        <time>2020-05-31T12:45:02Z</time>
      </trkpt>
      <trkpt lat="48.59177" lon="2.03596">
        <ele>123</ele>
        <time>2020-05-31T12:45:15Z</time>
      </trkpt>
      <trkpt lat="48.59178" lon="2.03592">
        <ele>123</ele>
        <time>2020-05-31T12:45:18Z</time>
      </trkpt>
      <trkpt lat="48.59176" lon="2.03591">
        <ele>124</ele>
        <time>2020-05-31T12:45:27Z</time>
      </trkpt>
      <trkpt lat="48.59177" lon="2.03594">
        <ele>124</ele>
        <time>2020-05-31T12:45:31Z</time>
      </trkpt>
      <trkpt lat="48.59177" lon="2.03597">
        <ele>124</ele>
        <time>2020-05-31T12:45:33Z</time>
      </trkpt>
      <trkpt lat="48.59176" lon="2.036">
        <ele>124</ele>
        <time>2020-05-31T12:45:36Z</time>
      </trkpt>
      <trkpt lat="48.59178" lon="2.03601">
        <ele>124</ele>
        <time>2020-05-31T12:45:49Z</time>
      </trkpt>
      <trkpt lat="48.59177" lon="2.03605">
        <ele>124</ele>
        <time>2020-05-31T12:45:53Z</time>
      </trkpt>
      <trkpt lat="48.59177" lon="2.0361">
        <ele>125</ele>
        <time>2020-05-31T12:45:55Z</time>
      </trkpt>
      <trkpt lat="48.59178" lon="2.03613">
        <ele>125</ele>
        <time>2020-05-31T12:45:57Z</time>
      </trkpt>
      <trkpt lat="48.59179" lon="2.03617">
        <ele>125</ele>
        <time>2020-05-31T12:45:59Z</time>
      </trkpt>
      <trkpt lat="48.5918" lon="2.03621">
        <ele>125</ele>
        <time>2020-05-31T12:46:01Z</time>
      </trkpt>
      <trkpt lat="48.59181" lon="2.03624">
        <ele>125</ele>
        <time>2020-05-31T12:46:02Z</time>
      </trkpt>
      <trkpt lat="48.59181" lon="2.03626">
        <ele>125</ele>
        <time>2020-05-31T12:46:03Z</time>
      </trkpt>
      <trkpt lat="48.59181" lon="2.03631">
        <ele>126</ele>
        <time>2020-05-31T12:46:05Z</time>
      </trkpt>
      <trkpt lat="48.59181" lon="2.03639">
        <ele>126</ele>
        <time>2020-05-31T12:46:08Z</time>
      </trkpt>
      <trkpt lat="48.59181" lon="2.03644">
        <ele>126</ele>
        <time>2020-05-31T12:46:10Z</time>
      </trkpt>
      <trkpt lat="48.59181" lon="2.03649">
        <ele>126</ele>
        <time>2020-05-31T12:46:12Z</time>
      </trkpt>
      <trkpt lat="48.59181" lon="2.03654">
        <ele>126</ele>
        <time>2020-05-31T12:46:14Z</time>
      </trkpt>
      <trkpt lat="48.59183" lon="2.03668">
        <ele>127</ele>
        <time>2020-05-31T12:46:20Z</time>
      </trkpt>
      <trkpt lat="48.59182" lon="2.03684">
        <ele>127</ele>
        <time>2020-05-31T12:46:26Z</time>
      </trkpt>
      <trkpt lat="48.59181" lon="2.03699">
        <ele>127</ele>
        <time>2020-05-31T12:46:32Z</time>
      </trkpt>
      <trkpt lat="48.59178" lon="2.0371">
        <ele>127</ele>
        <time>2020-05-31T12:46:37Z</time>
      </trkpt>
      <trkpt lat="48.59178" lon="2.03725">
        <ele>127</ele>
        <time>2020-05-31T12:46:44Z</time>
      </trkpt>
      <trkpt lat="48.59179" lon="2.03739">
        <ele>127</ele>
        <time>2020-05-31T12:46:50Z</time>
      </trkpt>
      <trkpt lat="48.59179" lon="2.03753">
        <ele>128</ele>
        <time>2020-05-31T12:46:56Z</time>
      </trkpt>
      <trkpt lat="48.59183" lon="2.03767">
        <ele>129</ele>
        <time>2020-05-31T12:47:02Z</time>
      </trkpt>
      <trkpt lat="48.59184" lon="2.03781">
        <ele>129</ele>
        <time>2020-05-31T12:47:08Z</time>
      </trkpt>
      <trkpt lat="48.59182" lon="2.03798">
        <ele>130</ele>
        <time>2020-05-31T12:47:15Z</time>
      </trkpt>
      <trkpt lat="48.59181" lon="2.03812">
        <ele>130</ele>
        <time>2020-05-31T12:47:21Z</time>
      </trkpt>
      <trkpt lat="48.59181" lon="2.03828">
        <ele>131</ele>
        <time>2020-05-31T12:47:29Z</time>
      </trkpt>
      <trkpt lat="48.5918" lon="2.03843">
        <ele>131</ele>
        <time>2020-05-31T12:47:33Z</time>
      </trkpt>
      <trkpt lat="48.59182" lon="2.03856">
        <ele>131</ele>
        <time>2020-05-31T12:47:37Z</time>
      </trkpt>
      <trkpt lat="48.59183" lon="2.03871">
        <ele>131</ele>
        <time>2020-05-31T12:47:42Z</time>
      </trkpt>
      <trkpt lat="48.59184" lon="2.0388">
        <ele>132</ele>
        <time>2020-05-31T12:47:46Z</time>
      </trkpt>
      <trkpt lat="48.59184" lon="2.03884">
        <ele>133</ele>
        <time>2020-05-31T12:47:48Z</time>
      </trkpt>
      <trkpt lat="48.59184" lon="2.03888">
        <ele>133</ele>
        <time>2020-05-31T12:47:50Z</time>
      </trkpt>
      <trkpt lat="48.59185" lon="2.03894">
        <ele>134</ele>
        <time>2020-05-31T12:47:53Z</time>
      </trkpt>
      <trkpt lat="48.59186" lon="2.03899">
        <ele>134</ele>
        <time>2020-05-31T12:47:55Z</time>
      </trkpt>
      <trkpt lat="48.59186" lon="2.03907">
        <ele>134</ele>
        <time>2020-05-31T12:47:59Z</time>
      </trkpt>
      <trkpt lat="48.59184" lon="2.03912">
        <ele>134</ele>
        <time>2020-05-31T12:48:01Z</time>
      </trkpt>
      <trkpt lat="48.59184" lon="2.03919">
        <ele>134</ele>
        <time>2020-05-31T12:48:04Z</time>
      </trkpt>
      <trkpt lat="48.59185" lon="2.03923">
        <ele>134</ele>
        <time>2020-05-31T12:48:06Z</time>
      </trkpt>
      <trkpt lat="48.59187" lon="2.03928">
        <ele>135</ele>
        <time>2020-05-31T12:48:08Z</time>
      </trkpt>
      <trkpt lat="48.59187" lon="2.03932">
        <ele>135</ele>
        <time>2020-05-31T12:48:09Z</time>
      </trkpt>
      <trkpt lat="48.59188" lon="2.03936">
        <ele>135</ele>
        <time>2020-05-31T12:48:11Z</time>
      </trkpt>
      <trkpt lat="48.59187" lon="2.03941">
        <ele>135</ele>
        <time>2020-05-31T12:48:13Z</time>
      </trkpt>
      <trkpt lat="48.59188" lon="2.03945">
        <ele>136</ele>
        <time>2020-05-31T12:48:15Z</time>
      </trkpt>
      <trkpt lat="48.59188" lon="2.03948">
        <ele>136</ele>
        <time>2020-05-31T12:48:16Z</time>
      </trkpt>
      <trkpt lat="48.59188" lon="2.03953">
        <ele>136</ele>
        <time>2020-05-31T12:48:18Z</time>
      </trkpt>
      <trkpt lat="48.59188" lon="2.03958">
        <ele>136</ele>
        <time>2020-05-31T12:48:20Z</time>
      </trkpt>
      <trkpt lat="48.59189" lon="2.0396">
        <ele>136</ele>
        <time>2020-05-31T12:48:21Z</time>
      </trkpt>
      <trkpt lat="48.59189" lon="2.03963">
        <ele>136</ele>
        <time>2020-05-31T12:48:22Z</time>
      </trkpt>
      <trkpt lat="48.5919" lon="2.03966">
        <ele>136</ele>
        <time>2020-05-31T12:48:23Z</time>
      </trkpt>
      <trkpt lat="48.5919" lon="2.03971">
        <ele>136</ele>
        <time>2020-05-31T12:48:25Z</time>
      </trkpt>
      <trkpt lat="48.5919" lon="2.03975">
        <ele>136</ele>
        <time>2020-05-31T12:48:27Z</time>
      </trkpt>
      <trkpt lat="48.5919" lon="2.0398">
        <ele>136</ele>
        <time>2020-05-31T12:48:29Z</time>
      </trkpt>
      <trkpt lat="48.5919" lon="2.03985">
        <ele>136</ele>
        <time>2020-05-31T12:48:31Z</time>
      </trkpt>
      <trkpt lat="48.5919" lon="2.0399">
        <ele>136</ele>
        <time>2020-05-31T12:48:33Z</time>
      </trkpt>
      <trkpt lat="48.59189" lon="2.03994">
        <ele>135</ele>
        <time>2020-05-31T12:48:35Z</time>
      </trkpt>
      <trkpt lat="48.59188" lon="2.03998">
        <ele>135</ele>
        <time>2020-05-31T12:48:37Z</time>
      </trkpt>
      <trkpt lat="48.59189" lon="2.04003">
        <ele>136</ele>
        <time>2020-05-31T12:48:39Z</time>
      </trkpt>
      <trkpt lat="48.5919" lon="2.04008">
        <ele>136</ele>
        <time>2020-05-31T12:48:41Z</time>
      </trkpt>
      <trkpt lat="48.5919" lon="2.04013">
        <ele>136</ele>
        <time>2020-05-31T12:48:43Z</time>
      </trkpt>
      <trkpt lat="48.59192" lon="2.04023">
        <ele>135</ele>
        <time>2020-05-31T12:48:47Z</time>
      </trkpt>
      <trkpt lat="48.59193" lon="2.04025">
        <ele>135</ele>
        <time>2020-05-31T12:48:48Z</time>
      </trkpt>
      <trkpt lat="48.59194" lon="2.04028">
        <ele>135</ele>
        <time>2020-05-31T12:48:49Z</time>
      </trkpt>
      <trkpt lat="48.59194" lon="2.04033">
        <ele>135</ele>
        <time>2020-05-31T12:48:51Z</time>
      </trkpt>
      <trkpt lat="48.59195" lon="2.04038">
        <ele>135</ele>
        <time>2020-05-31T12:48:53Z</time>
      </trkpt>
      <trkpt lat="48.59195" lon="2.04041">
        <ele>135</ele>
        <time>2020-05-31T12:48:54Z</time>
      </trkpt>
      <trkpt lat="48.59195" lon="2.04044">
        <ele>136</ele>
        <time>2020-05-31T12:48:55Z</time>
      </trkpt>
      <trkpt lat="48.59196" lon="2.04048">
        <ele>136</ele>
        <time>2020-05-31T12:48:57Z</time>
      </trkpt>
      <trkpt lat="48.59197" lon="2.04052">
        <ele>136</ele>
        <time>2020-05-31T12:48:59Z</time>
      </trkpt>
      <trkpt lat="48.59199" lon="2.04056">
        <ele>136</ele>
        <time>2020-05-31T12:49:01Z</time>
      </trkpt>
      <trkpt lat="48.59201" lon="2.04059">
        <ele>136</ele>
        <time>2020-05-31T12:49:03Z</time>
      </trkpt>
      <trkpt lat="48.59202" lon="2.04062">
        <ele>137</ele>
        <time>2020-05-31T12:49:05Z</time>
      </trkpt>
      <trkpt lat="48.59203" lon="2.04066">
        <ele>136</ele>
        <time>2020-05-31T12:49:08Z</time>
      </trkpt>
      <trkpt lat="48.59204" lon="2.04068">
        <ele>136</ele>
        <time>2020-05-31T12:49:10Z</time>
      </trkpt>
      <trkpt lat="48.59206" lon="2.04071">
        <ele>137</ele>
        <time>2020-05-31T12:49:12Z</time>
      </trkpt>
      <trkpt lat="48.59209" lon="2.04074">
        <ele>137</ele>
        <time>2020-05-31T12:49:14Z</time>
      </trkpt>
      <trkpt lat="48.59211" lon="2.04077">
        <ele>137</ele>
        <time>2020-05-31T12:49:16Z</time>
      </trkpt>
      <trkpt lat="48.59214" lon="2.04079">
        <ele>137</ele>
        <time>2020-05-31T12:49:18Z</time>
      </trkpt>
      <trkpt lat="48.59215" lon="2.0408">
        <ele>137</ele>
        <time>2020-05-31T12:49:19Z</time>
      </trkpt>
      <trkpt lat="48.59217" lon="2.04083">
        <ele>138</ele>
        <time>2020-05-31T12:49:21Z</time>
      </trkpt>
      <trkpt lat="48.59219" lon="2.04085">
        <ele>139</ele>
        <time>2020-05-31T12:49:24Z</time>
      </trkpt>
      <trkpt lat="48.59221" lon="2.04086">
        <ele>138</ele>
        <time>2020-05-31T12:49:26Z</time>
      </trkpt>
      <trkpt lat="48.59224" lon="2.04087">
        <ele>139</ele>
        <time>2020-05-31T12:49:28Z</time>
      </trkpt>
      <trkpt lat="48.59226" lon="2.04089">
        <ele>139</ele>
        <time>2020-05-31T12:49:30Z</time>
      </trkpt>
      <trkpt lat="48.5923" lon="2.04091">
        <ele>139</ele>
        <time>2020-05-31T12:49:32Z</time>
      </trkpt>
      <trkpt lat="48.59231" lon="2.04094">
        <ele>139</ele>
        <time>2020-05-31T12:49:34Z</time>
      </trkpt>
      <trkpt lat="48.59235" lon="2.04097">
        <ele>138</ele>
        <time>2020-05-31T12:49:36Z</time>
      </trkpt>
      <trkpt lat="48.59237" lon="2.041">
        <ele>138</ele>
        <time>2020-05-31T12:49:38Z</time>
      </trkpt>
      <trkpt lat="48.59239" lon="2.04104">
        <ele>138</ele>
        <time>2020-05-31T12:49:40Z</time>
      </trkpt>
      <trkpt lat="48.59241" lon="2.04108">
        <ele>138</ele>
        <time>2020-05-31T12:49:42Z</time>
      </trkpt>
      <trkpt lat="48.59242" lon="2.04112">
        <ele>138</ele>
        <time>2020-05-31T12:49:44Z</time>
      </trkpt>
      <trkpt lat="48.59245" lon="2.04117">
        <ele>137</ele>
        <time>2020-05-31T12:49:46Z</time>
      </trkpt>
      <trkpt lat="48.59247" lon="2.04118">
        <ele>137</ele>
        <time>2020-05-31T12:49:47Z</time>
      </trkpt>
      <trkpt lat="48.5925" lon="2.0412">
        <ele>138</ele>
        <time>2020-05-31T12:49:48Z</time>
      </trkpt>
      <trkpt lat="48.59251" lon="2.04123">
        <ele>138</ele>
        <time>2020-05-31T12:49:50Z</time>
      </trkpt>
      <trkpt lat="48.59253" lon="2.04125">
        <ele>138</ele>
        <time>2020-05-31T12:49:52Z</time>
      </trkpt>
      <trkpt lat="48.59255" lon="2.04127">
        <ele>138</ele>
        <time>2020-05-31T12:49:54Z</time>
      </trkpt>
      <trkpt lat="48.59258" lon="2.04129">
        <ele>138</ele>
        <time>2020-05-31T12:49:56Z</time>
      </trkpt>
      <trkpt lat="48.59262" lon="2.04134">
        <ele>139</ele>
        <time>2020-05-31T12:50:01Z</time>
      </trkpt>
      <trkpt lat="48.5927" lon="2.04141">
        <ele>140</ele>
        <time>2020-05-31T12:50:07Z</time>
      </trkpt>
      <trkpt lat="48.59278" lon="2.04151">
        <ele>141</ele>
        <time>2020-05-31T12:50:11Z</time>
      </trkpt>
      <trkpt lat="48.59286" lon="2.0416">
        <ele>142</ele>
        <time>2020-05-31T12:50:16Z</time>
      </trkpt>
      <trkpt lat="48.59293" lon="2.04168">
        <ele>143</ele>
        <time>2020-05-31T12:50:21Z</time>
      </trkpt>
      <trkpt lat="48.593" lon="2.04179">
        <ele>143</ele>
        <time>2020-05-31T12:50:25Z</time>
      </trkpt>
      <trkpt lat="48.59307" lon="2.04186">
        <ele>144</ele>
        <time>2020-05-31T12:50:30Z</time>
      </trkpt>
      <trkpt lat="48.59309" lon="2.04188">
        <ele>144</ele>
        <time>2020-05-31T12:50:34Z</time>
      </trkpt>
      <trkpt lat="48.59314" lon="2.04195">
        <ele>144</ele>
        <time>2020-05-31T12:50:38Z</time>
      </trkpt>
      <trkpt lat="48.59319" lon="2.042">
        <ele>144</ele>
        <time>2020-05-31T12:50:41Z</time>
      </trkpt>
      <trkpt lat="48.59322" lon="2.04204">
        <ele>144</ele>
        <time>2020-05-31T12:50:43Z</time>
      </trkpt>
      <trkpt lat="48.59325" lon="2.04206">
        <ele>144</ele>
        <time>2020-05-31T12:50:45Z</time>
      </trkpt>
      <trkpt lat="48.59327" lon="2.04208">
        <ele>144</ele>
        <time>2020-05-31T12:50:47Z</time>
      </trkpt>
      <trkpt lat="48.59328" lon="2.0421">
        <ele>144</ele>
        <time>2020-05-31T12:50:49Z</time>
      </trkpt>
      <trkpt lat="48.5933" lon="2.04213">
        <ele>144</ele>
        <time>2020-05-31T12:50:51Z</time>
      </trkpt>
      <trkpt lat="48.59332" lon="2.04217">
        <ele>144</ele>
        <time>2020-05-31T12:50:53Z</time>
      </trkpt>
      <trkpt lat="48.59333" lon="2.04219">
        <ele>144</ele>
        <time>2020-05-31T12:50:54Z</time>
      </trkpt>
      <trkpt lat="48.59336" lon="2.04222">
        <ele>144</ele>
        <time>2020-05-31T12:50:56Z</time>
      </trkpt>
      <trkpt lat="48.59339" lon="2.04224">
        <ele>144</ele>
        <time>2020-05-31T12:50:58Z</time>
      </trkpt>
      <trkpt lat="48.59342" lon="2.04227">
        <ele>145</ele>
        <time>2020-05-31T12:51:00Z</time>
      </trkpt>
      <trkpt lat="48.59344" lon="2.04231">
        <ele>145</ele>
        <time>2020-05-31T12:51:02Z</time>
      </trkpt>
      <trkpt lat="48.59346" lon="2.04233">
        <ele>146</ele>
        <time>2020-05-31T12:51:04Z</time>
      </trkpt>
      <trkpt lat="48.59348" lon="2.04235">
        <ele>146</ele>
        <time>2020-05-31T12:51:07Z</time>
      </trkpt>
      <trkpt lat="48.59351" lon="2.04238">
        <ele>148</ele>
        <time>2020-05-31T12:51:13Z</time>
      </trkpt>
      <trkpt lat="48.59357" lon="2.04241">
        <ele>148</ele>
        <time>2020-05-31T12:51:17Z</time>
      </trkpt>
      <trkpt lat="48.59366" lon="2.04244">
        <ele>149</ele>
        <time>2020-05-31T12:51:24Z</time>
      </trkpt>
      <trkpt lat="48.59376" lon="2.04248">
        <ele>151</ele>
        <time>2020-05-31T12:51:31Z</time>
      </trkpt>
      <trkpt lat="48.59379" lon="2.04249">
        <ele>151</ele>
        <time>2020-05-31T12:51:34Z</time>
      </trkpt>
      <trkpt lat="48.59388" lon="2.04252">
        <ele>151</ele>
        <time>2020-05-31T12:51:42Z</time>
      </trkpt>
      <trkpt lat="48.59394" lon="2.04254">
        <ele>152</ele>
        <time>2020-05-31T12:51:46Z</time>
      </trkpt>
      <trkpt lat="48.59397" lon="2.04254">
        <ele>152</ele>
        <time>2020-05-31T12:51:48Z</time>
      </trkpt>
      <trkpt lat="48.594" lon="2.04254">
        <ele>152</ele>
        <time>2020-05-31T12:51:50Z</time>
      </trkpt>
      <trkpt lat="48.59403" lon="2.04254">
        <ele>152</ele>
        <time>2020-05-31T12:51:52Z</time>
      </trkpt>
      <trkpt lat="48.59404" lon="2.04252">
        <ele>152</ele>
        <time>2020-05-31T12:51:54Z</time>
      </trkpt>
      <trkpt lat="48.59406" lon="2.0425">
        <ele>152</ele>
        <time>2020-05-31T12:51:56Z</time>
      </trkpt>
      <trkpt lat="48.59416" lon="2.04256">
        <ele>153</ele>
        <time>2020-05-31T12:52:03Z</time>
      </trkpt>
      <trkpt lat="48.59426" lon="2.04261">
        <ele>153</ele>
        <time>2020-05-31T12:52:09Z</time>
      </trkpt>
      <trkpt lat="48.59434" lon="2.04268">
        <ele>154</ele>
        <time>2020-05-31T12:52:16Z</time>
      </trkpt>
      <trkpt lat="48.59443" lon="2.04275">
        <ele>155</ele>
        <time>2020-05-31T12:52:21Z</time>
      </trkpt>
      <trkpt lat="48.59451" lon="2.04281">
        <ele>155</ele>
        <time>2020-05-31T12:52:26Z</time>
      </trkpt>
      <trkpt lat="48.59457" lon="2.04288">
        <ele>156</ele>
        <time>2020-05-31T12:52:30Z</time>
      </trkpt>
      <trkpt lat="48.59459" lon="2.04293">
        <ele>156</ele>
        <time>2020-05-31T12:52:32Z</time>
      </trkpt>
      <trkpt lat="48.5946" lon="2.04298">
        <ele>156</ele>
        <time>2020-05-31T12:52:34Z</time>
      </trkpt>
      <trkpt lat="48.59462" lon="2.04311">
        <ele>157</ele>
        <time>2020-05-31T12:52:39Z</time>
      </trkpt>
      <trkpt lat="48.59461" lon="2.04314">
        <ele>157</ele>
        <time>2020-05-31T12:52:41Z</time>
      </trkpt>
      <trkpt lat="48.59461" lon="2.04317">
        <ele>157</ele>
        <time>2020-05-31T12:52:42Z</time>
      </trkpt>
      <trkpt lat="48.59459" lon="2.04321">
        <ele>158</ele>
        <time>2020-05-31T12:52:44Z</time>
      </trkpt>
      <trkpt lat="48.59458" lon="2.04324">
        <ele>158</ele>
        <time>2020-05-31T12:52:45Z</time>
      </trkpt>
      <trkpt lat="48.59457" lon="2.04327">
        <ele>158</ele>
        <time>2020-05-31T12:52:46Z</time>
      </trkpt>
      <trkpt lat="48.59456" lon="2.04331">
        <ele>159</ele>
        <time>2020-05-31T12:52:48Z</time>
      </trkpt>
      <trkpt lat="48.59454" lon="2.04335">
        <ele>159</ele>
        <time>2020-05-31T12:52:50Z</time>
      </trkpt>
      <trkpt lat="48.59452" lon="2.04339">
        <ele>159</ele>
        <time>2020-05-31T12:52:52Z</time>
      </trkpt>
      <trkpt lat="48.59451" lon="2.04343">
        <ele>160</ele>
        <time>2020-05-31T12:52:54Z</time>
      </trkpt>
      <trkpt lat="48.5945" lon="2.04347">
        <ele>160</ele>
        <time>2020-05-31T12:52:56Z</time>
      </trkpt>
      <trkpt lat="48.59448" lon="2.04349">
        <ele>160</ele>
        <time>2020-05-31T12:52:57Z</time>
      </trkpt>
      <trkpt lat="48.59447" lon="2.04352">
        <ele>160</ele>
        <time>2020-05-31T12:52:58Z</time>
      </trkpt>
      <trkpt lat="48.59445" lon="2.04355">
        <ele>160</ele>
        <time>2020-05-31T12:53:00Z</time>
      </trkpt>
      <trkpt lat="48.59444" lon="2.04357">
        <ele>161</ele>
        <time>2020-05-31T12:53:01Z</time>
      </trkpt>
      <trkpt lat="48.59443" lon="2.0436">
        <ele>161</ele>
        <time>2020-05-31T12:53:02Z</time>
      </trkpt>
      <trkpt lat="48.59441" lon="2.04362">
        <ele>161</ele>
        <time>2020-05-31T12:53:03Z</time>
      </trkpt>
      <trkpt lat="48.59441" lon="2.04365">
        <ele>161</ele>
        <time>2020-05-31T12:53:04Z</time>
      </trkpt>
      <trkpt lat="48.5944" lon="2.04368">
        <ele>161</ele>
        <time>2020-05-31T12:53:05Z</time>
      </trkpt>
      <trkpt lat="48.59438" lon="2.04371">
        <ele>161</ele>
        <time>2020-05-31T12:53:06Z</time>
      </trkpt>
      <trkpt lat="48.59437" lon="2.04375">
        <ele>161</ele>
        <time>2020-05-31T12:53:08Z</time>
      </trkpt>
      <trkpt lat="48.59436" lon="2.04379">
        <ele>162</ele>
        <time>2020-05-31T12:53:10Z</time>
      </trkpt>
      <trkpt lat="48.59434" lon="2.04383">
        <ele>162</ele>
        <time>2020-05-31T12:53:12Z</time>
      </trkpt>
      <trkpt lat="48.59433" lon="2.04388">
        <ele>162</ele>
        <time>2020-05-31T12:53:14Z</time>
      </trkpt>
      <trkpt lat="48.59431" lon="2.0439">
        <ele>162</ele>
        <time>2020-05-31T12:53:15Z</time>
      </trkpt>
      <trkpt lat="48.59429" lon="2.04394">
        <ele>162</ele>
        <time>2020-05-31T12:53:17Z</time>
      </trkpt>
      <trkpt lat="48.59428" lon="2.04398">
        <ele>162</ele>
        <time>2020-05-31T12:53:19Z</time>
      </trkpt>
      <trkpt lat="48.59425" lon="2.04401">
        <ele>162</ele>
        <time>2020-05-31T12:53:21Z</time>
      </trkpt>
      <trkpt lat="48.59424" lon="2.04405">
        <ele>162</ele>
        <time>2020-05-31T12:53:23Z</time>
      </trkpt>
      <trkpt lat="48.59422" lon="2.04409">
        <ele>162</ele>
        <time>2020-05-31T12:53:25Z</time>
      </trkpt>
      <trkpt lat="48.59421" lon="2.04413">
        <ele>162</ele>
        <time>2020-05-31T12:53:27Z</time>
      </trkpt>
      <trkpt lat="48.59419" lon="2.04417">
        <ele>162</ele>
        <time>2020-05-31T12:53:29Z</time>
      </trkpt>
      <trkpt lat="48.59417" lon="2.04421">
        <ele>163</ele>
        <time>2020-05-31T12:53:31Z</time>
      </trkpt>
      <trkpt lat="48.59415" lon="2.04425">
        <ele>163</ele>
        <time>2020-05-31T12:53:33Z</time>
      </trkpt>
      <trkpt lat="48.59414" lon="2.04428">
        <ele>163</ele>
        <time>2020-05-31T12:53:35Z</time>
      </trkpt>
      <trkpt lat="48.59413" lon="2.04432">
        <ele>164</ele>
        <time>2020-05-31T12:53:37Z</time>
      </trkpt>
      <trkpt lat="48.59411" lon="2.04436">
        <ele>163</ele>
        <time>2020-05-31T12:53:39Z</time>
      </trkpt>
      <trkpt lat="48.5941" lon="2.04441">
        <ele>163</ele>
        <time>2020-05-31T12:53:41Z</time>
      </trkpt>
      <trkpt lat="48.59409" lon="2.04445">
        <ele>163</ele>
        <time>2020-05-31T12:53:43Z</time>
      </trkpt>
      <trkpt lat="48.5941" lon="2.04449">
        <ele>164</ele>
        <time>2020-05-31T12:53:45Z</time>
      </trkpt>
      <trkpt lat="48.59411" lon="2.04451">
        <ele>164</ele>
        <time>2020-05-31T12:53:47Z</time>
      </trkpt>
      <trkpt lat="48.59413" lon="2.04454">
        <ele>164</ele>
        <time>2020-05-31T12:53:49Z</time>
      </trkpt>
      <trkpt lat="48.59415" lon="2.04457">
        <ele>164</ele>
        <time>2020-05-31T12:53:51Z</time>
      </trkpt>
      <trkpt lat="48.59417" lon="2.0446">
        <ele>164</ele>
        <time>2020-05-31T12:53:53Z</time>
      </trkpt>
      <trkpt lat="48.59419" lon="2.04462">
        <ele>164</ele>
        <time>2020-05-31T12:53:55Z</time>
      </trkpt>
      <trkpt lat="48.59421" lon="2.04464">
        <ele>165</ele>
        <time>2020-05-31T12:53:57Z</time>
      </trkpt>
      <trkpt lat="48.59422" lon="2.04466">
        <ele>164</ele>
        <time>2020-05-31T12:53:59Z</time>
      </trkpt>
      <trkpt lat="48.59425" lon="2.04469">
        <ele>165</ele>
        <time>2020-05-31T12:54:01Z</time>
      </trkpt>
      <trkpt lat="48.59427" lon="2.04472">
        <ele>165</ele>
        <time>2020-05-31T12:54:03Z</time>
      </trkpt>
      <trkpt lat="48.59429" lon="2.04475">
        <ele>165</ele>
        <time>2020-05-31T12:54:05Z</time>
      </trkpt>
      <trkpt lat="48.59431" lon="2.04478">
        <ele>165</ele>
        <time>2020-05-31T12:54:07Z</time>
      </trkpt>
      <trkpt lat="48.59433" lon="2.04482">
        <ele>165</ele>
        <time>2020-05-31T12:54:09Z</time>
      </trkpt>
      <trkpt lat="48.59435" lon="2.04486">
        <ele>165</ele>
        <time>2020-05-31T12:54:11Z</time>
      </trkpt>
      <trkpt lat="48.59437" lon="2.04488">
        <ele>166</ele>
        <time>2020-05-31T12:54:12Z</time>
      </trkpt>
      <trkpt lat="48.59439" lon="2.04491">
        <ele>166</ele>
        <time>2020-05-31T12:54:14Z</time>
      </trkpt>
      <trkpt lat="48.59442" lon="2.04495">
        <ele>166</ele>
        <time>2020-05-31T12:54:16Z</time>
      </trkpt>
      <trkpt lat="48.59443" lon="2.04497">
        <ele>166</ele>
        <time>2020-05-31T12:54:17Z</time>
      </trkpt>
      <trkpt lat="48.59445" lon="2.04501">
        <ele>166</ele>
        <time>2020-05-31T12:54:19Z</time>
      </trkpt>
      <trkpt lat="48.59447" lon="2.04505">
        <ele>166</ele>
        <time>2020-05-31T12:54:21Z</time>
      </trkpt>
      <trkpt lat="48.59448" lon="2.04507">
        <ele>167</ele>
        <time>2020-05-31T12:54:22Z</time>
      </trkpt>
      <trkpt lat="48.5945" lon="2.0451">
        <ele>167</ele>
        <time>2020-05-31T12:54:24Z</time>
      </trkpt>
      <trkpt lat="48.59452" lon="2.04513">
        <ele>167</ele>
        <time>2020-05-31T12:54:26Z</time>
      </trkpt>
      <trkpt lat="48.59454" lon="2.04517">
        <ele>167</ele>
        <time>2020-05-31T12:54:28Z</time>
      </trkpt>
      <trkpt lat="48.59456" lon="2.04519">
        <ele>167</ele>
        <time>2020-05-31T12:54:29Z</time>
      </trkpt>
      <trkpt lat="48.59457" lon="2.04521">
        <ele>167</ele>
        <time>2020-05-31T12:54:30Z</time>
      </trkpt>
      <trkpt lat="48.59459" lon="2.04525">
        <ele>168</ele>
        <time>2020-05-31T12:54:32Z</time>
      </trkpt>
      <trkpt lat="48.59461" lon="2.04529">
        <ele>168</ele>
        <time>2020-05-31T12:54:34Z</time>
      </trkpt>
      <trkpt lat="48.59463" lon="2.04533">
        <ele>168</ele>
        <time>2020-05-31T12:54:36Z</time>
      </trkpt>
      <trkpt lat="48.59465" lon="2.04537">
        <ele>168</ele>
        <time>2020-05-31T12:54:38Z</time>
      </trkpt>
      <trkpt lat="48.59467" lon="2.04539">
        <ele>169</ele>
        <time>2020-05-31T12:54:39Z</time>
      </trkpt>
      <trkpt lat="48.59469" lon="2.04542">
        <ele>169</ele>
        <time>2020-05-31T12:54:41Z</time>
      </trkpt>
      <trkpt lat="48.59472" lon="2.04545">
        <ele>169</ele>
        <time>2020-05-31T12:54:43Z</time>
      </trkpt>
      <trkpt lat="48.59474" lon="2.04549">
        <ele>169</ele>
        <time>2020-05-31T12:54:45Z</time>
      </trkpt>
      <trkpt lat="48.59476" lon="2.04553">
        <ele>169</ele>
        <time>2020-05-31T12:54:47Z</time>
      </trkpt>
      <trkpt lat="48.59478" lon="2.04556">
        <ele>169</ele>
        <time>2020-05-31T12:54:49Z</time>
      </trkpt>
      <trkpt lat="48.5948" lon="2.0456">
        <ele>170</ele>
        <time>2020-05-31T12:54:51Z</time>
      </trkpt>
      <trkpt lat="48.59482" lon="2.04563">
        <ele>170</ele>
        <time>2020-05-31T12:54:53Z</time>
      </trkpt>
      <trkpt lat="48.59484" lon="2.04567">
        <ele>170</ele>
        <time>2020-05-31T12:54:55Z</time>
      </trkpt>
      <trkpt lat="48.59486" lon="2.04571">
        <ele>170</ele>
        <time>2020-05-31T12:54:57Z</time>
      </trkpt>
      <trkpt lat="48.59488" lon="2.04575">
        <ele>171</ele>
        <time>2020-05-31T12:54:59Z</time>
      </trkpt>
      <trkpt lat="48.5949" lon="2.04579">
        <ele>171</ele>
        <time>2020-05-31T12:55:01Z</time>
      </trkpt>
      <trkpt lat="48.59491" lon="2.04583">
        <ele>171</ele>
        <time>2020-05-31T12:55:03Z</time>
      </trkpt>
      <trkpt lat="48.59494" lon="2.04586">
        <ele>170</ele>
        <time>2020-05-31T12:55:05Z</time>
      </trkpt>
      <trkpt lat="48.59495" lon="2.04588">
        <ele>170</ele>
        <time>2020-05-31T12:55:06Z</time>
      </trkpt>
      <trkpt lat="48.59496" lon="2.04591">
        <ele>171</ele>
        <time>2020-05-31T12:55:07Z</time>
      </trkpt>
      <trkpt lat="48.59498" lon="2.04594">
        <ele>171</ele>
        <time>2020-05-31T12:55:09Z</time>
      </trkpt>
      <trkpt lat="48.595" lon="2.04599">
        <ele>171</ele>
        <time>2020-05-31T12:55:11Z</time>
      </trkpt>
      <trkpt lat="48.59502" lon="2.04603">
        <ele>171</ele>
        <time>2020-05-31T12:55:13Z</time>
      </trkpt>
      <trkpt lat="48.59504" lon="2.04607">
        <ele>171</ele>
        <time>2020-05-31T12:55:15Z</time>
      </trkpt>
      <trkpt lat="48.59506" lon="2.0461">
        <ele>171</ele>
        <time>2020-05-31T12:55:17Z</time>
      </trkpt>
      <trkpt lat="48.59508" lon="2.04614">
        <ele>171</ele>
        <time>2020-05-31T12:55:19Z</time>
      </trkpt>
      <trkpt lat="48.5951" lon="2.04618">
        <ele>171</ele>
        <time>2020-05-31T12:55:21Z</time>
      </trkpt>
      <trkpt lat="48.59512" lon="2.04622">
        <ele>171</ele>
        <time>2020-05-31T12:55:23Z</time>
      </trkpt>
      <trkpt lat="48.59514" lon="2.04626">
        <ele>171</ele>
        <time>2020-05-31T12:55:25Z</time>
      </trkpt>
      <trkpt lat="48.59515" lon="2.04628">
        <ele>171</ele>
        <time>2020-05-31T12:55:26Z</time>
      </trkpt>
      <trkpt lat="48.59517" lon="2.04631">
        <ele>171</ele>
        <time>2020-05-31T12:55:28Z</time>
      </trkpt>
      <trkpt lat="48.59519" lon="2.04635">
        <ele>171</ele>
        <time>2020-05-31T12:55:30Z</time>
      </trkpt>
      <trkpt lat="48.5952" lon="2.0464">
        <ele>171</ele>
        <time>2020-05-31T12:55:32Z</time>
      </trkpt>
      <trkpt lat="48.59522" lon="2.04642">
        <ele>171</ele>
        <time>2020-05-31T12:55:33Z</time>
      </trkpt>
      <trkpt lat="48.59524" lon="2.04645">
        <ele>171</ele>
        <time>2020-05-31T12:55:35Z</time>
      </trkpt>
      <trkpt lat="48.59525" lon="2.04647">
        <ele>171</ele>
        <time>2020-05-31T12:55:36Z</time>
      </trkpt>
      <trkpt lat="48.59528" lon="2.04651">
        <ele>171</ele>
        <time>2020-05-31T12:55:38Z</time>
      </trkpt>
      <trkpt lat="48.5953" lon="2.04654">
        <ele>171</ele>
        <time>2020-05-31T12:55:40Z</time>
      </trkpt>
      <trkpt lat="48.59531" lon="2.04657">
        <ele>171</ele>
        <time>2020-05-31T12:55:41Z</time>
      </trkpt>
      <trkpt lat="48.59532" lon="2.04659">
        <ele>171</ele>
        <time>2020-05-31T12:55:42Z</time>
      </trkpt>
      <trkpt lat="48.59534" lon="2.04662">
        <ele>171</ele>
        <time>2020-05-31T12:55:44Z</time>
      </trkpt>
      <trkpt lat="48.59536" lon="2.04666">
        <ele>171</ele>
        <time>2020-05-31T12:55:46Z</time>
      </trkpt>
      <trkpt lat="48.59538" lon="2.0467">
        <ele>171</ele>
        <time>2020-05-31T12:55:48Z</time>
      </trkpt>
      <trkpt lat="48.59539" lon="2.04673">
        <ele>171</ele>
        <time>2020-05-31T12:55:49Z</time>
      </trkpt>
      <trkpt lat="48.5954" lon="2.04675">
        <ele>171</ele>
        <time>2020-05-31T12:55:50Z</time>
      </trkpt>
      <trkpt lat="48.59542" lon="2.04679">
        <ele>171</ele>
        <time>2020-05-31T12:55:52Z</time>
      </trkpt>
      <trkpt lat="48.59544" lon="2.04684">
        <ele>170</ele>
        <time>2020-05-31T12:55:54Z</time>
      </trkpt>
      <trkpt lat="48.59546" lon="2.04688">
        <ele>170</ele>
        <time>2020-05-31T12:55:56Z</time>
      </trkpt>
      <trkpt lat="48.59547" lon="2.04692">
        <ele>171</ele>
        <time>2020-05-31T12:55:58Z</time>
      </trkpt>
      <trkpt lat="48.59549" lon="2.04696">
        <ele>171</ele>
        <time>2020-05-31T12:56:00Z</time>
      </trkpt>
      <trkpt lat="48.59551" lon="2.047">
        <ele>171</ele>
        <time>2020-05-31T12:56:02Z</time>
      </trkpt>
      <trkpt lat="48.59552" lon="2.04704">
        <ele>171</ele>
        <time>2020-05-31T12:56:04Z</time>
      </trkpt>
      <trkpt lat="48.59554" lon="2.04708">
        <ele>171</ele>
        <time>2020-05-31T12:56:06Z</time>
      </trkpt>
      <trkpt lat="48.59556" lon="2.04711">
        <ele>171</ele>
        <time>2020-05-31T12:56:08Z</time>
      </trkpt>
      <trkpt lat="48.59559" lon="2.04713">
        <ele>170</ele>
        <time>2020-05-31T12:56:10Z</time>
      </trkpt>
      <trkpt lat="48.59561" lon="2.04716">
        <ele>170</ele>
        <time>2020-05-31T12:56:12Z</time>
      </trkpt>
      <trkpt lat="48.59564" lon="2.04718">
        <ele>170</ele>
        <time>2020-05-31T12:56:14Z</time>
      </trkpt>
      <trkpt lat="48.59565" lon="2.04719">
        <ele>170</ele>
        <time>2020-05-31T12:56:16Z</time>
      </trkpt>
      <trkpt lat="48.59568" lon="2.04721">
        <ele>170</ele>
        <time>2020-05-31T12:56:18Z</time>
      </trkpt>
      <trkpt lat="48.59572" lon="2.04723">
        <ele>170</ele>
        <time>2020-05-31T12:56:20Z</time>
      </trkpt>
      <trkpt lat="48.59575" lon="2.04725">
        <ele>170</ele>
        <time>2020-05-31T12:56:22Z</time>
      </trkpt>
      <trkpt lat="48.59578" lon="2.04727">
        <ele>170</ele>
        <time>2020-05-31T12:56:24Z</time>
      </trkpt>
      <trkpt lat="48.59581" lon="2.04729">
        <ele>170</ele>
        <time>2020-05-31T12:56:26Z</time>
      </trkpt>
      <trkpt lat="48.59584" lon="2.04731">
        <ele>170</ele>
        <time>2020-05-31T12:56:28Z</time>
      </trkpt>
      <trkpt lat="48.59586" lon="2.04733">
        <ele>170</ele>
        <time>2020-05-31T12:56:30Z</time>
      </trkpt>
      <trkpt lat="48.59589" lon="2.04735">
        <ele>170</ele>
        <time>2020-05-31T12:56:32Z</time>
      </trkpt>
      <trkpt lat="48.59591" lon="2.04736">
        <ele>170</ele>
        <time>2020-05-31T12:56:33Z</time>
      </trkpt>
      <trkpt lat="48.59593" lon="2.04737">
        <ele>171</ele>
        <time>2020-05-31T12:56:34Z</time>
      </trkpt>
      <trkpt lat="48.59595" lon="2.04738">
        <ele>171</ele>
        <time>2020-05-31T12:56:35Z</time>
      </trkpt>
      <trkpt lat="48.59598" lon="2.0474">
        <ele>170</ele>
        <time>2020-05-31T12:56:37Z</time>
      </trkpt>
      <trkpt lat="48.59601" lon="2.04742">
        <ele>170</ele>
        <time>2020-05-31T12:56:39Z</time>
      </trkpt>
      <trkpt lat="48.59602" lon="2.04744">
        <ele>170</ele>
        <time>2020-05-31T12:56:40Z</time>
      </trkpt>
      <trkpt lat="48.59604" lon="2.04745">
        <ele>170</ele>
        <time>2020-05-31T12:56:41Z</time>
      </trkpt>
      <trkpt lat="48.59608" lon="2.04748">
        <ele>171</ele>
        <time>2020-05-31T12:56:43Z</time>
      </trkpt>
      <trkpt lat="48.59609" lon="2.04749">
        <ele>171</ele>
        <time>2020-05-31T12:56:44Z</time>
      </trkpt>
      <trkpt lat="48.59611" lon="2.0475">
        <ele>171</ele>
        <time>2020-05-31T12:56:46Z</time>
      </trkpt>
      <trkpt lat="48.59614" lon="2.04752">
        <ele>171</ele>
        <time>2020-05-31T12:56:48Z</time>
      </trkpt>
      <trkpt lat="48.59616" lon="2.04753">
        <ele>171</ele>
        <time>2020-05-31T12:56:50Z</time>
      </trkpt>
      <trkpt lat="48.59619" lon="2.04755">
        <ele>171</ele>
        <time>2020-05-31T12:56:52Z</time>
      </trkpt>
      <trkpt lat="48.59621" lon="2.04756">
        <ele>171</ele>
        <time>2020-05-31T12:56:53Z</time>
      </trkpt>
      <trkpt lat="48.59623" lon="2.04758">
        <ele>171</ele>
        <time>2020-05-31T12:56:55Z</time>
      </trkpt>
      <trkpt lat="48.59625" lon="2.0476">
        <ele>171</ele>
        <time>2020-05-31T12:56:57Z</time>
      </trkpt>
      <trkpt lat="48.59627" lon="2.04761">
        <ele>171</ele>
        <time>2020-05-31T12:56:58Z</time>
      </trkpt>
      <trkpt lat="48.5963" lon="2.04763">
        <ele>171</ele>
        <time>2020-05-31T12:57:00Z</time>
      </trkpt>
      <trkpt lat="48.59633" lon="2.04765">
        <ele>171</ele>
        <time>2020-05-31T12:57:02Z</time>
      </trkpt>
      <trkpt lat="48.59635" lon="2.04767">
        <ele>171</ele>
        <time>2020-05-31T12:57:03Z</time>
      </trkpt>
      <trkpt lat="48.59636" lon="2.04768">
        <ele>171</ele>
        <time>2020-05-31T12:57:04Z</time>
      </trkpt>
      <trkpt lat="48.59639" lon="2.04769">
        <ele>171</ele>
        <time>2020-05-31T12:57:06Z</time>
      </trkpt>
      <trkpt lat="48.59642" lon="2.04771">
        <ele>172</ele>
        <time>2020-05-31T12:57:08Z</time>
      </trkpt>
      <trkpt lat="48.59644" lon="2.04772">
        <ele>172</ele>
        <time>2020-05-31T12:57:10Z</time>
      </trkpt>
      <trkpt lat="48.59647" lon="2.04774">
        <ele>172</ele>
        <time>2020-05-31T12:57:12Z</time>
      </trkpt>
      <trkpt lat="48.5965" lon="2.04776">
        <ele>172</ele>
        <time>2020-05-31T12:57:14Z</time>
      </trkpt>
      <trkpt lat="48.59653" lon="2.04777">
        <ele>172</ele>
        <time>2020-05-31T12:57:16Z</time>
      </trkpt>
      <trkpt lat="48.59656" lon="2.0478">
        <ele>171</ele>
        <time>2020-05-31T12:57:18Z</time>
      </trkpt>
      <trkpt lat="48.59658" lon="2.04782">
        <ele>171</ele>
        <time>2020-05-31T12:57:20Z</time>
      </trkpt>
      <trkpt lat="48.5966" lon="2.04783">
        <ele>171</ele>
        <time>2020-05-31T12:57:22Z</time>
      </trkpt>
      <trkpt lat="48.59663" lon="2.04785">
        <ele>172</ele>
        <time>2020-05-31T12:57:24Z</time>
      </trkpt>
      <trkpt lat="48.59667" lon="2.04786">
        <ele>172</ele>
        <time>2020-05-31T12:57:26Z</time>
      </trkpt>
      <trkpt lat="48.5967" lon="2.04787">
        <ele>172</ele>
        <time>2020-05-31T12:57:28Z</time>
      </trkpt>
      <trkpt lat="48.59671" lon="2.04789">
        <ele>172</ele>
        <time>2020-05-31T12:57:30Z</time>
      </trkpt>
      <trkpt lat="48.59674" lon="2.04791">
        <ele>172</ele>
        <time>2020-05-31T12:57:32Z</time>
      </trkpt>
      <trkpt lat="48.59676" lon="2.04793">
        <ele>171</ele>
        <time>2020-05-31T12:57:34Z</time>
      </trkpt>
      <trkpt lat="48.59679" lon="2.04795">
        <ele>171</ele>
        <time>2020-05-31T12:57:36Z</time>
      </trkpt>
      <trkpt lat="48.59681" lon="2.04796">
        <ele>171</ele>
        <time>2020-05-31T12:57:38Z</time>
      </trkpt>
      <trkpt lat="48.59683" lon="2.04798">
        <ele>171</ele>
        <time>2020-05-31T12:57:40Z</time>
      </trkpt>
      <trkpt lat="48.59685" lon="2.04799">
        <ele>171</ele>
        <time>2020-05-31T12:57:42Z</time>
      </trkpt>
      <trkpt lat="48.59687" lon="2.048">
        <ele>171</ele>
        <time>2020-05-31T12:57:43Z</time>
      </trkpt>
      <trkpt lat="48.59689" lon="2.04801">
        <ele>171</ele>
        <time>2020-05-31T12:57:44Z</time>
      </trkpt>
      <trkpt lat="48.59692" lon="2.04803">
        <ele>171</ele>
        <time>2020-05-31T12:57:46Z</time>
      </trkpt>
      <trkpt lat="48.59694" lon="2.04804">
        <ele>171</ele>
        <time>2020-05-31T12:57:47Z</time>
      </trkpt>
      <trkpt lat="48.59697" lon="2.04806">
        <ele>171</ele>
        <time>2020-05-31T12:57:49Z</time>
      </trkpt>
      <trkpt lat="48.59699" lon="2.04808">
        <ele>171</ele>
        <time>2020-05-31T12:57:51Z</time>
      </trkpt>
      <trkpt lat="48.59701" lon="2.0481">
        <ele>171</ele>
        <time>2020-05-31T12:57:53Z</time>
      </trkpt>
      <trkpt lat="48.59704" lon="2.04812">
        <ele>170</ele>
        <time>2020-05-31T12:57:55Z</time>
      </trkpt>
      <trkpt lat="48.59706" lon="2.04813">
        <ele>170</ele>
        <time>2020-05-31T12:57:57Z</time>
      </trkpt>
      <trkpt lat="48.59708" lon="2.04814">
        <ele>170</ele>
        <time>2020-05-31T12:57:59Z</time>
      </trkpt>
      <trkpt lat="48.59714" lon="2.04815">
        <ele>170</ele>
        <time>2020-05-31T12:58:04Z</time>
      </trkpt>
      <trkpt lat="48.59717" lon="2.04818">
        <ele>170</ele>
        <time>2020-05-31T12:58:06Z</time>
      </trkpt>
      <trkpt lat="48.59722" lon="2.04822">
        <ele>169</ele>
        <time>2020-05-31T12:58:09Z</time>
      </trkpt>
      <trkpt lat="48.59724" lon="2.04823">
        <ele>169</ele>
        <time>2020-05-31T12:58:10Z</time>
      </trkpt>
      <trkpt lat="48.59728" lon="2.04825">
        <ele>169</ele>
        <time>2020-05-31T12:58:12Z</time>
      </trkpt>
      <trkpt lat="48.5973" lon="2.04827">
        <ele>170</ele>
        <time>2020-05-31T12:58:13Z</time>
      </trkpt>
      <trkpt lat="48.59733" lon="2.04829">
        <ele>170</ele>
        <time>2020-05-31T12:58:15Z</time>
      </trkpt>
      <trkpt lat="48.59736" lon="2.04832">
        <ele>170</ele>
        <time>2020-05-31T12:58:17Z</time>
      </trkpt>
      <trkpt lat="48.59739" lon="2.04832">
        <ele>170</ele>
        <time>2020-05-31T12:58:19Z</time>
      </trkpt>
      <trkpt lat="48.59742" lon="2.04834">
        <ele>170</ele>
        <time>2020-05-31T12:58:21Z</time>
      </trkpt>
      <trkpt lat="48.59743" lon="2.04836">
        <ele>169</ele>
        <time>2020-05-31T12:58:23Z</time>
      </trkpt>
      <trkpt lat="48.59746" lon="2.04838">
        <ele>169</ele>
        <time>2020-05-31T12:58:25Z</time>
      </trkpt>
      <trkpt lat="48.59748" lon="2.0484">
        <ele>169</ele>
        <time>2020-05-31T12:58:27Z</time>
      </trkpt>
      <trkpt lat="48.5975" lon="2.04841">
        <ele>170</ele>
        <time>2020-05-31T12:58:28Z</time>
      </trkpt>
      <trkpt lat="48.59752" lon="2.04843">
        <ele>169</ele>
        <time>2020-05-31T12:58:29Z</time>
      </trkpt>
      <trkpt lat="48.59754" lon="2.04845">
        <ele>169</ele>
        <time>2020-05-31T12:58:30Z</time>
      </trkpt>
      <trkpt lat="48.59755" lon="2.04846">
        <ele>169</ele>
        <time>2020-05-31T12:58:31Z</time>
      </trkpt>
      <trkpt lat="48.59758" lon="2.04846">
        <ele>170</ele>
        <time>2020-05-31T12:58:33Z</time>
      </trkpt>
      <trkpt lat="48.5976" lon="2.04844">
        <ele>170</ele>
        <time>2020-05-31T12:58:36Z</time>
      </trkpt>
      <trkpt lat="48.59762" lon="2.04842">
        <ele>169</ele>
        <time>2020-05-31T12:58:38Z</time>
      </trkpt>
      <trkpt lat="48.59763" lon="2.04839">
        <ele>169</ele>
        <time>2020-05-31T12:58:41Z</time>
      </trkpt>
      <trkpt lat="48.59766" lon="2.04841">
        <ele>169</ele>
        <time>2020-05-31T12:58:43Z</time>
      </trkpt>
      <trkpt lat="48.59768" lon="2.04856">
        <ele>167</ele>
        <time>2020-05-31T12:58:49Z</time>
      </trkpt>
      <trkpt lat="48.59769" lon="2.04858">
        <ele>167</ele>
        <time>2020-05-31T12:58:52Z</time>
      </trkpt>
      <trkpt lat="48.59772" lon="2.04859">
        <ele>167</ele>
        <time>2020-05-31T12:58:54Z</time>
      </trkpt>
      <trkpt lat="48.5978" lon="2.04867">
        <ele>168</ele>
        <time>2020-05-31T12:59:04Z</time>
      </trkpt>
      <trkpt lat="48.59783" lon="2.04869">
        <ele>168</ele>
        <time>2020-05-31T12:59:07Z</time>
      </trkpt>
      <trkpt lat="48.59785" lon="2.04871">
        <ele>168</ele>
        <time>2020-05-31T12:59:09Z</time>
      </trkpt>
      <trkpt lat="48.59789" lon="2.04872">
        <ele>167</ele>
        <time>2020-05-31T12:59:11Z</time>
      </trkpt>
      <trkpt lat="48.59791" lon="2.04874">
        <ele>168</ele>
        <time>2020-05-31T12:59:13Z</time>
      </trkpt>
      <trkpt lat="48.59793" lon="2.04875">
        <ele>168</ele>
        <time>2020-05-31T12:59:17Z</time>
      </trkpt>
      <trkpt lat="48.59795" lon="2.04876">
        <ele>168</ele>
        <time>2020-05-31T12:59:18Z</time>
      </trkpt>
      <trkpt lat="48.59797" lon="2.04877">
        <ele>168</ele>
        <time>2020-05-31T12:59:19Z</time>
      </trkpt>
      <trkpt lat="48.598" lon="2.04878">
        <ele>168</ele>
        <time>2020-05-31T12:59:21Z</time>
      </trkpt>
      <trkpt lat="48.59803" lon="2.0488">
        <ele>168</ele>
        <time>2020-05-31T12:59:23Z</time>
      </trkpt>
      <trkpt lat="48.59805" lon="2.04881">
        <ele>168</ele>
        <time>2020-05-31T12:59:25Z</time>
      </trkpt>
      <trkpt lat="48.5981" lon="2.04885">
        <ele>167</ele>
        <time>2020-05-31T12:59:28Z</time>
      </trkpt>
      <trkpt lat="48.59815" lon="2.04888">
        <ele>167</ele>
        <time>2020-05-31T12:59:31Z</time>
      </trkpt>
      <trkpt lat="48.59818" lon="2.0489">
        <ele>167</ele>
        <time>2020-05-31T12:59:33Z</time>
      </trkpt>
      <trkpt lat="48.59823" lon="2.04893">
        <ele>166</ele>
        <time>2020-05-31T12:59:37Z</time>
      </trkpt>
      <trkpt lat="48.59828" lon="2.04896">
        <ele>166</ele>
        <time>2020-05-31T12:59:39Z</time>
      </trkpt>
      <trkpt lat="48.5983" lon="2.04898">
        <ele>166</ele>
        <time>2020-05-31T12:59:40Z</time>
      </trkpt>
      <trkpt lat="48.59831" lon="2.04899">
        <ele>166</ele>
        <time>2020-05-31T12:59:41Z</time>
      </trkpt>
      <trkpt lat="48.5984" lon="2.04904">
        <ele>165</ele>
        <time>2020-05-31T12:59:48Z</time>
      </trkpt>
      <trkpt lat="48.59843" lon="2.04906">
        <ele>165</ele>
        <time>2020-05-31T12:59:50Z</time>
      </trkpt>
      <trkpt lat="48.59846" lon="2.04908">
        <ele>165</ele>
        <time>2020-05-31T12:59:52Z</time>
      </trkpt>
      <trkpt lat="48.59849" lon="2.0491">
        <ele>165</ele>
        <time>2020-05-31T12:59:54Z</time>
      </trkpt>
      <trkpt lat="48.59856" lon="2.04915">
        <ele>164</ele>
        <time>2020-05-31T12:59:57Z</time>
      </trkpt>
      <trkpt lat="48.59858" lon="2.04916">
        <ele>164</ele>
        <time>2020-05-31T12:59:59Z</time>
      </trkpt>
      <trkpt lat="48.5986" lon="2.04917">
        <ele>163</ele>
        <time>2020-05-31T13:00:01Z</time>
      </trkpt>
      <trkpt lat="48.59863" lon="2.0492">
        <ele>162</ele>
        <time>2020-05-31T13:00:03Z</time>
      </trkpt>
      <trkpt lat="48.59865" lon="2.04922">
        <ele>161</ele>
        <time>2020-05-31T13:00:05Z</time>
      </trkpt>
      <trkpt lat="48.59867" lon="2.04923">
        <ele>161</ele>
        <time>2020-05-31T13:00:07Z</time>
      </trkpt>
      <trkpt lat="48.59869" lon="2.04926">
        <ele>161</ele>
        <time>2020-05-31T13:00:09Z</time>
      </trkpt>
      <trkpt lat="48.59872" lon="2.04929">
        <ele>161</ele>
        <time>2020-05-31T13:00:11Z</time>
      </trkpt>
      <trkpt lat="48.59875" lon="2.0493">
        <ele>161</ele>
        <time>2020-05-31T13:00:13Z</time>
      </trkpt>
      <trkpt lat="48.59877" lon="2.04932">
        <ele>161</ele>
        <time>2020-05-31T13:00:15Z</time>
      </trkpt>
      <trkpt lat="48.59879" lon="2.04933">
        <ele>160</ele>
        <time>2020-05-31T13:00:17Z</time>
      </trkpt>
      <trkpt lat="48.59881" lon="2.04934">
        <ele>160</ele>
        <time>2020-05-31T13:00:20Z</time>
      </trkpt>
      <trkpt lat="48.59883" lon="2.04936">
        <ele>159</ele>
        <time>2020-05-31T13:00:22Z</time>
      </trkpt>
      <trkpt lat="48.59885" lon="2.04938">
        <ele>158</ele>
        <time>2020-05-31T13:00:24Z</time>
      </trkpt>
      <trkpt lat="48.59888" lon="2.0494">
        <ele>158</ele>
        <time>2020-05-31T13:00:26Z</time>
      </trkpt>
      <trkpt lat="48.5989" lon="2.04942">
        <ele>157</ele>
        <time>2020-05-31T13:00:28Z</time>
      </trkpt>
      <trkpt lat="48.59892" lon="2.04944">
        <ele>157</ele>
        <time>2020-05-31T13:00:30Z</time>
      </trkpt>
      <trkpt lat="48.59894" lon="2.04945">
        <ele>157</ele>
        <time>2020-05-31T13:00:33Z</time>
      </trkpt>
      <trkpt lat="48.59898" lon="2.04947">
        <ele>157</ele>
        <time>2020-05-31T13:00:35Z</time>
      </trkpt>
      <trkpt lat="48.59901" lon="2.04948">
        <ele>157</ele>
        <time>2020-05-31T13:00:37Z</time>
      </trkpt>
      <trkpt lat="48.59903" lon="2.0495">
        <ele>157</ele>
        <time>2020-05-31T13:00:39Z</time>
      </trkpt>
      <trkpt lat="48.59906" lon="2.04951">
        <ele>157</ele>
        <time>2020-05-31T13:00:41Z</time>
      </trkpt>
      <trkpt lat="48.59909" lon="2.04953">
        <ele>157</ele>
        <time>2020-05-31T13:00:43Z</time>
      </trkpt>
      <trkpt lat="48.59911" lon="2.04955">
        <ele>157</ele>
        <time>2020-05-31T13:00:44Z</time>
      </trkpt>
      <trkpt lat="48.59914" lon="2.04957">
        <ele>157</ele>
        <time>2020-05-31T13:00:46Z</time>
      </trkpt>
      <trkpt lat="48.59916" lon="2.04958">
        <ele>156</ele>
        <time>2020-05-31T13:00:47Z</time>
      </trkpt>
      <trkpt lat="48.59918" lon="2.04959">
        <ele>156</ele>
        <time>2020-05-31T13:00:48Z</time>
      </trkpt>
      <trkpt lat="48.5992" lon="2.0496">
        <ele>156</ele>
        <time>2020-05-31T13:00:49Z</time>
      </trkpt>
      <trkpt lat="48.59923" lon="2.04961">
        <ele>156</ele>
        <time>2020-05-31T13:00:51Z</time>
      </trkpt>
      <trkpt lat="48.59926" lon="2.04964">
        <ele>156</ele>
        <time>2020-05-31T13:00:53Z</time>
      </trkpt>
      <trkpt lat="48.59929" lon="2.04966">
        <ele>156</ele>
        <time>2020-05-31T13:00:55Z</time>
      </trkpt>
      <trkpt lat="48.59932" lon="2.04969">
        <ele>156</ele>
        <time>2020-05-31T13:00:57Z</time>
      </trkpt>
      <trkpt lat="48.59934" lon="2.04971">
        <ele>155</ele>
        <time>2020-05-31T13:00:58Z</time>
      </trkpt>
      <trkpt lat="48.59936" lon="2.04972">
        <ele>155</ele>
        <time>2020-05-31T13:00:59Z</time>
      </trkpt>
      <trkpt lat="48.59937" lon="2.04973">
        <ele>155</ele>
        <time>2020-05-31T13:01:00Z</time>
      </trkpt>
      <trkpt lat="48.59939" lon="2.04973">
        <ele>155</ele>
        <time>2020-05-31T13:01:01Z</time>
      </trkpt>
      <trkpt lat="48.59942" lon="2.04975">
        <ele>155</ele>
        <time>2020-05-31T13:01:03Z</time>
      </trkpt>
      <trkpt lat="48.59945" lon="2.04978">
        <ele>155</ele>
        <time>2020-05-31T13:01:05Z</time>
      </trkpt>
      <trkpt lat="48.59947" lon="2.04979">
        <ele>154</ele>
        <time>2020-05-31T13:01:06Z</time>
      </trkpt>
      <trkpt lat="48.5995" lon="2.04982">
        <ele>154</ele>
        <time>2020-05-31T13:01:08Z</time>
      </trkpt>
      <trkpt lat="48.59951" lon="2.04983">
        <ele>154</ele>
        <time>2020-05-31T13:01:09Z</time>
      </trkpt>
      <trkpt lat="48.59954" lon="2.04986">
        <ele>154</ele>
        <time>2020-05-31T13:01:11Z</time>
      </trkpt>
      <trkpt lat="48.59957" lon="2.04988">
        <ele>154</ele>
        <time>2020-05-31T13:01:13Z</time>
      </trkpt>
      <trkpt lat="48.59959" lon="2.04989">
        <ele>154</ele>
        <time>2020-05-31T13:01:14Z</time>
      </trkpt>
      <trkpt lat="48.59961" lon="2.0499">
        <ele>154</ele>
        <time>2020-05-31T13:01:15Z</time>
      </trkpt>
      <trkpt lat="48.59963" lon="2.04991">
        <ele>153</ele>
        <time>2020-05-31T13:01:16Z</time>
      </trkpt>
      <trkpt lat="48.59965" lon="2.04992">
        <ele>153</ele>
        <time>2020-05-31T13:01:17Z</time>
      </trkpt>
      <trkpt lat="48.59967" lon="2.04993">
        <ele>153</ele>
        <time>2020-05-31T13:01:18Z</time>
      </trkpt>
      <trkpt lat="48.59968" lon="2.04994">
        <ele>153</ele>
        <time>2020-05-31T13:01:19Z</time>
      </trkpt>
      <trkpt lat="48.5997" lon="2.04995">
        <ele>153</ele>
        <time>2020-05-31T13:01:20Z</time>
      </trkpt>
      <trkpt lat="48.59973" lon="2.04997">
        <ele>153</ele>
        <time>2020-05-31T13:01:22Z</time>
      </trkpt>
      <trkpt lat="48.59976" lon="2.04999">
        <ele>152</ele>
        <time>2020-05-31T13:01:24Z</time>
      </trkpt>
      <trkpt lat="48.59979" lon="2.05002">
        <ele>153</ele>
        <time>2020-05-31T13:01:26Z</time>
      </trkpt>
      <trkpt lat="48.59982" lon="2.05004">
        <ele>153</ele>
        <time>2020-05-31T13:01:28Z</time>
      </trkpt>
      <trkpt lat="48.59984" lon="2.05006">
        <ele>153</ele>
        <time>2020-05-31T13:01:30Z</time>
      </trkpt>
      <trkpt lat="48.59988" lon="2.05009">
        <ele>152</ele>
        <time>2020-05-31T13:01:32Z</time>
      </trkpt>
      <trkpt lat="48.59991" lon="2.0501">
        <ele>151</ele>
        <time>2020-05-31T13:01:34Z</time>
      </trkpt>
      <trkpt lat="48.59993" lon="2.05012">
        <ele>151</ele>
        <time>2020-05-31T13:01:36Z</time>
      </trkpt>
      <trkpt lat="48.59996" lon="2.05013">
        <ele>150</ele>
        <time>2020-05-31T13:01:38Z</time>
      </trkpt>
      <trkpt lat="48.59999" lon="2.05015">
        <ele>149</ele>
        <time>2020-05-31T13:01:40Z</time>
      </trkpt>
      <trkpt lat="48.60001" lon="2.05017">
        <ele>149</ele>
        <time>2020-05-31T13:01:41Z</time>
      </trkpt>
      <trkpt lat="48.60004" lon="2.0502">
        <ele>148</ele>
        <time>2020-05-31T13:01:43Z</time>
      </trkpt>
      <trkpt lat="48.60007" lon="2.05022">
        <ele>148</ele>
        <time>2020-05-31T13:01:45Z</time>
      </trkpt>
      <trkpt lat="48.6001" lon="2.05024">
        <ele>147</ele>
        <time>2020-05-31T13:01:47Z</time>
      </trkpt>
      <trkpt lat="48.60013" lon="2.05026">
        <ele>147</ele>
        <time>2020-05-31T13:01:49Z</time>
      </trkpt>
      <trkpt lat="48.60016" lon="2.05029">
        <ele>146</ele>
        <time>2020-05-31T13:01:51Z</time>
      </trkpt>
      <trkpt lat="48.60019" lon="2.05031">
        <ele>146</ele>
        <time>2020-05-31T13:01:53Z</time>
      </trkpt>
      <trkpt lat="48.60022" lon="2.05033">
        <ele>145</ele>
        <time>2020-05-31T13:01:55Z</time>
      </trkpt>
      <trkpt lat="48.60025" lon="2.05035">
        <ele>145</ele>
        <time>2020-05-31T13:01:57Z</time>
      </trkpt>
      <trkpt lat="48.60028" lon="2.05037">
        <ele>145</ele>
        <time>2020-05-31T13:01:59Z</time>
      </trkpt>
      <trkpt lat="48.6003" lon="2.05039">
        <ele>144</ele>
        <time>2020-05-31T13:02:01Z</time>
      </trkpt>
      <trkpt lat="48.60033" lon="2.05042">
        <ele>144</ele>
        <time>2020-05-31T13:02:03Z</time>
      </trkpt>
      <trkpt lat="48.60035" lon="2.05044">
        <ele>144</ele>
        <time>2020-05-31T13:02:05Z</time>
      </trkpt>
      <trkpt lat="48.60037" lon="2.05046">
        <ele>144</ele>
        <time>2020-05-31T13:02:07Z</time>
      </trkpt>
      <trkpt lat="48.60039" lon="2.05047">
        <ele>144</ele>
        <time>2020-05-31T13:02:09Z</time>
      </trkpt>
      <trkpt lat="48.60041" lon="2.05048">
        <ele>143</ele>
        <time>2020-05-31T13:02:11Z</time>
      </trkpt>
      <trkpt lat="48.60043" lon="2.0505">
        <ele>143</ele>
        <time>2020-05-31T13:02:12Z</time>
      </trkpt>
      <trkpt lat="48.60045" lon="2.05052">
        <ele>143</ele>
        <time>2020-05-31T13:02:13Z</time>
      </trkpt>
      <trkpt lat="48.60047" lon="2.05053">
        <ele>143</ele>
        <time>2020-05-31T13:02:14Z</time>
      </trkpt>
      <trkpt lat="48.60049" lon="2.05056">
        <ele>143</ele>
        <time>2020-05-31T13:02:15Z</time>
      </trkpt>
      <trkpt lat="48.6005" lon="2.05058">
        <ele>142</ele>
        <time>2020-05-31T13:02:16Z</time>
      </trkpt>
      <trkpt lat="48.60051" lon="2.0506">
        <ele>142</ele>
        <time>2020-05-31T13:02:17Z</time>
      </trkpt>
      <trkpt lat="48.60053" lon="2.05062">
        <ele>142</ele>
        <time>2020-05-31T13:02:18Z</time>
      </trkpt>
      <trkpt lat="48.60054" lon="2.05065">
        <ele>142</ele>
        <time>2020-05-31T13:02:19Z</time>
      </trkpt>
      <trkpt lat="48.60055" lon="2.05067">
        <ele>142</ele>
        <time>2020-05-31T13:02:20Z</time>
      </trkpt>
      <trkpt lat="48.60056" lon="2.05069">
        <ele>141</ele>
        <time>2020-05-31T13:02:21Z</time>
      </trkpt>
      <trkpt lat="48.60057" lon="2.05072">
        <ele>141</ele>
        <time>2020-05-31T13:02:22Z</time>
      </trkpt>
      <trkpt lat="48.60058" lon="2.05074">
        <ele>141</ele>
        <time>2020-05-31T13:02:23Z</time>
      </trkpt>
      <trkpt lat="48.60059" lon="2.05077">
        <ele>141</ele>
        <time>2020-05-31T13:02:24Z</time>
      </trkpt>
      <trkpt lat="48.6006" lon="2.05079">
        <ele>141</ele>
        <time>2020-05-31T13:02:25Z</time>
      </trkpt>
      <trkpt lat="48.60061" lon="2.05082">
        <ele>141</ele>
        <time>2020-05-31T13:02:26Z</time>
      </trkpt>
      <trkpt lat="48.60062" lon="2.05084">
        <ele>140</ele>
        <time>2020-05-31T13:02:27Z</time>
      </trkpt>
      <trkpt lat="48.60063" lon="2.05087">
        <ele>140</ele>
        <time>2020-05-31T13:02:28Z</time>
      </trkpt>
      <trkpt lat="48.60063" lon="2.05091">
        <ele>140</ele>
        <time>2020-05-31T13:02:30Z</time>
      </trkpt>
      <trkpt lat="48.60064" lon="2.05094">
        <ele>140</ele>
        <time>2020-05-31T13:02:32Z</time>
      </trkpt>
      <trkpt lat="48.60064" lon="2.05099">
        <ele>139</ele>
        <time>2020-05-31T13:02:34Z</time>
      </trkpt>
      <trkpt lat="48.60065" lon="2.05103">
        <ele>138</ele>
        <time>2020-05-31T13:02:36Z</time>
      </trkpt>
      <trkpt lat="48.60066" lon="2.05108">
        <ele>138</ele>
        <time>2020-05-31T13:02:38Z</time>
      </trkpt>
      <trkpt lat="48.60067" lon="2.05112">
        <ele>138</ele>
        <time>2020-05-31T13:02:40Z</time>
      </trkpt>
      <trkpt lat="48.60068" lon="2.05117">
        <ele>138</ele>
        <time>2020-05-31T13:02:42Z</time>
      </trkpt>
      <trkpt lat="48.6007" lon="2.05121">
        <ele>138</ele>
        <time>2020-05-31T13:02:44Z</time>
      </trkpt>
      <trkpt lat="48.60072" lon="2.05126">
        <ele>138</ele>
        <time>2020-05-31T13:02:46Z</time>
      </trkpt>
      <trkpt lat="48.60072" lon="2.05128">
        <ele>138</ele>
        <time>2020-05-31T13:02:47Z</time>
      </trkpt>
      <trkpt lat="48.60073" lon="2.05131">
        <ele>138</ele>
        <time>2020-05-31T13:02:48Z</time>
      </trkpt>
      <trkpt lat="48.60074" lon="2.05134">
        <ele>138</ele>
        <time>2020-05-31T13:02:49Z</time>
      </trkpt>
      <trkpt lat="48.60074" lon="2.05137">
        <ele>138</ele>
        <time>2020-05-31T13:02:50Z</time>
      </trkpt>
      <trkpt lat="48.60075" lon="2.05139">
        <ele>138</ele>
        <time>2020-05-31T13:02:51Z</time>
      </trkpt>
      <trkpt lat="48.60076" lon="2.05142">
        <ele>138</ele>
        <time>2020-05-31T13:02:52Z</time>
      </trkpt>
      <trkpt lat="48.60077" lon="2.05144">
        <ele>138</ele>
        <time>2020-05-31T13:02:53Z</time>
      </trkpt>
      <trkpt lat="48.60077" lon="2.0515">
        <ele>138</ele>
        <time>2020-05-31T13:02:55Z</time>
      </trkpt>
      <trkpt lat="48.60078" lon="2.05152">
        <ele>138</ele>
        <time>2020-05-31T13:02:56Z</time>
      </trkpt>
      <trkpt lat="48.60078" lon="2.05157">
        <ele>138</ele>
        <time>2020-05-31T13:02:58Z</time>
      </trkpt>
      <trkpt lat="48.60078" lon="2.05162">
        <ele>138</ele>
        <time>2020-05-31T13:03:00Z</time>
      </trkpt>
      <trkpt lat="48.6008" lon="2.05167">
        <ele>138</ele>
        <time>2020-05-31T13:03:02Z</time>
      </trkpt>
      <trkpt lat="48.60081" lon="2.05169">
        <ele>138</ele>
        <time>2020-05-31T13:03:03Z</time>
      </trkpt>
      <trkpt lat="48.60083" lon="2.05174">
        <ele>138</ele>
        <time>2020-05-31T13:03:05Z</time>
      </trkpt>
      <trkpt lat="48.60084" lon="2.05178">
        <ele>138</ele>
        <time>2020-05-31T13:03:07Z</time>
      </trkpt>
      <trkpt lat="48.60086" lon="2.05183">
        <ele>138</ele>
        <time>2020-05-31T13:03:09Z</time>
      </trkpt>
      <trkpt lat="48.60087" lon="2.05188">
        <ele>137</ele>
        <time>2020-05-31T13:03:11Z</time>
      </trkpt>
      <trkpt lat="48.60087" lon="2.05193">
        <ele>137</ele>
        <time>2020-05-31T13:03:13Z</time>
      </trkpt>
      <trkpt lat="48.60088" lon="2.05197">
        <ele>137</ele>
        <time>2020-05-31T13:03:15Z</time>
      </trkpt>
      <trkpt lat="48.60089" lon="2.05202">
        <ele>137</ele>
        <time>2020-05-31T13:03:17Z</time>
      </trkpt>
      <trkpt lat="48.6009" lon="2.05205">
        <ele>137</ele>
        <time>2020-05-31T13:03:19Z</time>
      </trkpt>
      <trkpt lat="48.60091" lon="2.05208">
        <ele>137</ele>
        <time>2020-05-31T13:03:20Z</time>
      </trkpt>
      <trkpt lat="48.60091" lon="2.0521">
        <ele>136</ele>
        <time>2020-05-31T13:03:21Z</time>
      </trkpt>
      <trkpt lat="48.60092" lon="2.05213">
        <ele>137</ele>
        <time>2020-05-31T13:03:22Z</time>
      </trkpt>
      <trkpt lat="48.60093" lon="2.05216">
        <ele>137</ele>
        <time>2020-05-31T13:03:23Z</time>
      </trkpt>
      <trkpt lat="48.60093" lon="2.05219">
        <ele>136</ele>
        <time>2020-05-31T13:03:24Z</time>
      </trkpt>
      <trkpt lat="48.60094" lon="2.05222">
        <ele>136</ele>
        <time>2020-05-31T13:03:25Z</time>
      </trkpt>
      <trkpt lat="48.60095" lon="2.05225">
        <ele>136</ele>
        <time>2020-05-31T13:03:26Z</time>
      </trkpt>
      <trkpt lat="48.60095" lon="2.05227">
        <ele>136</ele>
        <time>2020-05-31T13:03:27Z</time>
      </trkpt>
      <trkpt lat="48.60096" lon="2.05232">
        <ele>135</ele>
        <time>2020-05-31T13:03:29Z</time>
      </trkpt>
      <trkpt lat="48.60096" lon="2.05235">
        <ele>135</ele>
        <time>2020-05-31T13:03:30Z</time>
      </trkpt>
      <trkpt lat="48.60097" lon="2.05237">
        <ele>135</ele>
        <time>2020-05-31T13:03:31Z</time>
      </trkpt>
      <trkpt lat="48.60097" lon="2.05242">
        <ele>135</ele>
        <time>2020-05-31T13:03:33Z</time>
      </trkpt>
      <trkpt lat="48.60098" lon="2.05247">
        <ele>135</ele>
        <time>2020-05-31T13:03:35Z</time>
      </trkpt>
      <trkpt lat="48.601" lon="2.05251">
        <ele>134</ele>
        <time>2020-05-31T13:03:37Z</time>
      </trkpt>
      <trkpt lat="48.60101" lon="2.05256">
        <ele>134</ele>
        <time>2020-05-31T13:03:39Z</time>
      </trkpt>
      <trkpt lat="48.60101" lon="2.05261">
        <ele>134</ele>
        <time>2020-05-31T13:03:41Z</time>
      </trkpt>
      <trkpt lat="48.60102" lon="2.05263">
        <ele>134</ele>
        <time>2020-05-31T13:03:42Z</time>
      </trkpt>
      <trkpt lat="48.60104" lon="2.05266">
        <ele>134</ele>
        <time>2020-05-31T13:03:43Z</time>
      </trkpt>
      <trkpt lat="48.60104" lon="2.05268">
        <ele>134</ele>
        <time>2020-05-31T13:03:44Z</time>
      </trkpt>
      <trkpt lat="48.60104" lon="2.05273">
        <ele>134</ele>
        <time>2020-05-31T13:03:46Z</time>
      </trkpt>
      <trkpt lat="48.60105" lon="2.05276">
        <ele>134</ele>
        <time>2020-05-31T13:03:47Z</time>
      </trkpt>
      <trkpt lat="48.60106" lon="2.05279">
        <ele>134</ele>
        <time>2020-05-31T13:03:48Z</time>
      </trkpt>
      <trkpt lat="48.60107" lon="2.05282">
        <ele>134</ele>
        <time>2020-05-31T13:03:49Z</time>
      </trkpt>
      <trkpt lat="48.60108" lon="2.05284">
        <ele>134</ele>
        <time>2020-05-31T13:03:50Z</time>
      </trkpt>
      <trkpt lat="48.60109" lon="2.05287">
        <ele>134</ele>
        <time>2020-05-31T13:03:51Z</time>
      </trkpt>
      <trkpt lat="48.6011" lon="2.05291">
        <ele>134</ele>
        <time>2020-05-31T13:03:53Z</time>
      </trkpt>
      <trkpt lat="48.6011" lon="2.05297">
        <ele>134</ele>
        <time>2020-05-31T13:03:55Z</time>
      </trkpt>
      <trkpt lat="48.6011" lon="2.05302">
        <ele>133</ele>
        <time>2020-05-31T13:03:57Z</time>
      </trkpt>
      <trkpt lat="48.60111" lon="2.05306">
        <ele>134</ele>
        <time>2020-05-31T13:03:59Z</time>
      </trkpt>
      <trkpt lat="48.60112" lon="2.05311">
        <ele>134</ele>
        <time>2020-05-31T13:04:01Z</time>
      </trkpt>
      <trkpt lat="48.60113" lon="2.05315">
        <ele>134</ele>
        <time>2020-05-31T13:04:03Z</time>
      </trkpt>
      <trkpt lat="48.60114" lon="2.0532">
        <ele>134</ele>
        <time>2020-05-31T13:04:05Z</time>
      </trkpt>
      <trkpt lat="48.60115" lon="2.05323">
        <ele>133</ele>
        <time>2020-05-31T13:04:06Z</time>
      </trkpt>
      <trkpt lat="48.60116" lon="2.05325">
        <ele>133</ele>
        <time>2020-05-31T13:04:07Z</time>
      </trkpt>
      <trkpt lat="48.60117" lon="2.05328">
        <ele>133</ele>
        <time>2020-05-31T13:04:08Z</time>
      </trkpt>
      <trkpt lat="48.60118" lon="2.05333">
        <ele>133</ele>
        <time>2020-05-31T13:04:10Z</time>
      </trkpt>
      <trkpt lat="48.60119" lon="2.05338">
        <ele>133</ele>
        <time>2020-05-31T13:04:12Z</time>
      </trkpt>
      <trkpt lat="48.6012" lon="2.05342">
        <ele>133</ele>
        <time>2020-05-31T13:04:14Z</time>
      </trkpt>
      <trkpt lat="48.60122" lon="2.05347">
        <ele>133</ele>
        <time>2020-05-31T13:04:16Z</time>
      </trkpt>
      <trkpt lat="48.60122" lon="2.0535">
        <ele>133</ele>
        <time>2020-05-31T13:04:17Z</time>
      </trkpt>
      <trkpt lat="48.60123" lon="2.05353">
        <ele>133</ele>
        <time>2020-05-31T13:04:18Z</time>
      </trkpt>
      <trkpt lat="48.60124" lon="2.05355">
        <ele>133</ele>
        <time>2020-05-31T13:04:19Z</time>
      </trkpt>
      <trkpt lat="48.60126" lon="2.0536">
        <ele>133</ele>
        <time>2020-05-31T13:04:21Z</time>
      </trkpt>
      <trkpt lat="48.60127" lon="2.05365">
        <ele>134</ele>
        <time>2020-05-31T13:04:23Z</time>
      </trkpt>
      <trkpt lat="48.60128" lon="2.0537">
        <ele>134</ele>
        <time>2020-05-31T13:04:25Z</time>
      </trkpt>
      <trkpt lat="48.60129" lon="2.05373">
        <ele>133</ele>
        <time>2020-05-31T13:04:26Z</time>
      </trkpt>
      <trkpt lat="48.6013" lon="2.05378">
        <ele>133</ele>
        <time>2020-05-31T13:04:28Z</time>
      </trkpt>
      <trkpt lat="48.6013" lon="2.05381">
        <ele>133</ele>
        <time>2020-05-31T13:04:29Z</time>
      </trkpt>
      <trkpt lat="48.60131" lon="2.05384">
        <ele>133</ele>
        <time>2020-05-31T13:04:30Z</time>
      </trkpt>
      <trkpt lat="48.60131" lon="2.05387">
        <ele>133</ele>
        <time>2020-05-31T13:04:31Z</time>
      </trkpt>
      <trkpt lat="48.60132" lon="2.0539">
        <ele>133</ele>
        <time>2020-05-31T13:04:32Z</time>
      </trkpt>
      <trkpt lat="48.60133" lon="2.05395">
        <ele>133</ele>
        <time>2020-05-31T13:04:34Z</time>
      </trkpt>
      <trkpt lat="48.60133" lon="2.05398">
        <ele>133</ele>
        <time>2020-05-31T13:04:35Z</time>
      </trkpt>
      <trkpt lat="48.60133" lon="2.054">
        <ele>133</ele>
        <time>2020-05-31T13:04:36Z</time>
      </trkpt>
      <trkpt lat="48.60133" lon="2.05404">
        <ele>133</ele>
        <time>2020-05-31T13:04:38Z</time>
      </trkpt>
      <trkpt lat="48.60134" lon="2.05409">
        <ele>132</ele>
        <time>2020-05-31T13:04:40Z</time>
      </trkpt>
      <trkpt lat="48.60134" lon="2.05413">
        <ele>132</ele>
        <time>2020-05-31T13:04:42Z</time>
      </trkpt>
      <trkpt lat="48.60134" lon="2.05418">
        <ele>132</ele>
        <time>2020-05-31T13:04:44Z</time>
      </trkpt>
      <trkpt lat="48.60135" lon="2.05422">
        <ele>132</ele>
        <time>2020-05-31T13:04:46Z</time>
      </trkpt>
      <trkpt lat="48.60136" lon="2.05427">
        <ele>132</ele>
        <time>2020-05-31T13:04:48Z</time>
      </trkpt>
      <trkpt lat="48.60137" lon="2.05431">
        <ele>132</ele>
        <time>2020-05-31T13:04:50Z</time>
      </trkpt>
      <trkpt lat="48.60138" lon="2.05435">
        <ele>132</ele>
        <time>2020-05-31T13:04:52Z</time>
      </trkpt>
      <trkpt lat="48.60139" lon="2.05439">
        <ele>132</ele>
        <time>2020-05-31T13:04:54Z</time>
      </trkpt>
      <trkpt lat="48.60139" lon="2.05444">
        <ele>132</ele>
        <time>2020-05-31T13:04:56Z</time>
      </trkpt>
      <trkpt lat="48.6014" lon="2.0545">
        <ele>132</ele>
        <time>2020-05-31T13:04:58Z</time>
      </trkpt>
      <trkpt lat="48.60141" lon="2.05453">
        <ele>132</ele>
        <time>2020-05-31T13:05:00Z</time>
      </trkpt>
      <trkpt lat="48.60142" lon="2.05457">
        <ele>132</ele>
        <time>2020-05-31T13:05:03Z</time>
      </trkpt>
      <trkpt lat="48.60143" lon="2.05462">
        <ele>132</ele>
        <time>2020-05-31T13:05:05Z</time>
      </trkpt>
      <trkpt lat="48.60143" lon="2.05465">
        <ele>132</ele>
        <time>2020-05-31T13:05:07Z</time>
      </trkpt>
      <trkpt lat="48.60144" lon="2.05469">
        <ele>131</ele>
        <time>2020-05-31T13:05:09Z</time>
      </trkpt>
      <trkpt lat="48.60145" lon="2.05472">
        <ele>131</ele>
        <time>2020-05-31T13:05:11Z</time>
      </trkpt>
      <trkpt lat="48.60146" lon="2.05474">
        <ele>131</ele>
        <time>2020-05-31T13:05:12Z</time>
      </trkpt>
      <trkpt lat="48.60147" lon="2.05476">
        <ele>131</ele>
        <time>2020-05-31T13:05:13Z</time>
      </trkpt>
      <trkpt lat="48.60148" lon="2.05482">
        <ele>131</ele>
        <time>2020-05-31T13:05:15Z</time>
      </trkpt>
      <trkpt lat="48.60149" lon="2.05486">
        <ele>131</ele>
        <time>2020-05-31T13:05:17Z</time>
      </trkpt>
      <trkpt lat="48.60151" lon="2.05491">
        <ele>131</ele>
        <time>2020-05-31T13:05:19Z</time>
      </trkpt>
      <trkpt lat="48.60152" lon="2.05495">
        <ele>132</ele>
        <time>2020-05-31T13:05:21Z</time>
      </trkpt>
      <trkpt lat="48.60153" lon="2.05499">
        <ele>132</ele>
        <time>2020-05-31T13:05:23Z</time>
      </trkpt>
      <trkpt lat="48.60153" lon="2.05504">
        <ele>132</ele>
        <time>2020-05-31T13:05:25Z</time>
      </trkpt>
      <trkpt lat="48.60153" lon="2.05508">
        <ele>132</ele>
        <time>2020-05-31T13:05:27Z</time>
      </trkpt>
      <trkpt lat="48.60154" lon="2.05511">
        <ele>132</ele>
        <time>2020-05-31T13:05:29Z</time>
      </trkpt>
      <trkpt lat="48.60155" lon="2.05515">
        <ele>132</ele>
        <time>2020-05-31T13:05:31Z</time>
      </trkpt>
      <trkpt lat="48.60155" lon="2.05518">
        <ele>132</ele>
        <time>2020-05-31T13:05:32Z</time>
      </trkpt>
      <trkpt lat="48.60155" lon="2.05521">
        <ele>132</ele>
        <time>2020-05-31T13:05:33Z</time>
      </trkpt>
      <trkpt lat="48.60157" lon="2.05526">
        <ele>132</ele>
        <time>2020-05-31T13:05:35Z</time>
      </trkpt>
      <trkpt lat="48.60158" lon="2.0553">
        <ele>132</ele>
        <time>2020-05-31T13:05:37Z</time>
      </trkpt>
      <trkpt lat="48.60159" lon="2.05535">
        <ele>132</ele>
        <time>2020-05-31T13:05:39Z</time>
      </trkpt>
      <trkpt lat="48.6016" lon="2.05539">
        <ele>132</ele>
        <time>2020-05-31T13:05:41Z</time>
      </trkpt>
      <trkpt lat="48.6016" lon="2.05542">
        <ele>132</ele>
        <time>2020-05-31T13:05:42Z</time>
      </trkpt>
      <trkpt lat="48.60162" lon="2.05544">
        <ele>132</ele>
        <time>2020-05-31T13:05:43Z</time>
      </trkpt>
      <trkpt lat="48.60163" lon="2.05549">
        <ele>132</ele>
        <time>2020-05-31T13:05:45Z</time>
      </trkpt>
      <trkpt lat="48.60163" lon="2.05554">
        <ele>132</ele>
        <time>2020-05-31T13:05:47Z</time>
      </trkpt>
      <trkpt lat="48.60163" lon="2.05557">
        <ele>132</ele>
        <time>2020-05-31T13:05:57Z</time>
      </trkpt>
      <trkpt lat="48.60162" lon="2.05559">
        <ele>132</ele>
        <time>2020-05-31T13:06:00Z</time>
      </trkpt>
      <trkpt lat="48.60162" lon="2.05563">
        <ele>131</ele>
        <time>2020-05-31T13:06:02Z</time>
      </trkpt>
      <trkpt lat="48.60162" lon="2.05566">
        <ele>131</ele>
        <time>2020-05-31T13:06:05Z</time>
      </trkpt>
      <trkpt lat="48.60163" lon="2.05572">
        <ele>132</ele>
        <time>2020-05-31T13:06:08Z</time>
      </trkpt>
      <trkpt lat="48.60163" lon="2.05575">
        <ele>132</ele>
        <time>2020-05-31T13:06:09Z</time>
      </trkpt>
      <trkpt lat="48.60164" lon="2.05578">
        <ele>132</ele>
        <time>2020-05-31T13:06:10Z</time>
      </trkpt>
      <trkpt lat="48.60163" lon="2.05582">
        <ele>132</ele>
        <time>2020-05-31T13:06:12Z</time>
      </trkpt>
      <trkpt lat="48.60163" lon="2.05584">
        <ele>132</ele>
        <time>2020-05-31T13:06:13Z</time>
      </trkpt>
      <trkpt lat="48.60165" lon="2.05588">
        <ele>132</ele>
        <time>2020-05-31T13:06:15Z</time>
      </trkpt>
      <trkpt lat="48.60166" lon="2.05591">
        <ele>132</ele>
        <time>2020-05-31T13:06:17Z</time>
      </trkpt>
      <trkpt lat="48.60167" lon="2.05595">
        <ele>131</ele>
        <time>2020-05-31T13:06:19Z</time>
      </trkpt>
      <trkpt lat="48.60168" lon="2.05599">
        <ele>131</ele>
        <time>2020-05-31T13:06:21Z</time>
      </trkpt>
      <trkpt lat="48.6017" lon="2.05603">
        <ele>131</ele>
        <time>2020-05-31T13:06:23Z</time>
      </trkpt>
      <trkpt lat="48.60171" lon="2.05604">
        <ele>131</ele>
        <time>2020-05-31T13:06:25Z</time>
      </trkpt>
      <trkpt lat="48.60173" lon="2.05607">
        <ele>131</ele>
        <time>2020-05-31T13:06:52Z</time>
      </trkpt>
      <trkpt lat="48.60173" lon="2.0561">
        <ele>130</ele>
        <time>2020-05-31T13:06:58Z</time>
      </trkpt>
      <trkpt lat="48.60172" lon="2.05613">
        <ele>130</ele>
        <time>2020-05-31T13:07:20Z</time>
      </trkpt>
      <trkpt lat="48.60173" lon="2.05616">
        <ele>130</ele>
        <time>2020-05-31T13:07:23Z</time>
      </trkpt>
      <trkpt lat="48.60175" lon="2.05617">
        <ele>130</ele>
        <time>2020-05-31T13:07:31Z</time>
      </trkpt>
      <trkpt lat="48.60176" lon="2.0562">
        <ele>131</ele>
        <time>2020-05-31T13:07:42Z</time>
      </trkpt>
      <trkpt lat="48.60177" lon="2.05622">
        <ele>131</ele>
        <time>2020-05-31T13:07:51Z</time>
      </trkpt>
      <trkpt lat="48.60177" lon="2.05625">
        <ele>132</ele>
        <time>2020-05-31T13:08:14Z</time>
      </trkpt>
      <trkpt lat="48.60176" lon="2.05627">
        <ele>131</ele>
        <time>2020-05-31T13:08:23Z</time>
      </trkpt>
      <trkpt lat="48.60177" lon="2.0563">
        <ele>131</ele>
        <time>2020-05-31T13:08:51Z</time>
      </trkpt>
      <trkpt lat="48.60179" lon="2.05631">
        <ele>131</ele>
        <time>2020-05-31T13:08:53Z</time>
      </trkpt>
      <trkpt lat="48.60177" lon="2.0563">
        <ele>131</ele>
        <time>2020-05-31T13:08:58Z</time>
      </trkpt>
      <trkpt lat="48.60175" lon="2.0563">
        <ele>131</ele>
        <time>2020-05-31T13:09:02Z</time>
      </trkpt>
      <trkpt lat="48.60175" lon="2.05633">
        <ele>130</ele>
        <time>2020-05-31T13:09:16Z</time>
      </trkpt>
      <trkpt lat="48.60177" lon="2.05633">
        <ele>131</ele>
        <time>2020-05-31T13:09:35Z</time>
      </trkpt>
      <trkpt lat="48.60178" lon="2.05637">
        <ele>131</ele>
        <time>2020-05-31T13:09:38Z</time>
      </trkpt>
      <trkpt lat="48.60179" lon="2.0564">
        <ele>131</ele>
        <time>2020-05-31T13:09:40Z</time>
      </trkpt>
      <trkpt lat="48.6018" lon="2.05643">
        <ele>131</ele>
        <time>2020-05-31T13:09:42Z</time>
      </trkpt>
      <trkpt lat="48.60181" lon="2.05647">
        <ele>131</ele>
        <time>2020-05-31T13:09:44Z</time>
      </trkpt>
      <trkpt lat="48.60182" lon="2.05651">
        <ele>131</ele>
        <time>2020-05-31T13:09:46Z</time>
      </trkpt>
      <trkpt lat="48.60183" lon="2.05655">
        <ele>131</ele>
        <time>2020-05-31T13:09:48Z</time>
      </trkpt>
      <trkpt lat="48.60183" lon="2.05658">
        <ele>131</ele>
        <time>2020-05-31T13:09:50Z</time>
      </trkpt>
      <trkpt lat="48.60185" lon="2.05662">
        <ele>131</ele>
        <time>2020-05-31T13:09:52Z</time>
      </trkpt>
      <trkpt lat="48.60186" lon="2.05667">
        <ele>131</ele>
        <time>2020-05-31T13:09:54Z</time>
      </trkpt>
      <trkpt lat="48.60186" lon="2.05669">
        <ele>131</ele>
        <time>2020-05-31T13:09:55Z</time>
      </trkpt>
      <trkpt lat="48.60187" lon="2.05672">
        <ele>131</ele>
        <time>2020-05-31T13:09:56Z</time>
      </trkpt>
      <trkpt lat="48.60188" lon="2.05677">
        <ele>130</ele>
        <time>2020-05-31T13:09:58Z</time>
      </trkpt>
      <trkpt lat="48.60188" lon="2.05681">
        <ele>130</ele>
        <time>2020-05-31T13:10:00Z</time>
      </trkpt>
      <trkpt lat="48.60189" lon="2.05686">
        <ele>130</ele>
        <time>2020-05-31T13:10:02Z</time>
      </trkpt>
      <trkpt lat="48.60189" lon="2.0569">
        <ele>130</ele>
        <time>2020-05-31T13:10:04Z</time>
      </trkpt>
      <trkpt lat="48.6019" lon="2.05695">
        <ele>130</ele>
        <time>2020-05-31T13:10:06Z</time>
      </trkpt>
      <trkpt lat="48.60191" lon="2.05699">
        <ele>129</ele>
        <time>2020-05-31T13:10:08Z</time>
      </trkpt>
      <trkpt lat="48.60192" lon="2.05703">
        <ele>130</ele>
        <time>2020-05-31T13:10:10Z</time>
      </trkpt>
      <trkpt lat="48.60193" lon="2.05707">
        <ele>130</ele>
        <time>2020-05-31T13:10:12Z</time>
      </trkpt>
      <trkpt lat="48.60193" lon="2.05711">
        <ele>130</ele>
        <time>2020-05-31T13:10:14Z</time>
      </trkpt>
      <trkpt lat="48.60194" lon="2.05714">
        <ele>129</ele>
        <time>2020-05-31T13:10:16Z</time>
      </trkpt>
      <trkpt lat="48.60195" lon="2.05718">
        <ele>129</ele>
        <time>2020-05-31T13:10:18Z</time>
      </trkpt>
      <trkpt lat="48.60195" lon="2.05722">
        <ele>129</ele>
        <time>2020-05-31T13:10:20Z</time>
      </trkpt>
      <trkpt lat="48.60197" lon="2.05726">
        <ele>130</ele>
        <time>2020-05-31T13:10:22Z</time>
      </trkpt>
      <trkpt lat="48.60197" lon="2.0573">
        <ele>130</ele>
        <time>2020-05-31T13:10:24Z</time>
      </trkpt>
      <trkpt lat="48.60198" lon="2.05734">
        <ele>130</ele>
        <time>2020-05-31T13:10:26Z</time>
      </trkpt>
      <trkpt lat="48.602" lon="2.05738">
        <ele>130</ele>
        <time>2020-05-31T13:10:28Z</time>
      </trkpt>
      <trkpt lat="48.60201" lon="2.05742">
        <ele>130</ele>
        <time>2020-05-31T13:10:30Z</time>
      </trkpt>
      <trkpt lat="48.60202" lon="2.05745">
        <ele>130</ele>
        <time>2020-05-31T13:10:31Z</time>
      </trkpt>
      <trkpt lat="48.60202" lon="2.05748">
        <ele>130</ele>
        <time>2020-05-31T13:10:32Z</time>
      </trkpt>
      <trkpt lat="48.60203" lon="2.05752">
        <ele>130</ele>
        <time>2020-05-31T13:10:34Z</time>
      </trkpt>
      <trkpt lat="48.60205" lon="2.05756">
        <ele>130</ele>
        <time>2020-05-31T13:10:36Z</time>
      </trkpt>
      <trkpt lat="48.60206" lon="2.05759">
        <ele>130</ele>
        <time>2020-05-31T13:10:38Z</time>
      </trkpt>
      <trkpt lat="48.60206" lon="2.05762">
        <ele>129</ele>
        <time>2020-05-31T13:10:39Z</time>
      </trkpt>
      <trkpt lat="48.60207" lon="2.05765">
        <ele>129</ele>
        <time>2020-05-31T13:10:40Z</time>
      </trkpt>
      <trkpt lat="48.60209" lon="2.05769">
        <ele>129</ele>
        <time>2020-05-31T13:10:42Z</time>
      </trkpt>
      <trkpt lat="48.6021" lon="2.05771">
        <ele>129</ele>
        <time>2020-05-31T13:10:43Z</time>
      </trkpt>
      <trkpt lat="48.60211" lon="2.05775">
        <ele>130</ele>
        <time>2020-05-31T13:10:45Z</time>
      </trkpt>
      <trkpt lat="48.60212" lon="2.05779">
        <ele>130</ele>
        <time>2020-05-31T13:10:47Z</time>
      </trkpt>
      <trkpt lat="48.60213" lon="2.05784">
        <ele>130</ele>
        <time>2020-05-31T13:10:49Z</time>
      </trkpt>
      <trkpt lat="48.60213" lon="2.05789">
        <ele>130</ele>
        <time>2020-05-31T13:10:51Z</time>
      </trkpt>
      <trkpt lat="48.60214" lon="2.05794">
        <ele>130</ele>
        <time>2020-05-31T13:10:53Z</time>
      </trkpt>
      <trkpt lat="48.60215" lon="2.05798">
        <ele>130</ele>
        <time>2020-05-31T13:10:55Z</time>
      </trkpt>
      <trkpt lat="48.60216" lon="2.05803">
        <ele>130</ele>
        <time>2020-05-31T13:10:57Z</time>
      </trkpt>
      <trkpt lat="48.60217" lon="2.05805">
        <ele>130</ele>
        <time>2020-05-31T13:10:58Z</time>
      </trkpt>
      <trkpt lat="48.60219" lon="2.05809">
        <ele>130</ele>
        <time>2020-05-31T13:11:00Z</time>
      </trkpt>
      <trkpt lat="48.60219" lon="2.05814">
        <ele>130</ele>
        <time>2020-05-31T13:11:02Z</time>
      </trkpt>
      <trkpt lat="48.60221" lon="2.05818">
        <ele>130</ele>
        <time>2020-05-31T13:11:04Z</time>
      </trkpt>
      <trkpt lat="48.60221" lon="2.05823">
        <ele>130</ele>
        <time>2020-05-31T13:11:06Z</time>
      </trkpt>
      <trkpt lat="48.60222" lon="2.05827">
        <ele>131</ele>
        <time>2020-05-31T13:11:08Z</time>
      </trkpt>
      <trkpt lat="48.60221" lon="2.05829">
        <ele>131</ele>
        <time>2020-05-31T13:11:10Z</time>
      </trkpt>
      <trkpt lat="48.60219" lon="2.05832">
        <ele>131</ele>
        <time>2020-05-31T13:11:12Z</time>
      </trkpt>
      <trkpt lat="48.60211" lon="2.05837">
        <ele>130</ele>
        <time>2020-05-31T13:11:17Z</time>
      </trkpt>
      <trkpt lat="48.60202" lon="2.05844">
        <ele>130</ele>
        <time>2020-05-31T13:11:22Z</time>
      </trkpt>
      <trkpt lat="48.60196" lon="2.05847">
        <ele>130</ele>
        <time>2020-05-31T13:11:24Z</time>
      </trkpt>
      <trkpt lat="48.60193" lon="2.05849">
        <ele>131</ele>
        <time>2020-05-31T13:11:25Z</time>
      </trkpt>
      <trkpt lat="48.60191" lon="2.0585">
        <ele>131</ele>
        <time>2020-05-31T13:11:26Z</time>
      </trkpt>
      <trkpt lat="48.60189" lon="2.0585">
        <ele>131</ele>
        <time>2020-05-31T13:11:27Z</time>
      </trkpt>
      <trkpt lat="48.60186" lon="2.05851">
        <ele>131</ele>
        <time>2020-05-31T13:11:28Z</time>
      </trkpt>
      <trkpt lat="48.60185" lon="2.05852">
        <ele>131</ele>
        <time>2020-05-31T13:11:29Z</time>
      </trkpt>
      <trkpt lat="48.60181" lon="2.05853">
        <ele>131</ele>
        <time>2020-05-31T13:11:31Z</time>
      </trkpt>
      <trkpt lat="48.60179" lon="2.05854">
        <ele>130</ele>
        <time>2020-05-31T13:11:33Z</time>
      </trkpt>
      <trkpt lat="48.60177" lon="2.05855">
        <ele>130</ele>
        <time>2020-05-31T13:11:35Z</time>
      </trkpt>
      <trkpt lat="48.60175" lon="2.05856">
        <ele>131</ele>
        <time>2020-05-31T13:11:36Z</time>
      </trkpt>
      <trkpt lat="48.60173" lon="2.05858">
        <ele>131</ele>
        <time>2020-05-31T13:11:38Z</time>
      </trkpt>
      <trkpt lat="48.60171" lon="2.05859">
        <ele>131</ele>
        <time>2020-05-31T13:11:40Z</time>
      </trkpt>
      <trkpt lat="48.60168" lon="2.05862">
        <ele>131</ele>
        <time>2020-05-31T13:11:42Z</time>
      </trkpt>
      <trkpt lat="48.60165" lon="2.05864">
        <ele>131</ele>
        <time>2020-05-31T13:11:44Z</time>
      </trkpt>
      <trkpt lat="48.60163" lon="2.05864">
        <ele>131</ele>
        <time>2020-05-31T13:11:46Z</time>
      </trkpt>
      <trkpt lat="48.6016" lon="2.05866">
        <ele>132</ele>
        <time>2020-05-31T13:11:48Z</time>
      </trkpt>
      <trkpt lat="48.60158" lon="2.05867">
        <ele>132</ele>
        <time>2020-05-31T13:11:49Z</time>
      </trkpt>
      <trkpt lat="48.60155" lon="2.05868">
        <ele>132</ele>
        <time>2020-05-31T13:11:51Z</time>
      </trkpt>
      <trkpt lat="48.60152" lon="2.05869">
        <ele>132</ele>
        <time>2020-05-31T13:11:52Z</time>
      </trkpt>
      <trkpt lat="48.60149" lon="2.05872">
        <ele>133</ele>
        <time>2020-05-31T13:11:54Z</time>
      </trkpt>
      <trkpt lat="48.60147" lon="2.05873">
        <ele>133</ele>
        <time>2020-05-31T13:11:55Z</time>
      </trkpt>
      <trkpt lat="48.60144" lon="2.05875">
        <ele>133</ele>
        <time>2020-05-31T13:11:57Z</time>
      </trkpt>
      <trkpt lat="48.60142" lon="2.05877">
        <ele>133</ele>
        <time>2020-05-31T13:11:59Z</time>
      </trkpt>
      <trkpt lat="48.6014" lon="2.05878">
        <ele>133</ele>
        <time>2020-05-31T13:12:00Z</time>
      </trkpt>
      <trkpt lat="48.60138" lon="2.05879">
        <ele>133</ele>
        <time>2020-05-31T13:12:01Z</time>
      </trkpt>
      <trkpt lat="48.60135" lon="2.05881">
        <ele>134</ele>
        <time>2020-05-31T13:12:03Z</time>
      </trkpt>
      <trkpt lat="48.60132" lon="2.05882">
        <ele>134</ele>
        <time>2020-05-31T13:12:05Z</time>
      </trkpt>
      <trkpt lat="48.60129" lon="2.05883">
        <ele>133</ele>
        <time>2020-05-31T13:12:07Z</time>
      </trkpt>
      <trkpt lat="48.60127" lon="2.05884">
        <ele>133</ele>
        <time>2020-05-31T13:12:09Z</time>
      </trkpt>
      <trkpt lat="48.60124" lon="2.05885">
        <ele>133</ele>
        <time>2020-05-31T13:12:11Z</time>
      </trkpt>
      <trkpt lat="48.60122" lon="2.05886">
        <ele>133</ele>
        <time>2020-05-31T13:12:12Z</time>
      </trkpt>
      <trkpt lat="48.6012" lon="2.05887">
        <ele>134</ele>
        <time>2020-05-31T13:12:13Z</time>
      </trkpt>
      <trkpt lat="48.60118" lon="2.05888">
        <ele>134</ele>
        <time>2020-05-31T13:12:14Z</time>
      </trkpt>
      <trkpt lat="48.60115" lon="2.0589">
        <ele>134</ele>
        <time>2020-05-31T13:12:16Z</time>
      </trkpt>
      <trkpt lat="48.60112" lon="2.05891">
        <ele>134</ele>
        <time>2020-05-31T13:12:18Z</time>
      </trkpt>
      <trkpt lat="48.6011" lon="2.05892">
        <ele>134</ele>
        <time>2020-05-31T13:12:19Z</time>
      </trkpt>
      <trkpt lat="48.60108" lon="2.05892">
        <ele>134</ele>
        <time>2020-05-31T13:12:20Z</time>
      </trkpt>
      <trkpt lat="48.60105" lon="2.05893">
        <ele>134</ele>
        <time>2020-05-31T13:12:22Z</time>
      </trkpt>
      <trkpt lat="48.60102" lon="2.05895">
        <ele>135</ele>
        <time>2020-05-31T13:12:24Z</time>
      </trkpt>
      <trkpt lat="48.60099" lon="2.05895">
        <ele>135</ele>
        <time>2020-05-31T13:12:26Z</time>
      </trkpt>
      <trkpt lat="48.60096" lon="2.05897">
        <ele>135</ele>
        <time>2020-05-31T13:12:28Z</time>
      </trkpt>
      <trkpt lat="48.60094" lon="2.05899">
        <ele>135</ele>
        <time>2020-05-31T13:12:30Z</time>
      </trkpt>
      <trkpt lat="48.6009" lon="2.05899">
        <ele>135</ele>
        <time>2020-05-31T13:12:32Z</time>
      </trkpt>
      <trkpt lat="48.60087" lon="2.05901">
        <ele>134</ele>
        <time>2020-05-31T13:12:34Z</time>
      </trkpt>
      <trkpt lat="48.60085" lon="2.05902">
        <ele>134</ele>
        <time>2020-05-31T13:12:35Z</time>
      </trkpt>
      <trkpt lat="48.60082" lon="2.05903">
        <ele>135</ele>
        <time>2020-05-31T13:12:37Z</time>
      </trkpt>
      <trkpt lat="48.60079" lon="2.05905">
        <ele>135</ele>
        <time>2020-05-31T13:12:39Z</time>
      </trkpt>
      <trkpt lat="48.60076" lon="2.05906">
        <ele>134</ele>
        <time>2020-05-31T13:12:41Z</time>
      </trkpt>
      <trkpt lat="48.60073" lon="2.05908">
        <ele>134</ele>
        <time>2020-05-31T13:12:43Z</time>
      </trkpt>
      <trkpt lat="48.6007" lon="2.05909">
        <ele>134</ele>
        <time>2020-05-31T13:12:46Z</time>
      </trkpt>
      <trkpt lat="48.60068" lon="2.0591">
        <ele>134</ele>
        <time>2020-05-31T13:12:47Z</time>
      </trkpt>
      <trkpt lat="48.60065" lon="2.05912">
        <ele>134</ele>
        <time>2020-05-31T13:12:49Z</time>
      </trkpt>
      <trkpt lat="48.60062" lon="2.05914">
        <ele>134</ele>
        <time>2020-05-31T13:12:51Z</time>
      </trkpt>
      <trkpt lat="48.6006" lon="2.05915">
        <ele>134</ele>
        <time>2020-05-31T13:12:52Z</time>
      </trkpt>
      <trkpt lat="48.60058" lon="2.05915">
        <ele>134</ele>
        <time>2020-05-31T13:12:53Z</time>
      </trkpt>
      <trkpt lat="48.60055" lon="2.05917">
        <ele>134</ele>
        <time>2020-05-31T13:12:55Z</time>
      </trkpt>
      <trkpt lat="48.60053" lon="2.05918">
        <ele>134</ele>
        <time>2020-05-31T13:12:57Z</time>
      </trkpt>
      <trkpt lat="48.60051" lon="2.05919">
        <ele>134</ele>
        <time>2020-05-31T13:12:59Z</time>
      </trkpt>
      <trkpt lat="48.60048" lon="2.05919">
        <ele>134</ele>
        <time>2020-05-31T13:13:01Z</time>
      </trkpt>
      <trkpt lat="48.60046" lon="2.0592">
        <ele>134</ele>
        <time>2020-05-31T13:13:03Z</time>
      </trkpt>
      <trkpt lat="48.60044" lon="2.05922">
        <ele>134</ele>
        <time>2020-05-31T13:13:06Z</time>
      </trkpt>
      <trkpt lat="48.60041" lon="2.05924">
        <ele>134</ele>
        <time>2020-05-31T13:13:08Z</time>
      </trkpt>
      <trkpt lat="48.60039" lon="2.05925">
        <ele>134</ele>
        <time>2020-05-31T13:13:09Z</time>
      </trkpt>
      <trkpt lat="48.60037" lon="2.05927">
        <ele>134</ele>
        <time>2020-05-31T13:13:10Z</time>
      </trkpt>
      <trkpt lat="48.60035" lon="2.05928">
        <ele>134</ele>
        <time>2020-05-31T13:13:11Z</time>
      </trkpt>
      <trkpt lat="48.60034" lon="2.05929">
        <ele>134</ele>
        <time>2020-05-31T13:13:12Z</time>
      </trkpt>
      <trkpt lat="48.60031" lon="2.05931">
        <ele>134</ele>
        <time>2020-05-31T13:13:14Z</time>
      </trkpt>
      <trkpt lat="48.60027" lon="2.05932">
        <ele>134</ele>
        <time>2020-05-31T13:13:16Z</time>
      </trkpt>
      <trkpt lat="48.60024" lon="2.05932">
        <ele>133</ele>
        <time>2020-05-31T13:13:18Z</time>
      </trkpt>
      <trkpt lat="48.60022" lon="2.05932">
        <ele>133</ele>
        <time>2020-05-31T13:13:19Z</time>
      </trkpt>
      <trkpt lat="48.60021" lon="2.05933">
        <ele>133</ele>
        <time>2020-05-31T13:13:20Z</time>
      </trkpt>
      <trkpt lat="48.60017" lon="2.05933">
        <ele>133</ele>
        <time>2020-05-31T13:13:22Z</time>
      </trkpt>
      <trkpt lat="48.60015" lon="2.05933">
        <ele>134</ele>
        <time>2020-05-31T13:13:24Z</time>
      </trkpt>
      <trkpt lat="48.60012" lon="2.05934">
        <ele>134</ele>
        <time>2020-05-31T13:13:26Z</time>
      </trkpt>
      <trkpt lat="48.60009" lon="2.05935">
        <ele>134</ele>
        <time>2020-05-31T13:13:28Z</time>
      </trkpt>
      <trkpt lat="48.60007" lon="2.05938">
        <ele>134</ele>
        <time>2020-05-31T13:13:30Z</time>
      </trkpt>
      <trkpt lat="48.60004" lon="2.0594">
        <ele>133</ele>
        <time>2020-05-31T13:13:32Z</time>
      </trkpt>
      <trkpt lat="48.60002" lon="2.05941">
        <ele>133</ele>
        <time>2020-05-31T13:13:34Z</time>
      </trkpt>
      <trkpt lat="48.6" lon="2.05942">
        <ele>133</ele>
        <time>2020-05-31T13:13:36Z</time>
      </trkpt>
      <trkpt lat="48.59999" lon="2.05945">
        <ele>132</ele>
        <time>2020-05-31T13:13:38Z</time>
      </trkpt>
      <trkpt lat="48.59999" lon="2.05948">
        <ele>132</ele>
        <time>2020-05-31T13:13:40Z</time>
      </trkpt>
      <trkpt lat="48.60001" lon="2.05951">
        <ele>131</ele>
        <time>2020-05-31T13:13:42Z</time>
      </trkpt>
      <trkpt lat="48.60002" lon="2.05955">
        <ele>131</ele>
        <time>2020-05-31T13:13:44Z</time>
      </trkpt>
      <trkpt lat="48.60003" lon="2.05959">
        <ele>131</ele>
        <time>2020-05-31T13:13:46Z</time>
      </trkpt>
      <trkpt lat="48.60005" lon="2.05963">
        <ele>131</ele>
        <time>2020-05-31T13:13:48Z</time>
      </trkpt>
      <trkpt lat="48.60006" lon="2.05967">
        <ele>131</ele>
        <time>2020-05-31T13:13:50Z</time>
      </trkpt>
      <trkpt lat="48.60007" lon="2.0597">
        <ele>131</ele>
        <time>2020-05-31T13:13:52Z</time>
      </trkpt>
      <trkpt lat="48.60009" lon="2.05974">
        <ele>131</ele>
        <time>2020-05-31T13:13:54Z</time>
      </trkpt>
      <trkpt lat="48.6001" lon="2.05977">
        <ele>131</ele>
        <time>2020-05-31T13:13:56Z</time>
      </trkpt>
      <trkpt lat="48.60012" lon="2.05982">
        <ele>131</ele>
        <time>2020-05-31T13:13:58Z</time>
      </trkpt>
      <trkpt lat="48.60014" lon="2.05986">
        <ele>130</ele>
        <time>2020-05-31T13:14:00Z</time>
      </trkpt>
      <trkpt lat="48.60015" lon="2.05989">
        <ele>130</ele>
        <time>2020-05-31T13:14:02Z</time>
      </trkpt>
      <trkpt lat="48.60017" lon="2.05993">
        <ele>130</ele>
        <time>2020-05-31T13:14:04Z</time>
      </trkpt>
      <trkpt lat="48.60019" lon="2.05996">
        <ele>130</ele>
        <time>2020-05-31T13:14:06Z</time>
      </trkpt>
      <trkpt lat="48.60021" lon="2.06">
        <ele>130</ele>
        <time>2020-05-31T13:14:08Z</time>
      </trkpt>
      <trkpt lat="48.60021" lon="2.06003">
        <ele>130</ele>
        <time>2020-05-31T13:14:09Z</time>
      </trkpt>
      <trkpt lat="48.60022" lon="2.06007">
        <ele>130</ele>
        <time>2020-05-31T13:14:11Z</time>
      </trkpt>
      <trkpt lat="48.60022" lon="2.06011">
        <ele>130</ele>
        <time>2020-05-31T13:14:13Z</time>
      </trkpt>
      <trkpt lat="48.60024" lon="2.06016">
        <ele>129</ele>
        <time>2020-05-31T13:14:15Z</time>
      </trkpt>
      <trkpt lat="48.60026" lon="2.0602">
        <ele>128</ele>
        <time>2020-05-31T13:14:17Z</time>
      </trkpt>
      <trkpt lat="48.60027" lon="2.06025">
        <ele>127</ele>
        <time>2020-05-31T13:14:19Z</time>
      </trkpt>
      <trkpt lat="48.60028" lon="2.06028">
        <ele>127</ele>
        <time>2020-05-31T13:14:20Z</time>
      </trkpt>
      <trkpt lat="48.60029" lon="2.0603">
        <ele>127</ele>
        <time>2020-05-31T13:14:21Z</time>
      </trkpt>
      <trkpt lat="48.6003" lon="2.06033">
        <ele>127</ele>
        <time>2020-05-31T13:14:22Z</time>
      </trkpt>
      <trkpt lat="48.60031" lon="2.06036">
        <ele>126</ele>
        <time>2020-05-31T13:14:23Z</time>
      </trkpt>
      <trkpt lat="48.60032" lon="2.0604">
        <ele>126</ele>
        <time>2020-05-31T13:14:25Z</time>
      </trkpt>
      <trkpt lat="48.60034" lon="2.06044">
        <ele>126</ele>
        <time>2020-05-31T13:14:27Z</time>
      </trkpt>
      <trkpt lat="48.60035" lon="2.06048">
        <ele>125</ele>
        <time>2020-05-31T13:14:29Z</time>
      </trkpt>
      <trkpt lat="48.60036" lon="2.06051">
        <ele>125</ele>
        <time>2020-05-31T13:14:31Z</time>
      </trkpt>
      <trkpt lat="48.60037" lon="2.06055">
        <ele>125</ele>
        <time>2020-05-31T13:14:33Z</time>
      </trkpt>
      <trkpt lat="48.60038" lon="2.06059">
        <ele>125</ele>
        <time>2020-05-31T13:14:35Z</time>
      </trkpt>
      <trkpt lat="48.60039" lon="2.06064">
        <ele>125</ele>
        <time>2020-05-31T13:14:37Z</time>
      </trkpt>
      <trkpt lat="48.6004" lon="2.06067">
        <ele>126</ele>
        <time>2020-05-31T13:14:39Z</time>
      </trkpt>
      <trkpt lat="48.60041" lon="2.0607">
        <ele>126</ele>
        <time>2020-05-31T13:14:40Z</time>
      </trkpt>
      <trkpt lat="48.60043" lon="2.06074">
        <ele>126</ele>
        <time>2020-05-31T13:14:42Z</time>
      </trkpt>
      <trkpt lat="48.60045" lon="2.06078">
        <ele>126</ele>
        <time>2020-05-31T13:14:44Z</time>
      </trkpt>
      <trkpt lat="48.60046" lon="2.06082">
        <ele>126</ele>
        <time>2020-05-31T13:14:46Z</time>
      </trkpt>
      <trkpt lat="48.60047" lon="2.06087">
        <ele>126</ele>
        <time>2020-05-31T13:14:48Z</time>
      </trkpt>
      <trkpt lat="48.60049" lon="2.06092">
        <ele>126</ele>
        <time>2020-05-31T13:14:50Z</time>
      </trkpt>
      <trkpt lat="48.6005" lon="2.06096">
        <ele>125</ele>
        <time>2020-05-31T13:14:52Z</time>
      </trkpt>
      <trkpt lat="48.60051" lon="2.06101">
        <ele>125</ele>
        <time>2020-05-31T13:14:54Z</time>
      </trkpt>
      <trkpt lat="48.60052" lon="2.06105">
        <ele>124</ele>
        <time>2020-05-31T13:14:56Z</time>
      </trkpt>
      <trkpt lat="48.60053" lon="2.06108">
        <ele>124</ele>
        <time>2020-05-31T13:14:57Z</time>
      </trkpt>
      <trkpt lat="48.60054" lon="2.06112">
        <ele>124</ele>
        <time>2020-05-31T13:14:59Z</time>
      </trkpt>
      <trkpt lat="48.60056" lon="2.06116">
        <ele>124</ele>
        <time>2020-05-31T13:15:01Z</time>
      </trkpt>
      <trkpt lat="48.60057" lon="2.0612">
        <ele>124</ele>
        <time>2020-05-31T13:15:03Z</time>
      </trkpt>
      <trkpt lat="48.60058" lon="2.06125">
        <ele>124</ele>
        <time>2020-05-31T13:15:05Z</time>
      </trkpt>
      <trkpt lat="48.60059" lon="2.06128">
        <ele>124</ele>
        <time>2020-05-31T13:15:06Z</time>
      </trkpt>
      <trkpt lat="48.6006" lon="2.06133">
        <ele>124</ele>
        <time>2020-05-31T13:15:08Z</time>
      </trkpt>
      <trkpt lat="48.60061" lon="2.06135">
        <ele>124</ele>
        <time>2020-05-31T13:15:09Z</time>
      </trkpt>
      <trkpt lat="48.60062" lon="2.0614">
        <ele>124</ele>
        <time>2020-05-31T13:15:11Z</time>
      </trkpt>
      <trkpt lat="48.60063" lon="2.06144">
        <ele>123</ele>
        <time>2020-05-31T13:15:13Z</time>
      </trkpt>
      <trkpt lat="48.60064" lon="2.06148">
        <ele>123</ele>
        <time>2020-05-31T13:15:15Z</time>
      </trkpt>
      <trkpt lat="48.60065" lon="2.06151">
        <ele>123</ele>
        <time>2020-05-31T13:15:17Z</time>
      </trkpt>
      <trkpt lat="48.60066" lon="2.06155">
        <ele>123</ele>
        <time>2020-05-31T13:15:19Z</time>
      </trkpt>
      <trkpt lat="48.60068" lon="2.06159">
        <ele>123</ele>
        <time>2020-05-31T13:15:21Z</time>
      </trkpt>
      <trkpt lat="48.6007" lon="2.06164">
        <ele>123</ele>
        <time>2020-05-31T13:15:23Z</time>
      </trkpt>
      <trkpt lat="48.60072" lon="2.06167">
        <ele>123</ele>
        <time>2020-05-31T13:15:25Z</time>
      </trkpt>
      <trkpt lat="48.60074" lon="2.0617">
        <ele>123</ele>
        <time>2020-05-31T13:15:27Z</time>
      </trkpt>
      <trkpt lat="48.60075" lon="2.06174">
        <ele>123</ele>
        <time>2020-05-31T13:15:29Z</time>
      </trkpt>
      <trkpt lat="48.60076" lon="2.06179">
        <ele>123</ele>
        <time>2020-05-31T13:15:31Z</time>
      </trkpt>
      <trkpt lat="48.60076" lon="2.06183">
        <ele>123</ele>
        <time>2020-05-31T13:15:33Z</time>
      </trkpt>
      <trkpt lat="48.60078" lon="2.06188">
        <ele>123</ele>
        <time>2020-05-31T13:15:35Z</time>
      </trkpt>
      <trkpt lat="48.60078" lon="2.06191">
        <ele>123</ele>
        <time>2020-05-31T13:15:36Z</time>
      </trkpt>
      <trkpt lat="48.60078" lon="2.06195">
        <ele>122</ele>
        <time>2020-05-31T13:15:38Z</time>
      </trkpt>
      <trkpt lat="48.60079" lon="2.06198">
        <ele>122</ele>
        <time>2020-05-31T13:15:40Z</time>
      </trkpt>
      <trkpt lat="48.6008" lon="2.06201">
        <ele>122</ele>
        <time>2020-05-31T13:15:46Z</time>
      </trkpt>
      <trkpt lat="48.60081" lon="2.06205">
        <ele>122</ele>
        <time>2020-05-31T13:15:48Z</time>
      </trkpt>
      <trkpt lat="48.60082" lon="2.06209">
        <ele>122</ele>
        <time>2020-05-31T13:15:50Z</time>
      </trkpt>
      <trkpt lat="48.60082" lon="2.06212">
        <ele>122</ele>
        <time>2020-05-31T13:15:52Z</time>
      </trkpt>
      <trkpt lat="48.60083" lon="2.06215">
        <ele>122</ele>
        <time>2020-05-31T13:15:54Z</time>
      </trkpt>
      <trkpt lat="48.60083" lon="2.06217">
        <ele>121</ele>
        <time>2020-05-31T13:15:56Z</time>
      </trkpt>
      <trkpt lat="48.60085" lon="2.0622">
        <ele>121</ele>
        <time>2020-05-31T13:15:59Z</time>
      </trkpt>
      <trkpt lat="48.60085" lon="2.06224">
        <ele>121</ele>
        <time>2020-05-31T13:16:03Z</time>
      </trkpt>
      <trkpt lat="48.60087" lon="2.06228">
        <ele>122</ele>
        <time>2020-05-31T13:16:04Z</time>
      </trkpt>
      <trkpt lat="48.60087" lon="2.06231">
        <ele>122</ele>
        <time>2020-05-31T13:16:05Z</time>
      </trkpt>
      <trkpt lat="48.60089" lon="2.06234">
        <ele>122</ele>
        <time>2020-05-31T13:16:06Z</time>
      </trkpt>
      <trkpt lat="48.6009" lon="2.06238">
        <ele>122</ele>
        <time>2020-05-31T13:16:08Z</time>
      </trkpt>
      <trkpt lat="48.60093" lon="2.06242">
        <ele>122</ele>
        <time>2020-05-31T13:16:10Z</time>
      </trkpt>
      <trkpt lat="48.60094" lon="2.06244">
        <ele>122</ele>
        <time>2020-05-31T13:16:11Z</time>
      </trkpt>
      <trkpt lat="48.60096" lon="2.06249">
        <ele>122</ele>
        <time>2020-05-31T13:16:13Z</time>
      </trkpt>
      <trkpt lat="48.60098" lon="2.06253">
        <ele>122</ele>
        <time>2020-05-31T13:16:15Z</time>
      </trkpt>
      <trkpt lat="48.60098" lon="2.06257">
        <ele>122</ele>
        <time>2020-05-31T13:16:17Z</time>
      </trkpt>
      <trkpt lat="48.60098" lon="2.06262">
        <ele>122</ele>
        <time>2020-05-31T13:16:19Z</time>
      </trkpt>
      <trkpt lat="48.60099" lon="2.06266">
        <ele>122</ele>
        <time>2020-05-31T13:16:21Z</time>
      </trkpt>
      <trkpt lat="48.601" lon="2.0627">
        <ele>122</ele>
        <time>2020-05-31T13:16:23Z</time>
      </trkpt>
      <trkpt lat="48.601" lon="2.06273">
        <ele>122</ele>
        <time>2020-05-31T13:16:25Z</time>
      </trkpt>
      <trkpt lat="48.60101" lon="2.06277">
        <ele>122</ele>
        <time>2020-05-31T13:16:27Z</time>
      </trkpt>
      <trkpt lat="48.60101" lon="2.0628">
        <ele>122</ele>
        <time>2020-05-31T13:16:28Z</time>
      </trkpt>
      <trkpt lat="48.60102" lon="2.06284">
        <ele>122</ele>
        <time>2020-05-31T13:16:30Z</time>
      </trkpt>
      <trkpt lat="48.60104" lon="2.06287">
        <ele>122</ele>
        <time>2020-05-31T13:16:32Z</time>
      </trkpt>
      <trkpt lat="48.60105" lon="2.0629">
        <ele>122</ele>
        <time>2020-05-31T13:16:33Z</time>
      </trkpt>
      <trkpt lat="48.60105" lon="2.06292">
        <ele>122</ele>
        <time>2020-05-31T13:16:34Z</time>
      </trkpt>
      <trkpt lat="48.60107" lon="2.06296">
        <ele>122</ele>
        <time>2020-05-31T13:16:36Z</time>
      </trkpt>
      <trkpt lat="48.60108" lon="2.06299">
        <ele>121</ele>
        <time>2020-05-31T13:16:37Z</time>
      </trkpt>
      <trkpt lat="48.60109" lon="2.06302">
        <ele>121</ele>
        <time>2020-05-31T13:16:38Z</time>
      </trkpt>
      <trkpt lat="48.6011" lon="2.06306">
        <ele>121</ele>
        <time>2020-05-31T13:16:40Z</time>
      </trkpt>
      <trkpt lat="48.60111" lon="2.06308">
        <ele>121</ele>
        <time>2020-05-31T13:16:42Z</time>
      </trkpt>
      <trkpt lat="48.60112" lon="2.06312">
        <ele>121</ele>
        <time>2020-05-31T13:16:44Z</time>
      </trkpt>
      <trkpt lat="48.60113" lon="2.06314">
        <ele>121</ele>
        <time>2020-05-31T13:16:45Z</time>
      </trkpt>
      <trkpt lat="48.60114" lon="2.06317">
        <ele>121</ele>
        <time>2020-05-31T13:16:46Z</time>
      </trkpt>
      <trkpt lat="48.60114" lon="2.0632">
        <ele>121</ele>
        <time>2020-05-31T13:16:47Z</time>
      </trkpt>
      <trkpt lat="48.60115" lon="2.06324">
        <ele>121</ele>
        <time>2020-05-31T13:16:49Z</time>
      </trkpt>
      <trkpt lat="48.60117" lon="2.06327">
        <ele>121</ele>
        <time>2020-05-31T13:16:51Z</time>
      </trkpt>
      <trkpt lat="48.60118" lon="2.0633">
        <ele>121</ele>
        <time>2020-05-31T13:16:52Z</time>
      </trkpt>
      <trkpt lat="48.60119" lon="2.06334">
        <ele>121</ele>
        <time>2020-05-31T13:16:54Z</time>
      </trkpt>
      <trkpt lat="48.60119" lon="2.06339">
        <ele>121</ele>
        <time>2020-05-31T13:16:56Z</time>
      </trkpt>
      <trkpt lat="48.6012" lon="2.06343">
        <ele>122</ele>
        <time>2020-05-31T13:16:58Z</time>
      </trkpt>
      <trkpt lat="48.6012" lon="2.06345">
        <ele>122</ele>
        <time>2020-05-31T13:16:59Z</time>
      </trkpt>
      <trkpt lat="48.60121" lon="2.06348">
        <ele>122</ele>
        <time>2020-05-31T13:17:00Z</time>
      </trkpt>
      <trkpt lat="48.60122" lon="2.06353">
        <ele>122</ele>
        <time>2020-05-31T13:17:02Z</time>
      </trkpt>
      <trkpt lat="48.60123" lon="2.06355">
        <ele>122</ele>
        <time>2020-05-31T13:17:03Z</time>
      </trkpt>
      <trkpt lat="48.60125" lon="2.06359">
        <ele>122</ele>
        <time>2020-05-31T13:17:05Z</time>
      </trkpt>
      <trkpt lat="48.60127" lon="2.06362">
        <ele>122</ele>
        <time>2020-05-31T13:17:07Z</time>
      </trkpt>
      <trkpt lat="48.60127" lon="2.06366">
        <ele>121</ele>
        <time>2020-05-31T13:17:09Z</time>
      </trkpt>
      <trkpt lat="48.60129" lon="2.0637">
        <ele>121</ele>
        <time>2020-05-31T13:17:11Z</time>
      </trkpt>
      <trkpt lat="48.6013" lon="2.06373">
        <ele>121</ele>
        <time>2020-05-31T13:17:13Z</time>
      </trkpt>
      <trkpt lat="48.60131" lon="2.06376">
        <ele>121</ele>
        <time>2020-05-31T13:17:15Z</time>
      </trkpt>
      <trkpt lat="48.60132" lon="2.0638">
        <ele>121</ele>
        <time>2020-05-31T13:17:17Z</time>
      </trkpt>
      <trkpt lat="48.60132" lon="2.06383">
        <ele>121</ele>
        <time>2020-05-31T13:17:20Z</time>
      </trkpt>
      <trkpt lat="48.60133" lon="2.06387">
        <ele>121</ele>
        <time>2020-05-31T13:17:23Z</time>
      </trkpt>
      <trkpt lat="48.60133" lon="2.06393">
        <ele>121</ele>
        <time>2020-05-31T13:17:26Z</time>
      </trkpt>
      <trkpt lat="48.60134" lon="2.06396">
        <ele>120</ele>
        <time>2020-05-31T13:17:27Z</time>
      </trkpt>
      <trkpt lat="48.60136" lon="2.06401">
        <ele>120</ele>
        <time>2020-05-31T13:17:29Z</time>
      </trkpt>
      <trkpt lat="48.60138" lon="2.06404">
        <ele>120</ele>
        <time>2020-05-31T13:17:30Z</time>
      </trkpt>
      <trkpt lat="48.60139" lon="2.06408">
        <ele>120</ele>
        <time>2020-05-31T13:17:32Z</time>
      </trkpt>
      <trkpt lat="48.60141" lon="2.06412">
        <ele>120</ele>
        <time>2020-05-31T13:17:34Z</time>
      </trkpt>
      <trkpt lat="48.60142" lon="2.06417">
        <ele>120</ele>
        <time>2020-05-31T13:17:36Z</time>
      </trkpt>
      <trkpt lat="48.60143" lon="2.06421">
        <ele>120</ele>
        <time>2020-05-31T13:17:38Z</time>
      </trkpt>
      <trkpt lat="48.60144" lon="2.06425">
        <ele>120</ele>
        <time>2020-05-31T13:17:40Z</time>
      </trkpt>
      <trkpt lat="48.60146" lon="2.0643">
        <ele>120</ele>
        <time>2020-05-31T13:17:42Z</time>
      </trkpt>
      <trkpt lat="48.60147" lon="2.06434">
        <ele>120</ele>
        <time>2020-05-31T13:17:44Z</time>
      </trkpt>
      <trkpt lat="48.60149" lon="2.06438">
        <ele>120</ele>
        <time>2020-05-31T13:17:46Z</time>
      </trkpt>
      <trkpt lat="48.60149" lon="2.06442">
        <ele>120</ele>
        <time>2020-05-31T13:17:48Z</time>
      </trkpt>
      <trkpt lat="48.60151" lon="2.06444">
        <ele>120</ele>
        <time>2020-05-31T13:17:50Z</time>
      </trkpt>
      <trkpt lat="48.60152" lon="2.06448">
        <ele>121</ele>
        <time>2020-05-31T13:17:53Z</time>
      </trkpt>
      <trkpt lat="48.60153" lon="2.06451">
        <ele>121</ele>
        <time>2020-05-31T13:17:54Z</time>
      </trkpt>
      <trkpt lat="48.60154" lon="2.06454">
        <ele>121</ele>
        <time>2020-05-31T13:17:55Z</time>
      </trkpt>
      <trkpt lat="48.60155" lon="2.06458">
        <ele>121</ele>
        <time>2020-05-31T13:17:57Z</time>
      </trkpt>
      <trkpt lat="48.60156" lon="2.06461">
        <ele>121</ele>
        <time>2020-05-31T13:17:59Z</time>
      </trkpt>
      <trkpt lat="48.60159" lon="2.06466">
        <ele>122</ele>
        <time>2020-05-31T13:18:01Z</time>
      </trkpt>
      <trkpt lat="48.6016" lon="2.06469">
        <ele>122</ele>
        <time>2020-05-31T13:18:02Z</time>
      </trkpt>
      <trkpt lat="48.6016" lon="2.06472">
        <ele>121</ele>
        <time>2020-05-31T13:18:03Z</time>
      </trkpt>
      <trkpt lat="48.60161" lon="2.06475">
        <ele>121</ele>
        <time>2020-05-31T13:18:04Z</time>
      </trkpt>
      <trkpt lat="48.60161" lon="2.06478">
        <ele>121</ele>
        <time>2020-05-31T13:18:05Z</time>
      </trkpt>
      <trkpt lat="48.60162" lon="2.06483">
        <ele>121</ele>
        <time>2020-05-31T13:18:07Z</time>
      </trkpt>
      <trkpt lat="48.60163" lon="2.06487">
        <ele>121</ele>
        <time>2020-05-31T13:18:09Z</time>
      </trkpt>
      <trkpt lat="48.60164" lon="2.0649">
        <ele>121</ele>
        <time>2020-05-31T13:18:10Z</time>
      </trkpt>
      <trkpt lat="48.60165" lon="2.06495">
        <ele>121</ele>
        <time>2020-05-31T13:18:12Z</time>
      </trkpt>
      <trkpt lat="48.60166" lon="2.065">
        <ele>121</ele>
        <time>2020-05-31T13:18:14Z</time>
      </trkpt>
      <trkpt lat="48.60167" lon="2.06504">
        <ele>121</ele>
        <time>2020-05-31T13:18:16Z</time>
      </trkpt>
      <trkpt lat="48.60168" lon="2.06508">
        <ele>120</ele>
        <time>2020-05-31T13:18:18Z</time>
      </trkpt>
      <trkpt lat="48.6017" lon="2.06512">
        <ele>120</ele>
        <time>2020-05-31T13:18:20Z</time>
      </trkpt>
      <trkpt lat="48.60171" lon="2.06516">
        <ele>120</ele>
        <time>2020-05-31T13:18:22Z</time>
      </trkpt>
      <trkpt lat="48.60172" lon="2.0652">
        <ele>120</ele>
        <time>2020-05-31T13:18:24Z</time>
      </trkpt>
      <trkpt lat="48.60174" lon="2.06524">
        <ele>119</ele>
        <time>2020-05-31T13:18:26Z</time>
      </trkpt>
      <trkpt lat="48.60175" lon="2.06529">
        <ele>119</ele>
        <time>2020-05-31T13:18:28Z</time>
      </trkpt>
      <trkpt lat="48.60176" lon="2.06533">
        <ele>118</ele>
        <time>2020-05-31T13:18:30Z</time>
      </trkpt>
      <trkpt lat="48.60177" lon="2.06539">
        <ele>117</ele>
        <time>2020-05-31T13:18:32Z</time>
      </trkpt>
      <trkpt lat="48.60178" lon="2.06543">
        <ele>117</ele>
        <time>2020-05-31T13:18:34Z</time>
      </trkpt>
      <trkpt lat="48.60179" lon="2.06547">
        <ele>116</ele>
        <time>2020-05-31T13:18:36Z</time>
      </trkpt>
      <trkpt lat="48.6018" lon="2.0655">
        <ele>116</ele>
        <time>2020-05-31T13:18:37Z</time>
      </trkpt>
      <trkpt lat="48.60181" lon="2.06554">
        <ele>116</ele>
        <time>2020-05-31T13:18:39Z</time>
      </trkpt>
      <trkpt lat="48.60182" lon="2.06558">
        <ele>116</ele>
        <time>2020-05-31T13:18:41Z</time>
      </trkpt>
      <trkpt lat="48.60182" lon="2.06562">
        <ele>115</ele>
        <time>2020-05-31T13:18:43Z</time>
      </trkpt>
      <trkpt lat="48.60183" lon="2.06567">
        <ele>115</ele>
        <time>2020-05-31T13:18:45Z</time>
      </trkpt>
      <trkpt lat="48.60183" lon="2.06571">
        <ele>114</ele>
        <time>2020-05-31T13:18:47Z</time>
      </trkpt>
      <trkpt lat="48.60184" lon="2.06576">
        <ele>114</ele>
        <time>2020-05-31T13:18:50Z</time>
      </trkpt>
      <trkpt lat="48.60185" lon="2.0658">
        <ele>114</ele>
        <time>2020-05-31T13:18:52Z</time>
      </trkpt>
      <trkpt lat="48.60186" lon="2.06584">
        <ele>114</ele>
        <time>2020-05-31T13:18:54Z</time>
      </trkpt>
      <trkpt lat="48.60187" lon="2.06588">
        <ele>114</ele>
        <time>2020-05-31T13:18:56Z</time>
      </trkpt>
      <trkpt lat="48.60188" lon="2.06591">
        <ele>113</ele>
        <time>2020-05-31T13:18:58Z</time>
      </trkpt>
      <trkpt lat="48.60189" lon="2.06595">
        <ele>113</ele>
        <time>2020-05-31T13:19:00Z</time>
      </trkpt>
      <trkpt lat="48.6019" lon="2.06598">
        <ele>113</ele>
        <time>2020-05-31T13:19:02Z</time>
      </trkpt>
      <trkpt lat="48.60192" lon="2.06601">
        <ele>113</ele>
        <time>2020-05-31T13:19:04Z</time>
      </trkpt>
      <trkpt lat="48.60193" lon="2.06604">
        <ele>113</ele>
        <time>2020-05-31T13:19:06Z</time>
      </trkpt>
      <trkpt lat="48.60195" lon="2.06607">
        <ele>113</ele>
        <time>2020-05-31T13:19:08Z</time>
      </trkpt>
      <trkpt lat="48.60197" lon="2.0661">
        <ele>113</ele>
        <time>2020-05-31T13:19:10Z</time>
      </trkpt>
      <trkpt lat="48.60199" lon="2.06612">
        <ele>113</ele>
        <time>2020-05-31T13:19:12Z</time>
      </trkpt>
      <trkpt lat="48.60202" lon="2.06614">
        <ele>113</ele>
        <time>2020-05-31T13:19:14Z</time>
      </trkpt>
      <trkpt lat="48.60204" lon="2.06615">
        <ele>113</ele>
        <time>2020-05-31T13:19:16Z</time>
      </trkpt>
      <trkpt lat="48.60207" lon="2.06617">
        <ele>113</ele>
        <time>2020-05-31T13:19:18Z</time>
      </trkpt>
      <trkpt lat="48.6021" lon="2.06618">
        <ele>113</ele>
        <time>2020-05-31T13:19:20Z</time>
      </trkpt>
      <trkpt lat="48.60213" lon="2.0662">
        <ele>113</ele>
        <time>2020-05-31T13:19:22Z</time>
      </trkpt>
      <trkpt lat="48.60216" lon="2.06622">
        <ele>113</ele>
        <time>2020-05-31T13:19:24Z</time>
      </trkpt>
      <trkpt lat="48.60219" lon="2.06624">
        <ele>113</ele>
        <time>2020-05-31T13:19:26Z</time>
      </trkpt>
      <trkpt lat="48.60222" lon="2.06625">
        <ele>113</ele>
        <time>2020-05-31T13:19:28Z</time>
      </trkpt>
      <trkpt lat="48.60225" lon="2.06628">
        <ele>113</ele>
        <time>2020-05-31T13:19:30Z</time>
      </trkpt>
      <trkpt lat="48.60228" lon="2.06629">
        <ele>113</ele>
        <time>2020-05-31T13:19:32Z</time>
      </trkpt>
      <trkpt lat="48.6023" lon="2.06631">
        <ele>113</ele>
        <time>2020-05-31T13:19:34Z</time>
      </trkpt>
      <trkpt lat="48.60233" lon="2.06632">
        <ele>113</ele>
        <time>2020-05-31T13:19:36Z</time>
      </trkpt>
      <trkpt lat="48.60235" lon="2.06633">
        <ele>113</ele>
        <time>2020-05-31T13:19:38Z</time>
      </trkpt>
      <trkpt lat="48.60237" lon="2.06634">
        <ele>113</ele>
        <time>2020-05-31T13:19:40Z</time>
      </trkpt>
      <trkpt lat="48.60239" lon="2.06635">
        <ele>113</ele>
        <time>2020-05-31T13:19:41Z</time>
      </trkpt>
      <trkpt lat="48.60242" lon="2.06638">
        <ele>113</ele>
        <time>2020-05-31T13:19:43Z</time>
      </trkpt>
      <trkpt lat="48.60244" lon="2.06639">
        <ele>113</ele>
        <time>2020-05-31T13:19:44Z</time>
      </trkpt>
      <trkpt lat="48.60245" lon="2.0664">
        <ele>113</ele>
        <time>2020-05-31T13:19:45Z</time>
      </trkpt>
      <trkpt lat="48.60248" lon="2.06642">
        <ele>113</ele>
        <time>2020-05-31T13:19:47Z</time>
      </trkpt>
      <trkpt lat="48.6025" lon="2.06644">
        <ele>113</ele>
        <time>2020-05-31T13:19:49Z</time>
      </trkpt>
      <trkpt lat="48.60252" lon="2.06646">
        <ele>113</ele>
        <time>2020-05-31T13:19:50Z</time>
      </trkpt>
      <trkpt lat="48.60253" lon="2.06647">
        <ele>113</ele>
        <time>2020-05-31T13:19:51Z</time>
      </trkpt>
      <trkpt lat="48.60256" lon="2.0665">
        <ele>113</ele>
        <time>2020-05-31T13:19:53Z</time>
      </trkpt>
      <trkpt lat="48.60259" lon="2.06651">
        <ele>113</ele>
        <time>2020-05-31T13:19:55Z</time>
      </trkpt>
      <trkpt lat="48.60261" lon="2.06653">
        <ele>113</ele>
        <time>2020-05-31T13:19:57Z</time>
      </trkpt>
      <trkpt lat="48.60263" lon="2.06656">
        <ele>113</ele>
        <time>2020-05-31T13:19:59Z</time>
      </trkpt>
      <trkpt lat="48.60265" lon="2.06658">
        <ele>113</ele>
        <time>2020-05-31T13:20:01Z</time>
      </trkpt>
      <trkpt lat="48.60268" lon="2.06659">
        <ele>112</ele>
        <time>2020-05-31T13:20:03Z</time>
      </trkpt>
      <trkpt lat="48.6027" lon="2.06662">
        <ele>113</ele>
        <time>2020-05-31T13:20:05Z</time>
      </trkpt>
      <trkpt lat="48.60272" lon="2.06663">
        <ele>113</ele>
        <time>2020-05-31T13:20:07Z</time>
      </trkpt>
      <trkpt lat="48.60274" lon="2.06665">
        <ele>113</ele>
        <time>2020-05-31T13:20:10Z</time>
      </trkpt>
      <trkpt lat="48.60276" lon="2.06666">
        <ele>112</ele>
        <time>2020-05-31T13:20:12Z</time>
      </trkpt>
      <trkpt lat="48.60278" lon="2.06668">
        <ele>112</ele>
        <time>2020-05-31T13:20:14Z</time>
      </trkpt>
      <trkpt lat="48.60282" lon="2.06671">
        <ele>113</ele>
        <time>2020-05-31T13:20:17Z</time>
      </trkpt>
      <trkpt lat="48.60284" lon="2.06673">
        <ele>113</ele>
        <time>2020-05-31T13:20:19Z</time>
      </trkpt>
      <trkpt lat="48.60288" lon="2.06675">
        <ele>112</ele>
        <time>2020-05-31T13:20:21Z</time>
      </trkpt>
      <trkpt lat="48.6029" lon="2.06677">
        <ele>113</ele>
        <time>2020-05-31T13:20:22Z</time>
      </trkpt>
      <trkpt lat="48.60291" lon="2.06679">
        <ele>113</ele>
        <time>2020-05-31T13:20:23Z</time>
      </trkpt>
      <trkpt lat="48.60293" lon="2.06681">
        <ele>113</ele>
        <time>2020-05-31T13:20:25Z</time>
      </trkpt>
      <trkpt lat="48.60296" lon="2.06683">
        <ele>113</ele>
        <time>2020-05-31T13:20:27Z</time>
      </trkpt>
      <trkpt lat="48.60299" lon="2.06684">
        <ele>113</ele>
        <time>2020-05-31T13:20:29Z</time>
      </trkpt>
      <trkpt lat="48.60301" lon="2.06686">
        <ele>113</ele>
        <time>2020-05-31T13:20:31Z</time>
      </trkpt>
      <trkpt lat="48.60303" lon="2.06687">
        <ele>113</ele>
        <time>2020-05-31T13:20:33Z</time>
      </trkpt>
      <trkpt lat="48.60306" lon="2.06689">
        <ele>113</ele>
        <time>2020-05-31T13:20:35Z</time>
      </trkpt>
      <trkpt lat="48.60308" lon="2.0669">
        <ele>113</ele>
        <time>2020-05-31T13:20:37Z</time>
      </trkpt>
      <trkpt lat="48.60311" lon="2.06692">
        <ele>113</ele>
        <time>2020-05-31T13:20:39Z</time>
      </trkpt>
      <trkpt lat="48.60319" lon="2.06696">
        <ele>112</ele>
        <time>2020-05-31T13:20:45Z</time>
      </trkpt>
      <trkpt lat="48.60322" lon="2.06698">
        <ele>112</ele>
        <time>2020-05-31T13:20:47Z</time>
      </trkpt>
      <trkpt lat="48.60325" lon="2.06699">
        <ele>112</ele>
        <time>2020-05-31T13:20:49Z</time>
      </trkpt>
      <trkpt lat="48.60327" lon="2.067">
        <ele>113</ele>
        <time>2020-05-31T13:20:51Z</time>
      </trkpt>
      <trkpt lat="48.6033" lon="2.06702">
        <ele>113</ele>
        <time>2020-05-31T13:20:53Z</time>
      </trkpt>
      <trkpt lat="48.60332" lon="2.06703">
        <ele>113</ele>
        <time>2020-05-31T13:20:54Z</time>
      </trkpt>
      <trkpt lat="48.60335" lon="2.06705">
        <ele>113</ele>
        <time>2020-05-31T13:20:56Z</time>
      </trkpt>
      <trkpt lat="48.60337" lon="2.06705">
        <ele>113</ele>
        <time>2020-05-31T13:20:57Z</time>
      </trkpt>
      <trkpt lat="48.6034" lon="2.06706">
        <ele>113</ele>
        <time>2020-05-31T13:20:59Z</time>
      </trkpt>
      <trkpt lat="48.60342" lon="2.06706">
        <ele>112</ele>
        <time>2020-05-31T13:21:01Z</time>
      </trkpt>
      <trkpt lat="48.60344" lon="2.06707">
        <ele>112</ele>
        <time>2020-05-31T13:21:03Z</time>
      </trkpt>
      <trkpt lat="48.60347" lon="2.06708">
        <ele>112</ele>
        <time>2020-05-31T13:21:05Z</time>
      </trkpt>
      <trkpt lat="48.60349" lon="2.06709">
        <ele>112</ele>
        <time>2020-05-31T13:21:07Z</time>
      </trkpt>
      <trkpt lat="48.60351" lon="2.06711">
        <ele>112</ele>
        <time>2020-05-31T13:21:09Z</time>
      </trkpt>
      <trkpt lat="48.60353" lon="2.06713">
        <ele>112</ele>
        <time>2020-05-31T13:21:10Z</time>
      </trkpt>
      <trkpt lat="48.60356" lon="2.06714">
        <ele>113</ele>
        <time>2020-05-31T13:21:12Z</time>
      </trkpt>
      <trkpt lat="48.60359" lon="2.06715">
        <ele>112</ele>
        <time>2020-05-31T13:21:14Z</time>
      </trkpt>
      <trkpt lat="48.60362" lon="2.06716">
        <ele>112</ele>
        <time>2020-05-31T13:21:16Z</time>
      </trkpt>
      <trkpt lat="48.60364" lon="2.06718">
        <ele>112</ele>
        <time>2020-05-31T13:21:18Z</time>
      </trkpt>
      <trkpt lat="48.60367" lon="2.0672">
        <ele>112</ele>
        <time>2020-05-31T13:21:20Z</time>
      </trkpt>
      <trkpt lat="48.60368" lon="2.0672">
        <ele>112</ele>
        <time>2020-05-31T13:21:21Z</time>
      </trkpt>
      <trkpt lat="48.6037" lon="2.06721">
        <ele>112</ele>
        <time>2020-05-31T13:21:22Z</time>
      </trkpt>
      <trkpt lat="48.60372" lon="2.06722">
        <ele>112</ele>
        <time>2020-05-31T13:21:23Z</time>
      </trkpt>
      <trkpt lat="48.60375" lon="2.06723">
        <ele>112</ele>
        <time>2020-05-31T13:21:25Z</time>
      </trkpt>
      <trkpt lat="48.60378" lon="2.06723">
        <ele>112</ele>
        <time>2020-05-31T13:21:27Z</time>
      </trkpt>
      <trkpt lat="48.60381" lon="2.06724">
        <ele>112</ele>
        <time>2020-05-31T13:21:29Z</time>
      </trkpt>
      <trkpt lat="48.60385" lon="2.06725">
        <ele>111</ele>
        <time>2020-05-31T13:21:31Z</time>
      </trkpt>
      <trkpt lat="48.60388" lon="2.06726">
        <ele>111</ele>
        <time>2020-05-31T13:21:33Z</time>
      </trkpt>
      <trkpt lat="48.6039" lon="2.06727">
        <ele>111</ele>
        <time>2020-05-31T13:21:35Z</time>
      </trkpt>
      <trkpt lat="48.60392" lon="2.06727">
        <ele>111</ele>
        <time>2020-05-31T13:21:37Z</time>
      </trkpt>
      <trkpt lat="48.60395" lon="2.06727">
        <ele>111</ele>
        <time>2020-05-31T13:21:39Z</time>
      </trkpt>
      <trkpt lat="48.60397" lon="2.06727">
        <ele>111</ele>
        <time>2020-05-31T13:21:41Z</time>
      </trkpt>
      <trkpt lat="48.604" lon="2.06727">
        <ele>111</ele>
        <time>2020-05-31T13:21:44Z</time>
      </trkpt>
      <trkpt lat="48.60403" lon="2.06727">
        <ele>111</ele>
        <time>2020-05-31T13:21:46Z</time>
      </trkpt>
      <trkpt lat="48.60405" lon="2.06727">
        <ele>111</ele>
        <time>2020-05-31T13:21:47Z</time>
      </trkpt>
      <trkpt lat="48.60407" lon="2.06728">
        <ele>111</ele>
        <time>2020-05-31T13:21:49Z</time>
      </trkpt>
      <trkpt lat="48.6041" lon="2.06728">
        <ele>111</ele>
        <time>2020-05-31T13:21:51Z</time>
      </trkpt>
      <trkpt lat="48.60413" lon="2.06729">
        <ele>111</ele>
        <time>2020-05-31T13:21:53Z</time>
      </trkpt>
      <trkpt lat="48.60416" lon="2.0673">
        <ele>111</ele>
        <time>2020-05-31T13:21:55Z</time>
      </trkpt>
      <trkpt lat="48.60419" lon="2.0673">
        <ele>111</ele>
        <time>2020-05-31T13:21:57Z</time>
      </trkpt>
      <trkpt lat="48.60422" lon="2.0673">
        <ele>111</ele>
        <time>2020-05-31T13:21:59Z</time>
      </trkpt>
      <trkpt lat="48.60426" lon="2.0673">
        <ele>111</ele>
        <time>2020-05-31T13:22:01Z</time>
      </trkpt>
      <trkpt lat="48.60428" lon="2.0673">
        <ele>111</ele>
        <time>2020-05-31T13:22:02Z</time>
      </trkpt>
      <trkpt lat="48.60432" lon="2.0673">
        <ele>111</ele>
        <time>2020-05-31T13:22:04Z</time>
      </trkpt>
      <trkpt lat="48.60434" lon="2.06731">
        <ele>111</ele>
        <time>2020-05-31T13:22:06Z</time>
      </trkpt>
      <trkpt lat="48.60437" lon="2.06732">
        <ele>112</ele>
        <time>2020-05-31T13:22:08Z</time>
      </trkpt>
      <trkpt lat="48.60439" lon="2.06731">
        <ele>112</ele>
        <time>2020-05-31T13:22:10Z</time>
      </trkpt>
      <trkpt lat="48.60441" lon="2.06732">
        <ele>112</ele>
        <time>2020-05-31T13:22:12Z</time>
      </trkpt>
      <trkpt lat="48.60444" lon="2.06731">
        <ele>112</ele>
        <time>2020-05-31T13:22:16Z</time>
      </trkpt>
      <trkpt lat="48.60447" lon="2.06732">
        <ele>112</ele>
        <time>2020-05-31T13:22:18Z</time>
      </trkpt>
      <trkpt lat="48.6045" lon="2.06734">
        <ele>112</ele>
        <time>2020-05-31T13:22:19Z</time>
      </trkpt>
      <trkpt lat="48.60452" lon="2.06735">
        <ele>112</ele>
        <time>2020-05-31T13:22:20Z</time>
      </trkpt>
      <trkpt lat="48.60454" lon="2.06737">
        <ele>112</ele>
        <time>2020-05-31T13:22:21Z</time>
      </trkpt>
      <trkpt lat="48.60455" lon="2.06738">
        <ele>112</ele>
        <time>2020-05-31T13:22:22Z</time>
      </trkpt>
      <trkpt lat="48.60458" lon="2.0674">
        <ele>112</ele>
        <time>2020-05-31T13:22:24Z</time>
      </trkpt>
      <trkpt lat="48.60461" lon="2.06741">
        <ele>112</ele>
        <time>2020-05-31T13:22:26Z</time>
      </trkpt>
      <trkpt lat="48.60464" lon="2.06743">
        <ele>112</ele>
        <time>2020-05-31T13:22:28Z</time>
      </trkpt>
      <trkpt lat="48.60467" lon="2.06746">
        <ele>111</ele>
        <time>2020-05-31T13:22:30Z</time>
      </trkpt>
      <trkpt lat="48.60469" lon="2.06747">
        <ele>111</ele>
        <time>2020-05-31T13:22:31Z</time>
      </trkpt>
      <trkpt lat="48.60471" lon="2.06748">
        <ele>111</ele>
        <time>2020-05-31T13:22:32Z</time>
      </trkpt>
      <trkpt lat="48.60473" lon="2.0675">
        <ele>111</ele>
        <time>2020-05-31T13:22:34Z</time>
      </trkpt>
      <trkpt lat="48.60475" lon="2.0675">
        <ele>111</ele>
        <time>2020-05-31T13:22:36Z</time>
      </trkpt>
      <trkpt lat="48.60478" lon="2.06751">
        <ele>112</ele>
        <time>2020-05-31T13:22:38Z</time>
      </trkpt>
      <trkpt lat="48.60481" lon="2.06753">
        <ele>112</ele>
        <time>2020-05-31T13:22:40Z</time>
      </trkpt>
      <trkpt lat="48.60483" lon="2.06755">
        <ele>112</ele>
        <time>2020-05-31T13:22:42Z</time>
      </trkpt>
      <trkpt lat="48.60486" lon="2.06757">
        <ele>112</ele>
        <time>2020-05-31T13:22:44Z</time>
      </trkpt>
      <trkpt lat="48.60489" lon="2.06759">
        <ele>112</ele>
        <time>2020-05-31T13:22:46Z</time>
      </trkpt>
      <trkpt lat="48.60491" lon="2.06761">
        <ele>112</ele>
        <time>2020-05-31T13:22:48Z</time>
      </trkpt>
      <trkpt lat="48.60494" lon="2.06763">
        <ele>112</ele>
        <time>2020-05-31T13:22:50Z</time>
      </trkpt>
      <trkpt lat="48.60495" lon="2.06766">
        <ele>112</ele>
        <time>2020-05-31T13:22:52Z</time>
      </trkpt>
      <trkpt lat="48.60496" lon="2.06769">
        <ele>112</ele>
        <time>2020-05-31T13:22:54Z</time>
      </trkpt>
      <trkpt lat="48.60497" lon="2.06773">
        <ele>112</ele>
        <time>2020-05-31T13:22:57Z</time>
      </trkpt>
      <trkpt lat="48.60497" lon="2.06778">
        <ele>112</ele>
        <time>2020-05-31T13:22:59Z</time>
      </trkpt>
      <trkpt lat="48.60496" lon="2.06782">
        <ele>112</ele>
        <time>2020-05-31T13:23:01Z</time>
      </trkpt>
      <trkpt lat="48.60494" lon="2.06787">
        <ele>111</ele>
        <time>2020-05-31T13:23:03Z</time>
      </trkpt>
      <trkpt lat="48.60494" lon="2.06791">
        <ele>111</ele>
        <time>2020-05-31T13:23:05Z</time>
      </trkpt>
      <trkpt lat="48.60493" lon="2.06796">
        <ele>111</ele>
        <time>2020-05-31T13:23:07Z</time>
      </trkpt>
      <trkpt lat="48.60492" lon="2.068">
        <ele>111</ele>
        <time>2020-05-31T13:23:09Z</time>
      </trkpt>
      <trkpt lat="48.60492" lon="2.06805">
        <ele>111</ele>
        <time>2020-05-31T13:23:11Z</time>
      </trkpt>
      <trkpt lat="48.60492" lon="2.06809">
        <ele>111</ele>
        <time>2020-05-31T13:23:13Z</time>
      </trkpt>
      <trkpt lat="48.60491" lon="2.06813">
        <ele>111</ele>
        <time>2020-05-31T13:23:15Z</time>
      </trkpt>
      <trkpt lat="48.60491" lon="2.06817">
        <ele>110</ele>
        <time>2020-05-31T13:23:17Z</time>
      </trkpt>
      <trkpt lat="48.6049" lon="2.06821">
        <ele>110</ele>
        <time>2020-05-31T13:23:19Z</time>
      </trkpt>
      <trkpt lat="48.6049" lon="2.06824">
        <ele>110</ele>
        <time>2020-05-31T13:23:21Z</time>
      </trkpt>
      <trkpt lat="48.6049" lon="2.06827">
        <ele>110</ele>
        <time>2020-05-31T13:23:23Z</time>
      </trkpt>
      <trkpt lat="48.60492" lon="2.0683">
        <ele>109</ele>
        <time>2020-05-31T13:23:25Z</time>
      </trkpt>
      <trkpt lat="48.60495" lon="2.06832">
        <ele>109</ele>
        <time>2020-05-31T13:23:27Z</time>
      </trkpt>
      <trkpt lat="48.60498" lon="2.06834">
        <ele>109</ele>
        <time>2020-05-31T13:23:29Z</time>
      </trkpt>
      <trkpt lat="48.60501" lon="2.06835">
        <ele>109</ele>
        <time>2020-05-31T13:23:31Z</time>
      </trkpt>
      <trkpt lat="48.60504" lon="2.06836">
        <ele>109</ele>
        <time>2020-05-31T13:23:33Z</time>
      </trkpt>
      <trkpt lat="48.60508" lon="2.06837">
        <ele>109</ele>
        <time>2020-05-31T13:23:35Z</time>
      </trkpt>
      <trkpt lat="48.60511" lon="2.06838">
        <ele>109</ele>
        <time>2020-05-31T13:23:37Z</time>
      </trkpt>
      <trkpt lat="48.60513" lon="2.06838">
        <ele>109</ele>
        <time>2020-05-31T13:23:38Z</time>
      </trkpt>
      <trkpt lat="48.60516" lon="2.0684">
        <ele>109</ele>
        <time>2020-05-31T13:23:40Z</time>
      </trkpt>
      <trkpt lat="48.60519" lon="2.06841">
        <ele>109</ele>
        <time>2020-05-31T13:23:42Z</time>
      </trkpt>
      <trkpt lat="48.60522" lon="2.06845">
        <ele>109</ele>
        <time>2020-05-31T13:23:44Z</time>
      </trkpt>
      <trkpt lat="48.60523" lon="2.06849">
        <ele>109</ele>
        <time>2020-05-31T13:23:46Z</time>
      </trkpt>
      <trkpt lat="48.60524" lon="2.06854">
        <ele>109</ele>
        <time>2020-05-31T13:23:48Z</time>
      </trkpt>
      <trkpt lat="48.60524" lon="2.06858">
        <ele>109</ele>
        <time>2020-05-31T13:23:50Z</time>
      </trkpt>
      <trkpt lat="48.60523" lon="2.06861">
        <ele>109</ele>
        <time>2020-05-31T13:23:52Z</time>
      </trkpt>
      <trkpt lat="48.60521" lon="2.06864">
        <ele>109</ele>
        <time>2020-05-31T13:23:54Z</time>
      </trkpt>
      <trkpt lat="48.60521" lon="2.06869">
        <ele>108</ele>
        <time>2020-05-31T13:23:56Z</time>
      </trkpt>
      <trkpt lat="48.6052" lon="2.06873">
        <ele>108</ele>
        <time>2020-05-31T13:23:58Z</time>
      </trkpt>
      <trkpt lat="48.6052" lon="2.06878">
        <ele>108</ele>
        <time>2020-05-31T13:24:00Z</time>
      </trkpt>
      <trkpt lat="48.60519" lon="2.06881">
        <ele>108</ele>
        <time>2020-05-31T13:24:01Z</time>
      </trkpt>
      <trkpt lat="48.60518" lon="2.06885">
        <ele>108</ele>
        <time>2020-05-31T13:24:03Z</time>
      </trkpt>
      <trkpt lat="48.60517" lon="2.0689">
        <ele>108</ele>
        <time>2020-05-31T13:24:05Z</time>
      </trkpt>
      <trkpt lat="48.60516" lon="2.06895">
        <ele>108</ele>
        <time>2020-05-31T13:24:07Z</time>
      </trkpt>
      <trkpt lat="48.60515" lon="2.06899">
        <ele>108</ele>
        <time>2020-05-31T13:24:09Z</time>
      </trkpt>
      <trkpt lat="48.60514" lon="2.06904">
        <ele>107</ele>
        <time>2020-05-31T13:24:11Z</time>
      </trkpt>
      <trkpt lat="48.60513" lon="2.06908">
        <ele>107</ele>
        <time>2020-05-31T13:24:13Z</time>
      </trkpt>
      <trkpt lat="48.60512" lon="2.06913">
        <ele>107</ele>
        <time>2020-05-31T13:24:15Z</time>
      </trkpt>
      <trkpt lat="48.60511" lon="2.06917">
        <ele>107</ele>
        <time>2020-05-31T13:24:17Z</time>
      </trkpt>
      <trkpt lat="48.6051" lon="2.06922">
        <ele>107</ele>
        <time>2020-05-31T13:24:19Z</time>
      </trkpt>
      <trkpt lat="48.6051" lon="2.06926">
        <ele>107</ele>
        <time>2020-05-31T13:24:21Z</time>
      </trkpt>
      <trkpt lat="48.60508" lon="2.0693">
        <ele>107</ele>
        <time>2020-05-31T13:24:23Z</time>
      </trkpt>
      <trkpt lat="48.60507" lon="2.06935">
        <ele>107</ele>
        <time>2020-05-31T13:24:25Z</time>
      </trkpt>
      <trkpt lat="48.60505" lon="2.06939">
        <ele>107</ele>
        <time>2020-05-31T13:24:27Z</time>
      </trkpt>
      <trkpt lat="48.60504" lon="2.06943">
        <ele>107</ele>
        <time>2020-05-31T13:24:29Z</time>
      </trkpt>
      <trkpt lat="48.60503" lon="2.06947">
        <ele>107</ele>
        <time>2020-05-31T13:24:31Z</time>
      </trkpt>
      <trkpt lat="48.60502" lon="2.06952">
        <ele>107</ele>
        <time>2020-05-31T13:24:33Z</time>
      </trkpt>
      <trkpt lat="48.60501" lon="2.06956">
        <ele>107</ele>
        <time>2020-05-31T13:24:35Z</time>
      </trkpt>
      <trkpt lat="48.60501" lon="2.06961">
        <ele>107</ele>
        <time>2020-05-31T13:24:37Z</time>
      </trkpt>
      <trkpt lat="48.60499" lon="2.06966">
        <ele>107</ele>
        <time>2020-05-31T13:24:39Z</time>
      </trkpt>
      <trkpt lat="48.60498" lon="2.06969">
        <ele>107</ele>
        <time>2020-05-31T13:24:41Z</time>
      </trkpt>
      <trkpt lat="48.60496" lon="2.06973">
        <ele>107</ele>
        <time>2020-05-31T13:24:43Z</time>
      </trkpt>
      <trkpt lat="48.60495" lon="2.06976">
        <ele>107</ele>
        <time>2020-05-31T13:24:45Z</time>
      </trkpt>
      <trkpt lat="48.60496" lon="2.06979">
        <ele>108</ele>
        <time>2020-05-31T13:24:57Z</time>
      </trkpt>
      <trkpt lat="48.60494" lon="2.06981">
        <ele>107</ele>
        <time>2020-05-31T13:25:09Z</time>
      </trkpt>
      <trkpt lat="48.60493" lon="2.06985">
        <ele>108</ele>
        <time>2020-05-31T13:25:11Z</time>
      </trkpt>
      <trkpt lat="48.60492" lon="2.06988">
        <ele>108</ele>
        <time>2020-05-31T13:25:13Z</time>
      </trkpt>
      <trkpt lat="48.60491" lon="2.06992">
        <ele>108</ele>
        <time>2020-05-31T13:25:15Z</time>
      </trkpt>
      <trkpt lat="48.6049" lon="2.06996">
        <ele>108</ele>
        <time>2020-05-31T13:25:17Z</time>
      </trkpt>
      <trkpt lat="48.60489" lon="2.07">
        <ele>108</ele>
        <time>2020-05-31T13:25:19Z</time>
      </trkpt>
      <trkpt lat="48.60487" lon="2.07004">
        <ele>108</ele>
        <time>2020-05-31T13:25:21Z</time>
      </trkpt>
      <trkpt lat="48.60485" lon="2.07008">
        <ele>108</ele>
        <time>2020-05-31T13:25:23Z</time>
      </trkpt>
      <trkpt lat="48.60484" lon="2.07013">
        <ele>108</ele>
        <time>2020-05-31T13:25:25Z</time>
      </trkpt>
      <trkpt lat="48.60482" lon="2.07017">
        <ele>108</ele>
        <time>2020-05-31T13:25:27Z</time>
      </trkpt>
      <trkpt lat="48.6048" lon="2.07021">
        <ele>108</ele>
        <time>2020-05-31T13:25:29Z</time>
      </trkpt>
      <trkpt lat="48.60478" lon="2.07025">
        <ele>108</ele>
        <time>2020-05-31T13:25:31Z</time>
      </trkpt>
      <trkpt lat="48.60476" lon="2.07029">
        <ele>109</ele>
        <time>2020-05-31T13:25:33Z</time>
      </trkpt>
      <trkpt lat="48.60474" lon="2.07032">
        <ele>109</ele>
        <time>2020-05-31T13:25:35Z</time>
      </trkpt>
      <trkpt lat="48.60472" lon="2.07036">
        <ele>109</ele>
        <time>2020-05-31T13:25:37Z</time>
      </trkpt>
      <trkpt lat="48.6047" lon="2.0704">
        <ele>109</ele>
        <time>2020-05-31T13:25:39Z</time>
      </trkpt>
      <trkpt lat="48.60468" lon="2.07044">
        <ele>108</ele>
        <time>2020-05-31T13:25:41Z</time>
      </trkpt>
      <trkpt lat="48.60467" lon="2.07047">
        <ele>108</ele>
        <time>2020-05-31T13:25:43Z</time>
      </trkpt>
      <trkpt lat="48.60465" lon="2.07051">
        <ele>108</ele>
        <time>2020-05-31T13:25:45Z</time>
      </trkpt>
      <trkpt lat="48.60464" lon="2.07056">
        <ele>108</ele>
        <time>2020-05-31T13:25:47Z</time>
      </trkpt>
      <trkpt lat="48.60463" lon="2.0706">
        <ele>108</ele>
        <time>2020-05-31T13:25:49Z</time>
      </trkpt>
      <trkpt lat="48.60463" lon="2.07065">
        <ele>108</ele>
        <time>2020-05-31T13:25:51Z</time>
      </trkpt>
      <trkpt lat="48.60463" lon="2.0707">
        <ele>108</ele>
        <time>2020-05-31T13:25:53Z</time>
      </trkpt>
      <trkpt lat="48.60463" lon="2.07074">
        <ele>109</ele>
        <time>2020-05-31T13:25:55Z</time>
      </trkpt>
      <trkpt lat="48.60463" lon="2.07079">
        <ele>109</ele>
        <time>2020-05-31T13:25:57Z</time>
      </trkpt>
      <trkpt lat="48.60464" lon="2.07083">
        <ele>108</ele>
        <time>2020-05-31T13:25:59Z</time>
      </trkpt>
      <trkpt lat="48.60464" lon="2.07088">
        <ele>108</ele>
        <time>2020-05-31T13:26:01Z</time>
      </trkpt>
      <trkpt lat="48.60465" lon="2.07092">
        <ele>108</ele>
        <time>2020-05-31T13:26:03Z</time>
      </trkpt>
      <trkpt lat="48.60465" lon="2.07097">
        <ele>108</ele>
        <time>2020-05-31T13:26:05Z</time>
      </trkpt>
      <trkpt lat="48.60466" lon="2.07102">
        <ele>109</ele>
        <time>2020-05-31T13:26:07Z</time>
      </trkpt>
      <trkpt lat="48.60466" lon="2.07106">
        <ele>109</ele>
        <time>2020-05-31T13:26:09Z</time>
      </trkpt>
      <trkpt lat="48.60467" lon="2.07111">
        <ele>109</ele>
        <time>2020-05-31T13:26:11Z</time>
      </trkpt>
      <trkpt lat="48.60467" lon="2.07115">
        <ele>109</ele>
        <time>2020-05-31T13:26:13Z</time>
      </trkpt>
      <trkpt lat="48.60467" lon="2.0712">
        <ele>109</ele>
        <time>2020-05-31T13:26:15Z</time>
      </trkpt>
      <trkpt lat="48.60468" lon="2.07124">
        <ele>109</ele>
        <time>2020-05-31T13:26:17Z</time>
      </trkpt>
      <trkpt lat="48.60468" lon="2.07129">
        <ele>109</ele>
        <time>2020-05-31T13:26:19Z</time>
      </trkpt>
      <trkpt lat="48.60468" lon="2.07133">
        <ele>109</ele>
        <time>2020-05-31T13:26:21Z</time>
      </trkpt>
      <trkpt lat="48.60468" lon="2.07138">
        <ele>109</ele>
        <time>2020-05-31T13:26:23Z</time>
      </trkpt>
      <trkpt lat="48.60468" lon="2.07143">
        <ele>109</ele>
        <time>2020-05-31T13:26:25Z</time>
      </trkpt>
      <trkpt lat="48.60468" lon="2.07148">
        <ele>109</ele>
        <time>2020-05-31T13:26:27Z</time>
      </trkpt>
      <trkpt lat="48.60468" lon="2.07153">
        <ele>109</ele>
        <time>2020-05-31T13:26:29Z</time>
      </trkpt>
      <trkpt lat="48.60468" lon="2.07158">
        <ele>109</ele>
        <time>2020-05-31T13:26:31Z</time>
      </trkpt>
      <trkpt lat="48.60468" lon="2.07162">
        <ele>109</ele>
        <time>2020-05-31T13:26:33Z</time>
      </trkpt>
      <trkpt lat="48.60468" lon="2.07167">
        <ele>110</ele>
        <time>2020-05-31T13:26:35Z</time>
      </trkpt>
      <trkpt lat="48.60468" lon="2.07172">
        <ele>110</ele>
        <time>2020-05-31T13:26:37Z</time>
      </trkpt>
      <trkpt lat="48.60468" lon="2.07177">
        <ele>110</ele>
        <time>2020-05-31T13:26:39Z</time>
      </trkpt>
      <trkpt lat="48.60468" lon="2.07182">
        <ele>110</ele>
        <time>2020-05-31T13:26:41Z</time>
      </trkpt>
      <trkpt lat="48.60468" lon="2.07187">
        <ele>109</ele>
        <time>2020-05-31T13:26:43Z</time>
      </trkpt>
      <trkpt lat="48.60467" lon="2.07191">
        <ele>109</ele>
        <time>2020-05-31T13:26:45Z</time>
      </trkpt>
      <trkpt lat="48.60467" lon="2.07196">
        <ele>110</ele>
        <time>2020-05-31T13:26:47Z</time>
      </trkpt>
      <trkpt lat="48.60467" lon="2.07201">
        <ele>110</ele>
        <time>2020-05-31T13:26:49Z</time>
      </trkpt>
      <trkpt lat="48.60467" lon="2.07206">
        <ele>110</ele>
        <time>2020-05-31T13:26:51Z</time>
      </trkpt>
      <trkpt lat="48.60468" lon="2.07211">
        <ele>110</ele>
        <time>2020-05-31T13:26:53Z</time>
      </trkpt>
      <trkpt lat="48.60468" lon="2.07215">
        <ele>110</ele>
        <time>2020-05-31T13:26:55Z</time>
      </trkpt>
      <trkpt lat="48.60469" lon="2.07219">
        <ele>110</ele>
        <time>2020-05-31T13:26:57Z</time>
      </trkpt>
      <trkpt lat="48.6047" lon="2.07222">
        <ele>111</ele>
        <time>2020-05-31T13:27:00Z</time>
      </trkpt>
      <trkpt lat="48.6047" lon="2.07226">
        <ele>111</ele>
        <time>2020-05-31T13:27:04Z</time>
      </trkpt>
      <trkpt lat="48.60469" lon="2.07229">
        <ele>111</ele>
        <time>2020-05-31T13:27:13Z</time>
      </trkpt>
      <trkpt lat="48.6047" lon="2.07231">
        <ele>111</ele>
        <time>2020-05-31T13:27:20Z</time>
      </trkpt>
      <trkpt lat="48.60471" lon="2.07234">
        <ele>111</ele>
        <time>2020-05-31T13:27:22Z</time>
      </trkpt>
      <trkpt lat="48.60472" lon="2.07238">
        <ele>111</ele>
        <time>2020-05-31T13:27:24Z</time>
      </trkpt>
      <trkpt lat="48.60472" lon="2.07243">
        <ele>111</ele>
        <time>2020-05-31T13:27:26Z</time>
      </trkpt>
      <trkpt lat="48.60472" lon="2.07248">
        <ele>111</ele>
        <time>2020-05-31T13:27:28Z</time>
      </trkpt>
      <trkpt lat="48.60472" lon="2.07253">
        <ele>111</ele>
        <time>2020-05-31T13:27:30Z</time>
      </trkpt>
      <trkpt lat="48.60472" lon="2.07257">
        <ele>112</ele>
        <time>2020-05-31T13:27:32Z</time>
      </trkpt>
      <trkpt lat="48.60472" lon="2.07262">
        <ele>112</ele>
        <time>2020-05-31T13:27:34Z</time>
      </trkpt>
      <trkpt lat="48.60471" lon="2.07267">
        <ele>112</ele>
        <time>2020-05-31T13:27:36Z</time>
      </trkpt>
      <trkpt lat="48.60471" lon="2.07272">
        <ele>112</ele>
        <time>2020-05-31T13:27:38Z</time>
      </trkpt>
      <trkpt lat="48.60472" lon="2.07278">
        <ele>112</ele>
        <time>2020-05-31T13:27:40Z</time>
      </trkpt>
      <trkpt lat="48.60472" lon="2.07283">
        <ele>112</ele>
        <time>2020-05-31T13:27:42Z</time>
      </trkpt>
      <trkpt lat="48.60472" lon="2.07288">
        <ele>112</ele>
        <time>2020-05-31T13:27:44Z</time>
      </trkpt>
      <trkpt lat="48.60473" lon="2.07293">
        <ele>112</ele>
        <time>2020-05-31T13:27:46Z</time>
      </trkpt>
      <trkpt lat="48.60474" lon="2.07298">
        <ele>112</ele>
        <time>2020-05-31T13:27:48Z</time>
      </trkpt>
      <trkpt lat="48.60474" lon="2.07304">
        <ele>112</ele>
        <time>2020-05-31T13:27:50Z</time>
      </trkpt>
      <trkpt lat="48.60474" lon="2.07307">
        <ele>112</ele>
        <time>2020-05-31T13:27:51Z</time>
      </trkpt>
      <trkpt lat="48.60474" lon="2.07312">
        <ele>113</ele>
        <time>2020-05-31T13:27:53Z</time>
      </trkpt>
      <trkpt lat="48.60474" lon="2.07317">
        <ele>113</ele>
        <time>2020-05-31T13:27:55Z</time>
      </trkpt>
      <trkpt lat="48.60474" lon="2.07322">
        <ele>113</ele>
        <time>2020-05-31T13:27:57Z</time>
      </trkpt>
      <trkpt lat="48.60475" lon="2.07327">
        <ele>113</ele>
        <time>2020-05-31T13:27:59Z</time>
      </trkpt>
      <trkpt lat="48.60475" lon="2.07332">
        <ele>113</ele>
        <time>2020-05-31T13:28:01Z</time>
      </trkpt>
      <trkpt lat="48.60475" lon="2.07337">
        <ele>113</ele>
        <time>2020-05-31T13:28:03Z</time>
      </trkpt>
      <trkpt lat="48.60475" lon="2.07342">
        <ele>113</ele>
        <time>2020-05-31T13:28:05Z</time>
      </trkpt>
      <trkpt lat="48.60476" lon="2.07346">
        <ele>113</ele>
        <time>2020-05-31T13:28:07Z</time>
      </trkpt>
      <trkpt lat="48.60476" lon="2.07351">
        <ele>113</ele>
        <time>2020-05-31T13:28:09Z</time>
      </trkpt>
      <trkpt lat="48.60477" lon="2.07356">
        <ele>113</ele>
        <time>2020-05-31T13:28:11Z</time>
      </trkpt>
      <trkpt lat="48.60477" lon="2.07361">
        <ele>114</ele>
        <time>2020-05-31T13:28:13Z</time>
      </trkpt>
      <trkpt lat="48.60477" lon="2.07366">
        <ele>114</ele>
        <time>2020-05-31T13:28:15Z</time>
      </trkpt>
      <trkpt lat="48.60478" lon="2.07371">
        <ele>114</ele>
        <time>2020-05-31T13:28:17Z</time>
      </trkpt>
      <trkpt lat="48.60478" lon="2.07376">
        <ele>114</ele>
        <time>2020-05-31T13:28:19Z</time>
      </trkpt>
      <trkpt lat="48.60477" lon="2.0738">
        <ele>114</ele>
        <time>2020-05-31T13:28:21Z</time>
      </trkpt>
      <trkpt lat="48.60477" lon="2.07385">
        <ele>114</ele>
        <time>2020-05-31T13:28:23Z</time>
      </trkpt>
      <trkpt lat="48.60476" lon="2.0739">
        <ele>115</ele>
        <time>2020-05-31T13:28:25Z</time>
      </trkpt>
      <trkpt lat="48.60477" lon="2.07395">
        <ele>115</ele>
        <time>2020-05-31T13:28:27Z</time>
      </trkpt>
      <trkpt lat="48.60478" lon="2.07399">
        <ele>115</ele>
        <time>2020-05-31T13:28:29Z</time>
      </trkpt>
      <trkpt lat="48.60478" lon="2.07404">
        <ele>115</ele>
        <time>2020-05-31T13:28:31Z</time>
      </trkpt>
      <trkpt lat="48.60479" lon="2.07407">
        <ele>115</ele>
        <time>2020-05-31T13:28:33Z</time>
      </trkpt>
      <trkpt lat="48.60479" lon="2.0741">
        <ele>115</ele>
        <time>2020-05-31T13:28:46Z</time>
      </trkpt>
      <trkpt lat="48.6048" lon="2.07413">
        <ele>115</ele>
        <time>2020-05-31T13:28:48Z</time>
      </trkpt>
      <trkpt lat="48.6048" lon="2.07417">
        <ele>116</ele>
        <time>2020-05-31T13:28:50Z</time>
      </trkpt>
      <trkpt lat="48.60479" lon="2.07422">
        <ele>116</ele>
        <time>2020-05-31T13:28:52Z</time>
      </trkpt>
      <trkpt lat="48.60478" lon="2.07426">
        <ele>116</ele>
        <time>2020-05-31T13:28:54Z</time>
      </trkpt>
      <trkpt lat="48.60477" lon="2.07431">
        <ele>116</ele>
        <time>2020-05-31T13:28:56Z</time>
      </trkpt>
      <trkpt lat="48.60475" lon="2.07435">
        <ele>116</ele>
        <time>2020-05-31T13:28:58Z</time>
      </trkpt>
      <trkpt lat="48.60473" lon="2.07439">
        <ele>116</ele>
        <time>2020-05-31T13:29:00Z</time>
      </trkpt>
      <trkpt lat="48.60472" lon="2.07444">
        <ele>116</ele>
        <time>2020-05-31T13:29:02Z</time>
      </trkpt>
      <trkpt lat="48.6047" lon="2.07448">
        <ele>116</ele>
        <time>2020-05-31T13:29:04Z</time>
      </trkpt>
      <trkpt lat="48.60468" lon="2.07452">
        <ele>116</ele>
        <time>2020-05-31T13:29:06Z</time>
      </trkpt>
      <trkpt lat="48.60467" lon="2.07457">
        <ele>116</ele>
        <time>2020-05-31T13:29:08Z</time>
      </trkpt>
      <trkpt lat="48.60465" lon="2.07461">
        <ele>116</ele>
        <time>2020-05-31T13:29:10Z</time>
      </trkpt>
      <trkpt lat="48.60464" lon="2.07466">
        <ele>116</ele>
        <time>2020-05-31T13:29:12Z</time>
      </trkpt>
      <trkpt lat="48.60462" lon="2.07471">
        <ele>116</ele>
        <time>2020-05-31T13:29:14Z</time>
      </trkpt>
      <trkpt lat="48.60461" lon="2.07475">
        <ele>116</ele>
        <time>2020-05-31T13:29:16Z</time>
      </trkpt>
      <trkpt lat="48.60459" lon="2.0748">
        <ele>116</ele>
        <time>2020-05-31T13:29:18Z</time>
      </trkpt>
      <trkpt lat="48.60458" lon="2.07485">
        <ele>116</ele>
        <time>2020-05-31T13:29:20Z</time>
      </trkpt>
      <trkpt lat="48.60457" lon="2.07489">
        <ele>116</ele>
        <time>2020-05-31T13:29:22Z</time>
      </trkpt>
      <trkpt lat="48.60455" lon="2.07494">
        <ele>116</ele>
        <time>2020-05-31T13:29:24Z</time>
      </trkpt>
      <trkpt lat="48.60454" lon="2.07498">
        <ele>116</ele>
        <time>2020-05-31T13:29:26Z</time>
      </trkpt>
      <trkpt lat="48.60452" lon="2.07503">
        <ele>116</ele>
        <time>2020-05-31T13:29:28Z</time>
      </trkpt>
      <trkpt lat="48.60451" lon="2.07507">
        <ele>116</ele>
        <time>2020-05-31T13:29:30Z</time>
      </trkpt>
      <trkpt lat="48.60449" lon="2.07512">
        <ele>116</ele>
        <time>2020-05-31T13:29:32Z</time>
      </trkpt>
      <trkpt lat="48.60448" lon="2.07517">
        <ele>116</ele>
        <time>2020-05-31T13:29:34Z</time>
      </trkpt>
      <trkpt lat="48.60448" lon="2.07521">
        <ele>116</ele>
        <time>2020-05-31T13:29:36Z</time>
      </trkpt>
      <trkpt lat="48.60446" lon="2.07526">
        <ele>116</ele>
        <time>2020-05-31T13:29:38Z</time>
      </trkpt>
      <trkpt lat="48.60445" lon="2.07531">
        <ele>116</ele>
        <time>2020-05-31T13:29:40Z</time>
      </trkpt>
      <trkpt lat="48.60445" lon="2.07536">
        <ele>116</ele>
        <time>2020-05-31T13:29:42Z</time>
      </trkpt>
      <trkpt lat="48.60444" lon="2.07541">
        <ele>116</ele>
        <time>2020-05-31T13:29:44Z</time>
      </trkpt>
      <trkpt lat="48.60444" lon="2.07546">
        <ele>116</ele>
        <time>2020-05-31T13:29:46Z</time>
      </trkpt>
      <trkpt lat="48.60444" lon="2.07551">
        <ele>116</ele>
        <time>2020-05-31T13:29:48Z</time>
      </trkpt>
      <trkpt lat="48.60444" lon="2.07556">
        <ele>116</ele>
        <time>2020-05-31T13:29:50Z</time>
      </trkpt>
      <trkpt lat="48.60443" lon="2.07561">
        <ele>115</ele>
        <time>2020-05-31T13:29:52Z</time>
      </trkpt>
      <trkpt lat="48.60443" lon="2.07566">
        <ele>115</ele>
        <time>2020-05-31T13:29:54Z</time>
      </trkpt>
      <trkpt lat="48.60443" lon="2.07571">
        <ele>115</ele>
        <time>2020-05-31T13:29:56Z</time>
      </trkpt>
      <trkpt lat="48.60444" lon="2.07576">
        <ele>115</ele>
        <time>2020-05-31T13:29:58Z</time>
      </trkpt>
      <trkpt lat="48.60445" lon="2.07581">
        <ele>115</ele>
        <time>2020-05-31T13:30:00Z</time>
      </trkpt>
      <trkpt lat="48.60446" lon="2.07586">
        <ele>115</ele>
        <time>2020-05-31T13:30:02Z</time>
      </trkpt>
      <trkpt lat="48.60448" lon="2.07591">
        <ele>115</ele>
        <time>2020-05-31T13:30:04Z</time>
      </trkpt>
      <trkpt lat="48.6045" lon="2.07595">
        <ele>115</ele>
        <time>2020-05-31T13:30:06Z</time>
      </trkpt>
      <trkpt lat="48.60451" lon="2.076">
        <ele>115</ele>
        <time>2020-05-31T13:30:08Z</time>
      </trkpt>
      <trkpt lat="48.60453" lon="2.07604">
        <ele>115</ele>
        <time>2020-05-31T13:30:10Z</time>
      </trkpt>
      <trkpt lat="48.60455" lon="2.07608">
        <ele>115</ele>
        <time>2020-05-31T13:30:12Z</time>
      </trkpt>
      <trkpt lat="48.60457" lon="2.07613">
        <ele>115</ele>
        <time>2020-05-31T13:30:14Z</time>
      </trkpt>
      <trkpt lat="48.60458" lon="2.07617">
        <ele>115</ele>
        <time>2020-05-31T13:30:16Z</time>
      </trkpt>
      <trkpt lat="48.6046" lon="2.07621">
        <ele>115</ele>
        <time>2020-05-31T13:30:18Z</time>
      </trkpt>
      <trkpt lat="48.60462" lon="2.07625">
        <ele>115</ele>
        <time>2020-05-31T13:30:20Z</time>
      </trkpt>
      <trkpt lat="48.60464" lon="2.07629">
        <ele>115</ele>
        <time>2020-05-31T13:30:22Z</time>
      </trkpt>
      <trkpt lat="48.60465" lon="2.07633">
        <ele>115</ele>
        <time>2020-05-31T13:30:24Z</time>
      </trkpt>
      <trkpt lat="48.60467" lon="2.07638">
        <ele>115</ele>
        <time>2020-05-31T13:30:26Z</time>
      </trkpt>
      <trkpt lat="48.60469" lon="2.07642">
        <ele>115</ele>
        <time>2020-05-31T13:30:28Z</time>
      </trkpt>
      <trkpt lat="48.60471" lon="2.07646">
        <ele>115</ele>
        <time>2020-05-31T13:30:30Z</time>
      </trkpt>
      <trkpt lat="48.60472" lon="2.07651">
        <ele>115</ele>
        <time>2020-05-31T13:30:32Z</time>
      </trkpt>
      <trkpt lat="48.60473" lon="2.07656">
        <ele>115</ele>
        <time>2020-05-31T13:30:34Z</time>
      </trkpt>
      <trkpt lat="48.60474" lon="2.07661">
        <ele>115</ele>
        <time>2020-05-31T13:30:36Z</time>
      </trkpt>
      <trkpt lat="48.60475" lon="2.07665">
        <ele>114</ele>
        <time>2020-05-31T13:30:38Z</time>
      </trkpt>
      <trkpt lat="48.60476" lon="2.07671">
        <ele>114</ele>
        <time>2020-05-31T13:30:40Z</time>
      </trkpt>
      <trkpt lat="48.60477" lon="2.07675">
        <ele>114</ele>
        <time>2020-05-31T13:30:42Z</time>
      </trkpt>
      <trkpt lat="48.60477" lon="2.0768">
        <ele>114</ele>
        <time>2020-05-31T13:30:44Z</time>
      </trkpt>
      <trkpt lat="48.60477" lon="2.07685">
        <ele>114</ele>
        <time>2020-05-31T13:30:46Z</time>
      </trkpt>
      <trkpt lat="48.60478" lon="2.0769">
        <ele>114</ele>
        <time>2020-05-31T13:30:48Z</time>
      </trkpt>
      <trkpt lat="48.60478" lon="2.07695">
        <ele>114</ele>
        <time>2020-05-31T13:30:50Z</time>
      </trkpt>
      <trkpt lat="48.60478" lon="2.07698">
        <ele>114</ele>
        <time>2020-05-31T13:30:51Z</time>
      </trkpt>
      <trkpt lat="48.60478" lon="2.07703">
        <ele>114</ele>
        <time>2020-05-31T13:30:53Z</time>
      </trkpt>
      <trkpt lat="48.60478" lon="2.07706">
        <ele>114</ele>
        <time>2020-05-31T13:30:54Z</time>
      </trkpt>
      <trkpt lat="48.60478" lon="2.07709">
        <ele>114</ele>
        <time>2020-05-31T13:30:55Z</time>
      </trkpt>
      <trkpt lat="48.60478" lon="2.07714">
        <ele>114</ele>
        <time>2020-05-31T13:30:57Z</time>
      </trkpt>
      <trkpt lat="48.60478" lon="2.07719">
        <ele>114</ele>
        <time>2020-05-31T13:30:59Z</time>
      </trkpt>
      <trkpt lat="48.60478" lon="2.07724">
        <ele>114</ele>
        <time>2020-05-31T13:31:01Z</time>
      </trkpt>
      <trkpt lat="48.60478" lon="2.07729">
        <ele>113</ele>
        <time>2020-05-31T13:31:03Z</time>
      </trkpt>
      <trkpt lat="48.60478" lon="2.07734">
        <ele>113</ele>
        <time>2020-05-31T13:31:05Z</time>
      </trkpt>
      <trkpt lat="48.60477" lon="2.0774">
        <ele>114</ele>
        <time>2020-05-31T13:31:07Z</time>
      </trkpt>
      <trkpt lat="48.60476" lon="2.07744">
        <ele>114</ele>
        <time>2020-05-31T13:31:09Z</time>
      </trkpt>
      <trkpt lat="48.60476" lon="2.07747">
        <ele>114</ele>
        <time>2020-05-31T13:31:12Z</time>
      </trkpt>
      <trkpt lat="48.60477" lon="2.0775">
        <ele>114</ele>
        <time>2020-05-31T13:31:21Z</time>
      </trkpt>
      <trkpt lat="48.60478" lon="2.07752">
        <ele>114</ele>
        <time>2020-05-31T13:31:25Z</time>
      </trkpt>
      <trkpt lat="48.60478" lon="2.07755">
        <ele>114</ele>
        <time>2020-05-31T13:31:27Z</time>
      </trkpt>
      <trkpt lat="48.60478" lon="2.07759">
        <ele>114</ele>
        <time>2020-05-31T13:31:29Z</time>
      </trkpt>
      <trkpt lat="48.60478" lon="2.07763">
        <ele>114</ele>
        <time>2020-05-31T13:31:31Z</time>
      </trkpt>
      <trkpt lat="48.60478" lon="2.07767">
        <ele>114</ele>
        <time>2020-05-31T13:31:33Z</time>
      </trkpt>
      <trkpt lat="48.60478" lon="2.07772">
        <ele>114</ele>
        <time>2020-05-31T13:31:35Z</time>
      </trkpt>
      <trkpt lat="48.60478" lon="2.07776">
        <ele>114</ele>
        <time>2020-05-31T13:31:37Z</time>
      </trkpt>
      <trkpt lat="48.60479" lon="2.07781">
        <ele>114</ele>
        <time>2020-05-31T13:31:39Z</time>
      </trkpt>
      <trkpt lat="48.6048" lon="2.07785">
        <ele>114</ele>
        <time>2020-05-31T13:31:41Z</time>
      </trkpt>
      <trkpt lat="48.6048" lon="2.0779">
        <ele>114</ele>
        <time>2020-05-31T13:31:43Z</time>
      </trkpt>
      <trkpt lat="48.60481" lon="2.07794">
        <ele>114</ele>
        <time>2020-05-31T13:31:45Z</time>
      </trkpt>
      <trkpt lat="48.60481" lon="2.07799">
        <ele>114</ele>
        <time>2020-05-31T13:31:47Z</time>
      </trkpt>
      <trkpt lat="48.60482" lon="2.07804">
        <ele>114</ele>
        <time>2020-05-31T13:31:49Z</time>
      </trkpt>
      <trkpt lat="48.60483" lon="2.07809">
        <ele>114</ele>
        <time>2020-05-31T13:31:51Z</time>
      </trkpt>
      <trkpt lat="48.60483" lon="2.07814">
        <ele>114</ele>
        <time>2020-05-31T13:31:53Z</time>
      </trkpt>
      <trkpt lat="48.60484" lon="2.07819">
        <ele>114</ele>
        <time>2020-05-31T13:31:55Z</time>
      </trkpt>
      <trkpt lat="48.60485" lon="2.07824">
        <ele>114</ele>
        <time>2020-05-31T13:31:57Z</time>
      </trkpt>
      <trkpt lat="48.60485" lon="2.07829">
        <ele>114</ele>
        <time>2020-05-31T13:31:59Z</time>
      </trkpt>
      <trkpt lat="48.60486" lon="2.07834">
        <ele>114</ele>
        <time>2020-05-31T13:32:01Z</time>
      </trkpt>
      <trkpt lat="48.60487" lon="2.07839">
        <ele>113</ele>
        <time>2020-05-31T13:32:03Z</time>
      </trkpt>
      <trkpt lat="48.60487" lon="2.07843">
        <ele>113</ele>
        <time>2020-05-31T13:32:05Z</time>
      </trkpt>
      <trkpt lat="48.60488" lon="2.07848">
        <ele>113</ele>
        <time>2020-05-31T13:32:07Z</time>
      </trkpt>
      <trkpt lat="48.60489" lon="2.07853">
        <ele>113</ele>
        <time>2020-05-31T13:32:09Z</time>
      </trkpt>
      <trkpt lat="48.6049" lon="2.07858">
        <ele>113</ele>
        <time>2020-05-31T13:32:11Z</time>
      </trkpt>
      <trkpt lat="48.6049" lon="2.07863">
        <ele>113</ele>
        <time>2020-05-31T13:32:13Z</time>
      </trkpt>
      <trkpt lat="48.60491" lon="2.07868">
        <ele>113</ele>
        <time>2020-05-31T13:32:15Z</time>
      </trkpt>
      <trkpt lat="48.60491" lon="2.07872">
        <ele>113</ele>
        <time>2020-05-31T13:32:17Z</time>
      </trkpt>
      <trkpt lat="48.60492" lon="2.07877">
        <ele>113</ele>
        <time>2020-05-31T13:32:19Z</time>
      </trkpt>
      <trkpt lat="48.60493" lon="2.07882">
        <ele>113</ele>
        <time>2020-05-31T13:32:21Z</time>
      </trkpt>
      <trkpt lat="48.60493" lon="2.07887">
        <ele>113</ele>
        <time>2020-05-31T13:32:23Z</time>
      </trkpt>
      <trkpt lat="48.60493" lon="2.07891">
        <ele>113</ele>
        <time>2020-05-31T13:32:25Z</time>
      </trkpt>
      <trkpt lat="48.60494" lon="2.07896">
        <ele>113</ele>
        <time>2020-05-31T13:32:27Z</time>
      </trkpt>
      <trkpt lat="48.60495" lon="2.07901">
        <ele>113</ele>
        <time>2020-05-31T13:32:29Z</time>
      </trkpt>
      <trkpt lat="48.60497" lon="2.07905">
        <ele>113</ele>
        <time>2020-05-31T13:32:31Z</time>
      </trkpt>
      <trkpt lat="48.60498" lon="2.0791">
        <ele>113</ele>
        <time>2020-05-31T13:32:33Z</time>
      </trkpt>
      <trkpt lat="48.60499" lon="2.07914">
        <ele>113</ele>
        <time>2020-05-31T13:32:35Z</time>
      </trkpt>
      <trkpt lat="48.605" lon="2.07919">
        <ele>113</ele>
        <time>2020-05-31T13:32:37Z</time>
      </trkpt>
      <trkpt lat="48.605" lon="2.07924">
        <ele>112</ele>
        <time>2020-05-31T13:32:39Z</time>
      </trkpt>
      <trkpt lat="48.60501" lon="2.07929">
        <ele>112</ele>
        <time>2020-05-31T13:32:41Z</time>
      </trkpt>
      <trkpt lat="48.60502" lon="2.07933">
        <ele>112</ele>
        <time>2020-05-31T13:32:43Z</time>
      </trkpt>
      <trkpt lat="48.60504" lon="2.07938">
        <ele>112</ele>
        <time>2020-05-31T13:32:45Z</time>
      </trkpt>
      <trkpt lat="48.60505" lon="2.07943">
        <ele>112</ele>
        <time>2020-05-31T13:32:47Z</time>
      </trkpt>
      <trkpt lat="48.60506" lon="2.07948">
        <ele>112</ele>
        <time>2020-05-31T13:32:49Z</time>
      </trkpt>
      <trkpt lat="48.60507" lon="2.07953">
        <ele>112</ele>
        <time>2020-05-31T13:32:51Z</time>
      </trkpt>
      <trkpt lat="48.60508" lon="2.07958">
        <ele>112</ele>
        <time>2020-05-31T13:32:53Z</time>
      </trkpt>
      <trkpt lat="48.60508" lon="2.07963">
        <ele>112</ele>
        <time>2020-05-31T13:32:55Z</time>
      </trkpt>
      <trkpt lat="48.6051" lon="2.07967">
        <ele>112</ele>
        <time>2020-05-31T13:32:57Z</time>
      </trkpt>
      <trkpt lat="48.60511" lon="2.07972">
        <ele>112</ele>
        <time>2020-05-31T13:32:59Z</time>
      </trkpt>
      <trkpt lat="48.60511" lon="2.07977">
        <ele>112</ele>
        <time>2020-05-31T13:33:01Z</time>
      </trkpt>
      <trkpt lat="48.60513" lon="2.07982">
        <ele>112</ele>
        <time>2020-05-31T13:33:03Z</time>
      </trkpt>
      <trkpt lat="48.60514" lon="2.07987">
        <ele>111</ele>
        <time>2020-05-31T13:33:05Z</time>
      </trkpt>
      <trkpt lat="48.60515" lon="2.07992">
        <ele>111</ele>
        <time>2020-05-31T13:33:07Z</time>
      </trkpt>
      <trkpt lat="48.60516" lon="2.07996">
        <ele>111</ele>
        <time>2020-05-31T13:33:09Z</time>
      </trkpt>
      <trkpt lat="48.60517" lon="2.08001">
        <ele>111</ele>
        <time>2020-05-31T13:33:11Z</time>
      </trkpt>
      <trkpt lat="48.60518" lon="2.08006">
        <ele>111</ele>
        <time>2020-05-31T13:33:13Z</time>
      </trkpt>
      <trkpt lat="48.60519" lon="2.08011">
        <ele>111</ele>
        <time>2020-05-31T13:33:15Z</time>
      </trkpt>
      <trkpt lat="48.6052" lon="2.08015">
        <ele>111</ele>
        <time>2020-05-31T13:33:17Z</time>
      </trkpt>
      <trkpt lat="48.60522" lon="2.0802">
        <ele>111</ele>
        <time>2020-05-31T13:33:19Z</time>
      </trkpt>
      <trkpt lat="48.60524" lon="2.08024">
        <ele>111</ele>
        <time>2020-05-31T13:33:21Z</time>
      </trkpt>
      <trkpt lat="48.60525" lon="2.08029">
        <ele>111</ele>
        <time>2020-05-31T13:33:23Z</time>
      </trkpt>
      <trkpt lat="48.60527" lon="2.08033">
        <ele>111</ele>
        <time>2020-05-31T13:33:25Z</time>
      </trkpt>
      <trkpt lat="48.60528" lon="2.08038">
        <ele>111</ele>
        <time>2020-05-31T13:33:27Z</time>
      </trkpt>
      <trkpt lat="48.6053" lon="2.08042">
        <ele>111</ele>
        <time>2020-05-31T13:33:29Z</time>
      </trkpt>
      <trkpt lat="48.60531" lon="2.08047">
        <ele>111</ele>
        <time>2020-05-31T13:33:31Z</time>
      </trkpt>
      <trkpt lat="48.60533" lon="2.08051">
        <ele>111</ele>
        <time>2020-05-31T13:33:33Z</time>
      </trkpt>
      <trkpt lat="48.60534" lon="2.08056">
        <ele>110</ele>
        <time>2020-05-31T13:33:35Z</time>
      </trkpt>
      <trkpt lat="48.60536" lon="2.08061">
        <ele>110</ele>
        <time>2020-05-31T13:33:37Z</time>
      </trkpt>
      <trkpt lat="48.60537" lon="2.08065">
        <ele>110</ele>
        <time>2020-05-31T13:33:39Z</time>
      </trkpt>
      <trkpt lat="48.60539" lon="2.0807">
        <ele>110</ele>
        <time>2020-05-31T13:33:41Z</time>
      </trkpt>
      <trkpt lat="48.6054" lon="2.08074">
        <ele>110</ele>
        <time>2020-05-31T13:33:43Z</time>
      </trkpt>
      <trkpt lat="48.60541" lon="2.08079">
        <ele>110</ele>
        <time>2020-05-31T13:33:45Z</time>
      </trkpt>
      <trkpt lat="48.60543" lon="2.08084">
        <ele>110</ele>
        <time>2020-05-31T13:33:47Z</time>
      </trkpt>
      <trkpt lat="48.60544" lon="2.08088">
        <ele>110</ele>
        <time>2020-05-31T13:33:49Z</time>
      </trkpt>
      <trkpt lat="48.60545" lon="2.08093">
        <ele>110</ele>
        <time>2020-05-31T13:33:51Z</time>
      </trkpt>
      <trkpt lat="48.60546" lon="2.08097">
        <ele>110</ele>
        <time>2020-05-31T13:33:53Z</time>
      </trkpt>
      <trkpt lat="48.60548" lon="2.08101">
        <ele>110</ele>
        <time>2020-05-31T13:33:55Z</time>
      </trkpt>
      <trkpt lat="48.60549" lon="2.08104">
        <ele>110</ele>
        <time>2020-05-31T13:33:57Z</time>
      </trkpt>
      <trkpt lat="48.6055" lon="2.08109">
        <ele>110</ele>
        <time>2020-05-31T13:33:59Z</time>
      </trkpt>
      <trkpt lat="48.6055" lon="2.08114">
        <ele>110</ele>
        <time>2020-05-31T13:34:01Z</time>
      </trkpt>
      <trkpt lat="48.6055" lon="2.08119">
        <ele>110</ele>
        <time>2020-05-31T13:34:03Z</time>
      </trkpt>
      <trkpt lat="48.60551" lon="2.08124">
        <ele>110</ele>
        <time>2020-05-31T13:34:05Z</time>
      </trkpt>
      <trkpt lat="48.60551" lon="2.08129">
        <ele>110</ele>
        <time>2020-05-31T13:34:07Z</time>
      </trkpt>
      <trkpt lat="48.60552" lon="2.08134">
        <ele>110</ele>
        <time>2020-05-31T13:34:09Z</time>
      </trkpt>
      <trkpt lat="48.60553" lon="2.08138">
        <ele>110</ele>
        <time>2020-05-31T13:34:11Z</time>
      </trkpt>
      <trkpt lat="48.60553" lon="2.08142">
        <ele>110</ele>
        <time>2020-05-31T13:34:13Z</time>
      </trkpt>
      <trkpt lat="48.60554" lon="2.08146">
        <ele>110</ele>
        <time>2020-05-31T13:34:15Z</time>
      </trkpt>
      <trkpt lat="48.60555" lon="2.08151">
        <ele>110</ele>
        <time>2020-05-31T13:34:17Z</time>
      </trkpt>
      <trkpt lat="48.60556" lon="2.08156">
        <ele>110</ele>
        <time>2020-05-31T13:34:19Z</time>
      </trkpt>
      <trkpt lat="48.60556" lon="2.0816">
        <ele>110</ele>
        <time>2020-05-31T13:34:21Z</time>
      </trkpt>
      <trkpt lat="48.60557" lon="2.08165">
        <ele>110</ele>
        <time>2020-05-31T13:34:23Z</time>
      </trkpt>
      <trkpt lat="48.60558" lon="2.08169">
        <ele>110</ele>
        <time>2020-05-31T13:34:25Z</time>
      </trkpt>
      <trkpt lat="48.60559" lon="2.08173">
        <ele>110</ele>
        <time>2020-05-31T13:34:27Z</time>
      </trkpt>
      <trkpt lat="48.6056" lon="2.08178">
        <ele>110</ele>
        <time>2020-05-31T13:34:29Z</time>
      </trkpt>
      <trkpt lat="48.60562" lon="2.08181">
        <ele>110</ele>
        <time>2020-05-31T13:34:31Z</time>
      </trkpt>
      <trkpt lat="48.60563" lon="2.08184">
        <ele>111</ele>
        <time>2020-05-31T13:34:36Z</time>
      </trkpt>
      <trkpt lat="48.60563" lon="2.08187">
        <ele>111</ele>
        <time>2020-05-31T13:34:51Z</time>
      </trkpt>
      <trkpt lat="48.60564" lon="2.0819">
        <ele>111</ele>
        <time>2020-05-31T13:35:02Z</time>
      </trkpt>
      <trkpt lat="48.60565" lon="2.08193">
        <ele>111</ele>
        <time>2020-05-31T13:35:04Z</time>
      </trkpt>
      <trkpt lat="48.60566" lon="2.08197">
        <ele>111</ele>
        <time>2020-05-31T13:35:06Z</time>
      </trkpt>
      <trkpt lat="48.60568" lon="2.08202">
        <ele>111</ele>
        <time>2020-05-31T13:35:08Z</time>
      </trkpt>
      <trkpt lat="48.60569" lon="2.08206">
        <ele>110</ele>
        <time>2020-05-31T13:35:10Z</time>
      </trkpt>
      <trkpt lat="48.6057" lon="2.08211">
        <ele>110</ele>
        <time>2020-05-31T13:35:12Z</time>
      </trkpt>
      <trkpt lat="48.60571" lon="2.08215">
        <ele>110</ele>
        <time>2020-05-31T13:35:14Z</time>
      </trkpt>
      <trkpt lat="48.60573" lon="2.08219">
        <ele>110</ele>
        <time>2020-05-31T13:35:16Z</time>
      </trkpt>
      <trkpt lat="48.60575" lon="2.08224">
        <ele>111</ele>
        <time>2020-05-31T13:35:18Z</time>
      </trkpt>
      <trkpt lat="48.60576" lon="2.08229">
        <ele>111</ele>
        <time>2020-05-31T13:35:20Z</time>
      </trkpt>
      <trkpt lat="48.60577" lon="2.08234">
        <ele>111</ele>
        <time>2020-05-31T13:35:22Z</time>
      </trkpt>
      <trkpt lat="48.60578" lon="2.08237">
        <ele>111</ele>
        <time>2020-05-31T13:35:23Z</time>
      </trkpt>
      <trkpt lat="48.60579" lon="2.08241">
        <ele>111</ele>
        <time>2020-05-31T13:35:25Z</time>
      </trkpt>
      <trkpt lat="48.60581" lon="2.08246">
        <ele>111</ele>
        <time>2020-05-31T13:35:27Z</time>
      </trkpt>
      <trkpt lat="48.60582" lon="2.0825">
        <ele>111</ele>
        <time>2020-05-31T13:35:29Z</time>
      </trkpt>
      <trkpt lat="48.60583" lon="2.08254">
        <ele>111</ele>
        <time>2020-05-31T13:35:31Z</time>
      </trkpt>
      <trkpt lat="48.60584" lon="2.08259">
        <ele>111</ele>
        <time>2020-05-31T13:35:33Z</time>
      </trkpt>
      <trkpt lat="48.60585" lon="2.08263">
        <ele>111</ele>
        <time>2020-05-31T13:35:35Z</time>
      </trkpt>
      <trkpt lat="48.60586" lon="2.08268">
        <ele>111</ele>
        <time>2020-05-31T13:35:37Z</time>
      </trkpt>
      <trkpt lat="48.60587" lon="2.08273">
        <ele>111</ele>
        <time>2020-05-31T13:35:39Z</time>
      </trkpt>
      <trkpt lat="48.60588" lon="2.08277">
        <ele>112</ele>
        <time>2020-05-31T13:35:41Z</time>
      </trkpt>
      <trkpt lat="48.60589" lon="2.08282">
        <ele>112</ele>
        <time>2020-05-31T13:35:43Z</time>
      </trkpt>
      <trkpt lat="48.60589" lon="2.08287">
        <ele>112</ele>
        <time>2020-05-31T13:35:45Z</time>
      </trkpt>
      <trkpt lat="48.60591" lon="2.08291">
        <ele>112</ele>
        <time>2020-05-31T13:35:47Z</time>
      </trkpt>
      <trkpt lat="48.60592" lon="2.08295">
        <ele>113</ele>
        <time>2020-05-31T13:35:49Z</time>
      </trkpt>
      <trkpt lat="48.60592" lon="2.083">
        <ele>113</ele>
        <time>2020-05-31T13:35:51Z</time>
      </trkpt>
      <trkpt lat="48.60593" lon="2.08305">
        <ele>113</ele>
        <time>2020-05-31T13:35:53Z</time>
      </trkpt>
      <trkpt lat="48.60595" lon="2.08309">
        <ele>113</ele>
        <time>2020-05-31T13:35:55Z</time>
      </trkpt>
      <trkpt lat="48.60596" lon="2.08314">
        <ele>114</ele>
        <time>2020-05-31T13:35:57Z</time>
      </trkpt>
      <trkpt lat="48.60597" lon="2.08318">
        <ele>114</ele>
        <time>2020-05-31T13:35:59Z</time>
      </trkpt>
      <trkpt lat="48.60597" lon="2.08323">
        <ele>114</ele>
        <time>2020-05-31T13:36:01Z</time>
      </trkpt>
      <trkpt lat="48.60598" lon="2.08328">
        <ele>114</ele>
        <time>2020-05-31T13:36:03Z</time>
      </trkpt>
      <trkpt lat="48.60599" lon="2.08332">
        <ele>114</ele>
        <time>2020-05-31T13:36:05Z</time>
      </trkpt>
      <trkpt lat="48.60599" lon="2.08335">
        <ele>114</ele>
        <time>2020-05-31T13:36:06Z</time>
      </trkpt>
      <trkpt lat="48.606" lon="2.08338">
        <ele>114</ele>
        <time>2020-05-31T13:36:07Z</time>
      </trkpt>
      <trkpt lat="48.606" lon="2.0834">
        <ele>114</ele>
        <time>2020-05-31T13:36:08Z</time>
      </trkpt>
      <trkpt lat="48.60602" lon="2.08345">
        <ele>114</ele>
        <time>2020-05-31T13:36:10Z</time>
      </trkpt>
      <trkpt lat="48.60603" lon="2.08349">
        <ele>115</ele>
        <time>2020-05-31T13:36:12Z</time>
      </trkpt>
      <trkpt lat="48.60605" lon="2.08354">
        <ele>115</ele>
        <time>2020-05-31T13:36:14Z</time>
      </trkpt>
      <trkpt lat="48.60606" lon="2.08356">
        <ele>115</ele>
        <time>2020-05-31T13:36:15Z</time>
      </trkpt>
      <trkpt lat="48.60607" lon="2.08361">
        <ele>115</ele>
        <time>2020-05-31T13:36:17Z</time>
      </trkpt>
      <trkpt lat="48.60608" lon="2.08366">
        <ele>115</ele>
        <time>2020-05-31T13:36:19Z</time>
      </trkpt>
      <trkpt lat="48.60608" lon="2.0837">
        <ele>116</ele>
        <time>2020-05-31T13:36:21Z</time>
      </trkpt>
      <trkpt lat="48.60609" lon="2.08373">
        <ele>116</ele>
        <time>2020-05-31T13:36:22Z</time>
      </trkpt>
      <trkpt lat="48.60609" lon="2.08378">
        <ele>116</ele>
        <time>2020-05-31T13:36:24Z</time>
      </trkpt>
      <trkpt lat="48.60611" lon="2.08382">
        <ele>116</ele>
        <time>2020-05-31T13:36:26Z</time>
      </trkpt>
      <trkpt lat="48.60612" lon="2.08387">
        <ele>116</ele>
        <time>2020-05-31T13:36:28Z</time>
      </trkpt>
      <trkpt lat="48.60613" lon="2.08391">
        <ele>116</ele>
        <time>2020-05-31T13:36:30Z</time>
      </trkpt>
      <trkpt lat="48.60615" lon="2.08396">
        <ele>116</ele>
        <time>2020-05-31T13:36:32Z</time>
      </trkpt>
      <trkpt lat="48.60615" lon="2.084">
        <ele>116</ele>
        <time>2020-05-31T13:36:34Z</time>
      </trkpt>
      <trkpt lat="48.60615" lon="2.08405">
        <ele>117</ele>
        <time>2020-05-31T13:36:36Z</time>
      </trkpt>
      <trkpt lat="48.60616" lon="2.0841">
        <ele>117</ele>
        <time>2020-05-31T13:36:38Z</time>
      </trkpt>
      <trkpt lat="48.60617" lon="2.08415">
        <ele>117</ele>
        <time>2020-05-31T13:36:40Z</time>
      </trkpt>
      <trkpt lat="48.60618" lon="2.0842">
        <ele>117</ele>
        <time>2020-05-31T13:36:42Z</time>
      </trkpt>
      <trkpt lat="48.60618" lon="2.08424">
        <ele>117</ele>
        <time>2020-05-31T13:36:44Z</time>
      </trkpt>
      <trkpt lat="48.60618" lon="2.08428">
        <ele>117</ele>
        <time>2020-05-31T13:36:46Z</time>
      </trkpt>
      <trkpt lat="48.60619" lon="2.08433">
        <ele>117</ele>
        <time>2020-05-31T13:36:48Z</time>
      </trkpt>
      <trkpt lat="48.6062" lon="2.08438">
        <ele>117</ele>
        <time>2020-05-31T13:36:50Z</time>
      </trkpt>
      <trkpt lat="48.60621" lon="2.08443">
        <ele>117</ele>
        <time>2020-05-31T13:36:52Z</time>
      </trkpt>
      <trkpt lat="48.60622" lon="2.08447">
        <ele>117</ele>
        <time>2020-05-31T13:36:54Z</time>
      </trkpt>
      <trkpt lat="48.60623" lon="2.08452">
        <ele>117</ele>
        <time>2020-05-31T13:36:56Z</time>
      </trkpt>
      <trkpt lat="48.60624" lon="2.08456">
        <ele>117</ele>
        <time>2020-05-31T13:36:58Z</time>
      </trkpt>
      <trkpt lat="48.60625" lon="2.0846">
        <ele>117</ele>
        <time>2020-05-31T13:37:00Z</time>
      </trkpt>
      <trkpt lat="48.60626" lon="2.08465">
        <ele>117</ele>
        <time>2020-05-31T13:37:02Z</time>
      </trkpt>
      <trkpt lat="48.60628" lon="2.08469">
        <ele>117</ele>
        <time>2020-05-31T13:37:04Z</time>
      </trkpt>
      <trkpt lat="48.60629" lon="2.08473">
        <ele>117</ele>
        <time>2020-05-31T13:37:06Z</time>
      </trkpt>
      <trkpt lat="48.60629" lon="2.08478">
        <ele>117</ele>
        <time>2020-05-31T13:37:08Z</time>
      </trkpt>
      <trkpt lat="48.60629" lon="2.08483">
        <ele>118</ele>
        <time>2020-05-31T13:37:10Z</time>
      </trkpt>
      <trkpt lat="48.6063" lon="2.08487">
        <ele>118</ele>
        <time>2020-05-31T13:37:12Z</time>
      </trkpt>
      <trkpt lat="48.60631" lon="2.0849">
        <ele>118</ele>
        <time>2020-05-31T13:37:14Z</time>
      </trkpt>
      <trkpt lat="48.60632" lon="2.08493">
        <ele>118</ele>
        <time>2020-05-31T13:37:16Z</time>
      </trkpt>
      <trkpt lat="48.60632" lon="2.08496">
        <ele>118</ele>
        <time>2020-05-31T13:37:18Z</time>
      </trkpt>
      <trkpt lat="48.60633" lon="2.085">
        <ele>118</ele>
        <time>2020-05-31T13:37:20Z</time>
      </trkpt>
      <trkpt lat="48.60633" lon="2.08504">
        <ele>118</ele>
        <time>2020-05-31T13:37:22Z</time>
      </trkpt>
      <trkpt lat="48.60635" lon="2.08508">
        <ele>118</ele>
        <time>2020-05-31T13:37:24Z</time>
      </trkpt>
      <trkpt lat="48.60636" lon="2.08512">
        <ele>118</ele>
        <time>2020-05-31T13:37:26Z</time>
      </trkpt>
      <trkpt lat="48.60637" lon="2.08517">
        <ele>119</ele>
        <time>2020-05-31T13:37:28Z</time>
      </trkpt>
      <trkpt lat="48.60638" lon="2.08521">
        <ele>119</ele>
        <time>2020-05-31T13:37:30Z</time>
      </trkpt>
      <trkpt lat="48.6064" lon="2.08526">
        <ele>119</ele>
        <time>2020-05-31T13:37:32Z</time>
      </trkpt>
      <trkpt lat="48.60641" lon="2.08531">
        <ele>119</ele>
        <time>2020-05-31T13:37:34Z</time>
      </trkpt>
      <trkpt lat="48.60642" lon="2.08535">
        <ele>119</ele>
        <time>2020-05-31T13:37:36Z</time>
      </trkpt>
      <trkpt lat="48.60644" lon="2.08539">
        <ele>120</ele>
        <time>2020-05-31T13:37:38Z</time>
      </trkpt>
      <trkpt lat="48.60646" lon="2.08543">
        <ele>120</ele>
        <time>2020-05-31T13:37:40Z</time>
      </trkpt>
      <trkpt lat="48.60648" lon="2.08547">
        <ele>120</ele>
        <time>2020-05-31T13:37:42Z</time>
      </trkpt>
      <trkpt lat="48.6065" lon="2.0855">
        <ele>120</ele>
        <time>2020-05-31T13:37:44Z</time>
      </trkpt>
      <trkpt lat="48.60652" lon="2.0855">
        <ele>120</ele>
        <time>2020-05-31T13:37:47Z</time>
      </trkpt>
      <trkpt lat="48.60654" lon="2.08551">
        <ele>120</ele>
        <time>2020-05-31T13:37:49Z</time>
      </trkpt>
      <trkpt lat="48.60657" lon="2.08551">
        <ele>120</ele>
        <time>2020-05-31T13:37:51Z</time>
      </trkpt>
      <trkpt lat="48.60661" lon="2.08551">
        <ele>120</ele>
        <time>2020-05-31T13:37:53Z</time>
      </trkpt>
      <trkpt lat="48.60664" lon="2.08551">
        <ele>120</ele>
        <time>2020-05-31T13:37:55Z</time>
      </trkpt>
      <trkpt lat="48.60667" lon="2.0855">
        <ele>121</ele>
        <time>2020-05-31T13:37:57Z</time>
      </trkpt>
      <trkpt lat="48.60669" lon="2.0855">
        <ele>121</ele>
        <time>2020-05-31T13:37:59Z</time>
      </trkpt>
      <trkpt lat="48.60671" lon="2.0855">
        <ele>121</ele>
        <time>2020-05-31T13:38:00Z</time>
      </trkpt>
      <trkpt lat="48.60674" lon="2.08551">
        <ele>121</ele>
        <time>2020-05-31T13:38:02Z</time>
      </trkpt>
      <trkpt lat="48.60676" lon="2.0855">
        <ele>121</ele>
        <time>2020-05-31T13:38:04Z</time>
      </trkpt>
      <trkpt lat="48.60678" lon="2.08549">
        <ele>122</ele>
        <time>2020-05-31T13:38:06Z</time>
      </trkpt>
      <trkpt lat="48.60686" lon="2.08544">
        <ele>123</ele>
        <time>2020-05-31T13:38:13Z</time>
      </trkpt>
      <trkpt lat="48.60689" lon="2.08543">
        <ele>123</ele>
        <time>2020-05-31T13:38:15Z</time>
      </trkpt>
      <trkpt lat="48.60692" lon="2.08542">
        <ele>123</ele>
        <time>2020-05-31T13:38:17Z</time>
      </trkpt>
      <trkpt lat="48.60694" lon="2.0854">
        <ele>123</ele>
        <time>2020-05-31T13:38:19Z</time>
      </trkpt>
      <trkpt lat="48.60697" lon="2.08539">
        <ele>124</ele>
        <time>2020-05-31T13:38:21Z</time>
      </trkpt>
      <trkpt lat="48.60701" lon="2.08539">
        <ele>125</ele>
        <time>2020-05-31T13:38:24Z</time>
      </trkpt>
      <trkpt lat="48.60709" lon="2.08537">
        <ele>125</ele>
        <time>2020-05-31T13:38:29Z</time>
      </trkpt>
      <trkpt lat="48.60715" lon="2.08536">
        <ele>126</ele>
        <time>2020-05-31T13:38:32Z</time>
      </trkpt>
      <trkpt lat="48.60721" lon="2.08535">
        <ele>126</ele>
        <time>2020-05-31T13:38:36Z</time>
      </trkpt>
      <trkpt lat="48.60723" lon="2.08535">
        <ele>126</ele>
        <time>2020-05-31T13:38:37Z</time>
      </trkpt>
      <trkpt lat="48.60725" lon="2.08535">
        <ele>127</ele>
        <time>2020-05-31T13:38:38Z</time>
      </trkpt>
      <trkpt lat="48.60728" lon="2.08535">
        <ele>127</ele>
        <time>2020-05-31T13:38:40Z</time>
      </trkpt>
      <trkpt lat="48.60731" lon="2.08533">
        <ele>127</ele>
        <time>2020-05-31T13:38:42Z</time>
      </trkpt>
      <trkpt lat="48.60733" lon="2.08533">
        <ele>127</ele>
        <time>2020-05-31T13:38:43Z</time>
      </trkpt>
      <trkpt lat="48.60736" lon="2.08532">
        <ele>127</ele>
        <time>2020-05-31T13:38:45Z</time>
      </trkpt>
      <trkpt lat="48.60738" lon="2.08532">
        <ele>127</ele>
        <time>2020-05-31T13:38:46Z</time>
      </trkpt>
      <trkpt lat="48.60741" lon="2.0853">
        <ele>127</ele>
        <time>2020-05-31T13:38:48Z</time>
      </trkpt>
      <trkpt lat="48.60744" lon="2.0853">
        <ele>128</ele>
        <time>2020-05-31T13:38:50Z</time>
      </trkpt>
      <trkpt lat="48.60748" lon="2.08528">
        <ele>128</ele>
        <time>2020-05-31T13:38:52Z</time>
      </trkpt>
      <trkpt lat="48.60749" lon="2.08525">
        <ele>128</ele>
        <time>2020-05-31T13:38:54Z</time>
      </trkpt>
      <trkpt lat="48.60753" lon="2.08524">
        <ele>129</ele>
        <time>2020-05-31T13:38:56Z</time>
      </trkpt>
      <trkpt lat="48.60755" lon="2.08524">
        <ele>129</ele>
        <time>2020-05-31T13:38:58Z</time>
      </trkpt>
      <trkpt lat="48.60759" lon="2.08523">
        <ele>129</ele>
        <time>2020-05-31T13:39:00Z</time>
      </trkpt>
      <trkpt lat="48.60761" lon="2.08524">
        <ele>129</ele>
        <time>2020-05-31T13:39:01Z</time>
      </trkpt>
      <trkpt lat="48.60763" lon="2.08525">
        <ele>130</ele>
        <time>2020-05-31T13:39:03Z</time>
      </trkpt>
      <trkpt lat="48.60766" lon="2.08526">
        <ele>130</ele>
        <time>2020-05-31T13:39:05Z</time>
      </trkpt>
      <trkpt lat="48.60768" lon="2.08527">
        <ele>130</ele>
        <time>2020-05-31T13:39:06Z</time>
      </trkpt>
      <trkpt lat="48.60771" lon="2.08528">
        <ele>130</ele>
        <time>2020-05-31T13:39:08Z</time>
      </trkpt>
      <trkpt lat="48.60773" lon="2.08528">
        <ele>130</ele>
        <time>2020-05-31T13:39:09Z</time>
      </trkpt>
      <trkpt lat="48.60775" lon="2.08528">
        <ele>130</ele>
        <time>2020-05-31T13:39:11Z</time>
      </trkpt>
      <trkpt lat="48.60778" lon="2.08528">
        <ele>130</ele>
        <time>2020-05-31T13:39:13Z</time>
      </trkpt>
      <trkpt lat="48.6078" lon="2.08527">
        <ele>131</ele>
        <time>2020-05-31T13:39:15Z</time>
      </trkpt>
      <trkpt lat="48.60783" lon="2.08525">
        <ele>131</ele>
        <time>2020-05-31T13:39:17Z</time>
      </trkpt>
      <trkpt lat="48.60786" lon="2.08525">
        <ele>131</ele>
        <time>2020-05-31T13:39:19Z</time>
      </trkpt>
      <trkpt lat="48.60789" lon="2.08524">
        <ele>131</ele>
        <time>2020-05-31T13:39:21Z</time>
      </trkpt>
      <trkpt lat="48.60792" lon="2.08523">
        <ele>131</ele>
        <time>2020-05-31T13:39:23Z</time>
      </trkpt>
      <trkpt lat="48.60795" lon="2.08523">
        <ele>131</ele>
        <time>2020-05-31T13:39:25Z</time>
      </trkpt>
      <trkpt lat="48.60797" lon="2.08523">
        <ele>131</ele>
        <time>2020-05-31T13:39:26Z</time>
      </trkpt>
      <trkpt lat="48.608" lon="2.08522">
        <ele>131</ele>
        <time>2020-05-31T13:39:28Z</time>
      </trkpt>
      <trkpt lat="48.60803" lon="2.08522">
        <ele>131</ele>
        <time>2020-05-31T13:39:30Z</time>
      </trkpt>
      <trkpt lat="48.60807" lon="2.08521">
        <ele>132</ele>
        <time>2020-05-31T13:39:32Z</time>
      </trkpt>
      <trkpt lat="48.60809" lon="2.0852">
        <ele>132</ele>
        <time>2020-05-31T13:39:33Z</time>
      </trkpt>
      <trkpt lat="48.60812" lon="2.0852">
        <ele>132</ele>
        <time>2020-05-31T13:39:35Z</time>
      </trkpt>
      <trkpt lat="48.60814" lon="2.08521">
        <ele>132</ele>
        <time>2020-05-31T13:39:36Z</time>
      </trkpt>
      <trkpt lat="48.60817" lon="2.08521">
        <ele>132</ele>
        <time>2020-05-31T13:39:38Z</time>
      </trkpt>
      <trkpt lat="48.60819" lon="2.08521">
        <ele>132</ele>
        <time>2020-05-31T13:39:39Z</time>
      </trkpt>
      <trkpt lat="48.60822" lon="2.08521">
        <ele>132</ele>
        <time>2020-05-31T13:39:41Z</time>
      </trkpt>
      <trkpt lat="48.60824" lon="2.08521">
        <ele>132</ele>
        <time>2020-05-31T13:39:42Z</time>
      </trkpt>
      <trkpt lat="48.60827" lon="2.08519">
        <ele>132</ele>
        <time>2020-05-31T13:39:44Z</time>
      </trkpt>
      <trkpt lat="48.60831" lon="2.08518">
        <ele>132</ele>
        <time>2020-05-31T13:39:46Z</time>
      </trkpt>
      <trkpt lat="48.60833" lon="2.08516">
        <ele>133</ele>
        <time>2020-05-31T13:39:48Z</time>
      </trkpt>
      <trkpt lat="48.60836" lon="2.08515">
        <ele>133</ele>
        <time>2020-05-31T13:39:50Z</time>
      </trkpt>
      <trkpt lat="48.60839" lon="2.08514">
        <ele>133</ele>
        <time>2020-05-31T13:39:52Z</time>
      </trkpt>
      <trkpt lat="48.60841" lon="2.08513">
        <ele>134</ele>
        <time>2020-05-31T13:39:54Z</time>
      </trkpt>
      <trkpt lat="48.60844" lon="2.08511">
        <ele>134</ele>
        <time>2020-05-31T13:39:56Z</time>
      </trkpt>
      <trkpt lat="48.60846" lon="2.08508">
        <ele>134</ele>
        <time>2020-05-31T13:39:58Z</time>
      </trkpt>
      <trkpt lat="48.6085" lon="2.08507">
        <ele>133</ele>
        <time>2020-05-31T13:40:00Z</time>
      </trkpt>
      <trkpt lat="48.60852" lon="2.08507">
        <ele>133</ele>
        <time>2020-05-31T13:40:01Z</time>
      </trkpt>
      <trkpt lat="48.60855" lon="2.08506">
        <ele>133</ele>
        <time>2020-05-31T13:40:03Z</time>
      </trkpt>
      <trkpt lat="48.60858" lon="2.08505">
        <ele>133</ele>
        <time>2020-05-31T13:40:05Z</time>
      </trkpt>
      <trkpt lat="48.60862" lon="2.08504">
        <ele>133</ele>
        <time>2020-05-31T13:40:07Z</time>
      </trkpt>
      <trkpt lat="48.60866" lon="2.08504">
        <ele>133</ele>
        <time>2020-05-31T13:40:09Z</time>
      </trkpt>
      <trkpt lat="48.60868" lon="2.08503">
        <ele>133</ele>
        <time>2020-05-31T13:40:11Z</time>
      </trkpt>
      <trkpt lat="48.60871" lon="2.08501">
        <ele>133</ele>
        <time>2020-05-31T13:40:13Z</time>
      </trkpt>
      <trkpt lat="48.60874" lon="2.08499">
        <ele>133</ele>
        <time>2020-05-31T13:40:15Z</time>
      </trkpt>
      <trkpt lat="48.60876" lon="2.08499">
        <ele>133</ele>
        <time>2020-05-31T13:40:17Z</time>
      </trkpt>
      <trkpt lat="48.6088" lon="2.08499">
        <ele>133</ele>
        <time>2020-05-31T13:40:19Z</time>
      </trkpt>
      <trkpt lat="48.60883" lon="2.08498">
        <ele>133</ele>
        <time>2020-05-31T13:40:21Z</time>
      </trkpt>
      <trkpt lat="48.60885" lon="2.08496">
        <ele>133</ele>
        <time>2020-05-31T13:40:23Z</time>
      </trkpt>
      <trkpt lat="48.60888" lon="2.08494">
        <ele>133</ele>
        <time>2020-05-31T13:40:25Z</time>
      </trkpt>
      <trkpt lat="48.60891" lon="2.08494">
        <ele>133</ele>
        <time>2020-05-31T13:40:27Z</time>
      </trkpt>
      <trkpt lat="48.60895" lon="2.08493">
        <ele>133</ele>
        <time>2020-05-31T13:40:29Z</time>
      </trkpt>
      <trkpt lat="48.60896" lon="2.08492">
        <ele>133</ele>
        <time>2020-05-31T13:40:30Z</time>
      </trkpt>
      <trkpt lat="48.60899" lon="2.08491">
        <ele>134</ele>
        <time>2020-05-31T13:40:32Z</time>
      </trkpt>
      <trkpt lat="48.60902" lon="2.08491">
        <ele>134</ele>
        <time>2020-05-31T13:40:34Z</time>
      </trkpt>
      <trkpt lat="48.60904" lon="2.08491">
        <ele>134</ele>
        <time>2020-05-31T13:40:35Z</time>
      </trkpt>
      <trkpt lat="48.60907" lon="2.0849">
        <ele>134</ele>
        <time>2020-05-31T13:40:37Z</time>
      </trkpt>
      <trkpt lat="48.60909" lon="2.08489">
        <ele>135</ele>
        <time>2020-05-31T13:40:38Z</time>
      </trkpt>
      <trkpt lat="48.60911" lon="2.08489">
        <ele>135</ele>
        <time>2020-05-31T13:40:39Z</time>
      </trkpt>
      <trkpt lat="48.60913" lon="2.08488">
        <ele>135</ele>
        <time>2020-05-31T13:40:41Z</time>
      </trkpt>
      <trkpt lat="48.60916" lon="2.08486">
        <ele>135</ele>
        <time>2020-05-31T13:40:43Z</time>
      </trkpt>
      <trkpt lat="48.60918" lon="2.08486">
        <ele>135</ele>
        <time>2020-05-31T13:40:44Z</time>
      </trkpt>
      <trkpt lat="48.6092" lon="2.08487">
        <ele>135</ele>
        <time>2020-05-31T13:40:45Z</time>
      </trkpt>
      <trkpt lat="48.60923" lon="2.08487">
        <ele>136</ele>
        <time>2020-05-31T13:40:47Z</time>
      </trkpt>
      <trkpt lat="48.60925" lon="2.08487">
        <ele>136</ele>
        <time>2020-05-31T13:40:49Z</time>
      </trkpt>
      <trkpt lat="48.60929" lon="2.08486">
        <ele>136</ele>
        <time>2020-05-31T13:40:51Z</time>
      </trkpt>
      <trkpt lat="48.60931" lon="2.08486">
        <ele>136</ele>
        <time>2020-05-31T13:40:52Z</time>
      </trkpt>
      <trkpt lat="48.60934" lon="2.08486">
        <ele>137</ele>
        <time>2020-05-31T13:40:54Z</time>
      </trkpt>
      <trkpt lat="48.60937" lon="2.08485">
        <ele>136</ele>
        <time>2020-05-31T13:40:56Z</time>
      </trkpt>
      <trkpt lat="48.60939" lon="2.08484">
        <ele>136</ele>
        <time>2020-05-31T13:40:58Z</time>
      </trkpt>
      <trkpt lat="48.60942" lon="2.08484">
        <ele>137</ele>
        <time>2020-05-31T13:41:00Z</time>
      </trkpt>
      <trkpt lat="48.60944" lon="2.08485">
        <ele>137</ele>
        <time>2020-05-31T13:41:01Z</time>
      </trkpt>
      <trkpt lat="48.60946" lon="2.08485">
        <ele>136</ele>
        <time>2020-05-31T13:41:02Z</time>
      </trkpt>
      <trkpt lat="48.60948" lon="2.08486">
        <ele>136</ele>
        <time>2020-05-31T13:41:03Z</time>
      </trkpt>
      <trkpt lat="48.6095" lon="2.08486">
        <ele>137</ele>
        <time>2020-05-31T13:41:04Z</time>
      </trkpt>
      <trkpt lat="48.60952" lon="2.08485">
        <ele>137</ele>
        <time>2020-05-31T13:41:06Z</time>
      </trkpt>
      <trkpt lat="48.60955" lon="2.08485">
        <ele>137</ele>
        <time>2020-05-31T13:41:08Z</time>
      </trkpt>
      <trkpt lat="48.60957" lon="2.08484">
        <ele>137</ele>
        <time>2020-05-31T13:41:09Z</time>
      </trkpt>
      <trkpt lat="48.60959" lon="2.08484">
        <ele>137</ele>
        <time>2020-05-31T13:41:10Z</time>
      </trkpt>
      <trkpt lat="48.60961" lon="2.08484">
        <ele>137</ele>
        <time>2020-05-31T13:41:11Z</time>
      </trkpt>
      <trkpt lat="48.60964" lon="2.08482">
        <ele>137</ele>
        <time>2020-05-31T13:41:13Z</time>
      </trkpt>
      <trkpt lat="48.60967" lon="2.0848">
        <ele>137</ele>
        <time>2020-05-31T13:41:15Z</time>
      </trkpt>
      <trkpt lat="48.60971" lon="2.0848">
        <ele>137</ele>
        <time>2020-05-31T13:41:17Z</time>
      </trkpt>
      <trkpt lat="48.60973" lon="2.08481">
        <ele>137</ele>
        <time>2020-05-31T13:41:18Z</time>
      </trkpt>
      <trkpt lat="48.60977" lon="2.08482">
        <ele>137</ele>
        <time>2020-05-31T13:41:20Z</time>
      </trkpt>
      <trkpt lat="48.60978" lon="2.08483">
        <ele>137</ele>
        <time>2020-05-31T13:41:21Z</time>
      </trkpt>
      <trkpt lat="48.60981" lon="2.08487">
        <ele>137</ele>
        <time>2020-05-31T13:41:23Z</time>
      </trkpt>
      <trkpt lat="48.60982" lon="2.08489">
        <ele>138</ele>
        <time>2020-05-31T13:41:24Z</time>
      </trkpt>
      <trkpt lat="48.60985" lon="2.08492">
        <ele>138</ele>
        <time>2020-05-31T13:41:26Z</time>
      </trkpt>
      <trkpt lat="48.60987" lon="2.08493">
        <ele>138</ele>
        <time>2020-05-31T13:41:27Z</time>
      </trkpt>
      <trkpt lat="48.60989" lon="2.08495">
        <ele>138</ele>
        <time>2020-05-31T13:41:29Z</time>
      </trkpt>
      <trkpt lat="48.60991" lon="2.08495">
        <ele>138</ele>
        <time>2020-05-31T13:41:30Z</time>
      </trkpt>
      <trkpt lat="48.60993" lon="2.08496">
        <ele>138</ele>
        <time>2020-05-31T13:41:31Z</time>
      </trkpt>
      <trkpt lat="48.60994" lon="2.08498">
        <ele>138</ele>
        <time>2020-05-31T13:41:33Z</time>
      </trkpt>
      <trkpt lat="48.60997" lon="2.08499">
        <ele>139</ele>
        <time>2020-05-31T13:41:35Z</time>
      </trkpt>
      <trkpt lat="48.61" lon="2.08499">
        <ele>139</ele>
        <time>2020-05-31T13:41:37Z</time>
      </trkpt>
      <trkpt lat="48.61003" lon="2.08499">
        <ele>139</ele>
        <time>2020-05-31T13:41:39Z</time>
      </trkpt>
      <trkpt lat="48.61006" lon="2.08499">
        <ele>139</ele>
        <time>2020-05-31T13:41:41Z</time>
      </trkpt>
      <trkpt lat="48.61009" lon="2.08498">
        <ele>139</ele>
        <time>2020-05-31T13:41:43Z</time>
      </trkpt>
      <trkpt lat="48.61011" lon="2.08499">
        <ele>139</ele>
        <time>2020-05-31T13:41:44Z</time>
      </trkpt>
      <trkpt lat="48.61014" lon="2.08499">
        <ele>140</ele>
        <time>2020-05-31T13:41:46Z</time>
      </trkpt>
      <trkpt lat="48.61016" lon="2.085">
        <ele>140</ele>
        <time>2020-05-31T13:41:48Z</time>
      </trkpt>
      <trkpt lat="48.61018" lon="2.08502">
        <ele>140</ele>
        <time>2020-05-31T13:41:49Z</time>
      </trkpt>
      <trkpt lat="48.6102" lon="2.08502">
        <ele>140</ele>
        <time>2020-05-31T13:41:50Z</time>
      </trkpt>
      <trkpt lat="48.61022" lon="2.08503">
        <ele>140</ele>
        <time>2020-05-31T13:41:51Z</time>
      </trkpt>
      <trkpt lat="48.61024" lon="2.08503">
        <ele>140</ele>
        <time>2020-05-31T13:41:52Z</time>
      </trkpt>
      <trkpt lat="48.61027" lon="2.08505">
        <ele>140</ele>
        <time>2020-05-31T13:41:54Z</time>
      </trkpt>
      <trkpt lat="48.6103" lon="2.08506">
        <ele>140</ele>
        <time>2020-05-31T13:41:56Z</time>
      </trkpt>
      <trkpt lat="48.61032" lon="2.08506">
        <ele>140</ele>
        <time>2020-05-31T13:41:58Z</time>
      </trkpt>
      <trkpt lat="48.61034" lon="2.08507">
        <ele>140</ele>
        <time>2020-05-31T13:42:00Z</time>
      </trkpt>
      <trkpt lat="48.61037" lon="2.08508">
        <ele>141</ele>
        <time>2020-05-31T13:42:02Z</time>
      </trkpt>
      <trkpt lat="48.6104" lon="2.08509">
        <ele>141</ele>
        <time>2020-05-31T13:42:04Z</time>
      </trkpt>
      <trkpt lat="48.61042" lon="2.0851">
        <ele>140</ele>
        <time>2020-05-31T13:42:05Z</time>
      </trkpt>
      <trkpt lat="48.61044" lon="2.08511">
        <ele>140</ele>
        <time>2020-05-31T13:42:06Z</time>
      </trkpt>
      <trkpt lat="48.61046" lon="2.08511">
        <ele>141</ele>
        <time>2020-05-31T13:42:07Z</time>
      </trkpt>
      <trkpt lat="48.61049" lon="2.08513">
        <ele>141</ele>
        <time>2020-05-31T13:42:09Z</time>
      </trkpt>
      <trkpt lat="48.61051" lon="2.08514">
        <ele>141</ele>
        <time>2020-05-31T13:42:10Z</time>
      </trkpt>
      <trkpt lat="48.61054" lon="2.08515">
        <ele>141</ele>
        <time>2020-05-31T13:42:12Z</time>
      </trkpt>
      <trkpt lat="48.61056" lon="2.08516">
        <ele>141</ele>
        <time>2020-05-31T13:42:14Z</time>
      </trkpt>
      <trkpt lat="48.61059" lon="2.08516">
        <ele>141</ele>
        <time>2020-05-31T13:42:16Z</time>
      </trkpt>
      <trkpt lat="48.61061" lon="2.08516">
        <ele>142</ele>
        <time>2020-05-31T13:42:18Z</time>
      </trkpt>
      <trkpt lat="48.61063" lon="2.08516">
        <ele>142</ele>
        <time>2020-05-31T13:42:21Z</time>
      </trkpt>
      <trkpt lat="48.61065" lon="2.08515">
        <ele>142</ele>
        <time>2020-05-31T13:42:23Z</time>
      </trkpt>
      <trkpt lat="48.61068" lon="2.08515">
        <ele>142</ele>
        <time>2020-05-31T13:42:25Z</time>
      </trkpt>
      <trkpt lat="48.6107" lon="2.08515">
        <ele>142</ele>
        <time>2020-05-31T13:42:27Z</time>
      </trkpt>
      <trkpt lat="48.61073" lon="2.08519">
        <ele>142</ele>
        <time>2020-05-31T13:42:29Z</time>
      </trkpt>
      <trkpt lat="48.61076" lon="2.0852">
        <ele>142</ele>
        <time>2020-05-31T13:42:31Z</time>
      </trkpt>
      <trkpt lat="48.61078" lon="2.08521">
        <ele>142</ele>
        <time>2020-05-31T13:42:32Z</time>
      </trkpt>
      <trkpt lat="48.6108" lon="2.08522">
        <ele>142</ele>
        <time>2020-05-31T13:42:34Z</time>
      </trkpt>
      <trkpt lat="48.61083" lon="2.08523">
        <ele>142</ele>
        <time>2020-05-31T13:42:36Z</time>
      </trkpt>
      <trkpt lat="48.61086" lon="2.08522">
        <ele>143</ele>
        <time>2020-05-31T13:42:38Z</time>
      </trkpt>
      <trkpt lat="48.61089" lon="2.08521">
        <ele>143</ele>
        <time>2020-05-31T13:42:40Z</time>
      </trkpt>
      <trkpt lat="48.61091" lon="2.08519">
        <ele>143</ele>
        <time>2020-05-31T13:42:42Z</time>
      </trkpt>
      <trkpt lat="48.61094" lon="2.0852">
        <ele>143</ele>
        <time>2020-05-31T13:42:44Z</time>
      </trkpt>
      <trkpt lat="48.61097" lon="2.0852">
        <ele>143</ele>
        <time>2020-05-31T13:42:46Z</time>
      </trkpt>
      <trkpt lat="48.61099" lon="2.08519">
        <ele>143</ele>
        <time>2020-05-31T13:42:48Z</time>
      </trkpt>
      <trkpt lat="48.61102" lon="2.08518">
        <ele>144</ele>
        <time>2020-05-31T13:42:50Z</time>
      </trkpt>
      <trkpt lat="48.61105" lon="2.08519">
        <ele>144</ele>
        <time>2020-05-31T13:42:52Z</time>
      </trkpt>
      <trkpt lat="48.61107" lon="2.0852">
        <ele>144</ele>
        <time>2020-05-31T13:42:53Z</time>
      </trkpt>
      <trkpt lat="48.61109" lon="2.08521">
        <ele>144</ele>
        <time>2020-05-31T13:42:54Z</time>
      </trkpt>
      <trkpt lat="48.61111" lon="2.08522">
        <ele>144</ele>
        <time>2020-05-31T13:42:55Z</time>
      </trkpt>
      <trkpt lat="48.61113" lon="2.08523">
        <ele>144</ele>
        <time>2020-05-31T13:42:56Z</time>
      </trkpt>
      <trkpt lat="48.61115" lon="2.08523">
        <ele>144</ele>
        <time>2020-05-31T13:42:57Z</time>
      </trkpt>
      <trkpt lat="48.61119" lon="2.08526">
        <ele>145</ele>
        <time>2020-05-31T13:42:59Z</time>
      </trkpt>
      <trkpt lat="48.61121" lon="2.08527">
        <ele>145</ele>
        <time>2020-05-31T13:43:00Z</time>
      </trkpt>
      <trkpt lat="48.61123" lon="2.08527">
        <ele>145</ele>
        <time>2020-05-31T13:43:01Z</time>
      </trkpt>
      <trkpt lat="48.61125" lon="2.08528">
        <ele>145</ele>
        <time>2020-05-31T13:43:02Z</time>
      </trkpt>
      <trkpt lat="48.61128" lon="2.08529">
        <ele>146</ele>
        <time>2020-05-31T13:43:04Z</time>
      </trkpt>
      <trkpt lat="48.61131" lon="2.0853">
        <ele>146</ele>
        <time>2020-05-31T13:43:05Z</time>
      </trkpt>
      <trkpt lat="48.61133" lon="2.08531">
        <ele>146</ele>
        <time>2020-05-31T13:43:07Z</time>
      </trkpt>
      <trkpt lat="48.61137" lon="2.08533">
        <ele>146</ele>
        <time>2020-05-31T13:43:09Z</time>
      </trkpt>
      <trkpt lat="48.61138" lon="2.08535">
        <ele>146</ele>
        <time>2020-05-31T13:43:10Z</time>
      </trkpt>
      <trkpt lat="48.61141" lon="2.08536">
        <ele>146</ele>
        <time>2020-05-31T13:43:12Z</time>
      </trkpt>
      <trkpt lat="48.61143" lon="2.08538">
        <ele>147</ele>
        <time>2020-05-31T13:43:14Z</time>
      </trkpt>
      <trkpt lat="48.61145" lon="2.08538">
        <ele>147</ele>
        <time>2020-05-31T13:43:16Z</time>
      </trkpt>
      <trkpt lat="48.61147" lon="2.08538">
        <ele>147</ele>
        <time>2020-05-31T13:43:18Z</time>
      </trkpt>
      <trkpt lat="48.61149" lon="2.08539">
        <ele>147</ele>
        <time>2020-05-31T13:43:21Z</time>
      </trkpt>
      <trkpt lat="48.61151" lon="2.08539">
        <ele>147</ele>
        <time>2020-05-31T13:43:23Z</time>
      </trkpt>
      <trkpt lat="48.6116" lon="2.08541">
        <ele>147</ele>
        <time>2020-05-31T13:43:29Z</time>
      </trkpt>
      <trkpt lat="48.61165" lon="2.08548">
        <ele>147</ele>
        <time>2020-05-31T13:43:34Z</time>
      </trkpt>
      <trkpt lat="48.61167" lon="2.0855">
        <ele>147</ele>
        <time>2020-05-31T13:43:36Z</time>
      </trkpt>
      <trkpt lat="48.61177" lon="2.08558">
        <ele>147</ele>
        <time>2020-05-31T13:43:41Z</time>
      </trkpt>
      <trkpt lat="48.6118" lon="2.08558">
        <ele>148</ele>
        <time>2020-05-31T13:43:43Z</time>
      </trkpt>
      <trkpt lat="48.61182" lon="2.08557">
        <ele>148</ele>
        <time>2020-05-31T13:43:45Z</time>
      </trkpt>
      <trkpt lat="48.61186" lon="2.08558">
        <ele>148</ele>
        <time>2020-05-31T13:43:47Z</time>
      </trkpt>
      <trkpt lat="48.61188" lon="2.08558">
        <ele>148</ele>
        <time>2020-05-31T13:43:48Z</time>
      </trkpt>
      <trkpt lat="48.6119" lon="2.08558">
        <ele>148</ele>
        <time>2020-05-31T13:43:49Z</time>
      </trkpt>
      <trkpt lat="48.61192" lon="2.08558">
        <ele>148</ele>
        <time>2020-05-31T13:43:51Z</time>
      </trkpt>
      <trkpt lat="48.61195" lon="2.08558">
        <ele>148</ele>
        <time>2020-05-31T13:43:53Z</time>
      </trkpt>
      <trkpt lat="48.61197" lon="2.08557">
        <ele>148</ele>
        <time>2020-05-31T13:43:55Z</time>
      </trkpt>
      <trkpt lat="48.61199" lon="2.08555">
        <ele>148</ele>
        <time>2020-05-31T13:43:57Z</time>
      </trkpt>
      <trkpt lat="48.61202" lon="2.08553">
        <ele>148</ele>
        <time>2020-05-31T13:43:59Z</time>
      </trkpt>
      <trkpt lat="48.61204" lon="2.0855">
        <ele>149</ele>
        <time>2020-05-31T13:44:01Z</time>
      </trkpt>
      <trkpt lat="48.61206" lon="2.0855">
        <ele>149</ele>
        <time>2020-05-31T13:44:02Z</time>
      </trkpt>
      <trkpt lat="48.61209" lon="2.08551">
        <ele>148</ele>
        <time>2020-05-31T13:44:04Z</time>
      </trkpt>
      <trkpt lat="48.61212" lon="2.08549">
        <ele>148</ele>
        <time>2020-05-31T13:44:06Z</time>
      </trkpt>
      <trkpt lat="48.61214" lon="2.08547">
        <ele>149</ele>
        <time>2020-05-31T13:44:08Z</time>
      </trkpt>
      <trkpt lat="48.61217" lon="2.08545">
        <ele>148</ele>
        <time>2020-05-31T13:44:10Z</time>
      </trkpt>
      <trkpt lat="48.61219" lon="2.08545">
        <ele>148</ele>
        <time>2020-05-31T13:44:11Z</time>
      </trkpt>
      <trkpt lat="48.61221" lon="2.08544">
        <ele>148</ele>
        <time>2020-05-31T13:44:12Z</time>
      </trkpt>
      <trkpt lat="48.61224" lon="2.08542">
        <ele>149</ele>
        <time>2020-05-31T13:44:14Z</time>
      </trkpt>
      <trkpt lat="48.61227" lon="2.08541">
        <ele>149</ele>
        <time>2020-05-31T13:44:16Z</time>
      </trkpt>
      <trkpt lat="48.61229" lon="2.08541">
        <ele>149</ele>
        <time>2020-05-31T13:44:17Z</time>
      </trkpt>
      <trkpt lat="48.61232" lon="2.0854">
        <ele>149</ele>
        <time>2020-05-31T13:44:19Z</time>
      </trkpt>
      <trkpt lat="48.61235" lon="2.08542">
        <ele>149</ele>
        <time>2020-05-31T13:44:21Z</time>
      </trkpt>
      <trkpt lat="48.61237" lon="2.08543">
        <ele>149</ele>
        <time>2020-05-31T13:44:22Z</time>
      </trkpt>
      <trkpt lat="48.61241" lon="2.08545">
        <ele>149</ele>
        <time>2020-05-31T13:44:23Z</time>
      </trkpt>
      <trkpt lat="48.61243" lon="2.08546">
        <ele>149</ele>
        <time>2020-05-31T13:44:24Z</time>
      </trkpt>
      <trkpt lat="48.61245" lon="2.08548">
        <ele>149</ele>
        <time>2020-05-31T13:44:25Z</time>
      </trkpt>
      <trkpt lat="48.61246" lon="2.08549">
        <ele>149</ele>
        <time>2020-05-31T13:44:26Z</time>
      </trkpt>
      <trkpt lat="48.61248" lon="2.0855">
        <ele>149</ele>
        <time>2020-05-31T13:44:27Z</time>
      </trkpt>
      <trkpt lat="48.6125" lon="2.08551">
        <ele>149</ele>
        <time>2020-05-31T13:44:28Z</time>
      </trkpt>
      <trkpt lat="48.61252" lon="2.08552">
        <ele>149</ele>
        <time>2020-05-31T13:44:29Z</time>
      </trkpt>
      <trkpt lat="48.61254" lon="2.08554">
        <ele>149</ele>
        <time>2020-05-31T13:44:30Z</time>
      </trkpt>
      <trkpt lat="48.61256" lon="2.08555">
        <ele>149</ele>
        <time>2020-05-31T13:44:31Z</time>
      </trkpt>
      <trkpt lat="48.61258" lon="2.08556">
        <ele>149</ele>
        <time>2020-05-31T13:44:32Z</time>
      </trkpt>
      <trkpt lat="48.6126" lon="2.08557">
        <ele>149</ele>
        <time>2020-05-31T13:44:33Z</time>
      </trkpt>
      <trkpt lat="48.61262" lon="2.08558">
        <ele>149</ele>
        <time>2020-05-31T13:44:34Z</time>
      </trkpt>
      <trkpt lat="48.61264" lon="2.08559">
        <ele>149</ele>
        <time>2020-05-31T13:44:35Z</time>
      </trkpt>
      <trkpt lat="48.61266" lon="2.0856">
        <ele>150</ele>
        <time>2020-05-31T13:44:36Z</time>
      </trkpt>
      <trkpt lat="48.61269" lon="2.08562">
        <ele>149</ele>
        <time>2020-05-31T13:44:38Z</time>
      </trkpt>
      <trkpt lat="48.61272" lon="2.08563">
        <ele>150</ele>
        <time>2020-05-31T13:44:40Z</time>
      </trkpt>
      <trkpt lat="48.61274" lon="2.08564">
        <ele>150</ele>
        <time>2020-05-31T13:44:42Z</time>
      </trkpt>
      <trkpt lat="48.61277" lon="2.08566">
        <ele>150</ele>
        <time>2020-05-31T13:44:44Z</time>
      </trkpt>
      <trkpt lat="48.61279" lon="2.08568">
        <ele>150</ele>
        <time>2020-05-31T13:44:46Z</time>
      </trkpt>
      <trkpt lat="48.61281" lon="2.08569">
        <ele>150</ele>
        <time>2020-05-31T13:44:47Z</time>
      </trkpt>
      <trkpt lat="48.61284" lon="2.0857">
        <ele>150</ele>
        <time>2020-05-31T13:44:49Z</time>
      </trkpt>
      <trkpt lat="48.61286" lon="2.08572">
        <ele>150</ele>
        <time>2020-05-31T13:44:51Z</time>
      </trkpt>
      <trkpt lat="48.61289" lon="2.08573">
        <ele>151</ele>
        <time>2020-05-31T13:44:53Z</time>
      </trkpt>
      <trkpt lat="48.61292" lon="2.08575">
        <ele>150</ele>
        <time>2020-05-31T13:44:55Z</time>
      </trkpt>
      <trkpt lat="48.61295" lon="2.08577">
        <ele>151</ele>
        <time>2020-05-31T13:44:57Z</time>
      </trkpt>
      <trkpt lat="48.61297" lon="2.08577">
        <ele>151</ele>
        <time>2020-05-31T13:44:58Z</time>
      </trkpt>
      <trkpt lat="48.613" lon="2.08579">
        <ele>151</ele>
        <time>2020-05-31T13:45:00Z</time>
      </trkpt>
      <trkpt lat="48.61303" lon="2.08581">
        <ele>151</ele>
        <time>2020-05-31T13:45:02Z</time>
      </trkpt>
      <trkpt lat="48.61306" lon="2.08583">
        <ele>151</ele>
        <time>2020-05-31T13:45:04Z</time>
      </trkpt>
      <trkpt lat="48.61308" lon="2.08584">
        <ele>151</ele>
        <time>2020-05-31T13:45:05Z</time>
      </trkpt>
      <trkpt lat="48.6131" lon="2.08586">
        <ele>151</ele>
        <time>2020-05-31T13:45:06Z</time>
      </trkpt>
      <trkpt lat="48.61312" lon="2.08587">
        <ele>151</ele>
        <time>2020-05-31T13:45:07Z</time>
      </trkpt>
      <trkpt lat="48.61314" lon="2.08588">
        <ele>151</ele>
        <time>2020-05-31T13:45:08Z</time>
      </trkpt>
      <trkpt lat="48.61316" lon="2.0859">
        <ele>151</ele>
        <time>2020-05-31T13:45:09Z</time>
      </trkpt>
      <trkpt lat="48.61318" lon="2.08591">
        <ele>151</ele>
        <time>2020-05-31T13:45:10Z</time>
      </trkpt>
      <trkpt lat="48.6132" lon="2.08594">
        <ele>151</ele>
        <time>2020-05-31T13:45:12Z</time>
      </trkpt>
      <trkpt lat="48.61322" lon="2.08597">
        <ele>152</ele>
        <time>2020-05-31T13:45:14Z</time>
      </trkpt>
      <trkpt lat="48.61325" lon="2.086">
        <ele>152</ele>
        <time>2020-05-31T13:45:16Z</time>
      </trkpt>
      <trkpt lat="48.61328" lon="2.08602">
        <ele>152</ele>
        <time>2020-05-31T13:45:18Z</time>
      </trkpt>
      <trkpt lat="48.6133" lon="2.08604">
        <ele>152</ele>
        <time>2020-05-31T13:45:20Z</time>
      </trkpt>
      <trkpt lat="48.61333" lon="2.08605">
        <ele>152</ele>
        <time>2020-05-31T13:45:22Z</time>
      </trkpt>
      <trkpt lat="48.61335" lon="2.08607">
        <ele>152</ele>
        <time>2020-05-31T13:45:24Z</time>
      </trkpt>
      <trkpt lat="48.61338" lon="2.08609">
        <ele>152</ele>
        <time>2020-05-31T13:45:26Z</time>
      </trkpt>
      <trkpt lat="48.6134" lon="2.0861">
        <ele>152</ele>
        <time>2020-05-31T13:45:28Z</time>
      </trkpt>
      <trkpt lat="48.61343" lon="2.0861">
        <ele>152</ele>
        <time>2020-05-31T13:45:30Z</time>
      </trkpt>
      <trkpt lat="48.61346" lon="2.08611">
        <ele>153</ele>
        <time>2020-05-31T13:45:32Z</time>
      </trkpt>
      <trkpt lat="48.61348" lon="2.08611">
        <ele>153</ele>
        <time>2020-05-31T13:45:33Z</time>
      </trkpt>
      <trkpt lat="48.6135" lon="2.08612">
        <ele>152</ele>
        <time>2020-05-31T13:45:35Z</time>
      </trkpt>
      <trkpt lat="48.61352" lon="2.08612">
        <ele>152</ele>
        <time>2020-05-31T13:45:37Z</time>
      </trkpt>
      <trkpt lat="48.61355" lon="2.08612">
        <ele>152</ele>
        <time>2020-05-31T13:45:39Z</time>
      </trkpt>
      <trkpt lat="48.61358" lon="2.08613">
        <ele>152</ele>
        <time>2020-05-31T13:45:41Z</time>
      </trkpt>
      <trkpt lat="48.6136" lon="2.08614">
        <ele>152</ele>
        <time>2020-05-31T13:45:42Z</time>
      </trkpt>
      <trkpt lat="48.61363" lon="2.08615">
        <ele>152</ele>
        <time>2020-05-31T13:45:44Z</time>
      </trkpt>
      <trkpt lat="48.61365" lon="2.08616">
        <ele>153</ele>
        <time>2020-05-31T13:45:46Z</time>
      </trkpt>
      <trkpt lat="48.61367" lon="2.08617">
        <ele>153</ele>
        <time>2020-05-31T13:45:47Z</time>
      </trkpt>
      <trkpt lat="48.6137" lon="2.08619">
        <ele>153</ele>
        <time>2020-05-31T13:45:49Z</time>
      </trkpt>
      <trkpt lat="48.61373" lon="2.0862">
        <ele>153</ele>
        <time>2020-05-31T13:45:51Z</time>
      </trkpt>
      <trkpt lat="48.61376" lon="2.08621">
        <ele>153</ele>
        <time>2020-05-31T13:45:53Z</time>
      </trkpt>
      <trkpt lat="48.61379" lon="2.08623">
        <ele>153</ele>
        <time>2020-05-31T13:45:55Z</time>
      </trkpt>
      <trkpt lat="48.61382" lon="2.08624">
        <ele>153</ele>
        <time>2020-05-31T13:45:57Z</time>
      </trkpt>
      <trkpt lat="48.61384" lon="2.08624">
        <ele>153</ele>
        <time>2020-05-31T13:45:59Z</time>
      </trkpt>
      <trkpt lat="48.61386" lon="2.08624">
        <ele>152</ele>
        <time>2020-05-31T13:46:01Z</time>
      </trkpt>
      <trkpt lat="48.61388" lon="2.08625">
        <ele>152</ele>
        <time>2020-05-31T13:46:03Z</time>
      </trkpt>
      <trkpt lat="48.6139" lon="2.08626">
        <ele>152</ele>
        <time>2020-05-31T13:46:06Z</time>
      </trkpt>
      <trkpt lat="48.61392" lon="2.08627">
        <ele>151</ele>
        <time>2020-05-31T13:46:34Z</time>
      </trkpt>
      <trkpt lat="48.61394" lon="2.08627">
        <ele>151</ele>
        <time>2020-05-31T13:46:37Z</time>
      </trkpt>
      <trkpt lat="48.61396" lon="2.08626">
        <ele>152</ele>
        <time>2020-05-31T13:46:39Z</time>
      </trkpt>
      <trkpt lat="48.61399" lon="2.08626">
        <ele>152</ele>
        <time>2020-05-31T13:46:41Z</time>
      </trkpt>
      <trkpt lat="48.61401" lon="2.08627">
        <ele>152</ele>
        <time>2020-05-31T13:46:43Z</time>
      </trkpt>
      <trkpt lat="48.61403" lon="2.08627">
        <ele>152</ele>
        <time>2020-05-31T13:46:45Z</time>
      </trkpt>
      <trkpt lat="48.61406" lon="2.08629">
        <ele>152</ele>
        <time>2020-05-31T13:46:47Z</time>
      </trkpt>
      <trkpt lat="48.61408" lon="2.08631">
        <ele>152</ele>
        <time>2020-05-31T13:46:49Z</time>
      </trkpt>
      <trkpt lat="48.6141" lon="2.08633">
        <ele>151</ele>
        <time>2020-05-31T13:46:51Z</time>
      </trkpt>
      <trkpt lat="48.61412" lon="2.08637">
        <ele>151</ele>
        <time>2020-05-31T13:46:53Z</time>
      </trkpt>
      <trkpt lat="48.61412" lon="2.0864">
        <ele>151</ele>
        <time>2020-05-31T13:46:55Z</time>
      </trkpt>
      <trkpt lat="48.61412" lon="2.08645">
        <ele>151</ele>
        <time>2020-05-31T13:46:57Z</time>
      </trkpt>
      <trkpt lat="48.61411" lon="2.08649">
        <ele>150</ele>
        <time>2020-05-31T13:46:59Z</time>
      </trkpt>
      <trkpt lat="48.6141" lon="2.08653">
        <ele>150</ele>
        <time>2020-05-31T13:47:01Z</time>
      </trkpt>
      <trkpt lat="48.61408" lon="2.08658">
        <ele>150</ele>
        <time>2020-05-31T13:47:03Z</time>
      </trkpt>
      <trkpt lat="48.61407" lon="2.0866">
        <ele>150</ele>
        <time>2020-05-31T13:47:04Z</time>
      </trkpt>
      <trkpt lat="48.61406" lon="2.08663">
        <ele>150</ele>
        <time>2020-05-31T13:47:05Z</time>
      </trkpt>
      <trkpt lat="48.61405" lon="2.08665">
        <ele>150</ele>
        <time>2020-05-31T13:47:06Z</time>
      </trkpt>
      <trkpt lat="48.61404" lon="2.08668">
        <ele>149</ele>
        <time>2020-05-31T13:47:07Z</time>
      </trkpt>
      <trkpt lat="48.61402" lon="2.08672">
        <ele>149</ele>
        <time>2020-05-31T13:47:09Z</time>
      </trkpt>
      <trkpt lat="48.614" lon="2.08676">
        <ele>149</ele>
        <time>2020-05-31T13:47:11Z</time>
      </trkpt>
      <trkpt lat="48.61398" lon="2.0868">
        <ele>149</ele>
        <time>2020-05-31T13:47:13Z</time>
      </trkpt>
      <trkpt lat="48.61397" lon="2.08685">
        <ele>148</ele>
        <time>2020-05-31T13:47:15Z</time>
      </trkpt>
      <trkpt lat="48.61395" lon="2.08689">
        <ele>148</ele>
        <time>2020-05-31T13:47:17Z</time>
      </trkpt>
      <trkpt lat="48.61393" lon="2.08693">
        <ele>148</ele>
        <time>2020-05-31T13:47:19Z</time>
      </trkpt>
      <trkpt lat="48.61391" lon="2.08697">
        <ele>148</ele>
        <time>2020-05-31T13:47:21Z</time>
      </trkpt>
      <trkpt lat="48.61388" lon="2.08701">
        <ele>147</ele>
        <time>2020-05-31T13:47:23Z</time>
      </trkpt>
      <trkpt lat="48.61387" lon="2.08705">
        <ele>147</ele>
        <time>2020-05-31T13:47:25Z</time>
      </trkpt>
      <trkpt lat="48.61385" lon="2.08709">
        <ele>147</ele>
        <time>2020-05-31T13:47:27Z</time>
      </trkpt>
      <trkpt lat="48.61383" lon="2.08713">
        <ele>147</ele>
        <time>2020-05-31T13:47:29Z</time>
      </trkpt>
      <trkpt lat="48.61381" lon="2.08718">
        <ele>146</ele>
        <time>2020-05-31T13:47:31Z</time>
      </trkpt>
      <trkpt lat="48.61379" lon="2.08722">
        <ele>146</ele>
        <time>2020-05-31T13:47:33Z</time>
      </trkpt>
      <trkpt lat="48.61378" lon="2.08724">
        <ele>146</ele>
        <time>2020-05-31T13:47:34Z</time>
      </trkpt>
      <trkpt lat="48.61377" lon="2.08727">
        <ele>146</ele>
        <time>2020-05-31T13:47:35Z</time>
      </trkpt>
      <trkpt lat="48.61376" lon="2.08731">
        <ele>146</ele>
        <time>2020-05-31T13:47:37Z</time>
      </trkpt>
      <trkpt lat="48.61375" lon="2.08735">
        <ele>146</ele>
        <time>2020-05-31T13:47:39Z</time>
      </trkpt>
      <trkpt lat="48.61374" lon="2.08738">
        <ele>146</ele>
        <time>2020-05-31T13:47:40Z</time>
      </trkpt>
      <trkpt lat="48.61373" lon="2.08742">
        <ele>146</ele>
        <time>2020-05-31T13:47:42Z</time>
      </trkpt>
      <trkpt lat="48.61372" lon="2.08746">
        <ele>145</ele>
        <time>2020-05-31T13:47:44Z</time>
      </trkpt>
      <trkpt lat="48.61371" lon="2.08751">
        <ele>145</ele>
        <time>2020-05-31T13:47:46Z</time>
      </trkpt>
      <trkpt lat="48.6137" lon="2.08755">
        <ele>145</ele>
        <time>2020-05-31T13:47:48Z</time>
      </trkpt>
      <trkpt lat="48.61369" lon="2.08759">
        <ele>144</ele>
        <time>2020-05-31T13:47:50Z</time>
      </trkpt>
      <trkpt lat="48.61368" lon="2.08764">
        <ele>144</ele>
        <time>2020-05-31T13:47:52Z</time>
      </trkpt>
      <trkpt lat="48.61367" lon="2.08768">
        <ele>144</ele>
        <time>2020-05-31T13:47:54Z</time>
      </trkpt>
      <trkpt lat="48.61365" lon="2.08772">
        <ele>143</ele>
        <time>2020-05-31T13:47:56Z</time>
      </trkpt>
      <trkpt lat="48.61364" lon="2.08777">
        <ele>143</ele>
        <time>2020-05-31T13:47:58Z</time>
      </trkpt>
      <trkpt lat="48.61364" lon="2.08781">
        <ele>143</ele>
        <time>2020-05-31T13:48:00Z</time>
      </trkpt>
      <trkpt lat="48.61363" lon="2.08785">
        <ele>142</ele>
        <time>2020-05-31T13:48:02Z</time>
      </trkpt>
      <trkpt lat="48.61362" lon="2.0879">
        <ele>142</ele>
        <time>2020-05-31T13:48:04Z</time>
      </trkpt>
      <trkpt lat="48.61361" lon="2.08795">
        <ele>142</ele>
        <time>2020-05-31T13:48:06Z</time>
      </trkpt>
      <trkpt lat="48.6136" lon="2.088">
        <ele>142</ele>
        <time>2020-05-31T13:48:08Z</time>
      </trkpt>
      <trkpt lat="48.6136" lon="2.08803">
        <ele>141</ele>
        <time>2020-05-31T13:48:10Z</time>
      </trkpt>
      <trkpt lat="48.6136" lon="2.08808">
        <ele>141</ele>
        <time>2020-05-31T13:48:17Z</time>
      </trkpt>
      <trkpt lat="48.6136" lon="2.08812">
        <ele>141</ele>
        <time>2020-05-31T13:48:19Z</time>
      </trkpt>
      <trkpt lat="48.6136" lon="2.08816">
        <ele>141</ele>
        <time>2020-05-31T13:48:21Z</time>
      </trkpt>
      <trkpt lat="48.6136" lon="2.08821">
        <ele>141</ele>
        <time>2020-05-31T13:48:23Z</time>
      </trkpt>
      <trkpt lat="48.6136" lon="2.08826">
        <ele>141</ele>
        <time>2020-05-31T13:48:25Z</time>
      </trkpt>
      <trkpt lat="48.61361" lon="2.08831">
        <ele>141</ele>
        <time>2020-05-31T13:48:27Z</time>
      </trkpt>
      <trkpt lat="48.6136" lon="2.08833">
        <ele>141</ele>
        <time>2020-05-31T13:48:28Z</time>
      </trkpt>
      <trkpt lat="48.61361" lon="2.08839">
        <ele>141</ele>
        <time>2020-05-31T13:48:30Z</time>
      </trkpt>
      <trkpt lat="48.61361" lon="2.08843">
        <ele>141</ele>
        <time>2020-05-31T13:48:32Z</time>
      </trkpt>
      <trkpt lat="48.61362" lon="2.08848">
        <ele>141</ele>
        <time>2020-05-31T13:48:34Z</time>
      </trkpt>
      <trkpt lat="48.61363" lon="2.08853">
        <ele>141</ele>
        <time>2020-05-31T13:48:36Z</time>
      </trkpt>
      <trkpt lat="48.61363" lon="2.08857">
        <ele>140</ele>
        <time>2020-05-31T13:48:38Z</time>
      </trkpt>
      <trkpt lat="48.61364" lon="2.08863">
        <ele>140</ele>
        <time>2020-05-31T13:48:40Z</time>
      </trkpt>
      <trkpt lat="48.61364" lon="2.08868">
        <ele>140</ele>
        <time>2020-05-31T13:48:42Z</time>
      </trkpt>
      <trkpt lat="48.61365" lon="2.08873">
        <ele>140</ele>
        <time>2020-05-31T13:48:44Z</time>
      </trkpt>
      <trkpt lat="48.61366" lon="2.08877">
        <ele>140</ele>
        <time>2020-05-31T13:48:46Z</time>
      </trkpt>
      <trkpt lat="48.61367" lon="2.08882">
        <ele>139</ele>
        <time>2020-05-31T13:48:48Z</time>
      </trkpt>
      <trkpt lat="48.61367" lon="2.08887">
        <ele>139</ele>
        <time>2020-05-31T13:48:50Z</time>
      </trkpt>
      <trkpt lat="48.61368" lon="2.08893">
        <ele>139</ele>
        <time>2020-05-31T13:48:52Z</time>
      </trkpt>
      <trkpt lat="48.61369" lon="2.08898">
        <ele>139</ele>
        <time>2020-05-31T13:48:54Z</time>
      </trkpt>
      <trkpt lat="48.6137" lon="2.08903">
        <ele>139</ele>
        <time>2020-05-31T13:48:56Z</time>
      </trkpt>
      <trkpt lat="48.61371" lon="2.08908">
        <ele>139</ele>
        <time>2020-05-31T13:48:58Z</time>
      </trkpt>
      <trkpt lat="48.61371" lon="2.08911">
        <ele>139</ele>
        <time>2020-05-31T13:48:59Z</time>
      </trkpt>
      <trkpt lat="48.61372" lon="2.08916">
        <ele>139</ele>
        <time>2020-05-31T13:49:01Z</time>
      </trkpt>
      <trkpt lat="48.61373" lon="2.08921">
        <ele>139</ele>
        <time>2020-05-31T13:49:03Z</time>
      </trkpt>
      <trkpt lat="48.61374" lon="2.08926">
        <ele>138</ele>
        <time>2020-05-31T13:49:05Z</time>
      </trkpt>
      <trkpt lat="48.61374" lon="2.08932">
        <ele>138</ele>
        <time>2020-05-31T13:49:07Z</time>
      </trkpt>
      <trkpt lat="48.61374" lon="2.08935">
        <ele>138</ele>
        <time>2020-05-31T13:49:08Z</time>
      </trkpt>
      <trkpt lat="48.61374" lon="2.08938">
        <ele>138</ele>
        <time>2020-05-31T13:49:09Z</time>
      </trkpt>
      <trkpt lat="48.61374" lon="2.0894">
        <ele>138</ele>
        <time>2020-05-31T13:49:10Z</time>
      </trkpt>
      <trkpt lat="48.61373" lon="2.08945">
        <ele>138</ele>
        <time>2020-05-31T13:49:12Z</time>
      </trkpt>
      <trkpt lat="48.61372" lon="2.0895">
        <ele>138</ele>
        <time>2020-05-31T13:49:14Z</time>
      </trkpt>
      <trkpt lat="48.61371" lon="2.08955">
        <ele>138</ele>
        <time>2020-05-31T13:49:16Z</time>
      </trkpt>
      <trkpt lat="48.6137" lon="2.08959">
        <ele>138</ele>
        <time>2020-05-31T13:49:18Z</time>
      </trkpt>
      <trkpt lat="48.61368" lon="2.08964">
        <ele>138</ele>
        <time>2020-05-31T13:49:20Z</time>
      </trkpt>
      <trkpt lat="48.61366" lon="2.08968">
        <ele>137</ele>
        <time>2020-05-31T13:49:22Z</time>
      </trkpt>
      <trkpt lat="48.61364" lon="2.08973">
        <ele>137</ele>
        <time>2020-05-31T13:49:24Z</time>
      </trkpt>
      <trkpt lat="48.61362" lon="2.08977">
        <ele>137</ele>
        <time>2020-05-31T13:49:26Z</time>
      </trkpt>
      <trkpt lat="48.6136" lon="2.08981">
        <ele>137</ele>
        <time>2020-05-31T13:49:28Z</time>
      </trkpt>
      <trkpt lat="48.61359" lon="2.08986">
        <ele>136</ele>
        <time>2020-05-31T13:49:30Z</time>
      </trkpt>
      <trkpt lat="48.61357" lon="2.0899">
        <ele>136</ele>
        <time>2020-05-31T13:49:32Z</time>
      </trkpt>
      <trkpt lat="48.61356" lon="2.08995">
        <ele>137</ele>
        <time>2020-05-31T13:49:34Z</time>
      </trkpt>
      <trkpt lat="48.61355" lon="2.09">
        <ele>136</ele>
        <time>2020-05-31T13:49:36Z</time>
      </trkpt>
      <trkpt lat="48.61354" lon="2.09005">
        <ele>136</ele>
        <time>2020-05-31T13:49:38Z</time>
      </trkpt>
      <trkpt lat="48.61354" lon="2.0901">
        <ele>136</ele>
        <time>2020-05-31T13:49:40Z</time>
      </trkpt>
      <trkpt lat="48.61353" lon="2.09015">
        <ele>136</ele>
        <time>2020-05-31T13:49:42Z</time>
      </trkpt>
      <trkpt lat="48.61353" lon="2.0902">
        <ele>136</ele>
        <time>2020-05-31T13:49:44Z</time>
      </trkpt>
      <trkpt lat="48.61353" lon="2.09025">
        <ele>136</ele>
        <time>2020-05-31T13:49:46Z</time>
      </trkpt>
      <trkpt lat="48.61353" lon="2.0903">
        <ele>136</ele>
        <time>2020-05-31T13:49:48Z</time>
      </trkpt>
      <trkpt lat="48.61353" lon="2.09035">
        <ele>136</ele>
        <time>2020-05-31T13:49:50Z</time>
      </trkpt>
      <trkpt lat="48.61354" lon="2.09039">
        <ele>136</ele>
        <time>2020-05-31T13:49:52Z</time>
      </trkpt>
      <trkpt lat="48.61354" lon="2.09044">
        <ele>136</ele>
        <time>2020-05-31T13:49:54Z</time>
      </trkpt>
      <trkpt lat="48.61355" lon="2.0905">
        <ele>136</ele>
        <time>2020-05-31T13:49:56Z</time>
      </trkpt>
      <trkpt lat="48.61355" lon="2.09055">
        <ele>136</ele>
        <time>2020-05-31T13:49:58Z</time>
      </trkpt>
      <trkpt lat="48.61355" lon="2.0906">
        <ele>136</ele>
        <time>2020-05-31T13:50:00Z</time>
      </trkpt>
      <trkpt lat="48.61356" lon="2.09066">
        <ele>136</ele>
        <time>2020-05-31T13:50:02Z</time>
      </trkpt>
      <trkpt lat="48.61356" lon="2.09071">
        <ele>135</ele>
        <time>2020-05-31T13:50:04Z</time>
      </trkpt>
      <trkpt lat="48.61357" lon="2.09076">
        <ele>135</ele>
        <time>2020-05-31T13:50:06Z</time>
      </trkpt>
      <trkpt lat="48.61357" lon="2.09081">
        <ele>135</ele>
        <time>2020-05-31T13:50:08Z</time>
      </trkpt>
      <trkpt lat="48.61358" lon="2.09086">
        <ele>135</ele>
        <time>2020-05-31T13:50:10Z</time>
      </trkpt>
      <trkpt lat="48.61358" lon="2.09089">
        <ele>135</ele>
        <time>2020-05-31T13:50:11Z</time>
      </trkpt>
      <trkpt lat="48.61359" lon="2.09092">
        <ele>135</ele>
        <time>2020-05-31T13:50:12Z</time>
      </trkpt>
      <trkpt lat="48.6136" lon="2.09097">
        <ele>135</ele>
        <time>2020-05-31T13:50:14Z</time>
      </trkpt>
      <trkpt lat="48.61361" lon="2.09101">
        <ele>135</ele>
        <time>2020-05-31T13:50:16Z</time>
      </trkpt>
      <trkpt lat="48.61362" lon="2.09106">
        <ele>135</ele>
        <time>2020-05-31T13:50:18Z</time>
      </trkpt>
      <trkpt lat="48.61363" lon="2.09111">
        <ele>135</ele>
        <time>2020-05-31T13:50:20Z</time>
      </trkpt>
      <trkpt lat="48.61364" lon="2.09116">
        <ele>135</ele>
        <time>2020-05-31T13:50:22Z</time>
      </trkpt>
      <trkpt lat="48.61364" lon="2.09121">
        <ele>135</ele>
        <time>2020-05-31T13:50:24Z</time>
      </trkpt>
      <trkpt lat="48.61365" lon="2.09126">
        <ele>134</ele>
        <time>2020-05-31T13:50:26Z</time>
      </trkpt>
      <trkpt lat="48.61365" lon="2.09131">
        <ele>134</ele>
        <time>2020-05-31T13:50:28Z</time>
      </trkpt>
      <trkpt lat="48.61366" lon="2.09136">
        <ele>134</ele>
        <time>2020-05-31T13:50:30Z</time>
      </trkpt>
      <trkpt lat="48.61367" lon="2.09141">
        <ele>134</ele>
        <time>2020-05-31T13:50:32Z</time>
      </trkpt>
      <trkpt lat="48.61367" lon="2.09146">
        <ele>134</ele>
        <time>2020-05-31T13:50:34Z</time>
      </trkpt>
      <trkpt lat="48.61368" lon="2.09151">
        <ele>134</ele>
        <time>2020-05-31T13:50:36Z</time>
      </trkpt>
      <trkpt lat="48.61369" lon="2.09156">
        <ele>134</ele>
        <time>2020-05-31T13:50:38Z</time>
      </trkpt>
      <trkpt lat="48.61369" lon="2.09161">
        <ele>134</ele>
        <time>2020-05-31T13:50:40Z</time>
      </trkpt>
      <trkpt lat="48.61369" lon="2.09166">
        <ele>134</ele>
        <time>2020-05-31T13:50:42Z</time>
      </trkpt>
      <trkpt lat="48.6137" lon="2.09171">
        <ele>134</ele>
        <time>2020-05-31T13:50:44Z</time>
      </trkpt>
      <trkpt lat="48.6137" lon="2.09176">
        <ele>134</ele>
        <time>2020-05-31T13:50:46Z</time>
      </trkpt>
      <trkpt lat="48.61371" lon="2.0918">
        <ele>134</ele>
        <time>2020-05-31T13:50:48Z</time>
      </trkpt>
      <trkpt lat="48.61372" lon="2.09185">
        <ele>134</ele>
        <time>2020-05-31T13:50:50Z</time>
      </trkpt>
      <trkpt lat="48.61372" lon="2.0919">
        <ele>134</ele>
        <time>2020-05-31T13:50:52Z</time>
      </trkpt>
      <trkpt lat="48.61373" lon="2.09195">
        <ele>134</ele>
        <time>2020-05-31T13:50:54Z</time>
      </trkpt>
      <trkpt lat="48.61375" lon="2.092">
        <ele>134</ele>
        <time>2020-05-31T13:50:56Z</time>
      </trkpt>
      <trkpt lat="48.61376" lon="2.09202">
        <ele>134</ele>
        <time>2020-05-31T13:50:57Z</time>
      </trkpt>
      <trkpt lat="48.61377" lon="2.09204">
        <ele>134</ele>
        <time>2020-05-31T13:50:58Z</time>
      </trkpt>
      <trkpt lat="48.6138" lon="2.09207">
        <ele>134</ele>
        <time>2020-05-31T13:51:00Z</time>
      </trkpt>
      <trkpt lat="48.61382" lon="2.09209">
        <ele>134</ele>
        <time>2020-05-31T13:51:02Z</time>
      </trkpt>
      <trkpt lat="48.61385" lon="2.09209">
        <ele>133</ele>
        <time>2020-05-31T13:51:04Z</time>
      </trkpt>
      <trkpt lat="48.61387" lon="2.09208">
        <ele>133</ele>
        <time>2020-05-31T13:51:06Z</time>
      </trkpt>
      <trkpt lat="48.61391" lon="2.09206">
        <ele>133</ele>
        <time>2020-05-31T13:51:08Z</time>
      </trkpt>
      <trkpt lat="48.61392" lon="2.09205">
        <ele>133</ele>
        <time>2020-05-31T13:51:09Z</time>
      </trkpt>
      <trkpt lat="48.61394" lon="2.09204">
        <ele>133</ele>
        <time>2020-05-31T13:51:10Z</time>
      </trkpt>
      <trkpt lat="48.61396" lon="2.09203">
        <ele>133</ele>
        <time>2020-05-31T13:51:11Z</time>
      </trkpt>
      <trkpt lat="48.61399" lon="2.09201">
        <ele>133</ele>
        <time>2020-05-31T13:51:13Z</time>
      </trkpt>
      <trkpt lat="48.61402" lon="2.09199">
        <ele>133</ele>
        <time>2020-05-31T13:51:15Z</time>
      </trkpt>
      <trkpt lat="48.61405" lon="2.09197">
        <ele>133</ele>
        <time>2020-05-31T13:51:17Z</time>
      </trkpt>
      <trkpt lat="48.61408" lon="2.09196">
        <ele>134</ele>
        <time>2020-05-31T13:51:19Z</time>
      </trkpt>
      <trkpt lat="48.61412" lon="2.09194">
        <ele>134</ele>
        <time>2020-05-31T13:51:21Z</time>
      </trkpt>
      <trkpt lat="48.61415" lon="2.09193">
        <ele>133</ele>
        <time>2020-05-31T13:51:23Z</time>
      </trkpt>
      <trkpt lat="48.61418" lon="2.09192">
        <ele>133</ele>
        <time>2020-05-31T13:51:25Z</time>
      </trkpt>
      <trkpt lat="48.61422" lon="2.09191">
        <ele>133</ele>
        <time>2020-05-31T13:51:27Z</time>
      </trkpt>
      <trkpt lat="48.61425" lon="2.0919">
        <ele>133</ele>
        <time>2020-05-31T13:51:29Z</time>
      </trkpt>
      <trkpt lat="48.61428" lon="2.09189">
        <ele>133</ele>
        <time>2020-05-31T13:51:31Z</time>
      </trkpt>
      <trkpt lat="48.61432" lon="2.09189">
        <ele>133</ele>
        <time>2020-05-31T13:51:33Z</time>
      </trkpt>
      <trkpt lat="48.61435" lon="2.09188">
        <ele>133</ele>
        <time>2020-05-31T13:51:35Z</time>
      </trkpt>
      <trkpt lat="48.61438" lon="2.09188">
        <ele>133</ele>
        <time>2020-05-31T13:51:37Z</time>
      </trkpt>
      <trkpt lat="48.61441" lon="2.09188">
        <ele>133</ele>
        <time>2020-05-31T13:51:39Z</time>
      </trkpt>
      <trkpt lat="48.61445" lon="2.09188">
        <ele>133</ele>
        <time>2020-05-31T13:51:41Z</time>
      </trkpt>
      <trkpt lat="48.61448" lon="2.09189">
        <ele>133</ele>
        <time>2020-05-31T13:51:43Z</time>
      </trkpt>
      <trkpt lat="48.61451" lon="2.09189">
        <ele>133</ele>
        <time>2020-05-31T13:51:45Z</time>
      </trkpt>
      <trkpt lat="48.61453" lon="2.09189">
        <ele>133</ele>
        <time>2020-05-31T13:51:46Z</time>
      </trkpt>
      <trkpt lat="48.61455" lon="2.0919">
        <ele>133</ele>
        <time>2020-05-31T13:51:47Z</time>
      </trkpt>
      <trkpt lat="48.61458" lon="2.09192">
        <ele>133</ele>
        <time>2020-05-31T13:51:49Z</time>
      </trkpt>
      <trkpt lat="48.61461" lon="2.09195">
        <ele>133</ele>
        <time>2020-05-31T13:51:51Z</time>
      </trkpt>
      <trkpt lat="48.61462" lon="2.09198">
        <ele>133</ele>
        <time>2020-05-31T13:51:52Z</time>
      </trkpt>
      <trkpt lat="48.61463" lon="2.092">
        <ele>133</ele>
        <time>2020-05-31T13:51:53Z</time>
      </trkpt>
      <trkpt lat="48.61464" lon="2.09203">
        <ele>133</ele>
        <time>2020-05-31T13:51:54Z</time>
      </trkpt>
      <trkpt lat="48.61465" lon="2.09205">
        <ele>133</ele>
        <time>2020-05-31T13:51:55Z</time>
      </trkpt>
      <trkpt lat="48.61466" lon="2.0921">
        <ele>133</ele>
        <time>2020-05-31T13:51:57Z</time>
      </trkpt>
      <trkpt lat="48.61466" lon="2.09215">
        <ele>133</ele>
        <time>2020-05-31T13:51:59Z</time>
      </trkpt>
      <trkpt lat="48.61467" lon="2.09221">
        <ele>133</ele>
        <time>2020-05-31T13:52:01Z</time>
      </trkpt>
      <trkpt lat="48.61468" lon="2.09226">
        <ele>132</ele>
        <time>2020-05-31T13:52:03Z</time>
      </trkpt>
      <trkpt lat="48.61468" lon="2.09228">
        <ele>132</ele>
        <time>2020-05-31T13:52:04Z</time>
      </trkpt>
      <trkpt lat="48.61468" lon="2.09231">
        <ele>132</ele>
        <time>2020-05-31T13:52:05Z</time>
      </trkpt>
      <trkpt lat="48.61469" lon="2.09234">
        <ele>132</ele>
        <time>2020-05-31T13:52:06Z</time>
      </trkpt>
      <trkpt lat="48.61469" lon="2.09239">
        <ele>131</ele>
        <time>2020-05-31T13:52:08Z</time>
      </trkpt>
      <trkpt lat="48.6147" lon="2.09242">
        <ele>131</ele>
        <time>2020-05-31T13:52:09Z</time>
      </trkpt>
      <trkpt lat="48.6147" lon="2.09244">
        <ele>131</ele>
        <time>2020-05-31T13:52:10Z</time>
      </trkpt>
      <trkpt lat="48.61471" lon="2.09247">
        <ele>131</ele>
        <time>2020-05-31T13:52:11Z</time>
      </trkpt>
      <trkpt lat="48.61471" lon="2.0925">
        <ele>131</ele>
        <time>2020-05-31T13:52:12Z</time>
      </trkpt>
      <trkpt lat="48.61472" lon="2.09252">
        <ele>131</ele>
        <time>2020-05-31T13:52:13Z</time>
      </trkpt>
      <trkpt lat="48.61473" lon="2.09257">
        <ele>131</ele>
        <time>2020-05-31T13:52:15Z</time>
      </trkpt>
      <trkpt lat="48.61474" lon="2.09263">
        <ele>131</ele>
        <time>2020-05-31T13:52:17Z</time>
      </trkpt>
      <trkpt lat="48.61475" lon="2.09268">
        <ele>131</ele>
        <time>2020-05-31T13:52:19Z</time>
      </trkpt>
      <trkpt lat="48.61476" lon="2.09273">
        <ele>131</ele>
        <time>2020-05-31T13:52:21Z</time>
      </trkpt>
      <trkpt lat="48.61476" lon="2.09278">
        <ele>131</ele>
        <time>2020-05-31T13:52:23Z</time>
      </trkpt>
      <trkpt lat="48.61477" lon="2.09283">
        <ele>131</ele>
        <time>2020-05-31T13:52:25Z</time>
      </trkpt>
      <trkpt lat="48.61478" lon="2.09288">
        <ele>130</ele>
        <time>2020-05-31T13:52:27Z</time>
      </trkpt>
      <trkpt lat="48.61479" lon="2.09293">
        <ele>130</ele>
        <time>2020-05-31T13:52:29Z</time>
      </trkpt>
      <trkpt lat="48.6148" lon="2.09298">
        <ele>130</ele>
        <time>2020-05-31T13:52:31Z</time>
      </trkpt>
      <trkpt lat="48.61481" lon="2.09303">
        <ele>130</ele>
        <time>2020-05-31T13:52:33Z</time>
      </trkpt>
      <trkpt lat="48.61482" lon="2.09308">
        <ele>130</ele>
        <time>2020-05-31T13:52:35Z</time>
      </trkpt>
      <trkpt lat="48.61483" lon="2.09313">
        <ele>130</ele>
        <time>2020-05-31T13:52:37Z</time>
      </trkpt>
      <trkpt lat="48.61484" lon="2.09318">
        <ele>129</ele>
        <time>2020-05-31T13:52:39Z</time>
      </trkpt>
      <trkpt lat="48.61485" lon="2.09322">
        <ele>129</ele>
        <time>2020-05-31T13:52:41Z</time>
      </trkpt>
      <trkpt lat="48.61486" lon="2.09327">
        <ele>130</ele>
        <time>2020-05-31T13:52:43Z</time>
      </trkpt>
      <trkpt lat="48.61487" lon="2.09332">
        <ele>130</ele>
        <time>2020-05-31T13:52:45Z</time>
      </trkpt>
      <trkpt lat="48.61488" lon="2.09337">
        <ele>129</ele>
        <time>2020-05-31T13:52:47Z</time>
      </trkpt>
      <trkpt lat="48.61489" lon="2.09342">
        <ele>129</ele>
        <time>2020-05-31T13:52:49Z</time>
      </trkpt>
      <trkpt lat="48.6149" lon="2.09346">
        <ele>129</ele>
        <time>2020-05-31T13:52:51Z</time>
      </trkpt>
      <trkpt lat="48.61491" lon="2.09351">
        <ele>129</ele>
        <time>2020-05-31T13:52:53Z</time>
      </trkpt>
      <trkpt lat="48.61492" lon="2.09356">
        <ele>129</ele>
        <time>2020-05-31T13:52:55Z</time>
      </trkpt>
      <trkpt lat="48.61493" lon="2.09361">
        <ele>129</ele>
        <time>2020-05-31T13:52:57Z</time>
      </trkpt>
      <trkpt lat="48.61493" lon="2.09364">
        <ele>129</ele>
        <time>2020-05-31T13:52:59Z</time>
      </trkpt>
      <trkpt lat="48.61492" lon="2.09366">
        <ele>129</ele>
        <time>2020-05-31T13:53:13Z</time>
      </trkpt>
      <trkpt lat="48.61492" lon="2.09369">
        <ele>129</ele>
        <time>2020-05-31T13:53:15Z</time>
      </trkpt>
      <trkpt lat="48.61493" lon="2.09373">
        <ele>129</ele>
        <time>2020-05-31T13:53:17Z</time>
      </trkpt>
      <trkpt lat="48.61494" lon="2.09378">
        <ele>129</ele>
        <time>2020-05-31T13:53:19Z</time>
      </trkpt>
      <trkpt lat="48.61495" lon="2.09383">
        <ele>129</ele>
        <time>2020-05-31T13:53:21Z</time>
      </trkpt>
      <trkpt lat="48.61496" lon="2.09387">
        <ele>129</ele>
        <time>2020-05-31T13:53:23Z</time>
      </trkpt>
      <trkpt lat="48.61497" lon="2.09392">
        <ele>129</ele>
        <time>2020-05-31T13:53:25Z</time>
      </trkpt>
      <trkpt lat="48.61498" lon="2.09397">
        <ele>129</ele>
        <time>2020-05-31T13:53:27Z</time>
      </trkpt>
      <trkpt lat="48.61499" lon="2.09402">
        <ele>128</ele>
        <time>2020-05-31T13:53:29Z</time>
      </trkpt>
      <trkpt lat="48.615" lon="2.09406">
        <ele>128</ele>
        <time>2020-05-31T13:53:31Z</time>
      </trkpt>
      <trkpt lat="48.615" lon="2.09411">
        <ele>128</ele>
        <time>2020-05-31T13:53:33Z</time>
      </trkpt>
      <trkpt lat="48.61502" lon="2.09416">
        <ele>128</ele>
        <time>2020-05-31T13:53:35Z</time>
      </trkpt>
      <trkpt lat="48.61503" lon="2.09421">
        <ele>128</ele>
        <time>2020-05-31T13:53:37Z</time>
      </trkpt>
      <trkpt lat="48.61504" lon="2.09425">
        <ele>128</ele>
        <time>2020-05-31T13:53:39Z</time>
      </trkpt>
      <trkpt lat="48.61505" lon="2.0943">
        <ele>128</ele>
        <time>2020-05-31T13:53:41Z</time>
      </trkpt>
      <trkpt lat="48.61507" lon="2.09435">
        <ele>128</ele>
        <time>2020-05-31T13:53:43Z</time>
      </trkpt>
      <trkpt lat="48.61508" lon="2.09441">
        <ele>128</ele>
        <time>2020-05-31T13:53:45Z</time>
      </trkpt>
      <trkpt lat="48.61508" lon="2.09443">
        <ele>128</ele>
        <time>2020-05-31T13:53:46Z</time>
      </trkpt>
      <trkpt lat="48.61509" lon="2.09448">
        <ele>127</ele>
        <time>2020-05-31T13:53:48Z</time>
      </trkpt>
      <trkpt lat="48.6151" lon="2.09453">
        <ele>127</ele>
        <time>2020-05-31T13:53:50Z</time>
      </trkpt>
      <trkpt lat="48.61512" lon="2.09458">
        <ele>127</ele>
        <time>2020-05-31T13:53:52Z</time>
      </trkpt>
      <trkpt lat="48.61513" lon="2.09463">
        <ele>127</ele>
        <time>2020-05-31T13:53:54Z</time>
      </trkpt>
      <trkpt lat="48.61514" lon="2.09468">
        <ele>127</ele>
        <time>2020-05-31T13:53:56Z</time>
      </trkpt>
      <trkpt lat="48.61515" lon="2.09472">
        <ele>127</ele>
        <time>2020-05-31T13:53:58Z</time>
      </trkpt>
      <trkpt lat="48.61516" lon="2.09477">
        <ele>127</ele>
        <time>2020-05-31T13:54:00Z</time>
      </trkpt>
      <trkpt lat="48.61517" lon="2.09481">
        <ele>127</ele>
        <time>2020-05-31T13:54:02Z</time>
      </trkpt>
      <trkpt lat="48.61518" lon="2.09486">
        <ele>126</ele>
        <time>2020-05-31T13:54:04Z</time>
      </trkpt>
      <trkpt lat="48.6152" lon="2.09491">
        <ele>126</ele>
        <time>2020-05-31T13:54:06Z</time>
      </trkpt>
      <trkpt lat="48.61521" lon="2.09496">
        <ele>126</ele>
        <time>2020-05-31T13:54:08Z</time>
      </trkpt>
      <trkpt lat="48.61522" lon="2.09501">
        <ele>126</ele>
        <time>2020-05-31T13:54:10Z</time>
      </trkpt>
      <trkpt lat="48.61523" lon="2.09507">
        <ele>126</ele>
        <time>2020-05-31T13:54:12Z</time>
      </trkpt>
      <trkpt lat="48.61525" lon="2.09512">
        <ele>126</ele>
        <time>2020-05-31T13:54:14Z</time>
      </trkpt>
      <trkpt lat="48.61525" lon="2.09514">
        <ele>126</ele>
        <time>2020-05-31T13:54:15Z</time>
      </trkpt>
      <trkpt lat="48.61526" lon="2.09519">
        <ele>126</ele>
        <time>2020-05-31T13:54:17Z</time>
      </trkpt>
      <trkpt lat="48.61528" lon="2.09524">
        <ele>126</ele>
        <time>2020-05-31T13:54:19Z</time>
      </trkpt>
      <trkpt lat="48.61528" lon="2.09529">
        <ele>126</ele>
        <time>2020-05-31T13:54:21Z</time>
      </trkpt>
      <trkpt lat="48.6153" lon="2.09534">
        <ele>126</ele>
        <time>2020-05-31T13:54:23Z</time>
      </trkpt>
      <trkpt lat="48.61531" lon="2.09539">
        <ele>126</ele>
        <time>2020-05-31T13:54:25Z</time>
      </trkpt>
      <trkpt lat="48.61532" lon="2.09541">
        <ele>126</ele>
        <time>2020-05-31T13:54:26Z</time>
      </trkpt>
      <trkpt lat="48.61532" lon="2.09544">
        <ele>126</ele>
        <time>2020-05-31T13:54:27Z</time>
      </trkpt>
      <trkpt lat="48.61534" lon="2.09549">
        <ele>126</ele>
        <time>2020-05-31T13:54:29Z</time>
      </trkpt>
      <trkpt lat="48.61535" lon="2.09554">
        <ele>125</ele>
        <time>2020-05-31T13:54:31Z</time>
      </trkpt>
      <trkpt lat="48.61536" lon="2.09559">
        <ele>125</ele>
        <time>2020-05-31T13:54:33Z</time>
      </trkpt>
      <trkpt lat="48.61537" lon="2.09564">
        <ele>125</ele>
        <time>2020-05-31T13:54:35Z</time>
      </trkpt>
      <trkpt lat="48.61538" lon="2.09569">
        <ele>125</ele>
        <time>2020-05-31T13:54:37Z</time>
      </trkpt>
      <trkpt lat="48.61539" lon="2.09573">
        <ele>125</ele>
        <time>2020-05-31T13:54:39Z</time>
      </trkpt>
      <trkpt lat="48.6154" lon="2.09578">
        <ele>125</ele>
        <time>2020-05-31T13:54:41Z</time>
      </trkpt>
      <trkpt lat="48.61541" lon="2.09583">
        <ele>125</ele>
        <time>2020-05-31T13:54:43Z</time>
      </trkpt>
      <trkpt lat="48.61542" lon="2.09588">
        <ele>125</ele>
        <time>2020-05-31T13:54:45Z</time>
      </trkpt>
      <trkpt lat="48.61543" lon="2.09592">
        <ele>124</ele>
        <time>2020-05-31T13:54:47Z</time>
      </trkpt>
      <trkpt lat="48.61545" lon="2.09597">
        <ele>124</ele>
        <time>2020-05-31T13:54:49Z</time>
      </trkpt>
      <trkpt lat="48.61546" lon="2.09602">
        <ele>124</ele>
        <time>2020-05-31T13:54:51Z</time>
      </trkpt>
      <trkpt lat="48.61547" lon="2.09607">
        <ele>124</ele>
        <time>2020-05-31T13:54:53Z</time>
      </trkpt>
      <trkpt lat="48.61548" lon="2.09612">
        <ele>124</ele>
        <time>2020-05-31T13:54:55Z</time>
      </trkpt>
      <trkpt lat="48.61549" lon="2.09617">
        <ele>124</ele>
        <time>2020-05-31T13:54:57Z</time>
      </trkpt>
      <trkpt lat="48.6155" lon="2.09621">
        <ele>124</ele>
        <time>2020-05-31T13:54:59Z</time>
      </trkpt>
      <trkpt lat="48.61551" lon="2.09626">
        <ele>124</ele>
        <time>2020-05-31T13:55:01Z</time>
      </trkpt>
      <trkpt lat="48.61552" lon="2.09631">
        <ele>124</ele>
        <time>2020-05-31T13:55:03Z</time>
      </trkpt>
      <trkpt lat="48.61553" lon="2.09636">
        <ele>124</ele>
        <time>2020-05-31T13:55:05Z</time>
      </trkpt>
      <trkpt lat="48.61554" lon="2.09641">
        <ele>124</ele>
        <time>2020-05-31T13:55:07Z</time>
      </trkpt>
      <trkpt lat="48.61555" lon="2.09646">
        <ele>124</ele>
        <time>2020-05-31T13:55:09Z</time>
      </trkpt>
      <trkpt lat="48.61556" lon="2.09651">
        <ele>124</ele>
        <time>2020-05-31T13:55:11Z</time>
      </trkpt>
      <trkpt lat="48.61557" lon="2.09656">
        <ele>124</ele>
        <time>2020-05-31T13:55:13Z</time>
      </trkpt>
      <trkpt lat="48.61558" lon="2.09661">
        <ele>123</ele>
        <time>2020-05-31T13:55:15Z</time>
      </trkpt>
      <trkpt lat="48.61559" lon="2.09666">
        <ele>123</ele>
        <time>2020-05-31T13:55:17Z</time>
      </trkpt>
      <trkpt lat="48.6156" lon="2.09671">
        <ele>123</ele>
        <time>2020-05-31T13:55:19Z</time>
      </trkpt>
      <trkpt lat="48.61561" lon="2.09676">
        <ele>123</ele>
        <time>2020-05-31T13:55:21Z</time>
      </trkpt>
      <trkpt lat="48.61562" lon="2.0968">
        <ele>123</ele>
        <time>2020-05-31T13:55:23Z</time>
      </trkpt>
      <trkpt lat="48.61563" lon="2.09685">
        <ele>123</ele>
        <time>2020-05-31T13:55:25Z</time>
      </trkpt>
      <trkpt lat="48.61564" lon="2.0969">
        <ele>123</ele>
        <time>2020-05-31T13:55:27Z</time>
      </trkpt>
      <trkpt lat="48.61564" lon="2.09695">
        <ele>123</ele>
        <time>2020-05-31T13:55:29Z</time>
      </trkpt>
      <trkpt lat="48.61565" lon="2.097">
        <ele>123</ele>
        <time>2020-05-31T13:55:31Z</time>
      </trkpt>
      <trkpt lat="48.61566" lon="2.09705">
        <ele>123</ele>
        <time>2020-05-31T13:55:33Z</time>
      </trkpt>
      <trkpt lat="48.61567" lon="2.0971">
        <ele>123</ele>
        <time>2020-05-31T13:55:35Z</time>
      </trkpt>
      <trkpt lat="48.61568" lon="2.09715">
        <ele>123</ele>
        <time>2020-05-31T13:55:37Z</time>
      </trkpt>
      <trkpt lat="48.61569" lon="2.0972">
        <ele>122</ele>
        <time>2020-05-31T13:55:39Z</time>
      </trkpt>
      <trkpt lat="48.6157" lon="2.09725">
        <ele>122</ele>
        <time>2020-05-31T13:55:41Z</time>
      </trkpt>
      <trkpt lat="48.6157" lon="2.09729">
        <ele>122</ele>
        <time>2020-05-31T13:55:43Z</time>
      </trkpt>
      <trkpt lat="48.61571" lon="2.09734">
        <ele>122</ele>
        <time>2020-05-31T13:55:45Z</time>
      </trkpt>
      <trkpt lat="48.61572" lon="2.09739">
        <ele>122</ele>
        <time>2020-05-31T13:55:47Z</time>
      </trkpt>
      <trkpt lat="48.61572" lon="2.09744">
        <ele>122</ele>
        <time>2020-05-31T13:55:49Z</time>
      </trkpt>
      <trkpt lat="48.61573" lon="2.09749">
        <ele>122</ele>
        <time>2020-05-31T13:55:51Z</time>
      </trkpt>
      <trkpt lat="48.61573" lon="2.09754">
        <ele>122</ele>
        <time>2020-05-31T13:55:53Z</time>
      </trkpt>
      <trkpt lat="48.61574" lon="2.09759">
        <ele>122</ele>
        <time>2020-05-31T13:55:55Z</time>
      </trkpt>
      <trkpt lat="48.61574" lon="2.09763">
        <ele>122</ele>
        <time>2020-05-31T13:55:57Z</time>
      </trkpt>
      <trkpt lat="48.61574" lon="2.09766">
        <ele>122</ele>
        <time>2020-05-31T13:55:58Z</time>
      </trkpt>
      <trkpt lat="48.61575" lon="2.09769">
        <ele>122</ele>
        <time>2020-05-31T13:55:59Z</time>
      </trkpt>
      <trkpt lat="48.61575" lon="2.09774">
        <ele>122</ele>
        <time>2020-05-31T13:56:01Z</time>
      </trkpt>
      <trkpt lat="48.61575" lon="2.09778">
        <ele>122</ele>
        <time>2020-05-31T13:56:03Z</time>
      </trkpt>
      <trkpt lat="48.61576" lon="2.09784">
        <ele>122</ele>
        <time>2020-05-31T13:56:05Z</time>
      </trkpt>
      <trkpt lat="48.61576" lon="2.09788">
        <ele>122</ele>
        <time>2020-05-31T13:56:07Z</time>
      </trkpt>
      <trkpt lat="48.61577" lon="2.09793">
        <ele>121</ele>
        <time>2020-05-31T13:56:09Z</time>
      </trkpt>
      <trkpt lat="48.61577" lon="2.09798">
        <ele>121</ele>
        <time>2020-05-31T13:56:11Z</time>
      </trkpt>
      <trkpt lat="48.61577" lon="2.09804">
        <ele>121</ele>
        <time>2020-05-31T13:56:13Z</time>
      </trkpt>
      <trkpt lat="48.61577" lon="2.09809">
        <ele>121</ele>
        <time>2020-05-31T13:56:15Z</time>
      </trkpt>
      <trkpt lat="48.61578" lon="2.09814">
        <ele>121</ele>
        <time>2020-05-31T13:56:17Z</time>
      </trkpt>
      <trkpt lat="48.61578" lon="2.09819">
        <ele>121</ele>
        <time>2020-05-31T13:56:19Z</time>
      </trkpt>
      <trkpt lat="48.61578" lon="2.09824">
        <ele>121</ele>
        <time>2020-05-31T13:56:21Z</time>
      </trkpt>
      <trkpt lat="48.61578" lon="2.09829">
        <ele>121</ele>
        <time>2020-05-31T13:56:23Z</time>
      </trkpt>
      <trkpt lat="48.61579" lon="2.09834">
        <ele>121</ele>
        <time>2020-05-31T13:56:25Z</time>
      </trkpt>
      <trkpt lat="48.61579" lon="2.09839">
        <ele>121</ele>
        <time>2020-05-31T13:56:27Z</time>
      </trkpt>
      <trkpt lat="48.61579" lon="2.09844">
        <ele>121</ele>
        <time>2020-05-31T13:56:29Z</time>
      </trkpt>
      <trkpt lat="48.61579" lon="2.09849">
        <ele>121</ele>
        <time>2020-05-31T13:56:31Z</time>
      </trkpt>
      <trkpt lat="48.61579" lon="2.09854">
        <ele>121</ele>
        <time>2020-05-31T13:56:33Z</time>
      </trkpt>
      <trkpt lat="48.61579" lon="2.09859">
        <ele>120</ele>
        <time>2020-05-31T13:56:35Z</time>
      </trkpt>
      <trkpt lat="48.61579" lon="2.09864">
        <ele>120</ele>
        <time>2020-05-31T13:56:37Z</time>
      </trkpt>
      <trkpt lat="48.6158" lon="2.0987">
        <ele>120</ele>
        <time>2020-05-31T13:56:39Z</time>
      </trkpt>
      <trkpt lat="48.6158" lon="2.09875">
        <ele>120</ele>
        <time>2020-05-31T13:56:41Z</time>
      </trkpt>
      <trkpt lat="48.6158" lon="2.0988">
        <ele>120</ele>
        <time>2020-05-31T13:56:43Z</time>
      </trkpt>
      <trkpt lat="48.6158" lon="2.09885">
        <ele>120</ele>
        <time>2020-05-31T13:56:45Z</time>
      </trkpt>
      <trkpt lat="48.6158" lon="2.0989">
        <ele>120</ele>
        <time>2020-05-31T13:56:47Z</time>
      </trkpt>
      <trkpt lat="48.61581" lon="2.09895">
        <ele>120</ele>
        <time>2020-05-31T13:56:49Z</time>
      </trkpt>
      <trkpt lat="48.61581" lon="2.099">
        <ele>119</ele>
        <time>2020-05-31T13:56:51Z</time>
      </trkpt>
      <trkpt lat="48.61581" lon="2.09906">
        <ele>119</ele>
        <time>2020-05-31T13:56:53Z</time>
      </trkpt>
      <trkpt lat="48.61581" lon="2.09908">
        <ele>119</ele>
        <time>2020-05-31T13:56:54Z</time>
      </trkpt>
      <trkpt lat="48.61581" lon="2.09911">
        <ele>119</ele>
        <time>2020-05-31T13:56:55Z</time>
      </trkpt>
      <trkpt lat="48.61581" lon="2.09916">
        <ele>119</ele>
        <time>2020-05-31T13:56:57Z</time>
      </trkpt>
      <trkpt lat="48.61581" lon="2.09921">
        <ele>119</ele>
        <time>2020-05-31T13:56:59Z</time>
      </trkpt>
      <trkpt lat="48.61581" lon="2.09927">
        <ele>119</ele>
        <time>2020-05-31T13:57:01Z</time>
      </trkpt>
      <trkpt lat="48.61581" lon="2.09932">
        <ele>119</ele>
        <time>2020-05-31T13:57:03Z</time>
      </trkpt>
      <trkpt lat="48.61581" lon="2.09937">
        <ele>119</ele>
        <time>2020-05-31T13:57:05Z</time>
      </trkpt>
      <trkpt lat="48.61581" lon="2.09942">
        <ele>118</ele>
        <time>2020-05-31T13:57:07Z</time>
      </trkpt>
      <trkpt lat="48.61581" lon="2.09947">
        <ele>118</ele>
        <time>2020-05-31T13:57:09Z</time>
      </trkpt>
      <trkpt lat="48.61581" lon="2.09952">
        <ele>118</ele>
        <time>2020-05-31T13:57:11Z</time>
      </trkpt>
      <trkpt lat="48.61581" lon="2.09955">
        <ele>118</ele>
        <time>2020-05-31T13:57:12Z</time>
      </trkpt>
      <trkpt lat="48.61581" lon="2.0996">
        <ele>118</ele>
        <time>2020-05-31T13:57:14Z</time>
      </trkpt>
      <trkpt lat="48.6158" lon="2.09965">
        <ele>118</ele>
        <time>2020-05-31T13:57:16Z</time>
      </trkpt>
      <trkpt lat="48.6158" lon="2.09971">
        <ele>118</ele>
        <time>2020-05-31T13:57:18Z</time>
      </trkpt>
      <trkpt lat="48.6158" lon="2.09973">
        <ele>118</ele>
        <time>2020-05-31T13:57:19Z</time>
      </trkpt>
      <trkpt lat="48.61579" lon="2.09979">
        <ele>118</ele>
        <time>2020-05-31T13:57:21Z</time>
      </trkpt>
      <trkpt lat="48.61579" lon="2.09984">
        <ele>118</ele>
        <time>2020-05-31T13:57:23Z</time>
      </trkpt>
      <trkpt lat="48.61579" lon="2.09989">
        <ele>118</ele>
        <time>2020-05-31T13:57:25Z</time>
      </trkpt>
      <trkpt lat="48.61578" lon="2.09994">
        <ele>118</ele>
        <time>2020-05-31T13:57:27Z</time>
      </trkpt>
      <trkpt lat="48.61578" lon="2.09999">
        <ele>118</ele>
        <time>2020-05-31T13:57:29Z</time>
      </trkpt>
      <trkpt lat="48.61577" lon="2.10004">
        <ele>117</ele>
        <time>2020-05-31T13:57:31Z</time>
      </trkpt>
      <trkpt lat="48.61577" lon="2.10009">
        <ele>117</ele>
        <time>2020-05-31T13:57:33Z</time>
      </trkpt>
      <trkpt lat="48.61576" lon="2.10014">
        <ele>117</ele>
        <time>2020-05-31T13:57:35Z</time>
      </trkpt>
      <trkpt lat="48.61576" lon="2.10019">
        <ele>117</ele>
        <time>2020-05-31T13:57:37Z</time>
      </trkpt>
      <trkpt lat="48.61575" lon="2.10025">
        <ele>117</ele>
        <time>2020-05-31T13:57:39Z</time>
      </trkpt>
      <trkpt lat="48.61575" lon="2.10029">
        <ele>117</ele>
        <time>2020-05-31T13:57:41Z</time>
      </trkpt>
      <trkpt lat="48.61574" lon="2.10035">
        <ele>117</ele>
        <time>2020-05-31T13:57:43Z</time>
      </trkpt>
      <trkpt lat="48.61574" lon="2.10039">
        <ele>116</ele>
        <time>2020-05-31T13:57:45Z</time>
      </trkpt>
      <trkpt lat="48.61573" lon="2.10044">
        <ele>116</ele>
        <time>2020-05-31T13:57:47Z</time>
      </trkpt>
      <trkpt lat="48.61573" lon="2.10049">
        <ele>116</ele>
        <time>2020-05-31T13:57:49Z</time>
      </trkpt>
      <trkpt lat="48.61572" lon="2.10055">
        <ele>116</ele>
        <time>2020-05-31T13:57:51Z</time>
      </trkpt>
      <trkpt lat="48.61572" lon="2.1006">
        <ele>116</ele>
        <time>2020-05-31T13:57:53Z</time>
      </trkpt>
      <trkpt lat="48.61571" lon="2.10064">
        <ele>116</ele>
        <time>2020-05-31T13:57:55Z</time>
      </trkpt>
      <trkpt lat="48.61571" lon="2.10069">
        <ele>116</ele>
        <time>2020-05-31T13:57:57Z</time>
      </trkpt>
      <trkpt lat="48.6157" lon="2.10074">
        <ele>116</ele>
        <time>2020-05-31T13:57:59Z</time>
      </trkpt>
      <trkpt lat="48.6157" lon="2.1008">
        <ele>116</ele>
        <time>2020-05-31T13:58:01Z</time>
      </trkpt>
      <trkpt lat="48.61569" lon="2.10085">
        <ele>116</ele>
        <time>2020-05-31T13:58:03Z</time>
      </trkpt>
      <trkpt lat="48.61569" lon="2.1009">
        <ele>115</ele>
        <time>2020-05-31T13:58:05Z</time>
      </trkpt>
      <trkpt lat="48.61568" lon="2.10095">
        <ele>115</ele>
        <time>2020-05-31T13:58:07Z</time>
      </trkpt>
      <trkpt lat="48.61567" lon="2.101">
        <ele>115</ele>
        <time>2020-05-31T13:58:09Z</time>
      </trkpt>
      <trkpt lat="48.61567" lon="2.10105">
        <ele>115</ele>
        <time>2020-05-31T13:58:11Z</time>
      </trkpt>
      <trkpt lat="48.61566" lon="2.1011">
        <ele>115</ele>
        <time>2020-05-31T13:58:13Z</time>
      </trkpt>
      <trkpt lat="48.61566" lon="2.10115">
        <ele>115</ele>
        <time>2020-05-31T13:58:15Z</time>
      </trkpt>
      <trkpt lat="48.61565" lon="2.1012">
        <ele>115</ele>
        <time>2020-05-31T13:58:17Z</time>
      </trkpt>
      <trkpt lat="48.61564" lon="2.10125">
        <ele>115</ele>
        <time>2020-05-31T13:58:19Z</time>
      </trkpt>
      <trkpt lat="48.61564" lon="2.1013">
        <ele>115</ele>
        <time>2020-05-31T13:58:21Z</time>
      </trkpt>
      <trkpt lat="48.61563" lon="2.10134">
        <ele>115</ele>
        <time>2020-05-31T13:58:23Z</time>
      </trkpt>
      <trkpt lat="48.61562" lon="2.1014">
        <ele>115</ele>
        <time>2020-05-31T13:58:25Z</time>
      </trkpt>
      <trkpt lat="48.61562" lon="2.10144">
        <ele>115</ele>
        <time>2020-05-31T13:58:27Z</time>
      </trkpt>
      <trkpt lat="48.61561" lon="2.10149">
        <ele>115</ele>
        <time>2020-05-31T13:58:29Z</time>
      </trkpt>
      <trkpt lat="48.61561" lon="2.10154">
        <ele>115</ele>
        <time>2020-05-31T13:58:31Z</time>
      </trkpt>
      <trkpt lat="48.6156" lon="2.10158">
        <ele>115</ele>
        <time>2020-05-31T13:58:33Z</time>
      </trkpt>
      <trkpt lat="48.61559" lon="2.10162">
        <ele>115</ele>
        <time>2020-05-31T13:58:35Z</time>
      </trkpt>
      <trkpt lat="48.61559" lon="2.10165">
        <ele>115</ele>
        <time>2020-05-31T13:58:37Z</time>
      </trkpt>
      <trkpt lat="48.61559" lon="2.10169">
        <ele>115</ele>
        <time>2020-05-31T13:58:40Z</time>
      </trkpt>
      <trkpt lat="48.61559" lon="2.10172">
        <ele>116</ele>
        <time>2020-05-31T13:58:53Z</time>
      </trkpt>
      <trkpt lat="48.61559" lon="2.10176">
        <ele>116</ele>
        <time>2020-05-31T13:58:57Z</time>
      </trkpt>
      <trkpt lat="48.61559" lon="2.10179">
        <ele>115</ele>
        <time>2020-05-31T13:59:56Z</time>
      </trkpt>
      <trkpt lat="48.61558" lon="2.10182">
        <ele>115</ele>
        <time>2020-05-31T13:59:58Z</time>
      </trkpt>
      <trkpt lat="48.61557" lon="2.10186">
        <ele>115</ele>
        <time>2020-05-31T14:00:00Z</time>
      </trkpt>
      <trkpt lat="48.61556" lon="2.10189">
        <ele>115</ele>
        <time>2020-05-31T14:00:02Z</time>
      </trkpt>
      <trkpt lat="48.61556" lon="2.10193">
        <ele>115</ele>
        <time>2020-05-31T14:00:05Z</time>
      </trkpt>
      <trkpt lat="48.61555" lon="2.10196">
        <ele>115</ele>
        <time>2020-05-31T14:00:07Z</time>
      </trkpt>
      <trkpt lat="48.61554" lon="2.10199">
        <ele>115</ele>
        <time>2020-05-31T14:00:11Z</time>
      </trkpt>
      <trkpt lat="48.61554" lon="2.10202">
        <ele>115</ele>
        <time>2020-05-31T14:00:21Z</time>
      </trkpt>
      <trkpt lat="48.61556" lon="2.10202">
        <ele>115</ele>
        <time>2020-05-31T14:00:30Z</time>
      </trkpt>
      <trkpt lat="48.61556" lon="2.10199">
        <ele>115</ele>
        <time>2020-05-31T14:00:33Z</time>
      </trkpt>
      <trkpt lat="48.61554" lon="2.10198">
        <ele>115</ele>
        <time>2020-05-31T14:00:36Z</time>
      </trkpt>
      <trkpt lat="48.61552" lon="2.10197">
        <ele>115</ele>
        <time>2020-05-31T14:00:57Z</time>
      </trkpt>
      <trkpt lat="48.61551" lon="2.102">
        <ele>115</ele>
        <time>2020-05-31T14:01:03Z</time>
      </trkpt>
      <trkpt lat="48.6155" lon="2.10202">
        <ele>115</ele>
        <time>2020-05-31T14:01:05Z</time>
      </trkpt>
      <trkpt lat="48.61548" lon="2.10204">
        <ele>115</ele>
        <time>2020-05-31T14:01:07Z</time>
      </trkpt>
      <trkpt lat="48.61547" lon="2.10207">
        <ele>115</ele>
        <time>2020-05-31T14:01:10Z</time>
      </trkpt>
      <trkpt lat="48.61546" lon="2.1021">
        <ele>115</ele>
        <time>2020-05-31T14:01:12Z</time>
      </trkpt>
      <trkpt lat="48.61545" lon="2.10214">
        <ele>115</ele>
        <time>2020-05-31T14:01:14Z</time>
      </trkpt>
      <trkpt lat="48.61545" lon="2.10217">
        <ele>115</ele>
        <time>2020-05-31T14:01:16Z</time>
      </trkpt>
      <trkpt lat="48.61544" lon="2.10221">
        <ele>115</ele>
        <time>2020-05-31T14:01:18Z</time>
      </trkpt>
      <trkpt lat="48.61544" lon="2.10225">
        <ele>115</ele>
        <time>2020-05-31T14:01:20Z</time>
      </trkpt>
      <trkpt lat="48.61543" lon="2.10228">
        <ele>114</ele>
        <time>2020-05-31T14:01:22Z</time>
      </trkpt>
      <trkpt lat="48.61542" lon="2.10231">
        <ele>114</ele>
        <time>2020-05-31T14:01:24Z</time>
      </trkpt>
      <trkpt lat="48.61541" lon="2.10234">
        <ele>114</ele>
        <time>2020-05-31T14:01:26Z</time>
      </trkpt>
      <trkpt lat="48.6154" lon="2.10237">
        <ele>114</ele>
        <time>2020-05-31T14:01:28Z</time>
      </trkpt>
      <trkpt lat="48.61539" lon="2.10241">
        <ele>114</ele>
        <time>2020-05-31T14:01:30Z</time>
      </trkpt>
      <trkpt lat="48.61538" lon="2.10245">
        <ele>114</ele>
        <time>2020-05-31T14:01:32Z</time>
      </trkpt>
      <trkpt lat="48.61537" lon="2.10249">
        <ele>114</ele>
        <time>2020-05-31T14:01:34Z</time>
      </trkpt>
      <trkpt lat="48.61536" lon="2.10252">
        <ele>114</ele>
        <time>2020-05-31T14:01:36Z</time>
      </trkpt>
      <trkpt lat="48.61535" lon="2.10256">
        <ele>114</ele>
        <time>2020-05-31T14:01:38Z</time>
      </trkpt>
      <trkpt lat="48.61534" lon="2.1026">
        <ele>114</ele>
        <time>2020-05-31T14:01:40Z</time>
      </trkpt>
      <trkpt lat="48.61533" lon="2.10264">
        <ele>113</ele>
        <time>2020-05-31T14:01:42Z</time>
      </trkpt>
      <trkpt lat="48.61532" lon="2.10268">
        <ele>113</ele>
        <time>2020-05-31T14:01:44Z</time>
      </trkpt>
      <trkpt lat="48.61531" lon="2.10272">
        <ele>113</ele>
        <time>2020-05-31T14:01:46Z</time>
      </trkpt>
      <trkpt lat="48.6153" lon="2.10275">
        <ele>113</ele>
        <time>2020-05-31T14:01:48Z</time>
      </trkpt>
      <trkpt lat="48.61529" lon="2.10279">
        <ele>113</ele>
        <time>2020-05-31T14:01:50Z</time>
      </trkpt>
      <trkpt lat="48.61528" lon="2.10283">
        <ele>113</ele>
        <time>2020-05-31T14:01:52Z</time>
      </trkpt>
      <trkpt lat="48.61527" lon="2.10285">
        <ele>113</ele>
        <time>2020-05-31T14:01:54Z</time>
      </trkpt>
      <trkpt lat="48.61526" lon="2.10288">
        <ele>113</ele>
        <time>2020-05-31T14:01:56Z</time>
      </trkpt>
      <trkpt lat="48.61525" lon="2.10292">
        <ele>113</ele>
        <time>2020-05-31T14:01:58Z</time>
      </trkpt>
      <trkpt lat="48.61524" lon="2.10295">
        <ele>113</ele>
        <time>2020-05-31T14:02:00Z</time>
      </trkpt>
      <trkpt lat="48.61523" lon="2.10298">
        <ele>113</ele>
        <time>2020-05-31T14:02:02Z</time>
      </trkpt>
      <trkpt lat="48.61522" lon="2.10302">
        <ele>113</ele>
        <time>2020-05-31T14:02:04Z</time>
      </trkpt>
      <trkpt lat="48.61521" lon="2.10306">
        <ele>112</ele>
        <time>2020-05-31T14:02:06Z</time>
      </trkpt>
      <trkpt lat="48.6152" lon="2.10309">
        <ele>112</ele>
        <time>2020-05-31T14:02:08Z</time>
      </trkpt>
      <trkpt lat="48.61519" lon="2.10313">
        <ele>112</ele>
        <time>2020-05-31T14:02:10Z</time>
      </trkpt>
      <trkpt lat="48.61518" lon="2.10317">
        <ele>112</ele>
        <time>2020-05-31T14:02:12Z</time>
      </trkpt>
      <trkpt lat="48.61516" lon="2.1032">
        <ele>112</ele>
        <time>2020-05-31T14:02:14Z</time>
      </trkpt>
      <trkpt lat="48.61515" lon="2.10323">
        <ele>112</ele>
        <time>2020-05-31T14:02:16Z</time>
      </trkpt>
      <trkpt lat="48.61514" lon="2.10327">
        <ele>112</ele>
        <time>2020-05-31T14:02:18Z</time>
      </trkpt>
      <trkpt lat="48.61513" lon="2.10329">
        <ele>112</ele>
        <time>2020-05-31T14:02:21Z</time>
      </trkpt>
      <trkpt lat="48.61511" lon="2.10331">
        <ele>112</ele>
        <time>2020-05-31T14:02:24Z</time>
      </trkpt>
      <trkpt lat="48.61509" lon="2.10334">
        <ele>112</ele>
        <time>2020-05-31T14:02:26Z</time>
      </trkpt>
      <trkpt lat="48.61508" lon="2.10338">
        <ele>112</ele>
        <time>2020-05-31T14:02:28Z</time>
      </trkpt>
      <trkpt lat="48.61507" lon="2.10342">
        <ele>112</ele>
        <time>2020-05-31T14:02:30Z</time>
      </trkpt>
      <trkpt lat="48.61505" lon="2.10346">
        <ele>112</ele>
        <time>2020-05-31T14:02:32Z</time>
      </trkpt>
      <trkpt lat="48.61503" lon="2.10349">
        <ele>112</ele>
        <time>2020-05-31T14:02:34Z</time>
      </trkpt>
      <trkpt lat="48.61502" lon="2.10352">
        <ele>112</ele>
        <time>2020-05-31T14:02:36Z</time>
      </trkpt>
      <trkpt lat="48.615" lon="2.10356">
        <ele>112</ele>
        <time>2020-05-31T14:02:38Z</time>
      </trkpt>
      <trkpt lat="48.61498" lon="2.10359">
        <ele>112</ele>
        <time>2020-05-31T14:02:40Z</time>
      </trkpt>
      <trkpt lat="48.61497" lon="2.10362">
        <ele>112</ele>
        <time>2020-05-31T14:02:42Z</time>
      </trkpt>
      <trkpt lat="48.61495" lon="2.10365">
        <ele>112</ele>
        <time>2020-05-31T14:02:44Z</time>
      </trkpt>
      <trkpt lat="48.61493" lon="2.10368">
        <ele>112</ele>
        <time>2020-05-31T14:02:46Z</time>
      </trkpt>
      <trkpt lat="48.61491" lon="2.10372">
        <ele>111</ele>
        <time>2020-05-31T14:02:48Z</time>
      </trkpt>
      <trkpt lat="48.6149" lon="2.10375">
        <ele>111</ele>
        <time>2020-05-31T14:02:50Z</time>
      </trkpt>
      <trkpt lat="48.61488" lon="2.10378">
        <ele>111</ele>
        <time>2020-05-31T14:02:52Z</time>
      </trkpt>
      <trkpt lat="48.61486" lon="2.10381">
        <ele>111</ele>
        <time>2020-05-31T14:02:54Z</time>
      </trkpt>
      <trkpt lat="48.61485" lon="2.10384">
        <ele>111</ele>
        <time>2020-05-31T14:02:59Z</time>
      </trkpt>
      <trkpt lat="48.61483" lon="2.10387">
        <ele>111</ele>
        <time>2020-05-31T14:03:01Z</time>
      </trkpt>
      <trkpt lat="48.6148" lon="2.10391">
        <ele>110</ele>
        <time>2020-05-31T14:03:03Z</time>
      </trkpt>
      <trkpt lat="48.61478" lon="2.10394">
        <ele>110</ele>
        <time>2020-05-31T14:03:05Z</time>
      </trkpt>
      <trkpt lat="48.61476" lon="2.10397">
        <ele>110</ele>
        <time>2020-05-31T14:03:07Z</time>
      </trkpt>
      <trkpt lat="48.61474" lon="2.10399">
        <ele>110</ele>
        <time>2020-05-31T14:03:09Z</time>
      </trkpt>
      <trkpt lat="48.61472" lon="2.10401">
        <ele>109</ele>
        <time>2020-05-31T14:03:12Z</time>
      </trkpt>
      <trkpt lat="48.6147" lon="2.10404">
        <ele>109</ele>
        <time>2020-05-31T14:03:14Z</time>
      </trkpt>
      <trkpt lat="48.61468" lon="2.10406">
        <ele>109</ele>
        <time>2020-05-31T14:03:19Z</time>
      </trkpt>
      <trkpt lat="48.61467" lon="2.10409">
        <ele>109</ele>
        <time>2020-05-31T14:03:21Z</time>
      </trkpt>
      <trkpt lat="48.61465" lon="2.10413">
        <ele>109</ele>
        <time>2020-05-31T14:03:23Z</time>
      </trkpt>
      <trkpt lat="48.61462" lon="2.10416">
        <ele>109</ele>
        <time>2020-05-31T14:03:25Z</time>
      </trkpt>
      <trkpt lat="48.6146" lon="2.10419">
        <ele>109</ele>
        <time>2020-05-31T14:03:30Z</time>
      </trkpt>
      <trkpt lat="48.61458" lon="2.10422">
        <ele>109</ele>
        <time>2020-05-31T14:03:32Z</time>
      </trkpt>
      <trkpt lat="48.61456" lon="2.10426">
        <ele>109</ele>
        <time>2020-05-31T14:03:34Z</time>
      </trkpt>
      <trkpt lat="48.61453" lon="2.10429">
        <ele>108</ele>
        <time>2020-05-31T14:03:36Z</time>
      </trkpt>
      <trkpt lat="48.61451" lon="2.10433">
        <ele>108</ele>
        <time>2020-05-31T14:03:38Z</time>
      </trkpt>
      <trkpt lat="48.6145" lon="2.10436">
        <ele>108</ele>
        <time>2020-05-31T14:03:40Z</time>
      </trkpt>
      <trkpt lat="48.61448" lon="2.10439">
        <ele>108</ele>
        <time>2020-05-31T14:03:43Z</time>
      </trkpt>
      <trkpt lat="48.61447" lon="2.10441">
        <ele>108</ele>
        <time>2020-05-31T14:03:44Z</time>
      </trkpt>
      <trkpt lat="48.61445" lon="2.10443">
        <ele>108</ele>
        <time>2020-05-31T14:03:45Z</time>
      </trkpt>
      <trkpt lat="48.61443" lon="2.10447">
        <ele>108</ele>
        <time>2020-05-31T14:03:47Z</time>
      </trkpt>
      <trkpt lat="48.61442" lon="2.1045">
        <ele>108</ele>
        <time>2020-05-31T14:03:50Z</time>
      </trkpt>
      <trkpt lat="48.6144" lon="2.10453">
        <ele>107</ele>
        <time>2020-05-31T14:03:52Z</time>
      </trkpt>
      <trkpt lat="48.61439" lon="2.10456">
        <ele>107</ele>
        <time>2020-05-31T14:03:54Z</time>
      </trkpt>
      <trkpt lat="48.61438" lon="2.1046">
        <ele>107</ele>
        <time>2020-05-31T14:03:56Z</time>
      </trkpt>
      <trkpt lat="48.61436" lon="2.10464">
        <ele>107</ele>
        <time>2020-05-31T14:03:58Z</time>
      </trkpt>
      <trkpt lat="48.61434" lon="2.10467">
        <ele>107</ele>
        <time>2020-05-31T14:04:00Z</time>
      </trkpt>
      <trkpt lat="48.61433" lon="2.10471">
        <ele>107</ele>
        <time>2020-05-31T14:04:02Z</time>
      </trkpt>
      <trkpt lat="48.61432" lon="2.10475">
        <ele>107</ele>
        <time>2020-05-31T14:04:04Z</time>
      </trkpt>
      <trkpt lat="48.6143" lon="2.10479">
        <ele>107</ele>
        <time>2020-05-31T14:04:06Z</time>
      </trkpt>
      <trkpt lat="48.61429" lon="2.10483">
        <ele>107</ele>
        <time>2020-05-31T14:04:08Z</time>
      </trkpt>
      <trkpt lat="48.61427" lon="2.10487">
        <ele>107</ele>
        <time>2020-05-31T14:04:10Z</time>
      </trkpt>
      <trkpt lat="48.61426" lon="2.1049">
        <ele>107</ele>
        <time>2020-05-31T14:04:12Z</time>
      </trkpt>
      <trkpt lat="48.61425" lon="2.10494">
        <ele>107</ele>
        <time>2020-05-31T14:04:14Z</time>
      </trkpt>
      <trkpt lat="48.61424" lon="2.10497">
        <ele>107</ele>
        <time>2020-05-31T14:04:16Z</time>
      </trkpt>
      <trkpt lat="48.61423" lon="2.10501">
        <ele>107</ele>
        <time>2020-05-31T14:04:18Z</time>
      </trkpt>
      <trkpt lat="48.61422" lon="2.10504">
        <ele>107</ele>
        <time>2020-05-31T14:04:20Z</time>
      </trkpt>
      <trkpt lat="48.61421" lon="2.10508">
        <ele>107</ele>
        <time>2020-05-31T14:04:22Z</time>
      </trkpt>
      <trkpt lat="48.6142" lon="2.10512">
        <ele>107</ele>
        <time>2020-05-31T14:04:24Z</time>
      </trkpt>
      <trkpt lat="48.61419" lon="2.10516">
        <ele>107</ele>
        <time>2020-05-31T14:04:26Z</time>
      </trkpt>
      <trkpt lat="48.61418" lon="2.1052">
        <ele>107</ele>
        <time>2020-05-31T14:04:28Z</time>
      </trkpt>
      <trkpt lat="48.61417" lon="2.10523">
        <ele>107</ele>
        <time>2020-05-31T14:04:30Z</time>
      </trkpt>
      <trkpt lat="48.61416" lon="2.10526">
        <ele>107</ele>
        <time>2020-05-31T14:04:32Z</time>
      </trkpt>
      <trkpt lat="48.61416" lon="2.1053">
        <ele>107</ele>
        <time>2020-05-31T14:04:34Z</time>
      </trkpt>
      <trkpt lat="48.61416" lon="2.10533">
        <ele>107</ele>
        <time>2020-05-31T14:04:36Z</time>
      </trkpt>
      <trkpt lat="48.61415" lon="2.10537">
        <ele>107</ele>
        <time>2020-05-31T14:04:38Z</time>
      </trkpt>
      <trkpt lat="48.61414" lon="2.1054">
        <ele>107</ele>
        <time>2020-05-31T14:04:40Z</time>
      </trkpt>
      <trkpt lat="48.61414" lon="2.10544">
        <ele>107</ele>
        <time>2020-05-31T14:04:42Z</time>
      </trkpt>
      <trkpt lat="48.61414" lon="2.10548">
        <ele>107</ele>
        <time>2020-05-31T14:04:44Z</time>
      </trkpt>
      <trkpt lat="48.61414" lon="2.10552">
        <ele>107</ele>
        <time>2020-05-31T14:04:46Z</time>
      </trkpt>
      <trkpt lat="48.61413" lon="2.10556">
        <ele>107</ele>
        <time>2020-05-31T14:04:48Z</time>
      </trkpt>
      <trkpt lat="48.61413" lon="2.1056">
        <ele>107</ele>
        <time>2020-05-31T14:04:50Z</time>
      </trkpt>
      <trkpt lat="48.61413" lon="2.10564">
        <ele>107</ele>
        <time>2020-05-31T14:04:52Z</time>
      </trkpt>
      <trkpt lat="48.61413" lon="2.10568">
        <ele>107</ele>
        <time>2020-05-31T14:04:54Z</time>
      </trkpt>
      <trkpt lat="48.61413" lon="2.10573">
        <ele>107</ele>
        <time>2020-05-31T14:04:56Z</time>
      </trkpt>
      <trkpt lat="48.61412" lon="2.10577">
        <ele>107</ele>
        <time>2020-05-31T14:04:58Z</time>
      </trkpt>
      <trkpt lat="48.61413" lon="2.10581">
        <ele>107</ele>
        <time>2020-05-31T14:05:00Z</time>
      </trkpt>
      <trkpt lat="48.61413" lon="2.10585">
        <ele>107</ele>
        <time>2020-05-31T14:05:02Z</time>
      </trkpt>
      <trkpt lat="48.61413" lon="2.10589">
        <ele>107</ele>
        <time>2020-05-31T14:05:04Z</time>
      </trkpt>
      <trkpt lat="48.61414" lon="2.10592">
        <ele>107</ele>
        <time>2020-05-31T14:05:06Z</time>
      </trkpt>
      <trkpt lat="48.61416" lon="2.10596">
        <ele>107</ele>
        <time>2020-05-31T14:05:08Z</time>
      </trkpt>
      <trkpt lat="48.61417" lon="2.10599">
        <ele>107</ele>
        <time>2020-05-31T14:05:10Z</time>
      </trkpt>
      <trkpt lat="48.61419" lon="2.10602">
        <ele>107</ele>
        <time>2020-05-31T14:05:12Z</time>
      </trkpt>
      <trkpt lat="48.61421" lon="2.10605">
        <ele>107</ele>
        <time>2020-05-31T14:05:14Z</time>
      </trkpt>
      <trkpt lat="48.61423" lon="2.10608">
        <ele>106</ele>
        <time>2020-05-31T14:05:16Z</time>
      </trkpt>
      <trkpt lat="48.61425" lon="2.10611">
        <ele>107</ele>
        <time>2020-05-31T14:05:18Z</time>
      </trkpt>
      <trkpt lat="48.61427" lon="2.10614">
        <ele>107</ele>
        <time>2020-05-31T14:05:20Z</time>
      </trkpt>
      <trkpt lat="48.61429" lon="2.10617">
        <ele>107</ele>
        <time>2020-05-31T14:05:22Z</time>
      </trkpt>
      <trkpt lat="48.6143" lon="2.10619">
        <ele>106</ele>
        <time>2020-05-31T14:05:24Z</time>
      </trkpt>
      <trkpt lat="48.61432" lon="2.10622">
        <ele>106</ele>
        <time>2020-05-31T14:05:26Z</time>
      </trkpt>
      <trkpt lat="48.61433" lon="2.10624">
        <ele>106</ele>
        <time>2020-05-31T14:05:28Z</time>
      </trkpt>
      <trkpt lat="48.61435" lon="2.10626">
        <ele>106</ele>
        <time>2020-05-31T14:05:30Z</time>
      </trkpt>
      <trkpt lat="48.61436" lon="2.10628">
        <ele>106</ele>
        <time>2020-05-31T14:05:32Z</time>
      </trkpt>
      <trkpt lat="48.61437" lon="2.10631">
        <ele>106</ele>
        <time>2020-05-31T14:05:34Z</time>
      </trkpt>
      <trkpt lat="48.61439" lon="2.10634">
        <ele>106</ele>
        <time>2020-05-31T14:05:36Z</time>
      </trkpt>
      <trkpt lat="48.6144" lon="2.10637">
        <ele>106</ele>
        <time>2020-05-31T14:05:38Z</time>
      </trkpt>
      <trkpt lat="48.61442" lon="2.1064">
        <ele>106</ele>
        <time>2020-05-31T14:05:40Z</time>
      </trkpt>
      <trkpt lat="48.61443" lon="2.10643">
        <ele>106</ele>
        <time>2020-05-31T14:05:42Z</time>
      </trkpt>
      <trkpt lat="48.61445" lon="2.10645">
        <ele>106</ele>
        <time>2020-05-31T14:05:44Z</time>
      </trkpt>
      <trkpt lat="48.61447" lon="2.10648">
        <ele>106</ele>
        <time>2020-05-31T14:05:46Z</time>
      </trkpt>
      <trkpt lat="48.6145" lon="2.1065">
        <ele>106</ele>
        <time>2020-05-31T14:05:48Z</time>
      </trkpt>
      <trkpt lat="48.61452" lon="2.10653">
        <ele>106</ele>
        <time>2020-05-31T14:05:50Z</time>
      </trkpt>
      <trkpt lat="48.61454" lon="2.10655">
        <ele>106</ele>
        <time>2020-05-31T14:05:52Z</time>
      </trkpt>
      <trkpt lat="48.61456" lon="2.10658">
        <ele>106</ele>
        <time>2020-05-31T14:05:54Z</time>
      </trkpt>
      <trkpt lat="48.61458" lon="2.1066">
        <ele>106</ele>
        <time>2020-05-31T14:05:56Z</time>
      </trkpt>
      <trkpt lat="48.6146" lon="2.10663">
        <ele>106</ele>
        <time>2020-05-31T14:05:58Z</time>
      </trkpt>
      <trkpt lat="48.61461" lon="2.10666">
        <ele>106</ele>
        <time>2020-05-31T14:06:00Z</time>
      </trkpt>
      <trkpt lat="48.61463" lon="2.10668">
        <ele>106</ele>
        <time>2020-05-31T14:06:02Z</time>
      </trkpt>
      <trkpt lat="48.61465" lon="2.10671">
        <ele>106</ele>
        <time>2020-05-31T14:06:04Z</time>
      </trkpt>
      <trkpt lat="48.61467" lon="2.10674">
        <ele>106</ele>
        <time>2020-05-31T14:06:06Z</time>
      </trkpt>
      <trkpt lat="48.61469" lon="2.10677">
        <ele>106</ele>
        <time>2020-05-31T14:06:08Z</time>
      </trkpt>
      <trkpt lat="48.61471" lon="2.1068">
        <ele>106</ele>
        <time>2020-05-31T14:06:10Z</time>
      </trkpt>
      <trkpt lat="48.61473" lon="2.10683">
        <ele>105</ele>
        <time>2020-05-31T14:06:12Z</time>
      </trkpt>
      <trkpt lat="48.61474" lon="2.10685">
        <ele>106</ele>
        <time>2020-05-31T14:06:14Z</time>
      </trkpt>
      <trkpt lat="48.61476" lon="2.10688">
        <ele>106</ele>
        <time>2020-05-31T14:06:16Z</time>
      </trkpt>
      <trkpt lat="48.61478" lon="2.1069">
        <ele>105</ele>
        <time>2020-05-31T14:06:18Z</time>
      </trkpt>
      <trkpt lat="48.61479" lon="2.10692">
        <ele>105</ele>
        <time>2020-05-31T14:06:20Z</time>
      </trkpt>
      <trkpt lat="48.61481" lon="2.10693">
        <ele>105</ele>
        <time>2020-05-31T14:06:22Z</time>
      </trkpt>
      <trkpt lat="48.61483" lon="2.10695">
        <ele>105</ele>
        <time>2020-05-31T14:06:24Z</time>
      </trkpt>
      <trkpt lat="48.61485" lon="2.10697">
        <ele>104</ele>
        <time>2020-05-31T14:06:26Z</time>
      </trkpt>
      <trkpt lat="48.61487" lon="2.10698">
        <ele>104</ele>
        <time>2020-05-31T14:06:28Z</time>
      </trkpt>
      <trkpt lat="48.61489" lon="2.107">
        <ele>104</ele>
        <time>2020-05-31T14:06:30Z</time>
      </trkpt>
      <trkpt lat="48.61491" lon="2.10701">
        <ele>104</ele>
        <time>2020-05-31T14:06:32Z</time>
      </trkpt>
      <trkpt lat="48.61493" lon="2.10702">
        <ele>104</ele>
        <time>2020-05-31T14:06:34Z</time>
      </trkpt>
      <trkpt lat="48.61495" lon="2.10704">
        <ele>104</ele>
        <time>2020-05-31T14:06:36Z</time>
      </trkpt>
      <trkpt lat="48.61498" lon="2.10706">
        <ele>105</ele>
        <time>2020-05-31T14:06:38Z</time>
      </trkpt>
      <trkpt lat="48.61499" lon="2.10708">
        <ele>105</ele>
        <time>2020-05-31T14:06:40Z</time>
      </trkpt>
      <trkpt lat="48.61501" lon="2.1071">
        <ele>104</ele>
        <time>2020-05-31T14:06:42Z</time>
      </trkpt>
      <trkpt lat="48.61502" lon="2.10713">
        <ele>104</ele>
        <time>2020-05-31T14:06:44Z</time>
      </trkpt>
      <trkpt lat="48.61502" lon="2.10716">
        <ele>104</ele>
        <time>2020-05-31T14:06:46Z</time>
      </trkpt>
    </trkseg>
  </trk>
</gpx>